<?xml version='1.0' encoding='UTF-8'?><gpx version="1.1" creator="JPX - https://github.com/jenetics/jpx" xmlns="http://www.topografix.com/GPX/1/1"><trk><trkseg><trkpt lat="44.416105" lon="12.1397267"><ele>2.0</ele><time>2026-04-11T09:58:08.124Z</time></trkpt><trkpt lat="44.4160417" lon="12.1395967"><ele>2.0</ele><time>2026-04-11T09:58:10.122Z</time></trkpt><trkpt lat="44.4160167" lon="12.1394883"><ele>2.0</ele><time>2026-04-11T09:58:11.123Z</time></trkpt><trkpt lat="44.4159867" lon="12.1393767"><ele>2.0</ele><time>2026-04-11T09:58:12.124Z</time></trkpt><trkpt lat="44.41596" lon="12.1392767"><ele>2.0</ele><time>2026-04-11T09:58:13.122Z</time></trkpt><trkpt lat="44.415955" lon="12.1391183"><ele>2.0</ele><time>2026-04-11T09:58:15.124Z</time></trkpt><trkpt lat="44.41601" lon="12.1390517"><ele>2.0</ele><time>2026-04-11T09:58:18.124Z</time></trkpt><trkpt lat="44.4161367" lon="12.1390217"><ele>2.0</ele><time>2026-04-11T09:58:29.124Z</time></trkpt><trkpt lat="44.4162267" lon="12.1389783"><ele>2.0</ele><time>2026-04-11T09:58:30.124Z</time></trkpt><trkpt lat="44.4163333" lon="12.1389267"><ele>2.0</ele><time>2026-04-11T09:58:31.123Z</time></trkpt><trkpt lat="44.416445" lon="12.138885"><ele>1.6</ele><time>2026-04-11T09:58:32.123Z</time></trkpt><trkpt lat="44.416555" lon="12.13885"><ele>1.2000000000000002</ele><time>2026-04-11T09:58:33.124Z</time></trkpt><trkpt lat="44.4166533" lon="12.13882"><ele>0.8</ele><time>2026-04-11T09:58:34.124Z</time></trkpt><trkpt lat="44.4167483" lon="12.1387883"><ele>0.4</ele><time>2026-04-11T09:58:35.123Z</time></trkpt><trkpt lat="44.4168367" lon="12.1387617"><ele>0.0</ele><time>2026-04-11T09:58:36.124Z</time></trkpt><trkpt lat="44.4169183" lon="12.1387317"><ele>0.0</ele><time>2026-04-11T09:58:37.124Z</time></trkpt><trkpt lat="44.4170017" lon="12.1386983"><ele>0.0</ele><time>2026-04-11T09:58:38.124Z</time></trkpt><trkpt lat="44.41708" lon="12.138665"><ele>0.0</ele><time>2026-04-11T09:58:39.124Z</time></trkpt><trkpt lat="44.417165" lon="12.13863"><ele>0.0</ele><time>2026-04-11T09:58:40.123Z</time></trkpt><trkpt lat="44.4172567" lon="12.1385933"><ele>0.0</ele><time>2026-04-11T09:58:41.123Z</time></trkpt><trkpt lat="44.4173617" lon="12.13856"><ele>0.16666666666666666</ele><time>2026-04-11T09:58:42.124Z</time></trkpt><trkpt lat="44.4174733" lon="12.1385367"><ele>0.3333333333333333</ele><time>2026-04-11T09:58:43.124Z</time></trkpt><trkpt lat="44.417575" lon="12.13852"><ele>0.5</ele><time>2026-04-11T09:58:44.124Z</time></trkpt><trkpt lat="44.4176583" lon="12.1384967"><ele>0.6666666666666666</ele><time>2026-04-11T09:58:45.125Z</time></trkpt><trkpt lat="44.4177267" lon="12.1384683"><ele>0.8333333333333333</ele><time>2026-04-11T09:58:46.123Z</time></trkpt><trkpt lat="44.4177933" lon="12.1384283"><ele>1.0</ele><time>2026-04-11T09:58:48.124Z</time></trkpt><trkpt lat="44.4178333" lon="12.1382917"><ele>1.25</ele><time>2026-04-11T09:59:02.124Z</time></trkpt><trkpt lat="44.4178417" lon="12.13818"><ele>1.5</ele><time>2026-04-11T09:59:03.124Z</time></trkpt><trkpt lat="44.417825" lon="12.138035"><ele>1.75</ele><time>2026-04-11T09:59:04.123Z</time></trkpt><trkpt lat="44.417785" lon="12.1378433"><ele>2.0</ele><time>2026-04-11T09:59:05.124Z</time></trkpt><trkpt lat="44.417745" lon="12.1376433"><ele>2.0</ele><time>2026-04-11T09:59:06.124Z</time></trkpt><trkpt lat="44.4176983" lon="12.1374267"><ele>2.0</ele><time>2026-04-11T09:59:07.123Z</time></trkpt><trkpt lat="44.4176517" lon="12.1372"><ele>2.0</ele><time>2026-04-11T09:59:08.123Z</time></trkpt><trkpt lat="44.4176017" lon="12.1369617"><ele>2.0</ele><time>2026-04-11T09:59:09.124Z</time></trkpt><trkpt lat="44.4175483" lon="12.136715"><ele>2.0</ele><time>2026-04-11T09:59:10.124Z</time></trkpt><trkpt lat="44.4174867" lon="12.136465"><ele>2.0</ele><time>2026-04-11T09:59:11.124Z</time></trkpt><trkpt lat="44.4174167" lon="12.1362133"><ele>1.6666666666666665</ele><time>2026-04-11T09:59:12.123Z</time></trkpt><trkpt lat="44.4173433" lon="12.1359583"><ele>1.3333333333333333</ele><time>2026-04-11T09:59:13.124Z</time></trkpt><trkpt lat="44.4172633" lon="12.1357067"><ele>1.0</ele><time>2026-04-11T09:59:14.124Z</time></trkpt><trkpt lat="44.417185" lon="12.1354517"><ele>0.6666666666666666</ele><time>2026-04-11T09:59:15.125Z</time></trkpt><trkpt lat="44.417105" lon="12.1351967"><ele>0.3333333333333333</ele><time>2026-04-11T09:59:16.122Z</time></trkpt><trkpt lat="44.4170233" lon="12.1349317"><ele>0.0</ele><time>2026-04-11T09:59:17.123Z</time></trkpt><trkpt lat="44.4169417" lon="12.1346767"><ele>0.0</ele><time>2026-04-11T09:59:18.123Z</time></trkpt><trkpt lat="44.4168583" lon="12.1344183"><ele>0.0</ele><time>2026-04-11T09:59:19.124Z</time></trkpt><trkpt lat="44.4167733" lon="12.1341583"><ele>0.0</ele><time>2026-04-11T09:59:20.123Z</time></trkpt><trkpt lat="44.4166883" lon="12.1339"><ele>0.0</ele><time>2026-04-11T09:59:21.124Z</time></trkpt><trkpt lat="44.416595" lon="12.133645"><ele>0.0</ele><time>2026-04-11T09:59:22.124Z</time></trkpt><trkpt lat="44.4164917" lon="12.1333933"><ele>0.0</ele><time>2026-04-11T09:59:23.123Z</time></trkpt><trkpt lat="44.4163783" lon="12.1331467"><ele>0.6666666666666666</ele><time>2026-04-11T09:59:24.124Z</time></trkpt><trkpt lat="44.4162583" lon="12.1329017"><ele>1.3333333333333333</ele><time>2026-04-11T09:59:25.124Z</time></trkpt><trkpt lat="44.4161333" lon="12.132655"><ele>2.0</ele><time>2026-04-11T09:59:26.123Z</time></trkpt><trkpt lat="44.4160017" lon="12.1324033"><ele>2.5</ele><time>2026-04-11T09:59:27.125Z</time></trkpt><trkpt lat="44.41586" lon="12.1321383"><ele>3.0</ele><time>2026-04-11T09:59:28.124Z</time></trkpt><trkpt lat="44.415705" lon="12.1318617"><ele>3.0</ele><time>2026-04-11T09:59:29.124Z</time></trkpt><trkpt lat="44.41554" lon="12.13158"><ele>3.0</ele><time>2026-04-11T09:59:30.124Z</time></trkpt><trkpt lat="44.4153717" lon="12.1313"><ele>2.5</ele><time>2026-04-11T09:59:31.123Z</time></trkpt><trkpt lat="44.4152" lon="12.13102"><ele>2.0</ele><time>2026-04-11T09:59:32.123Z</time></trkpt><trkpt lat="44.415025" lon="12.13073"><ele>2.0</ele><time>2026-04-11T09:59:33.124Z</time></trkpt><trkpt lat="44.4148533" lon="12.1304233"><ele>2.0</ele><time>2026-04-11T09:59:34.124Z</time></trkpt><trkpt lat="44.414685" lon="12.130115"><ele>1.5</ele><time>2026-04-11T09:59:35.123Z</time></trkpt><trkpt lat="44.4145183" lon="12.1298167"><ele>1.0</ele><time>2026-04-11T09:59:36.124Z</time></trkpt><trkpt lat="44.4143567" lon="12.1295333"><ele>1.0</ele><time>2026-04-11T09:59:37.124Z</time></trkpt><trkpt lat="44.4142033" lon="12.129265"><ele>1.0</ele><time>2026-04-11T09:59:38.124Z</time></trkpt><trkpt lat="44.4140617" lon="12.12901"><ele>1.0</ele><time>2026-04-11T09:59:39.124Z</time></trkpt><trkpt lat="44.41393" lon="12.1287667"><ele>1.0</ele><time>2026-04-11T09:59:40.123Z</time></trkpt><trkpt lat="44.4138083" lon="12.1285367"><ele>1.0</ele><time>2026-04-11T09:59:41.124Z</time></trkpt><trkpt lat="44.4136917" lon="12.1283183"><ele>1.0</ele><time>2026-04-11T09:59:42.124Z</time></trkpt><trkpt lat="44.413585" lon="12.1281133"><ele>1.0</ele><time>2026-04-11T09:59:43.123Z</time></trkpt><trkpt lat="44.4134883" lon="12.1279267"><ele>1.0</ele><time>2026-04-11T09:59:44.124Z</time></trkpt><trkpt lat="44.41341" lon="12.1277617"><ele>1.0</ele><time>2026-04-11T09:59:45.125Z</time></trkpt><trkpt lat="44.41336" lon="12.127595"><ele>1.0</ele><time>2026-04-11T09:59:46.123Z</time></trkpt><trkpt lat="44.413345" lon="12.1274183"><ele>1.0</ele><time>2026-04-11T09:59:47.123Z</time></trkpt><trkpt lat="44.4133633" lon="12.127235"><ele>1.0</ele><time>2026-04-11T09:59:48.124Z</time></trkpt><trkpt lat="44.41342" lon="12.127065"><ele>1.0</ele><time>2026-04-11T09:59:49.122Z</time></trkpt><trkpt lat="44.413515" lon="12.1269183"><ele>1.0</ele><time>2026-04-11T09:59:50.123Z</time></trkpt><trkpt lat="44.41364" lon="12.1267867"><ele>1.0</ele><time>2026-04-11T09:59:51.124Z</time></trkpt><trkpt lat="44.4137883" lon="12.1266633"><ele>0.3333333333333333</ele><time>2026-04-11T09:59:52.125Z</time></trkpt><trkpt lat="44.4139517" lon="12.1265367"><ele>-0.3333333333333333</ele><time>2026-04-11T09:59:53.123Z</time></trkpt><trkpt lat="44.4141233" lon="12.1264067"><ele>-1.0</ele><time>2026-04-11T09:59:54.124Z</time></trkpt><trkpt lat="44.4142983" lon="12.1262783"><ele>-1.0</ele><time>2026-04-11T09:59:55.123Z</time></trkpt><trkpt lat="44.4144717" lon="12.12615"><ele>-1.0</ele><time>2026-04-11T09:59:56.123Z</time></trkpt><trkpt lat="44.4146417" lon="12.1260233"><ele>-1.0</ele><time>2026-04-11T09:59:57.124Z</time></trkpt><trkpt lat="44.4148083" lon="12.1259033"><ele>-0.6666666666666666</ele><time>2026-04-11T09:59:58.123Z</time></trkpt><trkpt lat="44.4149667" lon="12.12579"><ele>-0.3333333333333333</ele><time>2026-04-11T09:59:59.123Z</time></trkpt><trkpt lat="44.415115" lon="12.1256817"><ele>0.0</ele><time>2026-04-11T10:00:00.124Z</time></trkpt><trkpt lat="44.4152583" lon="12.1255767"><ele>0.0</ele><time>2026-04-11T10:00:01.124Z</time></trkpt><trkpt lat="44.4154" lon="12.1254767"><ele>0.0</ele><time>2026-04-11T10:00:02.125Z</time></trkpt><trkpt lat="44.4155383" lon="12.1253783"><ele>0.0</ele><time>2026-04-11T10:00:03.125Z</time></trkpt><trkpt lat="44.4156717" lon="12.1252817"><ele>0.25</ele><time>2026-04-11T10:00:04.123Z</time></trkpt><trkpt lat="44.4158" lon="12.1251867"><ele>0.5</ele><time>2026-04-11T10:00:05.124Z</time></trkpt><trkpt lat="44.4159233" lon="12.1250933"><ele>0.75</ele><time>2026-04-11T10:00:06.124Z</time></trkpt><trkpt lat="44.41604" lon="12.1249983"><ele>1.0</ele><time>2026-04-11T10:00:07.124Z</time></trkpt><trkpt lat="44.4161467" lon="12.1248933"><ele>1.0</ele><time>2026-04-11T10:00:08.123Z</time></trkpt><trkpt lat="44.4162383" lon="12.124775"><ele>1.0</ele><time>2026-04-11T10:00:09.123Z</time></trkpt><trkpt lat="44.4163133" lon="12.1246417"><ele>1.0</ele><time>2026-04-11T10:00:10.123Z</time></trkpt><trkpt lat="44.4163617" lon="12.12449"><ele>1.0</ele><time>2026-04-11T10:00:11.124Z</time></trkpt><trkpt lat="44.4163733" lon="12.1243267"><ele>0.75</ele><time>2026-04-11T10:00:12.124Z</time></trkpt><trkpt lat="44.4163517" lon="12.124165"><ele>0.5</ele><time>2026-04-11T10:00:13.123Z</time></trkpt><trkpt lat="44.4163033" lon="12.1240117"><ele>0.25</ele><time>2026-04-11T10:00:14.124Z</time></trkpt><trkpt lat="44.4162233" lon="12.1238717"><ele>0.0</ele><time>2026-04-11T10:00:15.124Z</time></trkpt><trkpt lat="44.4161183" lon="12.12374"><ele>0.0</ele><time>2026-04-11T10:00:16.124Z</time></trkpt><trkpt lat="44.415995" lon="12.1236117"><ele>0.0</ele><time>2026-04-11T10:00:17.124Z</time></trkpt><trkpt lat="44.41587" lon="12.1234883"><ele>0.0</ele><time>2026-04-11T10:00:18.124Z</time></trkpt><trkpt lat="44.4157483" lon="12.1233667"><ele>0.0</ele><time>2026-04-11T10:00:19.123Z</time></trkpt><trkpt lat="44.415635" lon="12.123245"><ele>0.0</ele><time>2026-04-11T10:00:20.124Z</time></trkpt><trkpt lat="44.4155317" lon="12.1231133"><ele>0.0</ele><time>2026-04-11T10:00:21.123Z</time></trkpt><trkpt lat="44.4154367" lon="12.1229533"><ele>0.0</ele><time>2026-04-11T10:00:22.123Z</time></trkpt><trkpt lat="44.415355" lon="12.122765"><ele>0.0</ele><time>2026-04-11T10:00:23.123Z</time></trkpt><trkpt lat="44.4152833" lon="12.1225533"><ele>0.0</ele><time>2026-04-11T10:00:24.124Z</time></trkpt><trkpt lat="44.4152167" lon="12.12232"><ele>0.0</ele><time>2026-04-11T10:00:25.123Z</time></trkpt><trkpt lat="44.4151567" lon="12.1220583"><ele>0.5</ele><time>2026-04-11T10:00:26.122Z</time></trkpt><trkpt lat="44.4150917" lon="12.1217683"><ele>1.0</ele><time>2026-04-11T10:00:27.124Z</time></trkpt><trkpt lat="44.4150233" lon="12.1214467"><ele>1.0</ele><time>2026-04-11T10:00:28.124Z</time></trkpt><trkpt lat="44.4149583" lon="12.1210917"><ele>1.0</ele><time>2026-04-11T10:00:29.123Z</time></trkpt><trkpt lat="44.414895" lon="12.1207167"><ele>1.0</ele><time>2026-04-11T10:00:30.123Z</time></trkpt><trkpt lat="44.414835" lon="12.1203333"><ele>1.0</ele><time>2026-04-11T10:00:31.122Z</time></trkpt><trkpt lat="44.414775" lon="12.1199417"><ele>1.0</ele><time>2026-04-11T10:00:32.123Z</time></trkpt><trkpt lat="44.414715" lon="12.1195417"><ele>1.0</ele><time>2026-04-11T10:00:33.124Z</time></trkpt><trkpt lat="44.4146517" lon="12.119135"><ele>0.5</ele><time>2026-04-11T10:00:34.123Z</time></trkpt><trkpt lat="44.4145867" lon="12.1187283"><ele>0.0</ele><time>2026-04-11T10:00:35.123Z</time></trkpt><trkpt lat="44.414525" lon="12.1183267"><ele>-0.5</ele><time>2026-04-11T10:00:36.123Z</time></trkpt><trkpt lat="44.4144633" lon="12.117945"><ele>-1.0</ele><time>2026-04-11T10:00:37.123Z</time></trkpt><trkpt lat="44.4144033" lon="12.11758"><ele>-1.0</ele><time>2026-04-11T10:00:38.123Z</time></trkpt><trkpt lat="44.4143433" lon="12.117225"><ele>-1.0</ele><time>2026-04-11T10:00:39.124Z</time></trkpt><trkpt lat="44.41428" lon="12.116875"><ele>-1.0</ele><time>2026-04-11T10:00:40.123Z</time></trkpt><trkpt lat="44.4142133" lon="12.11653"><ele>-1.0</ele><time>2026-04-11T10:00:41.123Z</time></trkpt><trkpt lat="44.4141467" lon="12.1161867"><ele>-1.0</ele><time>2026-04-11T10:00:42.123Z</time></trkpt><trkpt lat="44.4140767" lon="12.1158483"><ele>-1.0</ele><time>2026-04-11T10:00:43.124Z</time></trkpt><trkpt lat="44.4140017" lon="12.1155083"><ele>-1.0</ele><time>2026-04-11T10:00:44.123Z</time></trkpt><trkpt lat="44.4139267" lon="12.1151717"><ele>-1.0</ele><time>2026-04-11T10:00:45.124Z</time></trkpt><trkpt lat="44.4138483" lon="12.1148333"><ele>-0.5</ele><time>2026-04-11T10:00:46.123Z</time></trkpt><trkpt lat="44.41377" lon="12.11449"><ele>0.0</ele><time>2026-04-11T10:00:47.124Z</time></trkpt><trkpt lat="44.4136867" lon="12.1141467"><ele>0.0</ele><time>2026-04-11T10:00:48.125Z</time></trkpt><trkpt lat="44.4136033" lon="12.113805"><ele>0.0</ele><time>2026-04-11T10:00:49.124Z</time></trkpt><trkpt lat="44.4135167" lon="12.1134667"><ele>2.0</ele><time>2026-04-11T10:00:50.126Z</time></trkpt><trkpt lat="44.4134283" lon="12.1131333"><ele>4.0</ele><time>2026-04-11T10:00:51.124Z</time></trkpt><trkpt lat="44.41334" lon="12.112805"><ele>4.0</ele><time>2026-04-11T10:00:52.123Z</time></trkpt><trkpt lat="44.4132517" lon="12.1124833"><ele>4.0</ele><time>2026-04-11T10:00:53.124Z</time></trkpt><trkpt lat="44.4131633" lon="12.112165"><ele>5.5</ele><time>2026-04-11T10:00:54.124Z</time></trkpt><trkpt lat="44.4130733" lon="12.1118483"><ele>7.0</ele><time>2026-04-11T10:00:55.123Z</time></trkpt><trkpt lat="44.4129783" lon="12.1115317"><ele>3.5</ele><time>2026-04-11T10:00:56.124Z</time></trkpt><trkpt lat="44.4128817" lon="12.1112133"><ele>0.0</ele><time>2026-04-11T10:00:57.124Z</time></trkpt><trkpt lat="44.41278" lon="12.1108917"><ele>1.5</ele><time>2026-04-11T10:00:58.124Z</time></trkpt><trkpt lat="44.4126783" lon="12.110565"><ele>3.0</ele><time>2026-04-11T10:00:59.123Z</time></trkpt><trkpt lat="44.41258" lon="12.1102317"><ele>3.0</ele><time>2026-04-11T10:01:00.125Z</time></trkpt><trkpt lat="44.4124783" lon="12.1099"><ele>3.0</ele><time>2026-04-11T10:01:01.124Z</time></trkpt><trkpt lat="44.412375" lon="12.1095667"><ele>3.0</ele><time>2026-04-11T10:01:02.124Z</time></trkpt><trkpt lat="44.4122717" lon="12.10923"><ele>3.0</ele><time>2026-04-11T10:01:03.126Z</time></trkpt><trkpt lat="44.4121683" lon="12.1088917"><ele>3.0</ele><time>2026-04-11T10:01:04.124Z</time></trkpt><trkpt lat="44.412065" lon="12.10855"><ele>3.0</ele><time>2026-04-11T10:01:05.123Z</time></trkpt><trkpt lat="44.41196" lon="12.1082017"><ele>3.0</ele><time>2026-04-11T10:01:06.124Z</time></trkpt><trkpt lat="44.411855" lon="12.1078533"><ele>3.0</ele><time>2026-04-11T10:01:07.124Z</time></trkpt><trkpt lat="44.4117485" lon="12.1075046"><ele>2.0</ele><time>2026-04-11T10:01:08.124Z</time></trkpt><trkpt lat="44.4116405" lon="12.1071541"><ele>1.0</ele><time>2026-04-11T10:01:09.123Z</time></trkpt><trkpt lat="44.4115332" lon="12.1068013"><ele>1.5</ele><time>2026-04-11T10:01:10.123Z</time></trkpt><trkpt lat="44.411425" lon="12.1064477"><ele>2.0</ele><time>2026-04-11T10:01:11.123Z</time></trkpt><trkpt lat="44.4113179" lon="12.1060953"><ele>2.0</ele><time>2026-04-11T10:01:12.124Z</time></trkpt><trkpt lat="44.4112125" lon="12.1057448"><ele>2.0</ele><time>2026-04-11T10:01:13.124Z</time></trkpt><trkpt lat="44.4111054" lon="12.1053983"><ele>2.0</ele><time>2026-04-11T10:01:14.124Z</time></trkpt><trkpt lat="44.4110011" lon="12.105055"><ele>2.0</ele><time>2026-04-11T10:01:15.125Z</time></trkpt><trkpt lat="44.4108966" lon="12.1047134"><ele>1.5</ele><time>2026-04-11T10:01:16.124Z</time></trkpt><trkpt lat="44.4107953" lon="12.1043701"><ele>1.0</ele><time>2026-04-11T10:01:17.123Z</time></trkpt><trkpt lat="44.4106926" lon="12.1040267"><ele>1.0</ele><time>2026-04-11T10:01:18.124Z</time></trkpt><trkpt lat="44.4105884" lon="12.1036845"><ele>1.0</ele><time>2026-04-11T10:01:19.123Z</time></trkpt><trkpt lat="44.4104848" lon="12.1033455"><ele>0.0</ele><time>2026-04-11T10:01:20.124Z</time></trkpt><trkpt lat="44.4103806" lon="12.1030122"><ele>-1.0</ele><time>2026-04-11T10:01:21.124Z</time></trkpt><trkpt lat="44.4102773" lon="12.1026786"><ele>0.0</ele><time>2026-04-11T10:01:22.123Z</time></trkpt><trkpt lat="44.4101774" lon="12.1023501"><ele>1.0</ele><time>2026-04-11T10:01:23.122Z</time></trkpt><trkpt lat="44.4100777" lon="12.1020237"><ele>1.0</ele><time>2026-04-11T10:01:24.122Z</time></trkpt><trkpt lat="44.4099787" lon="12.1017011"><ele>1.0</ele><time>2026-04-11T10:01:25.124Z</time></trkpt><trkpt lat="44.4098814" lon="12.1013814"><ele>1.0</ele><time>2026-04-11T10:01:26.123Z</time></trkpt><trkpt lat="44.4097847" lon="12.1010621"><ele>1.0</ele><time>2026-04-11T10:01:27.124Z</time></trkpt><trkpt lat="44.4096881" lon="12.1007427"><ele>0.5</ele><time>2026-04-11T10:01:28.123Z</time></trkpt><trkpt lat="44.4095911" lon="12.1004197"><ele>0.0</ele><time>2026-04-11T10:01:29.124Z</time></trkpt><trkpt lat="44.4094917" lon="12.1000932"><ele>0.5</ele><time>2026-04-11T10:01:30.124Z</time></trkpt><trkpt lat="44.4093916" lon="12.0997634"><ele>1.0</ele><time>2026-04-11T10:01:31.123Z</time></trkpt><trkpt lat="44.4092911" lon="12.0994286"><ele>1.0</ele><time>2026-04-11T10:01:32.124Z</time></trkpt><trkpt lat="44.4091872" lon="12.0990903"><ele>1.0</ele><time>2026-04-11T10:01:33.123Z</time></trkpt><trkpt lat="44.4090823" lon="12.0987499"><ele>1.0</ele><time>2026-04-11T10:01:34.123Z</time></trkpt><trkpt lat="44.4089784" lon="12.098408"><ele>1.0</ele><time>2026-04-11T10:01:35.124Z</time></trkpt><trkpt lat="44.4088771" lon="12.0980642"><ele>1.0</ele><time>2026-04-11T10:01:36.124Z</time></trkpt><trkpt lat="44.4087731" lon="12.0977216"><ele>1.0</ele><time>2026-04-11T10:01:37.123Z</time></trkpt><trkpt lat="44.4086671" lon="12.0973773"><ele>2.5</ele><time>2026-04-11T10:01:38.124Z</time></trkpt><trkpt lat="44.4085603" lon="12.0970294"><ele>4.0</ele><time>2026-04-11T10:01:39.124Z</time></trkpt><trkpt lat="44.4084522" lon="12.0966806"><ele>3.5</ele><time>2026-04-11T10:01:40.123Z</time></trkpt><trkpt lat="44.4083425" lon="12.0963303"><ele>3.0</ele><time>2026-04-11T10:01:41.124Z</time></trkpt><trkpt lat="44.4082338" lon="12.0959789"><ele>3.0</ele><time>2026-04-11T10:01:42.124Z</time></trkpt><trkpt lat="44.4081254" lon="12.0956286"><ele>3.0</ele><time>2026-04-11T10:01:43.123Z</time></trkpt><trkpt lat="44.4080196" lon="12.0952801"><ele>3.0</ele><time>2026-04-11T10:01:44.124Z</time></trkpt><trkpt lat="44.4079166" lon="12.0949299"><ele>3.0</ele><time>2026-04-11T10:01:45.125Z</time></trkpt><trkpt lat="44.4078123" lon="12.0945796"><ele>3.0</ele><time>2026-04-11T10:01:46.128Z</time></trkpt><trkpt lat="44.4077079" lon="12.0942319"><ele>3.0</ele><time>2026-04-11T10:01:47.123Z</time></trkpt><trkpt lat="44.4076029" lon="12.0938843"><ele>3.0</ele><time>2026-04-11T10:01:48.125Z</time></trkpt><trkpt lat="44.4074993" lon="12.0935382"><ele>3.0</ele><time>2026-04-11T10:01:49.123Z</time></trkpt><trkpt lat="44.4073948" lon="12.0931955"><ele>2.5</ele><time>2026-04-11T10:01:50.124Z</time></trkpt><trkpt lat="44.4072877" lon="12.0928546"><ele>2.0</ele><time>2026-04-11T10:01:51.125Z</time></trkpt><trkpt lat="44.4071785" lon="12.0925146"><ele>2.0</ele><time>2026-04-11T10:01:52.123Z</time></trkpt><trkpt lat="44.4070662" lon="12.0921734"><ele>2.0</ele><time>2026-04-11T10:01:53.123Z</time></trkpt><trkpt lat="44.406954" lon="12.0918277"><ele>2.5</ele><time>2026-04-11T10:01:54.124Z</time></trkpt><trkpt lat="44.4068418" lon="12.0914791"><ele>3.0</ele><time>2026-04-11T10:01:55.123Z</time></trkpt><trkpt lat="44.4067317" lon="12.0911267"><ele>3.0</ele><time>2026-04-11T10:01:56.123Z</time></trkpt><trkpt lat="44.4066217" lon="12.0907717"><ele>3.0</ele><time>2026-04-11T10:01:57.124Z</time></trkpt><trkpt lat="44.406515" lon="12.0904117"><ele>3.0</ele><time>2026-04-11T10:01:58.123Z</time></trkpt><trkpt lat="44.4064133" lon="12.0900483"><ele>3.0</ele><time>2026-04-11T10:01:59.123Z</time></trkpt><trkpt lat="44.4063117" lon="12.0896833"><ele>3.0</ele><time>2026-04-11T10:02:00.123Z</time></trkpt><trkpt lat="44.4062083" lon="12.0893217"><ele>3.0</ele><time>2026-04-11T10:02:01.122Z</time></trkpt><trkpt lat="44.4061033" lon="12.0889617"><ele>3.5</ele><time>2026-04-11T10:02:02.124Z</time></trkpt><trkpt lat="44.405995" lon="12.0886083"><ele>4.0</ele><time>2026-04-11T10:02:03.124Z</time></trkpt><trkpt lat="44.40589" lon="12.08826"><ele>3.5</ele><time>2026-04-11T10:02:04.123Z</time></trkpt><trkpt lat="44.4057867" lon="12.08792"><ele>3.0</ele><time>2026-04-11T10:02:05.123Z</time></trkpt><trkpt lat="44.405685" lon="12.0875817"><ele>3.0</ele><time>2026-04-11T10:02:06.122Z</time></trkpt><trkpt lat="44.4055867" lon="12.0872483"><ele>3.0</ele><time>2026-04-11T10:02:07.124Z</time></trkpt><trkpt lat="44.4054883" lon="12.0869167"><ele>3.5</ele><time>2026-04-11T10:02:08.124Z</time></trkpt><trkpt lat="44.4053867" lon="12.08659"><ele>4.0</ele><time>2026-04-11T10:02:09.124Z</time></trkpt><trkpt lat="44.4052883" lon="12.08626"><ele>4.0</ele><time>2026-04-11T10:02:10.124Z</time></trkpt><trkpt lat="44.4051917" lon="12.08593"><ele>4.0</ele><time>2026-04-11T10:02:11.122Z</time></trkpt><trkpt lat="44.4050917" lon="12.0856033"><ele>4.0</ele><time>2026-04-11T10:02:12.123Z</time></trkpt><trkpt lat="44.4049917" lon="12.0852733"><ele>4.0</ele><time>2026-04-11T10:02:13.123Z</time></trkpt><trkpt lat="44.4048933" lon="12.0849433"><ele>4.0</ele><time>2026-04-11T10:02:14.123Z</time></trkpt><trkpt lat="44.404795" lon="12.08461"><ele>4.0</ele><time>2026-04-11T10:02:15.124Z</time></trkpt><trkpt lat="44.4046967" lon="12.0842767"><ele>4.0</ele><time>2026-04-11T10:02:16.123Z</time></trkpt><trkpt lat="44.4045917" lon="12.0839417"><ele>4.0</ele><time>2026-04-11T10:02:17.123Z</time></trkpt><trkpt lat="44.4044867" lon="12.0836033"><ele>4.0</ele><time>2026-04-11T10:02:18.124Z</time></trkpt><trkpt lat="44.4043817" lon="12.0832617"><ele>4.0</ele><time>2026-04-11T10:02:19.124Z</time></trkpt><trkpt lat="44.4042733" lon="12.082915"><ele>4.0</ele><time>2026-04-11T10:02:20.125Z</time></trkpt><trkpt lat="44.4041683" lon="12.082565"><ele>4.0</ele><time>2026-04-11T10:02:21.123Z</time></trkpt><trkpt lat="44.4040617" lon="12.0822117"><ele>4.0</ele><time>2026-04-11T10:02:22.123Z</time></trkpt><trkpt lat="44.4039533" lon="12.0818567"><ele>4.0</ele><time>2026-04-11T10:02:23.123Z</time></trkpt><trkpt lat="44.403845" lon="12.0814983"><ele>3.5</ele><time>2026-04-11T10:02:24.124Z</time></trkpt><trkpt lat="44.4037367" lon="12.0811383"><ele>3.0</ele><time>2026-04-11T10:02:25.123Z</time></trkpt><trkpt lat="44.403625" lon="12.080775"><ele>3.5</ele><time>2026-04-11T10:02:26.122Z</time></trkpt><trkpt lat="44.4035133" lon="12.08041"><ele>4.0</ele><time>2026-04-11T10:02:27.124Z</time></trkpt><trkpt lat="44.4034017" lon="12.08004"><ele>3.5</ele><time>2026-04-11T10:02:28.123Z</time></trkpt><trkpt lat="44.4032883" lon="12.0796683"><ele>3.0</ele><time>2026-04-11T10:02:29.123Z</time></trkpt><trkpt lat="44.4031767" lon="12.0792933"><ele>3.5</ele><time>2026-04-11T10:02:30.125Z</time></trkpt><trkpt lat="44.4030633" lon="12.078915"><ele>4.0</ele><time>2026-04-11T10:02:31.123Z</time></trkpt><trkpt lat="44.4029467" lon="12.0785367"><ele>3.5</ele><time>2026-04-11T10:02:32.123Z</time></trkpt><trkpt lat="44.40283" lon="12.0781583"><ele>3.0</ele><time>2026-04-11T10:02:33.123Z</time></trkpt><trkpt lat="44.402715" lon="12.0777833"><ele>3.0</ele><time>2026-04-11T10:02:34.124Z</time></trkpt><trkpt lat="44.4026067" lon="12.077425"><ele>3.0</ele><time>2026-04-11T10:02:35.123Z</time></trkpt><trkpt lat="44.4025017" lon="12.077085"><ele>3.0</ele><time>2026-04-11T10:02:36.124Z</time></trkpt><trkpt lat="44.4023983" lon="12.0767517"><ele>3.0</ele><time>2026-04-11T10:02:37.124Z</time></trkpt><trkpt lat="44.4022967" lon="12.0764217"><ele>2.5</ele><time>2026-04-11T10:02:38.124Z</time></trkpt><trkpt lat="44.4021967" lon="12.0760933"><ele>2.0</ele><time>2026-04-11T10:02:39.123Z</time></trkpt><trkpt lat="44.4020983" lon="12.0757633"><ele>2.0</ele><time>2026-04-11T10:02:40.123Z</time></trkpt><trkpt lat="44.402" lon="12.075435"><ele>2.0</ele><time>2026-04-11T10:02:41.123Z</time></trkpt><trkpt lat="44.4019033" lon="12.07511"><ele>3.0</ele><time>2026-04-11T10:02:42.123Z</time></trkpt><trkpt lat="44.401805" lon="12.0747833"><ele>4.0</ele><time>2026-04-11T10:02:43.127Z</time></trkpt><trkpt lat="44.401705" lon="12.0744567"><ele>4.0</ele><time>2026-04-11T10:02:44.122Z</time></trkpt><trkpt lat="44.401605" lon="12.07413"><ele>4.0</ele><time>2026-04-11T10:02:45.124Z</time></trkpt><trkpt lat="44.401505" lon="12.0738"><ele>4.0</ele><time>2026-04-11T10:02:46.124Z</time></trkpt><trkpt lat="44.4014033" lon="12.07347"><ele>4.0</ele><time>2026-04-11T10:02:47.123Z</time></trkpt><trkpt lat="44.4013033" lon="12.07314"><ele>4.0</ele><time>2026-04-11T10:02:48.123Z</time></trkpt><trkpt lat="44.4012033" lon="12.0728117"><ele>4.0</ele><time>2026-04-11T10:02:49.124Z</time></trkpt><trkpt lat="44.401105" lon="12.0724867"><ele>4.0</ele><time>2026-04-11T10:02:50.124Z</time></trkpt><trkpt lat="44.4010067" lon="12.0721617"><ele>4.0</ele><time>2026-04-11T10:02:51.123Z</time></trkpt><trkpt lat="44.4009083" lon="12.0718383"><ele>4.0</ele><time>2026-04-11T10:02:52.124Z</time></trkpt><trkpt lat="44.40081" lon="12.071515"><ele>4.0</ele><time>2026-04-11T10:02:53.124Z</time></trkpt><trkpt lat="44.4007117" lon="12.0711917"><ele>4.0</ele><time>2026-04-11T10:02:54.124Z</time></trkpt><trkpt lat="44.400615" lon="12.0708683"><ele>4.0</ele><time>2026-04-11T10:02:55.123Z</time></trkpt><trkpt lat="44.4005167" lon="12.070545"><ele>4.0</ele><time>2026-04-11T10:02:56.124Z</time></trkpt><trkpt lat="44.4004167" lon="12.0702267"><ele>4.0</ele><time>2026-04-11T10:02:57.124Z</time></trkpt><trkpt lat="44.40032" lon="12.0699083"><ele>5.0</ele><time>2026-04-11T10:02:58.123Z</time></trkpt><trkpt lat="44.4002283" lon="12.0695883"><ele>6.0</ele><time>2026-04-11T10:02:59.123Z</time></trkpt><trkpt lat="44.4001433" lon="12.069265"><ele>5.5</ele><time>2026-04-11T10:03:00.124Z</time></trkpt><trkpt lat="44.4000683" lon="12.0689433"><ele>5.0</ele><time>2026-04-11T10:03:01.124Z</time></trkpt><trkpt lat="44.3999983" lon="12.06862"><ele>5.0</ele><time>2026-04-11T10:03:02.123Z</time></trkpt><trkpt lat="44.3999383" lon="12.0682983"><ele>5.0</ele><time>2026-04-11T10:03:03.124Z</time></trkpt><trkpt lat="44.3998817" lon="12.0679767"><ele>5.0</ele><time>2026-04-11T10:03:04.123Z</time></trkpt><trkpt lat="44.39983" lon="12.0676583"><ele>5.0</ele><time>2026-04-11T10:03:05.123Z</time></trkpt><trkpt lat="44.3997867" lon="12.0673367"><ele>5.0</ele><time>2026-04-11T10:03:06.123Z</time></trkpt><trkpt lat="44.3997483" lon="12.067015"><ele>5.0</ele><time>2026-04-11T10:03:07.123Z</time></trkpt><trkpt lat="44.3997183" lon="12.0666917"><ele>5.0</ele><time>2026-04-11T10:03:08.123Z</time></trkpt><trkpt lat="44.399695" lon="12.0663717"><ele>5.0</ele><time>2026-04-11T10:03:09.124Z</time></trkpt><trkpt lat="44.3996783" lon="12.0660517"><ele>5.0</ele><time>2026-04-11T10:03:10.124Z</time></trkpt><trkpt lat="44.399665" lon="12.0657317"><ele>5.0</ele><time>2026-04-11T10:03:11.123Z</time></trkpt><trkpt lat="44.3996567" lon="12.0654117"><ele>5.0</ele><time>2026-04-11T10:03:12.124Z</time></trkpt><trkpt lat="44.3996533" lon="12.0650933"><ele>5.0</ele><time>2026-04-11T10:03:13.123Z</time></trkpt><trkpt lat="44.3996567" lon="12.064775"><ele>6.0</ele><time>2026-04-11T10:03:14.124Z</time></trkpt><trkpt lat="44.3996683" lon="12.0644567"><ele>7.0</ele><time>2026-04-11T10:03:15.124Z</time></trkpt><trkpt lat="44.3996867" lon="12.0641367"><ele>7.5</ele><time>2026-04-11T10:03:16.122Z</time></trkpt><trkpt lat="44.39971" lon="12.0638133"><ele>8.0</ele><time>2026-04-11T10:03:17.123Z</time></trkpt><trkpt lat="44.39974" lon="12.0634883"><ele>7.5</ele><time>2026-04-11T10:03:18.123Z</time></trkpt><trkpt lat="44.3997767" lon="12.0631617"><ele>7.0</ele><time>2026-04-11T10:03:19.124Z</time></trkpt><trkpt lat="44.3998167" lon="12.0628383"><ele>7.0</ele><time>2026-04-11T10:03:20.124Z</time></trkpt><trkpt lat="44.399865" lon="12.0625117"><ele>7.0</ele><time>2026-04-11T10:03:21.124Z</time></trkpt><trkpt lat="44.399915" lon="12.062185"><ele>6.5</ele><time>2026-04-11T10:03:22.124Z</time></trkpt><trkpt lat="44.39997" lon="12.0618583"><ele>6.0</ele><time>2026-04-11T10:03:23.124Z</time></trkpt><trkpt lat="44.4000267" lon="12.0615283"><ele>6.0</ele><time>2026-04-11T10:03:24.123Z</time></trkpt><trkpt lat="44.400085" lon="12.061195"><ele>6.0</ele><time>2026-04-11T10:03:25.123Z</time></trkpt><trkpt lat="44.4001417" lon="12.06086"><ele>6.0</ele><time>2026-04-11T10:03:26.123Z</time></trkpt><trkpt lat="44.4001983" lon="12.0605217"><ele>6.0</ele><time>2026-04-11T10:03:27.124Z</time></trkpt><trkpt lat="44.400255" lon="12.06018"><ele>6.0</ele><time>2026-04-11T10:03:28.124Z</time></trkpt><trkpt lat="44.4003117" lon="12.0598367"><ele>6.0</ele><time>2026-04-11T10:03:29.123Z</time></trkpt><trkpt lat="44.40037" lon="12.0594933"><ele>6.0</ele><time>2026-04-11T10:03:30.123Z</time></trkpt><trkpt lat="44.4004283" lon="12.059145"><ele>6.0</ele><time>2026-04-11T10:03:31.125Z</time></trkpt><trkpt lat="44.4004867" lon="12.0587933"><ele>5.5</ele><time>2026-04-11T10:03:32.123Z</time></trkpt><trkpt lat="44.4005467" lon="12.0584417"><ele>5.0</ele><time>2026-04-11T10:03:33.123Z</time></trkpt><trkpt lat="44.4006083" lon="12.05809"><ele>5.0</ele><time>2026-04-11T10:03:34.123Z</time></trkpt><trkpt lat="44.4006667" lon="12.0577367"><ele>5.0</ele><time>2026-04-11T10:03:35.124Z</time></trkpt><trkpt lat="44.4007267" lon="12.05738"><ele>5.5</ele><time>2026-04-11T10:03:36.123Z</time></trkpt><trkpt lat="44.4007867" lon="12.0570233"><ele>6.0</ele><time>2026-04-11T10:03:37.123Z</time></trkpt><trkpt lat="44.4008483" lon="12.0566667"><ele>6.0</ele><time>2026-04-11T10:03:38.122Z</time></trkpt><trkpt lat="44.40091" lon="12.0563083"><ele>6.0</ele><time>2026-04-11T10:03:39.123Z</time></trkpt><trkpt lat="44.4009717" lon="12.05595"><ele>5.5</ele><time>2026-04-11T10:03:40.125Z</time></trkpt><trkpt lat="44.4010333" lon="12.05559"><ele>5.0</ele><time>2026-04-11T10:03:41.123Z</time></trkpt><trkpt lat="44.401095" lon="12.0552317"><ele>5.0</ele><time>2026-04-11T10:03:42.123Z</time></trkpt><trkpt lat="44.401155" lon="12.05487"><ele>5.0</ele><time>2026-04-11T10:03:43.123Z</time></trkpt><trkpt lat="44.4012183" lon="12.0545083"><ele>5.0</ele><time>2026-04-11T10:03:44.123Z</time></trkpt><trkpt lat="44.40128" lon="12.054145"><ele>5.0</ele><time>2026-04-11T10:03:45.122Z</time></trkpt><trkpt lat="44.40134" lon="12.05378"><ele>5.5</ele><time>2026-04-11T10:03:46.124Z</time></trkpt><trkpt lat="44.4014017" lon="12.0534117"><ele>6.0</ele><time>2026-04-11T10:03:47.124Z</time></trkpt><trkpt lat="44.4014617" lon="12.0530433"><ele>6.0</ele><time>2026-04-11T10:03:48.123Z</time></trkpt><trkpt lat="44.401525" lon="12.0526733"><ele>6.0</ele><time>2026-04-11T10:03:49.123Z</time></trkpt><trkpt lat="44.4015883" lon="12.052305"><ele>6.0</ele><time>2026-04-11T10:03:50.123Z</time></trkpt><trkpt lat="44.4016517" lon="12.051935"><ele>6.0</ele><time>2026-04-11T10:03:51.124Z</time></trkpt><trkpt lat="44.401715" lon="12.0515667"><ele>6.0</ele><time>2026-04-11T10:03:52.124Z</time></trkpt><trkpt lat="44.4017783" lon="12.0511967"><ele>6.0</ele><time>2026-04-11T10:03:53.123Z</time></trkpt><trkpt lat="44.40184" lon="12.050825"><ele>6.5</ele><time>2026-04-11T10:03:54.124Z</time></trkpt><trkpt lat="44.4019017" lon="12.0504533"><ele>7.0</ele><time>2026-04-11T10:03:55.124Z</time></trkpt><trkpt lat="44.4019633" lon="12.050085"><ele>6.0</ele><time>2026-04-11T10:03:56.124Z</time></trkpt><trkpt lat="44.402025" lon="12.049715"><ele>5.0</ele><time>2026-04-11T10:03:57.124Z</time></trkpt><trkpt lat="44.4020883" lon="12.0493467"><ele>5.5</ele><time>2026-04-11T10:03:58.122Z</time></trkpt><trkpt lat="44.4021517" lon="12.0489767"><ele>6.0</ele><time>2026-04-11T10:03:59.124Z</time></trkpt><trkpt lat="44.4022133" lon="12.0486083"><ele>6.5</ele><time>2026-04-11T10:04:00.124Z</time></trkpt><trkpt lat="44.402275" lon="12.04824"><ele>7.0</ele><time>2026-04-11T10:04:01.124Z</time></trkpt><trkpt lat="44.402335" lon="12.0478717"><ele>7.0</ele><time>2026-04-11T10:04:02.124Z</time></trkpt><trkpt lat="44.4023967" lon="12.0475067"><ele>7.0</ele><time>2026-04-11T10:04:03.124Z</time></trkpt><trkpt lat="44.4024583" lon="12.0471417"><ele>7.0</ele><time>2026-04-11T10:04:04.123Z</time></trkpt><trkpt lat="44.40252" lon="12.04678"><ele>7.0</ele><time>2026-04-11T10:04:05.123Z</time></trkpt><trkpt lat="44.4025817" lon="12.04642"><ele>7.0</ele><time>2026-04-11T10:04:06.124Z</time></trkpt><trkpt lat="44.4026417" lon="12.0460633"><ele>7.0</ele><time>2026-04-11T10:04:07.125Z</time></trkpt><trkpt lat="44.4027017" lon="12.04572"><ele>6.5</ele><time>2026-04-11T10:04:08.123Z</time></trkpt><trkpt lat="44.4027583" lon="12.0453883"><ele>6.0</ele><time>2026-04-11T10:04:09.124Z</time></trkpt><trkpt lat="44.402815" lon="12.045065"><ele>6.0</ele><time>2026-04-11T10:04:10.123Z</time></trkpt><trkpt lat="44.40287" lon="12.0447367"><ele>6.0</ele><time>2026-04-11T10:04:11.123Z</time></trkpt><trkpt lat="44.4029267" lon="12.044405"><ele>6.0</ele><time>2026-04-11T10:04:12.123Z</time></trkpt><trkpt lat="44.402985" lon="12.0440717"><ele>6.0</ele><time>2026-04-11T10:04:13.124Z</time></trkpt><trkpt lat="44.4030417" lon="12.0437333"><ele>6.0</ele><time>2026-04-11T10:04:14.124Z</time></trkpt><trkpt lat="44.4031017" lon="12.04339"><ele>6.0</ele><time>2026-04-11T10:04:15.123Z</time></trkpt><trkpt lat="44.40316" lon="12.043045"><ele>6.0</ele><time>2026-04-11T10:04:16.123Z</time></trkpt><trkpt lat="44.40322" lon="12.0426967"><ele>6.0</ele><time>2026-04-11T10:04:17.123Z</time></trkpt><trkpt lat="44.40328" lon="12.042345"><ele>6.0</ele><time>2026-04-11T10:04:18.124Z</time></trkpt><trkpt lat="44.40334" lon="12.0419917"><ele>6.0</ele><time>2026-04-11T10:04:19.124Z</time></trkpt><trkpt lat="44.4033983" lon="12.04164"><ele>5.5</ele><time>2026-04-11T10:04:20.125Z</time></trkpt><trkpt lat="44.4034583" lon="12.04129"><ele>5.0</ele><time>2026-04-11T10:04:21.124Z</time></trkpt><trkpt lat="44.4035167" lon="12.0409417"><ele>4.5</ele><time>2026-04-11T10:04:22.123Z</time></trkpt><trkpt lat="44.4035733" lon="12.0405933"><ele>4.0</ele><time>2026-04-11T10:04:23.123Z</time></trkpt><trkpt lat="44.40363" lon="12.0402467"><ele>4.5</ele><time>2026-04-11T10:04:24.123Z</time></trkpt><trkpt lat="44.40369" lon="12.0398983"><ele>5.0</ele><time>2026-04-11T10:04:25.123Z</time></trkpt><trkpt lat="44.40375" lon="12.0395483"><ele>5.0</ele><time>2026-04-11T10:04:26.124Z</time></trkpt><trkpt lat="44.40381" lon="12.0391967"><ele>5.0</ele><time>2026-04-11T10:04:27.124Z</time></trkpt><trkpt lat="44.4038717" lon="12.0388433"><ele>6.5</ele><time>2026-04-11T10:04:28.123Z</time></trkpt><trkpt lat="44.4039317" lon="12.0384917"><ele>8.0</ele><time>2026-04-11T10:04:29.122Z</time></trkpt><trkpt lat="44.4039883" lon="12.0381433"><ele>8.0</ele><time>2026-04-11T10:04:30.122Z</time></trkpt><trkpt lat="44.4040467" lon="12.0377983"><ele>8.0</ele><time>2026-04-11T10:04:31.123Z</time></trkpt><trkpt lat="44.4041033" lon="12.0374567"><ele>7.0</ele><time>2026-04-11T10:04:32.123Z</time></trkpt><trkpt lat="44.40416" lon="12.0371167"><ele>6.0</ele><time>2026-04-11T10:04:33.123Z</time></trkpt><trkpt lat="44.4042183" lon="12.03678"><ele>6.5</ele><time>2026-04-11T10:04:34.123Z</time></trkpt><trkpt lat="44.404275" lon="12.036445"><ele>7.0</ele><time>2026-04-11T10:04:35.123Z</time></trkpt><trkpt lat="44.4043333" lon="12.036115"><ele>7.5</ele><time>2026-04-11T10:04:36.123Z</time></trkpt><trkpt lat="44.4043883" lon="12.0357867"><ele>8.0</ele><time>2026-04-11T10:04:37.124Z</time></trkpt><trkpt lat="44.404445" lon="12.0354633"><ele>8.0</ele><time>2026-04-11T10:04:38.123Z</time></trkpt><trkpt lat="44.4045017" lon="12.0351417"><ele>8.0</ele><time>2026-04-11T10:04:39.125Z</time></trkpt><trkpt lat="44.4045567" lon="12.0348217"><ele>8.0</ele><time>2026-04-11T10:04:40.123Z</time></trkpt><trkpt lat="44.4046117" lon="12.0345067"><ele>8.0</ele><time>2026-04-11T10:04:41.123Z</time></trkpt><trkpt lat="44.404665" lon="12.0341917"><ele>7.5</ele><time>2026-04-11T10:04:42.123Z</time></trkpt><trkpt lat="44.4047167" lon="12.0338717"><ele>7.0</ele><time>2026-04-11T10:04:43.123Z</time></trkpt><trkpt lat="44.4047683" lon="12.0335517"><ele>7.0</ele><time>2026-04-11T10:04:44.124Z</time></trkpt><trkpt lat="44.4048233" lon="12.0332317"><ele>7.0</ele><time>2026-04-11T10:04:45.124Z</time></trkpt><trkpt lat="44.4048783" lon="12.0329067"><ele>7.0</ele><time>2026-04-11T10:04:46.123Z</time></trkpt><trkpt lat="44.404935" lon="12.03258"><ele>7.0</ele><time>2026-04-11T10:04:47.123Z</time></trkpt><trkpt lat="44.40499" lon="12.03225"><ele>7.0</ele><time>2026-04-11T10:04:48.124Z</time></trkpt><trkpt lat="44.4050467" lon="12.0319167"><ele>7.0</ele><time>2026-04-11T10:04:49.123Z</time></trkpt><trkpt lat="44.4051033" lon="12.0315833"><ele>7.0</ele><time>2026-04-11T10:04:50.123Z</time></trkpt><trkpt lat="44.4051583" lon="12.0312467"><ele>7.0</ele><time>2026-04-11T10:04:51.123Z</time></trkpt><trkpt lat="44.405215" lon="12.0309117"><ele>7.0</ele><time>2026-04-11T10:04:52.128Z</time></trkpt><trkpt lat="44.4052733" lon="12.030575"><ele>7.0</ele><time>2026-04-11T10:04:53.123Z</time></trkpt><trkpt lat="44.40533" lon="12.0302383"><ele>8.0</ele><time>2026-04-11T10:04:54.127Z</time></trkpt><trkpt lat="44.4053867" lon="12.0299017"><ele>9.0</ele><time>2026-04-11T10:04:55.124Z</time></trkpt><trkpt lat="44.4054433" lon="12.0295683"><ele>9.5</ele><time>2026-04-11T10:04:56.122Z</time></trkpt><trkpt lat="44.4054983" lon="12.0292333"><ele>10.0</ele><time>2026-04-11T10:04:57.124Z</time></trkpt><trkpt lat="44.405555" lon="12.0288967"><ele>11.0</ele><time>2026-04-11T10:04:58.123Z</time></trkpt><trkpt lat="44.4056117" lon="12.02856"><ele>12.0</ele><time>2026-04-11T10:04:59.123Z</time></trkpt><trkpt lat="44.40567" lon="12.02822"><ele>12.0</ele><time>2026-04-11T10:05:00.123Z</time></trkpt><trkpt lat="44.4057283" lon="12.0278767"><ele>12.0</ele><time>2026-04-11T10:05:01.123Z</time></trkpt><trkpt lat="44.4057883" lon="12.02753"><ele>11.5</ele><time>2026-04-11T10:05:02.124Z</time></trkpt><trkpt lat="44.4058467" lon="12.0271817"><ele>11.0</ele><time>2026-04-11T10:05:03.124Z</time></trkpt><trkpt lat="44.405905" lon="12.0268317"><ele>9.5</ele><time>2026-04-11T10:05:04.123Z</time></trkpt><trkpt lat="44.4059633" lon="12.02648"><ele>8.0</ele><time>2026-04-11T10:05:05.123Z</time></trkpt><trkpt lat="44.4060217" lon="12.0261283"><ele>8.0</ele><time>2026-04-11T10:05:06.123Z</time></trkpt><trkpt lat="44.4060817" lon="12.02578"><ele>8.0</ele><time>2026-04-11T10:05:07.123Z</time></trkpt><trkpt lat="44.40614" lon="12.0254333"><ele>8.0</ele><time>2026-04-11T10:05:08.123Z</time></trkpt><trkpt lat="44.4062" lon="12.0250883"><ele>8.0</ele><time>2026-04-11T10:05:09.123Z</time></trkpt><trkpt lat="44.4062583" lon="12.0247433"><ele>8.0</ele><time>2026-04-11T10:05:10.123Z</time></trkpt><trkpt lat="44.4063167" lon="12.0243983"><ele>8.0</ele><time>2026-04-11T10:05:11.123Z</time></trkpt><trkpt lat="44.4063767" lon="12.02405"><ele>8.5</ele><time>2026-04-11T10:05:12.123Z</time></trkpt><trkpt lat="44.4064367" lon="12.0237017"><ele>9.0</ele><time>2026-04-11T10:05:13.123Z</time></trkpt><trkpt lat="44.4064967" lon="12.0233517"><ele>9.0</ele><time>2026-04-11T10:05:14.123Z</time></trkpt><trkpt lat="44.4065583" lon="12.023"><ele>9.0</ele><time>2026-04-11T10:05:15.124Z</time></trkpt><trkpt lat="44.4066183" lon="12.0226467"><ele>8.0</ele><time>2026-04-11T10:05:16.123Z</time></trkpt><trkpt lat="44.4066767" lon="12.02229"><ele>7.0</ele><time>2026-04-11T10:05:17.123Z</time></trkpt><trkpt lat="44.406735" lon="12.0219333"><ele>6.5</ele><time>2026-04-11T10:05:18.124Z</time></trkpt><trkpt lat="44.4067933" lon="12.021575"><ele>6.0</ele><time>2026-04-11T10:05:19.123Z</time></trkpt><trkpt lat="44.406855" lon="12.021215"><ele>6.0</ele><time>2026-04-11T10:05:20.124Z</time></trkpt><trkpt lat="44.4069167" lon="12.020855"><ele>6.0</ele><time>2026-04-11T10:05:21.123Z</time></trkpt><trkpt lat="44.4069783" lon="12.0204933"><ele>6.0</ele><time>2026-04-11T10:05:22.123Z</time></trkpt><trkpt lat="44.4070383" lon="12.0201367"><ele>6.0</ele><time>2026-04-11T10:05:23.123Z</time></trkpt><trkpt lat="44.4070967" lon="12.0197867"><ele>6.0</ele><time>2026-04-11T10:05:24.124Z</time></trkpt><trkpt lat="44.4071517" lon="12.0194533"><ele>6.0</ele><time>2026-04-11T10:05:25.124Z</time></trkpt><trkpt lat="44.407205" lon="12.019135"><ele>6.0</ele><time>2026-04-11T10:05:26.124Z</time></trkpt><trkpt lat="44.407255" lon="12.018825"><ele>6.0</ele><time>2026-04-11T10:05:27.123Z</time></trkpt><trkpt lat="44.4072983" lon="12.0185133"><ele>6.0</ele><time>2026-04-11T10:05:28.123Z</time></trkpt><trkpt lat="44.40734" lon="12.0181967"><ele>6.0</ele><time>2026-04-11T10:05:29.123Z</time></trkpt><trkpt lat="44.4073783" lon="12.01787"><ele>6.0</ele><time>2026-04-11T10:05:30.123Z</time></trkpt><trkpt lat="44.4074133" lon="12.0175283"><ele>6.0</ele><time>2026-04-11T10:05:31.123Z</time></trkpt><trkpt lat="44.4074433" lon="12.017165"><ele>6.0</ele><time>2026-04-11T10:05:32.124Z</time></trkpt><trkpt lat="44.40747" lon="12.0167833"><ele>6.0</ele><time>2026-04-11T10:05:33.122Z</time></trkpt><trkpt lat="44.407495" lon="12.0163867"><ele>6.5</ele><time>2026-04-11T10:05:34.124Z</time></trkpt><trkpt lat="44.40752" lon="12.0159833"><ele>7.0</ele><time>2026-04-11T10:05:35.123Z</time></trkpt><trkpt lat="44.407545" lon="12.0155783"><ele>7.0</ele><time>2026-04-11T10:05:36.122Z</time></trkpt><trkpt lat="44.407565" lon="12.01517"><ele>7.0</ele><time>2026-04-11T10:05:37.123Z</time></trkpt><trkpt lat="44.4075817" lon="12.0147633"><ele>7.0</ele><time>2026-04-11T10:05:38.122Z</time></trkpt><trkpt lat="44.4075917" lon="12.0143567"><ele>7.0</ele><time>2026-04-11T10:05:39.124Z</time></trkpt><trkpt lat="44.4076017" lon="12.01395"><ele>6.5</ele><time>2026-04-11T10:05:40.123Z</time></trkpt><trkpt lat="44.40761" lon="12.013545"><ele>6.0</ele><time>2026-04-11T10:05:41.124Z</time></trkpt><trkpt lat="44.40762" lon="12.0131383"><ele>6.0</ele><time>2026-04-11T10:05:42.123Z</time></trkpt><trkpt lat="44.4076233" lon="12.0127333"><ele>6.0</ele><time>2026-04-11T10:05:43.123Z</time></trkpt><trkpt lat="44.40762" lon="12.0123267"><ele>6.0</ele><time>2026-04-11T10:05:44.122Z</time></trkpt><trkpt lat="44.407605" lon="12.0119233"><ele>6.0</ele><time>2026-04-11T10:05:45.122Z</time></trkpt><trkpt lat="44.4075817" lon="12.0115233"><ele>6.5</ele><time>2026-04-11T10:05:46.123Z</time></trkpt><trkpt lat="44.4075517" lon="12.011125"><ele>7.0</ele><time>2026-04-11T10:05:47.122Z</time></trkpt><trkpt lat="44.40752" lon="12.0107283"><ele>7.0</ele><time>2026-04-11T10:05:48.124Z</time></trkpt><trkpt lat="44.4074867" lon="12.0103333"><ele>7.0</ele><time>2026-04-11T10:05:49.123Z</time></trkpt><trkpt lat="44.4074483" lon="12.0099467"><ele>6.0</ele><time>2026-04-11T10:05:50.124Z</time></trkpt><trkpt lat="44.407415" lon="12.009555"><ele>5.0</ele><time>2026-04-11T10:05:51.123Z</time></trkpt><trkpt lat="44.4073817" lon="12.009165"><ele>4.5</ele><time>2026-04-11T10:05:52.123Z</time></trkpt><trkpt lat="44.4073483" lon="12.0087767"><ele>4.0</ele><time>2026-04-11T10:05:53.124Z</time></trkpt><trkpt lat="44.4073167" lon="12.0083917"><ele>4.0</ele><time>2026-04-11T10:05:54.123Z</time></trkpt><trkpt lat="44.407285" lon="12.0080067"><ele>4.0</ele><time>2026-04-11T10:05:55.124Z</time></trkpt><trkpt lat="44.40725" lon="12.0076267"><ele>5.0</ele><time>2026-04-11T10:05:56.123Z</time></trkpt><trkpt lat="44.407215" lon="12.0072483"><ele>6.0</ele><time>2026-04-11T10:05:57.124Z</time></trkpt><trkpt lat="44.4071817" lon="12.00687"><ele>6.5</ele><time>2026-04-11T10:05:58.123Z</time></trkpt><trkpt lat="44.4071483" lon="12.0064933"><ele>7.0</ele><time>2026-04-11T10:05:59.123Z</time></trkpt><trkpt lat="44.407115" lon="12.0061167"><ele>7.5</ele><time>2026-04-11T10:06:00.122Z</time></trkpt><trkpt lat="44.4070833" lon="12.0057417"><ele>8.0</ele><time>2026-04-11T10:06:01.123Z</time></trkpt><trkpt lat="44.4070517" lon="12.0053667"><ele>8.5</ele><time>2026-04-11T10:06:02.123Z</time></trkpt><trkpt lat="44.40702" lon="12.004995"><ele>9.0</ele><time>2026-04-11T10:06:03.124Z</time></trkpt><trkpt lat="44.4069867" lon="12.0046233"><ele>9.0</ele><time>2026-04-11T10:06:04.123Z</time></trkpt><trkpt lat="44.4069533" lon="12.004255"><ele>9.0</ele><time>2026-04-11T10:06:05.123Z</time></trkpt><trkpt lat="44.40692" lon="12.0038867"><ele>9.0</ele><time>2026-04-11T10:06:06.124Z</time></trkpt><trkpt lat="44.4068883" lon="12.00352"><ele>9.0</ele><time>2026-04-11T10:06:07.123Z</time></trkpt><trkpt lat="44.406855" lon="12.0031533"><ele>9.0</ele><time>2026-04-11T10:06:08.122Z</time></trkpt><trkpt lat="44.4068217" lon="12.00279"><ele>9.0</ele><time>2026-04-11T10:06:09.124Z</time></trkpt><trkpt lat="44.4067883" lon="12.0024267"><ele>8.5</ele><time>2026-04-11T10:06:10.123Z</time></trkpt><trkpt lat="44.406755" lon="12.00206"><ele>8.0</ele><time>2026-04-11T10:06:11.123Z</time></trkpt><trkpt lat="44.4067233" lon="12.0016933"><ele>7.5</ele><time>2026-04-11T10:06:12.127Z</time></trkpt><trkpt lat="44.4066883" lon="12.0013267"><ele>7.0</ele><time>2026-04-11T10:06:13.123Z</time></trkpt><trkpt lat="44.406655" lon="12.0009567"><ele>8.0</ele><time>2026-04-11T10:06:14.123Z</time></trkpt><trkpt lat="44.40662" lon="12.000585"><ele>9.0</ele><time>2026-04-11T10:06:15.124Z</time></trkpt><trkpt lat="44.406585" lon="12.00021"><ele>9.0</ele><time>2026-04-11T10:06:16.123Z</time></trkpt><trkpt lat="44.4065533" lon="11.999835"><ele>9.0</ele><time>2026-04-11T10:06:17.123Z</time></trkpt><trkpt lat="44.4065183" lon="11.999455"><ele>9.0</ele><time>2026-04-11T10:06:18.123Z</time></trkpt><trkpt lat="44.4064833" lon="11.9990767"><ele>9.0</ele><time>2026-04-11T10:06:19.122Z</time></trkpt><trkpt lat="44.4064467" lon="11.9986967"><ele>8.5</ele><time>2026-04-11T10:06:20.123Z</time></trkpt><trkpt lat="44.40641" lon="11.9983133"><ele>8.0</ele><time>2026-04-11T10:06:21.123Z</time></trkpt><trkpt lat="44.4063733" lon="11.997925"><ele>8.0</ele><time>2026-04-11T10:06:22.123Z</time></trkpt><trkpt lat="44.4063383" lon="11.9975383"><ele>8.0</ele><time>2026-04-11T10:06:23.123Z</time></trkpt><trkpt lat="44.4063033" lon="11.99715"><ele>8.0</ele><time>2026-04-11T10:06:24.123Z</time></trkpt><trkpt lat="44.40627" lon="11.99676"><ele>8.0</ele><time>2026-04-11T10:06:25.124Z</time></trkpt><trkpt lat="44.4062333" lon="11.9963683"><ele>8.0</ele><time>2026-04-11T10:06:26.123Z</time></trkpt><trkpt lat="44.4061967" lon="11.995975"><ele>8.0</ele><time>2026-04-11T10:06:27.123Z</time></trkpt><trkpt lat="44.40616" lon="11.995585"><ele>7.5</ele><time>2026-04-11T10:06:28.123Z</time></trkpt><trkpt lat="44.406125" lon="11.995195"><ele>7.0</ele><time>2026-04-11T10:06:29.124Z</time></trkpt><trkpt lat="44.4060883" lon="11.9948033"><ele>7.0</ele><time>2026-04-11T10:06:30.123Z</time></trkpt><trkpt lat="44.406055" lon="11.9944133"><ele>7.0</ele><time>2026-04-11T10:06:31.123Z</time></trkpt><trkpt lat="44.40602" lon="11.994025"><ele>6.5</ele><time>2026-04-11T10:06:32.123Z</time></trkpt><trkpt lat="44.405985" lon="11.993635"><ele>6.0</ele><time>2026-04-11T10:06:33.123Z</time></trkpt><trkpt lat="44.4059517" lon="11.993245"><ele>6.0</ele><time>2026-04-11T10:06:34.123Z</time></trkpt><trkpt lat="44.4059183" lon="11.9928583"><ele>6.0</ele><time>2026-04-11T10:06:35.123Z</time></trkpt><trkpt lat="44.405885" lon="11.9924817"><ele>6.0</ele><time>2026-04-11T10:06:36.124Z</time></trkpt><trkpt lat="44.4058533" lon="11.992125"><ele>6.0</ele><time>2026-04-11T10:06:37.122Z</time></trkpt><trkpt lat="44.4058233" lon="11.9917767"><ele>7.5</ele><time>2026-04-11T10:06:38.123Z</time></trkpt><trkpt lat="44.4057917" lon="11.99143"><ele>9.0</ele><time>2026-04-11T10:06:39.124Z</time></trkpt><trkpt lat="44.40576" lon="11.9910833"><ele>9.5</ele><time>2026-04-11T10:06:40.124Z</time></trkpt><trkpt lat="44.4057283" lon="11.990735"><ele>10.0</ele><time>2026-04-11T10:06:41.123Z</time></trkpt><trkpt lat="44.4056983" lon="11.9903833"><ele>10.0</ele><time>2026-04-11T10:06:42.123Z</time></trkpt><trkpt lat="44.4056683" lon="11.9900317"><ele>10.0</ele><time>2026-04-11T10:06:43.123Z</time></trkpt><trkpt lat="44.4056367" lon="11.9896767"><ele>9.5</ele><time>2026-04-11T10:06:44.123Z</time></trkpt><trkpt lat="44.4056033" lon="11.98932"><ele>9.0</ele><time>2026-04-11T10:06:45.123Z</time></trkpt><trkpt lat="44.40557" lon="11.98896"><ele>9.0</ele><time>2026-04-11T10:06:46.123Z</time></trkpt><trkpt lat="44.405535" lon="11.9885967"><ele>9.0</ele><time>2026-04-11T10:06:47.122Z</time></trkpt><trkpt lat="44.4055" lon="11.9882283"><ele>9.0</ele><time>2026-04-11T10:06:48.123Z</time></trkpt><trkpt lat="44.4054633" lon="11.9878567"><ele>9.0</ele><time>2026-04-11T10:06:49.123Z</time></trkpt><trkpt lat="44.4054267" lon="11.9874783"><ele>9.0</ele><time>2026-04-11T10:06:50.124Z</time></trkpt><trkpt lat="44.4053917" lon="11.9870983"><ele>9.0</ele><time>2026-04-11T10:06:51.125Z</time></trkpt><trkpt lat="44.4053567" lon="11.986715"><ele>9.0</ele><time>2026-04-11T10:06:52.123Z</time></trkpt><trkpt lat="44.4053233" lon="11.98633"><ele>9.0</ele><time>2026-04-11T10:06:53.123Z</time></trkpt><trkpt lat="44.4052883" lon="11.9859433"><ele>8.5</ele><time>2026-04-11T10:06:54.125Z</time></trkpt><trkpt lat="44.4052533" lon="11.9855567"><ele>8.0</ele><time>2026-04-11T10:06:55.122Z</time></trkpt><trkpt lat="44.4052183" lon="11.9851667"><ele>8.0</ele><time>2026-04-11T10:06:56.123Z</time></trkpt><trkpt lat="44.4051867" lon="11.9847783"><ele>8.0</ele><time>2026-04-11T10:06:57.123Z</time></trkpt><trkpt lat="44.405155" lon="11.9844083"><ele>7.5</ele><time>2026-04-11T10:06:58.124Z</time></trkpt><trkpt lat="44.4051217" lon="11.984055"><ele>7.0</ele><time>2026-04-11T10:06:59.124Z</time></trkpt><trkpt lat="44.40509" lon="11.9837083"><ele>7.0</ele><time>2026-04-11T10:07:00.124Z</time></trkpt><trkpt lat="44.4050567" lon="11.9833633"><ele>7.0</ele><time>2026-04-11T10:07:01.123Z</time></trkpt><trkpt lat="44.4050267" lon="11.9830167"><ele>7.0</ele><time>2026-04-11T10:07:02.124Z</time></trkpt><trkpt lat="44.4049967" lon="11.9826683"><ele>7.0</ele><time>2026-04-11T10:07:03.124Z</time></trkpt><trkpt lat="44.4049633" lon="11.9823167"><ele>7.0</ele><time>2026-04-11T10:07:04.124Z</time></trkpt><trkpt lat="44.40493" lon="11.981965"><ele>7.0</ele><time>2026-04-11T10:07:05.124Z</time></trkpt><trkpt lat="44.4048983" lon="11.9816133"><ele>7.5</ele><time>2026-04-11T10:07:06.124Z</time></trkpt><trkpt lat="44.4048667" lon="11.9812617"><ele>8.0</ele><time>2026-04-11T10:07:07.123Z</time></trkpt><trkpt lat="44.404835" lon="11.98091"><ele>8.0</ele><time>2026-04-11T10:07:08.124Z</time></trkpt><trkpt lat="44.404805" lon="11.9805583"><ele>8.0</ele><time>2026-04-11T10:07:09.126Z</time></trkpt><trkpt lat="44.4047733" lon="11.9802033"><ele>8.0</ele><time>2026-04-11T10:07:10.122Z</time></trkpt><trkpt lat="44.4047433" lon="11.9798483"><ele>8.0</ele><time>2026-04-11T10:07:11.123Z</time></trkpt><trkpt lat="44.40471" lon="11.9794933"><ele>8.0</ele><time>2026-04-11T10:07:12.125Z</time></trkpt><trkpt lat="44.4046783" lon="11.9791367"><ele>8.0</ele><time>2026-04-11T10:07:13.123Z</time></trkpt><trkpt lat="44.404645" lon="11.9787783"><ele>8.0</ele><time>2026-04-11T10:07:14.124Z</time></trkpt><trkpt lat="44.4046067" lon="11.97842"><ele>8.0</ele><time>2026-04-11T10:07:15.124Z</time></trkpt><trkpt lat="44.404565" lon="11.9780617"><ele>8.5</ele><time>2026-04-11T10:07:16.124Z</time></trkpt><trkpt lat="44.40452" lon="11.977705"><ele>9.0</ele><time>2026-04-11T10:07:17.124Z</time></trkpt><trkpt lat="44.4044683" lon="11.9773467"><ele>9.5</ele><time>2026-04-11T10:07:18.124Z</time></trkpt><trkpt lat="44.404415" lon="11.97699"><ele>10.0</ele><time>2026-04-11T10:07:19.124Z</time></trkpt><trkpt lat="44.4043583" lon="11.97663"><ele>10.5</ele><time>2026-04-11T10:07:20.124Z</time></trkpt><trkpt lat="44.4043" lon="11.9762717"><ele>11.0</ele><time>2026-04-11T10:07:21.124Z</time></trkpt><trkpt lat="44.4042333" lon="11.9759167"><ele>11.0</ele><time>2026-04-11T10:07:22.123Z</time></trkpt><trkpt lat="44.4041633" lon="11.9755567"><ele>11.0</ele><time>2026-04-11T10:07:23.123Z</time></trkpt><trkpt lat="44.4040883" lon="11.9752017"><ele>11.0</ele><time>2026-04-11T10:07:24.124Z</time></trkpt><trkpt lat="44.40401" lon="11.9748467"><ele>11.0</ele><time>2026-04-11T10:07:25.123Z</time></trkpt><trkpt lat="44.4039233" lon="11.974495"><ele>11.0</ele><time>2026-04-11T10:07:26.124Z</time></trkpt><trkpt lat="44.4038383" lon="11.97414"><ele>11.0</ele><time>2026-04-11T10:07:27.125Z</time></trkpt><trkpt lat="44.40375" lon="11.97379"><ele>11.5</ele><time>2026-04-11T10:07:28.124Z</time></trkpt><trkpt lat="44.4036583" lon="11.9734433"><ele>12.0</ele><time>2026-04-11T10:07:29.124Z</time></trkpt><trkpt lat="44.4035617" lon="11.9730983"><ele>11.5</ele><time>2026-04-11T10:07:30.124Z</time></trkpt><trkpt lat="44.4034633" lon="11.972755"><ele>11.0</ele><time>2026-04-11T10:07:31.124Z</time></trkpt><trkpt lat="44.403365" lon="11.9724133"><ele>11.0</ele><time>2026-04-11T10:07:32.124Z</time></trkpt><trkpt lat="44.403265" lon="11.972075"><ele>11.0</ele><time>2026-04-11T10:07:33.124Z</time></trkpt><trkpt lat="44.4031667" lon="11.9717433"><ele>10.5</ele><time>2026-04-11T10:07:34.123Z</time></trkpt><trkpt lat="44.40307" lon="11.97143"><ele>10.0</ele><time>2026-04-11T10:07:35.124Z</time></trkpt><trkpt lat="44.4029767" lon="11.9711333"><ele>10.0</ele><time>2026-04-11T10:07:36.124Z</time></trkpt><trkpt lat="44.4028883" lon="11.9708517"><ele>10.0</ele><time>2026-04-11T10:07:37.124Z</time></trkpt><trkpt lat="44.402805" lon="11.9705867"><ele>10.0</ele><time>2026-04-11T10:07:38.125Z</time></trkpt><trkpt lat="44.402735" lon="11.97033"><ele>10.0</ele><time>2026-04-11T10:07:39.126Z</time></trkpt><trkpt lat="44.4026867" lon="11.9700767"><ele>10.0</ele><time>2026-04-11T10:07:40.124Z</time></trkpt><trkpt lat="44.4026567" lon="11.9698267"><ele>10.0</ele><time>2026-04-11T10:07:41.125Z</time></trkpt><trkpt lat="44.4026533" lon="11.96958"><ele>10.0</ele><time>2026-04-11T10:07:42.123Z</time></trkpt><trkpt lat="44.4026767" lon="11.969335"><ele>10.0</ele><time>2026-04-11T10:07:43.123Z</time></trkpt><trkpt lat="44.4027267" lon="11.9691083"><ele>10.0</ele><time>2026-04-11T10:07:44.124Z</time></trkpt><trkpt lat="44.4028067" lon="11.9688967"><ele>10.0</ele><time>2026-04-11T10:07:45.126Z</time></trkpt><trkpt lat="44.4029133" lon="11.9686967"><ele>10.0</ele><time>2026-04-11T10:07:46.122Z</time></trkpt><trkpt lat="44.40304" lon="11.9685167"><ele>10.0</ele><time>2026-04-11T10:07:47.124Z</time></trkpt><trkpt lat="44.403185" lon="11.9683533"><ele>10.0</ele><time>2026-04-11T10:07:48.124Z</time></trkpt><trkpt lat="44.4033517" lon="11.9682067"><ele>10.0</ele><time>2026-04-11T10:07:49.124Z</time></trkpt><trkpt lat="44.403525" lon="11.9680617"><ele>10.0</ele><time>2026-04-11T10:07:50.124Z</time></trkpt><trkpt lat="44.4037" lon="11.96791"><ele>10.0</ele><time>2026-04-11T10:07:51.125Z</time></trkpt><trkpt lat="44.4038783" lon="11.9677517"><ele>10.0</ele><time>2026-04-11T10:07:52.124Z</time></trkpt><trkpt lat="44.40406" lon="11.9675933"><ele>10.0</ele><time>2026-04-11T10:07:53.124Z</time></trkpt><trkpt lat="44.404245" lon="11.96744"><ele>10.0</ele><time>2026-04-11T10:07:54.125Z</time></trkpt><trkpt lat="44.4044333" lon="11.9672983"><ele>10.0</ele><time>2026-04-11T10:07:55.122Z</time></trkpt><trkpt lat="44.404615" lon="11.967175"><ele>10.0</ele><time>2026-04-11T10:07:56.124Z</time></trkpt><trkpt lat="44.4047783" lon="11.9670717"><ele>10.0</ele><time>2026-04-11T10:07:57.124Z</time></trkpt><trkpt lat="44.4049167" lon="11.9669833"><ele>10.0</ele><time>2026-04-11T10:07:58.124Z</time></trkpt><trkpt lat="44.4050367" lon="11.9669317"><ele>10.0</ele><time>2026-04-11T10:07:59.124Z</time></trkpt><trkpt lat="44.4051433" lon="11.96692"><ele>10.0</ele><time>2026-04-11T10:08:00.124Z</time></trkpt><trkpt lat="44.4052533" lon="11.9669567"><ele>10.0</ele><time>2026-04-11T10:08:01.125Z</time></trkpt><trkpt lat="44.4053717" lon="11.9670167"><ele>10.0</ele><time>2026-04-11T10:08:02.124Z</time></trkpt><trkpt lat="44.4055017" lon="11.9670683"><ele>10.0</ele><time>2026-04-11T10:08:03.124Z</time></trkpt><trkpt lat="44.4056383" lon="11.9670767"><ele>10.0</ele><time>2026-04-11T10:08:04.125Z</time></trkpt><trkpt lat="44.4057667" lon="11.9670333"><ele>10.0</ele><time>2026-04-11T10:08:05.124Z</time></trkpt><trkpt lat="44.4058783" lon="11.9669483"><ele>10.0</ele><time>2026-04-11T10:08:06.123Z</time></trkpt><trkpt lat="44.4059583" lon="11.96683"><ele>10.0</ele><time>2026-04-11T10:08:07.124Z</time></trkpt><trkpt lat="44.40601" lon="11.9666867"><ele>10.0</ele><time>2026-04-11T10:08:08.124Z</time></trkpt><trkpt lat="44.4060383" lon="11.96652"><ele>10.0</ele><time>2026-04-11T10:08:09.124Z</time></trkpt><trkpt lat="44.4060317" lon="11.9663467"><ele>10.0</ele><time>2026-04-11T10:08:10.124Z</time></trkpt><trkpt lat="44.405985" lon="11.9661867"><ele>10.0</ele><time>2026-04-11T10:08:11.124Z</time></trkpt><trkpt lat="44.4059017" lon="11.96605"><ele>10.0</ele><time>2026-04-11T10:08:12.124Z</time></trkpt><trkpt lat="44.4057867" lon="11.9659467"><ele>10.0</ele><time>2026-04-11T10:08:13.124Z</time></trkpt><trkpt lat="44.40566" lon="11.9658933"><ele>10.0</ele><time>2026-04-11T10:08:14.124Z</time></trkpt><trkpt lat="44.4055267" lon="11.9658983"><ele>10.0</ele><time>2026-04-11T10:08:15.124Z</time></trkpt><trkpt lat="44.405405" lon="11.9659167"><ele>10.0</ele><time>2026-04-11T10:08:16.124Z</time></trkpt><trkpt lat="44.4052817" lon="11.9659183"><ele>10.0</ele><time>2026-04-11T10:08:17.124Z</time></trkpt><trkpt lat="44.4051617" lon="11.9658783"><ele>10.0</ele><time>2026-04-11T10:08:18.124Z</time></trkpt><trkpt lat="44.4050417" lon="11.9658067"><ele>10.0</ele><time>2026-04-11T10:08:19.125Z</time></trkpt><trkpt lat="44.4049117" lon="11.9657133"><ele>10.0</ele><time>2026-04-11T10:08:20.126Z</time></trkpt><trkpt lat="44.404765" lon="11.9656067"><ele>9.666666666666668</ele><time>2026-04-11T10:08:21.125Z</time></trkpt><trkpt lat="44.4046033" lon="11.9654833"><ele>9.333333333333334</ele><time>2026-04-11T10:08:22.124Z</time></trkpt><trkpt lat="44.4044283" lon="11.9653583"><ele>9.0</ele><time>2026-04-11T10:08:23.124Z</time></trkpt><trkpt lat="44.40425" lon="11.9652233"><ele>9.0</ele><time>2026-04-11T10:08:24.124Z</time></trkpt><trkpt lat="44.40407" lon="11.9650767"><ele>9.0</ele><time>2026-04-11T10:08:25.124Z</time></trkpt><trkpt lat="44.4038883" lon="11.96493"><ele>9.0</ele><time>2026-04-11T10:08:26.123Z</time></trkpt><trkpt lat="44.4037067" lon="11.9647833"><ele>9.333333333333334</ele><time>2026-04-11T10:08:27.124Z</time></trkpt><trkpt lat="44.4035233" lon="11.9646383"><ele>9.666666666666668</ele><time>2026-04-11T10:08:28.124Z</time></trkpt><trkpt lat="44.403345" lon="11.9644983"><ele>10.0</ele><time>2026-04-11T10:08:29.123Z</time></trkpt><trkpt lat="44.4031767" lon="11.9643633"><ele>10.0</ele><time>2026-04-11T10:08:30.124Z</time></trkpt><trkpt lat="44.40301" lon="11.9642333"><ele>10.0</ele><time>2026-04-11T10:08:31.124Z</time></trkpt><trkpt lat="44.4028417" lon="11.964105"><ele>10.0</ele><time>2026-04-11T10:08:32.125Z</time></trkpt><trkpt lat="44.4026733" lon="11.9639733"><ele>10.333333333333334</ele><time>2026-04-11T10:08:33.124Z</time></trkpt><trkpt lat="44.4025067" lon="11.96384"><ele>10.666666666666666</ele><time>2026-04-11T10:08:34.124Z</time></trkpt><trkpt lat="44.4023417" lon="11.96371"><ele>11.0</ele><time>2026-04-11T10:08:35.124Z</time></trkpt><trkpt lat="44.4021783" lon="11.9635833"><ele>11.0</ele><time>2026-04-11T10:08:36.124Z</time></trkpt><trkpt lat="44.4020183" lon="11.9634583"><ele>11.0</ele><time>2026-04-11T10:08:37.124Z</time></trkpt><trkpt lat="44.4018567" lon="11.9633383"><ele>11.0</ele><time>2026-04-11T10:08:38.124Z</time></trkpt><trkpt lat="44.4017" lon="11.9632167"><ele>11.0</ele><time>2026-04-11T10:08:39.125Z</time></trkpt><trkpt lat="44.4015433" lon="11.9630933"><ele>11.0</ele><time>2026-04-11T10:08:40.124Z</time></trkpt><trkpt lat="44.4013883" lon="11.9629733"><ele>11.0</ele><time>2026-04-11T10:08:41.124Z</time></trkpt><trkpt lat="44.401235" lon="11.9628533"><ele>11.0</ele><time>2026-04-11T10:08:42.124Z</time></trkpt><trkpt lat="44.40108" lon="11.9627317"><ele>11.0</ele><time>2026-04-11T10:08:43.124Z</time></trkpt><trkpt lat="44.4009217" lon="11.9626067"><ele>11.0</ele><time>2026-04-11T10:08:44.124Z</time></trkpt><trkpt lat="44.4007633" lon="11.96248"><ele>11.0</ele><time>2026-04-11T10:08:45.123Z</time></trkpt><trkpt lat="44.400605" lon="11.9623533"><ele>11.0</ele><time>2026-04-11T10:08:46.122Z</time></trkpt><trkpt lat="44.40045" lon="11.9622267"><ele>11.0</ele><time>2026-04-11T10:08:47.124Z</time></trkpt><trkpt lat="44.400295" lon="11.9620983"><ele>11.0</ele><time>2026-04-11T10:08:48.124Z</time></trkpt><trkpt lat="44.4001367" lon="11.9619683"><ele>11.0</ele><time>2026-04-11T10:08:49.124Z</time></trkpt><trkpt lat="44.3999833" lon="11.96184"><ele>11.0</ele><time>2026-04-11T10:08:50.124Z</time></trkpt><trkpt lat="44.3998283" lon="11.9617083"><ele>11.666666666666666</ele><time>2026-04-11T10:08:51.125Z</time></trkpt><trkpt lat="44.39967" lon="11.9615717"><ele>12.333333333333332</ele><time>2026-04-11T10:08:52.123Z</time></trkpt><trkpt lat="44.3995217" lon="11.9614267"><ele>13.0</ele><time>2026-04-11T10:08:53.123Z</time></trkpt><trkpt lat="44.3993517" lon="11.9612867"><ele>13.0</ele><time>2026-04-11T10:08:54.124Z</time></trkpt><trkpt lat="44.39917" lon="11.96115"><ele>13.0</ele><time>2026-04-11T10:08:55.124Z</time></trkpt><trkpt lat="44.39898" lon="11.9610117"><ele>13.0</ele><time>2026-04-11T10:08:56.124Z</time></trkpt><trkpt lat="44.3987833" lon="11.96086"><ele>11.5</ele><time>2026-04-11T10:08:57.124Z</time></trkpt><trkpt lat="44.3985883" lon="11.9607017"><ele>10.0</ele><time>2026-04-11T10:08:58.124Z</time></trkpt><trkpt lat="44.3983917" lon="11.9605433"><ele>10.0</ele><time>2026-04-11T10:08:59.124Z</time></trkpt><trkpt lat="44.3981933" lon="11.960385"><ele>10.0</ele><time>2026-04-11T10:09:00.124Z</time></trkpt><trkpt lat="44.3979917" lon="11.9602283"><ele>10.5</ele><time>2026-04-11T10:09:01.124Z</time></trkpt><trkpt lat="44.39779" lon="11.960075"><ele>11.0</ele><time>2026-04-11T10:09:02.125Z</time></trkpt><trkpt lat="44.397585" lon="11.95993"><ele>11.333333333333332</ele><time>2026-04-11T10:09:03.125Z</time></trkpt><trkpt lat="44.3973917" lon="11.9597917"><ele>11.666666666666666</ele><time>2026-04-11T10:09:04.124Z</time></trkpt><trkpt lat="44.3972017" lon="11.959665"><ele>12.0</ele><time>2026-04-11T10:09:05.124Z</time></trkpt><trkpt lat="44.3970167" lon="11.95954"><ele>12.0</ele><time>2026-04-11T10:09:06.123Z</time></trkpt><trkpt lat="44.3968267" lon="11.9594217"><ele>12.0</ele><time>2026-04-11T10:09:07.124Z</time></trkpt><trkpt lat="44.3966367" lon="11.9593017"><ele>12.0</ele><time>2026-04-11T10:09:08.123Z</time></trkpt><trkpt lat="44.3964467" lon="11.9591833"><ele>12.0</ele><time>2026-04-11T10:09:09.124Z</time></trkpt><trkpt lat="44.3962533" lon="11.9590683"><ele>12.0</ele><time>2026-04-11T10:09:10.124Z</time></trkpt><trkpt lat="44.3960583" lon="11.9589583"><ele>12.0</ele><time>2026-04-11T10:09:11.124Z</time></trkpt><trkpt lat="44.3958667" lon="11.9588483"><ele>12.0</ele><time>2026-04-11T10:09:12.124Z</time></trkpt><trkpt lat="44.39568" lon="11.95874"><ele>12.0</ele><time>2026-04-11T10:09:13.123Z</time></trkpt><trkpt lat="44.3955" lon="11.9586383"><ele>12.0</ele><time>2026-04-11T10:09:14.124Z</time></trkpt><trkpt lat="44.3953283" lon="11.9585417"><ele>12.333333333333332</ele><time>2026-04-11T10:09:15.124Z</time></trkpt><trkpt lat="44.3951633" lon="11.9584483"><ele>12.666666666666666</ele><time>2026-04-11T10:09:16.123Z</time></trkpt><trkpt lat="44.395" lon="11.9583583"><ele>13.0</ele><time>2026-04-11T10:09:17.124Z</time></trkpt><trkpt lat="44.3948333" lon="11.958265"><ele>13.0</ele><time>2026-04-11T10:09:18.124Z</time></trkpt><trkpt lat="44.3946583" lon="11.9581683"><ele>13.0</ele><time>2026-04-11T10:09:19.124Z</time></trkpt><trkpt lat="44.3944767" lon="11.95807"><ele>13.0</ele><time>2026-04-11T10:09:20.124Z</time></trkpt><trkpt lat="44.39429" lon="11.9579683"><ele>13.0</ele><time>2026-04-11T10:09:21.124Z</time></trkpt><trkpt lat="44.3940983" lon="11.957865"><ele>13.0</ele><time>2026-04-11T10:09:22.123Z</time></trkpt><trkpt lat="44.3938983" lon="11.95776"><ele>13.0</ele><time>2026-04-11T10:09:23.123Z</time></trkpt><trkpt lat="44.393685" lon="11.9576633"><ele>13.0</ele><time>2026-04-11T10:09:24.124Z</time></trkpt><trkpt lat="44.3934683" lon="11.9575583"><ele>13.0</ele><time>2026-04-11T10:09:25.123Z</time></trkpt><trkpt lat="44.3932433" lon="11.9574417"><ele>13.0</ele><time>2026-04-11T10:09:26.124Z</time></trkpt><trkpt lat="44.3930183" lon="11.95731"><ele>13.0</ele><time>2026-04-11T10:09:27.123Z</time></trkpt><trkpt lat="44.39279" lon="11.95717"><ele>12.5</ele><time>2026-04-11T10:09:28.124Z</time></trkpt><trkpt lat="44.392555" lon="11.95703"><ele>12.0</ele><time>2026-04-11T10:09:29.124Z</time></trkpt><trkpt lat="44.392315" lon="11.9568933"><ele>12.5</ele><time>2026-04-11T10:09:30.124Z</time></trkpt><trkpt lat="44.3920717" lon="11.9567583"><ele>13.0</ele><time>2026-04-11T10:09:31.124Z</time></trkpt><trkpt lat="44.3918283" lon="11.9566233"><ele>13.5</ele><time>2026-04-11T10:09:32.124Z</time></trkpt><trkpt lat="44.391585" lon="11.9564883"><ele>14.0</ele><time>2026-04-11T10:09:33.125Z</time></trkpt><trkpt lat="44.3913467" lon="11.9563567"><ele>13.5</ele><time>2026-04-11T10:09:34.124Z</time></trkpt><trkpt lat="44.3911083" lon="11.956225"><ele>13.0</ele><time>2026-04-11T10:09:35.125Z</time></trkpt><trkpt lat="44.390875" lon="11.9560933"><ele>13.0</ele><time>2026-04-11T10:09:36.124Z</time></trkpt><trkpt lat="44.3906433" lon="11.9559617"><ele>13.0</ele><time>2026-04-11T10:09:37.124Z</time></trkpt><trkpt lat="44.3904133" lon="11.9558333"><ele>12.5</ele><time>2026-04-11T10:09:38.124Z</time></trkpt><trkpt lat="44.3901833" lon="11.9557083"><ele>12.0</ele><time>2026-04-11T10:09:39.124Z</time></trkpt><trkpt lat="44.3899567" lon="11.95558"><ele>12.0</ele><time>2026-04-11T10:09:40.122Z</time></trkpt><trkpt lat="44.38973" lon="11.9554533"><ele>12.0</ele><time>2026-04-11T10:09:41.124Z</time></trkpt><trkpt lat="44.389505" lon="11.9553283"><ele>12.5</ele><time>2026-04-11T10:09:42.124Z</time></trkpt><trkpt lat="44.3892783" lon="11.9552017"><ele>13.0</ele><time>2026-04-11T10:09:43.124Z</time></trkpt><trkpt lat="44.3890517" lon="11.9550733"><ele>12.5</ele><time>2026-04-11T10:09:44.124Z</time></trkpt><trkpt lat="44.3888233" lon="11.954945"><ele>12.0</ele><time>2026-04-11T10:09:45.123Z</time></trkpt><trkpt lat="44.388595" lon="11.9548167"><ele>12.0</ele><time>2026-04-11T10:09:46.124Z</time></trkpt><trkpt lat="44.3883633" lon="11.9546883"><ele>12.0</ele><time>2026-04-11T10:09:47.123Z</time></trkpt><trkpt lat="44.3881317" lon="11.95456"><ele>13.0</ele><time>2026-04-11T10:09:48.123Z</time></trkpt><trkpt lat="44.3879" lon="11.9544333"><ele>14.0</ele><time>2026-04-11T10:09:49.124Z</time></trkpt><trkpt lat="44.3876683" lon="11.954305"><ele>14.0</ele><time>2026-04-11T10:09:50.126Z</time></trkpt><trkpt lat="44.387435" lon="11.9541767"><ele>14.0</ele><time>2026-04-11T10:09:51.124Z</time></trkpt><trkpt lat="44.3872" lon="11.9540467"><ele>13.5</ele><time>2026-04-11T10:09:52.124Z</time></trkpt><trkpt lat="44.3869667" lon="11.9539183"><ele>13.0</ele><time>2026-04-11T10:09:53.124Z</time></trkpt><trkpt lat="44.386735" lon="11.953785"><ele>13.0</ele><time>2026-04-11T10:09:54.124Z</time></trkpt><trkpt lat="44.3864983" lon="11.95366"><ele>13.0</ele><time>2026-04-11T10:09:55.123Z</time></trkpt><trkpt lat="44.3862667" lon="11.9535317"><ele>12.0</ele><time>2026-04-11T10:09:56.124Z</time></trkpt><trkpt lat="44.3860383" lon="11.953405"><ele>11.0</ele><time>2026-04-11T10:09:57.125Z</time></trkpt><trkpt lat="44.3858233" lon="11.9532833"><ele>11.0</ele><time>2026-04-11T10:09:58.124Z</time></trkpt><trkpt lat="44.3856217" lon="11.9531683"><ele>11.0</ele><time>2026-04-11T10:09:59.124Z</time></trkpt><trkpt lat="44.38543" lon="11.9530583"><ele>11.0</ele><time>2026-04-11T10:10:00.124Z</time></trkpt><trkpt lat="44.385245" lon="11.9529517"><ele>11.0</ele><time>2026-04-11T10:10:01.124Z</time></trkpt><trkpt lat="44.3850667" lon="11.9528467"><ele>11.0</ele><time>2026-04-11T10:10:02.123Z</time></trkpt><trkpt lat="44.38489" lon="11.9527417"><ele>11.0</ele><time>2026-04-11T10:10:03.124Z</time></trkpt><trkpt lat="44.3847117" lon="11.9526367"><ele>11.0</ele><time>2026-04-11T10:10:04.123Z</time></trkpt><trkpt lat="44.3845333" lon="11.952535"><ele>11.0</ele><time>2026-04-11T10:10:05.125Z</time></trkpt><trkpt lat="44.3843583" lon="11.9524333"><ele>11.0</ele><time>2026-04-11T10:10:06.124Z</time></trkpt><trkpt lat="44.3841883" lon="11.952335"><ele>11.0</ele><time>2026-04-11T10:10:07.124Z</time></trkpt><trkpt lat="44.3840317" lon="11.952245"><ele>11.0</ele><time>2026-04-11T10:10:08.124Z</time></trkpt><trkpt lat="44.383895" lon="11.9521633"><ele>11.0</ele><time>2026-04-11T10:10:09.123Z</time></trkpt><trkpt lat="44.3837717" lon="11.95209"><ele>11.0</ele><time>2026-04-11T10:10:10.124Z</time></trkpt><trkpt lat="44.3836617" lon="11.9520067"><ele>11.0</ele><time>2026-04-11T10:10:11.123Z</time></trkpt><trkpt lat="44.3835617" lon="11.9519017"><ele>11.0</ele><time>2026-04-11T10:10:12.123Z</time></trkpt><trkpt lat="44.383475" lon="11.9517683"><ele>11.0</ele><time>2026-04-11T10:10:13.124Z</time></trkpt><trkpt lat="44.3833967" lon="11.9516167"><ele>11.5</ele><time>2026-04-11T10:10:14.123Z</time></trkpt><trkpt lat="44.38332" lon="11.95147"><ele>12.0</ele><time>2026-04-11T10:10:15.124Z</time></trkpt><trkpt lat="44.3832317" lon="11.95135"><ele>12.5</ele><time>2026-04-11T10:10:16.123Z</time></trkpt><trkpt lat="44.3831367" lon="11.951285"><ele>13.0</ele><time>2026-04-11T10:10:17.123Z</time></trkpt><trkpt lat="44.3830317" lon="11.951275"><ele>13.0</ele><time>2026-04-11T10:10:18.124Z</time></trkpt><trkpt lat="44.3829217" lon="11.9512933"><ele>13.0</ele><time>2026-04-11T10:10:19.124Z</time></trkpt><trkpt lat="44.3828067" lon="11.95132"><ele>13.0</ele><time>2026-04-11T10:10:20.124Z</time></trkpt><trkpt lat="44.38269" lon="11.9513367"><ele>13.0</ele><time>2026-04-11T10:10:21.124Z</time></trkpt><trkpt lat="44.3825667" lon="11.9513333"><ele>13.0</ele><time>2026-04-11T10:10:22.124Z</time></trkpt><trkpt lat="44.3824383" lon="11.9513067"><ele>13.0</ele><time>2026-04-11T10:10:23.124Z</time></trkpt><trkpt lat="44.382305" lon="11.9512517"><ele>13.0</ele><time>2026-04-11T10:10:24.123Z</time></trkpt><trkpt lat="44.382165" lon="11.9511733"><ele>13.0</ele><time>2026-04-11T10:10:25.125Z</time></trkpt><trkpt lat="44.3820217" lon="11.9510883"><ele>13.0</ele><time>2026-04-11T10:10:26.124Z</time></trkpt><trkpt lat="44.3818667" lon="11.951"><ele>13.0</ele><time>2026-04-11T10:10:27.123Z</time></trkpt><trkpt lat="44.3817067" lon="11.9509117"><ele>13.0</ele><time>2026-04-11T10:10:28.124Z</time></trkpt><trkpt lat="44.381545" lon="11.9508133"><ele>12.666666666666666</ele><time>2026-04-11T10:10:29.124Z</time></trkpt><trkpt lat="44.3813867" lon="11.95071"><ele>12.333333333333332</ele><time>2026-04-11T10:10:30.124Z</time></trkpt><trkpt lat="44.381235" lon="11.95061"><ele>12.0</ele><time>2026-04-11T10:10:31.123Z</time></trkpt><trkpt lat="44.3810867" lon="11.9505133"><ele>12.666666666666668</ele><time>2026-04-11T10:10:32.123Z</time></trkpt><trkpt lat="44.380935" lon="11.950415"><ele>13.333333333333334</ele><time>2026-04-11T10:10:33.124Z</time></trkpt><trkpt lat="44.38078" lon="11.9503117"><ele>14.0</ele><time>2026-04-11T10:10:34.123Z</time></trkpt><trkpt lat="44.3806217" lon="11.9502017"><ele>14.333333333333334</ele><time>2026-04-11T10:10:35.122Z</time></trkpt><trkpt lat="44.3804567" lon="11.95009"><ele>14.666666666666668</ele><time>2026-04-11T10:10:36.125Z</time></trkpt><trkpt lat="44.38029" lon="11.9499767"><ele>15.0</ele><time>2026-04-11T10:10:37.123Z</time></trkpt><trkpt lat="44.3801267" lon="11.9498633"><ele>14.333333333333332</ele><time>2026-04-11T10:10:38.123Z</time></trkpt><trkpt lat="44.3799667" lon="11.9497517"><ele>13.666666666666666</ele><time>2026-04-11T10:10:39.123Z</time></trkpt><trkpt lat="44.3798133" lon="11.9496433"><ele>13.0</ele><time>2026-04-11T10:10:40.125Z</time></trkpt><trkpt lat="44.3796583" lon="11.9495333"><ele>13.0</ele><time>2026-04-11T10:10:41.124Z</time></trkpt><trkpt lat="44.3795017" lon="11.9494217"><ele>13.0</ele><time>2026-04-11T10:10:42.124Z</time></trkpt><trkpt lat="44.379345" lon="11.94931"><ele>13.0</ele><time>2026-04-11T10:10:43.124Z</time></trkpt><trkpt lat="44.37919" lon="11.9491933"><ele>12.666666666666666</ele><time>2026-04-11T10:10:44.124Z</time></trkpt><trkpt lat="44.379035" lon="11.9490817"><ele>12.333333333333332</ele><time>2026-04-11T10:10:45.124Z</time></trkpt><trkpt lat="44.37888" lon="11.9489683"><ele>12.0</ele><time>2026-04-11T10:10:46.123Z</time></trkpt><trkpt lat="44.3787233" lon="11.9488533"><ele>12.666666666666668</ele><time>2026-04-11T10:10:47.124Z</time></trkpt><trkpt lat="44.378565" lon="11.94874"><ele>13.333333333333334</ele><time>2026-04-11T10:10:48.124Z</time></trkpt><trkpt lat="44.3784083" lon="11.9486283"><ele>14.0</ele><time>2026-04-11T10:10:49.124Z</time></trkpt><trkpt lat="44.3782483" lon="11.948515"><ele>14.0</ele><time>2026-04-11T10:10:50.124Z</time></trkpt><trkpt lat="44.3780867" lon="11.9484033"><ele>14.0</ele><time>2026-04-11T10:10:51.124Z</time></trkpt><trkpt lat="44.377925" lon="11.94829"><ele>14.0</ele><time>2026-04-11T10:10:52.124Z</time></trkpt><trkpt lat="44.3777617" lon="11.948175"><ele>13.0</ele><time>2026-04-11T10:10:53.124Z</time></trkpt><trkpt lat="44.377595" lon="11.9480567"><ele>12.0</ele><time>2026-04-11T10:10:54.124Z</time></trkpt><trkpt lat="44.3774267" lon="11.9479433"><ele>11.0</ele><time>2026-04-11T10:10:55.124Z</time></trkpt><trkpt lat="44.377255" lon="11.9478233"><ele>11.333333333333332</ele><time>2026-04-11T10:10:56.124Z</time></trkpt><trkpt lat="44.3770833" lon="11.9477"><ele>11.666666666666666</ele><time>2026-04-11T10:10:57.125Z</time></trkpt><trkpt lat="44.37691" lon="11.94757"><ele>12.0</ele><time>2026-04-11T10:10:58.123Z</time></trkpt><trkpt lat="44.3767317" lon="11.9474383"><ele>13.0</ele><time>2026-04-11T10:10:59.124Z</time></trkpt><trkpt lat="44.3765467" lon="11.9473033"><ele>14.0</ele><time>2026-04-11T10:11:00.124Z</time></trkpt><trkpt lat="44.3763583" lon="11.947165"><ele>15.0</ele><time>2026-04-11T10:11:01.124Z</time></trkpt><trkpt lat="44.3761717" lon="11.94702"><ele>15.0</ele><time>2026-04-11T10:11:02.123Z</time></trkpt><trkpt lat="44.375985" lon="11.946875"><ele>15.0</ele><time>2026-04-11T10:11:03.124Z</time></trkpt><trkpt lat="44.3757967" lon="11.94673"><ele>15.0</ele><time>2026-04-11T10:11:04.124Z</time></trkpt><trkpt lat="44.375605" lon="11.94659"><ele>14.333333333333332</ele><time>2026-04-11T10:11:05.123Z</time></trkpt><trkpt lat="44.3754083" lon="11.94645"><ele>13.666666666666666</ele><time>2026-04-11T10:11:06.124Z</time></trkpt><trkpt lat="44.3752083" lon="11.9463083"><ele>13.0</ele><time>2026-04-11T10:11:07.124Z</time></trkpt><trkpt lat="44.375" lon="11.9461583"><ele>13.0</ele><time>2026-04-11T10:11:08.124Z</time></trkpt><trkpt lat="44.374795" lon="11.946"><ele>13.0</ele><time>2026-04-11T10:11:09.123Z</time></trkpt><trkpt lat="44.3745917" lon="11.9458467"><ele>13.0</ele><time>2026-04-11T10:11:10.123Z</time></trkpt><trkpt lat="44.3743867" lon="11.9456917"><ele>13.0</ele><time>2026-04-11T10:11:11.123Z</time></trkpt><trkpt lat="44.37418" lon="11.9455383"><ele>13.0</ele><time>2026-04-11T10:11:12.124Z</time></trkpt><trkpt lat="44.3739733" lon="11.945385"><ele>13.0</ele><time>2026-04-11T10:11:13.124Z</time></trkpt><trkpt lat="44.3737667" lon="11.9452333"><ele>13.5</ele><time>2026-04-11T10:11:14.123Z</time></trkpt><trkpt lat="44.37356" lon="11.9450833"><ele>14.0</ele><time>2026-04-11T10:11:15.124Z</time></trkpt><trkpt lat="44.3733567" lon="11.944925"><ele>14.0</ele><time>2026-04-11T10:11:16.123Z</time></trkpt><trkpt lat="44.373155" lon="11.9447583"><ele>14.0</ele><time>2026-04-11T10:11:17.124Z</time></trkpt><trkpt lat="44.37295" lon="11.94459"><ele>13.5</ele><time>2026-04-11T10:11:18.124Z</time></trkpt><trkpt lat="44.37274" lon="11.94442"><ele>13.0</ele><time>2026-04-11T10:11:19.124Z</time></trkpt><trkpt lat="44.3725283" lon="11.94425"><ele>13.0</ele><time>2026-04-11T10:11:20.124Z</time></trkpt><trkpt lat="44.372315" lon="11.944085"><ele>13.0</ele><time>2026-04-11T10:11:21.125Z</time></trkpt><trkpt lat="44.3721017" lon="11.9439233"><ele>13.0</ele><time>2026-04-11T10:11:22.123Z</time></trkpt><trkpt lat="44.3718917" lon="11.9437583"><ele>13.0</ele><time>2026-04-11T10:11:23.123Z</time></trkpt><trkpt lat="44.3716883" lon="11.9435967"><ele>13.0</ele><time>2026-04-11T10:11:24.125Z</time></trkpt><trkpt lat="44.371495" lon="11.9434367"><ele>13.0</ele><time>2026-04-11T10:11:25.123Z</time></trkpt><trkpt lat="44.371305" lon="11.9432717"><ele>13.0</ele><time>2026-04-11T10:11:26.124Z</time></trkpt><trkpt lat="44.37112" lon="11.9430967"><ele>12.5</ele><time>2026-04-11T10:11:27.125Z</time></trkpt><trkpt lat="44.37094" lon="11.9429033"><ele>12.0</ele><time>2026-04-11T10:11:28.124Z</time></trkpt><trkpt lat="44.37077" lon="11.9426917"><ele>13.0</ele><time>2026-04-11T10:11:29.124Z</time></trkpt><trkpt lat="44.3706067" lon="11.942465"><ele>14.0</ele><time>2026-04-11T10:11:30.124Z</time></trkpt><trkpt lat="44.3704517" lon="11.9422217"><ele>14.0</ele><time>2026-04-11T10:11:31.125Z</time></trkpt><trkpt lat="44.3702967" lon="11.941975"><ele>14.0</ele><time>2026-04-11T10:11:32.123Z</time></trkpt><trkpt lat="44.3701417" lon="11.9417283"><ele>14.5</ele><time>2026-04-11T10:11:33.123Z</time></trkpt><trkpt lat="44.36999" lon="11.9414817"><ele>15.0</ele><time>2026-04-11T10:11:34.124Z</time></trkpt><trkpt lat="44.3698383" lon="11.941235"><ele>15.5</ele><time>2026-04-11T10:11:35.124Z</time></trkpt><trkpt lat="44.3696883" lon="11.9409917"><ele>16.0</ele><time>2026-04-11T10:11:36.124Z</time></trkpt><trkpt lat="44.36954" lon="11.9407467"><ele>17.0</ele><time>2026-04-11T10:11:37.124Z</time></trkpt><trkpt lat="44.3693933" lon="11.9405033"><ele>18.0</ele><time>2026-04-11T10:11:38.124Z</time></trkpt><trkpt lat="44.369245" lon="11.9402617"><ele>17.5</ele><time>2026-04-11T10:11:39.123Z</time></trkpt><trkpt lat="44.3691" lon="11.94002"><ele>17.0</ele><time>2026-04-11T10:11:40.123Z</time></trkpt><trkpt lat="44.368955" lon="11.93978"><ele>16.0</ele><time>2026-04-11T10:11:41.124Z</time></trkpt><trkpt lat="44.368805" lon="11.9395433"><ele>15.0</ele><time>2026-04-11T10:11:42.123Z</time></trkpt><trkpt lat="44.368655" lon="11.9393067"><ele>15.0</ele><time>2026-04-11T10:11:43.124Z</time></trkpt><trkpt lat="44.3685067" lon="11.93907"><ele>15.0</ele><time>2026-04-11T10:11:44.124Z</time></trkpt><trkpt lat="44.3683517" lon="11.9388333"><ele>15.0</ele><time>2026-04-11T10:11:45.125Z</time></trkpt><trkpt lat="44.3681933" lon="11.9386"><ele>15.0</ele><time>2026-04-11T10:11:46.123Z</time></trkpt><trkpt lat="44.3680267" lon="11.9383767"><ele>15.5</ele><time>2026-04-11T10:11:47.123Z</time></trkpt><trkpt lat="44.3678483" lon="11.9381617"><ele>16.0</ele><time>2026-04-11T10:11:48.124Z</time></trkpt><trkpt lat="44.3676617" lon="11.9379583"><ele>16.0</ele><time>2026-04-11T10:11:49.124Z</time></trkpt><trkpt lat="44.367465" lon="11.9377633"><ele>16.0</ele><time>2026-04-11T10:11:50.122Z</time></trkpt><trkpt lat="44.3672583" lon="11.9375817"><ele>15.0</ele><time>2026-04-11T10:11:51.124Z</time></trkpt><trkpt lat="44.367045" lon="11.9374017"><ele>14.0</ele><time>2026-04-11T10:11:52.124Z</time></trkpt><trkpt lat="44.3668267" lon="11.93723"><ele>14.0</ele><time>2026-04-11T10:11:53.125Z</time></trkpt><trkpt lat="44.366605" lon="11.9370617"><ele>14.0</ele><time>2026-04-11T10:11:54.124Z</time></trkpt><trkpt lat="44.36638" lon="11.9368933"><ele>14.0</ele><time>2026-04-11T10:11:55.123Z</time></trkpt><trkpt lat="44.3661567" lon="11.9367283"><ele>14.0</ele><time>2026-04-11T10:11:56.123Z</time></trkpt><trkpt lat="44.36593" lon="11.9365617"><ele>14.0</ele><time>2026-04-11T10:11:57.125Z</time></trkpt><trkpt lat="44.3657033" lon="11.936395"><ele>14.0</ele><time>2026-04-11T10:11:58.123Z</time></trkpt><trkpt lat="44.3654767" lon="11.9362233"><ele>14.0</ele><time>2026-04-11T10:11:59.123Z</time></trkpt><trkpt lat="44.3652467" lon="11.936055"><ele>14.0</ele><time>2026-04-11T10:12:00.123Z</time></trkpt><trkpt lat="44.3650217" lon="11.9358817"><ele>14.0</ele><time>2026-04-11T10:12:01.124Z</time></trkpt><trkpt lat="44.3648017" lon="11.9357117"><ele>14.0</ele><time>2026-04-11T10:12:02.124Z</time></trkpt><trkpt lat="44.3645967" lon="11.93555"><ele>13.666666666666668</ele><time>2026-04-11T10:12:03.126Z</time></trkpt><trkpt lat="44.3644067" lon="11.935395"><ele>13.333333333333332</ele><time>2026-04-11T10:12:04.124Z</time></trkpt><trkpt lat="44.3642267" lon="11.9352517"><ele>13.0</ele><time>2026-04-11T10:12:05.123Z</time></trkpt><trkpt lat="44.364055" lon="11.9351183"><ele>13.333333333333332</ele><time>2026-04-11T10:12:06.124Z</time></trkpt><trkpt lat="44.3638917" lon="11.93499"><ele>13.666666666666668</ele><time>2026-04-11T10:12:07.124Z</time></trkpt><trkpt lat="44.3637333" lon="11.9348667"><ele>14.0</ele><time>2026-04-11T10:12:08.124Z</time></trkpt><trkpt lat="44.3635767" lon="11.9347467"><ele>14.0</ele><time>2026-04-11T10:12:09.124Z</time></trkpt><trkpt lat="44.363425" lon="11.9346267"><ele>14.0</ele><time>2026-04-11T10:12:10.124Z</time></trkpt><trkpt lat="44.3632767" lon="11.9345117"><ele>14.0</ele><time>2026-04-11T10:12:11.123Z</time></trkpt><trkpt lat="44.363135" lon="11.9344"><ele>14.333333333333334</ele><time>2026-04-11T10:12:12.123Z</time></trkpt><trkpt lat="44.362995" lon="11.9342933"><ele>14.666666666666668</ele><time>2026-04-11T10:12:13.124Z</time></trkpt><trkpt lat="44.3628567" lon="11.9341867"><ele>15.0</ele><time>2026-04-11T10:12:14.124Z</time></trkpt><trkpt lat="44.3627167" lon="11.934075"><ele>14.5</ele><time>2026-04-11T10:12:15.124Z</time></trkpt><trkpt lat="44.36258" lon="11.933965"><ele>14.0</ele><time>2026-04-11T10:12:16.123Z</time></trkpt><trkpt lat="44.3624567" lon="11.9338617"><ele>13.5</ele><time>2026-04-11T10:12:17.124Z</time></trkpt><trkpt lat="44.3623467" lon="11.9337667"><ele>13.0</ele><time>2026-04-11T10:12:18.125Z</time></trkpt><trkpt lat="44.36225" lon="11.93368"><ele>13.0</ele><time>2026-04-11T10:12:19.124Z</time></trkpt><trkpt lat="44.3621667" lon="11.9335983"><ele>13.0</ele><time>2026-04-11T10:12:20.124Z</time></trkpt><trkpt lat="44.3620933" lon="11.93351"><ele>13.0</ele><time>2026-04-11T10:12:21.124Z</time></trkpt><trkpt lat="44.3620333" lon="11.93341"><ele>13.0</ele><time>2026-04-11T10:12:22.124Z</time></trkpt><trkpt lat="44.3619833" lon="11.9332933"><ele>13.0</ele><time>2026-04-11T10:12:23.124Z</time></trkpt><trkpt lat="44.3619383" lon="11.9331683"><ele>13.2</ele><time>2026-04-11T10:12:24.124Z</time></trkpt><trkpt lat="44.361895" lon="11.9330433"><ele>13.4</ele><time>2026-04-11T10:12:25.124Z</time></trkpt><trkpt lat="44.36185" lon="11.932925"><ele>13.599999999999998</ele><time>2026-04-11T10:12:26.123Z</time></trkpt><trkpt lat="44.3617917" lon="11.932815"><ele>13.799999999999999</ele><time>2026-04-11T10:12:27.123Z</time></trkpt><trkpt lat="44.3617233" lon="11.932725"><ele>14.0</ele><time>2026-04-11T10:12:28.123Z</time></trkpt><trkpt lat="44.3616467" lon="11.9326633"><ele>14.0</ele><time>2026-04-11T10:12:29.124Z</time></trkpt><trkpt lat="44.3615667" lon="11.9326267"><ele>13.999999999999998</ele><time>2026-04-11T10:12:30.123Z</time></trkpt><trkpt lat="44.3614683" lon="11.9326417"><ele>13.999999999999998</ele><time>2026-04-11T10:12:31.123Z</time></trkpt><trkpt lat="44.36137" lon="11.9326767"><ele>14.0</ele><time>2026-04-11T10:12:32.123Z</time></trkpt><trkpt lat="44.361265" lon="11.9327117"><ele>14.0</ele><time>2026-04-11T10:12:33.124Z</time></trkpt><trkpt lat="44.361155" lon="11.9327283"><ele>14.2</ele><time>2026-04-11T10:12:34.123Z</time></trkpt><trkpt lat="44.3610467" lon="11.93271"><ele>14.399999999999999</ele><time>2026-04-11T10:12:35.123Z</time></trkpt><trkpt lat="44.3609533" lon="11.9326633"><ele>14.6</ele><time>2026-04-11T10:12:36.123Z</time></trkpt><trkpt lat="44.3608633" lon="11.9326017"><ele>14.8</ele><time>2026-04-11T10:12:37.123Z</time></trkpt><trkpt lat="44.3607683" lon="11.9325267"><ele>15.0</ele><time>2026-04-11T10:12:38.123Z</time></trkpt><trkpt lat="44.36066" lon="11.932445"><ele>15.0</ele><time>2026-04-11T10:12:39.123Z</time></trkpt><trkpt lat="44.3605417" lon="11.9323567"><ele>15.0</ele><time>2026-04-11T10:12:40.123Z</time></trkpt><trkpt lat="44.360415" lon="11.93226"><ele>15.0</ele><time>2026-04-11T10:12:41.124Z</time></trkpt><trkpt lat="44.3602833" lon="11.932155"><ele>15.0</ele><time>2026-04-11T10:12:42.123Z</time></trkpt><trkpt lat="44.360145" lon="11.9320467"><ele>15.666666666666668</ele><time>2026-04-11T10:12:43.124Z</time></trkpt><trkpt lat="44.3599983" lon="11.9319417"><ele>16.333333333333336</ele><time>2026-04-11T10:12:44.123Z</time></trkpt><trkpt lat="44.3598417" lon="11.931835"><ele>17.0</ele><time>2026-04-11T10:12:45.124Z</time></trkpt><trkpt lat="44.3596733" lon="11.9317167"><ele>17.0</ele><time>2026-04-11T10:12:46.124Z</time></trkpt><trkpt lat="44.3595" lon="11.9315767"><ele>17.0</ele><time>2026-04-11T10:12:47.123Z</time></trkpt><trkpt lat="44.3593233" lon="11.9314283"><ele>17.0</ele><time>2026-04-11T10:12:48.124Z</time></trkpt><trkpt lat="44.35914" lon="11.931275"><ele>17.0</ele><time>2026-04-11T10:12:49.124Z</time></trkpt><trkpt lat="44.3589583" lon="11.9311217"><ele>17.0</ele><time>2026-04-11T10:12:50.123Z</time></trkpt><trkpt lat="44.3587783" lon="11.93097"><ele>17.0</ele><time>2026-04-11T10:12:51.124Z</time></trkpt><trkpt lat="44.3586033" lon="11.930825"><ele>16.666666666666668</ele><time>2026-04-11T10:12:52.124Z</time></trkpt><trkpt lat="44.358425" lon="11.9306833"><ele>16.333333333333332</ele><time>2026-04-11T10:12:53.124Z</time></trkpt><trkpt lat="44.358245" lon="11.9305433"><ele>16.0</ele><time>2026-04-11T10:12:54.124Z</time></trkpt><trkpt lat="44.3580617" lon="11.9304"><ele>15.666666666666666</ele><time>2026-04-11T10:12:55.123Z</time></trkpt><trkpt lat="44.357875" lon="11.9302533"><ele>15.333333333333332</ele><time>2026-04-11T10:12:56.124Z</time></trkpt><trkpt lat="44.3576867" lon="11.9301067"><ele>15.0</ele><time>2026-04-11T10:12:57.125Z</time></trkpt><trkpt lat="44.357495" lon="11.929955"><ele>15.0</ele><time>2026-04-11T10:12:58.123Z</time></trkpt><trkpt lat="44.3572983" lon="11.9298017"><ele>15.0</ele><time>2026-04-11T10:12:59.123Z</time></trkpt><trkpt lat="44.3571033" lon="11.9296467"><ele>15.0</ele><time>2026-04-11T10:13:00.123Z</time></trkpt><trkpt lat="44.3569117" lon="11.9294967"><ele>15.0</ele><time>2026-04-11T10:13:01.123Z</time></trkpt><trkpt lat="44.3567233" lon="11.9293467"><ele>15.0</ele><time>2026-04-11T10:13:02.124Z</time></trkpt><trkpt lat="44.3565383" lon="11.9292017"><ele>15.0</ele><time>2026-04-11T10:13:03.123Z</time></trkpt><trkpt lat="44.3563567" lon="11.9290583"><ele>15.0</ele><time>2026-04-11T10:13:04.123Z</time></trkpt><trkpt lat="44.3561767" lon="11.9289183"><ele>15.0</ele><time>2026-04-11T10:13:05.124Z</time></trkpt><trkpt lat="44.3559983" lon="11.92878"><ele>15.0</ele><time>2026-04-11T10:13:06.123Z</time></trkpt><trkpt lat="44.35582" lon="11.928645"><ele>15.0</ele><time>2026-04-11T10:13:07.123Z</time></trkpt><trkpt lat="44.3556433" lon="11.92851"><ele>15.0</ele><time>2026-04-11T10:13:08.123Z</time></trkpt><trkpt lat="44.3554683" lon="11.9283783"><ele>15.0</ele><time>2026-04-11T10:13:09.124Z</time></trkpt><trkpt lat="44.3552917" lon="11.928245"><ele>15.333333333333332</ele><time>2026-04-11T10:13:10.123Z</time></trkpt><trkpt lat="44.3551133" lon="11.9281133"><ele>15.666666666666666</ele><time>2026-04-11T10:13:11.123Z</time></trkpt><trkpt lat="44.3549317" lon="11.9279883"><ele>16.0</ele><time>2026-04-11T10:13:12.123Z</time></trkpt><trkpt lat="44.3547433" lon="11.9278783"><ele>15.666666666666666</ele><time>2026-04-11T10:13:13.123Z</time></trkpt><trkpt lat="44.3545533" lon="11.92778"><ele>15.333333333333332</ele><time>2026-04-11T10:13:14.124Z</time></trkpt><trkpt lat="44.3543617" lon="11.927695"><ele>15.0</ele><time>2026-04-11T10:13:15.124Z</time></trkpt><trkpt lat="44.3541633" lon="11.927625"><ele>15.0</ele><time>2026-04-11T10:13:16.124Z</time></trkpt><trkpt lat="44.35396" lon="11.9275667"><ele>15.0</ele><time>2026-04-11T10:13:17.124Z</time></trkpt><trkpt lat="44.3537483" lon="11.9275233"><ele>15.0</ele><time>2026-04-11T10:13:18.124Z</time></trkpt><trkpt lat="44.3535283" lon="11.9274917"><ele>14.5</ele><time>2026-04-11T10:13:19.124Z</time></trkpt><trkpt lat="44.3533" lon="11.92747"><ele>14.0</ele><time>2026-04-11T10:13:20.124Z</time></trkpt><trkpt lat="44.3530667" lon="11.9274467"><ele>15.0</ele><time>2026-04-11T10:13:21.124Z</time></trkpt><trkpt lat="44.3528317" lon="11.9274117"><ele>16.0</ele><time>2026-04-11T10:13:22.124Z</time></trkpt><trkpt lat="44.3525917" lon="11.9273667"><ele>16.0</ele><time>2026-04-11T10:13:23.124Z</time></trkpt><trkpt lat="44.35235" lon="11.9273183"><ele>16.0</ele><time>2026-04-11T10:13:24.124Z</time></trkpt><trkpt lat="44.3521117" lon="11.9272717"><ele>15.5</ele><time>2026-04-11T10:13:25.124Z</time></trkpt><trkpt lat="44.3518783" lon="11.927235"><ele>15.0</ele><time>2026-04-11T10:13:26.124Z</time></trkpt><trkpt lat="44.3516567" lon="11.927205"><ele>15.0</ele><time>2026-04-11T10:13:27.123Z</time></trkpt><trkpt lat="44.3514467" lon="11.9271733"><ele>15.0</ele><time>2026-04-11T10:13:28.124Z</time></trkpt><trkpt lat="44.3512483" lon="11.927145"><ele>15.0</ele><time>2026-04-11T10:13:29.123Z</time></trkpt><trkpt lat="44.3510517" lon="11.9271183"><ele>15.0</ele><time>2026-04-11T10:13:30.124Z</time></trkpt><trkpt lat="44.350855" lon="11.9270917"><ele>15.0</ele><time>2026-04-11T10:13:31.124Z</time></trkpt><trkpt lat="44.3506583" lon="11.927055"><ele>15.0</ele><time>2026-04-11T10:13:32.123Z</time></trkpt><trkpt lat="44.35046" lon="11.927005"><ele>14.666666666666668</ele><time>2026-04-11T10:13:33.124Z</time></trkpt><trkpt lat="44.3502583" lon="11.9269383"><ele>14.333333333333334</ele><time>2026-04-11T10:13:34.124Z</time></trkpt><trkpt lat="44.3500583" lon="11.9268583"><ele>14.0</ele><time>2026-04-11T10:13:35.123Z</time></trkpt><trkpt lat="44.3498583" lon="11.926765"><ele>14.0</ele><time>2026-04-11T10:13:36.123Z</time></trkpt><trkpt lat="44.34966" lon="11.92666"><ele>14.0</ele><time>2026-04-11T10:13:37.124Z</time></trkpt><trkpt lat="44.349465" lon="11.9265433"><ele>14.0</ele><time>2026-04-11T10:13:38.123Z</time></trkpt><trkpt lat="44.3492767" lon="11.9264183"><ele>14.0</ele><time>2026-04-11T10:13:39.123Z</time></trkpt><trkpt lat="44.3490967" lon="11.9262917"><ele>14.0</ele><time>2026-04-11T10:13:40.124Z</time></trkpt><trkpt lat="44.3489283" lon="11.926165"><ele>14.0</ele><time>2026-04-11T10:13:41.123Z</time></trkpt><trkpt lat="44.3487667" lon="11.9260417"><ele>13.666666666666668</ele><time>2026-04-11T10:13:42.123Z</time></trkpt><trkpt lat="44.348615" lon="11.9259217"><ele>13.333333333333332</ele><time>2026-04-11T10:13:43.124Z</time></trkpt><trkpt lat="44.3484733" lon="11.9258067"><ele>13.0</ele><time>2026-04-11T10:13:44.124Z</time></trkpt><trkpt lat="44.3483417" lon="11.9257"><ele>13.5</ele><time>2026-04-11T10:13:45.123Z</time></trkpt><trkpt lat="44.3482167" lon="11.9256033"><ele>14.0</ele><time>2026-04-11T10:13:46.124Z</time></trkpt><trkpt lat="44.348095" lon="11.92551"><ele>14.5</ele><time>2026-04-11T10:13:47.123Z</time></trkpt><trkpt lat="44.34798" lon="11.92542"><ele>15.0</ele><time>2026-04-11T10:13:48.124Z</time></trkpt><trkpt lat="44.3478633" lon="11.9253283"><ele>15.0</ele><time>2026-04-11T10:13:49.123Z</time></trkpt><trkpt lat="44.3477433" lon="11.925235"><ele>15.0</ele><time>2026-04-11T10:13:50.123Z</time></trkpt><trkpt lat="44.347615" lon="11.9251333"><ele>15.0</ele><time>2026-04-11T10:13:51.124Z</time></trkpt><trkpt lat="44.3474833" lon="11.9250317"><ele>15.0</ele><time>2026-04-11T10:13:52.122Z</time></trkpt><trkpt lat="44.347355" lon="11.9249317"><ele>15.25</ele><time>2026-04-11T10:13:53.124Z</time></trkpt><trkpt lat="44.3472317" lon="11.9248367"><ele>15.5</ele><time>2026-04-11T10:13:54.124Z</time></trkpt><trkpt lat="44.34711" lon="11.924745"><ele>15.75</ele><time>2026-04-11T10:13:55.123Z</time></trkpt><trkpt lat="44.3469833" lon="11.9246483"><ele>16.0</ele><time>2026-04-11T10:13:56.123Z</time></trkpt><trkpt lat="44.34685" lon="11.9245467"><ele>16.0</ele><time>2026-04-11T10:13:57.123Z</time></trkpt><trkpt lat="44.3467133" lon="11.9244417"><ele>16.0</ele><time>2026-04-11T10:13:58.123Z</time></trkpt><trkpt lat="44.34658" lon="11.9243367"><ele>16.0</ele><time>2026-04-11T10:13:59.122Z</time></trkpt><trkpt lat="44.3464517" lon="11.924235"><ele>15.75</ele><time>2026-04-11T10:14:00.123Z</time></trkpt><trkpt lat="44.3463267" lon="11.9241383"><ele>15.5</ele><time>2026-04-11T10:14:01.123Z</time></trkpt><trkpt lat="44.3462067" lon="11.924045"><ele>15.25</ele><time>2026-04-11T10:14:02.123Z</time></trkpt><trkpt lat="44.346085" lon="11.9239517"><ele>15.0</ele><time>2026-04-11T10:14:03.124Z</time></trkpt><trkpt lat="44.3459617" lon="11.9238567"><ele>15.0</ele><time>2026-04-11T10:14:04.123Z</time></trkpt><trkpt lat="44.3458383" lon="11.923755"><ele>15.0</ele><time>2026-04-11T10:14:05.124Z</time></trkpt><trkpt lat="44.3457083" lon="11.9236517"><ele>15.0</ele><time>2026-04-11T10:14:06.123Z</time></trkpt><trkpt lat="44.3455767" lon="11.9235483"><ele>15.0</ele><time>2026-04-11T10:14:07.123Z</time></trkpt><trkpt lat="44.3454417" lon="11.9234417"><ele>15.333333333333332</ele><time>2026-04-11T10:14:08.124Z</time></trkpt><trkpt lat="44.345305" lon="11.923335"><ele>15.666666666666666</ele><time>2026-04-11T10:14:09.124Z</time></trkpt><trkpt lat="44.3451717" lon="11.92323"><ele>16.0</ele><time>2026-04-11T10:14:10.124Z</time></trkpt><trkpt lat="44.3450433" lon="11.92313"><ele>16.0</ele><time>2026-04-11T10:14:11.124Z</time></trkpt><trkpt lat="44.3449217" lon="11.9230317"><ele>16.0</ele><time>2026-04-11T10:14:12.122Z</time></trkpt><trkpt lat="44.3448067" lon="11.9229433"><ele>16.0</ele><time>2026-04-11T10:14:13.124Z</time></trkpt><trkpt lat="44.3447" lon="11.92286"><ele>16.0</ele><time>2026-04-11T10:14:14.124Z</time></trkpt><trkpt lat="44.3445983" lon="11.9227817"><ele>16.0</ele><time>2026-04-11T10:14:15.124Z</time></trkpt><trkpt lat="44.344495" lon="11.9227033"><ele>16.0</ele><time>2026-04-11T10:14:16.125Z</time></trkpt><trkpt lat="44.34439" lon="11.92262"><ele>16.0</ele><time>2026-04-11T10:14:17.123Z</time></trkpt><trkpt lat="44.3442867" lon="11.92254"><ele>16.0</ele><time>2026-04-11T10:14:18.123Z</time></trkpt><trkpt lat="44.344185" lon="11.9224633"><ele>16.0</ele><time>2026-04-11T10:14:19.124Z</time></trkpt><trkpt lat="44.3440867" lon="11.9223867"><ele>16.0</ele><time>2026-04-11T10:14:20.123Z</time></trkpt><trkpt lat="44.34398" lon="11.9223033"><ele>16.0</ele><time>2026-04-11T10:14:21.124Z</time></trkpt><trkpt lat="44.34386" lon="11.9222033"><ele>16.0</ele><time>2026-04-11T10:14:22.124Z</time></trkpt><trkpt lat="44.343725" lon="11.9220933"><ele>16.333333333333332</ele><time>2026-04-11T10:14:23.123Z</time></trkpt><trkpt lat="44.34358" lon="11.9219817"><ele>16.666666666666668</ele><time>2026-04-11T10:14:24.124Z</time></trkpt><trkpt lat="44.3434233" lon="11.9218617"><ele>17.0</ele><time>2026-04-11T10:14:25.123Z</time></trkpt><trkpt lat="44.343255" lon="11.92174"><ele>17.0</ele><time>2026-04-11T10:14:26.123Z</time></trkpt><trkpt lat="44.3430767" lon="11.9216117"><ele>17.0</ele><time>2026-04-11T10:14:27.123Z</time></trkpt><trkpt lat="44.3428883" lon="11.921475"><ele>17.0</ele><time>2026-04-11T10:14:28.124Z</time></trkpt><trkpt lat="44.34269" lon="11.9213333"><ele>17.0</ele><time>2026-04-11T10:14:29.123Z</time></trkpt><trkpt lat="44.34249" lon="11.921185"><ele>17.0</ele><time>2026-04-11T10:14:30.122Z</time></trkpt><trkpt lat="44.3422883" lon="11.921035"><ele>16.5</ele><time>2026-04-11T10:14:31.123Z</time></trkpt><trkpt lat="44.342085" lon="11.9208817"><ele>16.0</ele><time>2026-04-11T10:14:32.123Z</time></trkpt><trkpt lat="44.341875" lon="11.9207233"><ele>16.0</ele><time>2026-04-11T10:14:33.124Z</time></trkpt><trkpt lat="44.3416583" lon="11.9205567"><ele>16.0</ele><time>2026-04-11T10:14:34.124Z</time></trkpt><trkpt lat="44.3414333" lon="11.9203867"><ele>16.5</ele><time>2026-04-11T10:14:35.123Z</time></trkpt><trkpt lat="44.34121" lon="11.9202133"><ele>17.0</ele><time>2026-04-11T10:14:36.124Z</time></trkpt><trkpt lat="44.3409883" lon="11.9200367"><ele>17.0</ele><time>2026-04-11T10:14:37.123Z</time></trkpt><trkpt lat="44.3407733" lon="11.9198583"><ele>17.0</ele><time>2026-04-11T10:14:38.124Z</time></trkpt><trkpt lat="44.3405517" lon="11.9196783"><ele>17.5</ele><time>2026-04-11T10:14:39.124Z</time></trkpt><trkpt lat="44.3403333" lon="11.9194967"><ele>18.0</ele><time>2026-04-11T10:14:40.123Z</time></trkpt><trkpt lat="44.34011" lon="11.91932"><ele>18.0</ele><time>2026-04-11T10:14:41.124Z</time></trkpt><trkpt lat="44.339885" lon="11.919145"><ele>18.0</ele><time>2026-04-11T10:14:42.123Z</time></trkpt><trkpt lat="44.339655" lon="11.91897"><ele>17.5</ele><time>2026-04-11T10:14:43.123Z</time></trkpt><trkpt lat="44.33943" lon="11.9187933"><ele>17.0</ele><time>2026-04-11T10:14:44.124Z</time></trkpt><trkpt lat="44.3392033" lon="11.9186167"><ele>17.0</ele><time>2026-04-11T10:14:45.123Z</time></trkpt><trkpt lat="44.3389783" lon="11.91844"><ele>17.0</ele><time>2026-04-11T10:14:46.122Z</time></trkpt><trkpt lat="44.33875" lon="11.918265"><ele>17.0</ele><time>2026-04-11T10:14:47.123Z</time></trkpt><trkpt lat="44.3385217" lon="11.91809"><ele>17.0</ele><time>2026-04-11T10:14:48.123Z</time></trkpt><trkpt lat="44.33829" lon="11.917915"><ele>17.0</ele><time>2026-04-11T10:14:49.124Z</time></trkpt><trkpt lat="44.33806" lon="11.9177367"><ele>17.0</ele><time>2026-04-11T10:14:50.124Z</time></trkpt><trkpt lat="44.3378283" lon="11.91756"><ele>17.0</ele><time>2026-04-11T10:14:51.125Z</time></trkpt><trkpt lat="44.337595" lon="11.9173817"><ele>17.0</ele><time>2026-04-11T10:14:52.123Z</time></trkpt><trkpt lat="44.3373633" lon="11.9172033"><ele>17.5</ele><time>2026-04-11T10:14:53.123Z</time></trkpt><trkpt lat="44.3371317" lon="11.9170233"><ele>18.0</ele><time>2026-04-11T10:14:54.124Z</time></trkpt><trkpt lat="44.3369" lon="11.9168467"><ele>17.0</ele><time>2026-04-11T10:14:55.124Z</time></trkpt><trkpt lat="44.3366667" lon="11.91667"><ele>16.0</ele><time>2026-04-11T10:14:56.122Z</time></trkpt><trkpt lat="44.3364333" lon="11.91649"><ele>17.5</ele><time>2026-04-11T10:14:57.124Z</time></trkpt><trkpt lat="44.3362017" lon="11.91631"><ele>19.0</ele><time>2026-04-11T10:14:58.124Z</time></trkpt><trkpt lat="44.33597" lon="11.91613"><ele>19.0</ele><time>2026-04-11T10:14:59.123Z</time></trkpt><trkpt lat="44.3357367" lon="11.91595"><ele>19.0</ele><time>2026-04-11T10:15:00.124Z</time></trkpt><trkpt lat="44.335502" lon="11.915772"><ele>19.0</ele><time>2026-04-11T10:15:01.124Z</time></trkpt><trkpt lat="44.3352697" lon="11.9155897"><ele>19.0</ele><time>2026-04-11T10:15:02.123Z</time></trkpt><trkpt lat="44.3350375" lon="11.9154116"><ele>19.0</ele><time>2026-04-11T10:15:03.124Z</time></trkpt><trkpt lat="44.3348111" lon="11.9152363"><ele>19.0</ele><time>2026-04-11T10:15:04.123Z</time></trkpt><trkpt lat="44.3345957" lon="11.9150707"><ele>19.0</ele><time>2026-04-11T10:15:05.124Z</time></trkpt><trkpt lat="44.3343862" lon="11.9149105"><ele>19.0</ele><time>2026-04-11T10:15:06.123Z</time></trkpt><trkpt lat="44.3341796" lon="11.9147512"><ele>19.0</ele><time>2026-04-11T10:15:07.123Z</time></trkpt><trkpt lat="44.3339763" lon="11.9145943"><ele>19.0</ele><time>2026-04-11T10:15:08.122Z</time></trkpt><trkpt lat="44.3337818" lon="11.914445"><ele>18.666666666666664</ele><time>2026-04-11T10:15:09.123Z</time></trkpt><trkpt lat="44.3336003" lon="11.9143064"><ele>18.333333333333332</ele><time>2026-04-11T10:15:10.123Z</time></trkpt><trkpt lat="44.3334459" lon="11.9141843"><ele>18.0</ele><time>2026-04-11T10:15:11.123Z</time></trkpt><trkpt lat="44.333309" lon="11.9140741"><ele>18.0</ele><time>2026-04-11T10:15:12.124Z</time></trkpt><trkpt lat="44.3331862" lon="11.9139621"><ele>18.0</ele><time>2026-04-11T10:15:13.123Z</time></trkpt><trkpt lat="44.3330851" lon="11.9138333"><ele>18.0</ele><time>2026-04-11T10:15:14.124Z</time></trkpt><trkpt lat="44.3330155" lon="11.9136772"><ele>18.0</ele><time>2026-04-11T10:15:15.124Z</time></trkpt><trkpt lat="44.3329765" lon="11.9134948"><ele>18.333333333333332</ele><time>2026-04-11T10:15:16.124Z</time></trkpt><trkpt lat="44.3329681" lon="11.9132943"><ele>18.666666666666664</ele><time>2026-04-11T10:15:17.123Z</time></trkpt><trkpt lat="44.3329936" lon="11.9130828"><ele>19.0</ele><time>2026-04-11T10:15:18.123Z</time></trkpt><trkpt lat="44.3330474" lon="11.9128644"><ele>18.666666666666664</ele><time>2026-04-11T10:15:19.124Z</time></trkpt><trkpt lat="44.3331181" lon="11.9126345"><ele>18.333333333333332</ele><time>2026-04-11T10:15:20.124Z</time></trkpt><trkpt lat="44.3331945" lon="11.9123909"><ele>18.0</ele><time>2026-04-11T10:15:21.123Z</time></trkpt><trkpt lat="44.3332757" lon="11.9121357"><ele>18.0</ele><time>2026-04-11T10:15:22.123Z</time></trkpt><trkpt lat="44.3333585" lon="11.9118674"><ele>18.0</ele><time>2026-04-11T10:15:23.123Z</time></trkpt><trkpt lat="44.333445" lon="11.911585"><ele>18.0</ele><time>2026-04-11T10:15:24.124Z</time></trkpt><trkpt lat="44.333535" lon="11.9112967"><ele>18.5</ele><time>2026-04-11T10:15:25.124Z</time></trkpt><trkpt lat="44.3336283" lon="11.9110083"><ele>19.0</ele><time>2026-04-11T10:15:26.125Z</time></trkpt><trkpt lat="44.333725" lon="11.91072"><ele>19.0</ele><time>2026-04-11T10:15:27.123Z</time></trkpt><trkpt lat="44.3338233" lon="11.91044"><ele>19.0</ele><time>2026-04-11T10:15:28.123Z</time></trkpt><trkpt lat="44.3339183" lon="11.9101817"><ele>19.0</ele><time>2026-04-11T10:15:29.124Z</time></trkpt><trkpt lat="44.3340117" lon="11.9099333"><ele>18.666666666666664</ele><time>2026-04-11T10:15:30.123Z</time></trkpt><trkpt lat="44.3341017" lon="11.90969"><ele>18.333333333333332</ele><time>2026-04-11T10:15:31.123Z</time></trkpt><trkpt lat="44.3341917" lon="11.9094417"><ele>18.0</ele><time>2026-04-11T10:15:32.123Z</time></trkpt><trkpt lat="44.3342833" lon="11.909195"><ele>18.0</ele><time>2026-04-11T10:15:33.123Z</time></trkpt><trkpt lat="44.3343767" lon="11.9089417"><ele>18.0</ele><time>2026-04-11T10:15:34.124Z</time></trkpt><trkpt lat="44.33447" lon="11.90869"><ele>18.0</ele><time>2026-04-11T10:15:35.122Z</time></trkpt><trkpt lat="44.334565" lon="11.9084383"><ele>18.0</ele><time>2026-04-11T10:15:36.123Z</time></trkpt><trkpt lat="44.3346617" lon="11.9081817"><ele>18.0</ele><time>2026-04-11T10:15:37.123Z</time></trkpt><trkpt lat="44.33476" lon="11.90792"><ele>18.0</ele><time>2026-04-11T10:15:38.124Z</time></trkpt><trkpt lat="44.3348583" lon="11.9076633"><ele>18.0</ele><time>2026-04-11T10:15:39.124Z</time></trkpt><trkpt lat="44.33496" lon="11.9074067"><ele>18.0</ele><time>2026-04-11T10:15:40.123Z</time></trkpt><trkpt lat="44.3350633" lon="11.9071467"><ele>18.0</ele><time>2026-04-11T10:15:41.123Z</time></trkpt><trkpt lat="44.335165" lon="11.9068917"><ele>17.666666666666668</ele><time>2026-04-11T10:15:42.124Z</time></trkpt><trkpt lat="44.3352667" lon="11.90664"><ele>17.333333333333336</ele><time>2026-04-11T10:15:43.123Z</time></trkpt><trkpt lat="44.33537" lon="11.9063867"><ele>17.0</ele><time>2026-04-11T10:15:44.124Z</time></trkpt><trkpt lat="44.3354717" lon="11.9061333"><ele>17.666666666666668</ele><time>2026-04-11T10:15:45.127Z</time></trkpt><trkpt lat="44.3355733" lon="11.9058817"><ele>18.333333333333332</ele><time>2026-04-11T10:15:46.124Z</time></trkpt><trkpt lat="44.335675" lon="11.9056267"><ele>19.0</ele><time>2026-04-11T10:15:47.122Z</time></trkpt><trkpt lat="44.3357783" lon="11.9053717"><ele>19.0</ele><time>2026-04-11T10:15:48.124Z</time></trkpt><trkpt lat="44.33588" lon="11.9051167"><ele>19.0</ele><time>2026-04-11T10:15:49.123Z</time></trkpt><trkpt lat="44.3359833" lon="11.9048633"><ele>19.0</ele><time>2026-04-11T10:15:50.124Z</time></trkpt><trkpt lat="44.3360917" lon="11.904605"><ele>19.0</ele><time>2026-04-11T10:15:51.124Z</time></trkpt><trkpt lat="44.3361967" lon="11.904345"><ele>19.0</ele><time>2026-04-11T10:15:52.125Z</time></trkpt><trkpt lat="44.3363033" lon="11.9040817"><ele>19.0</ele><time>2026-04-11T10:15:53.123Z</time></trkpt><trkpt lat="44.33641" lon="11.9038167"><ele>19.0</ele><time>2026-04-11T10:15:54.125Z</time></trkpt><trkpt lat="44.33652" lon="11.9035467"><ele>19.0</ele><time>2026-04-11T10:15:55.124Z</time></trkpt><trkpt lat="44.3366333" lon="11.9032717"><ele>19.0</ele><time>2026-04-11T10:15:56.124Z</time></trkpt><trkpt lat="44.3367483" lon="11.9029917"><ele>19.0</ele><time>2026-04-11T10:15:57.124Z</time></trkpt><trkpt lat="44.336865" lon="11.9027117"><ele>19.0</ele><time>2026-04-11T10:15:58.123Z</time></trkpt><trkpt lat="44.33698" lon="11.9024317"><ele>19.5</ele><time>2026-04-11T10:15:59.124Z</time></trkpt><trkpt lat="44.3370917" lon="11.902155"><ele>20.0</ele><time>2026-04-11T10:16:00.123Z</time></trkpt><trkpt lat="44.3372017" lon="11.9018817"><ele>20.0</ele><time>2026-04-11T10:16:01.123Z</time></trkpt><trkpt lat="44.3373133" lon="11.9016083"><ele>20.0</ele><time>2026-04-11T10:16:02.123Z</time></trkpt><trkpt lat="44.3374233" lon="11.9013383"><ele>20.0</ele><time>2026-04-11T10:16:03.124Z</time></trkpt><trkpt lat="44.33753" lon="11.90107"><ele>20.666666666666668</ele><time>2026-04-11T10:16:04.124Z</time></trkpt><trkpt lat="44.3376383" lon="11.9008033"><ele>21.333333333333332</ele><time>2026-04-11T10:16:05.123Z</time></trkpt><trkpt lat="44.3377467" lon="11.9005367"><ele>22.0</ele><time>2026-04-11T10:16:06.124Z</time></trkpt><trkpt lat="44.337855" lon="11.9002683"><ele>21.666666666666664</ele><time>2026-04-11T10:16:07.123Z</time></trkpt><trkpt lat="44.3379633" lon="11.9000033"><ele>21.333333333333332</ele><time>2026-04-11T10:16:08.122Z</time></trkpt><trkpt lat="44.3380733" lon="11.8997367"><ele>21.0</ele><time>2026-04-11T10:16:09.124Z</time></trkpt><trkpt lat="44.3381833" lon="11.8994617"><ele>21.0</ele><time>2026-04-11T10:16:10.123Z</time></trkpt><trkpt lat="44.3382917" lon="11.8991833"><ele>21.0</ele><time>2026-04-11T10:16:11.123Z</time></trkpt><trkpt lat="44.3384033" lon="11.8989017"><ele>21.0</ele><time>2026-04-11T10:16:12.123Z</time></trkpt><trkpt lat="44.3385183" lon="11.8986217"><ele>21.0</ele><time>2026-04-11T10:16:13.123Z</time></trkpt><trkpt lat="44.3386317" lon="11.8983383"><ele>20.0</ele><time>2026-04-11T10:16:14.124Z</time></trkpt><trkpt lat="44.3387483" lon="11.898055"><ele>19.0</ele><time>2026-04-11T10:16:15.124Z</time></trkpt><trkpt lat="44.3388633" lon="11.8977667"><ele>19.5</ele><time>2026-04-11T10:16:16.122Z</time></trkpt><trkpt lat="44.3389817" lon="11.8974783"><ele>20.0</ele><time>2026-04-11T10:16:17.123Z</time></trkpt><trkpt lat="44.3391" lon="11.8971883"><ele>20.0</ele><time>2026-04-11T10:16:18.123Z</time></trkpt><trkpt lat="44.33922" lon="11.8968917"><ele>20.0</ele><time>2026-04-11T10:16:19.123Z</time></trkpt><trkpt lat="44.3393417" lon="11.8965983"><ele>20.5</ele><time>2026-04-11T10:16:20.124Z</time></trkpt><trkpt lat="44.3394617" lon="11.8963017"><ele>21.0</ele><time>2026-04-11T10:16:21.124Z</time></trkpt><trkpt lat="44.3395817" lon="11.8960033"><ele>21.0</ele><time>2026-04-11T10:16:22.124Z</time></trkpt><trkpt lat="44.3397017" lon="11.8957083"><ele>21.0</ele><time>2026-04-11T10:16:23.123Z</time></trkpt><trkpt lat="44.33982" lon="11.8954117"><ele>21.0</ele><time>2026-04-11T10:16:24.124Z</time></trkpt><trkpt lat="44.3399383" lon="11.895115"><ele>21.0</ele><time>2026-04-11T10:16:25.124Z</time></trkpt><trkpt lat="44.3400567" lon="11.8948233"><ele>21.5</ele><time>2026-04-11T10:16:26.124Z</time></trkpt><trkpt lat="44.3401717" lon="11.894535"><ele>22.0</ele><time>2026-04-11T10:16:27.124Z</time></trkpt><trkpt lat="44.3402867" lon="11.8942467"><ele>22.0</ele><time>2026-04-11T10:16:28.123Z</time></trkpt><trkpt lat="44.3404017" lon="11.8939583"><ele>22.0</ele><time>2026-04-11T10:16:29.123Z</time></trkpt><trkpt lat="44.3405167" lon="11.8936717"><ele>21.5</ele><time>2026-04-11T10:16:30.123Z</time></trkpt><trkpt lat="44.3406317" lon="11.8933867"><ele>21.0</ele><time>2026-04-11T10:16:31.123Z</time></trkpt><trkpt lat="44.340745" lon="11.8931033"><ele>21.0</ele><time>2026-04-11T10:16:32.124Z</time></trkpt><trkpt lat="44.3408567" lon="11.89282"><ele>21.0</ele><time>2026-04-11T10:16:33.124Z</time></trkpt><trkpt lat="44.3409683" lon="11.89254"><ele>21.0</ele><time>2026-04-11T10:16:34.122Z</time></trkpt><trkpt lat="44.34108" lon="11.892265"><ele>21.0</ele><time>2026-04-11T10:16:35.123Z</time></trkpt><trkpt lat="44.34119" lon="11.8919883"><ele>21.0</ele><time>2026-04-11T10:16:36.124Z</time></trkpt><trkpt lat="44.3413" lon="11.8917133"><ele>21.0</ele><time>2026-04-11T10:16:37.123Z</time></trkpt><trkpt lat="44.3414117" lon="11.8914383"><ele>21.0</ele><time>2026-04-11T10:16:38.125Z</time></trkpt><trkpt lat="44.3415217" lon="11.8911633"><ele>21.0</ele><time>2026-04-11T10:16:39.123Z</time></trkpt><trkpt lat="44.3416333" lon="11.89089"><ele>21.0</ele><time>2026-04-11T10:16:40.124Z</time></trkpt><trkpt lat="44.3417417" lon="11.8906167"><ele>21.0</ele><time>2026-04-11T10:16:41.122Z</time></trkpt><trkpt lat="44.34185" lon="11.8903433"><ele>21.0</ele><time>2026-04-11T10:16:42.123Z</time></trkpt><trkpt lat="44.3419633" lon="11.8900667"><ele>21.0</ele><time>2026-04-11T10:16:43.123Z</time></trkpt><trkpt lat="44.3420767" lon="11.8897883"><ele>21.0</ele><time>2026-04-11T10:16:44.124Z</time></trkpt><trkpt lat="44.3421867" lon="11.88951"><ele>21.0</ele><time>2026-04-11T10:16:45.124Z</time></trkpt><trkpt lat="44.3423" lon="11.8892333"><ele>21.0</ele><time>2026-04-11T10:16:46.123Z</time></trkpt><trkpt lat="44.342415" lon="11.888955"><ele>21.0</ele><time>2026-04-11T10:16:47.123Z</time></trkpt><trkpt lat="44.3425317" lon="11.888675"><ele>21.0</ele><time>2026-04-11T10:16:48.124Z</time></trkpt><trkpt lat="44.3426483" lon="11.8883933"><ele>21.0</ele><time>2026-04-11T10:16:49.123Z</time></trkpt><trkpt lat="44.3427633" lon="11.8881083"><ele>21.0</ele><time>2026-04-11T10:16:50.124Z</time></trkpt><trkpt lat="44.3428783" lon="11.88782"><ele>21.0</ele><time>2026-04-11T10:16:51.124Z</time></trkpt><trkpt lat="44.3429917" lon="11.8875333"><ele>21.0</ele><time>2026-04-11T10:16:52.124Z</time></trkpt><trkpt lat="44.3431017" lon="11.8872483"><ele>21.0</ele><time>2026-04-11T10:16:53.124Z</time></trkpt><trkpt lat="44.3432117" lon="11.88696"><ele>21.0</ele><time>2026-04-11T10:16:54.124Z</time></trkpt><trkpt lat="44.34332" lon="11.8866633"><ele>21.0</ele><time>2026-04-11T10:16:55.124Z</time></trkpt><trkpt lat="44.34343" lon="11.8863717"><ele>21.0</ele><time>2026-04-11T10:16:56.124Z</time></trkpt><trkpt lat="44.3435433" lon="11.886085"><ele>21.5</ele><time>2026-04-11T10:16:57.125Z</time></trkpt><trkpt lat="44.343655" lon="11.8857983"><ele>22.0</ele><time>2026-04-11T10:16:58.123Z</time></trkpt><trkpt lat="44.3437667" lon="11.8855133"><ele>22.0</ele><time>2026-04-11T10:16:59.124Z</time></trkpt><trkpt lat="44.3438767" lon="11.8852267"><ele>22.0</ele><time>2026-04-11T10:17:00.123Z</time></trkpt><trkpt lat="44.3439833" lon="11.88494"><ele>22.5</ele><time>2026-04-11T10:17:01.124Z</time></trkpt><trkpt lat="44.3440917" lon="11.8846533"><ele>23.0</ele><time>2026-04-11T10:17:02.123Z</time></trkpt><trkpt lat="44.3442" lon="11.884365"><ele>23.0</ele><time>2026-04-11T10:17:03.123Z</time></trkpt><trkpt lat="44.34431" lon="11.884075"><ele>23.0</ele><time>2026-04-11T10:17:04.123Z</time></trkpt><trkpt lat="44.3444183" lon="11.8837883"><ele>23.0</ele><time>2026-04-11T10:17:05.123Z</time></trkpt><trkpt lat="44.344525" lon="11.8835017"><ele>23.0</ele><time>2026-04-11T10:17:06.123Z</time></trkpt><trkpt lat="44.3446317" lon="11.8832167"><ele>23.0</ele><time>2026-04-11T10:17:07.124Z</time></trkpt><trkpt lat="44.344735" lon="11.8829417"><ele>23.0</ele><time>2026-04-11T10:17:08.123Z</time></trkpt><trkpt lat="44.3448317" lon="11.8826917"><ele>23.0</ele><time>2026-04-11T10:17:09.124Z</time></trkpt><trkpt lat="44.34493" lon="11.8824417"><ele>23.333333333333336</ele><time>2026-04-11T10:17:10.123Z</time></trkpt><trkpt lat="44.3450317" lon="11.8821967"><ele>23.666666666666668</ele><time>2026-04-11T10:17:11.125Z</time></trkpt><trkpt lat="44.3451433" lon="11.8819417"><ele>24.0</ele><time>2026-04-11T10:17:12.123Z</time></trkpt><trkpt lat="44.3452633" lon="11.8816833"><ele>24.0</ele><time>2026-04-11T10:17:13.123Z</time></trkpt><trkpt lat="44.3453833" lon="11.881425"><ele>24.0</ele><time>2026-04-11T10:17:14.123Z</time></trkpt><trkpt lat="44.3455017" lon="11.8811617"><ele>24.0</ele><time>2026-04-11T10:17:15.123Z</time></trkpt><trkpt lat="44.3456133" lon="11.88089"><ele>24.0</ele><time>2026-04-11T10:17:16.123Z</time></trkpt><trkpt lat="44.3457233" lon="11.8806067"><ele>24.0</ele><time>2026-04-11T10:17:17.123Z</time></trkpt><trkpt lat="44.3458317" lon="11.8803183"><ele>23.5</ele><time>2026-04-11T10:17:18.123Z</time></trkpt><trkpt lat="44.3459417" lon="11.8800317"><ele>23.0</ele><time>2026-04-11T10:17:19.123Z</time></trkpt><trkpt lat="44.3460517" lon="11.8797467"><ele>23.0</ele><time>2026-04-11T10:17:20.123Z</time></trkpt><trkpt lat="44.34616" lon="11.8794667"><ele>23.0</ele><time>2026-04-11T10:17:21.124Z</time></trkpt><trkpt lat="44.3462683" lon="11.8791883"><ele>23.333333333333336</ele><time>2026-04-11T10:17:22.123Z</time></trkpt><trkpt lat="44.346365" lon="11.8789317"><ele>23.666666666666668</ele><time>2026-04-11T10:17:23.124Z</time></trkpt><trkpt lat="44.3464583" lon="11.8786817"><ele>24.0</ele><time>2026-04-11T10:17:24.123Z</time></trkpt><trkpt lat="44.34655" lon="11.8784383"><ele>24.0</ele><time>2026-04-11T10:17:25.124Z</time></trkpt><trkpt lat="44.346645" lon="11.87819"><ele>24.0</ele><time>2026-04-11T10:17:26.123Z</time></trkpt><trkpt lat="44.3467433" lon="11.8779333"><ele>24.0</ele><time>2026-04-11T10:17:27.124Z</time></trkpt><trkpt lat="44.3468433" lon="11.87767"><ele>24.0</ele><time>2026-04-11T10:17:28.123Z</time></trkpt><trkpt lat="44.346945" lon="11.8774017"><ele>24.0</ele><time>2026-04-11T10:17:29.122Z</time></trkpt><trkpt lat="44.3470483" lon="11.8771333"><ele>24.0</ele><time>2026-04-11T10:17:30.123Z</time></trkpt><trkpt lat="44.34715" lon="11.876865"><ele>24.0</ele><time>2026-04-11T10:17:31.123Z</time></trkpt><trkpt lat="44.3472483" lon="11.8766017"><ele>24.0</ele><time>2026-04-11T10:17:32.123Z</time></trkpt><trkpt lat="44.3473433" lon="11.8763483"><ele>24.0</ele><time>2026-04-11T10:17:33.123Z</time></trkpt><trkpt lat="44.3474367" lon="11.8761117"><ele>24.666666666666664</ele><time>2026-04-11T10:17:34.123Z</time></trkpt><trkpt lat="44.3475217" lon="11.87589"><ele>25.333333333333332</ele><time>2026-04-11T10:17:35.123Z</time></trkpt><trkpt lat="44.3475983" lon="11.8756867"><ele>26.0</ele><time>2026-04-11T10:17:36.123Z</time></trkpt><trkpt lat="44.3476733" lon="11.87549"><ele>26.0</ele><time>2026-04-11T10:17:37.124Z</time></trkpt><trkpt lat="44.3477483" lon="11.875295"><ele>26.0</ele><time>2026-04-11T10:17:38.123Z</time></trkpt><trkpt lat="44.3478267" lon="11.8750933"><ele>26.0</ele><time>2026-04-11T10:17:39.123Z</time></trkpt><trkpt lat="44.3479017" lon="11.8748867"><ele>26.0</ele><time>2026-04-11T10:17:40.123Z</time></trkpt><trkpt lat="44.3479817" lon="11.874675"><ele>26.0</ele><time>2026-04-11T10:17:41.124Z</time></trkpt><trkpt lat="44.3480617" lon="11.874455"><ele>26.0</ele><time>2026-04-11T10:17:42.124Z</time></trkpt><trkpt lat="44.3481433" lon="11.8742333"><ele>26.0</ele><time>2026-04-11T10:17:43.123Z</time></trkpt><trkpt lat="44.3482233" lon="11.8740067"><ele>26.0</ele><time>2026-04-11T10:17:44.124Z</time></trkpt><trkpt lat="44.348305" lon="11.8737683"><ele>26.0</ele><time>2026-04-11T10:17:45.123Z</time></trkpt><trkpt lat="44.3483967" lon="11.87351"><ele>25.666666666666664</ele><time>2026-04-11T10:17:46.123Z</time></trkpt><trkpt lat="44.3485033" lon="11.8732417"><ele>25.333333333333336</ele><time>2026-04-11T10:17:47.124Z</time></trkpt><trkpt lat="44.3486117" lon="11.8729783"><ele>25.0</ele><time>2026-04-11T10:17:48.124Z</time></trkpt><trkpt lat="44.348715" lon="11.87273"><ele>25.0</ele><time>2026-04-11T10:17:49.123Z</time></trkpt><trkpt lat="44.3488117" lon="11.872495"><ele>25.0</ele><time>2026-04-11T10:17:50.123Z</time></trkpt><trkpt lat="44.3488983" lon="11.87227"><ele>25.0</ele><time>2026-04-11T10:17:51.124Z</time></trkpt><trkpt lat="44.3489683" lon="11.8720467"><ele>25.0</ele><time>2026-04-11T10:17:52.124Z</time></trkpt><trkpt lat="44.3490067" lon="11.87181"><ele>25.0</ele><time>2026-04-11T10:17:53.123Z</time></trkpt><trkpt lat="44.34901" lon="11.8715733"><ele>25.0</ele><time>2026-04-11T10:17:54.124Z</time></trkpt><trkpt lat="44.3489817" lon="11.87134"><ele>25.0</ele><time>2026-04-11T10:17:55.124Z</time></trkpt><trkpt lat="44.3489233" lon="11.8711183"><ele>25.0</ele><time>2026-04-11T10:17:56.123Z</time></trkpt><trkpt lat="44.348835" lon="11.8709033"><ele>25.0</ele><time>2026-04-11T10:17:57.124Z</time></trkpt><trkpt lat="44.34872" lon="11.870705"><ele>25.333333333333336</ele><time>2026-04-11T10:17:58.123Z</time></trkpt><trkpt lat="44.3485883" lon="11.8705217"><ele>25.666666666666664</ele><time>2026-04-11T10:17:59.122Z</time></trkpt><trkpt lat="44.3484483" lon="11.8703433"><ele>26.0</ele><time>2026-04-11T10:18:00.124Z</time></trkpt><trkpt lat="44.3483083" lon="11.8701567"><ele>26.0</ele><time>2026-04-11T10:18:01.123Z</time></trkpt><trkpt lat="44.34817" lon="11.8699617"><ele>26.0</ele><time>2026-04-11T10:18:02.123Z</time></trkpt><trkpt lat="44.34803" lon="11.8697633"><ele>26.0</ele><time>2026-04-11T10:18:03.123Z</time></trkpt><trkpt lat="44.3478883" lon="11.8695617"><ele>26.0</ele><time>2026-04-11T10:18:04.123Z</time></trkpt><trkpt lat="44.347745" lon="11.8693533"><ele>26.0</ele><time>2026-04-11T10:18:05.123Z</time></trkpt><trkpt lat="44.3476067" lon="11.8691433"><ele>26.0</ele><time>2026-04-11T10:18:06.123Z</time></trkpt><trkpt lat="44.3474833" lon="11.868935"><ele>26.0</ele><time>2026-04-11T10:18:07.124Z</time></trkpt><trkpt lat="44.3473783" lon="11.86874"><ele>26.0</ele><time>2026-04-11T10:18:08.122Z</time></trkpt><trkpt lat="44.3472983" lon="11.8685667"><ele>26.0</ele><time>2026-04-11T10:18:09.124Z</time></trkpt><trkpt lat="44.3472433" lon="11.8684133"><ele>26.0</ele><time>2026-04-11T10:18:10.123Z</time></trkpt><trkpt lat="44.3472183" lon="11.868275"><ele>26.0</ele><time>2026-04-11T10:18:11.122Z</time></trkpt><trkpt lat="44.347215" lon="11.86816"><ele>26.0</ele><time>2026-04-11T10:18:12.123Z</time></trkpt><trkpt lat="44.3472117" lon="11.86802"><ele>26.0</ele><time>2026-04-11T10:18:14.124Z</time></trkpt><trkpt lat="44.3471433" lon="11.8679233"><ele>26.0</ele><time>2026-04-11T10:18:21.123Z</time></trkpt><trkpt lat="44.347045" lon="11.8678883"><ele>26.0</ele><time>2026-04-11T10:18:22.124Z</time></trkpt><trkpt lat="44.3469233" lon="11.867855"><ele>25.666666666666664</ele><time>2026-04-11T10:18:23.123Z</time></trkpt><trkpt lat="44.3467583" lon="11.867825"><ele>25.333333333333336</ele><time>2026-04-11T10:18:24.123Z</time></trkpt><trkpt lat="44.3465917" lon="11.8677883"><ele>25.0</ele><time>2026-04-11T10:18:25.123Z</time></trkpt><trkpt lat="44.3464233" lon="11.8677567"><ele>25.666666666666668</ele><time>2026-04-11T10:18:26.123Z</time></trkpt><trkpt lat="44.3462517" lon="11.8677267"><ele>26.333333333333336</ele><time>2026-04-11T10:18:27.123Z</time></trkpt><trkpt lat="44.346075" lon="11.8676933"><ele>27.0</ele><time>2026-04-11T10:18:28.123Z</time></trkpt><trkpt lat="44.3458967" lon="11.867655"><ele>27.0</ele><time>2026-04-11T10:18:29.123Z</time></trkpt><trkpt lat="44.345715" lon="11.8676133"><ele>27.0</ele><time>2026-04-11T10:18:30.124Z</time></trkpt><trkpt lat="44.3455283" lon="11.86757"><ele>27.0</ele><time>2026-04-11T10:18:31.123Z</time></trkpt><trkpt lat="44.345335" lon="11.8675317"><ele>27.333333333333336</ele><time>2026-04-11T10:18:32.122Z</time></trkpt><trkpt lat="44.3451367" lon="11.867495"><ele>27.666666666666668</ele><time>2026-04-11T10:18:33.123Z</time></trkpt><trkpt lat="44.3449367" lon="11.8674533"><ele>28.0</ele><time>2026-04-11T10:18:34.124Z</time></trkpt><trkpt lat="44.3447367" lon="11.867405"><ele>27.666666666666668</ele><time>2026-04-11T10:18:35.123Z</time></trkpt><trkpt lat="44.3445333" lon="11.8673567"><ele>27.333333333333336</ele><time>2026-04-11T10:18:36.124Z</time></trkpt><trkpt lat="44.3443283" lon="11.86731"><ele>27.0</ele><time>2026-04-11T10:18:37.122Z</time></trkpt><trkpt lat="44.34412" lon="11.867265"><ele>27.0</ele><time>2026-04-11T10:18:38.123Z</time></trkpt><trkpt lat="44.3439117" lon="11.8672183"><ele>27.0</ele><time>2026-04-11T10:18:39.122Z</time></trkpt><trkpt lat="44.343705" lon="11.8671717"><ele>27.0</ele><time>2026-04-11T10:18:40.123Z</time></trkpt><trkpt lat="44.3434983" lon="11.867125"><ele>26.666666666666664</ele><time>2026-04-11T10:18:41.122Z</time></trkpt><trkpt lat="44.3432917" lon="11.8670817"><ele>26.333333333333332</ele><time>2026-04-11T10:18:42.124Z</time></trkpt><trkpt lat="44.3430883" lon="11.8670417"><ele>26.0</ele><time>2026-04-11T10:18:43.122Z</time></trkpt><trkpt lat="44.3428867" lon="11.867"><ele>26.0</ele><time>2026-04-11T10:18:44.123Z</time></trkpt><trkpt lat="44.3426867" lon="11.86696"><ele>26.0</ele><time>2026-04-11T10:18:45.124Z</time></trkpt><trkpt lat="44.34249" lon="11.866925"><ele>26.0</ele><time>2026-04-11T10:18:46.123Z</time></trkpt><trkpt lat="44.3422933" lon="11.8668933"><ele>26.0</ele><time>2026-04-11T10:18:47.122Z</time></trkpt><trkpt lat="44.3420967" lon="11.866865"><ele>26.0</ele><time>2026-04-11T10:18:48.123Z</time></trkpt><trkpt lat="44.3418983" lon="11.8668367"><ele>26.0</ele><time>2026-04-11T10:18:49.123Z</time></trkpt><trkpt lat="44.341695" lon="11.8668067"><ele>26.0</ele><time>2026-04-11T10:18:50.123Z</time></trkpt><trkpt lat="44.3414917" lon="11.8667817"><ele>26.0</ele><time>2026-04-11T10:18:51.124Z</time></trkpt><trkpt lat="44.341285" lon="11.8667617"><ele>26.0</ele><time>2026-04-11T10:18:52.123Z</time></trkpt><trkpt lat="44.3410717" lon="11.866745"><ele>26.333333333333332</ele><time>2026-04-11T10:18:53.124Z</time></trkpt><trkpt lat="44.3408583" lon="11.8667267"><ele>26.666666666666664</ele><time>2026-04-11T10:18:54.122Z</time></trkpt><trkpt lat="44.3406467" lon="11.8667067"><ele>27.0</ele><time>2026-04-11T10:18:55.123Z</time></trkpt><trkpt lat="44.3404333" lon="11.8666833"><ele>27.333333333333336</ele><time>2026-04-11T10:18:56.124Z</time></trkpt><trkpt lat="44.340225" lon="11.8666617"><ele>27.666666666666668</ele><time>2026-04-11T10:18:57.123Z</time></trkpt><trkpt lat="44.3400167" lon="11.866645"><ele>28.0</ele><time>2026-04-11T10:18:58.123Z</time></trkpt><trkpt lat="44.3398083" lon="11.86663"><ele>28.333333333333336</ele><time>2026-04-11T10:18:59.123Z</time></trkpt><trkpt lat="44.3395983" lon="11.8666183"><ele>28.666666666666664</ele><time>2026-04-11T10:19:00.123Z</time></trkpt><trkpt lat="44.33939" lon="11.866605"><ele>29.0</ele><time>2026-04-11T10:19:01.123Z</time></trkpt><trkpt lat="44.3391867" lon="11.866585"><ele>29.0</ele><time>2026-04-11T10:19:02.123Z</time></trkpt><trkpt lat="44.3389917" lon="11.866565"><ele>29.0</ele><time>2026-04-11T10:19:03.124Z</time></trkpt><trkpt lat="44.33881" lon="11.8665483"><ele>29.0</ele><time>2026-04-11T10:19:04.123Z</time></trkpt><trkpt lat="44.338635" lon="11.8665333"><ele>28.333333333333332</ele><time>2026-04-11T10:19:05.123Z</time></trkpt><trkpt lat="44.3384617" lon="11.8665183"><ele>27.666666666666664</ele><time>2026-04-11T10:19:06.124Z</time></trkpt><trkpt lat="44.33829" lon="11.8664967"><ele>27.0</ele><time>2026-04-11T10:19:07.122Z</time></trkpt><trkpt lat="44.3381133" lon="11.8664767"><ele>27.0</ele><time>2026-04-11T10:19:08.124Z</time></trkpt><trkpt lat="44.3379333" lon="11.8664583"><ele>27.0</ele><time>2026-04-11T10:19:09.124Z</time></trkpt><trkpt lat="44.3377433" lon="11.86644"><ele>27.0</ele><time>2026-04-11T10:19:10.123Z</time></trkpt><trkpt lat="44.3375483" lon="11.8664217"><ele>27.0</ele><time>2026-04-11T10:19:11.123Z</time></trkpt><trkpt lat="44.33735" lon="11.866405"><ele>27.0</ele><time>2026-04-11T10:19:12.123Z</time></trkpt><trkpt lat="44.337145" lon="11.8663817"><ele>27.0</ele><time>2026-04-11T10:19:13.123Z</time></trkpt><trkpt lat="44.3369383" lon="11.86634"><ele>27.0</ele><time>2026-04-11T10:19:14.122Z</time></trkpt><trkpt lat="44.3367367" lon="11.86627"><ele>27.0</ele><time>2026-04-11T10:19:15.123Z</time></trkpt><trkpt lat="44.3365367" lon="11.8661717"><ele>27.0</ele><time>2026-04-11T10:19:16.123Z</time></trkpt><trkpt lat="44.3363383" lon="11.8660567"><ele>27.333333333333336</ele><time>2026-04-11T10:19:17.123Z</time></trkpt><trkpt lat="44.3361467" lon="11.8659283"><ele>27.666666666666668</ele><time>2026-04-11T10:19:18.123Z</time></trkpt><trkpt lat="44.3359617" lon="11.8657933"><ele>28.0</ele><time>2026-04-11T10:19:19.123Z</time></trkpt><trkpt lat="44.3357783" lon="11.8656533"><ele>28.0</ele><time>2026-04-11T10:19:20.123Z</time></trkpt><trkpt lat="44.3355967" lon="11.86551"><ele>28.0</ele><time>2026-04-11T10:19:21.123Z</time></trkpt><trkpt lat="44.3354117" lon="11.8653683"><ele>28.0</ele><time>2026-04-11T10:19:22.123Z</time></trkpt><trkpt lat="44.3352267" lon="11.865225"><ele>27.666666666666668</ele><time>2026-04-11T10:19:23.123Z</time></trkpt><trkpt lat="44.3350417" lon="11.8650783"><ele>27.333333333333336</ele><time>2026-04-11T10:19:24.123Z</time></trkpt><trkpt lat="44.3348533" lon="11.8649333"><ele>27.0</ele><time>2026-04-11T10:19:25.123Z</time></trkpt><trkpt lat="44.3346633" lon="11.8647867"><ele>27.0</ele><time>2026-04-11T10:19:26.123Z</time></trkpt><trkpt lat="44.33447" lon="11.8646367"><ele>27.0</ele><time>2026-04-11T10:19:27.123Z</time></trkpt><trkpt lat="44.3342733" lon="11.864485"><ele>27.0</ele><time>2026-04-11T10:19:28.122Z</time></trkpt><trkpt lat="44.3340767" lon="11.86433"><ele>27.0</ele><time>2026-04-11T10:19:29.122Z</time></trkpt><trkpt lat="44.3338783" lon="11.864175"><ele>27.0</ele><time>2026-04-11T10:19:30.124Z</time></trkpt><trkpt lat="44.33368" lon="11.8640183"><ele>27.0</ele><time>2026-04-11T10:19:31.123Z</time></trkpt><trkpt lat="44.3334833" lon="11.8638633"><ele>27.0</ele><time>2026-04-11T10:19:32.122Z</time></trkpt><trkpt lat="44.33329" lon="11.86371"><ele>27.0</ele><time>2026-04-11T10:19:33.124Z</time></trkpt><trkpt lat="44.3330933" lon="11.8635567"><ele>27.0</ele><time>2026-04-11T10:19:34.123Z</time></trkpt><trkpt lat="44.3328983" lon="11.8634033"><ele>27.0</ele><time>2026-04-11T10:19:35.122Z</time></trkpt><trkpt lat="44.3327" lon="11.8632483"><ele>27.0</ele><time>2026-04-11T10:19:36.123Z</time></trkpt><trkpt lat="44.3325033" lon="11.863095"><ele>27.0</ele><time>2026-04-11T10:19:37.122Z</time></trkpt><trkpt lat="44.3323033" lon="11.86294"><ele>27.0</ele><time>2026-04-11T10:19:38.122Z</time></trkpt><trkpt lat="44.3321067" lon="11.862785"><ele>27.0</ele><time>2026-04-11T10:19:39.124Z</time></trkpt><trkpt lat="44.3319083" lon="11.86263"><ele>27.0</ele><time>2026-04-11T10:19:40.122Z</time></trkpt><trkpt lat="44.3317117" lon="11.8624733"><ele>27.0</ele><time>2026-04-11T10:19:41.125Z</time></trkpt><trkpt lat="44.331515" lon="11.8623167"><ele>27.5</ele><time>2026-04-11T10:19:42.123Z</time></trkpt><trkpt lat="44.3313183" lon="11.8621583"><ele>28.0</ele><time>2026-04-11T10:19:43.122Z</time></trkpt><trkpt lat="44.33112" lon="11.8620017"><ele>28.0</ele><time>2026-04-11T10:19:44.121Z</time></trkpt><trkpt lat="44.3309217" lon="11.8618433"><ele>28.0</ele><time>2026-04-11T10:19:45.124Z</time></trkpt><trkpt lat="44.33072" lon="11.8616867"><ele>28.666666666666668</ele><time>2026-04-11T10:19:46.123Z</time></trkpt><trkpt lat="44.3305267" lon="11.8615367"><ele>29.333333333333336</ele><time>2026-04-11T10:19:47.123Z</time></trkpt><trkpt lat="44.330345" lon="11.8613967"><ele>30.0</ele><time>2026-04-11T10:19:48.125Z</time></trkpt><trkpt lat="44.3301767" lon="11.861265"><ele>30.0</ele><time>2026-04-11T10:19:49.123Z</time></trkpt><trkpt lat="44.3300133" lon="11.8611433"><ele>30.0</ele><time>2026-04-11T10:19:50.123Z</time></trkpt><trkpt lat="44.3298567" lon="11.861025"><ele>30.0</ele><time>2026-04-11T10:19:51.123Z</time></trkpt><trkpt lat="44.3297033" lon="11.86091"><ele>29.666666666666664</ele><time>2026-04-11T10:19:52.124Z</time></trkpt><trkpt lat="44.32955" lon="11.8607933"><ele>29.333333333333332</ele><time>2026-04-11T10:19:53.123Z</time></trkpt><trkpt lat="44.32939" lon="11.8606767"><ele>29.0</ele><time>2026-04-11T10:19:54.123Z</time></trkpt><trkpt lat="44.32923" lon="11.8605533"><ele>29.0</ele><time>2026-04-11T10:19:55.122Z</time></trkpt><trkpt lat="44.3290683" lon="11.860435"><ele>29.0</ele><time>2026-04-11T10:19:56.122Z</time></trkpt><trkpt lat="44.32891" lon="11.8603167"><ele>29.0</ele><time>2026-04-11T10:19:57.123Z</time></trkpt><trkpt lat="44.3287567" lon="11.8602033"><ele>29.0</ele><time>2026-04-11T10:19:58.123Z</time></trkpt><trkpt lat="44.3286083" lon="11.860095"><ele>29.0</ele><time>2026-04-11T10:19:59.123Z</time></trkpt><trkpt lat="44.32846" lon="11.8599817"><ele>29.0</ele><time>2026-04-11T10:20:00.123Z</time></trkpt><trkpt lat="44.3283083" lon="11.8598683"><ele>29.0</ele><time>2026-04-11T10:20:01.123Z</time></trkpt><trkpt lat="44.3281533" lon="11.859755"><ele>29.0</ele><time>2026-04-11T10:20:02.122Z</time></trkpt><trkpt lat="44.327995" lon="11.8596383"><ele>29.0</ele><time>2026-04-11T10:20:03.123Z</time></trkpt><trkpt lat="44.3278317" lon="11.859515"><ele>29.0</ele><time>2026-04-11T10:20:04.123Z</time></trkpt><trkpt lat="44.32766" lon="11.8593883"><ele>29.0</ele><time>2026-04-11T10:20:05.122Z</time></trkpt><trkpt lat="44.32748" lon="11.8592617"><ele>29.0</ele><time>2026-04-11T10:20:06.123Z</time></trkpt><trkpt lat="44.32729" lon="11.85914"><ele>29.0</ele><time>2026-04-11T10:20:07.121Z</time></trkpt><trkpt lat="44.3271" lon="11.8590117"><ele>29.0</ele><time>2026-04-11T10:20:08.123Z</time></trkpt><trkpt lat="44.3269233" lon="11.8588733"><ele>29.0</ele><time>2026-04-11T10:20:09.123Z</time></trkpt><trkpt lat="44.32675" lon="11.8587333"><ele>29.0</ele><time>2026-04-11T10:20:10.124Z</time></trkpt><trkpt lat="44.3265767" lon="11.8585983"><ele>29.0</ele><time>2026-04-11T10:20:11.123Z</time></trkpt><trkpt lat="44.3264" lon="11.858465"><ele>29.0</ele><time>2026-04-11T10:20:12.123Z</time></trkpt><trkpt lat="44.3262233" lon="11.8583333"><ele>29.666666666666664</ele><time>2026-04-11T10:20:13.122Z</time></trkpt><trkpt lat="44.326045" lon="11.8581983"><ele>30.333333333333336</ele><time>2026-04-11T10:20:14.123Z</time></trkpt><trkpt lat="44.325865" lon="11.8580633"><ele>31.0</ele><time>2026-04-11T10:20:15.123Z</time></trkpt><trkpt lat="44.325685" lon="11.8579283"><ele>30.666666666666668</ele><time>2026-04-11T10:20:16.123Z</time></trkpt><trkpt lat="44.325505" lon="11.857795"><ele>30.333333333333336</ele><time>2026-04-11T10:20:17.123Z</time></trkpt><trkpt lat="44.3253267" lon="11.8576633"><ele>30.0</ele><time>2026-04-11T10:20:18.123Z</time></trkpt><trkpt lat="44.3251483" lon="11.85753"><ele>29.666666666666664</ele><time>2026-04-11T10:20:19.124Z</time></trkpt><trkpt lat="44.3249667" lon="11.857395"><ele>29.333333333333332</ele><time>2026-04-11T10:20:20.123Z</time></trkpt><trkpt lat="44.3247817" lon="11.8572583"><ele>29.0</ele><time>2026-04-11T10:20:21.123Z</time></trkpt><trkpt lat="44.3245933" lon="11.85712"><ele>29.333333333333332</ele><time>2026-04-11T10:20:22.124Z</time></trkpt><trkpt lat="44.3244033" lon="11.85698"><ele>29.666666666666664</ele><time>2026-04-11T10:20:23.124Z</time></trkpt><trkpt lat="44.3242167" lon="11.8568367"><ele>30.0</ele><time>2026-04-11T10:20:24.124Z</time></trkpt><trkpt lat="44.32403" lon="11.8566933"><ele>30.0</ele><time>2026-04-11T10:20:25.124Z</time></trkpt><trkpt lat="44.3238417" lon="11.8565483"><ele>30.0</ele><time>2026-04-11T10:20:26.124Z</time></trkpt><trkpt lat="44.3236517" lon="11.8564083"><ele>30.0</ele><time>2026-04-11T10:20:27.124Z</time></trkpt><trkpt lat="44.3234617" lon="11.85627"><ele>30.0</ele><time>2026-04-11T10:20:28.124Z</time></trkpt><trkpt lat="44.323275" lon="11.85613"><ele>30.0</ele><time>2026-04-11T10:20:29.124Z</time></trkpt><trkpt lat="44.323085" lon="11.8559883"><ele>30.0</ele><time>2026-04-11T10:20:30.124Z</time></trkpt><trkpt lat="44.3228933" lon="11.8558483"><ele>29.666666666666664</ele><time>2026-04-11T10:20:31.125Z</time></trkpt><trkpt lat="44.3227017" lon="11.855705"><ele>29.333333333333332</ele><time>2026-04-11T10:20:32.124Z</time></trkpt><trkpt lat="44.3225083" lon="11.8555583"><ele>29.0</ele><time>2026-04-11T10:20:33.124Z</time></trkpt><trkpt lat="44.322315" lon="11.8554117"><ele>28.666666666666664</ele><time>2026-04-11T10:20:34.124Z</time></trkpt><trkpt lat="44.3221217" lon="11.8552633"><ele>28.333333333333336</ele><time>2026-04-11T10:20:35.124Z</time></trkpt><trkpt lat="44.32193" lon="11.85511"><ele>28.0</ele><time>2026-04-11T10:20:36.123Z</time></trkpt><trkpt lat="44.321735" lon="11.8549583"><ele>28.333333333333336</ele><time>2026-04-11T10:20:37.124Z</time></trkpt><trkpt lat="44.3215433" lon="11.8548067"><ele>28.666666666666664</ele><time>2026-04-11T10:20:38.124Z</time></trkpt><trkpt lat="44.321355" lon="11.8546617"><ele>29.0</ele><time>2026-04-11T10:20:39.124Z</time></trkpt><trkpt lat="44.3211717" lon="11.8545217"><ele>29.0</ele><time>2026-04-11T10:20:40.124Z</time></trkpt><trkpt lat="44.3209983" lon="11.8543833"><ele>29.0</ele><time>2026-04-11T10:20:41.123Z</time></trkpt><trkpt lat="44.3208267" lon="11.85425"><ele>29.0</ele><time>2026-04-11T10:20:42.124Z</time></trkpt><trkpt lat="44.3206567" lon="11.8541167"><ele>29.333333333333332</ele><time>2026-04-11T10:20:43.124Z</time></trkpt><trkpt lat="44.320485" lon="11.85398"><ele>29.666666666666664</ele><time>2026-04-11T10:20:44.124Z</time></trkpt><trkpt lat="44.32031" lon="11.8538467"><ele>30.0</ele><time>2026-04-11T10:20:45.124Z</time></trkpt><trkpt lat="44.3201367" lon="11.85371"><ele>30.0</ele><time>2026-04-11T10:20:46.124Z</time></trkpt><trkpt lat="44.3199633" lon="11.8535733"><ele>30.0</ele><time>2026-04-11T10:20:47.124Z</time></trkpt><trkpt lat="44.3197883" lon="11.8534333"><ele>30.0</ele><time>2026-04-11T10:20:48.124Z</time></trkpt><trkpt lat="44.3196117" lon="11.853295"><ele>30.0</ele><time>2026-04-11T10:20:49.123Z</time></trkpt><trkpt lat="44.319435" lon="11.8531567"><ele>30.0</ele><time>2026-04-11T10:20:50.124Z</time></trkpt><trkpt lat="44.3192567" lon="11.8530183"><ele>30.0</ele><time>2026-04-11T10:20:51.123Z</time></trkpt><trkpt lat="44.3190767" lon="11.85288"><ele>30.333333333333336</ele><time>2026-04-11T10:20:52.124Z</time></trkpt><trkpt lat="44.318895" lon="11.8527417"><ele>30.666666666666668</ele><time>2026-04-11T10:20:53.124Z</time></trkpt><trkpt lat="44.318715" lon="11.8526017"><ele>31.0</ele><time>2026-04-11T10:20:54.125Z</time></trkpt><trkpt lat="44.3185333" lon="11.8524617"><ele>30.333333333333336</ele><time>2026-04-11T10:20:55.124Z</time></trkpt><trkpt lat="44.318355" lon="11.8523183"><ele>29.666666666666664</ele><time>2026-04-11T10:20:56.124Z</time></trkpt><trkpt lat="44.3181783" lon="11.8521817"><ele>29.0</ele><time>2026-04-11T10:20:57.124Z</time></trkpt><trkpt lat="44.3179967" lon="11.852045"><ele>29.0</ele><time>2026-04-11T10:20:58.124Z</time></trkpt><trkpt lat="44.317815" lon="11.8519033"><ele>29.0</ele><time>2026-04-11T10:20:59.124Z</time></trkpt><trkpt lat="44.3176317" lon="11.8517583"><ele>29.0</ele><time>2026-04-11T10:21:00.124Z</time></trkpt><trkpt lat="44.3174483" lon="11.8516133"><ele>29.0</ele><time>2026-04-11T10:21:01.124Z</time></trkpt><trkpt lat="44.3172617" lon="11.8514667"><ele>29.0</ele><time>2026-04-11T10:21:02.123Z</time></trkpt><trkpt lat="44.3170717" lon="11.85132"><ele>29.0</ele><time>2026-04-11T10:21:03.124Z</time></trkpt><trkpt lat="44.3168817" lon="11.85117"><ele>29.0</ele><time>2026-04-11T10:21:04.123Z</time></trkpt><trkpt lat="44.3166917" lon="11.85102"><ele>29.0</ele><time>2026-04-11T10:21:05.124Z</time></trkpt><trkpt lat="44.3165" lon="11.85087"><ele>29.0</ele><time>2026-04-11T10:21:06.124Z</time></trkpt><trkpt lat="44.31631" lon="11.850725"><ele>29.333333333333332</ele><time>2026-04-11T10:21:07.125Z</time></trkpt><trkpt lat="44.3161217" lon="11.85058"><ele>29.666666666666664</ele><time>2026-04-11T10:21:08.123Z</time></trkpt><trkpt lat="44.3159383" lon="11.8504333"><ele>30.0</ele><time>2026-04-11T10:21:09.123Z</time></trkpt><trkpt lat="44.315755" lon="11.8502867"><ele>30.0</ele><time>2026-04-11T10:21:10.124Z</time></trkpt><trkpt lat="44.315575" lon="11.85014"><ele>30.0</ele><time>2026-04-11T10:21:11.123Z</time></trkpt><trkpt lat="44.3153867" lon="11.84999"><ele>30.0</ele><time>2026-04-11T10:21:12.124Z</time></trkpt><trkpt lat="44.3151933" lon="11.8498367"><ele>30.0</ele><time>2026-04-11T10:21:13.124Z</time></trkpt><trkpt lat="44.3149983" lon="11.849685"><ele>30.0</ele><time>2026-04-11T10:21:14.125Z</time></trkpt><trkpt lat="44.3148017" lon="11.8495317"><ele>30.0</ele><time>2026-04-11T10:21:15.124Z</time></trkpt><trkpt lat="44.3146033" lon="11.849375"><ele>30.5</ele><time>2026-04-11T10:21:16.124Z</time></trkpt><trkpt lat="44.3144017" lon="11.84922"><ele>31.0</ele><time>2026-04-11T10:21:17.125Z</time></trkpt><trkpt lat="44.3142033" lon="11.8490683"><ele>31.0</ele><time>2026-04-11T10:21:18.124Z</time></trkpt><trkpt lat="44.314005" lon="11.848915"><ele>31.0</ele><time>2026-04-11T10:21:19.123Z</time></trkpt><trkpt lat="44.3138117" lon="11.8487633"><ele>31.0</ele><time>2026-04-11T10:21:20.124Z</time></trkpt><trkpt lat="44.31362" lon="11.8486183"><ele>31.0</ele><time>2026-04-11T10:21:21.125Z</time></trkpt><trkpt lat="44.3134267" lon="11.8484717"><ele>31.0</ele><time>2026-04-11T10:21:22.124Z</time></trkpt><trkpt lat="44.3132333" lon="11.84832"><ele>31.0</ele><time>2026-04-11T10:21:23.127Z</time></trkpt><trkpt lat="44.31304" lon="11.8481667"><ele>31.0</ele><time>2026-04-11T10:21:24.124Z</time></trkpt><trkpt lat="44.3128433" lon="11.8480117"><ele>31.0</ele><time>2026-04-11T10:21:25.123Z</time></trkpt><trkpt lat="44.3126483" lon="11.8478567"><ele>31.0</ele><time>2026-04-11T10:21:26.123Z</time></trkpt><trkpt lat="44.312455" lon="11.847705"><ele>31.0</ele><time>2026-04-11T10:21:27.125Z</time></trkpt><trkpt lat="44.3122633" lon="11.8475583"><ele>31.0</ele><time>2026-04-11T10:21:28.123Z</time></trkpt><trkpt lat="44.3120817" lon="11.84742"><ele>30.666666666666668</ele><time>2026-04-11T10:21:29.124Z</time></trkpt><trkpt lat="44.3119083" lon="11.8472867"><ele>30.333333333333336</ele><time>2026-04-11T10:21:30.124Z</time></trkpt><trkpt lat="44.311735" lon="11.8471567"><ele>30.0</ele><time>2026-04-11T10:21:31.124Z</time></trkpt><trkpt lat="44.311565" lon="11.847025"><ele>30.0</ele><time>2026-04-11T10:21:32.124Z</time></trkpt><trkpt lat="44.3113967" lon="11.84688"><ele>30.0</ele><time>2026-04-11T10:21:33.124Z</time></trkpt><trkpt lat="44.3112383" lon="11.84672"><ele>30.0</ele><time>2026-04-11T10:21:34.125Z</time></trkpt><trkpt lat="44.3110867" lon="11.846545"><ele>30.0</ele><time>2026-04-11T10:21:35.124Z</time></trkpt><trkpt lat="44.3109433" lon="11.846355"><ele>30.0</ele><time>2026-04-11T10:21:36.124Z</time></trkpt><trkpt lat="44.31081" lon="11.8461467"><ele>30.0</ele><time>2026-04-11T10:21:37.124Z</time></trkpt><trkpt lat="44.3106917" lon="11.8459167"><ele>30.0</ele><time>2026-04-11T10:21:38.124Z</time></trkpt><trkpt lat="44.31058" lon="11.84568"><ele>30.0</ele><time>2026-04-11T10:21:39.124Z</time></trkpt><trkpt lat="44.3104683" lon="11.84544"><ele>30.0</ele><time>2026-04-11T10:21:40.124Z</time></trkpt><trkpt lat="44.31035" lon="11.8452067"><ele>30.0</ele><time>2026-04-11T10:21:41.124Z</time></trkpt><trkpt lat="44.310225" lon="11.84498"><ele>30.0</ele><time>2026-04-11T10:21:42.124Z</time></trkpt><trkpt lat="44.3100933" lon="11.8447633"><ele>30.0</ele><time>2026-04-11T10:21:43.122Z</time></trkpt><trkpt lat="44.3099517" lon="11.844565"><ele>30.0</ele><time>2026-04-11T10:21:44.124Z</time></trkpt><trkpt lat="44.3097967" lon="11.8443833"><ele>30.0</ele><time>2026-04-11T10:21:45.124Z</time></trkpt><trkpt lat="44.3096283" lon="11.84422"><ele>30.0</ele><time>2026-04-11T10:21:46.125Z</time></trkpt><trkpt lat="44.3094483" lon="11.84407"><ele>30.333333333333336</ele><time>2026-04-11T10:21:47.123Z</time></trkpt><trkpt lat="44.3092633" lon="11.843925"><ele>30.666666666666668</ele><time>2026-04-11T10:21:48.124Z</time></trkpt><trkpt lat="44.309075" lon="11.84378"><ele>31.0</ele><time>2026-04-11T10:21:49.123Z</time></trkpt><trkpt lat="44.3088867" lon="11.84363"><ele>31.0</ele><time>2026-04-11T10:21:50.124Z</time></trkpt><trkpt lat="44.3086983" lon="11.8434817"><ele>31.0</ele><time>2026-04-11T10:21:51.124Z</time></trkpt><trkpt lat="44.308525" lon="11.84335"><ele>31.0</ele><time>2026-04-11T10:21:52.124Z</time></trkpt><trkpt lat="44.3083683" lon="11.843245"><ele>31.0</ele><time>2026-04-11T10:21:53.124Z</time></trkpt><trkpt lat="44.3082083" lon="11.8431583"><ele>31.0</ele><time>2026-04-11T10:21:54.124Z</time></trkpt><trkpt lat="44.3080367" lon="11.8430917"><ele>31.0</ele><time>2026-04-11T10:21:55.124Z</time></trkpt><trkpt lat="44.30786" lon="11.8430433"><ele>32.0</ele><time>2026-04-11T10:21:56.124Z</time></trkpt><trkpt lat="44.3076767" lon="11.8430083"><ele>33.0</ele><time>2026-04-11T10:21:57.123Z</time></trkpt><trkpt lat="44.3074833" lon="11.8429883"><ele>34.0</ele><time>2026-04-11T10:21:58.124Z</time></trkpt><trkpt lat="44.3072817" lon="11.84298"><ele>33.66666666666667</ele><time>2026-04-11T10:21:59.124Z</time></trkpt><trkpt lat="44.307075" lon="11.8429733"><ele>33.333333333333336</ele><time>2026-04-11T10:22:00.124Z</time></trkpt><trkpt lat="44.30687" lon="11.8429617"><ele>33.0</ele><time>2026-04-11T10:22:01.123Z</time></trkpt><trkpt lat="44.306675" lon="11.8429383"><ele>33.0</ele><time>2026-04-11T10:22:02.124Z</time></trkpt><trkpt lat="44.3064967" lon="11.8429"><ele>33.0</ele><time>2026-04-11T10:22:03.125Z</time></trkpt><trkpt lat="44.3063233" lon="11.842845"><ele>33.0</ele><time>2026-04-11T10:22:04.124Z</time></trkpt><trkpt lat="44.3061567" lon="11.842765"><ele>33.333333333333336</ele><time>2026-04-11T10:22:05.124Z</time></trkpt><trkpt lat="44.3059883" lon="11.842665"><ele>33.66666666666667</ele><time>2026-04-11T10:22:06.124Z</time></trkpt><trkpt lat="44.3058217" lon="11.84255"><ele>34.0</ele><time>2026-04-11T10:22:07.124Z</time></trkpt><trkpt lat="44.3056517" lon="11.8424217"><ele>34.333333333333336</ele><time>2026-04-11T10:22:08.124Z</time></trkpt><trkpt lat="44.3054783" lon="11.84229"><ele>34.666666666666664</ele><time>2026-04-11T10:22:09.124Z</time></trkpt><trkpt lat="44.3053" lon="11.8421533"><ele>35.0</ele><time>2026-04-11T10:22:10.123Z</time></trkpt><trkpt lat="44.3051217" lon="11.8420133"><ele>35.0</ele><time>2026-04-11T10:22:11.124Z</time></trkpt><trkpt lat="44.3049433" lon="11.8418717"><ele>35.0</ele><time>2026-04-11T10:22:12.124Z</time></trkpt><trkpt lat="44.3047667" lon="11.84173"><ele>35.0</ele><time>2026-04-11T10:22:13.125Z</time></trkpt><trkpt lat="44.3045933" lon="11.841595"><ele>35.33333333333333</ele><time>2026-04-11T10:22:14.124Z</time></trkpt><trkpt lat="44.30443" lon="11.84147"><ele>35.666666666666664</ele><time>2026-04-11T10:22:15.124Z</time></trkpt><trkpt lat="44.304275" lon="11.84135"><ele>36.0</ele><time>2026-04-11T10:22:16.124Z</time></trkpt><trkpt lat="44.3041283" lon="11.8412333"><ele>36.0</ele><time>2026-04-11T10:22:17.124Z</time></trkpt><trkpt lat="44.30399" lon="11.8411233"><ele>36.0</ele><time>2026-04-11T10:22:18.123Z</time></trkpt><trkpt lat="44.30386" lon="11.8410167"><ele>36.0</ele><time>2026-04-11T10:22:19.124Z</time></trkpt><trkpt lat="44.3037383" lon="11.840915"><ele>36.0</ele><time>2026-04-11T10:22:20.124Z</time></trkpt><trkpt lat="44.30363" lon="11.840815"><ele>36.0</ele><time>2026-04-11T10:22:21.124Z</time></trkpt><trkpt lat="44.3035417" lon="11.84071"><ele>36.0</ele><time>2026-04-11T10:22:22.124Z</time></trkpt><trkpt lat="44.3034733" lon="11.840595"><ele>36.0</ele><time>2026-04-11T10:22:23.124Z</time></trkpt><trkpt lat="44.30342" lon="11.8404767"><ele>36.0</ele><time>2026-04-11T10:22:24.123Z</time></trkpt><trkpt lat="44.30338" lon="11.8403517"><ele>36.0</ele><time>2026-04-11T10:22:25.124Z</time></trkpt><trkpt lat="44.303355" lon="11.8402183"><ele>36.0</ele><time>2026-04-11T10:22:26.124Z</time></trkpt><trkpt lat="44.3033567" lon="11.840065"><ele>36.0</ele><time>2026-04-11T10:22:27.124Z</time></trkpt><trkpt lat="44.303395" lon="11.839895"><ele>36.0</ele><time>2026-04-11T10:22:28.123Z</time></trkpt><trkpt lat="44.3034583" lon="11.8397033"><ele>36.333333333333336</ele><time>2026-04-11T10:22:29.123Z</time></trkpt><trkpt lat="44.3035433" lon="11.8394883"><ele>36.66666666666667</ele><time>2026-04-11T10:22:30.123Z</time></trkpt><trkpt lat="44.3036283" lon="11.8392733"><ele>37.0</ele><time>2026-04-11T10:22:31.125Z</time></trkpt><trkpt lat="44.30372" lon="11.83905"><ele>37.0</ele><time>2026-04-11T10:22:32.123Z</time></trkpt><trkpt lat="44.30381" lon="11.8388283"><ele>37.0</ele><time>2026-04-11T10:22:33.124Z</time></trkpt><trkpt lat="44.3038983" lon="11.8386167"><ele>37.0</ele><time>2026-04-11T10:22:34.123Z</time></trkpt><trkpt lat="44.3039833" lon="11.83841"><ele>36.66666666666667</ele><time>2026-04-11T10:22:35.124Z</time></trkpt><trkpt lat="44.3040683" lon="11.838205"><ele>36.333333333333336</ele><time>2026-04-11T10:22:36.124Z</time></trkpt><trkpt lat="44.304155" lon="11.837995"><ele>36.0</ele><time>2026-04-11T10:22:37.124Z</time></trkpt><trkpt lat="44.3042417" lon="11.8377783"><ele>35.666666666666664</ele><time>2026-04-11T10:22:38.124Z</time></trkpt><trkpt lat="44.3043283" lon="11.8375583"><ele>35.33333333333333</ele><time>2026-04-11T10:22:39.124Z</time></trkpt><trkpt lat="44.3044183" lon="11.8373317"><ele>35.0</ele><time>2026-04-11T10:22:40.123Z</time></trkpt><trkpt lat="44.3045117" lon="11.8371033"><ele>35.0</ele><time>2026-04-11T10:22:41.125Z</time></trkpt><trkpt lat="44.3046083" lon="11.83687"><ele>35.0</ele><time>2026-04-11T10:22:42.123Z</time></trkpt><trkpt lat="44.3047067" lon="11.8366367"><ele>35.0</ele><time>2026-04-11T10:22:43.123Z</time></trkpt><trkpt lat="44.3048033" lon="11.8363967"><ele>34.666666666666664</ele><time>2026-04-11T10:22:44.124Z</time></trkpt><trkpt lat="44.3049" lon="11.836155"><ele>34.333333333333336</ele><time>2026-04-11T10:22:45.124Z</time></trkpt><trkpt lat="44.3049967" lon="11.8359117"><ele>34.0</ele><time>2026-04-11T10:22:46.124Z</time></trkpt><trkpt lat="44.305095" lon="11.8356683"><ele>34.66666666666667</ele><time>2026-04-11T10:22:47.123Z</time></trkpt><trkpt lat="44.3051967" lon="11.8354233"><ele>35.333333333333336</ele><time>2026-04-11T10:22:48.124Z</time></trkpt><trkpt lat="44.3052967" lon="11.83518"><ele>36.0</ele><time>2026-04-11T10:22:49.124Z</time></trkpt><trkpt lat="44.3053967" lon="11.8349367"><ele>36.0</ele><time>2026-04-11T10:22:50.124Z</time></trkpt><trkpt lat="44.3054967" lon="11.8346917"><ele>36.0</ele><time>2026-04-11T10:22:51.124Z</time></trkpt><trkpt lat="44.3055967" lon="11.83445"><ele>36.0</ele><time>2026-04-11T10:22:52.124Z</time></trkpt><trkpt lat="44.3056967" lon="11.834205"><ele>36.0</ele><time>2026-04-11T10:22:53.124Z</time></trkpt><trkpt lat="44.3057967" lon="11.8339583"><ele>36.0</ele><time>2026-04-11T10:22:54.125Z</time></trkpt><trkpt lat="44.3058967" lon="11.8337117"><ele>36.0</ele><time>2026-04-11T10:22:55.124Z</time></trkpt><trkpt lat="44.305995" lon="11.833465"><ele>36.333333333333336</ele><time>2026-04-11T10:22:56.124Z</time></trkpt><trkpt lat="44.3060933" lon="11.8332183"><ele>36.66666666666667</ele><time>2026-04-11T10:22:57.124Z</time></trkpt><trkpt lat="44.3061917" lon="11.83297"><ele>37.0</ele><time>2026-04-11T10:22:58.124Z</time></trkpt><trkpt lat="44.3062883" lon="11.83272"><ele>36.66666666666667</ele><time>2026-04-11T10:22:59.123Z</time></trkpt><trkpt lat="44.3063883" lon="11.8324717"><ele>36.333333333333336</ele><time>2026-04-11T10:23:00.123Z</time></trkpt><trkpt lat="44.3064917" lon="11.8322217"><ele>36.0</ele><time>2026-04-11T10:23:01.123Z</time></trkpt><trkpt lat="44.3065917" lon="11.83197"><ele>36.0</ele><time>2026-04-11T10:23:02.124Z</time></trkpt><trkpt lat="44.3066917" lon="11.8317183"><ele>36.0</ele><time>2026-04-11T10:23:03.124Z</time></trkpt><trkpt lat="44.3067917" lon="11.8314683"><ele>36.0</ele><time>2026-04-11T10:23:04.124Z</time></trkpt><trkpt lat="44.3068933" lon="11.83122"><ele>35.666666666666664</ele><time>2026-04-11T10:23:05.124Z</time></trkpt><trkpt lat="44.3069967" lon="11.8309717"><ele>35.33333333333333</ele><time>2026-04-11T10:23:06.124Z</time></trkpt><trkpt lat="44.3070967" lon="11.8307267"><ele>35.0</ele><time>2026-04-11T10:23:07.123Z</time></trkpt><trkpt lat="44.307195" lon="11.8304833"><ele>35.33333333333333</ele><time>2026-04-11T10:23:08.123Z</time></trkpt><trkpt lat="44.307295" lon="11.83024"><ele>35.666666666666664</ele><time>2026-04-11T10:23:09.124Z</time></trkpt><trkpt lat="44.3073933" lon="11.8300017"><ele>36.0</ele><time>2026-04-11T10:23:10.123Z</time></trkpt><trkpt lat="44.3074917" lon="11.8297617"><ele>36.0</ele><time>2026-04-11T10:23:11.123Z</time></trkpt><trkpt lat="44.3075883" lon="11.82952"><ele>36.0</ele><time>2026-04-11T10:23:12.125Z</time></trkpt><trkpt lat="44.3076833" lon="11.829275"><ele>36.0</ele><time>2026-04-11T10:23:13.124Z</time></trkpt><trkpt lat="44.3077833" lon="11.8290367"><ele>36.0</ele><time>2026-04-11T10:23:14.124Z</time></trkpt><trkpt lat="44.307885" lon="11.8287983"><ele>36.0</ele><time>2026-04-11T10:23:15.124Z</time></trkpt><trkpt lat="44.3079883" lon="11.8285583"><ele>36.0</ele><time>2026-04-11T10:23:16.123Z</time></trkpt><trkpt lat="44.3080967" lon="11.8283217"><ele>36.0</ele><time>2026-04-11T10:23:17.124Z</time></trkpt><trkpt lat="44.3082067" lon="11.8280867"><ele>36.0</ele><time>2026-04-11T10:23:18.124Z</time></trkpt><trkpt lat="44.3083217" lon="11.82785"><ele>36.0</ele><time>2026-04-11T10:23:19.124Z</time></trkpt><trkpt lat="44.3084367" lon="11.8276167"><ele>36.0</ele><time>2026-04-11T10:23:20.124Z</time></trkpt><trkpt lat="44.3085483" lon="11.8273933"><ele>36.0</ele><time>2026-04-11T10:23:21.124Z</time></trkpt><trkpt lat="44.3086533" lon="11.8271783"><ele>36.0</ele><time>2026-04-11T10:23:22.124Z</time></trkpt><trkpt lat="44.308755" lon="11.8269767"><ele>36.666666666666664</ele><time>2026-04-11T10:23:23.124Z</time></trkpt><trkpt lat="44.3088533" lon="11.8267867"><ele>37.33333333333333</ele><time>2026-04-11T10:23:24.125Z</time></trkpt><trkpt lat="44.30895" lon="11.8266083"><ele>38.0</ele><time>2026-04-11T10:23:25.124Z</time></trkpt><trkpt lat="44.3090483" lon="11.8264383"><ele>38.0</ele><time>2026-04-11T10:23:26.123Z</time></trkpt><trkpt lat="44.3091433" lon="11.826275"><ele>38.0</ele><time>2026-04-11T10:23:27.124Z</time></trkpt><trkpt lat="44.3092267" lon="11.82613"><ele>38.0</ele><time>2026-04-11T10:23:28.123Z</time></trkpt><trkpt lat="44.3092967" lon="11.8260083"><ele>38.0</ele><time>2026-04-11T10:23:29.122Z</time></trkpt><trkpt lat="44.309345" lon="11.8259183"><ele>38.199999999999996</ele><time>2026-04-11T10:23:30.124Z</time></trkpt><trkpt lat="44.3093833" lon="11.8258433"><ele>38.4</ele><time>2026-04-11T10:23:31.124Z</time></trkpt><trkpt lat="44.30941" lon="11.82572"><ele>38.599999999999994</ele><time>2026-04-11T10:23:33.124Z</time></trkpt><trkpt lat="44.3093467" lon="11.82561"><ele>38.8</ele><time>2026-04-11T10:23:35.124Z</time></trkpt><trkpt lat="44.3092733" lon="11.8255367"><ele>39.0</ele><time>2026-04-11T10:23:36.124Z</time></trkpt><trkpt lat="44.30917" lon="11.8254483"><ele>39.0</ele><time>2026-04-11T10:23:37.123Z</time></trkpt><trkpt lat="44.3090683" lon="11.825355"><ele>39.0</ele><time>2026-04-11T10:23:38.124Z</time></trkpt><trkpt lat="44.308965" lon="11.8252583"><ele>39.0</ele><time>2026-04-11T10:23:39.124Z</time></trkpt><trkpt lat="44.3088633" lon="11.8251583"><ele>39.0</ele><time>2026-04-11T10:23:40.123Z</time></trkpt><trkpt lat="44.3087683" lon="11.8250617"><ele>39.2</ele><time>2026-04-11T10:23:41.124Z</time></trkpt><trkpt lat="44.308675" lon="11.8249533"><ele>39.4</ele><time>2026-04-11T10:23:42.124Z</time></trkpt><trkpt lat="44.3085933" lon="11.8248433"><ele>39.6</ele><time>2026-04-11T10:23:43.124Z</time></trkpt><trkpt lat="44.3085367" lon="11.8247267"><ele>39.8</ele><time>2026-04-11T10:23:44.123Z</time></trkpt><trkpt lat="44.308515" lon="11.8245917"><ele>40.0</ele><time>2026-04-11T10:23:45.126Z</time></trkpt><trkpt lat="44.3085133" lon="11.8244433"><ele>40.0</ele><time>2026-04-11T10:23:46.124Z</time></trkpt><trkpt lat="44.3085083" lon="11.824285"><ele>40.0</ele><time>2026-04-11T10:23:47.123Z</time></trkpt><trkpt lat="44.3084883" lon="11.82412"><ele>40.0</ele><time>2026-04-11T10:23:48.124Z</time></trkpt><trkpt lat="44.3084333" lon="11.823965"><ele>40.0</ele><time>2026-04-11T10:23:49.123Z</time></trkpt><trkpt lat="44.3083467" lon="11.8238183"><ele>40.0</ele><time>2026-04-11T10:23:50.125Z</time></trkpt><trkpt lat="44.3082383" lon="11.8236767"><ele>40.0</ele><time>2026-04-11T10:23:51.125Z</time></trkpt><trkpt lat="44.308125" lon="11.823535"><ele>40.0</ele><time>2026-04-11T10:23:52.124Z</time></trkpt><trkpt lat="44.3080067" lon="11.8233867"><ele>39.333333333333336</ele><time>2026-04-11T10:23:53.123Z</time></trkpt><trkpt lat="44.3078917" lon="11.823235"><ele>38.666666666666664</ele><time>2026-04-11T10:23:54.126Z</time></trkpt><trkpt lat="44.3077767" lon="11.8230817"><ele>38.0</ele><time>2026-04-11T10:23:55.125Z</time></trkpt><trkpt lat="44.307665" lon="11.8229267"><ele>38.0</ele><time>2026-04-11T10:23:56.124Z</time></trkpt><trkpt lat="44.3075567" lon="11.8227683"><ele>38.0</ele><time>2026-04-11T10:23:57.124Z</time></trkpt><trkpt lat="44.307455" lon="11.8226017"><ele>38.0</ele><time>2026-04-11T10:23:58.123Z</time></trkpt><trkpt lat="44.30736" lon="11.82243"><ele>38.0</ele><time>2026-04-11T10:23:59.123Z</time></trkpt><trkpt lat="44.307275" lon="11.8222483"><ele>38.0</ele><time>2026-04-11T10:24:00.124Z</time></trkpt><trkpt lat="44.3071933" lon="11.822065"><ele>38.0</ele><time>2026-04-11T10:24:01.124Z</time></trkpt><trkpt lat="44.3071033" lon="11.8218833"><ele>38.0</ele><time>2026-04-11T10:24:02.124Z</time></trkpt><trkpt lat="44.3070067" lon="11.821705"><ele>38.0</ele><time>2026-04-11T10:24:03.124Z</time></trkpt><trkpt lat="44.3069117" lon="11.8215267"><ele>38.0</ele><time>2026-04-11T10:24:04.124Z</time></trkpt><trkpt lat="44.3068283" lon="11.8213467"><ele>38.0</ele><time>2026-04-11T10:24:05.124Z</time></trkpt><trkpt lat="44.3067517" lon="11.8211767"><ele>38.0</ele><time>2026-04-11T10:24:06.124Z</time></trkpt><trkpt lat="44.3066667" lon="11.821025"><ele>38.0</ele><time>2026-04-11T10:24:07.123Z</time></trkpt><trkpt lat="44.3065583" lon="11.8209017"><ele>38.0</ele><time>2026-04-11T10:24:08.123Z</time></trkpt><trkpt lat="44.30643" lon="11.8208117"><ele>38.0</ele><time>2026-04-11T10:24:09.123Z</time></trkpt><trkpt lat="44.3062883" lon="11.8207533"><ele>38.0</ele><time>2026-04-11T10:24:10.124Z</time></trkpt><trkpt lat="44.30614" lon="11.8206983"><ele>38.0</ele><time>2026-04-11T10:24:11.124Z</time></trkpt><trkpt lat="44.305995" lon="11.8206217"><ele>38.0</ele><time>2026-04-11T10:24:12.124Z</time></trkpt><trkpt lat="44.3058583" lon="11.8205067"><ele>38.0</ele><time>2026-04-11T10:24:13.124Z</time></trkpt><trkpt lat="44.305735" lon="11.8203617"><ele>38.0</ele><time>2026-04-11T10:24:14.124Z</time></trkpt><trkpt lat="44.305615" lon="11.8202017"><ele>38.666666666666664</ele><time>2026-04-11T10:24:15.124Z</time></trkpt><trkpt lat="44.3054933" lon="11.8200383"><ele>39.333333333333336</ele><time>2026-04-11T10:24:16.123Z</time></trkpt><trkpt lat="44.3053683" lon="11.819875"><ele>40.0</ele><time>2026-04-11T10:24:17.124Z</time></trkpt><trkpt lat="44.3052367" lon="11.819715"><ele>40.0</ele><time>2026-04-11T10:24:18.124Z</time></trkpt><trkpt lat="44.3050967" lon="11.8195633"><ele>40.0</ele><time>2026-04-11T10:24:19.124Z</time></trkpt><trkpt lat="44.30495" lon="11.8194167"><ele>40.0</ele><time>2026-04-11T10:24:20.123Z</time></trkpt><trkpt lat="44.3048017" lon="11.819275"><ele>39.333333333333336</ele><time>2026-04-11T10:24:21.125Z</time></trkpt><trkpt lat="44.3046517" lon="11.8191333"><ele>38.666666666666664</ele><time>2026-04-11T10:24:22.123Z</time></trkpt><trkpt lat="44.3045017" lon="11.8189917"><ele>38.0</ele><time>2026-04-11T10:24:23.128Z</time></trkpt><trkpt lat="44.3043533" lon="11.81885"><ele>38.0</ele><time>2026-04-11T10:24:24.124Z</time></trkpt><trkpt lat="44.3042017" lon="11.8187083"><ele>38.0</ele><time>2026-04-11T10:24:25.125Z</time></trkpt><trkpt lat="44.30405" lon="11.81857"><ele>38.0</ele><time>2026-04-11T10:24:26.123Z</time></trkpt><trkpt lat="44.303895" lon="11.8184333"><ele>38.666666666666664</ele><time>2026-04-11T10:24:27.129Z</time></trkpt><trkpt lat="44.30374" lon="11.8183017"><ele>39.333333333333336</ele><time>2026-04-11T10:24:28.123Z</time></trkpt><trkpt lat="44.3035917" lon="11.81818"><ele>40.0</ele><time>2026-04-11T10:24:29.123Z</time></trkpt><trkpt lat="44.303455" lon="11.818065"><ele>40.0</ele><time>2026-04-11T10:24:30.124Z</time></trkpt><trkpt lat="44.3033367" lon="11.8179517"><ele>40.0</ele><time>2026-04-11T10:24:31.122Z</time></trkpt><trkpt lat="44.3032233" lon="11.8178333"><ele>40.0</ele><time>2026-04-11T10:24:32.124Z</time></trkpt><trkpt lat="44.303115" lon="11.81771"><ele>40.0</ele><time>2026-04-11T10:24:33.124Z</time></trkpt><trkpt lat="44.30301" lon="11.8175883"><ele>40.25</ele><time>2026-04-11T10:24:34.123Z</time></trkpt><trkpt lat="44.3029033" lon="11.81746"><ele>40.5</ele><time>2026-04-11T10:24:35.124Z</time></trkpt><trkpt lat="44.3027983" lon="11.817325"><ele>40.75</ele><time>2026-04-11T10:24:36.123Z</time></trkpt><trkpt lat="44.302695" lon="11.8171817"><ele>41.0</ele><time>2026-04-11T10:24:37.124Z</time></trkpt><trkpt lat="44.3025867" lon="11.817035"><ele>41.0</ele><time>2026-04-11T10:24:38.124Z</time></trkpt><trkpt lat="44.3024783" lon="11.81689"><ele>41.0</ele><time>2026-04-11T10:24:39.124Z</time></trkpt><trkpt lat="44.302375" lon="11.816755"><ele>41.0</ele><time>2026-04-11T10:24:40.124Z</time></trkpt><trkpt lat="44.30228" lon="11.8166267"><ele>41.0</ele><time>2026-04-11T10:24:41.123Z</time></trkpt><trkpt lat="44.302195" lon="11.816505"><ele>41.5</ele><time>2026-04-11T10:24:42.123Z</time></trkpt><trkpt lat="44.30212" lon="11.81639"><ele>42.0</ele><time>2026-04-11T10:24:43.124Z</time></trkpt><trkpt lat="44.3020683" lon="11.81629"><ele>42.5</ele><time>2026-04-11T10:24:44.124Z</time></trkpt><trkpt lat="44.3020383" lon="11.8162"><ele>43.0</ele><time>2026-04-11T10:24:45.124Z</time></trkpt><trkpt lat="44.302035" lon="11.81611"><ele>43.5</ele><time>2026-04-11T10:24:46.124Z</time></trkpt><trkpt lat="44.3020617" lon="11.8160033"><ele>44.0</ele><time>2026-04-11T10:24:47.124Z</time></trkpt><trkpt lat="44.3021217" lon="11.8158733"><ele>44.5</ele><time>2026-04-11T10:24:48.124Z</time></trkpt><trkpt lat="44.3022067" lon="11.81573"><ele>45.0</ele><time>2026-04-11T10:24:49.124Z</time></trkpt><trkpt lat="44.3022883" lon="11.8155683"><ele>45.5</ele><time>2026-04-11T10:24:50.124Z</time></trkpt><trkpt lat="44.3023583" lon="11.8153867"><ele>46.0</ele><time>2026-04-11T10:24:51.124Z</time></trkpt><trkpt lat="44.3024117" lon="11.8151883"><ele>46.66666666666667</ele><time>2026-04-11T10:24:52.122Z</time></trkpt><trkpt lat="44.30245" lon="11.814975"><ele>47.333333333333336</ele><time>2026-04-11T10:24:53.124Z</time></trkpt><trkpt lat="44.3024817" lon="11.8147633"><ele>48.0</ele><time>2026-04-11T10:24:54.124Z</time></trkpt><trkpt lat="44.3025067" lon="11.8145483"><ele>48.0</ele><time>2026-04-11T10:24:55.124Z</time></trkpt><trkpt lat="44.3025233" lon="11.8143333"><ele>48.0</ele><time>2026-04-11T10:24:56.124Z</time></trkpt><trkpt lat="44.3025283" lon="11.814115"><ele>48.0</ele><time>2026-04-11T10:24:57.125Z</time></trkpt><trkpt lat="44.302525" lon="11.8138933"><ele>48.33333333333333</ele><time>2026-04-11T10:24:58.123Z</time></trkpt><trkpt lat="44.3025133" lon="11.8136717"><ele>48.666666666666664</ele><time>2026-04-11T10:24:59.124Z</time></trkpt><trkpt lat="44.3024867" lon="11.81345"><ele>49.0</ele><time>2026-04-11T10:25:00.122Z</time></trkpt><trkpt lat="44.3024533" lon="11.8132317"><ele>49.666666666666664</ele><time>2026-04-11T10:25:01.124Z</time></trkpt><trkpt lat="44.3024117" lon="11.8130117"><ele>50.33333333333333</ele><time>2026-04-11T10:25:02.124Z</time></trkpt><trkpt lat="44.302365" lon="11.8127883"><ele>51.0</ele><time>2026-04-11T10:25:03.124Z</time></trkpt><trkpt lat="44.3023333" lon="11.8125633"><ele>51.0</ele><time>2026-04-11T10:25:04.123Z</time></trkpt><trkpt lat="44.3023233" lon="11.81233"><ele>51.0</ele><time>2026-04-11T10:25:05.124Z</time></trkpt><trkpt lat="44.30232" lon="11.812095"><ele>51.0</ele><time>2026-04-11T10:25:06.124Z</time></trkpt><trkpt lat="44.3023217" lon="11.811855"><ele>51.33333333333333</ele><time>2026-04-11T10:25:07.124Z</time></trkpt><trkpt lat="44.3023283" lon="11.8116183"><ele>51.666666666666664</ele><time>2026-04-11T10:25:08.124Z</time></trkpt><trkpt lat="44.302335" lon="11.81138"><ele>52.0</ele><time>2026-04-11T10:25:09.124Z</time></trkpt><trkpt lat="44.3023383" lon="11.8111417"><ele>53.0</ele><time>2026-04-11T10:25:10.123Z</time></trkpt><trkpt lat="44.3023417" lon="11.8109017"><ele>54.0</ele><time>2026-04-11T10:25:11.123Z</time></trkpt><trkpt lat="44.3023367" lon="11.8106617"><ele>55.0</ele><time>2026-04-11T10:25:12.125Z</time></trkpt><trkpt lat="44.3023083" lon="11.8104317"><ele>55.0</ele><time>2026-04-11T10:25:13.124Z</time></trkpt><trkpt lat="44.3022567" lon="11.81022"><ele>55.0</ele><time>2026-04-11T10:25:14.123Z</time></trkpt><trkpt lat="44.3021983" lon="11.8100233"><ele>55.0</ele><time>2026-04-11T10:25:15.124Z</time></trkpt><trkpt lat="44.302145" lon="11.8098283"><ele>56.33333333333333</ele><time>2026-04-11T10:25:16.124Z</time></trkpt><trkpt lat="44.3020917" lon="11.8096333"><ele>57.66666666666667</ele><time>2026-04-11T10:25:17.124Z</time></trkpt><trkpt lat="44.30204" lon="11.8094317"><ele>59.0</ele><time>2026-04-11T10:25:18.124Z</time></trkpt><trkpt lat="44.3019867" lon="11.8092267"><ele>59.0</ele><time>2026-04-11T10:25:19.124Z</time></trkpt><trkpt lat="44.301925" lon="11.8090267"><ele>59.0</ele><time>2026-04-11T10:25:20.123Z</time></trkpt><trkpt lat="44.301845" lon="11.8088367"><ele>59.0</ele><time>2026-04-11T10:25:21.124Z</time></trkpt><trkpt lat="44.30176" lon="11.8086467"><ele>60.0</ele><time>2026-04-11T10:25:22.124Z</time></trkpt><trkpt lat="44.3016817" lon="11.80845"><ele>61.0</ele><time>2026-04-11T10:25:23.124Z</time></trkpt><trkpt lat="44.3016117" lon="11.8082383"><ele>62.0</ele><time>2026-04-11T10:25:24.125Z</time></trkpt><trkpt lat="44.30155" lon="11.8080283"><ele>62.0</ele><time>2026-04-11T10:25:25.124Z</time></trkpt><trkpt lat="44.3014883" lon="11.807835"><ele>62.0</ele><time>2026-04-11T10:25:26.125Z</time></trkpt><trkpt lat="44.301435" lon="11.8076567"><ele>62.0</ele><time>2026-04-11T10:25:27.124Z</time></trkpt><trkpt lat="44.3013883" lon="11.8074867"><ele>62.0</ele><time>2026-04-11T10:25:28.124Z</time></trkpt><trkpt lat="44.30136" lon="11.8073217"><ele>62.0</ele><time>2026-04-11T10:25:29.124Z</time></trkpt><trkpt lat="44.301375" lon="11.8071617"><ele>62.0</ele><time>2026-04-11T10:25:30.123Z</time></trkpt><trkpt lat="44.3014317" lon="11.8070167"><ele>62.0</ele><time>2026-04-11T10:25:31.123Z</time></trkpt><trkpt lat="44.301515" lon="11.8068817"><ele>62.0</ele><time>2026-04-11T10:25:32.123Z</time></trkpt><trkpt lat="44.30161" lon="11.8067467"><ele>62.75</ele><time>2026-04-11T10:25:33.125Z</time></trkpt><trkpt lat="44.3017017" lon="11.8066083"><ele>63.5</ele><time>2026-04-11T10:25:34.123Z</time></trkpt><trkpt lat="44.30178" lon="11.80647"><ele>64.25</ele><time>2026-04-11T10:25:35.124Z</time></trkpt><trkpt lat="44.30183" lon="11.80633"><ele>65.0</ele><time>2026-04-11T10:25:36.123Z</time></trkpt><trkpt lat="44.3018433" lon="11.8061917"><ele>65.0</ele><time>2026-04-11T10:25:37.123Z</time></trkpt><trkpt lat="44.3018183" lon="11.8060517"><ele>65.0</ele><time>2026-04-11T10:25:38.123Z</time></trkpt><trkpt lat="44.3017633" lon="11.8059283"><ele>65.0</ele><time>2026-04-11T10:25:39.125Z</time></trkpt><trkpt lat="44.3016917" lon="11.8058133"><ele>65.0</ele><time>2026-04-11T10:25:40.123Z</time></trkpt><trkpt lat="44.3016067" lon="11.8056983"><ele>65.0</ele><time>2026-04-11T10:25:41.123Z</time></trkpt><trkpt lat="44.3015117" lon="11.8055783"><ele>65.25</ele><time>2026-04-11T10:25:42.124Z</time></trkpt><trkpt lat="44.30141" lon="11.8054567"><ele>65.5</ele><time>2026-04-11T10:25:43.123Z</time></trkpt><trkpt lat="44.3013033" lon="11.80533"><ele>65.75</ele><time>2026-04-11T10:25:44.124Z</time></trkpt><trkpt lat="44.3011917" lon="11.8052033"><ele>66.0</ele><time>2026-04-11T10:25:45.124Z</time></trkpt><trkpt lat="44.301075" lon="11.8050683"><ele>66.66666666666667</ele><time>2026-04-11T10:25:46.125Z</time></trkpt><trkpt lat="44.3009533" lon="11.8049267"><ele>67.33333333333334</ele><time>2026-04-11T10:25:47.123Z</time></trkpt><trkpt lat="44.30083" lon="11.80478"><ele>68.0</ele><time>2026-04-11T10:25:48.123Z</time></trkpt><trkpt lat="44.3007017" lon="11.8046283"><ele>69.33333333333334</ele><time>2026-04-11T10:25:49.124Z</time></trkpt><trkpt lat="44.300575" lon="11.8044783"><ele>70.66666666666667</ele><time>2026-04-11T10:25:50.123Z</time></trkpt><trkpt lat="44.3004583" lon="11.8043367"><ele>72.0</ele><time>2026-04-11T10:25:51.124Z</time></trkpt><trkpt lat="44.3003483" lon="11.8042067"><ele>72.0</ele><time>2026-04-11T10:25:52.124Z</time></trkpt><trkpt lat="44.3002483" lon="11.8040883"><ele>72.0</ele><time>2026-04-11T10:25:53.124Z</time></trkpt><trkpt lat="44.30015" lon="11.8039783"><ele>72.0</ele><time>2026-04-11T10:25:54.123Z</time></trkpt><trkpt lat="44.300045" lon="11.8038817"><ele>72.0</ele><time>2026-04-11T10:25:55.124Z</time></trkpt><trkpt lat="44.2999267" lon="11.8038017"><ele>72.0</ele><time>2026-04-11T10:25:56.124Z</time></trkpt><trkpt lat="44.2998067" lon="11.8037467"><ele>72.0</ele><time>2026-04-11T10:25:57.124Z</time></trkpt><trkpt lat="44.2996883" lon="11.8037"><ele>72.0</ele><time>2026-04-11T10:25:58.123Z</time></trkpt><trkpt lat="44.29957" lon="11.8036517"><ele>72.0</ele><time>2026-04-11T10:25:59.124Z</time></trkpt><trkpt lat="44.29945" lon="11.8035983"><ele>72.5</ele><time>2026-04-11T10:26:00.123Z</time></trkpt><trkpt lat="44.2993233" lon="11.8035433"><ele>73.0</ele><time>2026-04-11T10:26:01.124Z</time></trkpt><trkpt lat="44.2991883" lon="11.8034867"><ele>73.5</ele><time>2026-04-11T10:26:02.124Z</time></trkpt><trkpt lat="44.2990517" lon="11.8034317"><ele>74.0</ele><time>2026-04-11T10:26:03.124Z</time></trkpt><trkpt lat="44.29892" lon="11.80338"><ele>74.8</ele><time>2026-04-11T10:26:04.124Z</time></trkpt><trkpt lat="44.2988033" lon="11.8033333"><ele>75.60000000000001</ele><time>2026-04-11T10:26:05.123Z</time></trkpt><trkpt lat="44.298705" lon="11.8032883"><ele>76.4</ele><time>2026-04-11T10:26:06.123Z</time></trkpt><trkpt lat="44.2986167" lon="11.80324"><ele>77.2</ele><time>2026-04-11T10:26:07.123Z</time></trkpt><trkpt lat="44.2985467" lon="11.8031767"><ele>78.0</ele><time>2026-04-11T10:26:08.123Z</time></trkpt><trkpt lat="44.2984917" lon="11.803105"><ele>78.0</ele><time>2026-04-11T10:26:09.124Z</time></trkpt><trkpt lat="44.29848" lon="11.8030133"><ele>78.0</ele><time>2026-04-11T10:26:10.123Z</time></trkpt><trkpt lat="44.2985317" lon="11.8029083"><ele>78.0</ele><time>2026-04-11T10:26:11.122Z</time></trkpt><trkpt lat="44.2985967" lon="11.8028183"><ele>78.0</ele><time>2026-04-11T10:26:12.123Z</time></trkpt><trkpt lat="44.2986783" lon="11.8027433"><ele>78.0</ele><time>2026-04-11T10:26:13.124Z</time></trkpt><trkpt lat="44.298755" lon="11.8026683"><ele>78.0</ele><time>2026-04-11T10:26:14.124Z</time></trkpt><trkpt lat="44.2988333" lon="11.8025983"><ele>78.0</ele><time>2026-04-11T10:26:15.124Z</time></trkpt><trkpt lat="44.2989017" lon="11.80253"><ele>78.0</ele><time>2026-04-11T10:26:16.123Z</time></trkpt><trkpt lat="44.298965" lon="11.802465"><ele>78.0</ele><time>2026-04-11T10:26:17.123Z</time></trkpt><trkpt lat="44.2990233" lon="11.802405"><ele>78.0</ele><time>2026-04-11T10:26:18.124Z</time></trkpt><trkpt lat="44.2990767" lon="11.8023467"><ele>78.0</ele><time>2026-04-11T10:26:19.123Z</time></trkpt><trkpt lat="44.2991317" lon="11.802285"><ele>78.0</ele><time>2026-04-11T10:26:20.124Z</time></trkpt><trkpt lat="44.2991917" lon="11.802215"><ele>76.8</ele><time>2026-04-11T10:26:21.124Z</time></trkpt><trkpt lat="44.299255" lon="11.8021367"><ele>75.6</ele><time>2026-04-11T10:26:22.124Z</time></trkpt><trkpt lat="44.2993233" lon="11.8020467"><ele>74.4</ele><time>2026-04-11T10:26:23.124Z</time></trkpt><trkpt lat="44.299395" lon="11.801955"><ele>73.2</ele><time>2026-04-11T10:26:24.123Z</time></trkpt><trkpt lat="44.299465" lon="11.8018567"><ele>72.0</ele><time>2026-04-11T10:26:25.124Z</time></trkpt><trkpt lat="44.2995333" lon="11.8017567"><ele>72.0</ele><time>2026-04-11T10:26:26.124Z</time></trkpt><trkpt lat="44.2996017" lon="11.8016667"><ele>72.0</ele><time>2026-04-11T10:26:27.124Z</time></trkpt><trkpt lat="44.2996683" lon="11.8015817"><ele>72.0</ele><time>2026-04-11T10:26:28.123Z</time></trkpt><trkpt lat="44.29973" lon="11.801495"><ele>72.0</ele><time>2026-04-11T10:26:29.125Z</time></trkpt><trkpt lat="44.2997817" lon="11.801415"><ele>72.0</ele><time>2026-04-11T10:26:30.124Z</time></trkpt><trkpt lat="44.2998133" lon="11.8013283"><ele>72.0</ele><time>2026-04-11T10:26:31.124Z</time></trkpt><trkpt lat="44.2998267" lon="11.80123"><ele>70.66666666666667</ele><time>2026-04-11T10:26:32.124Z</time></trkpt><trkpt lat="44.299815" lon="11.801135"><ele>69.33333333333333</ele><time>2026-04-11T10:26:33.123Z</time></trkpt><trkpt lat="44.2997767" lon="11.8010517"><ele>68.0</ele><time>2026-04-11T10:26:34.123Z</time></trkpt><trkpt lat="44.2997233" lon="11.8009783"><ele>66.66666666666666</ele><time>2026-04-11T10:26:35.123Z</time></trkpt><trkpt lat="44.2996517" lon="11.80091"><ele>65.33333333333333</ele><time>2026-04-11T10:26:36.124Z</time></trkpt><trkpt lat="44.299575" lon="11.800835"><ele>64.0</ele><time>2026-04-11T10:26:37.124Z</time></trkpt><trkpt lat="44.299495" lon="11.8007517"><ele>64.0</ele><time>2026-04-11T10:26:38.124Z</time></trkpt><trkpt lat="44.2994133" lon="11.8006633"><ele>64.0</ele><time>2026-04-11T10:26:39.124Z</time></trkpt><trkpt lat="44.2993267" lon="11.8005733"><ele>64.0</ele><time>2026-04-11T10:26:40.124Z</time></trkpt><trkpt lat="44.2992383" lon="11.80048"><ele>64.0</ele><time>2026-04-11T10:26:41.123Z</time></trkpt><trkpt lat="44.2991433" lon="11.8003817"><ele>64.0</ele><time>2026-04-11T10:26:42.123Z</time></trkpt><trkpt lat="44.2990417" lon="11.8002867"><ele>64.0</ele><time>2026-04-11T10:26:43.124Z</time></trkpt><trkpt lat="44.2989333" lon="11.8001967"><ele>64.0</ele><time>2026-04-11T10:26:44.123Z</time></trkpt><trkpt lat="44.2988233" lon="11.8001083"><ele>64.0</ele><time>2026-04-11T10:26:45.124Z</time></trkpt><trkpt lat="44.2987167" lon="11.8000217"><ele>64.0</ele><time>2026-04-11T10:26:46.123Z</time></trkpt><trkpt lat="44.2986167" lon="11.7999417"><ele>62.666666666666664</ele><time>2026-04-11T10:26:47.123Z</time></trkpt><trkpt lat="44.2985317" lon="11.7998717"><ele>61.33333333333333</ele><time>2026-04-11T10:26:48.123Z</time></trkpt><trkpt lat="44.2984583" lon="11.7998167"><ele>60.0</ele><time>2026-04-11T10:26:49.123Z</time></trkpt><trkpt lat="44.2983917" lon="11.7997633"><ele>58.66666666666667</ele><time>2026-04-11T10:26:50.123Z</time></trkpt><trkpt lat="44.2983317" lon="11.799715"><ele>57.333333333333336</ele><time>2026-04-11T10:26:51.124Z</time></trkpt><trkpt lat="44.2982267" lon="11.7996367"><ele>56.0</ele><time>2026-04-11T10:26:53.123Z</time></trkpt><trkpt lat="44.2981317" lon="11.7995567"><ele>56.199999999999996</ele><time>2026-04-11T10:26:55.123Z</time></trkpt><trkpt lat="44.2980483" lon="11.799485"><ele>56.39999999999999</ele><time>2026-04-11T10:26:57.123Z</time></trkpt><trkpt lat="44.2979917" lon="11.79944"><ele>56.6</ele><time>2026-04-11T10:26:59.123Z</time></trkpt><trkpt lat="44.2979083" lon="11.7993667"><ele>56.8</ele><time>2026-04-11T10:27:02.123Z</time></trkpt><trkpt lat="44.2978033" lon="11.7992833"><ele>57.0</ele><time>2026-04-11T10:27:04.124Z</time></trkpt><trkpt lat="44.2977383" lon="11.7992333"><ele>57.0</ele><time>2026-04-11T10:27:05.123Z</time></trkpt><trkpt lat="44.2976617" lon="11.799185"><ele>57.0</ele><time>2026-04-11T10:27:06.123Z</time></trkpt><trkpt lat="44.2975733" lon="11.7991333"><ele>57.0</ele><time>2026-04-11T10:27:07.122Z</time></trkpt><trkpt lat="44.2974817" lon="11.799075"><ele>57.0</ele><time>2026-04-11T10:27:08.122Z</time></trkpt><trkpt lat="44.2973983" lon="11.79901"><ele>57.0</ele><time>2026-04-11T10:27:09.123Z</time></trkpt><trkpt lat="44.2973267" lon="11.7989517"><ele>57.0</ele><time>2026-04-11T10:27:10.123Z</time></trkpt><trkpt lat="44.297265" lon="11.7988983"><ele>57.0</ele><time>2026-04-11T10:27:11.123Z</time></trkpt><trkpt lat="44.2972033" lon="11.7988517"><ele>57.0</ele><time>2026-04-11T10:27:12.124Z</time></trkpt><trkpt lat="44.2971433" lon="11.798815"><ele>57.0</ele><time>2026-04-11T10:27:13.123Z</time></trkpt><trkpt lat="44.2970333" lon="11.7988217"><ele>57.0</ele><time>2026-04-11T10:27:15.123Z</time></trkpt><trkpt lat="44.29698" lon="11.79887"><ele>57.0</ele><time>2026-04-11T10:27:16.124Z</time></trkpt><trkpt lat="44.2969183" lon="11.798925"><ele>58.0</ele><time>2026-04-11T10:27:17.123Z</time></trkpt><trkpt lat="44.296845" lon="11.7989933"><ele>59.0</ele><time>2026-04-11T10:27:18.123Z</time></trkpt><trkpt lat="44.2967567" lon="11.7990617"><ele>60.0</ele><time>2026-04-11T10:27:19.124Z</time></trkpt><trkpt lat="44.296665" lon="11.7991217"><ele>61.0</ele><time>2026-04-11T10:27:20.123Z</time></trkpt><trkpt lat="44.2965667" lon="11.799175"><ele>62.0</ele><time>2026-04-11T10:27:21.124Z</time></trkpt><trkpt lat="44.296455" lon="11.7992233"><ele>60.5</ele><time>2026-04-11T10:27:22.124Z</time></trkpt><trkpt lat="44.2963417" lon="11.7992733"><ele>59.0</ele><time>2026-04-11T10:27:23.124Z</time></trkpt><trkpt lat="44.2962333" lon="11.7993333"><ele>57.5</ele><time>2026-04-11T10:27:24.124Z</time></trkpt><trkpt lat="44.2961283" lon="11.7994"><ele>56.0</ele><time>2026-04-11T10:27:25.124Z</time></trkpt><trkpt lat="44.296035" lon="11.7994767"><ele>56.0</ele><time>2026-04-11T10:27:26.124Z</time></trkpt><trkpt lat="44.295945" lon="11.7995567"><ele>55.99999999999999</ele><time>2026-04-11T10:27:27.124Z</time></trkpt><trkpt lat="44.2958583" lon="11.7996317"><ele>55.99999999999999</ele><time>2026-04-11T10:27:28.123Z</time></trkpt><trkpt lat="44.295775" lon="11.7996983"><ele>56.0</ele><time>2026-04-11T10:27:29.124Z</time></trkpt><trkpt lat="44.2956917" lon="11.799755"><ele>56.0</ele><time>2026-04-11T10:27:30.124Z</time></trkpt><trkpt lat="44.2956083" lon="11.7998033"><ele>56.0</ele><time>2026-04-11T10:27:31.123Z</time></trkpt><trkpt lat="44.295525" lon="11.7998417"><ele>55.99999999999999</ele><time>2026-04-11T10:27:32.124Z</time></trkpt><trkpt lat="44.295435" lon="11.79987"><ele>55.99999999999999</ele><time>2026-04-11T10:27:33.124Z</time></trkpt><trkpt lat="44.2953433" lon="11.7998933"><ele>56.0</ele><time>2026-04-11T10:27:34.122Z</time></trkpt><trkpt lat="44.2952483" lon="11.7999117"><ele>56.0</ele><time>2026-04-11T10:27:35.123Z</time></trkpt><trkpt lat="44.2951567" lon="11.7999267"><ele>56.0</ele><time>2026-04-11T10:27:36.124Z</time></trkpt><trkpt lat="44.2950667" lon="11.7999417"><ele>55.99999999999999</ele><time>2026-04-11T10:27:37.124Z</time></trkpt><trkpt lat="44.294985" lon="11.7999533"><ele>55.99999999999999</ele><time>2026-04-11T10:27:38.124Z</time></trkpt><trkpt lat="44.294915" lon="11.7999633"><ele>56.0</ele><time>2026-04-11T10:27:39.123Z</time></trkpt><trkpt lat="44.2947933" lon="11.7999817"><ele>56.0</ele><time>2026-04-11T10:27:41.124Z</time></trkpt><trkpt lat="44.2946817" lon="11.7999817"><ele>55.66666666666667</ele><time>2026-04-11T10:27:43.123Z</time></trkpt><trkpt lat="44.2945833" lon="11.7999117"><ele>55.333333333333336</ele><time>2026-04-11T10:27:45.123Z</time></trkpt><trkpt lat="44.294525" lon="11.79975"><ele>55.0</ele><time>2026-04-11T10:27:47.123Z</time></trkpt><trkpt lat="44.2944983" lon="11.7996583"><ele>54.66666666666667</ele><time>2026-04-11T10:27:48.123Z</time></trkpt><trkpt lat="44.2944667" lon="11.7995683"><ele>54.333333333333336</ele><time>2026-04-11T10:27:49.124Z</time></trkpt><trkpt lat="44.2944333" lon="11.7994883"><ele>54.0</ele><time>2026-04-11T10:27:50.124Z</time></trkpt><trkpt lat="44.29437" lon="11.7993567"><ele>54.0</ele><time>2026-04-11T10:27:52.124Z</time></trkpt><trkpt lat="44.294305" lon="11.79929"><ele>54.0</ele><time>2026-04-11T10:27:54.124Z</time></trkpt><trkpt lat="44.2942117" lon="11.7993317"><ele>54.0</ele><time>2026-04-11T10:27:57.123Z</time></trkpt><trkpt lat="44.2941583" lon="11.7993817"><ele>54.0</ele><time>2026-04-11T10:27:59.125Z</time></trkpt><trkpt lat="44.29406" lon="11.7994317"><ele>54.0</ele><time>2026-04-11T10:28:09.124Z</time></trkpt><trkpt lat="44.2939767" lon="11.7993867"><ele>54.0</ele><time>2026-04-11T10:52:25.124Z</time></trkpt><trkpt lat="44.2939283" lon="11.7994767"><ele>54.0</ele><time>2026-04-11T10:52:28.123Z</time></trkpt><trkpt lat="44.2939783" lon="11.7995867"><ele>54.0</ele><time>2026-04-11T10:52:31.124Z</time></trkpt><trkpt lat="44.2940167" lon="11.79966"><ele>54.0</ele><time>2026-04-11T10:52:33.125Z</time></trkpt><trkpt lat="44.2940567" lon="11.7997333"><ele>54.0</ele><time>2026-04-11T10:52:35.124Z</time></trkpt><trkpt lat="44.294095" lon="11.799805"><ele>54.0</ele><time>2026-04-11T10:52:37.123Z</time></trkpt><trkpt lat="44.2941433" lon="11.799895"><ele>54.0</ele><time>2026-04-11T10:52:39.124Z</time></trkpt><trkpt lat="44.29421" lon="11.7999833"><ele>54.0</ele><time>2026-04-11T10:52:41.124Z</time></trkpt><trkpt lat="44.294295" lon="11.8000417"><ele>54.0</ele><time>2026-04-11T10:52:43.124Z</time></trkpt><trkpt lat="44.2944083" lon="11.8000767"><ele>54.0</ele><time>2026-04-11T10:52:45.125Z</time></trkpt><trkpt lat="44.294475" lon="11.800075"><ele>54.0</ele><time>2026-04-11T10:52:46.123Z</time></trkpt><trkpt lat="44.2945417" lon="11.8000617"><ele>54.0</ele><time>2026-04-11T10:52:47.124Z</time></trkpt><trkpt lat="44.2946067" lon="11.80004"><ele>54.0</ele><time>2026-04-11T10:52:48.125Z</time></trkpt><trkpt lat="44.2946683" lon="11.8000133"><ele>54.400000000000006</ele><time>2026-04-11T10:52:49.123Z</time></trkpt><trkpt lat="44.2947833" lon="11.799965"><ele>54.800000000000004</ele><time>2026-04-11T10:52:51.124Z</time></trkpt><trkpt lat="44.2949067" lon="11.7999333"><ele>55.199999999999996</ele><time>2026-04-11T10:52:53.124Z</time></trkpt><trkpt lat="44.294975" lon="11.7999233"><ele>55.599999999999994</ele><time>2026-04-11T10:52:54.124Z</time></trkpt><trkpt lat="44.295045" lon="11.7999133"><ele>56.0</ele><time>2026-04-11T10:52:55.124Z</time></trkpt><trkpt lat="44.2951183" lon="11.7999033"><ele>56.00000000000001</ele><time>2026-04-11T10:52:56.124Z</time></trkpt><trkpt lat="44.295195" lon="11.7998933"><ele>56.0</ele><time>2026-04-11T10:52:57.124Z</time></trkpt><trkpt lat="44.2952783" lon="11.7998833"><ele>56.0</ele><time>2026-04-11T10:52:58.124Z</time></trkpt><trkpt lat="44.2953633" lon="11.7998717"><ele>56.0</ele><time>2026-04-11T10:52:59.124Z</time></trkpt><trkpt lat="44.29545" lon="11.7998583"><ele>56.00000000000001</ele><time>2026-04-11T10:53:00.124Z</time></trkpt><trkpt lat="44.2955367" lon="11.7998333"><ele>56.0</ele><time>2026-04-11T10:53:01.124Z</time></trkpt><trkpt lat="44.295625" lon="11.7998"><ele>56.0</ele><time>2026-04-11T10:53:02.125Z</time></trkpt><trkpt lat="44.2957067" lon="11.7997567"><ele>55.99999999999999</ele><time>2026-04-11T10:53:03.124Z</time></trkpt><trkpt lat="44.295785" lon="11.7997017"><ele>55.99999999999999</ele><time>2026-04-11T10:53:04.124Z</time></trkpt><trkpt lat="44.2958617" lon="11.799635"><ele>56.0</ele><time>2026-04-11T10:53:05.124Z</time></trkpt><trkpt lat="44.295945" lon="11.79956"><ele>56.0</ele><time>2026-04-11T10:53:06.124Z</time></trkpt><trkpt lat="44.296035" lon="11.799485"><ele>56.0</ele><time>2026-04-11T10:53:07.123Z</time></trkpt><trkpt lat="44.2961333" lon="11.7994117"><ele>56.0</ele><time>2026-04-11T10:53:08.123Z</time></trkpt><trkpt lat="44.296235" lon="11.799345"><ele>56.0</ele><time>2026-04-11T10:53:09.124Z</time></trkpt><trkpt lat="44.296345" lon="11.7992917"><ele>56.0</ele><time>2026-04-11T10:53:10.123Z</time></trkpt><trkpt lat="44.2964617" lon="11.7992467"><ele>57.199999999999996</ele><time>2026-04-11T10:53:11.123Z</time></trkpt><trkpt lat="44.2965767" lon="11.7991983"><ele>58.39999999999999</ele><time>2026-04-11T10:53:12.123Z</time></trkpt><trkpt lat="44.2966867" lon="11.7991483"><ele>59.6</ele><time>2026-04-11T10:53:13.124Z</time></trkpt><trkpt lat="44.29678" lon="11.7990833"><ele>60.8</ele><time>2026-04-11T10:53:14.124Z</time></trkpt><trkpt lat="44.2968633" lon="11.79901"><ele>62.0</ele><time>2026-04-11T10:53:15.123Z</time></trkpt><trkpt lat="44.2969417" lon="11.798935"><ele>62.00000000000001</ele><time>2026-04-11T10:53:16.124Z</time></trkpt><trkpt lat="44.2970067" lon="11.79887"><ele>62.0</ele><time>2026-04-11T10:53:17.124Z</time></trkpt><trkpt lat="44.2970667" lon="11.798835"><ele>62.0</ele><time>2026-04-11T10:53:18.124Z</time></trkpt><trkpt lat="44.29718" lon="11.79885"><ele>62.0</ele><time>2026-04-11T10:53:20.125Z</time></trkpt><trkpt lat="44.2972517" lon="11.7989"><ele>62.00000000000001</ele><time>2026-04-11T10:53:21.125Z</time></trkpt><trkpt lat="44.2973433" lon="11.798975"><ele>62.0</ele><time>2026-04-11T10:53:22.125Z</time></trkpt><trkpt lat="44.2974483" lon="11.7990567"><ele>60.75</ele><time>2026-04-11T10:53:23.125Z</time></trkpt><trkpt lat="44.2975683" lon="11.7991467"><ele>59.5</ele><time>2026-04-11T10:53:24.125Z</time></trkpt><trkpt lat="44.2977" lon="11.7992433"><ele>58.25</ele><time>2026-04-11T10:53:25.126Z</time></trkpt><trkpt lat="44.2978383" lon="11.7993517"><ele>57.0</ele><time>2026-04-11T10:53:26.124Z</time></trkpt><trkpt lat="44.2979817" lon="11.7994633"><ele>56.66666666666667</ele><time>2026-04-11T10:53:27.125Z</time></trkpt><trkpt lat="44.2981333" lon="11.7995833"><ele>56.333333333333336</ele><time>2026-04-11T10:53:28.125Z</time></trkpt><trkpt lat="44.2982883" lon="11.7997067"><ele>56.0</ele><time>2026-04-11T10:53:29.126Z</time></trkpt><trkpt lat="44.2984433" lon="11.7998317"><ele>56.0</ele><time>2026-04-11T10:53:30.124Z</time></trkpt><trkpt lat="44.2986" lon="11.79995"><ele>56.0</ele><time>2026-04-11T10:53:31.125Z</time></trkpt><trkpt lat="44.2987533" lon="11.8000667"><ele>56.0</ele><time>2026-04-11T10:53:32.124Z</time></trkpt><trkpt lat="44.2989033" lon="11.8001833"><ele>58.66666666666667</ele><time>2026-04-11T10:53:33.124Z</time></trkpt><trkpt lat="44.2990433" lon="11.8003033"><ele>61.33333333333333</ele><time>2026-04-11T10:53:34.123Z</time></trkpt><trkpt lat="44.29917" lon="11.80042"><ele>64.0</ele><time>2026-04-11T10:53:35.124Z</time></trkpt><trkpt lat="44.2992783" lon="11.8005383"><ele>64.0</ele><time>2026-04-11T10:53:36.124Z</time></trkpt><trkpt lat="44.2993717" lon="11.80065"><ele>64.0</ele><time>2026-04-11T10:53:37.124Z</time></trkpt><trkpt lat="44.2994533" lon="11.80075"><ele>64.0</ele><time>2026-04-11T10:53:38.124Z</time></trkpt><trkpt lat="44.2995233" lon="11.8008283"><ele>64.0</ele><time>2026-04-11T10:53:39.126Z</time></trkpt><trkpt lat="44.2995767" lon="11.8008867"><ele>64.0</ele><time>2026-04-11T10:53:40.125Z</time></trkpt><trkpt lat="44.2996417" lon="11.80096"><ele>63.49999999999999</ele><time>2026-04-11T10:53:42.125Z</time></trkpt><trkpt lat="44.2996983" lon="11.8010317"><ele>63.0</ele><time>2026-04-11T10:53:46.123Z</time></trkpt><trkpt lat="44.29974" lon="11.8011233"><ele>62.5</ele><time>2026-04-11T10:54:29.124Z</time></trkpt><trkpt lat="44.29976" lon="11.8012183"><ele>62.0</ele><time>2026-04-11T10:54:30.124Z</time></trkpt><trkpt lat="44.2997667" lon="11.8013333"><ele>61.49999999999999</ele><time>2026-04-11T10:54:31.124Z</time></trkpt><trkpt lat="44.2997267" lon="11.801475"><ele>61.0</ele><time>2026-04-11T10:54:32.124Z</time></trkpt><trkpt lat="44.29964" lon="11.8016117"><ele>63.75</ele><time>2026-04-11T10:54:33.124Z</time></trkpt><trkpt lat="44.2995417" lon="11.8017367"><ele>66.5</ele><time>2026-04-11T10:54:34.124Z</time></trkpt><trkpt lat="44.29944" lon="11.8018667"><ele>69.25</ele><time>2026-04-11T10:54:35.124Z</time></trkpt><trkpt lat="44.299335" lon="11.8020017"><ele>72.0</ele><time>2026-04-11T10:54:36.124Z</time></trkpt><trkpt lat="44.2992217" lon="11.8021333"><ele>72.0</ele><time>2026-04-11T10:54:37.124Z</time></trkpt><trkpt lat="44.2991067" lon="11.8022667"><ele>72.0</ele><time>2026-04-11T10:54:38.124Z</time></trkpt><trkpt lat="44.2989833" lon="11.8024"><ele>72.0</ele><time>2026-04-11T10:54:39.124Z</time></trkpt><trkpt lat="44.2988617" lon="11.802535"><ele>73.5</ele><time>2026-04-11T10:54:40.124Z</time></trkpt><trkpt lat="44.2987433" lon="11.80266"><ele>75.0</ele><time>2026-04-11T10:54:41.124Z</time></trkpt><trkpt lat="44.298635" lon="11.8027733"><ele>76.5</ele><time>2026-04-11T10:54:42.124Z</time></trkpt><trkpt lat="44.2985467" lon="11.8028833"><ele>78.0</ele><time>2026-04-11T10:54:43.124Z</time></trkpt><trkpt lat="44.2984883" lon="11.8029967"><ele>78.0</ele><time>2026-04-11T10:54:44.124Z</time></trkpt><trkpt lat="44.2984767" lon="11.8031167"><ele>78.0</ele><time>2026-04-11T10:54:45.124Z</time></trkpt><trkpt lat="44.298515" lon="11.8032217"><ele>78.0</ele><time>2026-04-11T10:54:46.124Z</time></trkpt><trkpt lat="44.2985867" lon="11.8033067"><ele>78.0</ele><time>2026-04-11T10:54:47.124Z</time></trkpt><trkpt lat="44.2986983" lon="11.8033633"><ele>78.0</ele><time>2026-04-11T10:54:48.123Z</time></trkpt><trkpt lat="44.2988217" lon="11.8034167"><ele>76.66666666666667</ele><time>2026-04-11T10:54:49.124Z</time></trkpt><trkpt lat="44.2989583" lon="11.80347"><ele>75.33333333333334</ele><time>2026-04-11T10:54:50.124Z</time></trkpt><trkpt lat="44.2991067" lon="11.80353"><ele>74.0</ele><time>2026-04-11T10:54:51.124Z</time></trkpt><trkpt lat="44.2992633" lon="11.8035967"><ele>74.0</ele><time>2026-04-11T10:54:52.125Z</time></trkpt><trkpt lat="44.2994183" lon="11.8036583"><ele>74.0</ele><time>2026-04-11T10:54:53.123Z</time></trkpt><trkpt lat="44.2995833" lon="11.8037217"><ele>74.0</ele><time>2026-04-11T10:54:54.123Z</time></trkpt><trkpt lat="44.2997467" lon="11.8037883"><ele>73.33333333333334</ele><time>2026-04-11T10:54:55.124Z</time></trkpt><trkpt lat="44.2999017" lon="11.80386"><ele>72.66666666666667</ele><time>2026-04-11T10:54:56.125Z</time></trkpt><trkpt lat="44.300045" lon="11.8039483"><ele>72.0</ele><time>2026-04-11T10:54:57.125Z</time></trkpt><trkpt lat="44.3001733" lon="11.804065"><ele>72.0</ele><time>2026-04-11T10:54:58.124Z</time></trkpt><trkpt lat="44.3002967" lon="11.8042067"><ele>72.0</ele><time>2026-04-11T10:54:59.124Z</time></trkpt><trkpt lat="44.3004233" lon="11.8043517"><ele>72.0</ele><time>2026-04-11T10:55:00.125Z</time></trkpt><trkpt lat="44.300555" lon="11.8045"><ele>70.66666666666667</ele><time>2026-04-11T10:55:01.123Z</time></trkpt><trkpt lat="44.3006867" lon="11.804655"><ele>69.33333333333334</ele><time>2026-04-11T10:55:02.126Z</time></trkpt><trkpt lat="44.3008217" lon="11.8048117"><ele>68.0</ele><time>2026-04-11T10:55:03.124Z</time></trkpt><trkpt lat="44.3009583" lon="11.8049717"><ele>68.0</ele><time>2026-04-11T10:55:04.125Z</time></trkpt><trkpt lat="44.3010967" lon="11.8051333"><ele>68.0</ele><time>2026-04-11T10:55:05.123Z</time></trkpt><trkpt lat="44.301235" lon="11.8052917"><ele>68.0</ele><time>2026-04-11T10:55:06.124Z</time></trkpt><trkpt lat="44.3013683" lon="11.8054467"><ele>67.33333333333334</ele><time>2026-04-11T10:55:07.124Z</time></trkpt><trkpt lat="44.3014967" lon="11.8055917"><ele>66.66666666666667</ele><time>2026-04-11T10:55:08.123Z</time></trkpt><trkpt lat="44.3016167" lon="11.805735"><ele>66.0</ele><time>2026-04-11T10:55:09.124Z</time></trkpt><trkpt lat="44.3017183" lon="11.8058767"><ele>65.75</ele><time>2026-04-11T10:55:10.124Z</time></trkpt><trkpt lat="44.30179" lon="11.806025"><ele>65.5</ele><time>2026-04-11T10:55:11.124Z</time></trkpt><trkpt lat="44.3018183" lon="11.806185"><ele>65.25</ele><time>2026-04-11T10:55:12.124Z</time></trkpt><trkpt lat="44.3017967" lon="11.8063417"><ele>65.0</ele><time>2026-04-11T10:55:13.127Z</time></trkpt><trkpt lat="44.3017367" lon="11.8064767"><ele>65.0</ele><time>2026-04-11T10:55:14.124Z</time></trkpt><trkpt lat="44.301655" lon="11.806605"><ele>65.0</ele><time>2026-04-11T10:55:15.124Z</time></trkpt><trkpt lat="44.301565" lon="11.8067383"><ele>65.0</ele><time>2026-04-11T10:55:16.125Z</time></trkpt><trkpt lat="44.3014717" lon="11.8068767"><ele>65.0</ele><time>2026-04-11T10:55:17.123Z</time></trkpt><trkpt lat="44.301395" lon="11.8070217"><ele>64.25</ele><time>2026-04-11T10:55:18.123Z</time></trkpt><trkpt lat="44.3013483" lon="11.8071783"><ele>63.5</ele><time>2026-04-11T10:55:19.123Z</time></trkpt><trkpt lat="44.3013433" lon="11.807355"><ele>62.75</ele><time>2026-04-11T10:55:20.125Z</time></trkpt><trkpt lat="44.3013733" lon="11.8075467"><ele>62.0</ele><time>2026-04-11T10:55:21.123Z</time></trkpt><trkpt lat="44.3014233" lon="11.8077433"><ele>62.0</ele><time>2026-04-11T10:55:22.124Z</time></trkpt><trkpt lat="44.3014833" lon="11.8079483"><ele>62.0</ele><time>2026-04-11T10:55:23.123Z</time></trkpt><trkpt lat="44.3015417" lon="11.8081583"><ele>62.0</ele><time>2026-04-11T10:55:24.124Z</time></trkpt><trkpt lat="44.3016067" lon="11.8083717"><ele>61.0</ele><time>2026-04-11T10:55:25.125Z</time></trkpt><trkpt lat="44.3016833" lon="11.8085817"><ele>60.0</ele><time>2026-04-11T10:55:26.124Z</time></trkpt><trkpt lat="44.301775" lon="11.8087817"><ele>59.0</ele><time>2026-04-11T10:55:27.124Z</time></trkpt><trkpt lat="44.3018683" lon="11.80897"><ele>59.0</ele><time>2026-04-11T10:55:28.123Z</time></trkpt><trkpt lat="44.301945" lon="11.8091617"><ele>59.0</ele><time>2026-04-11T10:55:29.124Z</time></trkpt><trkpt lat="44.301995" lon="11.8093583"><ele>59.0</ele><time>2026-04-11T10:55:30.124Z</time></trkpt><trkpt lat="44.3020417" lon="11.8095483"><ele>59.0</ele><time>2026-04-11T10:55:31.124Z</time></trkpt><trkpt lat="44.30209" lon="11.8097367"><ele>59.0</ele><time>2026-04-11T10:55:32.126Z</time></trkpt><trkpt lat="44.3021417" lon="11.809925"><ele>59.0</ele><time>2026-04-11T10:55:33.123Z</time></trkpt><trkpt lat="44.3021967" lon="11.810115"><ele>59.0</ele><time>2026-04-11T10:55:34.124Z</time></trkpt><trkpt lat="44.3022533" lon="11.8103083"><ele>58.0</ele><time>2026-04-11T10:55:35.123Z</time></trkpt><trkpt lat="44.3023033" lon="11.8105067"><ele>57.0</ele><time>2026-04-11T10:55:36.126Z</time></trkpt><trkpt lat="44.3023217" lon="11.8107117"><ele>56.0</ele><time>2026-04-11T10:55:37.124Z</time></trkpt><trkpt lat="44.302325" lon="11.81092"><ele>55.0</ele><time>2026-04-11T10:55:38.124Z</time></trkpt><trkpt lat="44.3023167" lon="11.811135"><ele>54.0</ele><time>2026-04-11T10:55:39.124Z</time></trkpt><trkpt lat="44.3023117" lon="11.8113517"><ele>53.0</ele><time>2026-04-11T10:55:40.123Z</time></trkpt><trkpt lat="44.3023067" lon="11.81157"><ele>52.0</ele><time>2026-04-11T10:55:41.124Z</time></trkpt><trkpt lat="44.302305" lon="11.8117883"><ele>51.75</ele><time>2026-04-11T10:55:42.124Z</time></trkpt><trkpt lat="44.3023067" lon="11.812005"><ele>51.5</ele><time>2026-04-11T10:55:43.124Z</time></trkpt><trkpt lat="44.30231" lon="11.812215"><ele>51.25</ele><time>2026-04-11T10:55:44.125Z</time></trkpt><trkpt lat="44.3023183" lon="11.8124133"><ele>51.0</ele><time>2026-04-11T10:55:45.123Z</time></trkpt><trkpt lat="44.3023333" lon="11.8126083"><ele>51.0</ele><time>2026-04-11T10:55:46.124Z</time></trkpt><trkpt lat="44.30236" lon="11.812805"><ele>51.0</ele><time>2026-04-11T10:55:47.124Z</time></trkpt><trkpt lat="44.3023983" lon="11.8130033"><ele>51.0</ele><time>2026-04-11T10:55:48.124Z</time></trkpt><trkpt lat="44.3024383" lon="11.8132017"><ele>51.0</ele><time>2026-04-11T10:55:49.124Z</time></trkpt><trkpt lat="44.3024733" lon="11.8134083"><ele>50.33333333333333</ele><time>2026-04-11T10:55:50.124Z</time></trkpt><trkpt lat="44.3024983" lon="11.81363"><ele>49.666666666666664</ele><time>2026-04-11T10:55:51.124Z</time></trkpt><trkpt lat="44.3025117" lon="11.8138533"><ele>49.0</ele><time>2026-04-11T10:55:52.123Z</time></trkpt><trkpt lat="44.3025167" lon="11.814085"><ele>49.0</ele><time>2026-04-11T10:55:53.125Z</time></trkpt><trkpt lat="44.30251" lon="11.81432"><ele>49.0</ele><time>2026-04-11T10:55:54.124Z</time></trkpt><trkpt lat="44.3024967" lon="11.8145517"><ele>49.0</ele><time>2026-04-11T10:55:55.124Z</time></trkpt><trkpt lat="44.30247" lon="11.814785"><ele>48.666666666666664</ele><time>2026-04-11T10:55:56.122Z</time></trkpt><trkpt lat="44.3024333" lon="11.8150133"><ele>48.33333333333333</ele><time>2026-04-11T10:55:57.126Z</time></trkpt><trkpt lat="44.30239" lon="11.8152367"><ele>48.0</ele><time>2026-04-11T10:55:58.124Z</time></trkpt><trkpt lat="44.3023317" lon="11.8154467"><ele>47.333333333333336</ele><time>2026-04-11T10:55:59.123Z</time></trkpt><trkpt lat="44.3022517" lon="11.8156483"><ele>46.66666666666667</ele><time>2026-04-11T10:56:00.124Z</time></trkpt><trkpt lat="44.3021583" lon="11.8158317"><ele>46.0</ele><time>2026-04-11T10:56:01.124Z</time></trkpt><trkpt lat="44.3020617" lon="11.8160083"><ele>45.333333333333336</ele><time>2026-04-11T10:56:02.124Z</time></trkpt><trkpt lat="44.3019567" lon="11.8161667"><ele>44.666666666666664</ele><time>2026-04-11T10:56:03.124Z</time></trkpt><trkpt lat="44.301835" lon="11.8162867"><ele>44.0</ele><time>2026-04-11T10:56:04.124Z</time></trkpt><trkpt lat="44.3017083" lon="11.816395"><ele>44.0</ele><time>2026-04-11T10:56:05.123Z</time></trkpt><trkpt lat="44.3015867" lon="11.8165183"><ele>44.0</ele><time>2026-04-11T10:56:06.124Z</time></trkpt><trkpt lat="44.3014717" lon="11.81667"><ele>44.0</ele><time>2026-04-11T10:56:07.124Z</time></trkpt><trkpt lat="44.3013617" lon="11.8168417"><ele>45.0</ele><time>2026-04-11T10:56:08.124Z</time></trkpt><trkpt lat="44.3012633" lon="11.8170233"><ele>46.0</ele><time>2026-04-11T10:56:09.125Z</time></trkpt><trkpt lat="44.3011683" lon="11.8172167"><ele>47.0</ele><time>2026-04-11T10:56:10.124Z</time></trkpt><trkpt lat="44.301075" lon="11.8174117"><ele>47.0</ele><time>2026-04-11T10:56:11.124Z</time></trkpt><trkpt lat="44.3009817" lon="11.8176133"><ele>47.0</ele><time>2026-04-11T10:56:12.124Z</time></trkpt><trkpt lat="44.3008883" lon="11.8178133"><ele>47.0</ele><time>2026-04-11T10:56:13.125Z</time></trkpt><trkpt lat="44.300795" lon="11.8180183"><ele>46.33333333333333</ele><time>2026-04-11T10:56:14.123Z</time></trkpt><trkpt lat="44.300705" lon="11.8182233"><ele>45.666666666666664</ele><time>2026-04-11T10:56:15.124Z</time></trkpt><trkpt lat="44.3006133" lon="11.8184333"><ele>45.0</ele><time>2026-04-11T10:56:16.123Z</time></trkpt><trkpt lat="44.30052" lon="11.8186383"><ele>45.0</ele><time>2026-04-11T10:56:17.125Z</time></trkpt><trkpt lat="44.3004267" lon="11.8188483"><ele>45.0</ele><time>2026-04-11T10:56:18.124Z</time></trkpt><trkpt lat="44.3003367" lon="11.8190633"><ele>45.0</ele><time>2026-04-11T10:56:19.125Z</time></trkpt><trkpt lat="44.30025" lon="11.8192817"><ele>45.0</ele><time>2026-04-11T10:56:20.123Z</time></trkpt><trkpt lat="44.3001733" lon="11.8195067"><ele>45.0</ele><time>2026-04-11T10:56:21.125Z</time></trkpt><trkpt lat="44.3001033" lon="11.8197367"><ele>45.0</ele><time>2026-04-11T10:56:22.122Z</time></trkpt><trkpt lat="44.3000367" lon="11.8199717"><ele>44.333333333333336</ele><time>2026-04-11T10:56:23.124Z</time></trkpt><trkpt lat="44.29997" lon="11.8202067"><ele>43.66666666666667</ele><time>2026-04-11T10:56:24.123Z</time></trkpt><trkpt lat="44.2999" lon="11.8204433"><ele>43.0</ele><time>2026-04-11T10:56:25.127Z</time></trkpt><trkpt lat="44.29983" lon="11.820675"><ele>43.0</ele><time>2026-04-11T10:56:26.123Z</time></trkpt><trkpt lat="44.299755" lon="11.8209017"><ele>43.0</ele><time>2026-04-11T10:56:27.125Z</time></trkpt><trkpt lat="44.2996733" lon="11.8211217"><ele>43.0</ele><time>2026-04-11T10:56:28.123Z</time></trkpt><trkpt lat="44.2995883" lon="11.8213367"><ele>43.0</ele><time>2026-04-11T10:56:29.124Z</time></trkpt><trkpt lat="44.2995067" lon="11.8215483"><ele>43.0</ele><time>2026-04-11T10:56:30.122Z</time></trkpt><trkpt lat="44.299425" lon="11.8217633"><ele>43.0</ele><time>2026-04-11T10:56:31.129Z</time></trkpt><trkpt lat="44.2993467" lon="11.8219817"><ele>43.0</ele><time>2026-04-11T10:56:32.124Z</time></trkpt><trkpt lat="44.299275" lon="11.8222067"><ele>43.0</ele><time>2026-04-11T10:56:33.125Z</time></trkpt><trkpt lat="44.29921" lon="11.8224317"><ele>43.0</ele><time>2026-04-11T10:56:34.124Z</time></trkpt><trkpt lat="44.2991517" lon="11.8226633"><ele>42.333333333333336</ele><time>2026-04-11T10:56:35.123Z</time></trkpt><trkpt lat="44.29909" lon="11.8228967"><ele>41.666666666666664</ele><time>2026-04-11T10:56:36.123Z</time></trkpt><trkpt lat="44.2990283" lon="11.8231283"><ele>41.0</ele><time>2026-04-11T10:56:37.124Z</time></trkpt><trkpt lat="44.2989683" lon="11.823365"><ele>41.666666666666664</ele><time>2026-04-11T10:56:38.123Z</time></trkpt><trkpt lat="44.29891" lon="11.8236017"><ele>42.333333333333336</ele><time>2026-04-11T10:56:39.124Z</time></trkpt><trkpt lat="44.29885" lon="11.8238367"><ele>43.0</ele><time>2026-04-11T10:56:40.123Z</time></trkpt><trkpt lat="44.2987883" lon="11.8240633"><ele>43.0</ele><time>2026-04-11T10:56:41.123Z</time></trkpt><trkpt lat="44.2987217" lon="11.8242833"><ele>43.0</ele><time>2026-04-11T10:56:42.128Z</time></trkpt><trkpt lat="44.298645" lon="11.8244983"><ele>43.0</ele><time>2026-04-11T10:56:43.124Z</time></trkpt><trkpt lat="44.29856" lon="11.824705"><ele>42.333333333333336</ele><time>2026-04-11T10:56:44.125Z</time></trkpt><trkpt lat="44.298455" lon="11.8249067"><ele>41.666666666666664</ele><time>2026-04-11T10:56:45.124Z</time></trkpt><trkpt lat="44.2983467" lon="11.8251083"><ele>41.0</ele><time>2026-04-11T10:56:46.124Z</time></trkpt><trkpt lat="44.29824" lon="11.8253133"><ele>40.666666666666664</ele><time>2026-04-11T10:56:47.123Z</time></trkpt><trkpt lat="44.29813" lon="11.82552"><ele>40.333333333333336</ele><time>2026-04-11T10:56:48.123Z</time></trkpt><trkpt lat="44.29802" lon="11.8257317"><ele>40.0</ele><time>2026-04-11T10:56:49.123Z</time></trkpt><trkpt lat="44.2979133" lon="11.8259467"><ele>40.333333333333336</ele><time>2026-04-11T10:56:50.124Z</time></trkpt><trkpt lat="44.297805" lon="11.8261617"><ele>40.666666666666664</ele><time>2026-04-11T10:56:51.124Z</time></trkpt><trkpt lat="44.297695" lon="11.826375"><ele>41.0</ele><time>2026-04-11T10:56:52.124Z</time></trkpt><trkpt lat="44.297585" lon="11.82659"><ele>41.0</ele><time>2026-04-11T10:56:53.124Z</time></trkpt><trkpt lat="44.2974733" lon="11.8268"><ele>41.0</ele><time>2026-04-11T10:56:54.123Z</time></trkpt><trkpt lat="44.2973617" lon="11.8270117"><ele>41.0</ele><time>2026-04-11T10:56:55.124Z</time></trkpt><trkpt lat="44.2972517" lon="11.8272233"><ele>41.33333333333333</ele><time>2026-04-11T10:56:56.124Z</time></trkpt><trkpt lat="44.2971483" lon="11.827435"><ele>41.666666666666664</ele><time>2026-04-11T10:56:57.124Z</time></trkpt><trkpt lat="44.297055" lon="11.8276567"><ele>42.0</ele><time>2026-04-11T10:56:58.123Z</time></trkpt><trkpt lat="44.2969783" lon="11.827885"><ele>42.333333333333336</ele><time>2026-04-11T10:56:59.124Z</time></trkpt><trkpt lat="44.2969033" lon="11.8281117"><ele>42.66666666666667</ele><time>2026-04-11T10:57:00.125Z</time></trkpt><trkpt lat="44.2968183" lon="11.828315"><ele>43.0</ele><time>2026-04-11T10:57:01.125Z</time></trkpt><trkpt lat="44.2967117" lon="11.828495"><ele>43.0</ele><time>2026-04-11T10:57:02.123Z</time></trkpt><trkpt lat="44.296595" lon="11.8286667"><ele>43.0</ele><time>2026-04-11T10:57:03.125Z</time></trkpt><trkpt lat="44.296475" lon="11.8288417"><ele>43.0</ele><time>2026-04-11T10:57:04.124Z</time></trkpt><trkpt lat="44.2963517" lon="11.8290183"><ele>43.333333333333336</ele><time>2026-04-11T10:57:05.124Z</time></trkpt><trkpt lat="44.296225" lon="11.829195"><ele>43.666666666666664</ele><time>2026-04-11T10:57:06.124Z</time></trkpt><trkpt lat="44.2960967" lon="11.829375"><ele>44.0</ele><time>2026-04-11T10:57:07.124Z</time></trkpt><trkpt lat="44.2959683" lon="11.8295533"><ele>44.666666666666664</ele><time>2026-04-11T10:57:08.124Z</time></trkpt><trkpt lat="44.295835" lon="11.8297267"><ele>45.333333333333336</ele><time>2026-04-11T10:57:09.125Z</time></trkpt><trkpt lat="44.2956983" lon="11.829895"><ele>46.0</ele><time>2026-04-11T10:57:10.124Z</time></trkpt><trkpt lat="44.2955633" lon="11.830065"><ele>46.333333333333336</ele><time>2026-04-11T10:57:11.124Z</time></trkpt><trkpt lat="44.295425" lon="11.8302333"><ele>46.666666666666664</ele><time>2026-04-11T10:57:12.124Z</time></trkpt><trkpt lat="44.2952867" lon="11.8304033"><ele>47.0</ele><time>2026-04-11T10:57:13.122Z</time></trkpt><trkpt lat="44.2951533" lon="11.8305733"><ele>47.0</ele><time>2026-04-11T10:57:14.124Z</time></trkpt><trkpt lat="44.2950233" lon="11.8307483"><ele>47.0</ele><time>2026-04-11T10:57:15.124Z</time></trkpt><trkpt lat="44.2948983" lon="11.8309317"><ele>47.0</ele><time>2026-04-11T10:57:16.123Z</time></trkpt><trkpt lat="44.2947767" lon="11.8311183"><ele>46.33333333333333</ele><time>2026-04-11T10:57:17.124Z</time></trkpt><trkpt lat="44.2946583" lon="11.8313067"><ele>45.666666666666664</ele><time>2026-04-11T10:57:18.124Z</time></trkpt><trkpt lat="44.2945383" lon="11.831495"><ele>45.0</ele><time>2026-04-11T10:57:19.123Z</time></trkpt><trkpt lat="44.294415" lon="11.831685"><ele>45.333333333333336</ele><time>2026-04-11T10:57:20.124Z</time></trkpt><trkpt lat="44.2942917" lon="11.8318717"><ele>45.66666666666667</ele><time>2026-04-11T10:57:21.124Z</time></trkpt><trkpt lat="44.2941683" lon="11.8320583"><ele>46.0</ele><time>2026-04-11T10:57:22.123Z</time></trkpt><trkpt lat="44.2940467" lon="11.8322467"><ele>46.0</ele><time>2026-04-11T10:57:23.124Z</time></trkpt><trkpt lat="44.2939233" lon="11.8324333"><ele>46.0</ele><time>2026-04-11T10:57:24.124Z</time></trkpt><trkpt lat="44.2937967" lon="11.8326117"><ele>46.0</ele><time>2026-04-11T10:57:25.125Z</time></trkpt><trkpt lat="44.2936667" lon="11.832775"><ele>46.333333333333336</ele><time>2026-04-11T10:57:26.125Z</time></trkpt><trkpt lat="44.2935317" lon="11.832915"><ele>46.666666666666664</ele><time>2026-04-11T10:57:27.124Z</time></trkpt><trkpt lat="44.2934" lon="11.8330367"><ele>47.0</ele><time>2026-04-11T10:57:28.125Z</time></trkpt><trkpt lat="44.2932733" lon="11.8331483"><ele>47.0</ele><time>2026-04-11T10:57:29.123Z</time></trkpt><trkpt lat="44.2931533" lon="11.833255"><ele>47.0</ele><time>2026-04-11T10:57:30.124Z</time></trkpt><trkpt lat="44.293045" lon="11.8333567"><ele>47.0</ele><time>2026-04-11T10:57:31.124Z</time></trkpt><trkpt lat="44.2929417" lon="11.8334517"><ele>47.0</ele><time>2026-04-11T10:57:32.122Z</time></trkpt><trkpt lat="44.2928467" lon="11.8335333"><ele>47.33333333333333</ele><time>2026-04-11T10:57:33.124Z</time></trkpt><trkpt lat="44.2927617" lon="11.833605"><ele>47.666666666666664</ele><time>2026-04-11T10:57:34.124Z</time></trkpt><trkpt lat="44.2926867" lon="11.83367"><ele>48.0</ele><time>2026-04-11T10:57:35.123Z</time></trkpt><trkpt lat="44.2926167" lon="11.8337283"><ele>48.33333333333333</ele><time>2026-04-11T10:57:36.124Z</time></trkpt><trkpt lat="44.29255" lon="11.8337817"><ele>48.666666666666664</ele><time>2026-04-11T10:57:37.124Z</time></trkpt><trkpt lat="44.29249" lon="11.8338317"><ele>49.0</ele><time>2026-04-11T10:57:38.124Z</time></trkpt><trkpt lat="44.2924333" lon="11.8338783"><ele>48.99999999999999</ele><time>2026-04-11T10:57:39.123Z</time></trkpt><trkpt lat="44.2923783" lon="11.8339233"><ele>49.0</ele><time>2026-04-11T10:57:40.125Z</time></trkpt><trkpt lat="44.2923183" lon="11.8339733"><ele>49.0</ele><time>2026-04-11T10:57:41.124Z</time></trkpt><trkpt lat="44.292255" lon="11.8340417"><ele>49.0</ele><time>2026-04-11T10:57:42.124Z</time></trkpt><trkpt lat="44.2921917" lon="11.83412"><ele>48.99999999999999</ele><time>2026-04-11T10:57:43.125Z</time></trkpt><trkpt lat="44.2921317" lon="11.8342067"><ele>49.0</ele><time>2026-04-11T10:57:44.124Z</time></trkpt><trkpt lat="44.29207" lon="11.8342967"><ele>49.49999999999999</ele><time>2026-04-11T10:57:45.124Z</time></trkpt><trkpt lat="44.29201" lon="11.834385"><ele>50.0</ele><time>2026-04-11T10:57:46.124Z</time></trkpt><trkpt lat="44.2919517" lon="11.8344717"><ele>50.5</ele><time>2026-04-11T10:57:47.123Z</time></trkpt><trkpt lat="44.2918967" lon="11.8345567"><ele>51.0</ele><time>2026-04-11T10:57:48.122Z</time></trkpt><trkpt lat="44.2918467" lon="11.8346333"><ele>51.49999999999999</ele><time>2026-04-11T10:57:49.124Z</time></trkpt><trkpt lat="44.291795" lon="11.834715"><ele>52.0</ele><time>2026-04-11T10:57:50.124Z</time></trkpt><trkpt lat="44.2917417" lon="11.8348"><ele>51.99999999999999</ele><time>2026-04-11T10:57:51.124Z</time></trkpt><trkpt lat="44.29169" lon="11.8348783"><ele>52.0</ele><time>2026-04-11T10:57:52.125Z</time></trkpt><trkpt lat="44.2916433" lon="11.8349533"><ele>52.0</ele><time>2026-04-11T10:57:53.123Z</time></trkpt><trkpt lat="44.291595" lon="11.835025"><ele>52.0</ele><time>2026-04-11T10:57:54.124Z</time></trkpt><trkpt lat="44.2915433" lon="11.8350917"><ele>51.99999999999999</ele><time>2026-04-11T10:57:55.124Z</time></trkpt><trkpt lat="44.2914917" lon="11.8351483"><ele>52.0</ele><time>2026-04-11T10:57:56.124Z</time></trkpt><trkpt lat="44.2914083" lon="11.8352217"><ele>52.0</ele><time>2026-04-11T10:57:58.123Z</time></trkpt><trkpt lat="44.2912833" lon="11.835335"><ele>52.0</ele><time>2026-04-11T10:58:00.124Z</time></trkpt><trkpt lat="44.2912033" lon="11.8354083"><ele>52.0</ele><time>2026-04-11T10:58:01.124Z</time></trkpt><trkpt lat="44.29111" lon="11.8354867"><ele>52.0</ele><time>2026-04-11T10:58:02.125Z</time></trkpt><trkpt lat="44.2910067" lon="11.83557"><ele>52.0</ele><time>2026-04-11T10:58:03.124Z</time></trkpt><trkpt lat="44.2909067" lon="11.835655"><ele>52.0</ele><time>2026-04-11T10:58:04.124Z</time></trkpt><trkpt lat="44.2908083" lon="11.8357483"><ele>52.0</ele><time>2026-04-11T10:58:05.124Z</time></trkpt><trkpt lat="44.290705" lon="11.8358467"><ele>52.0</ele><time>2026-04-11T10:58:06.123Z</time></trkpt><trkpt lat="44.2905983" lon="11.83595"><ele>52.5</ele><time>2026-04-11T10:58:07.123Z</time></trkpt><trkpt lat="44.2904883" lon="11.8360533"><ele>53.0</ele><time>2026-04-11T10:58:08.124Z</time></trkpt><trkpt lat="44.29038" lon="11.8361633"><ele>53.5</ele><time>2026-04-11T10:58:09.124Z</time></trkpt><trkpt lat="44.2902683" lon="11.8362733"><ele>54.0</ele><time>2026-04-11T10:58:10.124Z</time></trkpt><trkpt lat="44.2901533" lon="11.836385"><ele>54.0</ele><time>2026-04-11T10:58:11.123Z</time></trkpt><trkpt lat="44.290035" lon="11.8364983"><ele>54.0</ele><time>2026-04-11T10:58:12.123Z</time></trkpt><trkpt lat="44.2899167" lon="11.8366133"><ele>54.0</ele><time>2026-04-11T10:58:13.123Z</time></trkpt><trkpt lat="44.289795" lon="11.83673"><ele>54.0</ele><time>2026-04-11T10:58:14.124Z</time></trkpt><trkpt lat="44.289675" lon="11.8368467"><ele>54.0</ele><time>2026-04-11T10:58:15.123Z</time></trkpt><trkpt lat="44.2895533" lon="11.8369617"><ele>54.0</ele><time>2026-04-11T10:58:16.123Z</time></trkpt><trkpt lat="44.28943" lon="11.8370817"><ele>54.0</ele><time>2026-04-11T10:58:17.123Z</time></trkpt><trkpt lat="44.2893033" lon="11.8372033"><ele>54.0</ele><time>2026-04-11T10:58:18.124Z</time></trkpt><trkpt lat="44.28918" lon="11.8373267"><ele>54.0</ele><time>2026-04-11T10:58:19.124Z</time></trkpt><trkpt lat="44.2890533" lon="11.83745"><ele>54.0</ele><time>2026-04-11T10:58:20.125Z</time></trkpt><trkpt lat="44.288925" lon="11.8375733"><ele>54.66666666666667</ele><time>2026-04-11T10:58:21.125Z</time></trkpt><trkpt lat="44.2887967" lon="11.837695"><ele>55.333333333333336</ele><time>2026-04-11T10:58:22.124Z</time></trkpt><trkpt lat="44.28867" lon="11.8378167"><ele>56.0</ele><time>2026-04-11T10:58:23.123Z</time></trkpt><trkpt lat="44.2885433" lon="11.8379417"><ele>56.0</ele><time>2026-04-11T10:58:24.123Z</time></trkpt><trkpt lat="44.288415" lon="11.8380683"><ele>56.0</ele><time>2026-04-11T10:58:25.124Z</time></trkpt><trkpt lat="44.288285" lon="11.838195"><ele>56.0</ele><time>2026-04-11T10:58:26.124Z</time></trkpt><trkpt lat="44.2881567" lon="11.8383217"><ele>55.75</ele><time>2026-04-11T10:58:27.124Z</time></trkpt><trkpt lat="44.2880267" lon="11.83845"><ele>55.5</ele><time>2026-04-11T10:58:28.124Z</time></trkpt><trkpt lat="44.287905" lon="11.8385683"><ele>55.25</ele><time>2026-04-11T10:58:29.123Z</time></trkpt><trkpt lat="44.2877917" lon="11.8386817"><ele>55.0</ele><time>2026-04-11T10:58:30.124Z</time></trkpt><trkpt lat="44.2876833" lon="11.8387833"><ele>55.0</ele><time>2026-04-11T10:58:31.124Z</time></trkpt><trkpt lat="44.2875867" lon="11.8388733"><ele>55.0</ele><time>2026-04-11T10:58:32.124Z</time></trkpt><trkpt lat="44.2875083" lon="11.83895"><ele>55.0</ele><time>2026-04-11T10:58:33.124Z</time></trkpt><trkpt lat="44.2874433" lon="11.8390033"><ele>55.0</ele><time>2026-04-11T10:58:34.124Z</time></trkpt><trkpt lat="44.2873333" lon="11.8390133"><ele>55.0</ele><time>2026-04-11T10:58:36.124Z</time></trkpt><trkpt lat="44.287265" lon="11.8389767"><ele>55.5</ele><time>2026-04-11T10:58:37.123Z</time></trkpt><trkpt lat="44.2871783" lon="11.83891"><ele>56.0</ele><time>2026-04-11T10:58:38.124Z</time></trkpt><trkpt lat="44.2870817" lon="11.838825"><ele>56.5</ele><time>2026-04-11T10:58:39.125Z</time></trkpt><trkpt lat="44.2869817" lon="11.838745"><ele>57.0</ele><time>2026-04-11T10:58:40.124Z</time></trkpt><trkpt lat="44.286875" lon="11.83866"><ele>57.0</ele><time>2026-04-11T10:58:41.124Z</time></trkpt><trkpt lat="44.2867517" lon="11.838565"><ele>57.0</ele><time>2026-04-11T10:58:42.124Z</time></trkpt><trkpt lat="44.2866367" lon="11.8384667"><ele>57.0</ele><time>2026-04-11T10:58:43.124Z</time></trkpt><trkpt lat="44.2865383" lon="11.8383767"><ele>57.0</ele><time>2026-04-11T10:58:44.124Z</time></trkpt><trkpt lat="44.2864667" lon="11.83826"><ele>57.25</ele><time>2026-04-11T10:58:45.123Z</time></trkpt><trkpt lat="44.2864167" lon="11.83811"><ele>57.5</ele><time>2026-04-11T10:58:46.124Z</time></trkpt><trkpt lat="44.2863783" lon="11.8379483"><ele>57.75</ele><time>2026-04-11T10:58:47.124Z</time></trkpt><trkpt lat="44.28634" lon="11.8377867"><ele>58.0</ele><time>2026-04-11T10:58:48.123Z</time></trkpt><trkpt lat="44.2863017" lon="11.8376367"><ele>58.2</ele><time>2026-04-11T10:58:49.124Z</time></trkpt><trkpt lat="44.28627" lon="11.8375033"><ele>58.4</ele><time>2026-04-11T10:58:50.124Z</time></trkpt><trkpt lat="44.2862567" lon="11.8373733"><ele>58.60000000000001</ele><time>2026-04-11T10:58:51.126Z</time></trkpt><trkpt lat="44.28626" lon="11.837235"><ele>58.800000000000004</ele><time>2026-04-11T10:58:52.124Z</time></trkpt><trkpt lat="44.2862767" lon="11.8370867"><ele>59.0</ele><time>2026-04-11T10:58:53.124Z</time></trkpt><trkpt lat="44.2863017" lon="11.8369267"><ele>59.75</ele><time>2026-04-11T10:58:54.124Z</time></trkpt><trkpt lat="44.28633" lon="11.836755"><ele>60.5</ele><time>2026-04-11T10:58:55.124Z</time></trkpt><trkpt lat="44.286355" lon="11.8365717"><ele>61.25</ele><time>2026-04-11T10:58:56.124Z</time></trkpt><trkpt lat="44.2863783" lon="11.836375"><ele>62.0</ele><time>2026-04-11T10:58:57.124Z</time></trkpt><trkpt lat="44.2864" lon="11.8361717"><ele>61.333333333333336</ele><time>2026-04-11T10:58:58.124Z</time></trkpt><trkpt lat="44.2864117" lon="11.8359633"><ele>60.66666666666667</ele><time>2026-04-11T10:58:59.123Z</time></trkpt><trkpt lat="44.2864133" lon="11.83575"><ele>60.0</ele><time>2026-04-11T10:59:00.125Z</time></trkpt><trkpt lat="44.2863967" lon="11.8355367"><ele>60.0</ele><time>2026-04-11T10:59:01.123Z</time></trkpt><trkpt lat="44.2863567" lon="11.8353317"><ele>60.0</ele><time>2026-04-11T10:59:02.124Z</time></trkpt><trkpt lat="44.2863033" lon="11.8351283"><ele>60.0</ele><time>2026-04-11T10:59:03.124Z</time></trkpt><trkpt lat="44.2862433" lon="11.8349217"><ele>59.33333333333333</ele><time>2026-04-11T10:59:04.125Z</time></trkpt><trkpt lat="44.2861833" lon="11.8347083"><ele>58.666666666666664</ele><time>2026-04-11T10:59:05.124Z</time></trkpt><trkpt lat="44.2861233" lon="11.83449"><ele>58.0</ele><time>2026-04-11T10:59:06.125Z</time></trkpt><trkpt lat="44.2860633" lon="11.83427"><ele>57.0</ele><time>2026-04-11T10:59:07.124Z</time></trkpt><trkpt lat="44.2860017" lon="11.83405"><ele>56.0</ele><time>2026-04-11T10:59:08.124Z</time></trkpt><trkpt lat="44.2859367" lon="11.83383"><ele>55.0</ele><time>2026-04-11T10:59:09.126Z</time></trkpt><trkpt lat="44.2858667" lon="11.833615"><ele>56.33333333333333</ele><time>2026-04-11T10:59:10.124Z</time></trkpt><trkpt lat="44.285795" lon="11.8334033"><ele>57.66666666666667</ele><time>2026-04-11T10:59:11.125Z</time></trkpt><trkpt lat="44.2857217" lon="11.8331917"><ele>59.0</ele><time>2026-04-11T10:59:12.128Z</time></trkpt><trkpt lat="44.28565" lon="11.8329783"><ele>58.66666666666667</ele><time>2026-04-11T10:59:13.124Z</time></trkpt><trkpt lat="44.2855883" lon="11.8327617"><ele>58.33333333333333</ele><time>2026-04-11T10:59:14.125Z</time></trkpt><trkpt lat="44.2855317" lon="11.832545"><ele>58.0</ele><time>2026-04-11T10:59:15.124Z</time></trkpt><trkpt lat="44.2854717" lon="11.8323283"><ele>59.666666666666664</ele><time>2026-04-11T10:59:16.128Z</time></trkpt><trkpt lat="44.2854133" lon="11.832115"><ele>61.33333333333333</ele><time>2026-04-11T10:59:17.125Z</time></trkpt><trkpt lat="44.2853483" lon="11.8319083"><ele>63.0</ele><time>2026-04-11T10:59:18.123Z</time></trkpt><trkpt lat="44.2852783" lon="11.8317017"><ele>65.0</ele><time>2026-04-11T10:59:19.124Z</time></trkpt><trkpt lat="44.2852067" lon="11.831495"><ele>67.0</ele><time>2026-04-11T10:59:20.124Z</time></trkpt><trkpt lat="44.2851367" lon="11.83129"><ele>69.0</ele><time>2026-04-11T10:59:21.124Z</time></trkpt><trkpt lat="44.2850617" lon="11.8310883"><ele>70.33333333333333</ele><time>2026-04-11T10:59:22.124Z</time></trkpt><trkpt lat="44.2849767" lon="11.8308933"><ele>71.66666666666666</ele><time>2026-04-11T10:59:23.123Z</time></trkpt><trkpt lat="44.2848833" lon="11.8307067"><ele>73.0</ele><time>2026-04-11T10:59:24.124Z</time></trkpt><trkpt lat="44.2847833" lon="11.8305217"><ele>73.0</ele><time>2026-04-11T10:59:25.123Z</time></trkpt><trkpt lat="44.284675" lon="11.8303433"><ele>73.0</ele><time>2026-04-11T10:59:26.124Z</time></trkpt><trkpt lat="44.2845667" lon="11.830165"><ele>73.0</ele><time>2026-04-11T10:59:27.124Z</time></trkpt><trkpt lat="44.284465" lon="11.829985"><ele>75.0</ele><time>2026-04-11T10:59:28.124Z</time></trkpt><trkpt lat="44.2843733" lon="11.8297967"><ele>77.0</ele><time>2026-04-11T10:59:29.125Z</time></trkpt><trkpt lat="44.2843033" lon="11.8295917"><ele>79.0</ele><time>2026-04-11T10:59:30.125Z</time></trkpt><trkpt lat="44.28425" lon="11.8293717"><ele>80.0</ele><time>2026-04-11T10:59:31.124Z</time></trkpt><trkpt lat="44.2842083" lon="11.8291483"><ele>81.0</ele><time>2026-04-11T10:59:32.124Z</time></trkpt><trkpt lat="44.2841717" lon="11.8289233"><ele>82.0</ele><time>2026-04-11T10:59:33.125Z</time></trkpt><trkpt lat="44.2841367" lon="11.8286983"><ele>82.33333333333333</ele><time>2026-04-11T10:59:34.124Z</time></trkpt><trkpt lat="44.2841017" lon="11.8284717"><ele>82.66666666666667</ele><time>2026-04-11T10:59:35.124Z</time></trkpt><trkpt lat="44.2840667" lon="11.8282417"><ele>83.0</ele><time>2026-04-11T10:59:36.124Z</time></trkpt><trkpt lat="44.2840317" lon="11.8280133"><ele>83.0</ele><time>2026-04-11T10:59:37.124Z</time></trkpt><trkpt lat="44.283995" lon="11.8277833"><ele>83.0</ele><time>2026-04-11T10:59:38.124Z</time></trkpt><trkpt lat="44.28395" lon="11.8275517"><ele>83.0</ele><time>2026-04-11T10:59:39.124Z</time></trkpt><trkpt lat="44.283895" lon="11.8273233"><ele>84.33333333333334</ele><time>2026-04-11T10:59:40.124Z</time></trkpt><trkpt lat="44.28383" lon="11.8270983"><ele>85.66666666666667</ele><time>2026-04-11T10:59:41.124Z</time></trkpt><trkpt lat="44.2837583" lon="11.8268833"><ele>87.0</ele><time>2026-04-11T10:59:42.124Z</time></trkpt><trkpt lat="44.2836833" lon="11.826675"><ele>87.66666666666667</ele><time>2026-04-11T10:59:43.123Z</time></trkpt><trkpt lat="44.2836033" lon="11.8264733"><ele>88.33333333333334</ele><time>2026-04-11T10:59:44.124Z</time></trkpt><trkpt lat="44.2835217" lon="11.82628"><ele>89.0</ele><time>2026-04-11T10:59:45.124Z</time></trkpt><trkpt lat="44.28344" lon="11.826085"><ele>89.33333333333334</ele><time>2026-04-11T10:59:46.124Z</time></trkpt><trkpt lat="44.2833567" lon="11.8258933"><ele>89.66666666666667</ele><time>2026-04-11T10:59:47.123Z</time></trkpt><trkpt lat="44.2832667" lon="11.825705"><ele>90.0</ele><time>2026-04-11T10:59:48.124Z</time></trkpt><trkpt lat="44.2831767" lon="11.8255133"><ele>91.0</ele><time>2026-04-11T10:59:49.124Z</time></trkpt><trkpt lat="44.2830867" lon="11.8253167"><ele>92.0</ele><time>2026-04-11T10:59:50.124Z</time></trkpt><trkpt lat="44.282995" lon="11.8251117"><ele>93.0</ele><time>2026-04-11T10:59:51.125Z</time></trkpt><trkpt lat="44.2829083" lon="11.8248983"><ele>94.0</ele><time>2026-04-11T10:59:52.124Z</time></trkpt><trkpt lat="44.2828317" lon="11.8246717"><ele>95.0</ele><time>2026-04-11T10:59:53.124Z</time></trkpt><trkpt lat="44.282765" lon="11.824435"><ele>96.0</ele><time>2026-04-11T10:59:54.124Z</time></trkpt><trkpt lat="44.2827033" lon="11.8241917"><ele>96.33333333333334</ele><time>2026-04-11T10:59:55.124Z</time></trkpt><trkpt lat="44.282645" lon="11.8239467"><ele>96.66666666666667</ele><time>2026-04-11T10:59:56.124Z</time></trkpt><trkpt lat="44.28259" lon="11.8236967"><ele>97.0</ele><time>2026-04-11T10:59:57.124Z</time></trkpt><trkpt lat="44.282535" lon="11.8234483"><ele>97.66666666666667</ele><time>2026-04-11T10:59:58.123Z</time></trkpt><trkpt lat="44.2824833" lon="11.8232017"><ele>98.33333333333334</ele><time>2026-04-11T10:59:59.124Z</time></trkpt><trkpt lat="44.2824383" lon="11.8229567"><ele>99.0</ele><time>2026-04-11T11:00:00.124Z</time></trkpt><trkpt lat="44.2824033" lon="11.8227133"><ele>100.0</ele><time>2026-04-11T11:00:01.124Z</time></trkpt><trkpt lat="44.28239" lon="11.8224867"><ele>101.0</ele><time>2026-04-11T11:00:02.125Z</time></trkpt><trkpt lat="44.2823967" lon="11.8222733"><ele>102.0</ele><time>2026-04-11T11:00:03.127Z</time></trkpt><trkpt lat="44.2824167" lon="11.8220683"><ele>102.0</ele><time>2026-04-11T11:00:04.124Z</time></trkpt><trkpt lat="44.28245" lon="11.821865"><ele>102.0</ele><time>2026-04-11T11:00:05.125Z</time></trkpt><trkpt lat="44.28249" lon="11.8216567"><ele>102.0</ele><time>2026-04-11T11:00:06.125Z</time></trkpt><trkpt lat="44.2825067" lon="11.8214433"><ele>103.0</ele><time>2026-04-11T11:00:07.124Z</time></trkpt><trkpt lat="44.2824917" lon="11.8212233"><ele>104.0</ele><time>2026-04-11T11:00:08.125Z</time></trkpt><trkpt lat="44.2824683" lon="11.8209967"><ele>105.0</ele><time>2026-04-11T11:00:09.125Z</time></trkpt><trkpt lat="44.2824367" lon="11.8207633"><ele>105.66666666666666</ele><time>2026-04-11T11:00:10.123Z</time></trkpt><trkpt lat="44.2823933" lon="11.8205283"><ele>106.33333333333333</ele><time>2026-04-11T11:00:11.125Z</time></trkpt><trkpt lat="44.2823433" lon="11.8202933"><ele>107.0</ele><time>2026-04-11T11:00:12.125Z</time></trkpt><trkpt lat="44.2822983" lon="11.82005"><ele>108.66666666666666</ele><time>2026-04-11T11:00:13.124Z</time></trkpt><trkpt lat="44.2822533" lon="11.8198033"><ele>110.33333333333334</ele><time>2026-04-11T11:00:14.123Z</time></trkpt><trkpt lat="44.2822067" lon="11.8195567"><ele>112.0</ele><time>2026-04-11T11:00:15.126Z</time></trkpt><trkpt lat="44.2821617" lon="11.8193117"><ele>112.33333333333334</ele><time>2026-04-11T11:00:16.123Z</time></trkpt><trkpt lat="44.2821167" lon="11.8190683"><ele>112.66666666666666</ele><time>2026-04-11T11:00:17.122Z</time></trkpt><trkpt lat="44.28207" lon="11.8188233"><ele>113.0</ele><time>2026-04-11T11:00:18.124Z</time></trkpt><trkpt lat="44.28202" lon="11.8185817"><ele>113.0</ele><time>2026-04-11T11:00:19.123Z</time></trkpt><trkpt lat="44.2819633" lon="11.818345"><ele>113.0</ele><time>2026-04-11T11:00:20.124Z</time></trkpt><trkpt lat="44.2818833" lon="11.818125"><ele>113.0</ele><time>2026-04-11T11:00:21.124Z</time></trkpt><trkpt lat="44.2817917" lon="11.8179217"><ele>113.0</ele><time>2026-04-11T11:00:22.125Z</time></trkpt><trkpt lat="44.2816917" lon="11.8177233"><ele>113.0</ele><time>2026-04-11T11:00:23.123Z</time></trkpt><trkpt lat="44.2815867" lon="11.8175267"><ele>113.0</ele><time>2026-04-11T11:00:24.125Z</time></trkpt><trkpt lat="44.2814817" lon="11.817325"><ele>113.0</ele><time>2026-04-11T11:00:25.124Z</time></trkpt><trkpt lat="44.281375" lon="11.8171233"><ele>113.0</ele><time>2026-04-11T11:00:26.124Z</time></trkpt><trkpt lat="44.2812667" lon="11.81692"><ele>113.0</ele><time>2026-04-11T11:00:27.124Z</time></trkpt><trkpt lat="44.2811567" lon="11.8167167"><ele>115.66666666666666</ele><time>2026-04-11T11:00:28.123Z</time></trkpt><trkpt lat="44.2810433" lon="11.8165133"><ele>118.33333333333334</ele><time>2026-04-11T11:00:29.125Z</time></trkpt><trkpt lat="44.2809317" lon="11.8163117"><ele>121.0</ele><time>2026-04-11T11:00:30.124Z</time></trkpt><trkpt lat="44.28082" lon="11.8161083"><ele>121.66666666666667</ele><time>2026-04-11T11:00:31.124Z</time></trkpt><trkpt lat="44.28071" lon="11.815905"><ele>122.33333333333334</ele><time>2026-04-11T11:00:32.124Z</time></trkpt><trkpt lat="44.2806" lon="11.815705"><ele>123.0</ele><time>2026-04-11T11:00:33.126Z</time></trkpt><trkpt lat="44.2804917" lon="11.81551"><ele>123.0</ele><time>2026-04-11T11:00:34.125Z</time></trkpt><trkpt lat="44.280385" lon="11.8153133"><ele>123.0</ele><time>2026-04-11T11:00:35.124Z</time></trkpt><trkpt lat="44.280275" lon="11.8151217"><ele>123.0</ele><time>2026-04-11T11:00:36.124Z</time></trkpt><trkpt lat="44.280165" lon="11.814925"><ele>125.33333333333334</ele><time>2026-04-11T11:00:37.124Z</time></trkpt><trkpt lat="44.2800583" lon="11.8147283"><ele>127.66666666666667</ele><time>2026-04-11T11:00:38.123Z</time></trkpt><trkpt lat="44.27995" lon="11.8145267"><ele>130.0</ele><time>2026-04-11T11:00:39.125Z</time></trkpt><trkpt lat="44.2798433" lon="11.8143233"><ele>129.0</ele><time>2026-04-11T11:00:40.124Z</time></trkpt><trkpt lat="44.2797367" lon="11.8141217"><ele>128.0</ele><time>2026-04-11T11:00:41.124Z</time></trkpt><trkpt lat="44.2796317" lon="11.8139217"><ele>127.0</ele><time>2026-04-11T11:00:42.124Z</time></trkpt><trkpt lat="44.2795233" lon="11.8137233"><ele>127.0</ele><time>2026-04-11T11:00:43.124Z</time></trkpt><trkpt lat="44.279415" lon="11.813525"><ele>127.0</ele><time>2026-04-11T11:00:44.124Z</time></trkpt><trkpt lat="44.2793083" lon="11.8133283"><ele>127.0</ele><time>2026-04-11T11:00:45.125Z</time></trkpt><trkpt lat="44.2792" lon="11.81313"><ele>130.33333333333334</ele><time>2026-04-11T11:00:46.124Z</time></trkpt><trkpt lat="44.2790917" lon="11.8129333"><ele>133.66666666666666</ele><time>2026-04-11T11:00:47.124Z</time></trkpt><trkpt lat="44.278985" lon="11.812735"><ele>137.0</ele><time>2026-04-11T11:00:48.124Z</time></trkpt><trkpt lat="44.2788767" lon="11.8125367"><ele>139.33333333333331</ele><time>2026-04-11T11:00:49.124Z</time></trkpt><trkpt lat="44.27877" lon="11.8123467"><ele>141.66666666666666</ele><time>2026-04-11T11:00:50.124Z</time></trkpt><trkpt lat="44.27866" lon="11.8121617"><ele>144.0</ele><time>2026-04-11T11:00:51.125Z</time></trkpt><trkpt lat="44.2785417" lon="11.8119833"><ele>145.0</ele><time>2026-04-11T11:00:52.124Z</time></trkpt><trkpt lat="44.2784217" lon="11.811805"><ele>146.0</ele><time>2026-04-11T11:00:53.123Z</time></trkpt><trkpt lat="44.2783" lon="11.8116333"><ele>147.0</ele><time>2026-04-11T11:00:54.125Z</time></trkpt><trkpt lat="44.2781783" lon="11.811455"><ele>149.66666666666666</ele><time>2026-04-11T11:00:55.125Z</time></trkpt><trkpt lat="44.278065" lon="11.8112683"><ele>152.33333333333331</ele><time>2026-04-11T11:00:56.124Z</time></trkpt><trkpt lat="44.2779583" lon="11.8110667"><ele>155.0</ele><time>2026-04-11T11:00:57.124Z</time></trkpt><trkpt lat="44.27786" lon="11.81086"><ele>156.66666666666666</ele><time>2026-04-11T11:00:58.124Z</time></trkpt><trkpt lat="44.2777633" lon="11.8106517"><ele>158.33333333333334</ele><time>2026-04-11T11:00:59.126Z</time></trkpt><trkpt lat="44.2776633" lon="11.8104433"><ele>160.0</ele><time>2026-04-11T11:01:00.124Z</time></trkpt><trkpt lat="44.27756" lon="11.8102367"><ele>158.0</ele><time>2026-04-11T11:01:01.124Z</time></trkpt><trkpt lat="44.2774567" lon="11.810025"><ele>156.0</ele><time>2026-04-11T11:01:02.125Z</time></trkpt><trkpt lat="44.2773533" lon="11.80982"><ele>154.0</ele><time>2026-04-11T11:01:03.124Z</time></trkpt><trkpt lat="44.2772517" lon="11.8096167"><ele>159.66666666666669</ele><time>2026-04-11T11:01:04.124Z</time></trkpt><trkpt lat="44.277145" lon="11.809415"><ele>165.33333333333334</ele><time>2026-04-11T11:01:05.125Z</time></trkpt><trkpt lat="44.277045" lon="11.8092283"><ele>171.0</ele><time>2026-04-11T11:01:06.124Z</time></trkpt><trkpt lat="44.2769633" lon="11.8090533"><ele>171.0</ele><time>2026-04-11T11:01:07.125Z</time></trkpt><trkpt lat="44.2769067" lon="11.8088833"><ele>171.0</ele><time>2026-04-11T11:01:08.124Z</time></trkpt><trkpt lat="44.2768867" lon="11.808695"><ele>171.0</ele><time>2026-04-11T11:01:09.124Z</time></trkpt><trkpt lat="44.276895" lon="11.8085"><ele>171.0</ele><time>2026-04-11T11:01:10.127Z</time></trkpt><trkpt lat="44.2768833" lon="11.8083133"><ele>169.0</ele><time>2026-04-11T11:01:11.124Z</time></trkpt><trkpt lat="44.2768383" lon="11.808135"><ele>167.0</ele><time>2026-04-11T11:01:12.123Z</time></trkpt><trkpt lat="44.2767683" lon="11.8079583"><ele>165.0</ele><time>2026-04-11T11:01:13.124Z</time></trkpt><trkpt lat="44.2766967" lon="11.80778"><ele>163.0</ele><time>2026-04-11T11:01:14.125Z</time></trkpt><trkpt lat="44.27665" lon="11.807605"><ele>162.5</ele><time>2026-04-11T11:01:15.124Z</time></trkpt><trkpt lat="44.2766483" lon="11.80743"><ele>162.0</ele><time>2026-04-11T11:01:16.123Z</time></trkpt><trkpt lat="44.27669" lon="11.8072567"><ele>161.5</ele><time>2026-04-11T11:01:17.123Z</time></trkpt><trkpt lat="44.27675" lon="11.8070833"><ele>161.0</ele><time>2026-04-11T11:01:18.124Z</time></trkpt><trkpt lat="44.2767967" lon="11.8069117"><ele>161.5</ele><time>2026-04-11T11:01:19.124Z</time></trkpt><trkpt lat="44.2768117" lon="11.8067433"><ele>162.0</ele><time>2026-04-11T11:01:20.124Z</time></trkpt><trkpt lat="44.2768" lon="11.8065717"><ele>162.5</ele><time>2026-04-11T11:01:21.124Z</time></trkpt><trkpt lat="44.2767517" lon="11.8064083"><ele>163.0</ele><time>2026-04-11T11:01:22.124Z</time></trkpt><trkpt lat="44.27668" lon="11.8062617"><ele>163.0</ele><time>2026-04-11T11:01:23.124Z</time></trkpt><trkpt lat="44.2766017" lon="11.806125"><ele>163.0</ele><time>2026-04-11T11:01:24.124Z</time></trkpt><trkpt lat="44.27652" lon="11.806"><ele>163.0</ele><time>2026-04-11T11:01:25.124Z</time></trkpt><trkpt lat="44.2764467" lon="11.80588"><ele>163.0</ele><time>2026-04-11T11:01:26.124Z</time></trkpt><trkpt lat="44.27638" lon="11.8057533"><ele>164.60000000000002</ele><time>2026-04-11T11:01:27.124Z</time></trkpt><trkpt lat="44.2763117" lon="11.8056283"><ele>166.20000000000002</ele><time>2026-04-11T11:01:28.123Z</time></trkpt><trkpt lat="44.27625" lon="11.8055017"><ele>167.8</ele><time>2026-04-11T11:01:29.123Z</time></trkpt><trkpt lat="44.276185" lon="11.8053733"><ele>169.4</ele><time>2026-04-11T11:01:30.124Z</time></trkpt><trkpt lat="44.2761183" lon="11.8052517"><ele>171.0</ele><time>2026-04-11T11:01:31.124Z</time></trkpt><trkpt lat="44.2760667" lon="11.8051317"><ele>171.0</ele><time>2026-04-11T11:01:32.123Z</time></trkpt><trkpt lat="44.276015" lon="11.8050117"><ele>171.0</ele><time>2026-04-11T11:01:33.124Z</time></trkpt><trkpt lat="44.275965" lon="11.8048967"><ele>171.0</ele><time>2026-04-11T11:01:34.123Z</time></trkpt><trkpt lat="44.275925" lon="11.8047833"><ele>171.0</ele><time>2026-04-11T11:01:35.124Z</time></trkpt><trkpt lat="44.2758883" lon="11.804685"><ele>171.0</ele><time>2026-04-11T11:01:36.124Z</time></trkpt><trkpt lat="44.275855" lon="11.8046067"><ele>171.0</ele><time>2026-04-11T11:01:37.124Z</time></trkpt><trkpt lat="44.2758067" lon="11.804475"><ele>171.0</ele><time>2026-04-11T11:01:39.125Z</time></trkpt><trkpt lat="44.275725" lon="11.804335"><ele>171.0</ele><time>2026-04-11T11:01:41.124Z</time></trkpt><trkpt lat="44.2756567" lon="11.8042617"><ele>171.0</ele><time>2026-04-11T11:01:42.125Z</time></trkpt><trkpt lat="44.2755717" lon="11.8041983"><ele>171.0</ele><time>2026-04-11T11:01:43.124Z</time></trkpt><trkpt lat="44.2754733" lon="11.8041533"><ele>171.0</ele><time>2026-04-11T11:01:44.123Z</time></trkpt><trkpt lat="44.275365" lon="11.8041167"><ele>172.5</ele><time>2026-04-11T11:01:45.124Z</time></trkpt><trkpt lat="44.2752517" lon="11.804085"><ele>174.0</ele><time>2026-04-11T11:01:46.122Z</time></trkpt><trkpt lat="44.275135" lon="11.8040517"><ele>175.5</ele><time>2026-04-11T11:01:47.123Z</time></trkpt><trkpt lat="44.2750067" lon="11.80402"><ele>177.0</ele><time>2026-04-11T11:01:48.125Z</time></trkpt><trkpt lat="44.27488" lon="11.80397"><ele>181.75</ele><time>2026-04-11T11:01:49.125Z</time></trkpt><trkpt lat="44.27475" lon="11.8039217"><ele>186.5</ele><time>2026-04-11T11:01:50.124Z</time></trkpt><trkpt lat="44.2746183" lon="11.8038617"><ele>191.25</ele><time>2026-04-11T11:01:51.124Z</time></trkpt><trkpt lat="44.27449" lon="11.803785"><ele>196.0</ele><time>2026-04-11T11:01:52.126Z</time></trkpt><trkpt lat="44.274365" lon="11.8036917"><ele>196.0</ele><time>2026-04-11T11:01:53.124Z</time></trkpt><trkpt lat="44.27424" lon="11.8035933"><ele>196.0</ele><time>2026-04-11T11:01:54.124Z</time></trkpt><trkpt lat="44.2741167" lon="11.803495"><ele>196.0</ele><time>2026-04-11T11:01:55.124Z</time></trkpt><trkpt lat="44.2739917" lon="11.8034067"><ele>196.0</ele><time>2026-04-11T11:01:56.124Z</time></trkpt><trkpt lat="44.2738683" lon="11.8033167"><ele>194.75</ele><time>2026-04-11T11:01:57.124Z</time></trkpt><trkpt lat="44.27375" lon="11.8032167"><ele>193.5</ele><time>2026-04-11T11:01:58.124Z</time></trkpt><trkpt lat="44.273635" lon="11.8031067"><ele>192.25</ele><time>2026-04-11T11:01:59.124Z</time></trkpt><trkpt lat="44.2735267" lon="11.8029933"><ele>191.0</ele><time>2026-04-11T11:02:00.124Z</time></trkpt><trkpt lat="44.27344" lon="11.8028717"><ele>191.0</ele><time>2026-04-11T11:02:01.124Z</time></trkpt><trkpt lat="44.27337" lon="11.802725"><ele>191.0</ele><time>2026-04-11T11:02:02.125Z</time></trkpt><trkpt lat="44.2733167" lon="11.80256"><ele>191.0</ele><time>2026-04-11T11:02:03.124Z</time></trkpt><trkpt lat="44.273255" lon="11.8024067"><ele>191.0</ele><time>2026-04-11T11:02:04.124Z</time></trkpt><trkpt lat="44.273175" lon="11.8022733"><ele>190.75</ele><time>2026-04-11T11:02:05.124Z</time></trkpt><trkpt lat="44.2730733" lon="11.8021667"><ele>190.5</ele><time>2026-04-11T11:02:06.125Z</time></trkpt><trkpt lat="44.27296" lon="11.802075"><ele>190.25</ele><time>2026-04-11T11:02:07.125Z</time></trkpt><trkpt lat="44.272835" lon="11.8019967"><ele>190.0</ele><time>2026-04-11T11:02:08.124Z</time></trkpt><trkpt lat="44.2727" lon="11.8019233"><ele>190.0</ele><time>2026-04-11T11:02:09.124Z</time></trkpt><trkpt lat="44.2725567" lon="11.8018483"><ele>190.0</ele><time>2026-04-11T11:02:10.125Z</time></trkpt><trkpt lat="44.2724167" lon="11.8017583"><ele>190.0</ele><time>2026-04-11T11:02:11.124Z</time></trkpt><trkpt lat="44.27228" lon="11.8016583"><ele>187.5</ele><time>2026-04-11T11:02:12.124Z</time></trkpt><trkpt lat="44.272155" lon="11.8015533"><ele>185.0</ele><time>2026-04-11T11:02:13.123Z</time></trkpt><trkpt lat="44.2720417" lon="11.801455"><ele>182.5</ele><time>2026-04-11T11:02:14.124Z</time></trkpt><trkpt lat="44.27194" lon="11.8013583"><ele>180.0</ele><time>2026-04-11T11:02:15.124Z</time></trkpt><trkpt lat="44.2718533" lon="11.80127"><ele>180.0</ele><time>2026-04-11T11:02:16.124Z</time></trkpt><trkpt lat="44.27178" lon="11.801185"><ele>180.0</ele><time>2026-04-11T11:02:17.123Z</time></trkpt><trkpt lat="44.2717217" lon="11.8010883"><ele>180.0</ele><time>2026-04-11T11:02:18.124Z</time></trkpt><trkpt lat="44.27168" lon="11.8009667"><ele>180.0</ele><time>2026-04-11T11:02:19.123Z</time></trkpt><trkpt lat="44.2716583" lon="11.8008233"><ele>180.0</ele><time>2026-04-11T11:02:20.124Z</time></trkpt><trkpt lat="44.2716417" lon="11.80067"><ele>180.25</ele><time>2026-04-11T11:02:21.125Z</time></trkpt><trkpt lat="44.27163" lon="11.8005117"><ele>180.5</ele><time>2026-04-11T11:02:22.123Z</time></trkpt><trkpt lat="44.2716167" lon="11.8003467"><ele>180.75</ele><time>2026-04-11T11:02:23.124Z</time></trkpt><trkpt lat="44.2715883" lon="11.8001883"><ele>181.0</ele><time>2026-04-11T11:02:24.124Z</time></trkpt><trkpt lat="44.2715433" lon="11.80004"><ele>181.0</ele><time>2026-04-11T11:02:25.125Z</time></trkpt><trkpt lat="44.2714817" lon="11.7998983"><ele>181.0</ele><time>2026-04-11T11:02:26.124Z</time></trkpt><trkpt lat="44.271405" lon="11.7997617"><ele>181.0</ele><time>2026-04-11T11:02:27.125Z</time></trkpt><trkpt lat="44.2713167" lon="11.7996283"><ele>181.0</ele><time>2026-04-11T11:02:28.123Z</time></trkpt><trkpt lat="44.27122" lon="11.79949"><ele>181.0</ele><time>2026-04-11T11:02:29.125Z</time></trkpt><trkpt lat="44.2711083" lon="11.7993517"><ele>181.0</ele><time>2026-04-11T11:02:30.124Z</time></trkpt><trkpt lat="44.271005" lon="11.7992117"><ele>181.0</ele><time>2026-04-11T11:02:31.124Z</time></trkpt><trkpt lat="44.2709067" lon="11.79906"><ele>181.0</ele><time>2026-04-11T11:02:32.124Z</time></trkpt><trkpt lat="44.2708183" lon="11.7989067"><ele>181.0</ele><time>2026-04-11T11:02:33.123Z</time></trkpt><trkpt lat="44.2707417" lon="11.7987433"><ele>181.0</ele><time>2026-04-11T11:02:34.124Z</time></trkpt><trkpt lat="44.2706717" lon="11.798575"><ele>181.0</ele><time>2026-04-11T11:02:35.125Z</time></trkpt><trkpt lat="44.2706" lon="11.7984133"><ele>181.0</ele><time>2026-04-11T11:02:36.123Z</time></trkpt><trkpt lat="44.2705267" lon="11.7982633"><ele>180.0</ele><time>2026-04-11T11:02:37.126Z</time></trkpt><trkpt lat="44.2704517" lon="11.7981267"><ele>179.0</ele><time>2026-04-11T11:02:38.124Z</time></trkpt><trkpt lat="44.27038" lon="11.7979983"><ele>178.0</ele><time>2026-04-11T11:02:39.125Z</time></trkpt><trkpt lat="44.2703067" lon="11.7978733"><ele>177.0</ele><time>2026-04-11T11:02:40.123Z</time></trkpt><trkpt lat="44.2702317" lon="11.7977467"><ele>177.39999999999998</ele><time>2026-04-11T11:02:41.124Z</time></trkpt><trkpt lat="44.270155" lon="11.7976217"><ele>177.79999999999998</ele><time>2026-04-11T11:02:42.124Z</time></trkpt><trkpt lat="44.270085" lon="11.797505"><ele>178.2</ele><time>2026-04-11T11:02:43.125Z</time></trkpt><trkpt lat="44.2700217" lon="11.7973933"><ele>178.6</ele><time>2026-04-11T11:02:44.124Z</time></trkpt><trkpt lat="44.2699683" lon="11.797295"><ele>179.0</ele><time>2026-04-11T11:02:45.125Z</time></trkpt><trkpt lat="44.2699283" lon="11.7972133"><ele>179.0</ele><time>2026-04-11T11:02:46.125Z</time></trkpt><trkpt lat="44.269875" lon="11.7970983"><ele>179.0</ele><time>2026-04-11T11:02:48.124Z</time></trkpt><trkpt lat="44.269845" lon="11.7970067"><ele>179.0</ele><time>2026-04-11T11:02:50.125Z</time></trkpt><trkpt lat="44.26978" lon="11.7968467"><ele>179.0</ele><time>2026-04-11T11:02:52.124Z</time></trkpt><trkpt lat="44.2697317" lon="11.796735"><ele>179.0</ele><time>2026-04-11T11:02:53.124Z</time></trkpt><trkpt lat="44.2696783" lon="11.7966117"><ele>179.75</ele><time>2026-04-11T11:02:54.124Z</time></trkpt><trkpt lat="44.269625" lon="11.7964767"><ele>180.5</ele><time>2026-04-11T11:02:55.124Z</time></trkpt><trkpt lat="44.26957" lon="11.79633"><ele>181.25</ele><time>2026-04-11T11:02:56.123Z</time></trkpt><trkpt lat="44.26951" lon="11.7961767"><ele>182.0</ele><time>2026-04-11T11:02:57.124Z</time></trkpt><trkpt lat="44.2694467" lon="11.7960167"><ele>183.75</ele><time>2026-04-11T11:02:58.124Z</time></trkpt><trkpt lat="44.26938" lon="11.7958533"><ele>185.5</ele><time>2026-04-11T11:02:59.125Z</time></trkpt><trkpt lat="44.269315" lon="11.7956817"><ele>187.25</ele><time>2026-04-11T11:03:00.125Z</time></trkpt><trkpt lat="44.2692467" lon="11.7955083"><ele>189.0</ele><time>2026-04-11T11:03:01.124Z</time></trkpt><trkpt lat="44.2691733" lon="11.79533"><ele>189.75</ele><time>2026-04-11T11:03:02.124Z</time></trkpt><trkpt lat="44.2691017" lon="11.7951483"><ele>190.5</ele><time>2026-04-11T11:03:03.125Z</time></trkpt><trkpt lat="44.2690233" lon="11.7949667"><ele>191.25</ele><time>2026-04-11T11:03:04.123Z</time></trkpt><trkpt lat="44.2689483" lon="11.7947867"><ele>192.0</ele><time>2026-04-11T11:03:05.124Z</time></trkpt><trkpt lat="44.26888" lon="11.7946033"><ele>192.0</ele><time>2026-04-11T11:03:06.124Z</time></trkpt><trkpt lat="44.2688217" lon="11.7944167"><ele>192.0</ele><time>2026-04-11T11:03:07.124Z</time></trkpt><trkpt lat="44.2687667" lon="11.7942333"><ele>192.0</ele><time>2026-04-11T11:03:08.124Z</time></trkpt><trkpt lat="44.2687167" lon="11.794055"><ele>192.0</ele><time>2026-04-11T11:03:09.124Z</time></trkpt><trkpt lat="44.2686767" lon="11.793875"><ele>194.0</ele><time>2026-04-11T11:03:10.124Z</time></trkpt><trkpt lat="44.2686433" lon="11.7937"><ele>196.0</ele><time>2026-04-11T11:03:11.123Z</time></trkpt><trkpt lat="44.26861" lon="11.7935383"><ele>198.0</ele><time>2026-04-11T11:03:12.124Z</time></trkpt><trkpt lat="44.2685633" lon="11.7934033"><ele>200.0</ele><time>2026-04-11T11:03:13.124Z</time></trkpt><trkpt lat="44.2684967" lon="11.7932917"><ele>201.0</ele><time>2026-04-11T11:03:14.124Z</time></trkpt><trkpt lat="44.2684083" lon="11.7932033"><ele>202.0</ele><time>2026-04-11T11:03:15.124Z</time></trkpt><trkpt lat="44.2683017" lon="11.7931183"><ele>203.0</ele><time>2026-04-11T11:03:16.125Z</time></trkpt><trkpt lat="44.26819" lon="11.7930233"><ele>204.0</ele><time>2026-04-11T11:03:17.124Z</time></trkpt><trkpt lat="44.2680767" lon="11.7929117"><ele>204.0</ele><time>2026-04-11T11:03:18.124Z</time></trkpt><trkpt lat="44.26797" lon="11.7927967"><ele>204.0</ele><time>2026-04-11T11:03:19.124Z</time></trkpt><trkpt lat="44.2678633" lon="11.7926683"><ele>204.0</ele><time>2026-04-11T11:03:20.123Z</time></trkpt><trkpt lat="44.267755" lon="11.792525"><ele>204.0</ele><time>2026-04-11T11:03:21.123Z</time></trkpt><trkpt lat="44.2676583" lon="11.7923767"><ele>206.0</ele><time>2026-04-11T11:03:22.124Z</time></trkpt><trkpt lat="44.2675683" lon="11.7922183"><ele>208.0</ele><time>2026-04-11T11:03:23.124Z</time></trkpt><trkpt lat="44.267495" lon="11.7920533"><ele>210.0</ele><time>2026-04-11T11:03:24.125Z</time></trkpt><trkpt lat="44.2674367" lon="11.7918767"><ele>212.0</ele><time>2026-04-11T11:03:25.124Z</time></trkpt><trkpt lat="44.2673833" lon="11.791695"><ele>212.25</ele><time>2026-04-11T11:03:26.124Z</time></trkpt><trkpt lat="44.267325" lon="11.7915133"><ele>212.5</ele><time>2026-04-11T11:03:27.124Z</time></trkpt><trkpt lat="44.2672517" lon="11.79135"><ele>212.75</ele><time>2026-04-11T11:03:28.124Z</time></trkpt><trkpt lat="44.2671633" lon="11.79121"><ele>213.0</ele><time>2026-04-11T11:03:29.124Z</time></trkpt><trkpt lat="44.26706" lon="11.7911033"><ele>213.0</ele><time>2026-04-11T11:03:30.124Z</time></trkpt><trkpt lat="44.26694" lon="11.7910117"><ele>213.0</ele><time>2026-04-11T11:03:31.122Z</time></trkpt><trkpt lat="44.2668167" lon="11.79093"><ele>213.0</ele><time>2026-04-11T11:03:32.124Z</time></trkpt><trkpt lat="44.2666883" lon="11.7908383"><ele>213.0</ele><time>2026-04-11T11:03:33.124Z</time></trkpt><trkpt lat="44.26655" lon="11.7907367"><ele>213.0</ele><time>2026-04-11T11:03:34.122Z</time></trkpt><trkpt lat="44.2664067" lon="11.79063"><ele>213.0</ele><time>2026-04-11T11:03:35.124Z</time></trkpt><trkpt lat="44.2662583" lon="11.7905233"><ele>213.0</ele><time>2026-04-11T11:03:36.124Z</time></trkpt><trkpt lat="44.2661083" lon="11.790425"><ele>213.0</ele><time>2026-04-11T11:03:37.123Z</time></trkpt><trkpt lat="44.2659583" lon="11.7903233"><ele>213.0</ele><time>2026-04-11T11:03:38.122Z</time></trkpt><trkpt lat="44.2658117" lon="11.79023"><ele>213.0</ele><time>2026-04-11T11:03:39.125Z</time></trkpt><trkpt lat="44.2656683" lon="11.7901317"><ele>211.75</ele><time>2026-04-11T11:03:40.124Z</time></trkpt><trkpt lat="44.2655367" lon="11.7900317"><ele>210.5</ele><time>2026-04-11T11:03:41.122Z</time></trkpt><trkpt lat="44.2654167" lon="11.7899133"><ele>209.25</ele><time>2026-04-11T11:03:42.124Z</time></trkpt><trkpt lat="44.2653" lon="11.7897783"><ele>208.0</ele><time>2026-04-11T11:03:43.123Z</time></trkpt><trkpt lat="44.2651867" lon="11.7896383"><ele>208.0</ele><time>2026-04-11T11:03:44.124Z</time></trkpt><trkpt lat="44.2650733" lon="11.7894983"><ele>208.0</ele><time>2026-04-11T11:03:45.124Z</time></trkpt><trkpt lat="44.2649683" lon="11.78936"><ele>208.0</ele><time>2026-04-11T11:03:46.124Z</time></trkpt><trkpt lat="44.2648717" lon="11.7892083"><ele>208.0</ele><time>2026-04-11T11:03:47.123Z</time></trkpt><trkpt lat="44.264785" lon="11.78904"><ele>206.66666666666666</ele><time>2026-04-11T11:03:48.123Z</time></trkpt><trkpt lat="44.2647033" lon="11.7888583"><ele>205.33333333333331</ele><time>2026-04-11T11:03:49.124Z</time></trkpt><trkpt lat="44.2646217" lon="11.7886667"><ele>204.0</ele><time>2026-04-11T11:03:50.124Z</time></trkpt><trkpt lat="44.2645417" lon="11.7884667"><ele>204.0</ele><time>2026-04-11T11:03:51.126Z</time></trkpt><trkpt lat="44.2644633" lon="11.7882633"><ele>204.0</ele><time>2026-04-11T11:03:52.124Z</time></trkpt><trkpt lat="44.2643867" lon="11.788055"><ele>204.0</ele><time>2026-04-11T11:03:53.124Z</time></trkpt><trkpt lat="44.2643083" lon="11.78785"><ele>206.33333333333331</ele><time>2026-04-11T11:03:54.124Z</time></trkpt><trkpt lat="44.2642333" lon="11.787645"><ele>208.66666666666666</ele><time>2026-04-11T11:03:55.124Z</time></trkpt><trkpt lat="44.2641567" lon="11.7874433"><ele>211.0</ele><time>2026-04-11T11:03:56.124Z</time></trkpt><trkpt lat="44.2640833" lon="11.787255"><ele>211.0</ele><time>2026-04-11T11:03:57.124Z</time></trkpt><trkpt lat="44.264025" lon="11.7870817"><ele>211.0</ele><time>2026-04-11T11:03:58.124Z</time></trkpt><trkpt lat="44.2639717" lon="11.7869267"><ele>211.0</ele><time>2026-04-11T11:03:59.124Z</time></trkpt><trkpt lat="44.263925" lon="11.7867883"><ele>211.0</ele><time>2026-04-11T11:04:00.124Z</time></trkpt><trkpt lat="44.2638767" lon="11.7866467"><ele>214.5</ele><time>2026-04-11T11:04:01.124Z</time></trkpt><trkpt lat="44.2638383" lon="11.7864983"><ele>218.0</ele><time>2026-04-11T11:04:02.125Z</time></trkpt><trkpt lat="44.2637967" lon="11.786345"><ele>221.5</ele><time>2026-04-11T11:04:03.124Z</time></trkpt><trkpt lat="44.2637567" lon="11.7861817"><ele>225.0</ele><time>2026-04-11T11:04:04.124Z</time></trkpt><trkpt lat="44.26371" lon="11.78602"><ele>225.25</ele><time>2026-04-11T11:04:05.123Z</time></trkpt><trkpt lat="44.2636667" lon="11.785865"><ele>225.5</ele><time>2026-04-11T11:04:06.123Z</time></trkpt><trkpt lat="44.263625" lon="11.7857133"><ele>225.75</ele><time>2026-04-11T11:04:07.124Z</time></trkpt><trkpt lat="44.2635883" lon="11.7855583"><ele>226.0</ele><time>2026-04-11T11:04:08.124Z</time></trkpt><trkpt lat="44.263555" lon="11.785395"><ele>226.0</ele><time>2026-04-11T11:04:09.125Z</time></trkpt><trkpt lat="44.263525" lon="11.7852267"><ele>226.0</ele><time>2026-04-11T11:04:10.124Z</time></trkpt><trkpt lat="44.2634967" lon="11.78505"><ele>226.0</ele><time>2026-04-11T11:04:11.124Z</time></trkpt><trkpt lat="44.263475" lon="11.7848717"><ele>226.0</ele><time>2026-04-11T11:04:12.124Z</time></trkpt><trkpt lat="44.26346" lon="11.7846867"><ele>224.0</ele><time>2026-04-11T11:04:13.124Z</time></trkpt><trkpt lat="44.263445" lon="11.7845"><ele>222.0</ele><time>2026-04-11T11:04:14.123Z</time></trkpt><trkpt lat="44.2634283" lon="11.78432"><ele>220.0</ele><time>2026-04-11T11:04:15.125Z</time></trkpt><trkpt lat="44.26341" lon="11.7841433"><ele>218.0</ele><time>2026-04-11T11:04:16.124Z</time></trkpt><trkpt lat="44.2634017" lon="11.7839783"><ele>217.0</ele><time>2026-04-11T11:04:17.125Z</time></trkpt><trkpt lat="44.2633917" lon="11.7838217"><ele>216.0</ele><time>2026-04-11T11:04:18.125Z</time></trkpt><trkpt lat="44.2633833" lon="11.7836733"><ele>215.0</ele><time>2026-04-11T11:04:19.124Z</time></trkpt><trkpt lat="44.2633783" lon="11.783525"><ele>214.0</ele><time>2026-04-11T11:04:20.124Z</time></trkpt><trkpt lat="44.2633717" lon="11.7833783"><ele>213.0</ele><time>2026-04-11T11:04:21.125Z</time></trkpt><trkpt lat="44.2633567" lon="11.7832333"><ele>212.75</ele><time>2026-04-11T11:04:22.124Z</time></trkpt><trkpt lat="44.26333" lon="11.7830917"><ele>212.5</ele><time>2026-04-11T11:04:23.125Z</time></trkpt><trkpt lat="44.26329" lon="11.7829483"><ele>212.25</ele><time>2026-04-11T11:04:24.123Z</time></trkpt><trkpt lat="44.2632433" lon="11.7827967"><ele>212.0</ele><time>2026-04-11T11:04:25.126Z</time></trkpt><trkpt lat="44.2631883" lon="11.78264"><ele>210.0</ele><time>2026-04-11T11:04:26.124Z</time></trkpt><trkpt lat="44.2631317" lon="11.782475"><ele>208.0</ele><time>2026-04-11T11:04:27.125Z</time></trkpt><trkpt lat="44.2630767" lon="11.7823017"><ele>206.0</ele><time>2026-04-11T11:04:28.124Z</time></trkpt><trkpt lat="44.263025" lon="11.782125"><ele>204.0</ele><time>2026-04-11T11:04:29.129Z</time></trkpt><trkpt lat="44.2629733" lon="11.7819567"><ele>200.75</ele><time>2026-04-11T11:04:30.125Z</time></trkpt><trkpt lat="44.262925" lon="11.7817917"><ele>197.5</ele><time>2026-04-11T11:04:31.124Z</time></trkpt><trkpt lat="44.2628783" lon="11.7816283"><ele>194.25</ele><time>2026-04-11T11:04:32.124Z</time></trkpt><trkpt lat="44.2628417" lon="11.7814717"><ele>191.0</ele><time>2026-04-11T11:04:33.124Z</time></trkpt><trkpt lat="44.2628067" lon="11.7813117"><ele>191.0</ele><time>2026-04-11T11:04:34.124Z</time></trkpt><trkpt lat="44.2627817" lon="11.7811417"><ele>191.0</ele><time>2026-04-11T11:04:35.124Z</time></trkpt><trkpt lat="44.2627633" lon="11.7809667"><ele>191.0</ele><time>2026-04-11T11:04:36.124Z</time></trkpt><trkpt lat="44.2627483" lon="11.7807867"><ele>191.0</ele><time>2026-04-11T11:04:37.123Z</time></trkpt><trkpt lat="44.2627419" lon="11.780605"><ele>188.25</ele><time>2026-04-11T11:04:38.124Z</time></trkpt><trkpt lat="44.2627408" lon="11.7804231"><ele>185.5</ele><time>2026-04-11T11:04:39.123Z</time></trkpt><trkpt lat="44.262749" lon="11.7802424"><ele>182.75</ele><time>2026-04-11T11:04:40.124Z</time></trkpt><trkpt lat="44.2627711" lon="11.7800677"><ele>180.0</ele><time>2026-04-11T11:04:41.125Z</time></trkpt><trkpt lat="44.262805" lon="11.7799064"><ele>180.0</ele><time>2026-04-11T11:04:42.124Z</time></trkpt><trkpt lat="44.2628389" lon="11.7797523"><ele>180.0</ele><time>2026-04-11T11:04:43.123Z</time></trkpt><trkpt lat="44.2628577" lon="11.7796013"><ele>180.0</ele><time>2026-04-11T11:04:44.124Z</time></trkpt><trkpt lat="44.2628595" lon="11.779456"><ele>180.0</ele><time>2026-04-11T11:04:45.124Z</time></trkpt><trkpt lat="44.2628645" lon="11.7793234"><ele>180.0</ele><time>2026-04-11T11:04:46.123Z</time></trkpt><trkpt lat="44.262884" lon="11.7792178"><ele>180.0</ele><time>2026-04-11T11:04:47.123Z</time></trkpt><trkpt lat="44.2629206" lon="11.7791398"><ele>180.0</ele><time>2026-04-11T11:04:48.124Z</time></trkpt><trkpt lat="44.2629765" lon="11.7790756"><ele>180.0</ele><time>2026-04-11T11:04:49.124Z</time></trkpt><trkpt lat="44.2630662" lon="11.7790239"><ele>180.0</ele><time>2026-04-11T11:04:50.124Z</time></trkpt><trkpt lat="44.263193" lon="11.7789689"><ele>180.0</ele><time>2026-04-11T11:04:51.124Z</time></trkpt><trkpt lat="44.2633233" lon="11.7789048"><ele>191.0</ele><time>2026-04-11T11:04:52.124Z</time></trkpt><trkpt lat="44.2634457" lon="11.7788416"><ele>202.0</ele><time>2026-04-11T11:04:53.123Z</time></trkpt><trkpt lat="44.26333" lon="11.7830917"><ele>202.25</ele><time>2026-04-11T11:04:23.125Z</time></trkpt><trkpt lat="44.26329" lon="11.7829483"><ele>202.5</ele><time>2026-04-11T11:04:24.123Z</time></trkpt><trkpt lat="44.2632433" lon="11.7827967"><ele>202.75</ele><time>2026-04-11T11:04:25.126Z</time></trkpt><trkpt lat="44.2631883" lon="11.78264"><ele>203.0</ele><time>2026-04-11T11:04:26.124Z</time></trkpt><trkpt lat="44.2631317" lon="11.782475"><ele>203.25</ele><time>2026-04-11T11:04:27.125Z</time></trkpt><trkpt lat="44.2630767" lon="11.7823017"><ele>203.5</ele><time>2026-04-11T11:04:28.124Z</time></trkpt><trkpt lat="44.263025" lon="11.782125"><ele>203.75</ele><time>2026-04-11T11:04:29.129Z</time></trkpt><trkpt lat="44.2629733" lon="11.7819567"><ele>204.0</ele><time>2026-04-11T11:04:30.125Z</time></trkpt><trkpt lat="44.262925" lon="11.7817917"><ele>200.75</ele><time>2026-04-11T11:04:31.124Z</time></trkpt><trkpt lat="44.2628783" lon="11.7816283"><ele>197.5</ele><time>2026-04-11T11:04:32.124Z</time></trkpt><trkpt lat="44.2628417" lon="11.7814717"><ele>194.25</ele><time>2026-04-11T11:04:33.124Z</time></trkpt><trkpt lat="44.2628067" lon="11.7813117"><ele>191.0</ele><time>2026-04-11T11:04:34.124Z</time></trkpt><trkpt lat="44.2627817" lon="11.7811417"><ele>188.25</ele><time>2026-04-11T11:04:35.124Z</time></trkpt><trkpt lat="44.2627633" lon="11.7809667"><ele>185.5</ele><time>2026-04-11T11:04:36.124Z</time></trkpt><trkpt lat="44.2627483" lon="11.7807867"><ele>182.75</ele><time>2026-04-11T11:04:37.123Z</time></trkpt><trkpt lat="44.2627419" lon="11.780605"><ele>180.0</ele><time>2026-04-11T11:04:38.124Z</time></trkpt><trkpt lat="44.2627408" lon="11.7804231"><ele>180.0</ele><time>2026-04-11T11:04:39.123Z</time></trkpt><trkpt lat="44.262749" lon="11.7802424"><ele>180.0</ele><time>2026-04-11T11:04:40.124Z</time></trkpt><trkpt lat="44.2627711" lon="11.7800677"><ele>180.0</ele><time>2026-04-11T11:04:41.125Z</time></trkpt><trkpt lat="44.262805" lon="11.7799064"><ele>180.0</ele><time>2026-04-11T11:04:42.124Z</time></trkpt><trkpt lat="44.2628389" lon="11.7797523"><ele>180.0</ele><time>2026-04-11T11:04:43.123Z</time></trkpt><trkpt lat="44.2628577" lon="11.7796013"><ele>180.0</ele><time>2026-04-11T11:04:44.124Z</time></trkpt><trkpt lat="44.2628595" lon="11.779456"><ele>180.0</ele><time>2026-04-11T11:04:45.124Z</time></trkpt><trkpt lat="44.2628645" lon="11.7793234"><ele>180.0</ele><time>2026-04-11T11:04:46.123Z</time></trkpt><trkpt lat="44.262884" lon="11.7792178"><ele>180.0</ele><time>2026-04-11T11:04:47.123Z</time></trkpt><trkpt lat="44.2629206" lon="11.7791398"><ele>180.0</ele><time>2026-04-11T11:04:48.124Z</time></trkpt><trkpt lat="44.2629765" lon="11.7790756"><ele>180.0</ele><time>2026-04-11T11:04:49.124Z</time></trkpt><trkpt lat="44.2630662" lon="11.7790239"><ele>180.0</ele><time>2026-04-11T11:04:50.124Z</time></trkpt><trkpt lat="44.263193" lon="11.7789689"><ele>180.0</ele><time>2026-04-11T11:04:51.124Z</time></trkpt><trkpt lat="44.2633233" lon="11.7789048"><ele>180.0</ele><time>2026-04-11T11:04:52.124Z</time></trkpt><trkpt lat="44.2634457" lon="11.7788416"><ele>185.5</ele><time>2026-04-11T11:04:53.123Z</time></trkpt><trkpt lat="44.2635633" lon="11.7787837"><ele>191.0</ele><time>2026-04-11T11:04:54.124Z</time></trkpt><trkpt lat="44.2636795" lon="11.77873"><ele>196.5</ele><time>2026-04-11T11:04:55.125Z</time></trkpt><trkpt lat="44.2637962" lon="11.778673"><ele>202.0</ele><time>2026-04-11T11:04:56.124Z</time></trkpt><trkpt lat="44.2639134" lon="11.7786088"><ele>201.75</ele><time>2026-04-11T11:04:57.124Z</time></trkpt><trkpt lat="44.2640267" lon="11.7785405"><ele>201.5</ele><time>2026-04-11T11:04:58.126Z</time></trkpt><trkpt lat="44.2641372" lon="11.7784737"><ele>201.25</ele><time>2026-04-11T11:04:59.122Z</time></trkpt><trkpt lat="44.2642468" lon="11.7784107"><ele>201.0</ele><time>2026-04-11T11:05:00.124Z</time></trkpt><trkpt lat="44.2643592" lon="11.7783515"><ele>202.75</ele><time>2026-04-11T11:05:01.124Z</time></trkpt><trkpt lat="44.2644659" lon="11.7782879"><ele>204.5</ele><time>2026-04-11T11:05:02.124Z</time></trkpt><trkpt lat="44.2645731" lon="11.7782073"><ele>206.25</ele><time>2026-04-11T11:05:03.125Z</time></trkpt><trkpt lat="44.2646727" lon="11.7781193"><ele>208.0</ele><time>2026-04-11T11:05:04.124Z</time></trkpt><trkpt lat="44.2647662" lon="11.7780451"><ele>208.0</ele><time>2026-04-11T11:05:05.124Z</time></trkpt><trkpt lat="44.264862" lon="11.7779912"><ele>208.0</ele><time>2026-04-11T11:05:06.124Z</time></trkpt><trkpt lat="44.2649639" lon="11.7779535"><ele>208.0</ele><time>2026-04-11T11:05:07.123Z</time></trkpt><trkpt lat="44.2650668" lon="11.7779151"><ele>208.0</ele><time>2026-04-11T11:05:08.124Z</time></trkpt><trkpt lat="44.2651632" lon="11.7778576"><ele>208.0</ele><time>2026-04-11T11:05:09.124Z</time></trkpt><trkpt lat="44.2652516" lon="11.7777814"><ele>208.0</ele><time>2026-04-11T11:05:10.124Z</time></trkpt><trkpt lat="44.2653394" lon="11.7777036"><ele>208.0</ele><time>2026-04-11T11:05:11.124Z</time></trkpt><trkpt lat="44.2654313" lon="11.7776263"><ele>208.0</ele><time>2026-04-11T11:05:12.124Z</time></trkpt><trkpt lat="44.2655244" lon="11.777562"><ele>208.0</ele><time>2026-04-11T11:05:13.125Z</time></trkpt><trkpt lat="44.2656161" lon="11.7775106"><ele>208.0</ele><time>2026-04-11T11:05:14.123Z</time></trkpt><trkpt lat="44.2657054" lon="11.7774839"><ele>209.2</ele><time>2026-04-11T11:05:15.125Z</time></trkpt><trkpt lat="44.2657943" lon="11.777482"><ele>210.4</ele><time>2026-04-11T11:05:16.124Z</time></trkpt><trkpt lat="44.2658871" lon="11.7774942"><ele>211.59999999999997</ele><time>2026-04-11T11:05:17.124Z</time></trkpt><trkpt lat="44.265983" lon="11.7775188"><ele>212.79999999999998</ele><time>2026-04-11T11:05:18.123Z</time></trkpt><trkpt lat="44.26608" lon="11.7775478"><ele>214.0</ele><time>2026-04-11T11:05:19.124Z</time></trkpt><trkpt lat="44.2661755" lon="11.7775968"><ele>214.0</ele><time>2026-04-11T11:05:20.124Z</time></trkpt><trkpt lat="44.2662677" lon="11.7776685"><ele>213.99999999999997</ele><time>2026-04-11T11:05:21.124Z</time></trkpt><trkpt lat="44.2663578" lon="11.7777537"><ele>213.99999999999997</ele><time>2026-04-11T11:05:22.124Z</time></trkpt><trkpt lat="44.2664487" lon="11.7778493"><ele>214.0</ele><time>2026-04-11T11:05:23.125Z</time></trkpt><trkpt lat="44.266541" lon="11.7779539"><ele>214.0</ele><time>2026-04-11T11:05:24.124Z</time></trkpt><trkpt lat="44.2666355" lon="11.7780648"><ele>215.75</ele><time>2026-04-11T11:05:25.124Z</time></trkpt><trkpt lat="44.266735" lon="11.778185"><ele>217.5</ele><time>2026-04-11T11:05:26.124Z</time></trkpt><trkpt lat="44.2668317" lon="11.7783033"><ele>219.25</ele><time>2026-04-11T11:05:27.124Z</time></trkpt><trkpt lat="44.26693" lon="11.778415"><ele>221.0</ele><time>2026-04-11T11:05:28.124Z</time></trkpt><trkpt lat="44.26703" lon="11.77852"><ele>219.75</ele><time>2026-04-11T11:05:29.124Z</time></trkpt><trkpt lat="44.2671267" lon="11.7786167"><ele>218.5</ele><time>2026-04-11T11:05:30.124Z</time></trkpt><trkpt lat="44.2672283" lon="11.7787083"><ele>217.25</ele><time>2026-04-11T11:05:31.123Z</time></trkpt><trkpt lat="44.2673383" lon="11.7788017"><ele>216.0</ele><time>2026-04-11T11:05:32.124Z</time></trkpt><trkpt lat="44.267455" lon="11.7788917"><ele>216.0</ele><time>2026-04-11T11:05:33.124Z</time></trkpt><trkpt lat="44.26758" lon="11.7789633"><ele>216.0</ele><time>2026-04-11T11:05:34.124Z</time></trkpt><trkpt lat="44.2677133" lon="11.779015"><ele>216.0</ele><time>2026-04-11T11:05:35.124Z</time></trkpt><trkpt lat="44.2678467" lon="11.7790667"><ele>216.0</ele><time>2026-04-11T11:05:36.123Z</time></trkpt><trkpt lat="44.2679767" lon="11.7791317"><ele>216.0</ele><time>2026-04-11T11:05:37.123Z</time></trkpt><trkpt lat="44.268105" lon="11.779205"><ele>216.0</ele><time>2026-04-11T11:05:38.124Z</time></trkpt><trkpt lat="44.2682317" lon="11.7792867"><ele>216.0</ele><time>2026-04-11T11:05:39.124Z</time></trkpt><trkpt lat="44.26836" lon="11.7793683"><ele>216.0</ele><time>2026-04-11T11:05:40.123Z</time></trkpt><trkpt lat="44.26849" lon="11.7794483"><ele>215.25</ele><time>2026-04-11T11:05:41.123Z</time></trkpt><trkpt lat="44.268625" lon="11.7795167"><ele>214.5</ele><time>2026-04-11T11:05:42.123Z</time></trkpt><trkpt lat="44.268755" lon="11.7795883"><ele>213.75</ele><time>2026-04-11T11:05:43.124Z</time></trkpt><trkpt lat="44.268885" lon="11.7796633"><ele>213.0</ele><time>2026-04-11T11:05:44.124Z</time></trkpt><trkpt lat="44.2690133" lon="11.77974"><ele>213.0</ele><time>2026-04-11T11:05:45.124Z</time></trkpt><trkpt lat="44.2691383" lon="11.779815"><ele>213.0</ele><time>2026-04-11T11:05:46.123Z</time></trkpt><trkpt lat="44.2692633" lon="11.7798883"><ele>213.0</ele><time>2026-04-11T11:05:47.123Z</time></trkpt><trkpt lat="44.2693933" lon="11.779965"><ele>213.0</ele><time>2026-04-11T11:05:48.124Z</time></trkpt><trkpt lat="44.2695267" lon="11.780045"><ele>213.0</ele><time>2026-04-11T11:05:49.124Z</time></trkpt><trkpt lat="44.2696583" lon="11.78012"><ele>213.0</ele><time>2026-04-11T11:05:50.124Z</time></trkpt><trkpt lat="44.2697817" lon="11.7801933"><ele>213.0</ele><time>2026-04-11T11:05:51.124Z</time></trkpt><trkpt lat="44.26989" lon="11.7802667"><ele>213.0</ele><time>2026-04-11T11:05:52.124Z</time></trkpt><trkpt lat="44.2699817" lon="11.7803533"><ele>213.0</ele><time>2026-04-11T11:05:53.124Z</time></trkpt><trkpt lat="44.27006" lon="11.7804683"><ele>213.0</ele><time>2026-04-11T11:05:54.124Z</time></trkpt><trkpt lat="44.27014" lon="11.7805983"><ele>213.0</ele><time>2026-04-11T11:05:55.124Z</time></trkpt><trkpt lat="44.2702233" lon="11.7807317"><ele>213.0</ele><time>2026-04-11T11:05:56.123Z</time></trkpt><trkpt lat="44.2703083" lon="11.7808633"><ele>213.0</ele><time>2026-04-11T11:05:57.124Z</time></trkpt><trkpt lat="44.2703917" lon="11.781"><ele>213.0</ele><time>2026-04-11T11:05:58.124Z</time></trkpt><trkpt lat="44.2704733" lon="11.781135"><ele>213.0</ele><time>2026-04-11T11:05:59.124Z</time></trkpt><trkpt lat="44.27055" lon="11.781255"><ele>213.0</ele><time>2026-04-11T11:06:00.125Z</time></trkpt><trkpt lat="44.270615" lon="11.7813583"><ele>213.5</ele><time>2026-04-11T11:06:01.124Z</time></trkpt><trkpt lat="44.2706717" lon="11.78144"><ele>214.0</ele><time>2026-04-11T11:06:02.124Z</time></trkpt><trkpt lat="44.27073" lon="11.7815233"><ele>214.5</ele><time>2026-04-11T11:06:03.125Z</time></trkpt><trkpt lat="44.270795" lon="11.7816067"><ele>215.0</ele><time>2026-04-11T11:06:04.124Z</time></trkpt><trkpt lat="44.270865" lon="11.7816917"><ele>215.5</ele><time>2026-04-11T11:06:05.124Z</time></trkpt><trkpt lat="44.2709433" lon="11.781775"><ele>216.0</ele><time>2026-04-11T11:06:06.124Z</time></trkpt><trkpt lat="44.27103" lon="11.7818517"><ele>215.20000000000002</ele><time>2026-04-11T11:06:07.125Z</time></trkpt><trkpt lat="44.2711283" lon="11.78193"><ele>214.40000000000003</ele><time>2026-04-11T11:06:08.123Z</time></trkpt><trkpt lat="44.2712283" lon="11.7820067"><ele>213.6</ele><time>2026-04-11T11:06:09.124Z</time></trkpt><trkpt lat="44.2713267" lon="11.7820833"><ele>212.8</ele><time>2026-04-11T11:06:10.124Z</time></trkpt><trkpt lat="44.2714217" lon="11.7821567"><ele>212.0</ele><time>2026-04-11T11:06:11.123Z</time></trkpt><trkpt lat="44.2715133" lon="11.7822283"><ele>212.0</ele><time>2026-04-11T11:06:12.124Z</time></trkpt><trkpt lat="44.2715967" lon="11.782305"><ele>212.0</ele><time>2026-04-11T11:06:13.125Z</time></trkpt><trkpt lat="44.2716733" lon="11.78239"><ele>212.0</ele><time>2026-04-11T11:06:14.123Z</time></trkpt><trkpt lat="44.271735" lon="11.7824867"><ele>212.0</ele><time>2026-04-11T11:06:15.125Z</time></trkpt><trkpt lat="44.271795" lon="11.7825883"><ele>212.0</ele><time>2026-04-11T11:06:16.122Z</time></trkpt><trkpt lat="44.2718617" lon="11.7826983"><ele>210.39999999999998</ele><time>2026-04-11T11:06:17.123Z</time></trkpt><trkpt lat="44.271925" lon="11.7828167"><ele>208.79999999999998</ele><time>2026-04-11T11:06:18.123Z</time></trkpt><trkpt lat="44.2719867" lon="11.782935"><ele>207.2</ele><time>2026-04-11T11:06:19.124Z</time></trkpt><trkpt lat="44.2720467" lon="11.7830517"><ele>205.6</ele><time>2026-04-11T11:06:20.122Z</time></trkpt><trkpt lat="44.27211" lon="11.7831717"><ele>204.0</ele><time>2026-04-11T11:06:21.124Z</time></trkpt><trkpt lat="44.2721783" lon="11.7832967"><ele>204.0</ele><time>2026-04-11T11:06:22.123Z</time></trkpt><trkpt lat="44.2722483" lon="11.78342"><ele>204.0</ele><time>2026-04-11T11:06:23.123Z</time></trkpt><trkpt lat="44.2723167" lon="11.7835417"><ele>204.0</ele><time>2026-04-11T11:06:24.123Z</time></trkpt><trkpt lat="44.27238" lon="11.783665"><ele>204.0</ele><time>2026-04-11T11:06:25.124Z</time></trkpt><trkpt lat="44.2724417" lon="11.7837917"><ele>204.0</ele><time>2026-04-11T11:06:26.124Z</time></trkpt><trkpt lat="44.2725033" lon="11.78392"><ele>203.5</ele><time>2026-04-11T11:06:27.124Z</time></trkpt><trkpt lat="44.27257" lon="11.7840433"><ele>203.0</ele><time>2026-04-11T11:06:28.125Z</time></trkpt><trkpt lat="44.27265" lon="11.7841683"><ele>202.5</ele><time>2026-04-11T11:06:29.123Z</time></trkpt><trkpt lat="44.272735" lon="11.7842933"><ele>202.0</ele><time>2026-04-11T11:06:30.124Z</time></trkpt><trkpt lat="44.27282" lon="11.7844283"><ele>200.75</ele><time>2026-04-11T11:06:31.125Z</time></trkpt><trkpt lat="44.2729067" lon="11.7845683"><ele>199.5</ele><time>2026-04-11T11:06:32.124Z</time></trkpt><trkpt lat="44.2729883" lon="11.7847083"><ele>198.25</ele><time>2026-04-11T11:06:33.124Z</time></trkpt><trkpt lat="44.27307" lon="11.7848483"><ele>197.0</ele><time>2026-04-11T11:06:34.124Z</time></trkpt><trkpt lat="44.27315" lon="11.78499"><ele>197.0</ele><time>2026-04-11T11:06:35.123Z</time></trkpt><trkpt lat="44.27323" lon="11.7851333"><ele>197.0</ele><time>2026-04-11T11:06:36.124Z</time></trkpt><trkpt lat="44.2733133" lon="11.785275"><ele>197.0</ele><time>2026-04-11T11:06:37.124Z</time></trkpt><trkpt lat="44.27339" lon="11.7854183"><ele>197.0</ele><time>2026-04-11T11:06:38.124Z</time></trkpt><trkpt lat="44.2734683" lon="11.78556"><ele>197.25</ele><time>2026-04-11T11:06:39.123Z</time></trkpt><trkpt lat="44.2735517" lon="11.7856983"><ele>197.5</ele><time>2026-04-11T11:06:40.128Z</time></trkpt><trkpt lat="44.27363" lon="11.7858317"><ele>197.75</ele><time>2026-04-11T11:06:41.123Z</time></trkpt><trkpt lat="44.2737" lon="11.7859583"><ele>198.0</ele><time>2026-04-11T11:06:42.124Z</time></trkpt><trkpt lat="44.2737683" lon="11.7860783"><ele>198.0</ele><time>2026-04-11T11:06:43.124Z</time></trkpt><trkpt lat="44.2738433" lon="11.7862033"><ele>198.0</ele><time>2026-04-11T11:06:44.123Z</time></trkpt><trkpt lat="44.2739283" lon="11.7863267"><ele>198.0</ele><time>2026-04-11T11:06:45.124Z</time></trkpt><trkpt lat="44.2740283" lon="11.7864417"><ele>198.0</ele><time>2026-04-11T11:06:46.123Z</time></trkpt><trkpt lat="44.2741333" lon="11.7865483"><ele>198.5</ele><time>2026-04-11T11:06:47.124Z</time></trkpt><trkpt lat="44.27424" lon="11.78665"><ele>199.0</ele><time>2026-04-11T11:06:48.124Z</time></trkpt><trkpt lat="44.2743367" lon="11.7867567"><ele>199.5</ele><time>2026-04-11T11:06:49.124Z</time></trkpt><trkpt lat="44.2744217" lon="11.786865"><ele>200.0</ele><time>2026-04-11T11:06:50.122Z</time></trkpt><trkpt lat="44.2745017" lon="11.7869817"><ele>199.2</ele><time>2026-04-11T11:06:51.123Z</time></trkpt><trkpt lat="44.27458" lon="11.7871033"><ele>198.4</ele><time>2026-04-11T11:06:52.123Z</time></trkpt><trkpt lat="44.2746583" lon="11.7872217"><ele>197.60000000000002</ele><time>2026-04-11T11:06:53.124Z</time></trkpt><trkpt lat="44.2747333" lon="11.78733"><ele>196.8</ele><time>2026-04-11T11:06:54.124Z</time></trkpt><trkpt lat="44.2748067" lon="11.787425"><ele>196.0</ele><time>2026-04-11T11:06:55.123Z</time></trkpt><trkpt lat="44.2748783" lon="11.7875167"><ele>195.60000000000002</ele><time>2026-04-11T11:06:56.123Z</time></trkpt><trkpt lat="44.2749533" lon="11.7876133"><ele>195.2</ele><time>2026-04-11T11:06:57.129Z</time></trkpt><trkpt lat="44.275035" lon="11.787715"><ele>194.8</ele><time>2026-04-11T11:06:58.124Z</time></trkpt><trkpt lat="44.2751167" lon="11.7878217"><ele>194.39999999999998</ele><time>2026-04-11T11:06:59.124Z</time></trkpt><trkpt lat="44.2752" lon="11.787925"><ele>194.0</ele><time>2026-04-11T11:07:00.124Z</time></trkpt><trkpt lat="44.27528" lon="11.788025"><ele>193.6</ele><time>2026-04-11T11:07:01.124Z</time></trkpt><trkpt lat="44.2753583" lon="11.7881283"><ele>193.2</ele><time>2026-04-11T11:07:02.124Z</time></trkpt><trkpt lat="44.2754383" lon="11.7882317"><ele>192.79999999999998</ele><time>2026-04-11T11:07:03.123Z</time></trkpt><trkpt lat="44.2755167" lon="11.7883317"><ele>192.39999999999998</ele><time>2026-04-11T11:07:04.128Z</time></trkpt><trkpt lat="44.2755917" lon="11.788425"><ele>192.0</ele><time>2026-04-11T11:07:05.124Z</time></trkpt><trkpt lat="44.275665" lon="11.78852"><ele>191.6</ele><time>2026-04-11T11:07:06.124Z</time></trkpt><trkpt lat="44.2757367" lon="11.7886133"><ele>191.2</ele><time>2026-04-11T11:07:07.124Z</time></trkpt><trkpt lat="44.2758067" lon="11.78871"><ele>190.8</ele><time>2026-04-11T11:07:08.124Z</time></trkpt><trkpt lat="44.275875" lon="11.7888033"><ele>190.4</ele><time>2026-04-11T11:07:09.124Z</time></trkpt><trkpt lat="44.2759383" lon="11.7888917"><ele>190.0</ele><time>2026-04-11T11:07:10.124Z</time></trkpt><trkpt lat="44.276" lon="11.7889783"><ele>190.0</ele><time>2026-04-11T11:07:11.123Z</time></trkpt><trkpt lat="44.2760567" lon="11.78906"><ele>190.0</ele><time>2026-04-11T11:07:12.124Z</time></trkpt><trkpt lat="44.2761117" lon="11.7891367"><ele>190.0</ele><time>2026-04-11T11:07:13.124Z</time></trkpt><trkpt lat="44.2761683" lon="11.7892167"><ele>190.0</ele><time>2026-04-11T11:07:14.123Z</time></trkpt><trkpt lat="44.2762267" lon="11.7892967"><ele>190.0</ele><time>2026-04-11T11:07:15.124Z</time></trkpt><trkpt lat="44.2762933" lon="11.7893817"><ele>190.0</ele><time>2026-04-11T11:07:16.122Z</time></trkpt><trkpt lat="44.2763567" lon="11.7894733"><ele>190.0</ele><time>2026-04-11T11:07:17.125Z</time></trkpt><trkpt lat="44.2764267" lon="11.7895683"><ele>190.0</ele><time>2026-04-11T11:07:18.124Z</time></trkpt><trkpt lat="44.2764983" lon="11.7896683"><ele>190.0</ele><time>2026-04-11T11:07:19.123Z</time></trkpt><trkpt lat="44.2765783" lon="11.7897617"><ele>190.0</ele><time>2026-04-11T11:07:20.124Z</time></trkpt><trkpt lat="44.276665" lon="11.7898533"><ele>190.0</ele><time>2026-04-11T11:07:21.124Z</time></trkpt><trkpt lat="44.2767517" lon="11.7899333"><ele>190.0</ele><time>2026-04-11T11:07:22.123Z</time></trkpt><trkpt lat="44.2768433" lon="11.79001"><ele>190.0</ele><time>2026-04-11T11:07:23.123Z</time></trkpt><trkpt lat="44.2769383" lon="11.7900867"><ele>190.0</ele><time>2026-04-11T11:07:24.124Z</time></trkpt><trkpt lat="44.27704" lon="11.790145"><ele>190.0</ele><time>2026-04-11T11:07:25.123Z</time></trkpt><trkpt lat="44.277145" lon="11.7901883"><ele>190.0</ele><time>2026-04-11T11:07:26.124Z</time></trkpt><trkpt lat="44.2772417" lon="11.7902333"><ele>191.4</ele><time>2026-04-11T11:07:27.125Z</time></trkpt><trkpt lat="44.277345" lon="11.7902767"><ele>192.8</ele><time>2026-04-11T11:07:28.125Z</time></trkpt><trkpt lat="44.2774467" lon="11.7903217"><ele>194.2</ele><time>2026-04-11T11:07:29.123Z</time></trkpt><trkpt lat="44.2775433" lon="11.7903617"><ele>195.6</ele><time>2026-04-11T11:07:30.124Z</time></trkpt><trkpt lat="44.27764" lon="11.7904133"><ele>197.0</ele><time>2026-04-11T11:07:31.124Z</time></trkpt><trkpt lat="44.277735" lon="11.7904783"><ele>197.0</ele><time>2026-04-11T11:07:32.124Z</time></trkpt><trkpt lat="44.2778333" lon="11.79056"><ele>197.0</ele><time>2026-04-11T11:07:33.124Z</time></trkpt><trkpt lat="44.27792" lon="11.7906483"><ele>197.0</ele><time>2026-04-11T11:07:34.124Z</time></trkpt><trkpt lat="44.2780083" lon="11.7907367"><ele>197.0</ele><time>2026-04-11T11:07:35.123Z</time></trkpt><trkpt lat="44.2780933" lon="11.790835"><ele>197.0</ele><time>2026-04-11T11:07:36.123Z</time></trkpt><trkpt lat="44.2781783" lon="11.7909367"><ele>195.75</ele><time>2026-04-11T11:07:37.124Z</time></trkpt><trkpt lat="44.27826" lon="11.7910417"><ele>194.5</ele><time>2026-04-11T11:07:38.124Z</time></trkpt><trkpt lat="44.2783467" lon="11.7911517"><ele>193.25</ele><time>2026-04-11T11:07:39.124Z</time></trkpt><trkpt lat="44.2784383" lon="11.7912617"><ele>192.0</ele><time>2026-04-11T11:07:40.125Z</time></trkpt><trkpt lat="44.2785417" lon="11.7913683"><ele>192.0</ele><time>2026-04-11T11:07:41.125Z</time></trkpt><trkpt lat="44.2786467" lon="11.7914717"><ele>192.0</ele><time>2026-04-11T11:07:42.124Z</time></trkpt><trkpt lat="44.2787383" lon="11.7915617"><ele>192.0</ele><time>2026-04-11T11:07:43.125Z</time></trkpt><trkpt lat="44.2788283" lon="11.7916533"><ele>192.0</ele><time>2026-04-11T11:07:44.123Z</time></trkpt><trkpt lat="44.278915" lon="11.7917433"><ele>190.8</ele><time>2026-04-11T11:07:45.124Z</time></trkpt><trkpt lat="44.279" lon="11.7918383"><ele>189.6</ele><time>2026-04-11T11:07:46.123Z</time></trkpt><trkpt lat="44.2790867" lon="11.7919317"><ele>188.4</ele><time>2026-04-11T11:07:47.123Z</time></trkpt><trkpt lat="44.2791783" lon="11.7920217"><ele>187.20000000000002</ele><time>2026-04-11T11:07:48.124Z</time></trkpt><trkpt lat="44.2792683" lon="11.7921133"><ele>186.0</ele><time>2026-04-11T11:07:49.124Z</time></trkpt><trkpt lat="44.2793683" lon="11.7922"><ele>186.0</ele><time>2026-04-11T11:07:50.123Z</time></trkpt><trkpt lat="44.2794733" lon="11.79228"><ele>186.0</ele><time>2026-04-11T11:07:51.124Z</time></trkpt><trkpt lat="44.2795883" lon="11.79235"><ele>186.0</ele><time>2026-04-11T11:07:52.124Z</time></trkpt><trkpt lat="44.2797033" lon="11.79243"><ele>186.0</ele><time>2026-04-11T11:07:53.123Z</time></trkpt><trkpt lat="44.279815" lon="11.79251"><ele>185.5</ele><time>2026-04-11T11:07:54.124Z</time></trkpt><trkpt lat="44.2799267" lon="11.7925917"><ele>185.0</ele><time>2026-04-11T11:07:55.124Z</time></trkpt><trkpt lat="44.2800383" lon="11.7926733"><ele>184.5</ele><time>2026-04-11T11:07:56.124Z</time></trkpt><trkpt lat="44.280155" lon="11.7927567"><ele>184.0</ele><time>2026-04-11T11:07:57.125Z</time></trkpt><trkpt lat="44.280275" lon="11.7928267"><ele>184.0</ele><time>2026-04-11T11:07:58.124Z</time></trkpt><trkpt lat="44.2803933" lon="11.7928933"><ele>184.0</ele><time>2026-04-11T11:07:59.125Z</time></trkpt><trkpt lat="44.28051" lon="11.792965"><ele>184.0</ele><time>2026-04-11T11:08:00.124Z</time></trkpt><trkpt lat="44.2806233" lon="11.79304"><ele>184.0</ele><time>2026-04-11T11:08:01.124Z</time></trkpt><trkpt lat="44.280745" lon="11.7931133"><ele>180.0</ele><time>2026-04-11T11:08:02.124Z</time></trkpt><trkpt lat="44.2808667" lon="11.7931967"><ele>176.0</ele><time>2026-04-11T11:08:03.124Z</time></trkpt><trkpt lat="44.2809767" lon="11.7933017"><ele>172.0</ele><time>2026-04-11T11:08:04.124Z</time></trkpt><trkpt lat="44.2810767" lon="11.7934283"><ele>168.0</ele><time>2026-04-11T11:08:05.123Z</time></trkpt><trkpt lat="44.2811667" lon="11.793565"><ele>168.0</ele><time>2026-04-11T11:08:06.124Z</time></trkpt><trkpt lat="44.2812567" lon="11.7937083"><ele>168.0</ele><time>2026-04-11T11:08:07.124Z</time></trkpt><trkpt lat="44.2813533" lon="11.7938583"><ele>168.0</ele><time>2026-04-11T11:08:08.124Z</time></trkpt><trkpt lat="44.2814483" lon="11.7940167"><ele>168.0</ele><time>2026-04-11T11:08:09.125Z</time></trkpt><trkpt lat="44.28152" lon="11.7941917"><ele>162.5</ele><time>2026-04-11T11:08:10.124Z</time></trkpt><trkpt lat="44.2815667" lon="11.7943783"><ele>157.0</ele><time>2026-04-11T11:08:11.124Z</time></trkpt><trkpt lat="44.2815817" lon="11.7945667"><ele>151.5</ele><time>2026-04-11T11:08:12.124Z</time></trkpt><trkpt lat="44.2816017" lon="11.794745"><ele>146.0</ele><time>2026-04-11T11:08:13.123Z</time></trkpt><trkpt lat="44.2816417" lon="11.79493"><ele>146.0</ele><time>2026-04-11T11:08:14.123Z</time></trkpt><trkpt lat="44.2817" lon="11.7951217"><ele>146.0</ele><time>2026-04-11T11:08:15.124Z</time></trkpt><trkpt lat="44.2817683" lon="11.795305"><ele>146.0</ele><time>2026-04-11T11:08:16.125Z</time></trkpt><trkpt lat="44.2818433" lon="11.79548"><ele>146.0</ele><time>2026-04-11T11:08:17.124Z</time></trkpt><trkpt lat="44.2819267" lon="11.7956367"><ele>146.0</ele><time>2026-04-11T11:08:18.124Z</time></trkpt><trkpt lat="44.2820217" lon="11.79577"><ele>146.0</ele><time>2026-04-11T11:08:19.122Z</time></trkpt><trkpt lat="44.2821283" lon="11.7958867"><ele>146.0</ele><time>2026-04-11T11:08:20.124Z</time></trkpt><trkpt lat="44.2822433" lon="11.7960183"><ele>146.0</ele><time>2026-04-11T11:08:21.125Z</time></trkpt><trkpt lat="44.282375" lon="11.7961467"><ele>141.75</ele><time>2026-04-11T11:08:22.123Z</time></trkpt><trkpt lat="44.282505" lon="11.7962767"><ele>137.5</ele><time>2026-04-11T11:08:23.124Z</time></trkpt><trkpt lat="44.2826283" lon="11.796395"><ele>133.25</ele><time>2026-04-11T11:08:24.123Z</time></trkpt><trkpt lat="44.2827367" lon="11.7965017"><ele>129.0</ele><time>2026-04-11T11:08:25.124Z</time></trkpt><trkpt lat="44.2828383" lon="11.7966067"><ele>129.0</ele><time>2026-04-11T11:08:26.123Z</time></trkpt><trkpt lat="44.28293" lon="11.7967"><ele>129.0</ele><time>2026-04-11T11:08:27.123Z</time></trkpt><trkpt lat="44.2830183" lon="11.796785"><ele>129.0</ele><time>2026-04-11T11:08:28.123Z</time></trkpt><trkpt lat="44.2830967" lon="11.796855"><ele>129.0</ele><time>2026-04-11T11:08:29.124Z</time></trkpt><trkpt lat="44.2831633" lon="11.79691"><ele>129.0</ele><time>2026-04-11T11:08:30.124Z</time></trkpt><trkpt lat="44.2832233" lon="11.7969617"><ele>128.0</ele><time>2026-04-11T11:08:31.124Z</time></trkpt><trkpt lat="44.2832833" lon="11.7970117"><ele>127.0</ele><time>2026-04-11T11:08:32.124Z</time></trkpt><trkpt lat="44.28335" lon="11.7970617"><ele>126.0</ele><time>2026-04-11T11:08:33.124Z</time></trkpt><trkpt lat="44.28342" lon="11.79711"><ele>125.0</ele><time>2026-04-11T11:08:34.124Z</time></trkpt><trkpt lat="44.2835017" lon="11.79715"><ele>124.0</ele><time>2026-04-11T11:08:35.124Z</time></trkpt><trkpt lat="44.283595" lon="11.797185"><ele>123.0</ele><time>2026-04-11T11:08:36.123Z</time></trkpt><trkpt lat="44.283695" lon="11.7972283"><ele>123.0</ele><time>2026-04-11T11:08:37.125Z</time></trkpt><trkpt lat="44.2837967" lon="11.7972867"><ele>123.0</ele><time>2026-04-11T11:08:38.124Z</time></trkpt><trkpt lat="44.2838917" lon="11.797365"><ele>123.0</ele><time>2026-04-11T11:08:39.124Z</time></trkpt><trkpt lat="44.284" lon="11.7974533"><ele>123.0</ele><time>2026-04-11T11:08:40.124Z</time></trkpt><trkpt lat="44.284115" lon="11.79754"><ele>120.25</ele><time>2026-04-11T11:08:41.122Z</time></trkpt><trkpt lat="44.2842383" lon="11.7976083"><ele>117.5</ele><time>2026-04-11T11:08:42.124Z</time></trkpt><trkpt lat="44.28436" lon="11.7976683"><ele>114.75</ele><time>2026-04-11T11:08:43.124Z</time></trkpt><trkpt lat="44.2844817" lon="11.797725"><ele>112.0</ele><time>2026-04-11T11:08:44.123Z</time></trkpt><trkpt lat="44.284605" lon="11.79779"><ele>111.75</ele><time>2026-04-11T11:08:45.124Z</time></trkpt><trkpt lat="44.2847267" lon="11.7978583"><ele>111.5</ele><time>2026-04-11T11:08:46.123Z</time></trkpt><trkpt lat="44.28485" lon="11.79793"><ele>111.25</ele><time>2026-04-11T11:08:47.124Z</time></trkpt><trkpt lat="44.2849683" lon="11.798005"><ele>111.0</ele><time>2026-04-11T11:08:48.123Z</time></trkpt><trkpt lat="44.285085" lon="11.7980917"><ele>107.0</ele><time>2026-04-11T11:08:49.128Z</time></trkpt><trkpt lat="44.285205" lon="11.7981767"><ele>103.0</ele><time>2026-04-11T11:08:50.123Z</time></trkpt><trkpt lat="44.2853233" lon="11.798265"><ele>99.0</ele><time>2026-04-11T11:08:51.125Z</time></trkpt><trkpt lat="44.28544" lon="11.7983533"><ele>95.0</ele><time>2026-04-11T11:08:52.124Z</time></trkpt><trkpt lat="44.28556" lon="11.7984417"><ele>92.6</ele><time>2026-04-11T11:08:53.124Z</time></trkpt><trkpt lat="44.285675" lon="11.798535"><ele>90.2</ele><time>2026-04-11T11:08:54.123Z</time></trkpt><trkpt lat="44.28577" lon="11.7986283"><ele>87.80000000000001</ele><time>2026-04-11T11:08:55.124Z</time></trkpt><trkpt lat="44.285855" lon="11.7987167"><ele>85.4</ele><time>2026-04-11T11:08:56.124Z</time></trkpt><trkpt lat="44.285925" lon="11.7987967"><ele>83.0</ele><time>2026-04-11T11:08:57.124Z</time></trkpt><trkpt lat="44.285985" lon="11.798865"><ele>83.0</ele><time>2026-04-11T11:08:58.123Z</time></trkpt><trkpt lat="44.28604" lon="11.798925"><ele>83.0</ele><time>2026-04-11T11:08:59.124Z</time></trkpt><trkpt lat="44.2860917" lon="11.79898"><ele>83.0</ele><time>2026-04-11T11:09:00.123Z</time></trkpt><trkpt lat="44.2861783" lon="11.7990767"><ele>83.0</ele><time>2026-04-11T11:09:02.126Z</time></trkpt><trkpt lat="44.2862783" lon="11.7991717"><ele>83.0</ele><time>2026-04-11T11:09:04.123Z</time></trkpt><trkpt lat="44.28634" lon="11.7992233"><ele>83.0</ele><time>2026-04-11T11:09:05.122Z</time></trkpt><trkpt lat="44.286405" lon="11.7992767"><ele>82.0</ele><time>2026-04-11T11:09:06.123Z</time></trkpt><trkpt lat="44.2864717" lon="11.7993283"><ele>81.0</ele><time>2026-04-11T11:09:07.123Z</time></trkpt><trkpt lat="44.2865483" lon="11.7993583"><ele>80.0</ele><time>2026-04-11T11:09:08.124Z</time></trkpt><trkpt lat="44.286635" lon="11.7993717"><ele>79.0</ele><time>2026-04-11T11:09:09.124Z</time></trkpt><trkpt lat="44.2867283" lon="11.7993717"><ele>78.0</ele><time>2026-04-11T11:09:10.124Z</time></trkpt><trkpt lat="44.2868267" lon="11.799355"><ele>77.0</ele><time>2026-04-11T11:09:11.123Z</time></trkpt><trkpt lat="44.2869233" lon="11.799325"><ele>77.0</ele><time>2026-04-11T11:09:12.123Z</time></trkpt><trkpt lat="44.2870267" lon="11.7992883"><ele>77.0</ele><time>2026-04-11T11:09:13.124Z</time></trkpt><trkpt lat="44.28713" lon="11.7992433"><ele>77.0</ele><time>2026-04-11T11:09:14.125Z</time></trkpt><trkpt lat="44.2872383" lon="11.799195"><ele>77.0</ele><time>2026-04-11T11:09:15.124Z</time></trkpt><trkpt lat="44.2873417" lon="11.7991583"><ele>77.0</ele><time>2026-04-11T11:09:16.123Z</time></trkpt><trkpt lat="44.2874467" lon="11.7991283"><ele>75.8</ele><time>2026-04-11T11:09:17.123Z</time></trkpt><trkpt lat="44.2875517" lon="11.7991067"><ele>74.6</ele><time>2026-04-11T11:09:18.123Z</time></trkpt><trkpt lat="44.2876517" lon="11.7990867"><ele>73.39999999999999</ele><time>2026-04-11T11:09:19.123Z</time></trkpt><trkpt lat="44.2877367" lon="11.7990483"><ele>72.2</ele><time>2026-04-11T11:09:20.123Z</time></trkpt><trkpt lat="44.2878033" lon="11.798985"><ele>71.0</ele><time>2026-04-11T11:09:21.124Z</time></trkpt><trkpt lat="44.2878517" lon="11.7988967"><ele>71.0</ele><time>2026-04-11T11:09:22.125Z</time></trkpt><trkpt lat="44.2878967" lon="11.798795"><ele>71.0</ele><time>2026-04-11T11:09:23.124Z</time></trkpt><trkpt lat="44.2879367" lon="11.7986883"><ele>71.0</ele><time>2026-04-11T11:09:24.123Z</time></trkpt><trkpt lat="44.2879783" lon="11.7985833"><ele>71.0</ele><time>2026-04-11T11:09:25.124Z</time></trkpt><trkpt lat="44.2880233" lon="11.7984633"><ele>71.0</ele><time>2026-04-11T11:09:26.124Z</time></trkpt><trkpt lat="44.2880683" lon="11.7983417"><ele>71.0</ele><time>2026-04-11T11:09:27.125Z</time></trkpt><trkpt lat="44.2881083" lon="11.7982167"><ele>71.0</ele><time>2026-04-11T11:09:28.123Z</time></trkpt><trkpt lat="44.2881467" lon="11.7980933"><ele>71.0</ele><time>2026-04-11T11:09:29.125Z</time></trkpt><trkpt lat="44.2881883" lon="11.797995"><ele>71.0</ele><time>2026-04-11T11:09:30.124Z</time></trkpt><trkpt lat="44.288245" lon="11.797945"><ele>71.0</ele><time>2026-04-11T11:09:31.124Z</time></trkpt><trkpt lat="44.2883217" lon="11.7979167"><ele>71.0</ele><time>2026-04-11T11:09:32.123Z</time></trkpt><trkpt lat="44.2884133" lon="11.797915"><ele>71.0</ele><time>2026-04-11T11:09:33.124Z</time></trkpt><trkpt lat="44.2885183" lon="11.7979183"><ele>71.0</ele><time>2026-04-11T11:09:34.124Z</time></trkpt><trkpt lat="44.2886333" lon="11.797915"><ele>71.0</ele><time>2026-04-11T11:09:35.124Z</time></trkpt><trkpt lat="44.2887433" lon="11.7979083"><ele>71.0</ele><time>2026-04-11T11:09:36.124Z</time></trkpt><trkpt lat="44.2888517" lon="11.7978967"><ele>71.0</ele><time>2026-04-11T11:09:37.124Z</time></trkpt><trkpt lat="44.2889533" lon="11.7978717"><ele>71.0</ele><time>2026-04-11T11:09:38.124Z</time></trkpt><trkpt lat="44.289045" lon="11.7978283"><ele>71.0</ele><time>2026-04-11T11:09:39.124Z</time></trkpt><trkpt lat="44.2891283" lon="11.7977583"><ele>71.0</ele><time>2026-04-11T11:09:40.123Z</time></trkpt><trkpt lat="44.289195" lon="11.79766"><ele>71.0</ele><time>2026-04-11T11:09:41.123Z</time></trkpt><trkpt lat="44.2892433" lon="11.7975417"><ele>71.0</ele><time>2026-04-11T11:09:42.123Z</time></trkpt><trkpt lat="44.2892783" lon="11.79741"><ele>71.5</ele><time>2026-04-11T11:09:43.124Z</time></trkpt><trkpt lat="44.289295" lon="11.7972767"><ele>72.0</ele><time>2026-04-11T11:09:44.123Z</time></trkpt><trkpt lat="44.289305" lon="11.79715"><ele>72.5</ele><time>2026-04-11T11:09:45.125Z</time></trkpt><trkpt lat="44.2893233" lon="11.797035"><ele>73.0</ele><time>2026-04-11T11:09:46.125Z</time></trkpt><trkpt lat="44.2893367" lon="11.7969317"><ele>73.5</ele><time>2026-04-11T11:09:47.124Z</time></trkpt><trkpt lat="44.2893433" lon="11.79683"><ele>74.0</ele><time>2026-04-11T11:09:48.123Z</time></trkpt><trkpt lat="44.28935" lon="11.79673"><ele>76.0</ele><time>2026-04-11T11:09:49.124Z</time></trkpt><trkpt lat="44.289345" lon="11.79664"><ele>78.0</ele><time>2026-04-11T11:09:50.123Z</time></trkpt><trkpt lat="44.2893233" lon="11.7964983"><ele>80.0</ele><time>2026-04-11T11:09:52.124Z</time></trkpt><trkpt lat="44.2893017" lon="11.796355"><ele>82.0</ele><time>2026-04-11T11:09:54.123Z</time></trkpt><trkpt lat="44.28932" lon="11.7961917"><ele>84.0</ele><time>2026-04-11T11:09:56.123Z</time></trkpt><trkpt lat="44.2893417" lon="11.7960133"><ele>85.57142857142857</ele><time>2026-04-11T11:09:58.124Z</time></trkpt><trkpt lat="44.2893483" lon="11.7959217"><ele>87.14285714285714</ele><time>2026-04-11T11:09:59.124Z</time></trkpt><trkpt lat="44.28936" lon="11.79583"><ele>88.71428571428572</ele><time>2026-04-11T11:10:00.124Z</time></trkpt><trkpt lat="44.28939" lon="11.79573"><ele>90.28571428571428</ele><time>2026-04-11T11:10:01.125Z</time></trkpt><trkpt lat="44.2894183" lon="11.7956333"><ele>91.85714285714286</ele><time>2026-04-11T11:10:02.123Z</time></trkpt><trkpt lat="44.289445" lon="11.7955383"><ele>93.42857142857143</ele><time>2026-04-11T11:10:03.124Z</time></trkpt><trkpt lat="44.2894767" lon="11.7954567"><ele>95.0</ele><time>2026-04-11T11:10:04.124Z</time></trkpt><trkpt lat="44.28955" lon="11.7953517"><ele>95.0</ele><time>2026-04-11T11:10:06.123Z</time></trkpt><trkpt lat="44.289665" lon="11.795345"><ele>95.0</ele><time>2026-04-11T11:10:08.124Z</time></trkpt><trkpt lat="44.28973" lon="11.7953683"><ele>95.0</ele><time>2026-04-11T11:10:09.125Z</time></trkpt><trkpt lat="44.2897967" lon="11.7954183"><ele>95.0</ele><time>2026-04-11T11:10:10.124Z</time></trkpt><trkpt lat="44.2898617" lon="11.795485"><ele>95.0</ele><time>2026-04-11T11:10:11.124Z</time></trkpt><trkpt lat="44.2899317" lon="11.79556"><ele>95.0</ele><time>2026-04-11T11:10:12.124Z</time></trkpt><trkpt lat="44.2900067" lon="11.7956317"><ele>94.66666666666667</ele><time>2026-04-11T11:10:13.123Z</time></trkpt><trkpt lat="44.290065" lon="11.795705"><ele>94.33333333333334</ele><time>2026-04-11T11:10:14.124Z</time></trkpt><trkpt lat="44.2901283" lon="11.795775"><ele>94.0</ele><time>2026-04-11T11:10:15.123Z</time></trkpt><trkpt lat="44.2901883" lon="11.7958567"><ele>93.66666666666667</ele><time>2026-04-11T11:10:16.124Z</time></trkpt><trkpt lat="44.290235" lon="11.7959567"><ele>93.33333333333333</ele><time>2026-04-11T11:10:17.124Z</time></trkpt><trkpt lat="44.2902733" lon="11.7960667"><ele>93.0</ele><time>2026-04-11T11:10:18.123Z</time></trkpt><trkpt lat="44.290315" lon="11.79617"><ele>93.16666666666667</ele><time>2026-04-11T11:10:19.123Z</time></trkpt><trkpt lat="44.2903667" lon="11.7962633"><ele>93.33333333333333</ele><time>2026-04-11T11:10:20.123Z</time></trkpt><trkpt lat="44.290435" lon="11.7963367"><ele>93.5</ele><time>2026-04-11T11:10:21.123Z</time></trkpt><trkpt lat="44.2905067" lon="11.7963833"><ele>93.66666666666666</ele><time>2026-04-11T11:10:22.123Z</time></trkpt><trkpt lat="44.2905733" lon="11.7963983"><ele>93.83333333333333</ele><time>2026-04-11T11:10:23.124Z</time></trkpt><trkpt lat="44.2906567" lon="11.7964117"><ele>94.0</ele><time>2026-04-11T11:10:24.123Z</time></trkpt><trkpt lat="44.2907467" lon="11.7964267"><ele>94.0</ele><time>2026-04-11T11:10:25.123Z</time></trkpt><trkpt lat="44.2908333" lon="11.7964383"><ele>94.0</ele><time>2026-04-11T11:10:26.124Z</time></trkpt><trkpt lat="44.2909233" lon="11.7964483"><ele>94.0</ele><time>2026-04-11T11:10:27.125Z</time></trkpt><trkpt lat="44.291015" lon="11.796465"><ele>94.0</ele><time>2026-04-11T11:10:28.124Z</time></trkpt><trkpt lat="44.2911083" lon="11.7964833"><ele>94.0</ele><time>2026-04-11T11:10:29.123Z</time></trkpt><trkpt lat="44.2912017" lon="11.796495"><ele>94.0</ele><time>2026-04-11T11:10:30.124Z</time></trkpt><trkpt lat="44.29129" lon="11.796505"><ele>94.0</ele><time>2026-04-11T11:10:31.124Z</time></trkpt><trkpt lat="44.291365" lon="11.7964883"><ele>94.0</ele><time>2026-04-11T11:10:32.124Z</time></trkpt><trkpt lat="44.2914367" lon="11.7964533"><ele>94.0</ele><time>2026-04-11T11:10:33.124Z</time></trkpt><trkpt lat="44.291495" lon="11.7964067"><ele>94.0</ele><time>2026-04-11T11:10:34.123Z</time></trkpt><trkpt lat="44.29155" lon="11.7962667"><ele>94.0</ele><time>2026-04-11T11:10:36.124Z</time></trkpt><trkpt lat="44.291525" lon="11.796095"><ele>95.66666666666666</ele><time>2026-04-11T11:10:38.122Z</time></trkpt><trkpt lat="44.2914883" lon="11.7960033"><ele>97.33333333333333</ele><time>2026-04-11T11:10:39.124Z</time></trkpt><trkpt lat="44.2914483" lon="11.795905"><ele>99.0</ele><time>2026-04-11T11:10:40.123Z</time></trkpt><trkpt lat="44.2914" lon="11.795805"><ele>100.66666666666666</ele><time>2026-04-11T11:10:41.124Z</time></trkpt><trkpt lat="44.2913433" lon="11.795705"><ele>102.33333333333333</ele><time>2026-04-11T11:10:42.123Z</time></trkpt><trkpt lat="44.2912833" lon="11.7956067"><ele>104.0</ele><time>2026-04-11T11:10:43.124Z</time></trkpt><trkpt lat="44.2912233" lon="11.795505"><ele>104.6</ele><time>2026-04-11T11:10:44.123Z</time></trkpt><trkpt lat="44.2911633" lon="11.7954067"><ele>105.2</ele><time>2026-04-11T11:10:45.125Z</time></trkpt><trkpt lat="44.2910967" lon="11.7953217"><ele>105.79999999999998</ele><time>2026-04-11T11:10:46.124Z</time></trkpt><trkpt lat="44.291025" lon="11.7952467"><ele>106.39999999999999</ele><time>2026-04-11T11:10:47.123Z</time></trkpt><trkpt lat="44.29095" lon="11.795175"><ele>107.0</ele><time>2026-04-11T11:10:48.123Z</time></trkpt><trkpt lat="44.2908767" lon="11.7950983"><ele>107.39999999999999</ele><time>2026-04-11T11:10:49.124Z</time></trkpt><trkpt lat="44.2908017" lon="11.7950183"><ele>107.79999999999998</ele><time>2026-04-11T11:10:50.124Z</time></trkpt><trkpt lat="44.2907283" lon="11.794935"><ele>108.2</ele><time>2026-04-11T11:10:51.124Z</time></trkpt><trkpt lat="44.2906567" lon="11.79485"><ele>108.6</ele><time>2026-04-11T11:10:52.123Z</time></trkpt><trkpt lat="44.29059" lon="11.7947567"><ele>109.0</ele><time>2026-04-11T11:10:53.123Z</time></trkpt><trkpt lat="44.2905217" lon="11.7946617"><ele>109.0</ele><time>2026-04-11T11:10:54.123Z</time></trkpt><trkpt lat="44.2904517" lon="11.7945733"><ele>109.0</ele><time>2026-04-11T11:10:55.124Z</time></trkpt><trkpt lat="44.2903783" lon="11.79449"><ele>109.0</ele><time>2026-04-11T11:10:56.125Z</time></trkpt><trkpt lat="44.2903133" lon="11.7944083"><ele>109.0</ele><time>2026-04-11T11:10:57.124Z</time></trkpt><trkpt lat="44.290245" lon="11.7943233"><ele>109.0</ele><time>2026-04-11T11:10:58.124Z</time></trkpt><trkpt lat="44.2901733" lon="11.7942317"><ele>111.0</ele><time>2026-04-11T11:10:59.124Z</time></trkpt><trkpt lat="44.2901017" lon="11.7941383"><ele>113.0</ele><time>2026-04-11T11:11:00.123Z</time></trkpt><trkpt lat="44.2900383" lon="11.794055"><ele>115.0</ele><time>2026-04-11T11:11:01.125Z</time></trkpt><trkpt lat="44.28998" lon="11.793985"><ele>117.0</ele><time>2026-04-11T11:11:02.124Z</time></trkpt><trkpt lat="44.2898917" lon="11.7938917"><ele>119.0</ele><time>2026-04-11T11:11:04.124Z</time></trkpt><trkpt lat="44.2898133" lon="11.79374"><ele>118.99999999999999</ele><time>2026-04-11T11:11:06.123Z</time></trkpt><trkpt lat="44.2897717" lon="11.7936533"><ele>119.0</ele><time>2026-04-11T11:11:07.124Z</time></trkpt><trkpt lat="44.289725" lon="11.79356"><ele>119.0</ele><time>2026-04-11T11:11:08.123Z</time></trkpt><trkpt lat="44.2896783" lon="11.7934583"><ele>119.0</ele><time>2026-04-11T11:11:09.125Z</time></trkpt><trkpt lat="44.28963" lon="11.79335"><ele>118.99999999999999</ele><time>2026-04-11T11:11:10.124Z</time></trkpt><trkpt lat="44.2895767" lon="11.7932433"><ele>119.0</ele><time>2026-04-11T11:11:11.124Z</time></trkpt><trkpt lat="44.28953" lon="11.7931283"><ele>120.16666666666666</ele><time>2026-04-11T11:11:12.124Z</time></trkpt><trkpt lat="44.2894933" lon="11.7930233"><ele>121.33333333333333</ele><time>2026-04-11T11:11:13.124Z</time></trkpt><trkpt lat="44.2894683" lon="11.7929283"><ele>122.5</ele><time>2026-04-11T11:11:14.124Z</time></trkpt><trkpt lat="44.28945" lon="11.7928367"><ele>123.66666666666666</ele><time>2026-04-11T11:11:15.123Z</time></trkpt><trkpt lat="44.2893933" lon="11.792695"><ele>124.83333333333333</ele><time>2026-04-11T11:11:17.123Z</time></trkpt><trkpt lat="44.2893333" lon="11.792635"><ele>126.0</ele><time>2026-04-11T11:11:18.124Z</time></trkpt><trkpt lat="44.2892667" lon="11.7925733"><ele>127.19999999999999</ele><time>2026-04-11T11:11:19.123Z</time></trkpt><trkpt lat="44.2891967" lon="11.7924983"><ele>128.39999999999998</ele><time>2026-04-11T11:11:20.123Z</time></trkpt><trkpt lat="44.2891317" lon="11.7923983"><ele>129.6</ele><time>2026-04-11T11:11:21.124Z</time></trkpt><trkpt lat="44.2890883" lon="11.792275"><ele>130.79999999999998</ele><time>2026-04-11T11:11:22.123Z</time></trkpt><trkpt lat="44.2890617" lon="11.79214"><ele>132.0</ele><time>2026-04-11T11:11:23.123Z</time></trkpt><trkpt lat="44.2890267" lon="11.7920233"><ele>132.0</ele><time>2026-04-11T11:11:24.124Z</time></trkpt><trkpt lat="44.2889717" lon="11.791925"><ele>132.0</ele><time>2026-04-11T11:11:25.124Z</time></trkpt><trkpt lat="44.2889083" lon="11.791835"><ele>132.0</ele><time>2026-04-11T11:11:26.124Z</time></trkpt><trkpt lat="44.2888183" lon="11.7917467"><ele>132.0</ele><time>2026-04-11T11:11:27.125Z</time></trkpt><trkpt lat="44.2887233" lon="11.7916417"><ele>132.0</ele><time>2026-04-11T11:11:28.124Z</time></trkpt><trkpt lat="44.28863" lon="11.7915217"><ele>134.5</ele><time>2026-04-11T11:11:29.123Z</time></trkpt><trkpt lat="44.2885333" lon="11.7913967"><ele>137.0</ele><time>2026-04-11T11:11:30.124Z</time></trkpt><trkpt lat="44.288435" lon="11.7912717"><ele>139.5</ele><time>2026-04-11T11:11:31.124Z</time></trkpt><trkpt lat="44.2883267" lon="11.7911583"><ele>142.0</ele><time>2026-04-11T11:11:32.124Z</time></trkpt><trkpt lat="44.2882117" lon="11.791055"><ele>141.0</ele><time>2026-04-11T11:11:33.124Z</time></trkpt><trkpt lat="44.2880933" lon="11.7909583"><ele>140.0</ele><time>2026-04-11T11:11:34.123Z</time></trkpt><trkpt lat="44.2879717" lon="11.7908633"><ele>139.0</ele><time>2026-04-11T11:11:35.123Z</time></trkpt><trkpt lat="44.2878467" lon="11.7907767"><ele>138.0</ele><time>2026-04-11T11:11:36.123Z</time></trkpt><trkpt lat="44.2877217" lon="11.7906933"><ele>142.0</ele><time>2026-04-11T11:11:37.124Z</time></trkpt><trkpt lat="44.2876033" lon="11.7906167"><ele>146.0</ele><time>2026-04-11T11:11:38.125Z</time></trkpt><trkpt lat="44.2874867" lon="11.7905433"><ele>150.0</ele><time>2026-04-11T11:11:39.124Z</time></trkpt><trkpt lat="44.2873733" lon="11.7904667"><ele>154.0</ele><time>2026-04-11T11:11:40.124Z</time></trkpt><trkpt lat="44.2872667" lon="11.7903867"><ele>155.0</ele><time>2026-04-11T11:11:41.124Z</time></trkpt><trkpt lat="44.2871517" lon="11.7903017"><ele>156.0</ele><time>2026-04-11T11:11:42.124Z</time></trkpt><trkpt lat="44.28704" lon="11.790235"><ele>157.0</ele><time>2026-04-11T11:11:43.125Z</time></trkpt><trkpt lat="44.28693" lon="11.7901783"><ele>158.0</ele><time>2026-04-11T11:11:44.124Z</time></trkpt><trkpt lat="44.2868033" lon="11.7901417"><ele>158.0</ele><time>2026-04-11T11:11:45.123Z</time></trkpt><trkpt lat="44.28668" lon="11.7901067"><ele>158.0</ele><time>2026-04-11T11:11:46.124Z</time></trkpt><trkpt lat="44.2865667" lon="11.7900633"><ele>158.0</ele><time>2026-04-11T11:11:47.123Z</time></trkpt><trkpt lat="44.2864667" lon="11.79"><ele>158.0</ele><time>2026-04-11T11:11:48.124Z</time></trkpt><trkpt lat="44.2863733" lon="11.7899167"><ele>157.0</ele><time>2026-04-11T11:11:49.124Z</time></trkpt><trkpt lat="44.28628" lon="11.78982"><ele>156.0</ele><time>2026-04-11T11:11:50.124Z</time></trkpt><trkpt lat="44.2861833" lon="11.7897183"><ele>155.0</ele><time>2026-04-11T11:11:51.126Z</time></trkpt><trkpt lat="44.2860817" lon="11.7896117"><ele>154.0</ele><time>2026-04-11T11:11:52.123Z</time></trkpt><trkpt lat="44.2859817" lon="11.7895033"><ele>154.0</ele><time>2026-04-11T11:11:53.123Z</time></trkpt><trkpt lat="44.2858833" lon="11.78939"><ele>154.0</ele><time>2026-04-11T11:11:54.124Z</time></trkpt><trkpt lat="44.28579" lon="11.789275"><ele>154.0</ele><time>2026-04-11T11:11:55.124Z</time></trkpt><trkpt lat="44.2857033" lon="11.789155"><ele>154.0</ele><time>2026-04-11T11:11:56.123Z</time></trkpt><trkpt lat="44.285635" lon="11.7890183"><ele>153.25</ele><time>2026-04-11T11:11:57.125Z</time></trkpt><trkpt lat="44.2855717" lon="11.788865"><ele>152.5</ele><time>2026-04-11T11:11:58.122Z</time></trkpt><trkpt lat="44.2855117" lon="11.7887067"><ele>151.75</ele><time>2026-04-11T11:11:59.123Z</time></trkpt><trkpt lat="44.28545" lon="11.7885467"><ele>151.0</ele><time>2026-04-11T11:12:00.123Z</time></trkpt><trkpt lat="44.2853917" lon="11.7883783"><ele>151.0</ele><time>2026-04-11T11:12:01.124Z</time></trkpt><trkpt lat="44.2853417" lon="11.7882017"><ele>151.0</ele><time>2026-04-11T11:12:02.124Z</time></trkpt><trkpt lat="44.2853067" lon="11.7880217"><ele>151.0</ele><time>2026-04-11T11:12:03.124Z</time></trkpt><trkpt lat="44.2852767" lon="11.7878583"><ele>151.0</ele><time>2026-04-11T11:12:04.123Z</time></trkpt><trkpt lat="44.285265" lon="11.7877067"><ele>152.4</ele><time>2026-04-11T11:12:05.124Z</time></trkpt><trkpt lat="44.2852567" lon="11.78758"><ele>153.8</ele><time>2026-04-11T11:12:06.124Z</time></trkpt><trkpt lat="44.285255" lon="11.787475"><ele>155.20000000000002</ele><time>2026-04-11T11:12:07.124Z</time></trkpt><trkpt lat="44.2852617" lon="11.7873567"><ele>156.6</ele><time>2026-04-11T11:12:09.124Z</time></trkpt><trkpt lat="44.2853117" lon="11.7872767"><ele>158.0</ele><time>2026-04-11T11:12:12.124Z</time></trkpt><trkpt lat="44.2854283" lon="11.7872017"><ele>158.0</ele><time>2026-04-11T11:12:14.124Z</time></trkpt><trkpt lat="44.2855083" lon="11.7871433"><ele>158.0</ele><time>2026-04-11T11:12:15.124Z</time></trkpt><trkpt lat="44.2856017" lon="11.787075"><ele>158.0</ele><time>2026-04-11T11:12:16.122Z</time></trkpt><trkpt lat="44.2857" lon="11.787"><ele>158.0</ele><time>2026-04-11T11:12:17.123Z</time></trkpt><trkpt lat="44.2858067" lon="11.786925"><ele>158.0</ele><time>2026-04-11T11:12:18.124Z</time></trkpt><trkpt lat="44.2859167" lon="11.78685"><ele>156.0</ele><time>2026-04-11T11:12:19.125Z</time></trkpt><trkpt lat="44.2860167" lon="11.78677"><ele>154.0</ele><time>2026-04-11T11:12:20.124Z</time></trkpt><trkpt lat="44.2861067" lon="11.7866817"><ele>152.0</ele><time>2026-04-11T11:12:21.124Z</time></trkpt><trkpt lat="44.2861833" lon="11.7865767"><ele>150.0</ele><time>2026-04-11T11:12:22.125Z</time></trkpt><trkpt lat="44.2862533" lon="11.7864383"><ele>150.0</ele><time>2026-04-11T11:12:23.124Z</time></trkpt><trkpt lat="44.2863183" lon="11.7862783"><ele>150.0</ele><time>2026-04-11T11:12:24.124Z</time></trkpt><trkpt lat="44.2863817" lon="11.7861217"><ele>150.0</ele><time>2026-04-11T11:12:25.123Z</time></trkpt><trkpt lat="44.2864417" lon="11.785995"><ele>150.0</ele><time>2026-04-11T11:12:26.124Z</time></trkpt><trkpt lat="44.28651" lon="11.7858883"><ele>145.0</ele><time>2026-04-11T11:12:27.125Z</time></trkpt><trkpt lat="44.2865933" lon="11.785815"><ele>140.0</ele><time>2026-04-11T11:12:28.124Z</time></trkpt><trkpt lat="44.2866867" lon="11.7857867"><ele>135.0</ele><time>2026-04-11T11:12:29.124Z</time></trkpt><trkpt lat="44.286795" lon="11.7857983"><ele>130.0</ele><time>2026-04-11T11:12:30.123Z</time></trkpt><trkpt lat="44.2869067" lon="11.785865"><ele>125.0</ele><time>2026-04-11T11:12:31.124Z</time></trkpt><trkpt lat="44.2870117" lon="11.7859667"><ele>123.5</ele><time>2026-04-11T11:12:32.124Z</time></trkpt><trkpt lat="44.2871067" lon="11.7860917"><ele>122.0</ele><time>2026-04-11T11:12:33.124Z</time></trkpt><trkpt lat="44.2871917" lon="11.7862333"><ele>120.5</ele><time>2026-04-11T11:12:34.123Z</time></trkpt><trkpt lat="44.287275" lon="11.7863833"><ele>119.0</ele><time>2026-04-11T11:12:35.124Z</time></trkpt><trkpt lat="44.28736" lon="11.7865367"><ele>119.0</ele><time>2026-04-11T11:12:36.124Z</time></trkpt><trkpt lat="44.2874433" lon="11.7866917"><ele>119.0</ele><time>2026-04-11T11:12:37.124Z</time></trkpt><trkpt lat="44.2875217" lon="11.7868433"><ele>119.0</ele><time>2026-04-11T11:12:38.124Z</time></trkpt><trkpt lat="44.287595" lon="11.78698"><ele>119.0</ele><time>2026-04-11T11:12:39.125Z</time></trkpt><trkpt lat="44.2876683" lon="11.7870817"><ele>119.6</ele><time>2026-04-11T11:12:40.124Z</time></trkpt><trkpt lat="44.2877467" lon="11.787145"><ele>120.2</ele><time>2026-04-11T11:12:41.124Z</time></trkpt><trkpt lat="44.2878317" lon="11.7871717"><ele>120.79999999999998</ele><time>2026-04-11T11:12:42.124Z</time></trkpt><trkpt lat="44.2879167" lon="11.787115"><ele>121.39999999999999</ele><time>2026-04-11T11:12:43.124Z</time></trkpt><trkpt lat="44.2879983" lon="11.7870183"><ele>122.0</ele><time>2026-04-11T11:12:44.124Z</time></trkpt><trkpt lat="44.28808" lon="11.7868983"><ele>121.19999999999999</ele><time>2026-04-11T11:12:45.124Z</time></trkpt><trkpt lat="44.28816" lon="11.78677"><ele>120.39999999999999</ele><time>2026-04-11T11:12:46.123Z</time></trkpt><trkpt lat="44.288235" lon="11.78664"><ele>119.60000000000001</ele><time>2026-04-11T11:12:47.124Z</time></trkpt><trkpt lat="44.2883033" lon="11.786525"><ele>118.80000000000001</ele><time>2026-04-11T11:12:48.124Z</time></trkpt><trkpt lat="44.2883717" lon="11.7864267"><ele>118.0</ele><time>2026-04-11T11:12:49.124Z</time></trkpt><trkpt lat="44.2884517" lon="11.7863367"><ele>118.0</ele><time>2026-04-11T11:12:50.123Z</time></trkpt><trkpt lat="44.288545" lon="11.78625"><ele>118.0</ele><time>2026-04-11T11:12:51.124Z</time></trkpt><trkpt lat="44.2886567" lon="11.786175"><ele>118.0</ele><time>2026-04-11T11:12:52.123Z</time></trkpt><trkpt lat="44.2887783" lon="11.7861133"><ele>118.0</ele><time>2026-04-11T11:12:53.124Z</time></trkpt><trkpt lat="44.2889067" lon="11.7860667"><ele>118.25</ele><time>2026-04-11T11:12:54.125Z</time></trkpt><trkpt lat="44.2890367" lon="11.78602"><ele>118.5</ele><time>2026-04-11T11:12:55.124Z</time></trkpt><trkpt lat="44.2891633" lon="11.7859683"><ele>118.75</ele><time>2026-04-11T11:12:56.124Z</time></trkpt><trkpt lat="44.2892883" lon="11.785915"><ele>119.0</ele><time>2026-04-11T11:12:57.124Z</time></trkpt><trkpt lat="44.2894133" lon="11.7858667"><ele>114.75</ele><time>2026-04-11T11:12:58.123Z</time></trkpt><trkpt lat="44.2895367" lon="11.7858167"><ele>110.5</ele><time>2026-04-11T11:12:59.122Z</time></trkpt><trkpt lat="44.2896583" lon="11.7857683"><ele>106.25</ele><time>2026-04-11T11:13:00.124Z</time></trkpt><trkpt lat="44.2897817" lon="11.7857233"><ele>102.0</ele><time>2026-04-11T11:13:01.124Z</time></trkpt><trkpt lat="44.2899033" lon="11.78567"><ele>101.25</ele><time>2026-04-11T11:13:02.122Z</time></trkpt><trkpt lat="44.2900217" lon="11.7856033"><ele>100.5</ele><time>2026-04-11T11:13:03.124Z</time></trkpt><trkpt lat="44.2901333" lon="11.7855117"><ele>99.75</ele><time>2026-04-11T11:13:04.124Z</time></trkpt><trkpt lat="44.2902367" lon="11.785415"><ele>99.0</ele><time>2026-04-11T11:13:05.123Z</time></trkpt><trkpt lat="44.2903333" lon="11.785315"><ele>99.0</ele><time>2026-04-11T11:13:06.124Z</time></trkpt><trkpt lat="44.2904267" lon="11.7852233"><ele>99.0</ele><time>2026-04-11T11:13:07.124Z</time></trkpt><trkpt lat="44.2905283" lon="11.7851633"><ele>99.0</ele><time>2026-04-11T11:13:08.124Z</time></trkpt><trkpt lat="44.290645" lon="11.7851283"><ele>99.0</ele><time>2026-04-11T11:13:09.125Z</time></trkpt><trkpt lat="44.2907767" lon="11.7851117"><ele>93.5</ele><time>2026-04-11T11:13:10.124Z</time></trkpt><trkpt lat="44.2909117" lon="11.7851017"><ele>88.0</ele><time>2026-04-11T11:13:11.123Z</time></trkpt><trkpt lat="44.291045" lon="11.7850917"><ele>82.5</ele><time>2026-04-11T11:13:12.124Z</time></trkpt><trkpt lat="44.2911667" lon="11.785085"><ele>77.0</ele><time>2026-04-11T11:13:13.124Z</time></trkpt><trkpt lat="44.291275" lon="11.78508"><ele>77.0</ele><time>2026-04-11T11:13:14.124Z</time></trkpt><trkpt lat="44.291365" lon="11.785085"><ele>77.0</ele><time>2026-04-11T11:13:15.125Z</time></trkpt><trkpt lat="44.2914367" lon="11.7851"><ele>77.0</ele><time>2026-04-11T11:13:16.123Z</time></trkpt><trkpt lat="44.29152" lon="11.78513"><ele>77.0</ele><time>2026-04-11T11:13:18.124Z</time></trkpt><trkpt lat="44.2915967" lon="11.785075"><ele>77.0</ele><time>2026-04-11T11:13:25.125Z</time></trkpt><trkpt lat="44.2915567" lon="11.7849083"><ele>77.0</ele><time>2026-04-11T11:13:27.124Z</time></trkpt><trkpt lat="44.2915183" lon="11.7847983"><ele>77.0</ele><time>2026-04-11T11:13:28.124Z</time></trkpt><trkpt lat="44.29147" lon="11.78467"><ele>77.0</ele><time>2026-04-11T11:13:29.123Z</time></trkpt><trkpt lat="44.29142" lon="11.784535"><ele>77.0</ele><time>2026-04-11T11:13:30.123Z</time></trkpt><trkpt lat="44.2913817" lon="11.7844017"><ele>77.0</ele><time>2026-04-11T11:13:31.124Z</time></trkpt><trkpt lat="44.29138" lon="11.784265"><ele>74.0</ele><time>2026-04-11T11:13:32.123Z</time></trkpt><trkpt lat="44.2914133" lon="11.784135"><ele>71.0</ele><time>2026-04-11T11:13:33.124Z</time></trkpt><trkpt lat="44.291485" lon="11.78401"><ele>68.0</ele><time>2026-04-11T11:13:34.123Z</time></trkpt><trkpt lat="44.2915817" lon="11.7838933"><ele>65.0</ele><time>2026-04-11T11:13:35.123Z</time></trkpt><trkpt lat="44.2916883" lon="11.78377"><ele>64.0</ele><time>2026-04-11T11:13:36.123Z</time></trkpt><trkpt lat="44.291795" lon="11.7836483"><ele>63.0</ele><time>2026-04-11T11:13:37.125Z</time></trkpt><trkpt lat="44.2918933" lon="11.783535"><ele>62.0</ele><time>2026-04-11T11:13:38.127Z</time></trkpt><trkpt lat="44.2919883" lon="11.783425"><ele>61.0</ele><time>2026-04-11T11:13:39.123Z</time></trkpt><trkpt lat="44.2920817" lon="11.7833167"><ele>60.4</ele><time>2026-04-11T11:13:40.124Z</time></trkpt><trkpt lat="44.29217" lon="11.78321"><ele>59.8</ele><time>2026-04-11T11:13:41.123Z</time></trkpt><trkpt lat="44.292255" lon="11.783105"><ele>59.199999999999996</ele><time>2026-04-11T11:13:42.124Z</time></trkpt><trkpt lat="44.2923333" lon="11.7830133"><ele>58.599999999999994</ele><time>2026-04-11T11:13:43.124Z</time></trkpt><trkpt lat="44.292395" lon="11.7829383"><ele>58.0</ele><time>2026-04-11T11:13:44.124Z</time></trkpt><trkpt lat="44.2924617" lon="11.7828217"><ele>57.599999999999994</ele><time>2026-04-11T11:13:46.124Z</time></trkpt><trkpt lat="44.292425" lon="11.7826933"><ele>57.199999999999996</ele><time>2026-04-11T11:13:48.124Z</time></trkpt><trkpt lat="44.292375" lon="11.7826233"><ele>56.8</ele><time>2026-04-11T11:13:49.122Z</time></trkpt><trkpt lat="44.2923133" lon="11.7825417"><ele>56.4</ele><time>2026-04-11T11:13:50.123Z</time></trkpt><trkpt lat="44.2922417" lon="11.7824383"><ele>56.0</ele><time>2026-04-11T11:13:51.123Z</time></trkpt><trkpt lat="44.2921683" lon="11.78232"><ele>56.0</ele><time>2026-04-11T11:13:52.124Z</time></trkpt><trkpt lat="44.2920967" lon="11.7821867"><ele>56.0</ele><time>2026-04-11T11:13:53.125Z</time></trkpt><trkpt lat="44.2920233" lon="11.7820383"><ele>56.0</ele><time>2026-04-11T11:13:54.124Z</time></trkpt><trkpt lat="44.2919517" lon="11.7818767"><ele>56.0</ele><time>2026-04-11T11:13:55.123Z</time></trkpt><trkpt lat="44.29188" lon="11.7817083"><ele>55.333333333333336</ele><time>2026-04-11T11:13:56.124Z</time></trkpt><trkpt lat="44.291805" lon="11.78153"><ele>54.66666666666667</ele><time>2026-04-11T11:13:57.125Z</time></trkpt><trkpt lat="44.2917283" lon="11.781345"><ele>54.0</ele><time>2026-04-11T11:13:58.124Z</time></trkpt><trkpt lat="44.2916483" lon="11.781155"><ele>54.0</ele><time>2026-04-11T11:13:59.123Z</time></trkpt><trkpt lat="44.2915533" lon="11.780975"><ele>54.0</ele><time>2026-04-11T11:14:00.124Z</time></trkpt><trkpt lat="44.29144" lon="11.7808217"><ele>54.0</ele><time>2026-04-11T11:14:01.123Z</time></trkpt><trkpt lat="44.291305" lon="11.780695"><ele>55.0</ele><time>2026-04-11T11:14:02.124Z</time></trkpt><trkpt lat="44.2911617" lon="11.78058"><ele>56.0</ele><time>2026-04-11T11:14:03.125Z</time></trkpt><trkpt lat="44.2910133" lon="11.78048"><ele>57.0</ele><time>2026-04-11T11:14:04.123Z</time></trkpt><trkpt lat="44.2908617" lon="11.78041"><ele>57.0</ele><time>2026-04-11T11:14:05.124Z</time></trkpt><trkpt lat="44.2907033" lon="11.78038"><ele>57.0</ele><time>2026-04-11T11:14:06.124Z</time></trkpt><trkpt lat="44.2905433" lon="11.7803933"><ele>57.0</ele><time>2026-04-11T11:14:07.124Z</time></trkpt><trkpt lat="44.2903833" lon="11.7804167"><ele>57.0</ele><time>2026-04-11T11:14:08.124Z</time></trkpt><trkpt lat="44.29022" lon="11.780405"><ele>57.0</ele><time>2026-04-11T11:14:09.124Z</time></trkpt><trkpt lat="44.290055" lon="11.780375"><ele>57.0</ele><time>2026-04-11T11:14:10.124Z</time></trkpt><trkpt lat="44.289895" lon="11.7803083"><ele>58.0</ele><time>2026-04-11T11:14:11.124Z</time></trkpt><trkpt lat="44.2897467" lon="11.7802033"><ele>59.0</ele><time>2026-04-11T11:14:12.124Z</time></trkpt><trkpt lat="44.2896017" lon="11.7800767"><ele>60.0</ele><time>2026-04-11T11:14:13.124Z</time></trkpt><trkpt lat="44.2894567" lon="11.7799383"><ele>60.0</ele><time>2026-04-11T11:14:14.124Z</time></trkpt><trkpt lat="44.28931" lon="11.7797933"><ele>60.0</ele><time>2026-04-11T11:14:15.124Z</time></trkpt><trkpt lat="44.289165" lon="11.779645"><ele>60.0</ele><time>2026-04-11T11:14:16.124Z</time></trkpt><trkpt lat="44.28902" lon="11.7794967"><ele>60.0</ele><time>2026-04-11T11:14:17.123Z</time></trkpt><trkpt lat="44.2888717" lon="11.7793533"><ele>60.0</ele><time>2026-04-11T11:14:18.123Z</time></trkpt><trkpt lat="44.2887217" lon="11.77921"><ele>60.0</ele><time>2026-04-11T11:14:19.124Z</time></trkpt><trkpt lat="44.28858" lon="11.77906"><ele>59.33333333333333</ele><time>2026-04-11T11:14:20.123Z</time></trkpt><trkpt lat="44.28844" lon="11.778905"><ele>58.666666666666664</ele><time>2026-04-11T11:14:21.124Z</time></trkpt><trkpt lat="44.2883033" lon="11.7787483"><ele>58.0</ele><time>2026-04-11T11:14:22.123Z</time></trkpt><trkpt lat="44.28816" lon="11.7786"><ele>58.33333333333333</ele><time>2026-04-11T11:14:23.123Z</time></trkpt><trkpt lat="44.2880083" lon="11.77846"><ele>58.66666666666667</ele><time>2026-04-11T11:14:24.125Z</time></trkpt><trkpt lat="44.2878533" lon="11.77832"><ele>59.0</ele><time>2026-04-11T11:14:25.124Z</time></trkpt><trkpt lat="44.2876971" lon="11.7781814"><ele>59.0</ele><time>2026-04-11T11:14:26.123Z</time></trkpt><trkpt lat="44.2875369" lon="11.7780467"><ele>59.0</ele><time>2026-04-11T11:14:27.124Z</time></trkpt><trkpt lat="44.2873726" lon="11.7779196"><ele>59.0</ele><time>2026-04-11T11:14:28.122Z</time></trkpt><trkpt lat="44.287204" lon="11.7777951"><ele>59.66666666666667</ele><time>2026-04-11T11:14:29.123Z</time></trkpt><trkpt lat="44.287035" lon="11.7776687"><ele>60.33333333333333</ele><time>2026-04-11T11:14:30.124Z</time></trkpt><trkpt lat="44.2868647" lon="11.7775406"><ele>61.0</ele><time>2026-04-11T11:14:31.124Z</time></trkpt><trkpt lat="44.2866952" lon="11.7774104"><ele>61.0</ele><time>2026-04-11T11:14:32.126Z</time></trkpt><trkpt lat="44.2865244" lon="11.7772803"><ele>61.0</ele><time>2026-04-11T11:14:33.125Z</time></trkpt><trkpt lat="44.2863519" lon="11.7771488"><ele>61.0</ele><time>2026-04-11T11:14:34.124Z</time></trkpt><trkpt lat="44.2861779" lon="11.7770143"><ele>61.666666666666664</ele><time>2026-04-11T11:14:35.125Z</time></trkpt><trkpt lat="44.2860047" lon="11.7768798"><ele>62.33333333333333</ele><time>2026-04-11T11:14:36.124Z</time></trkpt><trkpt lat="44.2858311" lon="11.7767447"><ele>63.0</ele><time>2026-04-11T11:14:37.124Z</time></trkpt><trkpt lat="44.2856588" lon="11.7766098"><ele>63.33333333333333</ele><time>2026-04-11T11:14:38.124Z</time></trkpt><trkpt lat="44.2854838" lon="11.7764766"><ele>63.666666666666664</ele><time>2026-04-11T11:14:39.124Z</time></trkpt><trkpt lat="44.2853092" lon="11.7763432"><ele>64.0</ele><time>2026-04-11T11:14:40.124Z</time></trkpt><trkpt lat="44.2851333" lon="11.7762119"><ele>64.0</ele><time>2026-04-11T11:14:41.124Z</time></trkpt><trkpt lat="44.2849585" lon="11.7760773"><ele>64.0</ele><time>2026-04-11T11:14:42.124Z</time></trkpt><trkpt lat="44.2847871" lon="11.7759366"><ele>64.0</ele><time>2026-04-11T11:14:43.124Z</time></trkpt><trkpt lat="44.2846189" lon="11.7757909"><ele>64.66666666666666</ele><time>2026-04-11T11:14:44.124Z</time></trkpt><trkpt lat="44.28445" lon="11.7756484"><ele>65.33333333333333</ele><time>2026-04-11T11:14:45.124Z</time></trkpt><trkpt lat="44.2842802" lon="11.7755064"><ele>66.0</ele><time>2026-04-11T11:14:46.123Z</time></trkpt><trkpt lat="44.2841082" lon="11.7753661"><ele>66.0</ele><time>2026-04-11T11:14:47.123Z</time></trkpt><trkpt lat="44.2839361" lon="11.7752257"><ele>66.0</ele><time>2026-04-11T11:14:48.122Z</time></trkpt><trkpt lat="44.2837622" lon="11.7750864"><ele>66.0</ele><time>2026-04-11T11:14:49.123Z</time></trkpt><trkpt lat="44.283588" lon="11.7749462"><ele>66.33333333333333</ele><time>2026-04-11T11:14:50.124Z</time></trkpt><trkpt lat="44.2834143" lon="11.7748043"><ele>66.66666666666666</ele><time>2026-04-11T11:14:51.124Z</time></trkpt><trkpt lat="44.2832417" lon="11.7746625"><ele>67.0</ele><time>2026-04-11T11:14:52.123Z</time></trkpt><trkpt lat="44.2830686" lon="11.7745207"><ele>67.66666666666666</ele><time>2026-04-11T11:14:53.123Z</time></trkpt><trkpt lat="44.2828964" lon="11.7743798"><ele>68.33333333333333</ele><time>2026-04-11T11:14:54.123Z</time></trkpt><trkpt lat="44.282726" lon="11.7742385"><ele>69.0</ele><time>2026-04-11T11:14:55.124Z</time></trkpt><trkpt lat="44.2825606" lon="11.7741009"><ele>69.0</ele><time>2026-04-11T11:14:56.123Z</time></trkpt><trkpt lat="44.2824005" lon="11.7739822"><ele>69.0</ele><time>2026-04-11T11:14:57.124Z</time></trkpt><trkpt lat="44.2822434" lon="11.7738859"><ele>69.0</ele><time>2026-04-11T11:14:58.124Z</time></trkpt><trkpt lat="44.2820837" lon="11.7738094"><ele>69.0</ele><time>2026-04-11T11:14:59.124Z</time></trkpt><trkpt lat="44.281923" lon="11.7737365"><ele>69.0</ele><time>2026-04-11T11:15:00.124Z</time></trkpt><trkpt lat="44.2817625" lon="11.7736507"><ele>69.0</ele><time>2026-04-11T11:15:01.123Z</time></trkpt><trkpt lat="44.2816008" lon="11.7735463"><ele>68.66666666666667</ele><time>2026-04-11T11:15:02.123Z</time></trkpt><trkpt lat="44.2814351" lon="11.7734353"><ele>68.33333333333334</ele><time>2026-04-11T11:15:03.126Z</time></trkpt><trkpt lat="44.281265" lon="11.7733192"><ele>68.0</ele><time>2026-04-11T11:15:04.124Z</time></trkpt><trkpt lat="44.2810935" lon="11.773201"><ele>68.0</ele><time>2026-04-11T11:15:05.124Z</time></trkpt><trkpt lat="44.2809235" lon="11.7730746"><ele>68.0</ele><time>2026-04-11T11:15:06.124Z</time></trkpt><trkpt lat="44.2807542" lon="11.7729442"><ele>68.0</ele><time>2026-04-11T11:15:07.123Z</time></trkpt><trkpt lat="44.2805842" lon="11.7728135"><ele>69.33333333333334</ele><time>2026-04-11T11:15:08.124Z</time></trkpt><trkpt lat="44.280415" lon="11.7726781"><ele>70.66666666666667</ele><time>2026-04-11T11:15:09.126Z</time></trkpt><trkpt lat="44.2802481" lon="11.7725431"><ele>72.0</ele><time>2026-04-11T11:15:10.123Z</time></trkpt><trkpt lat="44.2800799" lon="11.7724095"><ele>72.0</ele><time>2026-04-11T11:15:11.123Z</time></trkpt><trkpt lat="44.2799108" lon="11.7722759"><ele>72.0</ele><time>2026-04-11T11:15:12.123Z</time></trkpt><trkpt lat="44.279741" lon="11.7721451"><ele>72.0</ele><time>2026-04-11T11:15:13.124Z</time></trkpt><trkpt lat="44.2795664" lon="11.7720225"><ele>72.33333333333333</ele><time>2026-04-11T11:15:14.124Z</time></trkpt><trkpt lat="44.2793931" lon="11.7719056"><ele>72.66666666666666</ele><time>2026-04-11T11:15:15.123Z</time></trkpt><trkpt lat="44.2792186" lon="11.7717944"><ele>73.0</ele><time>2026-04-11T11:15:16.124Z</time></trkpt><trkpt lat="44.2790434" lon="11.7716818"><ele>72.0</ele><time>2026-04-11T11:15:17.123Z</time></trkpt><trkpt lat="44.2788679" lon="11.7715698"><ele>71.0</ele><time>2026-04-11T11:15:18.123Z</time></trkpt><trkpt lat="44.2786923" lon="11.7714584"><ele>70.0</ele><time>2026-04-11T11:15:19.124Z</time></trkpt><trkpt lat="44.2785195" lon="11.7713423"><ele>70.0</ele><time>2026-04-11T11:15:20.124Z</time></trkpt><trkpt lat="44.278353" lon="11.7712122"><ele>70.0</ele><time>2026-04-11T11:15:21.124Z</time></trkpt><trkpt lat="44.2781906" lon="11.7710652"><ele>70.0</ele><time>2026-04-11T11:15:22.123Z</time></trkpt><trkpt lat="44.2780334" lon="11.770905"><ele>69.33333333333333</ele><time>2026-04-11T11:15:23.123Z</time></trkpt><trkpt lat="44.2778797" lon="11.770738"><ele>68.66666666666667</ele><time>2026-04-11T11:15:24.123Z</time></trkpt><trkpt lat="44.2777247" lon="11.7705712"><ele>68.0</ele><time>2026-04-11T11:15:25.123Z</time></trkpt><trkpt lat="44.2775666" lon="11.7704059"><ele>68.0</ele><time>2026-04-11T11:15:26.123Z</time></trkpt><trkpt lat="44.2774066" lon="11.7702421"><ele>68.0</ele><time>2026-04-11T11:15:27.124Z</time></trkpt><trkpt lat="44.2772466" lon="11.7700795"><ele>68.0</ele><time>2026-04-11T11:15:28.124Z</time></trkpt><trkpt lat="44.2770869" lon="11.7699187"><ele>68.33333333333334</ele><time>2026-04-11T11:15:29.123Z</time></trkpt><trkpt lat="44.2769318" lon="11.7697646"><ele>68.66666666666667</ele><time>2026-04-11T11:15:30.123Z</time></trkpt><trkpt lat="44.2767772" lon="11.7696154"><ele>69.0</ele><time>2026-04-11T11:15:31.124Z</time></trkpt><trkpt lat="44.2766201" lon="11.7694668"><ele>68.33333333333333</ele><time>2026-04-11T11:15:32.123Z</time></trkpt><trkpt lat="44.2764594" lon="11.7693186"><ele>67.66666666666666</ele><time>2026-04-11T11:15:33.124Z</time></trkpt><trkpt lat="44.2762987" lon="11.7691696"><ele>67.0</ele><time>2026-04-11T11:15:34.123Z</time></trkpt><trkpt lat="44.2761385" lon="11.7690217"><ele>67.0</ele><time>2026-04-11T11:15:35.124Z</time></trkpt><trkpt lat="44.2759784" lon="11.768888"><ele>67.0</ele><time>2026-04-11T11:15:36.124Z</time></trkpt><trkpt lat="44.2758125" lon="11.7687764"><ele>67.0</ele><time>2026-04-11T11:15:37.123Z</time></trkpt><trkpt lat="44.2756364" lon="11.7686934"><ele>67.0</ele><time>2026-04-11T11:15:38.124Z</time></trkpt><trkpt lat="44.2754524" lon="11.7686398"><ele>67.0</ele><time>2026-04-11T11:15:39.124Z</time></trkpt><trkpt lat="44.2752704" lon="11.7685993"><ele>67.0</ele><time>2026-04-11T11:15:40.124Z</time></trkpt><trkpt lat="44.2751016" lon="11.7685351"><ele>67.0</ele><time>2026-04-11T11:15:41.123Z</time></trkpt><trkpt lat="44.2749417" lon="11.7684222"><ele>67.0</ele><time>2026-04-11T11:15:42.124Z</time></trkpt><trkpt lat="44.2747841" lon="11.7682915"><ele>67.0</ele><time>2026-04-11T11:15:43.124Z</time></trkpt><trkpt lat="44.2746376" lon="11.7681291"><ele>67.0</ele><time>2026-04-11T11:15:44.124Z</time></trkpt><trkpt lat="44.2744883" lon="11.767965"><ele>67.0</ele><time>2026-04-11T11:15:45.124Z</time></trkpt><trkpt lat="44.2743324" lon="11.767804"><ele>67.0</ele><time>2026-04-11T11:15:46.124Z</time></trkpt><trkpt lat="44.2741751" lon="11.7676377"><ele>65.0</ele><time>2026-04-11T11:15:47.123Z</time></trkpt><trkpt lat="44.2740231" lon="11.7674604"><ele>63.0</ele><time>2026-04-11T11:15:48.123Z</time></trkpt><trkpt lat="44.2738814" lon="11.7672795"><ele>61.0</ele><time>2026-04-11T11:15:49.124Z</time></trkpt><trkpt lat="44.2737566" lon="11.7671102"><ele>61.0</ele><time>2026-04-11T11:15:50.124Z</time></trkpt><trkpt lat="44.27365" lon="11.7669611"><ele>61.0</ele><time>2026-04-11T11:15:51.124Z</time></trkpt><trkpt lat="44.2735652" lon="11.7668224"><ele>61.0</ele><time>2026-04-11T11:15:52.124Z</time></trkpt><trkpt lat="44.2735221" lon="11.7666615"><ele>61.0</ele><time>2026-04-11T11:15:53.124Z</time></trkpt><trkpt lat="44.2735127" lon="11.7664812"><ele>60.0</ele><time>2026-04-11T11:15:54.124Z</time></trkpt><trkpt lat="44.2735159" lon="11.766298"><ele>59.0</ele><time>2026-04-11T11:15:55.125Z</time></trkpt><trkpt lat="44.273544" lon="11.7661013"><ele>58.0</ele><time>2026-04-11T11:15:56.123Z</time></trkpt><trkpt lat="44.2735404" lon="11.765916"><ele>57.0</ele><time>2026-04-11T11:15:57.124Z</time></trkpt><trkpt lat="44.2735072" lon="11.7657471"><ele>56.75</ele><time>2026-04-11T11:15:58.125Z</time></trkpt><trkpt lat="44.273452" lon="11.7655919"><ele>56.5</ele><time>2026-04-11T11:15:59.123Z</time></trkpt><trkpt lat="44.2733352" lon="11.7654792"><ele>56.25</ele><time>2026-04-11T11:16:00.123Z</time></trkpt><trkpt lat="44.273228" lon="11.7653436"><ele>56.0</ele><time>2026-04-11T11:16:01.123Z</time></trkpt><trkpt lat="44.2730987" lon="11.7652072"><ele>55.66666666666667</ele><time>2026-04-11T11:16:02.126Z</time></trkpt><trkpt lat="44.2729483" lon="11.765065"><ele>55.33333333333333</ele><time>2026-04-11T11:16:03.124Z</time></trkpt><trkpt lat="44.2728167" lon="11.76491"><ele>55.0</ele><time>2026-04-11T11:16:04.123Z</time></trkpt><trkpt lat="44.27268" lon="11.7647517"><ele>55.0</ele><time>2026-04-11T11:16:05.123Z</time></trkpt><trkpt lat="44.2725417" lon="11.764595"><ele>55.0</ele><time>2026-04-11T11:16:06.127Z</time></trkpt><trkpt lat="44.2723983" lon="11.7644433"><ele>55.0</ele><time>2026-04-11T11:16:07.124Z</time></trkpt><trkpt lat="44.2722417" lon="11.7643183"><ele>56.0</ele><time>2026-04-11T11:16:08.124Z</time></trkpt><trkpt lat="44.2720733" lon="11.7642333"><ele>57.0</ele><time>2026-04-11T11:16:09.124Z</time></trkpt><trkpt lat="44.2718967" lon="11.7641817"><ele>58.0</ele><time>2026-04-11T11:16:10.123Z</time></trkpt><trkpt lat="44.27172" lon="11.7641417"><ele>58.0</ele><time>2026-04-11T11:16:11.124Z</time></trkpt><trkpt lat="44.27154" lon="11.7641"><ele>58.0</ele><time>2026-04-11T11:16:12.124Z</time></trkpt><trkpt lat="44.2713583" lon="11.764055"><ele>58.0</ele><time>2026-04-11T11:16:13.123Z</time></trkpt><trkpt lat="44.2711783" lon="11.7640033"><ele>60.33333333333333</ele><time>2026-04-11T11:16:14.124Z</time></trkpt><trkpt lat="44.2710017" lon="11.76393"><ele>62.66666666666667</ele><time>2026-04-11T11:16:15.124Z</time></trkpt><trkpt lat="44.2708283" lon="11.76384"><ele>65.0</ele><time>2026-04-11T11:16:16.124Z</time></trkpt><trkpt lat="44.27066" lon="11.7637283"><ele>66.33333333333334</ele><time>2026-04-11T11:16:17.123Z</time></trkpt><trkpt lat="44.2704983" lon="11.7636033"><ele>67.66666666666667</ele><time>2026-04-11T11:16:18.123Z</time></trkpt><trkpt lat="44.27034" lon="11.7634667"><ele>69.0</ele><time>2026-04-11T11:16:19.128Z</time></trkpt><trkpt lat="44.27019" lon="11.7633317"><ele>69.0</ele><time>2026-04-11T11:16:20.123Z</time></trkpt><trkpt lat="44.2700467" lon="11.763215"><ele>69.0</ele><time>2026-04-11T11:16:21.124Z</time></trkpt><trkpt lat="44.2698967" lon="11.7631133"><ele>69.0</ele><time>2026-04-11T11:16:22.124Z</time></trkpt><trkpt lat="44.2697483" lon="11.7630017"><ele>68.33333333333333</ele><time>2026-04-11T11:16:23.123Z</time></trkpt><trkpt lat="44.269605" lon="11.7628667"><ele>67.66666666666666</ele><time>2026-04-11T11:16:24.124Z</time></trkpt><trkpt lat="44.2694633" lon="11.762725"><ele>67.0</ele><time>2026-04-11T11:16:25.124Z</time></trkpt><trkpt lat="44.2693083" lon="11.762605"><ele>67.0</ele><time>2026-04-11T11:16:26.124Z</time></trkpt><trkpt lat="44.2691417" lon="11.762505"><ele>67.0</ele><time>2026-04-11T11:16:27.124Z</time></trkpt><trkpt lat="44.2689717" lon="11.762405"><ele>67.0</ele><time>2026-04-11T11:16:28.123Z</time></trkpt><trkpt lat="44.2687983" lon="11.7623017"><ele>70.33333333333333</ele><time>2026-04-11T11:16:29.123Z</time></trkpt><trkpt lat="44.268625" lon="11.7621833"><ele>73.66666666666667</ele><time>2026-04-11T11:16:30.123Z</time></trkpt><trkpt lat="44.2684667" lon="11.76204"><ele>77.0</ele><time>2026-04-11T11:16:31.123Z</time></trkpt><trkpt lat="44.2683233" lon="11.7618717"><ele>74.0</ele><time>2026-04-11T11:16:32.124Z</time></trkpt><trkpt lat="44.26819" lon="11.7616833"><ele>71.0</ele><time>2026-04-11T11:16:33.124Z</time></trkpt><trkpt lat="44.2680783" lon="11.7614817"><ele>68.0</ele><time>2026-04-11T11:16:34.123Z</time></trkpt><trkpt lat="44.2679983" lon="11.7612583"><ele>64.33333333333334</ele><time>2026-04-11T11:16:35.122Z</time></trkpt><trkpt lat="44.26794" lon="11.7610167"><ele>60.66666666666667</ele><time>2026-04-11T11:16:36.123Z</time></trkpt><trkpt lat="44.2678833" lon="11.7607683"><ele>57.0</ele><time>2026-04-11T11:16:37.124Z</time></trkpt><trkpt lat="44.267825" lon="11.7605167"><ele>57.0</ele><time>2026-04-11T11:16:38.123Z</time></trkpt><trkpt lat="44.26777" lon="11.7602617"><ele>57.0</ele><time>2026-04-11T11:16:39.123Z</time></trkpt><trkpt lat="44.267715" lon="11.7600133"><ele>57.0</ele><time>2026-04-11T11:16:40.124Z</time></trkpt><trkpt lat="44.267665" lon="11.7597817"><ele>57.0</ele><time>2026-04-11T11:16:41.124Z</time></trkpt><trkpt lat="44.2676217" lon="11.75958"><ele>57.0</ele><time>2026-04-11T11:16:42.123Z</time></trkpt><trkpt lat="44.2676" lon="11.7594"><ele>57.0</ele><time>2026-04-11T11:16:43.124Z</time></trkpt><trkpt lat="44.26761" lon="11.759235"><ele>57.0</ele><time>2026-04-11T11:16:44.124Z</time></trkpt><trkpt lat="44.2676517" lon="11.7590733"><ele>57.75</ele><time>2026-04-11T11:16:45.124Z</time></trkpt><trkpt lat="44.2677133" lon="11.7589117"><ele>58.5</ele><time>2026-04-11T11:16:46.124Z</time></trkpt><trkpt lat="44.2677883" lon="11.758735"><ele>59.25</ele><time>2026-04-11T11:16:47.123Z</time></trkpt><trkpt lat="44.2678483" lon="11.7585367"><ele>60.0</ele><time>2026-04-11T11:16:48.124Z</time></trkpt><trkpt lat="44.26789" lon="11.7583233"><ele>60.33333333333333</ele><time>2026-04-11T11:16:49.123Z</time></trkpt><trkpt lat="44.2679133" lon="11.758095"><ele>60.666666666666664</ele><time>2026-04-11T11:16:50.124Z</time></trkpt><trkpt lat="44.26792" lon="11.757855"><ele>61.0</ele><time>2026-04-11T11:16:51.124Z</time></trkpt><trkpt lat="44.26792" lon="11.7576117"><ele>61.666666666666664</ele><time>2026-04-11T11:16:52.124Z</time></trkpt><trkpt lat="44.2679167" lon="11.757365"><ele>62.33333333333333</ele><time>2026-04-11T11:16:53.123Z</time></trkpt><trkpt lat="44.2679117" lon="11.75712"><ele>63.0</ele><time>2026-04-11T11:16:54.124Z</time></trkpt><trkpt lat="44.2679" lon="11.756885"><ele>65.0</ele><time>2026-04-11T11:16:55.124Z</time></trkpt><trkpt lat="44.2678833" lon="11.7566617"><ele>67.0</ele><time>2026-04-11T11:16:56.123Z</time></trkpt><trkpt lat="44.2678783" lon="11.7564617"><ele>69.0</ele><time>2026-04-11T11:16:57.125Z</time></trkpt><trkpt lat="44.267885" lon="11.756265"><ele>71.0</ele><time>2026-04-11T11:16:58.123Z</time></trkpt><trkpt lat="44.267885" lon="11.7560583"><ele>73.66666666666667</ele><time>2026-04-11T11:16:59.125Z</time></trkpt><trkpt lat="44.26787" lon="11.75584"><ele>76.33333333333333</ele><time>2026-04-11T11:17:00.123Z</time></trkpt><trkpt lat="44.267845" lon="11.7556133"><ele>79.0</ele><time>2026-04-11T11:17:01.123Z</time></trkpt><trkpt lat="44.2678167" lon="11.7553783"><ele>79.33333333333333</ele><time>2026-04-11T11:17:02.125Z</time></trkpt><trkpt lat="44.2678067" lon="11.7551283"><ele>79.66666666666667</ele><time>2026-04-11T11:17:03.124Z</time></trkpt><trkpt lat="44.267815" lon="11.75488"><ele>80.0</ele><time>2026-04-11T11:17:04.124Z</time></trkpt><trkpt lat="44.26784" lon="11.7546283"><ele>80.0</ele><time>2026-04-11T11:17:05.124Z</time></trkpt><trkpt lat="44.26787" lon="11.7543733"><ele>80.0</ele><time>2026-04-11T11:17:06.125Z</time></trkpt><trkpt lat="44.2678983" lon="11.7541117"><ele>80.0</ele><time>2026-04-11T11:17:07.124Z</time></trkpt><trkpt lat="44.2679283" lon="11.7538467"><ele>80.0</ele><time>2026-04-11T11:17:08.124Z</time></trkpt><trkpt lat="44.2679567" lon="11.7535783"><ele>80.0</ele><time>2026-04-11T11:17:09.124Z</time></trkpt><trkpt lat="44.2679833" lon="11.753315"><ele>80.0</ele><time>2026-04-11T11:17:10.124Z</time></trkpt><trkpt lat="44.26801" lon="11.7530533"><ele>80.33333333333334</ele><time>2026-04-11T11:17:11.123Z</time></trkpt><trkpt lat="44.2680383" lon="11.7528"><ele>80.66666666666667</ele><time>2026-04-11T11:17:12.124Z</time></trkpt><trkpt lat="44.2680833" lon="11.752565"><ele>81.0</ele><time>2026-04-11T11:17:13.124Z</time></trkpt><trkpt lat="44.2681517" lon="11.7523533"><ele>81.66666666666667</ele><time>2026-04-11T11:17:14.123Z</time></trkpt><trkpt lat="44.268235" lon="11.7521567"><ele>82.33333333333334</ele><time>2026-04-11T11:17:15.124Z</time></trkpt><trkpt lat="44.2683217" lon="11.751955"><ele>83.0</ele><time>2026-04-11T11:17:16.124Z</time></trkpt><trkpt lat="44.2684083" lon="11.7517483"><ele>83.33333333333334</ele><time>2026-04-11T11:17:17.124Z</time></trkpt><trkpt lat="44.2684983" lon="11.751535"><ele>83.66666666666667</ele><time>2026-04-11T11:17:18.123Z</time></trkpt><trkpt lat="44.2685883" lon="11.751335"><ele>84.0</ele><time>2026-04-11T11:17:19.124Z</time></trkpt><trkpt lat="44.26867" lon="11.7511533"><ele>84.2</ele><time>2026-04-11T11:17:20.124Z</time></trkpt><trkpt lat="44.26874" lon="11.7509917"><ele>84.4</ele><time>2026-04-11T11:17:21.124Z</time></trkpt><trkpt lat="44.268795" lon="11.7508583"><ele>84.6</ele><time>2026-04-11T11:17:22.122Z</time></trkpt><trkpt lat="44.268825" lon="11.7507433"><ele>84.8</ele><time>2026-04-11T11:17:23.124Z</time></trkpt><trkpt lat="44.2688217" lon="11.7506333"><ele>85.0</ele><time>2026-04-11T11:17:24.124Z</time></trkpt><trkpt lat="44.2687783" lon="11.7505483"><ele>85.0</ele><time>2026-04-11T11:17:25.124Z</time></trkpt><trkpt lat="44.2687167" lon="11.7504883"><ele>85.0</ele><time>2026-04-11T11:17:26.125Z</time></trkpt><trkpt lat="44.2686333" lon="11.7504417"><ele>85.0</ele><time>2026-04-11T11:17:27.124Z</time></trkpt><trkpt lat="44.268535" lon="11.7503983"><ele>85.0</ele><time>2026-04-11T11:17:28.123Z</time></trkpt><trkpt lat="44.2684233" lon="11.7503583"><ele>85.0</ele><time>2026-04-11T11:17:29.124Z</time></trkpt><trkpt lat="44.2683033" lon="11.7503167"><ele>85.0</ele><time>2026-04-11T11:17:30.124Z</time></trkpt><trkpt lat="44.26818" lon="11.75027"><ele>85.0</ele><time>2026-04-11T11:17:31.123Z</time></trkpt><trkpt lat="44.268065" lon="11.7502067"><ele>85.0</ele><time>2026-04-11T11:17:32.124Z</time></trkpt><trkpt lat="44.2679517" lon="11.7501233"><ele>85.0</ele><time>2026-04-11T11:17:33.124Z</time></trkpt><trkpt lat="44.267835" lon="11.7500367"><ele>85.0</ele><time>2026-04-11T11:17:34.124Z</time></trkpt><trkpt lat="44.2677217" lon="11.7499467"><ele>85.0</ele><time>2026-04-11T11:17:35.124Z</time></trkpt><trkpt lat="44.2676067" lon="11.7498583"><ele>85.0</ele><time>2026-04-11T11:17:36.123Z</time></trkpt><trkpt lat="44.267485" lon="11.749785"><ele>85.0</ele><time>2026-04-11T11:17:37.123Z</time></trkpt><trkpt lat="44.2673567" lon="11.749735"><ele>85.75</ele><time>2026-04-11T11:17:38.123Z</time></trkpt><trkpt lat="44.2672217" lon="11.7497033"><ele>86.5</ele><time>2026-04-11T11:17:39.124Z</time></trkpt><trkpt lat="44.2670967" lon="11.7497"><ele>87.25</ele><time>2026-04-11T11:17:40.123Z</time></trkpt><trkpt lat="44.2669817" lon="11.74972"><ele>88.0</ele><time>2026-04-11T11:17:41.125Z</time></trkpt><trkpt lat="44.2668833" lon="11.7497833"><ele>88.0</ele><time>2026-04-11T11:17:42.124Z</time></trkpt><trkpt lat="44.2668" lon="11.7498583"><ele>88.0</ele><time>2026-04-11T11:17:43.125Z</time></trkpt><trkpt lat="44.266715" lon="11.7499217"><ele>88.0</ele><time>2026-04-11T11:17:44.124Z</time></trkpt><trkpt lat="44.2666267" lon="11.7499633"><ele>88.0</ele><time>2026-04-11T11:17:45.123Z</time></trkpt><trkpt lat="44.26653" lon="11.7499583"><ele>88.0</ele><time>2026-04-11T11:17:46.124Z</time></trkpt><trkpt lat="44.2664417" lon="11.7499133"><ele>87.75</ele><time>2026-04-11T11:17:47.123Z</time></trkpt><trkpt lat="44.26635" lon="11.7498383"><ele>87.5</ele><time>2026-04-11T11:17:48.123Z</time></trkpt><trkpt lat="44.2662583" lon="11.7497417"><ele>87.25</ele><time>2026-04-11T11:17:49.124Z</time></trkpt><trkpt lat="44.2661667" lon="11.7496383"><ele>87.0</ele><time>2026-04-11T11:17:50.124Z</time></trkpt><trkpt lat="44.2660733" lon="11.7495417"><ele>87.0</ele><time>2026-04-11T11:17:51.124Z</time></trkpt><trkpt lat="44.265975" lon="11.7494483"><ele>87.0</ele><time>2026-04-11T11:17:52.124Z</time></trkpt><trkpt lat="44.265875" lon="11.749355"><ele>87.0</ele><time>2026-04-11T11:17:53.123Z</time></trkpt><trkpt lat="44.2657717" lon="11.7492633"><ele>87.0</ele><time>2026-04-11T11:17:54.124Z</time></trkpt><trkpt lat="44.2656733" lon="11.7491583"><ele>87.25</ele><time>2026-04-11T11:17:55.123Z</time></trkpt><trkpt lat="44.26558" lon="11.749045"><ele>87.5</ele><time>2026-04-11T11:17:56.123Z</time></trkpt><trkpt lat="44.26549" lon="11.7489233"><ele>87.75</ele><time>2026-04-11T11:17:57.123Z</time></trkpt><trkpt lat="44.265395" lon="11.7488033"><ele>88.0</ele><time>2026-04-11T11:17:58.124Z</time></trkpt><trkpt lat="44.2652917" lon="11.7486967"><ele>88.0</ele><time>2026-04-11T11:17:59.123Z</time></trkpt><trkpt lat="44.265185" lon="11.7485983"><ele>88.0</ele><time>2026-04-11T11:18:00.123Z</time></trkpt><trkpt lat="44.2650767" lon="11.7484983"><ele>88.0</ele><time>2026-04-11T11:18:01.123Z</time></trkpt><trkpt lat="44.2649717" lon="11.7483967"><ele>88.0</ele><time>2026-04-11T11:18:02.124Z</time></trkpt><trkpt lat="44.2648683" lon="11.748295"><ele>88.5</ele><time>2026-04-11T11:18:03.123Z</time></trkpt><trkpt lat="44.2647617" lon="11.7481967"><ele>89.0</ele><time>2026-04-11T11:18:04.123Z</time></trkpt><trkpt lat="44.2646533" lon="11.7481"><ele>89.5</ele><time>2026-04-11T11:18:05.124Z</time></trkpt><trkpt lat="44.264535" lon="11.748015"><ele>90.0</ele><time>2026-04-11T11:18:06.124Z</time></trkpt><trkpt lat="44.2644167" lon="11.7479417"><ele>90.0</ele><time>2026-04-11T11:18:07.123Z</time></trkpt><trkpt lat="44.2642917" lon="11.7478783"><ele>90.0</ele><time>2026-04-11T11:18:08.124Z</time></trkpt><trkpt lat="44.2641667" lon="11.74782"><ele>90.0</ele><time>2026-04-11T11:18:09.122Z</time></trkpt><trkpt lat="44.2640383" lon="11.7477583"><ele>90.0</ele><time>2026-04-11T11:18:10.123Z</time></trkpt><trkpt lat="44.2639183" lon="11.74768"><ele>90.0</ele><time>2026-04-11T11:18:11.123Z</time></trkpt><trkpt lat="44.2638033" lon="11.7475917"><ele>90.0</ele><time>2026-04-11T11:18:12.123Z</time></trkpt><trkpt lat="44.26369" lon="11.747495"><ele>90.0</ele><time>2026-04-11T11:18:13.125Z</time></trkpt><trkpt lat="44.263575" lon="11.7473867"><ele>90.0</ele><time>2026-04-11T11:18:14.123Z</time></trkpt><trkpt lat="44.263455" lon="11.7472783"><ele>90.0</ele><time>2026-04-11T11:18:15.123Z</time></trkpt><trkpt lat="44.2633267" lon="11.74717"><ele>90.0</ele><time>2026-04-11T11:18:16.123Z</time></trkpt><trkpt lat="44.2631983" lon="11.74706"><ele>90.0</ele><time>2026-04-11T11:18:17.123Z</time></trkpt><trkpt lat="44.263065" lon="11.7469467"><ele>90.5</ele><time>2026-04-11T11:18:18.123Z</time></trkpt><trkpt lat="44.26293" lon="11.7468283"><ele>91.0</ele><time>2026-04-11T11:18:19.123Z</time></trkpt><trkpt lat="44.2628033" lon="11.746715"><ele>91.5</ele><time>2026-04-11T11:18:20.123Z</time></trkpt><trkpt lat="44.262685" lon="11.7466117"><ele>92.0</ele><time>2026-04-11T11:18:21.123Z</time></trkpt><trkpt lat="44.262575" lon="11.7465183"><ele>92.0</ele><time>2026-04-11T11:18:22.123Z</time></trkpt><trkpt lat="44.262475" lon="11.7464317"><ele>92.0</ele><time>2026-04-11T11:18:23.123Z</time></trkpt><trkpt lat="44.262385" lon="11.7463583"><ele>92.0</ele><time>2026-04-11T11:18:24.123Z</time></trkpt><trkpt lat="44.262305" lon="11.7462883"><ele>92.0</ele><time>2026-04-11T11:18:25.125Z</time></trkpt><trkpt lat="44.262225" lon="11.7462217"><ele>92.0</ele><time>2026-04-11T11:18:26.124Z</time></trkpt><trkpt lat="44.2621467" lon="11.7461633"><ele>92.16666666666667</ele><time>2026-04-11T11:18:27.123Z</time></trkpt><trkpt lat="44.2620717" lon="11.7461033"><ele>92.33333333333334</ele><time>2026-04-11T11:18:28.122Z</time></trkpt><trkpt lat="44.2620033" lon="11.7460433"><ele>92.5</ele><time>2026-04-11T11:18:29.122Z</time></trkpt><trkpt lat="44.2619433" lon="11.7459917"><ele>92.66666666666667</ele><time>2026-04-11T11:18:30.124Z</time></trkpt><trkpt lat="44.2618883" lon="11.745945"><ele>92.83333333333333</ele><time>2026-04-11T11:18:31.124Z</time></trkpt><trkpt lat="44.2618283" lon="11.7458983"><ele>93.0</ele><time>2026-04-11T11:18:32.123Z</time></trkpt><trkpt lat="44.2617583" lon="11.7458433"><ele>93.0</ele><time>2026-04-11T11:18:33.124Z</time></trkpt><trkpt lat="44.2616783" lon="11.7457783"><ele>93.0</ele><time>2026-04-11T11:18:34.123Z</time></trkpt><trkpt lat="44.2615883" lon="11.7457033"><ele>93.0</ele><time>2026-04-11T11:18:35.124Z</time></trkpt><trkpt lat="44.2615033" lon="11.745625"><ele>93.0</ele><time>2026-04-11T11:18:36.123Z</time></trkpt><trkpt lat="44.2614267" lon="11.74555"><ele>93.0</ele><time>2026-04-11T11:18:37.123Z</time></trkpt><trkpt lat="44.2613617" lon="11.74547"><ele>93.2</ele><time>2026-04-11T11:18:38.123Z</time></trkpt><trkpt lat="44.2613033" lon="11.7454017"><ele>93.4</ele><time>2026-04-11T11:18:39.124Z</time></trkpt><trkpt lat="44.26123" lon="11.7453567"><ele>93.60000000000001</ele><time>2026-04-11T11:18:40.124Z</time></trkpt><trkpt lat="44.2611383" lon="11.74531"><ele>93.80000000000001</ele><time>2026-04-11T11:18:41.124Z</time></trkpt><trkpt lat="44.2610217" lon="11.7452583"><ele>94.0</ele><time>2026-04-11T11:18:42.123Z</time></trkpt><trkpt lat="44.2608933" lon="11.745185"><ele>94.5</ele><time>2026-04-11T11:18:43.123Z</time></trkpt><trkpt lat="44.2607633" lon="11.7451017"><ele>95.0</ele><time>2026-04-11T11:18:44.123Z</time></trkpt><trkpt lat="44.2606317" lon="11.7450167"><ele>95.5</ele><time>2026-04-11T11:18:45.123Z</time></trkpt><trkpt lat="44.2604933" lon="11.7449317"><ele>96.0</ele><time>2026-04-11T11:18:46.123Z</time></trkpt><trkpt lat="44.26035" lon="11.7448467"><ele>96.33333333333334</ele><time>2026-04-11T11:18:47.123Z</time></trkpt><trkpt lat="44.2602067" lon="11.7447583"><ele>96.66666666666667</ele><time>2026-04-11T11:18:48.123Z</time></trkpt><trkpt lat="44.2600583" lon="11.744675"><ele>97.0</ele><time>2026-04-11T11:18:49.124Z</time></trkpt><trkpt lat="44.25991" lon="11.74459"><ele>97.0</ele><time>2026-04-11T11:18:50.123Z</time></trkpt><trkpt lat="44.2597583" lon="11.744505"><ele>97.0</ele><time>2026-04-11T11:18:51.124Z</time></trkpt><trkpt lat="44.2596067" lon="11.7444183"><ele>97.0</ele><time>2026-04-11T11:18:52.123Z</time></trkpt><trkpt lat="44.2594633" lon="11.7443333"><ele>97.0</ele><time>2026-04-11T11:18:53.123Z</time></trkpt><trkpt lat="44.2593283" lon="11.7442467"><ele>97.0</ele><time>2026-04-11T11:18:54.123Z</time></trkpt><trkpt lat="44.2592017" lon="11.7441483"><ele>97.0</ele><time>2026-04-11T11:18:55.122Z</time></trkpt><trkpt lat="44.25909" lon="11.7440317"><ele>97.0</ele><time>2026-04-11T11:18:56.124Z</time></trkpt><trkpt lat="44.2589883" lon="11.7439017"><ele>93.75</ele><time>2026-04-11T11:18:57.124Z</time></trkpt><trkpt lat="44.2588933" lon="11.7437533"><ele>90.5</ele><time>2026-04-11T11:18:58.123Z</time></trkpt><trkpt lat="44.2588067" lon="11.743585"><ele>87.25</ele><time>2026-04-11T11:18:59.123Z</time></trkpt><trkpt lat="44.258725" lon="11.7434"><ele>84.0</ele><time>2026-04-11T11:19:00.123Z</time></trkpt><trkpt lat="44.258655" lon="11.7432017"><ele>84.0</ele><time>2026-04-11T11:19:01.124Z</time></trkpt><trkpt lat="44.2585983" lon="11.743"><ele>84.0</ele><time>2026-04-11T11:19:02.122Z</time></trkpt><trkpt lat="44.25855" lon="11.7428017"><ele>84.0</ele><time>2026-04-11T11:19:03.123Z</time></trkpt><trkpt lat="44.2585033" lon="11.7425933"><ele>84.33333333333333</ele><time>2026-04-11T11:19:04.122Z</time></trkpt><trkpt lat="44.2584533" lon="11.7423767"><ele>84.66666666666666</ele><time>2026-04-11T11:19:05.123Z</time></trkpt><trkpt lat="44.25841" lon="11.742165"><ele>85.0</ele><time>2026-04-11T11:19:06.124Z</time></trkpt><trkpt lat="44.258365" lon="11.7419583"><ele>85.75</ele><time>2026-04-11T11:19:07.123Z</time></trkpt><trkpt lat="44.25832" lon="11.7417633"><ele>86.5</ele><time>2026-04-11T11:19:08.123Z</time></trkpt><trkpt lat="44.258285" lon="11.7415917"><ele>87.25</ele><time>2026-04-11T11:19:09.124Z</time></trkpt><trkpt lat="44.25825" lon="11.7414467"><ele>88.0</ele><time>2026-04-11T11:19:10.125Z</time></trkpt><trkpt lat="44.2581983" lon="11.7413483"><ele>88.0</ele><time>2026-04-11T11:19:11.123Z</time></trkpt><trkpt lat="44.25814" lon="11.7412983"><ele>88.0</ele><time>2026-04-11T11:19:12.124Z</time></trkpt><trkpt lat="44.2580567" lon="11.74129"><ele>88.0</ele><time>2026-04-11T11:19:14.124Z</time></trkpt><trkpt lat="44.2579483" lon="11.7413983"><ele>88.0</ele><time>2026-04-11T11:19:16.124Z</time></trkpt><trkpt lat="44.2578717" lon="11.7415067"><ele>88.0</ele><time>2026-04-11T11:19:17.123Z</time></trkpt><trkpt lat="44.2577917" lon="11.7416333"><ele>88.0</ele><time>2026-04-11T11:19:18.123Z</time></trkpt><trkpt lat="44.25773" lon="11.7417833"><ele>88.0</ele><time>2026-04-11T11:19:19.124Z</time></trkpt><trkpt lat="44.257695" lon="11.741965"><ele>88.0</ele><time>2026-04-11T11:19:20.123Z</time></trkpt><trkpt lat="44.2576633" lon="11.7421833"><ele>88.0</ele><time>2026-04-11T11:19:21.124Z</time></trkpt><trkpt lat="44.2576367" lon="11.7424117"><ele>88.0</ele><time>2026-04-11T11:19:22.124Z</time></trkpt><trkpt lat="44.2576083" lon="11.74266"><ele>88.0</ele><time>2026-04-11T11:19:23.123Z</time></trkpt><trkpt lat="44.2575783" lon="11.742915"><ele>88.0</ele><time>2026-04-11T11:19:24.123Z</time></trkpt><trkpt lat="44.2575583" lon="11.7431683"><ele>88.66666666666666</ele><time>2026-04-11T11:19:25.124Z</time></trkpt><trkpt lat="44.2575483" lon="11.7434183"><ele>89.33333333333333</ele><time>2026-04-11T11:19:26.122Z</time></trkpt><trkpt lat="44.2575467" lon="11.743645"><ele>90.0</ele><time>2026-04-11T11:19:27.123Z</time></trkpt><trkpt lat="44.25753" lon="11.7438467"><ele>90.8</ele><time>2026-04-11T11:19:28.122Z</time></trkpt><trkpt lat="44.2574867" lon="11.744015"><ele>91.6</ele><time>2026-04-11T11:19:29.123Z</time></trkpt><trkpt lat="44.2574283" lon="11.7441417"><ele>92.4</ele><time>2026-04-11T11:19:30.124Z</time></trkpt><trkpt lat="44.2573433" lon="11.7442217"><ele>93.2</ele><time>2026-04-11T11:19:31.123Z</time></trkpt><trkpt lat="44.2572417" lon="11.7442517"><ele>94.0</ele><time>2026-04-11T11:19:32.124Z</time></trkpt><trkpt lat="44.25712" lon="11.7442283"><ele>95.25</ele><time>2026-04-11T11:19:33.125Z</time></trkpt><trkpt lat="44.257" lon="11.7441683"><ele>96.5</ele><time>2026-04-11T11:19:34.124Z</time></trkpt><trkpt lat="44.2568817" lon="11.7440817"><ele>97.75</ele><time>2026-04-11T11:19:35.123Z</time></trkpt><trkpt lat="44.256765" lon="11.7439667"><ele>99.0</ele><time>2026-04-11T11:19:36.123Z</time></trkpt><trkpt lat="44.2566417" lon="11.743825"><ele>99.0</ele><time>2026-04-11T11:19:37.123Z</time></trkpt><trkpt lat="44.25652" lon="11.7436683"><ele>99.0</ele><time>2026-04-11T11:19:38.123Z</time></trkpt><trkpt lat="44.2563933" lon="11.7435067"><ele>99.0</ele><time>2026-04-11T11:19:39.123Z</time></trkpt><trkpt lat="44.2562617" lon="11.7433433"><ele>97.66666666666667</ele><time>2026-04-11T11:19:40.123Z</time></trkpt><trkpt lat="44.2561267" lon="11.7431767"><ele>96.33333333333334</ele><time>2026-04-11T11:19:41.124Z</time></trkpt><trkpt lat="44.2559883" lon="11.743005"><ele>95.0</ele><time>2026-04-11T11:19:42.124Z</time></trkpt><trkpt lat="44.2558517" lon="11.742825"><ele>94.0</ele><time>2026-04-11T11:19:43.123Z</time></trkpt><trkpt lat="44.2557133" lon="11.742645"><ele>93.0</ele><time>2026-04-11T11:19:44.124Z</time></trkpt><trkpt lat="44.2555717" lon="11.7424633"><ele>92.0</ele><time>2026-04-11T11:19:45.124Z</time></trkpt><trkpt lat="44.2554333" lon="11.7422833"><ele>92.0</ele><time>2026-04-11T11:19:46.124Z</time></trkpt><trkpt lat="44.255295" lon="11.742105"><ele>92.0</ele><time>2026-04-11T11:19:47.123Z</time></trkpt><trkpt lat="44.2551533" lon="11.7419267"><ele>92.0</ele><time>2026-04-11T11:19:48.125Z</time></trkpt><trkpt lat="44.2550133" lon="11.741745"><ele>93.0</ele><time>2026-04-11T11:19:49.124Z</time></trkpt><trkpt lat="44.2548717" lon="11.7415667"><ele>94.0</ele><time>2026-04-11T11:19:50.123Z</time></trkpt><trkpt lat="44.2547317" lon="11.7413867"><ele>95.0</ele><time>2026-04-11T11:19:51.123Z</time></trkpt><trkpt lat="44.2545917" lon="11.741205"><ele>98.0</ele><time>2026-04-11T11:19:52.124Z</time></trkpt><trkpt lat="44.2544517" lon="11.7410217"><ele>101.0</ele><time>2026-04-11T11:19:53.123Z</time></trkpt><trkpt lat="44.2543117" lon="11.74084"><ele>104.0</ele><time>2026-04-11T11:19:54.124Z</time></trkpt><trkpt lat="44.2541717" lon="11.74066"><ele>104.0</ele><time>2026-04-11T11:19:55.123Z</time></trkpt><trkpt lat="44.2540367" lon="11.7404883"><ele>104.0</ele><time>2026-04-11T11:19:56.124Z</time></trkpt><trkpt lat="44.2539067" lon="11.7403183"><ele>104.0</ele><time>2026-04-11T11:19:57.124Z</time></trkpt><trkpt lat="44.2537783" lon="11.7401483"><ele>105.66666666666666</ele><time>2026-04-11T11:19:58.124Z</time></trkpt><trkpt lat="44.2536467" lon="11.73998"><ele>107.33333333333334</ele><time>2026-04-11T11:19:59.123Z</time></trkpt><trkpt lat="44.2535133" lon="11.7398083"><ele>109.0</ele><time>2026-04-11T11:20:00.123Z</time></trkpt><trkpt lat="44.2533817" lon="11.7396383"><ele>109.0</ele><time>2026-04-11T11:20:01.124Z</time></trkpt><trkpt lat="44.25325" lon="11.73947"><ele>109.0</ele><time>2026-04-11T11:20:02.124Z</time></trkpt><trkpt lat="44.2531117" lon="11.7393117"><ele>109.0</ele><time>2026-04-11T11:20:03.124Z</time></trkpt><trkpt lat="44.2529683" lon="11.7391583"><ele>110.0</ele><time>2026-04-11T11:20:04.123Z</time></trkpt><trkpt lat="44.2528217" lon="11.7390117"><ele>111.0</ele><time>2026-04-11T11:20:05.123Z</time></trkpt><trkpt lat="44.2526667" lon="11.73887"><ele>112.0</ele><time>2026-04-11T11:20:06.123Z</time></trkpt><trkpt lat="44.252505" lon="11.7387367"><ele>112.0</ele><time>2026-04-11T11:20:07.124Z</time></trkpt><trkpt lat="44.2523417" lon="11.738605"><ele>112.0</ele><time>2026-04-11T11:20:08.124Z</time></trkpt><trkpt lat="44.2521767" lon="11.7384717"><ele>112.0</ele><time>2026-04-11T11:20:09.124Z</time></trkpt><trkpt lat="44.252015" lon="11.7383367"><ele>112.66666666666667</ele><time>2026-04-11T11:20:10.123Z</time></trkpt><trkpt lat="44.2518567" lon="11.7382067"><ele>113.33333333333334</ele><time>2026-04-11T11:20:11.123Z</time></trkpt><trkpt lat="44.2516983" lon="11.7380817"><ele>114.0</ele><time>2026-04-11T11:20:12.124Z</time></trkpt><trkpt lat="44.2515433" lon="11.737955"><ele>115.0</ele><time>2026-04-11T11:20:13.124Z</time></trkpt><trkpt lat="44.2513867" lon="11.7378317"><ele>116.0</ele><time>2026-04-11T11:20:14.124Z</time></trkpt><trkpt lat="44.2512283" lon="11.737705"><ele>117.0</ele><time>2026-04-11T11:20:15.124Z</time></trkpt><trkpt lat="44.2510717" lon="11.7375767"><ele>117.33333333333334</ele><time>2026-04-11T11:20:16.124Z</time></trkpt><trkpt lat="44.250915" lon="11.7374433"><ele>117.66666666666667</ele><time>2026-04-11T11:20:17.123Z</time></trkpt><trkpt lat="44.2507617" lon="11.7373167"><ele>118.0</ele><time>2026-04-11T11:20:18.124Z</time></trkpt><trkpt lat="44.2506067" lon="11.7371883"><ele>118.0</ele><time>2026-04-11T11:20:19.124Z</time></trkpt><trkpt lat="44.2504517" lon="11.7370583"><ele>118.0</ele><time>2026-04-11T11:20:20.124Z</time></trkpt><trkpt lat="44.250295" lon="11.73693"><ele>118.0</ele><time>2026-04-11T11:20:21.123Z</time></trkpt><trkpt lat="44.2501383" lon="11.7368017"><ele>119.0</ele><time>2026-04-11T11:20:22.123Z</time></trkpt><trkpt lat="44.2499833" lon="11.736675"><ele>120.0</ele><time>2026-04-11T11:20:23.123Z</time></trkpt><trkpt lat="44.2498333" lon="11.7365517"><ele>121.0</ele><time>2026-04-11T11:20:24.124Z</time></trkpt><trkpt lat="44.2496883" lon="11.7364333"><ele>117.66666666666667</ele><time>2026-04-11T11:20:25.124Z</time></trkpt><trkpt lat="44.2495467" lon="11.736325"><ele>114.33333333333334</ele><time>2026-04-11T11:20:26.124Z</time></trkpt><trkpt lat="44.2494017" lon="11.7362167"><ele>111.0</ele><time>2026-04-11T11:20:27.124Z</time></trkpt><trkpt lat="44.2492583" lon="11.7361"><ele>113.0</ele><time>2026-04-11T11:20:28.125Z</time></trkpt><trkpt lat="44.249115" lon="11.7359683"><ele>115.0</ele><time>2026-04-11T11:20:29.124Z</time></trkpt><trkpt lat="44.2489767" lon="11.7358233"><ele>117.0</ele><time>2026-04-11T11:20:30.124Z</time></trkpt><trkpt lat="44.2488383" lon="11.7356767"><ele>117.0</ele><time>2026-04-11T11:20:31.123Z</time></trkpt><trkpt lat="44.2486967" lon="11.7355283"><ele>117.0</ele><time>2026-04-11T11:20:32.123Z</time></trkpt><trkpt lat="44.2485583" lon="11.735375"><ele>117.0</ele><time>2026-04-11T11:20:33.124Z</time></trkpt><trkpt lat="44.2484217" lon="11.735215"><ele>116.66666666666666</ele><time>2026-04-11T11:20:34.123Z</time></trkpt><trkpt lat="44.24829" lon="11.7350533"><ele>116.33333333333333</ele><time>2026-04-11T11:20:35.122Z</time></trkpt><trkpt lat="44.2481633" lon="11.734895"><ele>116.0</ele><time>2026-04-11T11:20:36.123Z</time></trkpt><trkpt lat="44.24805" lon="11.7347367"><ele>116.0</ele><time>2026-04-11T11:20:37.123Z</time></trkpt><trkpt lat="44.2479467" lon="11.7345733"><ele>116.0</ele><time>2026-04-11T11:20:38.122Z</time></trkpt><trkpt lat="44.2478467" lon="11.7344017"><ele>116.0</ele><time>2026-04-11T11:20:39.124Z</time></trkpt><trkpt lat="44.2477433" lon="11.7342233"><ele>116.33333333333333</ele><time>2026-04-11T11:20:40.123Z</time></trkpt><trkpt lat="44.24764" lon="11.734055"><ele>116.66666666666666</ele><time>2026-04-11T11:20:41.123Z</time></trkpt><trkpt lat="44.24754" lon="11.733895"><ele>117.0</ele><time>2026-04-11T11:20:42.123Z</time></trkpt><trkpt lat="44.2474467" lon="11.7337517"><ele>117.0</ele><time>2026-04-11T11:20:43.123Z</time></trkpt><trkpt lat="44.2473483" lon="11.73363"><ele>117.0</ele><time>2026-04-11T11:20:44.124Z</time></trkpt><trkpt lat="44.2472417" lon="11.7335433"><ele>117.0</ele><time>2026-04-11T11:20:45.124Z</time></trkpt><trkpt lat="44.2471233" lon="11.7335"><ele>117.0</ele><time>2026-04-11T11:20:46.124Z</time></trkpt><trkpt lat="44.2470017" lon="11.7335017"><ele>118.0</ele><time>2026-04-11T11:20:47.123Z</time></trkpt><trkpt lat="44.2468883" lon="11.733555"><ele>119.0</ele><time>2026-04-11T11:20:48.123Z</time></trkpt><trkpt lat="44.2467767" lon="11.7336383"><ele>120.0</ele><time>2026-04-11T11:20:49.123Z</time></trkpt><trkpt lat="44.2466583" lon="11.7337517"><ele>121.0</ele><time>2026-04-11T11:20:50.123Z</time></trkpt><trkpt lat="44.2465333" lon="11.7338683"><ele>114.5</ele><time>2026-04-11T11:20:51.124Z</time></trkpt><trkpt lat="44.246415" lon="11.733975"><ele>108.0</ele><time>2026-04-11T11:20:52.123Z</time></trkpt><trkpt lat="44.246305" lon="11.73406"><ele>101.5</ele><time>2026-04-11T11:20:53.123Z</time></trkpt><trkpt lat="44.2462083" lon="11.7341067"><ele>95.0</ele><time>2026-04-11T11:20:54.123Z</time></trkpt><trkpt lat="44.2461133" lon="11.7341067"><ele>95.0</ele><time>2026-04-11T11:20:55.123Z</time></trkpt><trkpt lat="44.2460383" lon="11.7340733"><ele>95.0</ele><time>2026-04-11T11:20:56.123Z</time></trkpt><trkpt lat="44.2459767" lon="11.733975"><ele>95.0</ele><time>2026-04-11T11:20:57.123Z</time></trkpt><trkpt lat="44.2459267" lon="11.733865"><ele>95.0</ele><time>2026-04-11T11:20:58.124Z</time></trkpt><trkpt lat="44.2458583" lon="11.7337017"><ele>95.0</ele><time>2026-04-11T11:20:59.123Z</time></trkpt><trkpt lat="44.2457867" lon="11.7335083"><ele>92.33333333333334</ele><time>2026-04-11T11:21:00.123Z</time></trkpt><trkpt lat="44.2457183" lon="11.7333067"><ele>89.66666666666667</ele><time>2026-04-11T11:21:01.123Z</time></trkpt><trkpt lat="44.2456433" lon="11.7331117"><ele>87.0</ele><time>2026-04-11T11:21:02.123Z</time></trkpt><trkpt lat="44.245575" lon="11.732925"><ele>87.0</ele><time>2026-04-11T11:21:03.123Z</time></trkpt><trkpt lat="44.2455133" lon="11.732765"><ele>87.0</ele><time>2026-04-11T11:21:04.123Z</time></trkpt><trkpt lat="44.2454517" lon="11.7326367"><ele>87.0</ele><time>2026-04-11T11:21:05.124Z</time></trkpt><trkpt lat="44.2453783" lon="11.7325267"><ele>87.0</ele><time>2026-04-11T11:21:06.124Z</time></trkpt><trkpt lat="44.2453033" lon="11.7324183"><ele>88.19999999999999</ele><time>2026-04-11T11:21:07.123Z</time></trkpt><trkpt lat="44.24524" lon="11.7323367"><ele>89.4</ele><time>2026-04-11T11:21:08.122Z</time></trkpt><trkpt lat="44.2451967" lon="11.7322683"><ele>90.6</ele><time>2026-04-11T11:21:09.124Z</time></trkpt><trkpt lat="44.2451267" lon="11.73218"><ele>91.80000000000001</ele><time>2026-04-11T11:21:11.123Z</time></trkpt><trkpt lat="44.2449517" lon="11.7320833"><ele>93.0</ele><time>2026-04-11T11:23:32.123Z</time></trkpt><trkpt lat="44.2450267" lon="11.73214"><ele>93.0</ele><time>2026-04-11T11:23:41.123Z</time></trkpt><trkpt lat="44.2450833" lon="11.732205"><ele>93.0</ele><time>2026-04-11T11:23:44.123Z</time></trkpt><trkpt lat="44.2451417" lon="11.73225"><ele>93.0</ele><time>2026-04-11T11:23:46.123Z</time></trkpt><trkpt lat="44.24521" lon="11.7323017"><ele>93.0</ele><time>2026-04-11T11:23:48.124Z</time></trkpt><trkpt lat="44.2452417" lon="11.7323833"><ele>93.0</ele><time>2026-04-11T11:23:51.124Z</time></trkpt><trkpt lat="44.245175" lon="11.7324"><ele>93.0</ele><time>2026-04-11T11:23:55.124Z</time></trkpt><trkpt lat="44.2450717" lon="11.7324583"><ele>93.0</ele><time>2026-04-11T11:23:57.123Z</time></trkpt><trkpt lat="44.2450133" lon="11.73251"><ele>93.0</ele><time>2026-04-11T11:23:58.123Z</time></trkpt><trkpt lat="44.2449483" lon="11.732575"><ele>93.0</ele><time>2026-04-11T11:23:59.123Z</time></trkpt><trkpt lat="44.244885" lon="11.732635"><ele>93.0</ele><time>2026-04-11T11:24:00.125Z</time></trkpt><trkpt lat="44.244825" lon="11.7326933"><ele>93.0</ele><time>2026-04-11T11:24:01.124Z</time></trkpt><trkpt lat="44.244765" lon="11.7327617"><ele>93.0</ele><time>2026-04-11T11:24:02.123Z</time></trkpt><trkpt lat="44.2447" lon="11.7328283"><ele>92.5</ele><time>2026-04-11T11:24:03.124Z</time></trkpt><trkpt lat="44.24463" lon="11.7329"><ele>92.0</ele><time>2026-04-11T11:24:04.123Z</time></trkpt><trkpt lat="44.2445567" lon="11.7329683"><ele>91.5</ele><time>2026-04-11T11:24:05.123Z</time></trkpt><trkpt lat="44.2444883" lon="11.7330433"><ele>91.0</ele><time>2026-04-11T11:24:06.124Z</time></trkpt><trkpt lat="44.2444317" lon="11.73311"><ele>90.5</ele><time>2026-04-11T11:24:07.123Z</time></trkpt><trkpt lat="44.2443767" lon="11.7331717"><ele>90.0</ele><time>2026-04-11T11:24:08.124Z</time></trkpt><trkpt lat="44.2443217" lon="11.73323"><ele>90.0</ele><time>2026-04-11T11:24:09.124Z</time></trkpt><trkpt lat="44.2442267" lon="11.7333283"><ele>90.0</ele><time>2026-04-11T11:24:11.123Z</time></trkpt><trkpt lat="44.244135" lon="11.7333333"><ele>90.0</ele><time>2026-04-11T11:24:13.124Z</time></trkpt><trkpt lat="44.2440467" lon="11.733215"><ele>90.0</ele><time>2026-04-11T11:24:15.124Z</time></trkpt><trkpt lat="44.24399" lon="11.733125"><ele>90.0</ele><time>2026-04-11T11:24:16.124Z</time></trkpt><trkpt lat="44.2439267" lon="11.7330167"><ele>89.75</ele><time>2026-04-11T11:24:17.123Z</time></trkpt><trkpt lat="44.2438583" lon="11.7328967"><ele>89.5</ele><time>2026-04-11T11:24:18.124Z</time></trkpt><trkpt lat="44.2437833" lon="11.7327583"><ele>89.25</ele><time>2026-04-11T11:24:19.123Z</time></trkpt><trkpt lat="44.2437033" lon="11.732605"><ele>89.0</ele><time>2026-04-11T11:24:20.124Z</time></trkpt><trkpt lat="44.2436183" lon="11.73244"><ele>89.0</ele><time>2026-04-11T11:24:21.124Z</time></trkpt><trkpt lat="44.2435317" lon="11.7322683"><ele>89.0</ele><time>2026-04-11T11:24:22.122Z</time></trkpt><trkpt lat="44.2434467" lon="11.7320867"><ele>89.0</ele><time>2026-04-11T11:24:23.123Z</time></trkpt><trkpt lat="44.2433517" lon="11.7319067"><ele>88.66666666666667</ele><time>2026-04-11T11:24:24.124Z</time></trkpt><trkpt lat="44.243255" lon="11.7317217"><ele>88.33333333333333</ele><time>2026-04-11T11:24:25.124Z</time></trkpt><trkpt lat="44.243165" lon="11.7315333"><ele>88.0</ele><time>2026-04-11T11:24:26.124Z</time></trkpt><trkpt lat="44.243075" lon="11.7313483"><ele>89.25</ele><time>2026-04-11T11:24:27.124Z</time></trkpt><trkpt lat="44.2429883" lon="11.7311633"><ele>90.5</ele><time>2026-04-11T11:24:28.123Z</time></trkpt><trkpt lat="44.2429" lon="11.7309983"><ele>91.75</ele><time>2026-04-11T11:24:29.124Z</time></trkpt><trkpt lat="44.24281" lon="11.730855"><ele>93.0</ele><time>2026-04-11T11:24:30.124Z</time></trkpt><trkpt lat="44.2427183" lon="11.7307467"><ele>93.0</ele><time>2026-04-11T11:24:31.124Z</time></trkpt><trkpt lat="44.242605" lon="11.7306733"><ele>93.0</ele><time>2026-04-11T11:24:32.123Z</time></trkpt><trkpt lat="44.24248" lon="11.73064"><ele>93.0</ele><time>2026-04-11T11:24:33.124Z</time></trkpt><trkpt lat="44.2423483" lon="11.7306383"><ele>93.0</ele><time>2026-04-11T11:24:34.124Z</time></trkpt><trkpt lat="44.24221" lon="11.73065"><ele>94.5</ele><time>2026-04-11T11:24:35.123Z</time></trkpt><trkpt lat="44.2420667" lon="11.7306683"><ele>96.0</ele><time>2026-04-11T11:24:36.123Z</time></trkpt><trkpt lat="44.2419267" lon="11.7306817"><ele>97.5</ele><time>2026-04-11T11:24:37.123Z</time></trkpt><trkpt lat="44.2418017" lon="11.73067"><ele>99.0</ele><time>2026-04-11T11:24:38.123Z</time></trkpt><trkpt lat="44.2416867" lon="11.7306283"><ele>99.0</ele><time>2026-04-11T11:24:39.124Z</time></trkpt><trkpt lat="44.241585" lon="11.73056"><ele>99.0</ele><time>2026-04-11T11:24:40.124Z</time></trkpt><trkpt lat="44.2414983" lon="11.73045"><ele>99.0</ele><time>2026-04-11T11:24:41.123Z</time></trkpt><trkpt lat="44.24142" lon="11.7303033"><ele>99.0</ele><time>2026-04-11T11:24:42.124Z</time></trkpt><trkpt lat="44.2413467" lon="11.730135"><ele>104.0</ele><time>2026-04-11T11:24:43.122Z</time></trkpt><trkpt lat="44.2412767" lon="11.7299467"><ele>109.0</ele><time>2026-04-11T11:24:44.123Z</time></trkpt><trkpt lat="44.24122" lon="11.7297467"><ele>114.0</ele><time>2026-04-11T11:24:45.124Z</time></trkpt><trkpt lat="44.2411733" lon="11.7295367"><ele>114.0</ele><time>2026-04-11T11:24:46.123Z</time></trkpt><trkpt lat="44.2411283" lon="11.7293217"><ele>114.0</ele><time>2026-04-11T11:24:47.124Z</time></trkpt><trkpt lat="44.2410817" lon="11.7291017"><ele>114.0</ele><time>2026-04-11T11:24:48.124Z</time></trkpt><trkpt lat="44.2410317" lon="11.7288917"><ele>114.0</ele><time>2026-04-11T11:24:49.122Z</time></trkpt><trkpt lat="44.24098" lon="11.7286967"><ele>114.0</ele><time>2026-04-11T11:24:50.123Z</time></trkpt><trkpt lat="44.2409117" lon="11.7285233"><ele>114.0</ele><time>2026-04-11T11:24:51.124Z</time></trkpt><trkpt lat="44.2408267" lon="11.7283683"><ele>114.0</ele><time>2026-04-11T11:24:52.124Z</time></trkpt><trkpt lat="44.2407217" lon="11.7282267"><ele>113.66666666666666</ele><time>2026-04-11T11:24:53.122Z</time></trkpt><trkpt lat="44.240605" lon="11.7280783"><ele>113.33333333333333</ele><time>2026-04-11T11:24:54.124Z</time></trkpt><trkpt lat="44.2404917" lon="11.7279283"><ele>113.0</ele><time>2026-04-11T11:24:55.124Z</time></trkpt><trkpt lat="44.2403917" lon="11.7277833"><ele>112.2</ele><time>2026-04-11T11:24:56.123Z</time></trkpt><trkpt lat="44.2403117" lon="11.7276417"><ele>111.4</ele><time>2026-04-11T11:24:57.123Z</time></trkpt><trkpt lat="44.24027" lon="11.7275"><ele>110.60000000000001</ele><time>2026-04-11T11:24:58.124Z</time></trkpt><trkpt lat="44.2402567" lon="11.7273567"><ele>109.80000000000001</ele><time>2026-04-11T11:24:59.124Z</time></trkpt><trkpt lat="44.240255" lon="11.7272083"><ele>109.0</ele><time>2026-04-11T11:25:00.124Z</time></trkpt><trkpt lat="44.240255" lon="11.7270667"><ele>109.00000000000001</ele><time>2026-04-11T11:25:01.124Z</time></trkpt><trkpt lat="44.2402317" lon="11.7269467"><ele>109.0</ele><time>2026-04-11T11:25:02.124Z</time></trkpt><trkpt lat="44.2401917" lon="11.7268517"><ele>109.0</ele><time>2026-04-11T11:25:03.123Z</time></trkpt><trkpt lat="44.240125" lon="11.7268117"><ele>109.0</ele><time>2026-04-11T11:25:04.123Z</time></trkpt><trkpt lat="44.2400467" lon="11.7268367"><ele>109.00000000000001</ele><time>2026-04-11T11:25:05.125Z</time></trkpt><trkpt lat="44.23999" lon="11.7269117"><ele>109.0</ele><time>2026-04-11T11:25:06.123Z</time></trkpt><trkpt lat="44.2399533" lon="11.7270233"><ele>109.00000000000001</ele><time>2026-04-11T11:25:07.123Z</time></trkpt><trkpt lat="44.2399417" lon="11.7271617"><ele>109.0</ele><time>2026-04-11T11:25:08.123Z</time></trkpt><trkpt lat="44.239915" lon="11.727285"><ele>109.0</ele><time>2026-04-11T11:25:09.124Z</time></trkpt><trkpt lat="44.2398817" lon="11.7273617"><ele>109.0</ele><time>2026-04-11T11:25:10.124Z</time></trkpt><trkpt lat="44.2398067" lon="11.7273383"><ele>109.00000000000001</ele><time>2026-04-11T11:25:11.125Z</time></trkpt><trkpt lat="44.239725" lon="11.7272783"><ele>109.0</ele><time>2026-04-11T11:25:12.124Z</time></trkpt><trkpt lat="44.2396633" lon="11.7271767"><ele>110.0</ele><time>2026-04-11T11:25:13.122Z</time></trkpt><trkpt lat="44.23967" lon="11.7270517"><ele>111.0</ele><time>2026-04-11T11:25:14.123Z</time></trkpt><trkpt lat="44.2397" lon="11.72692"><ele>112.0</ele><time>2026-04-11T11:25:15.124Z</time></trkpt><trkpt lat="44.239755" lon="11.7267883"><ele>113.0</ele><time>2026-04-11T11:25:16.123Z</time></trkpt><trkpt lat="44.2398233" lon="11.7266567"><ele>114.0</ele><time>2026-04-11T11:25:17.123Z</time></trkpt><trkpt lat="44.2398833" lon="11.7265117"><ele>114.0</ele><time>2026-04-11T11:25:18.122Z</time></trkpt><trkpt lat="44.2399267" lon="11.72636"><ele>114.0</ele><time>2026-04-11T11:25:19.124Z</time></trkpt><trkpt lat="44.23995" lon="11.7262083"><ele>114.0</ele><time>2026-04-11T11:25:20.123Z</time></trkpt><trkpt lat="44.2399633" lon="11.72604"><ele>114.0</ele><time>2026-04-11T11:25:21.124Z</time></trkpt><trkpt lat="44.23996" lon="11.7258683"><ele>115.0</ele><time>2026-04-11T11:25:22.123Z</time></trkpt><trkpt lat="44.2399367" lon="11.7256967"><ele>116.0</ele><time>2026-04-11T11:25:23.124Z</time></trkpt><trkpt lat="44.2399017" lon="11.7255217"><ele>117.0</ele><time>2026-04-11T11:25:24.124Z</time></trkpt><trkpt lat="44.239865" lon="11.725345"><ele>118.0</ele><time>2026-04-11T11:25:25.122Z</time></trkpt><trkpt lat="44.23983" lon="11.72517"><ele>122.75</ele><time>2026-04-11T11:25:26.123Z</time></trkpt><trkpt lat="44.2397967" lon="11.724995"><ele>127.5</ele><time>2026-04-11T11:25:27.125Z</time></trkpt><trkpt lat="44.2397583" lon="11.7248183"><ele>132.25</ele><time>2026-04-11T11:25:28.123Z</time></trkpt><trkpt lat="44.23972" lon="11.7246517"><ele>137.0</ele><time>2026-04-11T11:25:29.122Z</time></trkpt><trkpt lat="44.2396667" lon="11.7245167"><ele>137.0</ele><time>2026-04-11T11:25:30.123Z</time></trkpt><trkpt lat="44.2395867" lon="11.7244017"><ele>137.0</ele><time>2026-04-11T11:25:31.124Z</time></trkpt><trkpt lat="44.2394867" lon="11.7243017"><ele>137.0</ele><time>2026-04-11T11:25:32.124Z</time></trkpt><trkpt lat="44.2393767" lon="11.724205"><ele>137.0</ele><time>2026-04-11T11:25:33.125Z</time></trkpt><trkpt lat="44.23926" lon="11.7241033"><ele>136.0</ele><time>2026-04-11T11:25:34.124Z</time></trkpt><trkpt lat="44.239135" lon="11.7239917"><ele>135.0</ele><time>2026-04-11T11:25:35.123Z</time></trkpt><trkpt lat="44.239" lon="11.7238733"><ele>134.0</ele><time>2026-04-11T11:25:36.125Z</time></trkpt><trkpt lat="44.2388583" lon="11.7237533"><ele>136.0</ele><time>2026-04-11T11:25:37.124Z</time></trkpt><trkpt lat="44.23872" lon="11.7236367"><ele>138.0</ele><time>2026-04-11T11:25:38.124Z</time></trkpt><trkpt lat="44.2385767" lon="11.7235317"><ele>140.0</ele><time>2026-04-11T11:25:39.124Z</time></trkpt><trkpt lat="44.2384333" lon="11.723425"><ele>140.0</ele><time>2026-04-11T11:25:40.123Z</time></trkpt><trkpt lat="44.238285" lon="11.723315"><ele>140.0</ele><time>2026-04-11T11:25:41.123Z</time></trkpt><trkpt lat="44.2381433" lon="11.7232067"><ele>140.0</ele><time>2026-04-11T11:25:42.124Z</time></trkpt><trkpt lat="44.2380317" lon="11.72309"><ele>142.0</ele><time>2026-04-11T11:25:43.124Z</time></trkpt><trkpt lat="44.2379417" lon="11.72294"><ele>144.0</ele><time>2026-04-11T11:25:44.123Z</time></trkpt><trkpt lat="44.2378817" lon="11.7227683"><ele>146.0</ele><time>2026-04-11T11:25:45.123Z</time></trkpt><trkpt lat="44.237845" lon="11.72259"><ele>148.0</ele><time>2026-04-11T11:25:46.123Z</time></trkpt><trkpt lat="44.237805" lon="11.722405"><ele>148.0</ele><time>2026-04-11T11:25:47.123Z</time></trkpt><trkpt lat="44.2377517" lon="11.7222283"><ele>148.0</ele><time>2026-04-11T11:25:48.123Z</time></trkpt><trkpt lat="44.2376833" lon="11.7220533"><ele>148.0</ele><time>2026-04-11T11:25:49.123Z</time></trkpt><trkpt lat="44.2376017" lon="11.7218867"><ele>148.0</ele><time>2026-04-11T11:25:50.124Z</time></trkpt><trkpt lat="44.2375" lon="11.7217417"><ele>149.0</ele><time>2026-04-11T11:25:51.123Z</time></trkpt><trkpt lat="44.2373767" lon="11.7216383"><ele>150.0</ele><time>2026-04-11T11:25:52.123Z</time></trkpt><trkpt lat="44.2372383" lon="11.7215667"><ele>151.0</ele><time>2026-04-11T11:25:53.123Z</time></trkpt><trkpt lat="44.23709" lon="11.721515"><ele>152.0</ele><time>2026-04-11T11:25:54.123Z</time></trkpt><trkpt lat="44.2369383" lon="11.72147"><ele>152.0</ele><time>2026-04-11T11:25:55.124Z</time></trkpt><trkpt lat="44.2368" lon="11.7214167"><ele>152.0</ele><time>2026-04-11T11:25:56.123Z</time></trkpt><trkpt lat="44.2366833" lon="11.7213517"><ele>152.0</ele><time>2026-04-11T11:25:57.124Z</time></trkpt><trkpt lat="44.236605" lon="11.721265"><ele>152.0</ele><time>2026-04-11T11:25:58.123Z</time></trkpt><trkpt lat="44.236565" lon="11.7211583"><ele>150.5</ele><time>2026-04-11T11:25:59.122Z</time></trkpt><trkpt lat="44.23655" lon="11.7210117"><ele>149.0</ele><time>2026-04-11T11:26:00.124Z</time></trkpt><trkpt lat="44.2365533" lon="11.720805"><ele>147.5</ele><time>2026-04-11T11:26:01.124Z</time></trkpt><trkpt lat="44.2365767" lon="11.7206067"><ele>146.0</ele><time>2026-04-11T11:26:02.123Z</time></trkpt><trkpt lat="44.23661" lon="11.720395"><ele>147.33333333333331</ele><time>2026-04-11T11:26:03.124Z</time></trkpt><trkpt lat="44.2366617" lon="11.7201867"><ele>148.66666666666666</ele><time>2026-04-11T11:26:04.123Z</time></trkpt><trkpt lat="44.2367183" lon="11.719975"><ele>150.0</ele><time>2026-04-11T11:26:05.123Z</time></trkpt><trkpt lat="44.2367733" lon="11.7197667"><ele>150.0</ele><time>2026-04-11T11:26:06.123Z</time></trkpt><trkpt lat="44.2368033" lon="11.7195617"><ele>150.0</ele><time>2026-04-11T11:26:07.123Z</time></trkpt><trkpt lat="44.2368" lon="11.7193433"><ele>150.0</ele><time>2026-04-11T11:26:08.124Z</time></trkpt><trkpt lat="44.2367733" lon="11.7191217"><ele>149.66666666666666</ele><time>2026-04-11T11:26:09.123Z</time></trkpt><trkpt lat="44.23673" lon="11.7189017"><ele>149.33333333333331</ele><time>2026-04-11T11:26:10.123Z</time></trkpt><trkpt lat="44.2366933" lon="11.71868"><ele>149.0</ele><time>2026-04-11T11:26:11.123Z</time></trkpt><trkpt lat="44.2366767" lon="11.7184533"><ele>147.0</ele><time>2026-04-11T11:26:12.124Z</time></trkpt><trkpt lat="44.23667" lon="11.7182283"><ele>145.0</ele><time>2026-04-11T11:26:13.123Z</time></trkpt><trkpt lat="44.2366717" lon="11.718005"><ele>143.0</ele><time>2026-04-11T11:26:14.123Z</time></trkpt><trkpt lat="44.2366733" lon="11.71778"><ele>142.75</ele><time>2026-04-11T11:26:15.123Z</time></trkpt><trkpt lat="44.2366733" lon="11.71756"><ele>142.5</ele><time>2026-04-11T11:26:16.123Z</time></trkpt><trkpt lat="44.236675" lon="11.7173517"><ele>142.25</ele><time>2026-04-11T11:26:17.123Z</time></trkpt><trkpt lat="44.236655" lon="11.71716"><ele>142.0</ele><time>2026-04-11T11:26:18.123Z</time></trkpt><trkpt lat="44.23661" lon="11.716985"><ele>141.75</ele><time>2026-04-11T11:26:19.123Z</time></trkpt><trkpt lat="44.2365367" lon="11.7168183"><ele>141.5</ele><time>2026-04-11T11:26:20.123Z</time></trkpt><trkpt lat="44.2364433" lon="11.7166583"><ele>141.25</ele><time>2026-04-11T11:26:21.129Z</time></trkpt><trkpt lat="44.236345" lon="11.716495"><ele>141.0</ele><time>2026-04-11T11:26:22.124Z</time></trkpt><trkpt lat="44.23626" lon="11.716325"><ele>143.5</ele><time>2026-04-11T11:26:23.124Z</time></trkpt><trkpt lat="44.236205" lon="11.7161417"><ele>146.0</ele><time>2026-04-11T11:26:24.124Z</time></trkpt><trkpt lat="44.236165" lon="11.7159483"><ele>148.5</ele><time>2026-04-11T11:26:25.123Z</time></trkpt><trkpt lat="44.236145" lon="11.7157467"><ele>151.0</ele><time>2026-04-11T11:26:26.124Z</time></trkpt><trkpt lat="44.2361267" lon="11.7155383"><ele>151.0</ele><time>2026-04-11T11:26:27.124Z</time></trkpt><trkpt lat="44.2360967" lon="11.7153433"><ele>151.0</ele><time>2026-04-11T11:26:28.123Z</time></trkpt><trkpt lat="44.2360483" lon="11.7151767"><ele>151.0</ele><time>2026-04-11T11:26:29.122Z</time></trkpt><trkpt lat="44.2359683" lon="11.7150383"><ele>151.0</ele><time>2026-04-11T11:26:30.124Z</time></trkpt><trkpt lat="44.2358567" lon="11.7149183"><ele>151.66666666666669</ele><time>2026-04-11T11:26:31.123Z</time></trkpt><trkpt lat="44.2357333" lon="11.7148067"><ele>152.33333333333334</ele><time>2026-04-11T11:26:32.123Z</time></trkpt><trkpt lat="44.235595" lon="11.7146983"><ele>153.0</ele><time>2026-04-11T11:26:33.122Z</time></trkpt><trkpt lat="44.23546" lon="11.7145617"><ele>153.0</ele><time>2026-04-11T11:26:34.123Z</time></trkpt><trkpt lat="44.2353183" lon="11.7144183"><ele>153.0</ele><time>2026-04-11T11:26:35.124Z</time></trkpt><trkpt lat="44.2351783" lon="11.714275"><ele>153.0</ele><time>2026-04-11T11:26:36.123Z</time></trkpt><trkpt lat="44.2350417" lon="11.714125"><ele>154.33333333333334</ele><time>2026-04-11T11:26:37.123Z</time></trkpt><trkpt lat="44.234915" lon="11.713965"><ele>155.66666666666669</ele><time>2026-04-11T11:26:38.123Z</time></trkpt><trkpt lat="44.2347983" lon="11.7137933"><ele>157.0</ele><time>2026-04-11T11:26:39.123Z</time></trkpt><trkpt lat="44.2346967" lon="11.7136067"><ele>154.33333333333334</ele><time>2026-04-11T11:26:40.125Z</time></trkpt><trkpt lat="44.2346017" lon="11.713415"><ele>151.66666666666666</ele><time>2026-04-11T11:26:41.123Z</time></trkpt><trkpt lat="44.2345067" lon="11.7132217"><ele>149.0</ele><time>2026-04-11T11:26:42.124Z</time></trkpt><trkpt lat="44.23441" lon="11.713035"><ele>149.0</ele><time>2026-04-11T11:26:43.123Z</time></trkpt><trkpt lat="44.2343117" lon="11.7128533"><ele>149.0</ele><time>2026-04-11T11:26:44.122Z</time></trkpt><trkpt lat="44.2342233" lon="11.7126833"><ele>149.0</ele><time>2026-04-11T11:26:45.123Z</time></trkpt><trkpt lat="44.2341233" lon="11.71254"><ele>147.0</ele><time>2026-04-11T11:26:46.123Z</time></trkpt><trkpt lat="44.2340233" lon="11.71242"><ele>145.0</ele><time>2026-04-11T11:26:47.122Z</time></trkpt><trkpt lat="44.23391" lon="11.7123117"><ele>143.0</ele><time>2026-04-11T11:26:48.125Z</time></trkpt><trkpt lat="44.2337817" lon="11.7122217"><ele>141.0</ele><time>2026-04-11T11:26:49.123Z</time></trkpt><trkpt lat="44.2336433" lon="11.7121417"><ele>140.66666666666666</ele><time>2026-04-11T11:26:50.123Z</time></trkpt><trkpt lat="44.2334983" lon="11.7120567"><ele>140.33333333333331</ele><time>2026-04-11T11:26:51.124Z</time></trkpt><trkpt lat="44.2333483" lon="11.711975"><ele>140.0</ele><time>2026-04-11T11:26:52.123Z</time></trkpt><trkpt lat="44.2332033" lon="11.7118883"><ele>139.66666666666666</ele><time>2026-04-11T11:26:53.123Z</time></trkpt><trkpt lat="44.233055" lon="11.7117983"><ele>139.33333333333334</ele><time>2026-04-11T11:26:54.124Z</time></trkpt><trkpt lat="44.2329033" lon="11.7117083"><ele>139.0</ele><time>2026-04-11T11:26:55.123Z</time></trkpt><trkpt lat="44.23275" lon="11.7116233"><ele>139.0</ele><time>2026-04-11T11:26:56.123Z</time></trkpt><trkpt lat="44.2326" lon="11.7115417"><ele>139.0</ele><time>2026-04-11T11:26:57.124Z</time></trkpt><trkpt lat="44.2324483" lon="11.71146"><ele>139.0</ele><time>2026-04-11T11:26:58.124Z</time></trkpt><trkpt lat="44.2323067" lon="11.711375"><ele>138.75</ele><time>2026-04-11T11:26:59.123Z</time></trkpt><trkpt lat="44.232185" lon="11.7112717"><ele>138.5</ele><time>2026-04-11T11:27:00.124Z</time></trkpt><trkpt lat="44.232085" lon="11.711145"><ele>138.25</ele><time>2026-04-11T11:27:01.124Z</time></trkpt><trkpt lat="44.2320133" lon="11.710985"><ele>138.0</ele><time>2026-04-11T11:27:02.125Z</time></trkpt><trkpt lat="44.23197" lon="11.7108017"><ele>138.66666666666666</ele><time>2026-04-11T11:27:03.125Z</time></trkpt><trkpt lat="44.231935" lon="11.710605"><ele>139.33333333333331</ele><time>2026-04-11T11:27:04.124Z</time></trkpt><trkpt lat="44.2319" lon="11.7104"><ele>140.0</ele><time>2026-04-11T11:27:05.124Z</time></trkpt><trkpt lat="44.2318633" lon="11.7101883"><ele>141.33333333333331</ele><time>2026-04-11T11:27:06.123Z</time></trkpt><trkpt lat="44.2318283" lon="11.7099717"><ele>142.66666666666666</ele><time>2026-04-11T11:27:07.124Z</time></trkpt><trkpt lat="44.2317883" lon="11.7097467"><ele>144.0</ele><time>2026-04-11T11:27:08.124Z</time></trkpt><trkpt lat="44.2317467" lon="11.70952"><ele>145.33333333333334</ele><time>2026-04-11T11:27:09.125Z</time></trkpt><trkpt lat="44.23169" lon="11.7093133"><ele>146.66666666666669</ele><time>2026-04-11T11:27:10.124Z</time></trkpt><trkpt lat="44.23161" lon="11.709145"><ele>148.0</ele><time>2026-04-11T11:27:11.124Z</time></trkpt><trkpt lat="44.2315017" lon="11.7089983"><ele>148.66666666666669</ele><time>2026-04-11T11:27:12.124Z</time></trkpt><trkpt lat="44.2313783" lon="11.7088617"><ele>149.33333333333334</ele><time>2026-04-11T11:27:13.125Z</time></trkpt><trkpt lat="44.2312533" lon="11.708725"><ele>150.0</ele><time>2026-04-11T11:27:14.124Z</time></trkpt><trkpt lat="44.2311233" lon="11.70859"><ele>147.66666666666666</ele><time>2026-04-11T11:27:15.124Z</time></trkpt><trkpt lat="44.2309933" lon="11.7084483"><ele>145.33333333333331</ele><time>2026-04-11T11:27:16.124Z</time></trkpt><trkpt lat="44.2308633" lon="11.7083033"><ele>143.0</ele><time>2026-04-11T11:27:17.124Z</time></trkpt><trkpt lat="44.230725" lon="11.7081617"><ele>144.33333333333331</ele><time>2026-04-11T11:27:18.124Z</time></trkpt><trkpt lat="44.2305833" lon="11.708025"><ele>145.66666666666666</ele><time>2026-04-11T11:27:19.124Z</time></trkpt><trkpt lat="44.2304467" lon="11.7078833"><ele>147.0</ele><time>2026-04-11T11:27:20.126Z</time></trkpt><trkpt lat="44.2303133" lon="11.7077467"><ele>146.33333333333334</ele><time>2026-04-11T11:27:21.127Z</time></trkpt><trkpt lat="44.2301833" lon="11.7076133"><ele>145.66666666666669</ele><time>2026-04-11T11:27:22.126Z</time></trkpt><trkpt lat="44.2300733" lon="11.7074783"><ele>145.0</ele><time>2026-04-11T11:27:23.125Z</time></trkpt><trkpt lat="44.2299783" lon="11.707325"><ele>145.0</ele><time>2026-04-11T11:27:24.125Z</time></trkpt><trkpt lat="44.2299033" lon="11.7071533"><ele>145.0</ele><time>2026-04-11T11:27:25.124Z</time></trkpt><trkpt lat="44.22985" lon="11.7069567"><ele>145.0</ele><time>2026-04-11T11:27:26.124Z</time></trkpt><trkpt lat="44.2298183" lon="11.7067417"><ele>147.0</ele><time>2026-04-11T11:27:27.125Z</time></trkpt><trkpt lat="44.2297983" lon="11.7065133"><ele>149.0</ele><time>2026-04-11T11:27:28.125Z</time></trkpt><trkpt lat="44.2297867" lon="11.7062783"><ele>151.0</ele><time>2026-04-11T11:27:29.125Z</time></trkpt><trkpt lat="44.2297733" lon="11.7060383"><ele>151.0</ele><time>2026-04-11T11:27:30.125Z</time></trkpt><trkpt lat="44.2297583" lon="11.7057983"><ele>151.0</ele><time>2026-04-11T11:27:31.127Z</time></trkpt><trkpt lat="44.2297433" lon="11.7055583"><ele>151.0</ele><time>2026-04-11T11:27:32.126Z</time></trkpt><trkpt lat="44.2297283" lon="11.70532"><ele>150.33333333333334</ele><time>2026-04-11T11:27:33.128Z</time></trkpt><trkpt lat="44.2297167" lon="11.7050817"><ele>149.66666666666666</ele><time>2026-04-11T11:27:34.126Z</time></trkpt><trkpt lat="44.229705" lon="11.704845"><ele>149.0</ele><time>2026-04-11T11:27:35.127Z</time></trkpt><trkpt lat="44.2296917" lon="11.7046067"><ele>149.66666666666666</ele><time>2026-04-11T11:27:36.127Z</time></trkpt><trkpt lat="44.22968" lon="11.7043667"><ele>150.33333333333334</ele><time>2026-04-11T11:27:37.127Z</time></trkpt><trkpt lat="44.2296683" lon="11.7041283"><ele>151.0</ele><time>2026-04-11T11:27:38.126Z</time></trkpt><trkpt lat="44.2296567" lon="11.7038883"><ele>151.0</ele><time>2026-04-11T11:27:39.127Z</time></trkpt><trkpt lat="44.2296467" lon="11.7036533"><ele>151.0</ele><time>2026-04-11T11:27:40.125Z</time></trkpt><trkpt lat="44.22964" lon="11.7034167"><ele>151.0</ele><time>2026-04-11T11:27:41.126Z</time></trkpt><trkpt lat="44.22963" lon="11.703175"><ele>151.0</ele><time>2026-04-11T11:27:42.126Z</time></trkpt><trkpt lat="44.2296167" lon="11.70293"><ele>151.0</ele><time>2026-04-11T11:27:43.127Z</time></trkpt><trkpt lat="44.2296017" lon="11.7026833"><ele>151.0</ele><time>2026-04-11T11:27:44.126Z</time></trkpt><trkpt lat="44.22958" lon="11.7024367"><ele>151.0</ele><time>2026-04-11T11:27:45.126Z</time></trkpt><trkpt lat="44.2295383" lon="11.702195"><ele>151.0</ele><time>2026-04-11T11:27:46.124Z</time></trkpt><trkpt lat="44.2294767" lon="11.70196"><ele>151.0</ele><time>2026-04-11T11:27:47.123Z</time></trkpt><trkpt lat="44.2294033" lon="11.7017317"><ele>151.33333333333334</ele><time>2026-04-11T11:27:48.124Z</time></trkpt><trkpt lat="44.2293283" lon="11.701505"><ele>151.66666666666666</ele><time>2026-04-11T11:27:49.124Z</time></trkpt><trkpt lat="44.22926" lon="11.7012767"><ele>152.0</ele><time>2026-04-11T11:27:50.124Z</time></trkpt><trkpt lat="44.22919" lon="11.7010467"><ele>153.0</ele><time>2026-04-11T11:27:51.124Z</time></trkpt><trkpt lat="44.22912" lon="11.7008167"><ele>154.0</ele><time>2026-04-11T11:27:52.123Z</time></trkpt><trkpt lat="44.2290483" lon="11.7005883"><ele>155.0</ele><time>2026-04-11T11:27:53.124Z</time></trkpt><trkpt lat="44.2289767" lon="11.7003583"><ele>156.66666666666666</ele><time>2026-04-11T11:27:54.124Z</time></trkpt><trkpt lat="44.2289033" lon="11.7001317"><ele>158.33333333333334</ele><time>2026-04-11T11:27:55.124Z</time></trkpt><trkpt lat="44.2288333" lon="11.6999"><ele>160.0</ele><time>2026-04-11T11:27:56.124Z</time></trkpt><trkpt lat="44.22877" lon="11.6996667"><ele>160.0</ele><time>2026-04-11T11:27:57.125Z</time></trkpt><trkpt lat="44.2287083" lon="11.6994367"><ele>160.0</ele><time>2026-04-11T11:27:58.124Z</time></trkpt><trkpt lat="44.22865" lon="11.6992083"><ele>160.0</ele><time>2026-04-11T11:27:59.124Z</time></trkpt><trkpt lat="44.2285917" lon="11.698985"><ele>159.66666666666669</ele><time>2026-04-11T11:28:00.124Z</time></trkpt><trkpt lat="44.2285383" lon="11.6987633"><ele>159.33333333333334</ele><time>2026-04-11T11:28:01.124Z</time></trkpt><trkpt lat="44.2284833" lon="11.6985467"><ele>159.0</ele><time>2026-04-11T11:28:02.124Z</time></trkpt><trkpt lat="44.22843" lon="11.69833"><ele>159.66666666666666</ele><time>2026-04-11T11:28:03.124Z</time></trkpt><trkpt lat="44.2283767" lon="11.6981167"><ele>160.33333333333331</ele><time>2026-04-11T11:28:04.124Z</time></trkpt><trkpt lat="44.2283233" lon="11.697905"><ele>161.0</ele><time>2026-04-11T11:28:05.124Z</time></trkpt><trkpt lat="44.2282767" lon="11.6977033"><ele>161.75</ele><time>2026-04-11T11:28:06.124Z</time></trkpt><trkpt lat="44.228245" lon="11.6975117"><ele>162.5</ele><time>2026-04-11T11:28:07.124Z</time></trkpt><trkpt lat="44.228225" lon="11.69732"><ele>163.25</ele><time>2026-04-11T11:28:08.124Z</time></trkpt><trkpt lat="44.228225" lon="11.69712"><ele>164.0</ele><time>2026-04-11T11:28:09.123Z</time></trkpt><trkpt lat="44.2282383" lon="11.6969333"><ele>163.6</ele><time>2026-04-11T11:28:10.124Z</time></trkpt><trkpt lat="44.2282467" lon="11.6967617"><ele>163.2</ele><time>2026-04-11T11:28:11.124Z</time></trkpt><trkpt lat="44.2282333" lon="11.6966083"><ele>162.79999999999998</ele><time>2026-04-11T11:28:12.123Z</time></trkpt><trkpt lat="44.2282" lon="11.69647"><ele>162.39999999999998</ele><time>2026-04-11T11:28:13.124Z</time></trkpt><trkpt lat="44.2281517" lon="11.6963433"><ele>162.0</ele><time>2026-04-11T11:28:14.123Z</time></trkpt><trkpt lat="44.228085" lon="11.6962317"><ele>161.4</ele><time>2026-04-11T11:28:15.124Z</time></trkpt><trkpt lat="44.228015" lon="11.6961517"><ele>160.79999999999998</ele><time>2026-04-11T11:28:16.125Z</time></trkpt><trkpt lat="44.2279533" lon="11.696095"><ele>160.2</ele><time>2026-04-11T11:28:17.123Z</time></trkpt><trkpt lat="44.227855" lon="11.69609"><ele>159.6</ele><time>2026-04-11T11:28:19.123Z</time></trkpt><trkpt lat="44.2277817" lon="11.6962167"><ele>159.0</ele><time>2026-04-11T11:28:21.124Z</time></trkpt><trkpt lat="44.227745" lon="11.696305"><ele>159.0</ele><time>2026-04-11T11:28:22.123Z</time></trkpt><trkpt lat="44.2277033" lon="11.6964083"><ele>159.0</ele><time>2026-04-11T11:28:23.124Z</time></trkpt><trkpt lat="44.2276433" lon="11.6965"><ele>159.0</ele><time>2026-04-11T11:28:24.123Z</time></trkpt><trkpt lat="44.22758" lon="11.6965533"><ele>159.0</ele><time>2026-04-11T11:28:25.124Z</time></trkpt><trkpt lat="44.2274783" lon="11.6966067"><ele>159.0</ele><time>2026-04-11T11:28:27.124Z</time></trkpt><trkpt lat="44.227415" lon="11.6965983"><ele>159.0</ele><time>2026-04-11T11:28:28.124Z</time></trkpt><trkpt lat="44.2273317" lon="11.69659"><ele>160.5</ele><time>2026-04-11T11:28:29.125Z</time></trkpt><trkpt lat="44.2272233" lon="11.6966"><ele>162.0</ele><time>2026-04-11T11:28:30.124Z</time></trkpt><trkpt lat="44.2271133" lon="11.696615"><ele>163.5</ele><time>2026-04-11T11:28:31.124Z</time></trkpt><trkpt lat="44.226995" lon="11.6966333"><ele>165.0</ele><time>2026-04-11T11:28:32.124Z</time></trkpt><trkpt lat="44.2268717" lon="11.6966483"><ele>165.0</ele><time>2026-04-11T11:28:33.124Z</time></trkpt><trkpt lat="44.2267483" lon="11.696655"><ele>165.0</ele><time>2026-04-11T11:28:34.124Z</time></trkpt><trkpt lat="44.2266217" lon="11.6966383"><ele>165.0</ele><time>2026-04-11T11:28:35.124Z</time></trkpt><trkpt lat="44.2264933" lon="11.6966083"><ele>165.0</ele><time>2026-04-11T11:28:36.124Z</time></trkpt><trkpt lat="44.2263633" lon="11.6965767"><ele>167.25</ele><time>2026-04-11T11:28:37.124Z</time></trkpt><trkpt lat="44.2262333" lon="11.6965333"><ele>169.5</ele><time>2026-04-11T11:28:38.124Z</time></trkpt><trkpt lat="44.226105" lon="11.69648"><ele>171.75</ele><time>2026-04-11T11:28:39.124Z</time></trkpt><trkpt lat="44.2259733" lon="11.6964183"><ele>174.0</ele><time>2026-04-11T11:28:40.123Z</time></trkpt><trkpt lat="44.2258433" lon="11.6963517"><ele>174.0</ele><time>2026-04-11T11:28:41.124Z</time></trkpt><trkpt lat="44.2257183" lon="11.69627"><ele>174.0</ele><time>2026-04-11T11:28:42.124Z</time></trkpt><trkpt lat="44.2256117" lon="11.6961617"><ele>174.0</ele><time>2026-04-11T11:28:43.125Z</time></trkpt><trkpt lat="44.225515" lon="11.6960383"><ele>174.0</ele><time>2026-04-11T11:28:44.124Z</time></trkpt><trkpt lat="44.2254267" lon="11.6959017"><ele>175.0</ele><time>2026-04-11T11:28:45.125Z</time></trkpt><trkpt lat="44.2253433" lon="11.6957633"><ele>176.0</ele><time>2026-04-11T11:28:46.124Z</time></trkpt><trkpt lat="44.225265" lon="11.6956317"><ele>177.0</ele><time>2026-04-11T11:28:47.126Z</time></trkpt><trkpt lat="44.2251917" lon="11.6955"><ele>178.0</ele><time>2026-04-11T11:28:48.124Z</time></trkpt><trkpt lat="44.22512" lon="11.6953783"><ele>178.0</ele><time>2026-04-11T11:28:49.124Z</time></trkpt><trkpt lat="44.2250533" lon="11.6952667"><ele>178.0</ele><time>2026-04-11T11:28:50.124Z</time></trkpt><trkpt lat="44.2249883" lon="11.695155"><ele>178.0</ele><time>2026-04-11T11:28:51.124Z</time></trkpt><trkpt lat="44.22492" lon="11.6950483"><ele>178.0</ele><time>2026-04-11T11:28:52.124Z</time></trkpt><trkpt lat="44.22484" lon="11.6949567"><ele>178.0</ele><time>2026-04-11T11:28:53.123Z</time></trkpt><trkpt lat="44.2247483" lon="11.69488"><ele>176.0</ele><time>2026-04-11T11:28:54.124Z</time></trkpt><trkpt lat="44.224655" lon="11.69482"><ele>174.0</ele><time>2026-04-11T11:28:55.125Z</time></trkpt><trkpt lat="44.2245533" lon="11.69477"><ele>172.0</ele><time>2026-04-11T11:28:56.124Z</time></trkpt><trkpt lat="44.2244483" lon="11.6947283"><ele>170.0</ele><time>2026-04-11T11:28:57.124Z</time></trkpt><trkpt lat="44.224335" lon="11.6947017"><ele>168.0</ele><time>2026-04-11T11:28:58.124Z</time></trkpt><trkpt lat="44.224215" lon="11.6946867"><ele>168.0</ele><time>2026-04-11T11:28:59.124Z</time></trkpt><trkpt lat="44.2240933" lon="11.6946783"><ele>168.0</ele><time>2026-04-11T11:29:00.124Z</time></trkpt><trkpt lat="44.2239667" lon="11.6946717"><ele>168.0</ele><time>2026-04-11T11:29:01.123Z</time></trkpt><trkpt lat="44.223835" lon="11.69466"><ele>168.0</ele><time>2026-04-11T11:29:02.124Z</time></trkpt><trkpt lat="44.223705" lon="11.6946283"><ele>168.75</ele><time>2026-04-11T11:29:03.124Z</time></trkpt><trkpt lat="44.2235783" lon="11.6945767"><ele>169.5</ele><time>2026-04-11T11:29:04.124Z</time></trkpt><trkpt lat="44.2234533" lon="11.6945067"><ele>170.25</ele><time>2026-04-11T11:29:05.124Z</time></trkpt><trkpt lat="44.2233283" lon="11.6944283"><ele>171.0</ele><time>2026-04-11T11:29:06.124Z</time></trkpt><trkpt lat="44.2232067" lon="11.694345"><ele>173.5</ele><time>2026-04-11T11:29:07.124Z</time></trkpt><trkpt lat="44.2230883" lon="11.694255"><ele>176.0</ele><time>2026-04-11T11:29:08.124Z</time></trkpt><trkpt lat="44.2229783" lon="11.69416"><ele>178.5</ele><time>2026-04-11T11:29:09.124Z</time></trkpt><trkpt lat="44.2228783" lon="11.69405"><ele>181.0</ele><time>2026-04-11T11:29:10.124Z</time></trkpt><trkpt lat="44.2227967" lon="11.69393"><ele>181.0</ele><time>2026-04-11T11:29:11.124Z</time></trkpt><trkpt lat="44.222715" lon="11.6938033"><ele>181.0</ele><time>2026-04-11T11:29:12.124Z</time></trkpt><trkpt lat="44.222635" lon="11.6936717"><ele>181.0</ele><time>2026-04-11T11:29:13.125Z</time></trkpt><trkpt lat="44.2225467" lon="11.693535"><ele>181.0</ele><time>2026-04-11T11:29:14.124Z</time></trkpt><trkpt lat="44.222455" lon="11.6933967"><ele>180.25</ele><time>2026-04-11T11:29:15.123Z</time></trkpt><trkpt lat="44.22236" lon="11.69326"><ele>179.5</ele><time>2026-04-11T11:29:16.124Z</time></trkpt><trkpt lat="44.2222633" lon="11.69313"><ele>178.75</ele><time>2026-04-11T11:29:17.124Z</time></trkpt><trkpt lat="44.2221667" lon="11.6930133"><ele>178.0</ele><time>2026-04-11T11:29:18.124Z</time></trkpt><trkpt lat="44.22207" lon="11.69292"><ele>181.25</ele><time>2026-04-11T11:29:19.124Z</time></trkpt><trkpt lat="44.2219583" lon="11.6928567"><ele>184.5</ele><time>2026-04-11T11:29:20.123Z</time></trkpt><trkpt lat="44.2218317" lon="11.6928233"><ele>187.75</ele><time>2026-04-11T11:29:21.124Z</time></trkpt><trkpt lat="44.2217017" lon="11.6928167"><ele>191.0</ele><time>2026-04-11T11:29:22.123Z</time></trkpt><trkpt lat="44.221585" lon="11.692815"><ele>191.0</ele><time>2026-04-11T11:29:23.124Z</time></trkpt><trkpt lat="44.2214833" lon="11.6927933"><ele>191.0</ele><time>2026-04-11T11:29:24.124Z</time></trkpt><trkpt lat="44.2213833" lon="11.69275"><ele>191.0</ele><time>2026-04-11T11:29:25.124Z</time></trkpt><trkpt lat="44.2212917" lon="11.6926783"><ele>191.0</ele><time>2026-04-11T11:29:26.124Z</time></trkpt><trkpt lat="44.221205" lon="11.6925883"><ele>191.0</ele><time>2026-04-11T11:29:27.125Z</time></trkpt><trkpt lat="44.2211383" lon="11.6924833"><ele>190.8</ele><time>2026-04-11T11:29:28.124Z</time></trkpt><trkpt lat="44.221095" lon="11.6923583"><ele>190.60000000000002</ele><time>2026-04-11T11:29:29.124Z</time></trkpt><trkpt lat="44.2210867" lon="11.69221"><ele>190.4</ele><time>2026-04-11T11:29:30.124Z</time></trkpt><trkpt lat="44.2211017" lon="11.6920467"><ele>190.2</ele><time>2026-04-11T11:29:31.124Z</time></trkpt><trkpt lat="44.2211283" lon="11.691885"><ele>190.0</ele><time>2026-04-11T11:29:32.124Z</time></trkpt><trkpt lat="44.2211433" lon="11.691725"><ele>190.0</ele><time>2026-04-11T11:29:33.124Z</time></trkpt><trkpt lat="44.2211433" lon="11.691555"><ele>190.0</ele><time>2026-04-11T11:29:34.124Z</time></trkpt><trkpt lat="44.2211117" lon="11.6913867"><ele>190.0</ele><time>2026-04-11T11:29:35.124Z</time></trkpt><trkpt lat="44.2210433" lon="11.6912317"><ele>190.0</ele><time>2026-04-11T11:29:36.126Z</time></trkpt><trkpt lat="44.2209517" lon="11.6910833"><ele>188.0</ele><time>2026-04-11T11:29:37.125Z</time></trkpt><trkpt lat="44.2208617" lon="11.6909233"><ele>186.0</ele><time>2026-04-11T11:29:38.123Z</time></trkpt><trkpt lat="44.220785" lon="11.6907583"><ele>184.0</ele><time>2026-04-11T11:29:39.125Z</time></trkpt><trkpt lat="44.22072" lon="11.690595"><ele>182.0</ele><time>2026-04-11T11:29:40.124Z</time></trkpt><trkpt lat="44.2206617" lon="11.6904417"><ele>181.8</ele><time>2026-04-11T11:29:41.124Z</time></trkpt><trkpt lat="44.22061" lon="11.6903217"><ele>181.6</ele><time>2026-04-11T11:29:42.126Z</time></trkpt><trkpt lat="44.2205633" lon="11.6902233"><ele>181.4</ele><time>2026-04-11T11:29:43.125Z</time></trkpt><trkpt lat="44.2205" lon="11.6901483"><ele>181.20000000000002</ele><time>2026-04-11T11:29:44.125Z</time></trkpt><trkpt lat="44.2204183" lon="11.69009"><ele>181.0</ele><time>2026-04-11T11:29:45.125Z</time></trkpt><trkpt lat="44.2203217" lon="11.6900383"><ele>181.0</ele><time>2026-04-11T11:29:46.125Z</time></trkpt><trkpt lat="44.2202133" lon="11.689995"><ele>181.0</ele><time>2026-04-11T11:29:47.125Z</time></trkpt><trkpt lat="44.2200967" lon="11.6899483"><ele>181.0</ele><time>2026-04-11T11:29:48.124Z</time></trkpt><trkpt lat="44.2199717" lon="11.6898983"><ele>181.0</ele><time>2026-04-11T11:29:49.125Z</time></trkpt><trkpt lat="44.21984" lon="11.6898417"><ele>181.25</ele><time>2026-04-11T11:29:50.125Z</time></trkpt><trkpt lat="44.2197033" lon="11.68979"><ele>181.5</ele><time>2026-04-11T11:29:51.123Z</time></trkpt><trkpt lat="44.219565" lon="11.68974"><ele>181.75</ele><time>2026-04-11T11:29:52.124Z</time></trkpt><trkpt lat="44.2194333" lon="11.68968"><ele>182.0</ele><time>2026-04-11T11:29:53.124Z</time></trkpt><trkpt lat="44.2193133" lon="11.689585"><ele>182.0</ele><time>2026-04-11T11:29:54.123Z</time></trkpt><trkpt lat="44.2191983" lon="11.6894733"><ele>182.0</ele><time>2026-04-11T11:29:55.123Z</time></trkpt><trkpt lat="44.2190783" lon="11.6893533"><ele>182.0</ele><time>2026-04-11T11:29:56.123Z</time></trkpt><trkpt lat="44.2189583" lon="11.6892233"><ele>182.0</ele><time>2026-04-11T11:29:57.124Z</time></trkpt><trkpt lat="44.2188383" lon="11.6890917"><ele>183.33333333333331</ele><time>2026-04-11T11:29:58.123Z</time></trkpt><trkpt lat="44.21872" lon="11.688955"><ele>184.66666666666666</ele><time>2026-04-11T11:29:59.125Z</time></trkpt><trkpt lat="44.2185967" lon="11.68882"><ele>186.0</ele><time>2026-04-11T11:30:00.124Z</time></trkpt><trkpt lat="44.2184667" lon="11.688685"><ele>188.33333333333331</ele><time>2026-04-11T11:30:01.123Z</time></trkpt><trkpt lat="44.218335" lon="11.6885467"><ele>190.66666666666666</ele><time>2026-04-11T11:30:02.124Z</time></trkpt><trkpt lat="44.2182033" lon="11.6884083"><ele>193.0</ele><time>2026-04-11T11:30:03.124Z</time></trkpt><trkpt lat="44.2180717" lon="11.688265"><ele>193.0</ele><time>2026-04-11T11:30:04.124Z</time></trkpt><trkpt lat="44.2179367" lon="11.6881217"><ele>193.0</ele><time>2026-04-11T11:30:05.124Z</time></trkpt><trkpt lat="44.2178" lon="11.6879817"><ele>193.0</ele><time>2026-04-11T11:30:06.123Z</time></trkpt><trkpt lat="44.217665" lon="11.6878383"><ele>192.66666666666666</ele><time>2026-04-11T11:30:07.125Z</time></trkpt><trkpt lat="44.2175317" lon="11.68769"><ele>192.33333333333331</ele><time>2026-04-11T11:30:08.125Z</time></trkpt><trkpt lat="44.2173933" lon="11.687545"><ele>192.0</ele><time>2026-04-11T11:30:09.124Z</time></trkpt><trkpt lat="44.2172583" lon="11.6874"><ele>192.0</ele><time>2026-04-11T11:30:10.123Z</time></trkpt><trkpt lat="44.2171217" lon="11.687255"><ele>192.0</ele><time>2026-04-11T11:30:11.124Z</time></trkpt><trkpt lat="44.2169867" lon="11.687105"><ele>192.0</ele><time>2026-04-11T11:30:12.124Z</time></trkpt><trkpt lat="44.2168517" lon="11.6869583"><ele>191.33333333333334</ele><time>2026-04-11T11:30:13.124Z</time></trkpt><trkpt lat="44.216715" lon="11.68681"><ele>190.66666666666669</ele><time>2026-04-11T11:30:14.124Z</time></trkpt><trkpt lat="44.2165817" lon="11.6866533"><ele>190.0</ele><time>2026-04-11T11:30:15.124Z</time></trkpt><trkpt lat="44.2164633" lon="11.6864783"><ele>190.0</ele><time>2026-04-11T11:30:16.125Z</time></trkpt><trkpt lat="44.2163583" lon="11.68629"><ele>190.0</ele><time>2026-04-11T11:30:17.123Z</time></trkpt><trkpt lat="44.2162583" lon="11.6860983"><ele>190.0</ele><time>2026-04-11T11:30:18.123Z</time></trkpt><trkpt lat="44.2161567" lon="11.6859033"><ele>192.33333333333334</ele><time>2026-04-11T11:30:19.124Z</time></trkpt><trkpt lat="44.216055" lon="11.6857067"><ele>194.66666666666669</ele><time>2026-04-11T11:30:20.124Z</time></trkpt><trkpt lat="44.21595" lon="11.6855067"><ele>197.0</ele><time>2026-04-11T11:30:21.125Z</time></trkpt><trkpt lat="44.2158433" lon="11.68531"><ele>197.0</ele><time>2026-04-11T11:30:22.125Z</time></trkpt><trkpt lat="44.2157367" lon="11.6851117"><ele>197.0</ele><time>2026-04-11T11:30:23.124Z</time></trkpt><trkpt lat="44.2156317" lon="11.68491"><ele>197.0</ele><time>2026-04-11T11:30:24.124Z</time></trkpt><trkpt lat="44.2155283" lon="11.6847083"><ele>197.0</ele><time>2026-04-11T11:30:25.124Z</time></trkpt><trkpt lat="44.2154233" lon="11.6845133"><ele>197.0</ele><time>2026-04-11T11:30:26.126Z</time></trkpt><trkpt lat="44.2153133" lon="11.6843267"><ele>197.0</ele><time>2026-04-11T11:30:27.125Z</time></trkpt><trkpt lat="44.2151983" lon="11.684145"><ele>199.33333333333334</ele><time>2026-04-11T11:30:28.123Z</time></trkpt><trkpt lat="44.21508" lon="11.6839633"><ele>201.66666666666669</ele><time>2026-04-11T11:30:29.124Z</time></trkpt><trkpt lat="44.2149583" lon="11.68378"><ele>204.0</ele><time>2026-04-11T11:30:30.124Z</time></trkpt><trkpt lat="44.2148417" lon="11.6835983"><ele>204.33333333333331</ele><time>2026-04-11T11:30:31.124Z</time></trkpt><trkpt lat="44.2147283" lon="11.6834333"><ele>204.66666666666666</ele><time>2026-04-11T11:30:32.124Z</time></trkpt><trkpt lat="44.21462" lon="11.6832817"><ele>205.0</ele><time>2026-04-11T11:30:33.125Z</time></trkpt><trkpt lat="44.214525" lon="11.6831333"><ele>205.0</ele><time>2026-04-11T11:30:34.123Z</time></trkpt><trkpt lat="44.21444" lon="11.68297"><ele>205.0</ele><time>2026-04-11T11:30:35.124Z</time></trkpt><trkpt lat="44.2143667" lon="11.6827867"><ele>205.0</ele><time>2026-04-11T11:30:36.124Z</time></trkpt><trkpt lat="44.2143" lon="11.6825867"><ele>206.33333333333331</ele><time>2026-04-11T11:30:37.124Z</time></trkpt><trkpt lat="44.2142283" lon="11.6823867"><ele>207.66666666666669</ele><time>2026-04-11T11:30:38.125Z</time></trkpt><trkpt lat="44.2141533" lon="11.6821983"><ele>209.0</ele><time>2026-04-11T11:30:39.127Z</time></trkpt><trkpt lat="44.21409" lon="11.6820233"><ele>208.2</ele><time>2026-04-11T11:30:40.126Z</time></trkpt><trkpt lat="44.2140433" lon="11.6818683"><ele>207.39999999999998</ele><time>2026-04-11T11:30:41.126Z</time></trkpt><trkpt lat="44.2139917" lon="11.681745"><ele>206.6</ele><time>2026-04-11T11:30:42.123Z</time></trkpt><trkpt lat="44.2139183" lon="11.681655"><ele>205.8</ele><time>2026-04-11T11:30:43.124Z</time></trkpt><trkpt lat="44.21382" lon="11.6815883"><ele>205.0</ele><time>2026-04-11T11:30:44.124Z</time></trkpt><trkpt lat="44.2137083" lon="11.6815433"><ele>205.0</ele><time>2026-04-11T11:30:45.124Z</time></trkpt><trkpt lat="44.2135883" lon="11.68148"><ele>205.0</ele><time>2026-04-11T11:30:46.124Z</time></trkpt><trkpt lat="44.21347" lon="11.6813967"><ele>205.0</ele><time>2026-04-11T11:30:47.124Z</time></trkpt><trkpt lat="44.2133583" lon="11.6812933"><ele>205.0</ele><time>2026-04-11T11:30:48.124Z</time></trkpt><trkpt lat="44.2132417" lon="11.681185"><ele>205.66666666666666</ele><time>2026-04-11T11:30:49.124Z</time></trkpt><trkpt lat="44.2131167" lon="11.68106"><ele>206.33333333333331</ele><time>2026-04-11T11:30:50.123Z</time></trkpt><trkpt lat="44.212995" lon="11.6809283"><ele>207.0</ele><time>2026-04-11T11:30:51.125Z</time></trkpt><trkpt lat="44.2128783" lon="11.6808083"><ele>207.0</ele><time>2026-04-11T11:30:52.124Z</time></trkpt><trkpt lat="44.2127783" lon="11.6806983"><ele>207.0</ele><time>2026-04-11T11:30:53.124Z</time></trkpt><trkpt lat="44.2126933" lon="11.6806"><ele>207.0</ele><time>2026-04-11T11:30:54.124Z</time></trkpt><trkpt lat="44.212625" lon="11.6805"><ele>207.0</ele><time>2026-04-11T11:30:55.123Z</time></trkpt><trkpt lat="44.2125883" lon="11.6803867"><ele>207.0</ele><time>2026-04-11T11:30:56.124Z</time></trkpt><trkpt lat="44.212585" lon="11.6802767"><ele>207.16666666666666</ele><time>2026-04-11T11:30:57.123Z</time></trkpt><trkpt lat="44.2126083" lon="11.6801783"><ele>207.33333333333331</ele><time>2026-04-11T11:30:58.124Z</time></trkpt><trkpt lat="44.2126517" lon="11.68008"><ele>207.5</ele><time>2026-04-11T11:30:59.125Z</time></trkpt><trkpt lat="44.2127033" lon="11.6799833"><ele>207.66666666666666</ele><time>2026-04-11T11:31:00.124Z</time></trkpt><trkpt lat="44.2127533" lon="11.6798833"><ele>207.83333333333331</ele><time>2026-04-11T11:31:01.125Z</time></trkpt><trkpt lat="44.21279" lon="11.6797633"><ele>208.0</ele><time>2026-04-11T11:31:02.124Z</time></trkpt><trkpt lat="44.212805" lon="11.6796317"><ele>207.99999999999997</ele><time>2026-04-11T11:31:03.124Z</time></trkpt><trkpt lat="44.2128017" lon="11.6794983"><ele>208.0</ele><time>2026-04-11T11:31:04.124Z</time></trkpt><trkpt lat="44.212785" lon="11.6793833"><ele>208.0</ele><time>2026-04-11T11:31:05.124Z</time></trkpt><trkpt lat="44.2127683" lon="11.679275"><ele>208.0</ele><time>2026-04-11T11:31:06.124Z</time></trkpt><trkpt lat="44.2127517" lon="11.6791667"><ele>207.99999999999997</ele><time>2026-04-11T11:31:07.124Z</time></trkpt><trkpt lat="44.212735" lon="11.6790633"><ele>208.0</ele><time>2026-04-11T11:31:08.124Z</time></trkpt><trkpt lat="44.2127167" lon="11.678955"><ele>208.4</ele><time>2026-04-11T11:31:09.125Z</time></trkpt><trkpt lat="44.212695" lon="11.6788367"><ele>208.8</ele><time>2026-04-11T11:31:10.124Z</time></trkpt><trkpt lat="44.2126783" lon="11.67871"><ele>209.2</ele><time>2026-04-11T11:31:11.124Z</time></trkpt><trkpt lat="44.21266" lon="11.67859"><ele>209.6</ele><time>2026-04-11T11:31:12.124Z</time></trkpt><trkpt lat="44.212625" lon="11.6784683"><ele>210.0</ele><time>2026-04-11T11:31:13.124Z</time></trkpt><trkpt lat="44.21257" lon="11.6783533"><ele>210.0</ele><time>2026-04-11T11:31:14.124Z</time></trkpt><trkpt lat="44.2124917" lon="11.678245"><ele>210.0</ele><time>2026-04-11T11:31:15.125Z</time></trkpt><trkpt lat="44.2123933" lon="11.6781283"><ele>210.0</ele><time>2026-04-11T11:31:16.124Z</time></trkpt><trkpt lat="44.212285" lon="11.67801"><ele>210.0</ele><time>2026-04-11T11:31:17.124Z</time></trkpt><trkpt lat="44.2121783" lon="11.6778833"><ele>210.75</ele><time>2026-04-11T11:31:18.125Z</time></trkpt><trkpt lat="44.212065" lon="11.677755"><ele>211.5</ele><time>2026-04-11T11:31:19.124Z</time></trkpt><trkpt lat="44.211955" lon="11.6776283"><ele>212.25</ele><time>2026-04-11T11:31:20.124Z</time></trkpt><trkpt lat="44.2118467" lon="11.6775017"><ele>213.0</ele><time>2026-04-11T11:31:21.124Z</time></trkpt><trkpt lat="44.2117367" lon="11.677375"><ele>213.0</ele><time>2026-04-11T11:31:22.123Z</time></trkpt><trkpt lat="44.211625" lon="11.6772467"><ele>213.0</ele><time>2026-04-11T11:31:23.124Z</time></trkpt><trkpt lat="44.21151" lon="11.6771167"><ele>213.0</ele><time>2026-04-11T11:31:24.124Z</time></trkpt><trkpt lat="44.2113967" lon="11.67699"><ele>213.0</ele><time>2026-04-11T11:31:25.123Z</time></trkpt><trkpt lat="44.2112817" lon="11.6768567"><ele>216.33333333333331</ele><time>2026-04-11T11:31:26.124Z</time></trkpt><trkpt lat="44.2111633" lon="11.6767233"><ele>219.66666666666666</ele><time>2026-04-11T11:31:27.124Z</time></trkpt><trkpt lat="44.21104" lon="11.6765833"><ele>223.0</ele><time>2026-04-11T11:31:28.124Z</time></trkpt><trkpt lat="44.2109183" lon="11.6764433"><ele>223.0</ele><time>2026-04-11T11:31:29.124Z</time></trkpt><trkpt lat="44.2108067" lon="11.676285"><ele>223.0</ele><time>2026-04-11T11:31:30.124Z</time></trkpt><trkpt lat="44.2107183" lon="11.6761067"><ele>223.0</ele><time>2026-04-11T11:31:31.123Z</time></trkpt><trkpt lat="44.210645" lon="11.6759117"><ele>226.0</ele><time>2026-04-11T11:31:32.124Z</time></trkpt><trkpt lat="44.2105833" lon="11.6757067"><ele>229.0</ele><time>2026-04-11T11:31:33.124Z</time></trkpt><trkpt lat="44.2105467" lon="11.67551"><ele>232.0</ele><time>2026-04-11T11:31:34.123Z</time></trkpt><trkpt lat="44.21054" lon="11.67531"><ele>235.0</ele><time>2026-04-11T11:31:35.124Z</time></trkpt><trkpt lat="44.2105417" lon="11.6750983"><ele>235.0</ele><time>2026-04-11T11:31:36.125Z</time></trkpt><trkpt lat="44.21053" lon="11.6748817"><ele>235.0</ele><time>2026-04-11T11:31:37.125Z</time></trkpt><trkpt lat="44.2105117" lon="11.6746733"><ele>235.0</ele><time>2026-04-11T11:31:38.125Z</time></trkpt><trkpt lat="44.2104967" lon="11.6744883"><ele>235.0</ele><time>2026-04-11T11:31:39.124Z</time></trkpt><trkpt lat="44.210475" lon="11.674325"><ele>235.0</ele><time>2026-04-11T11:31:40.124Z</time></trkpt><trkpt lat="44.210435" lon="11.6741817"><ele>235.0</ele><time>2026-04-11T11:31:41.124Z</time></trkpt><trkpt lat="44.2103633" lon="11.6740633"><ele>235.0</ele><time>2026-04-11T11:31:42.126Z</time></trkpt><trkpt lat="44.2102667" lon="11.673965"><ele>235.0</ele><time>2026-04-11T11:31:43.124Z</time></trkpt><trkpt lat="44.2101533" lon="11.6738767"><ele>235.0</ele><time>2026-04-11T11:31:44.124Z</time></trkpt><trkpt lat="44.2100517" lon="11.6737767"><ele>235.0</ele><time>2026-04-11T11:31:45.124Z</time></trkpt><trkpt lat="44.2099733" lon="11.67368"><ele>235.0</ele><time>2026-04-11T11:31:46.124Z</time></trkpt><trkpt lat="44.2099217" lon="11.6735633"><ele>235.0</ele><time>2026-04-11T11:31:47.124Z</time></trkpt><trkpt lat="44.2098883" lon="11.6734083"><ele>235.0</ele><time>2026-04-11T11:31:48.124Z</time></trkpt><trkpt lat="44.2098683" lon="11.6732233"><ele>233.75</ele><time>2026-04-11T11:31:49.124Z</time></trkpt><trkpt lat="44.2098533" lon="11.673025"><ele>232.5</ele><time>2026-04-11T11:31:50.124Z</time></trkpt><trkpt lat="44.209835" lon="11.67283"><ele>231.25</ele><time>2026-04-11T11:31:51.124Z</time></trkpt><trkpt lat="44.2098167" lon="11.6726333"><ele>230.0</ele><time>2026-04-11T11:31:52.124Z</time></trkpt><trkpt lat="44.2097917" lon="11.6724467"><ele>230.0</ele><time>2026-04-11T11:31:53.124Z</time></trkpt><trkpt lat="44.20977" lon="11.6722883"><ele>230.0</ele><time>2026-04-11T11:31:54.123Z</time></trkpt><trkpt lat="44.20973" lon="11.6721467"><ele>230.0</ele><time>2026-04-11T11:31:55.123Z</time></trkpt><trkpt lat="44.2096667" lon="11.6720217"><ele>230.0</ele><time>2026-04-11T11:31:56.124Z</time></trkpt><trkpt lat="44.209585" lon="11.6718883"><ele>228.25</ele><time>2026-04-11T11:31:57.124Z</time></trkpt><trkpt lat="44.2094933" lon="11.67174"><ele>226.5</ele><time>2026-04-11T11:31:58.124Z</time></trkpt><trkpt lat="44.2093983" lon="11.6715867"><ele>224.75</ele><time>2026-04-11T11:31:59.124Z</time></trkpt><trkpt lat="44.2093017" lon="11.67143"><ele>223.0</ele><time>2026-04-11T11:32:00.124Z</time></trkpt><trkpt lat="44.2092" lon="11.671275"><ele>223.0</ele><time>2026-04-11T11:32:01.124Z</time></trkpt><trkpt lat="44.2090917" lon="11.671125"><ele>223.0</ele><time>2026-04-11T11:32:02.124Z</time></trkpt><trkpt lat="44.2089767" lon="11.670985"><ele>223.0</ele><time>2026-04-11T11:32:03.123Z</time></trkpt><trkpt lat="44.208855" lon="11.6708483"><ele>224.66666666666666</ele><time>2026-04-11T11:32:04.124Z</time></trkpt><trkpt lat="44.2087333" lon="11.6707117"><ele>226.33333333333331</ele><time>2026-04-11T11:32:05.124Z</time></trkpt><trkpt lat="44.208615" lon="11.6705683"><ele>228.0</ele><time>2026-04-11T11:32:06.124Z</time></trkpt><trkpt lat="44.2084967" lon="11.6704217"><ele>226.33333333333331</ele><time>2026-04-11T11:32:07.124Z</time></trkpt><trkpt lat="44.2083833" lon="11.670265"><ele>224.66666666666666</ele><time>2026-04-11T11:32:08.123Z</time></trkpt><trkpt lat="44.208275" lon="11.6701017"><ele>223.0</ele><time>2026-04-11T11:32:09.124Z</time></trkpt><trkpt lat="44.2081667" lon="11.6699367"><ele>224.66666666666666</ele><time>2026-04-11T11:32:10.125Z</time></trkpt><trkpt lat="44.2080617" lon="11.6697617"><ele>226.33333333333331</ele><time>2026-04-11T11:32:11.124Z</time></trkpt><trkpt lat="44.2079583" lon="11.66958"><ele>228.0</ele><time>2026-04-11T11:32:12.124Z</time></trkpt><trkpt lat="44.2078533" lon="11.669395"><ele>228.0</ele><time>2026-04-11T11:32:13.124Z</time></trkpt><trkpt lat="44.2077567" lon="11.6691967"><ele>228.0</ele><time>2026-04-11T11:32:14.123Z</time></trkpt><trkpt lat="44.20767" lon="11.6689933"><ele>228.0</ele><time>2026-04-11T11:32:15.125Z</time></trkpt><trkpt lat="44.2075933" lon="11.6687783"><ele>228.33333333333331</ele><time>2026-04-11T11:32:16.124Z</time></trkpt><trkpt lat="44.20753" lon="11.6685583"><ele>228.66666666666666</ele><time>2026-04-11T11:32:17.124Z</time></trkpt><trkpt lat="44.2074583" lon="11.66835"><ele>229.0</ele><time>2026-04-11T11:32:18.124Z</time></trkpt><trkpt lat="44.2073717" lon="11.6681567"><ele>230.66666666666666</ele><time>2026-04-11T11:32:19.123Z</time></trkpt><trkpt lat="44.2072817" lon="11.6679733"><ele>232.33333333333331</ele><time>2026-04-11T11:32:20.124Z</time></trkpt><trkpt lat="44.2071933" lon="11.667795"><ele>234.0</ele><time>2026-04-11T11:32:21.124Z</time></trkpt><trkpt lat="44.2071067" lon="11.6676183"><ele>234.0</ele><time>2026-04-11T11:32:22.125Z</time></trkpt><trkpt lat="44.207015" lon="11.6674483"><ele>234.0</ele><time>2026-04-11T11:32:23.123Z</time></trkpt><trkpt lat="44.20691" lon="11.667295"><ele>234.0</ele><time>2026-04-11T11:32:24.123Z</time></trkpt><trkpt lat="44.20679" lon="11.6671583"><ele>234.0</ele><time>2026-04-11T11:32:25.125Z</time></trkpt><trkpt lat="44.2066567" lon="11.6670417"><ele>234.0</ele><time>2026-04-11T11:32:26.124Z</time></trkpt><trkpt lat="44.2065133" lon="11.6669567"><ele>234.0</ele><time>2026-04-11T11:32:27.124Z</time></trkpt><trkpt lat="44.206365" lon="11.6668833"><ele>235.25</ele><time>2026-04-11T11:32:28.124Z</time></trkpt><trkpt lat="44.2062217" lon="11.666815"><ele>236.5</ele><time>2026-04-11T11:32:29.124Z</time></trkpt><trkpt lat="44.2060867" lon="11.6667533"><ele>237.75</ele><time>2026-04-11T11:32:30.123Z</time></trkpt><trkpt lat="44.2059667" lon="11.666695"><ele>239.0</ele><time>2026-04-11T11:32:31.125Z</time></trkpt><trkpt lat="44.205865" lon="11.6666133"><ele>239.0</ele><time>2026-04-11T11:32:32.125Z</time></trkpt><trkpt lat="44.2057983" lon="11.6665"><ele>239.0</ele><time>2026-04-11T11:32:33.124Z</time></trkpt><trkpt lat="44.205755" lon="11.6663567"><ele>239.0</ele><time>2026-04-11T11:32:34.124Z</time></trkpt><trkpt lat="44.2057217" lon="11.6661833"><ele>239.0</ele><time>2026-04-11T11:32:35.124Z</time></trkpt><trkpt lat="44.2056983" lon="11.6660017"><ele>239.75</ele><time>2026-04-11T11:32:36.124Z</time></trkpt><trkpt lat="44.2056633" lon="11.6658267"><ele>240.5</ele><time>2026-04-11T11:32:37.124Z</time></trkpt><trkpt lat="44.2056033" lon="11.6656717"><ele>241.25</ele><time>2026-04-11T11:32:38.124Z</time></trkpt><trkpt lat="44.2055217" lon="11.66554"><ele>242.0</ele><time>2026-04-11T11:32:39.124Z</time></trkpt><trkpt lat="44.2054167" lon="11.66542"><ele>242.0</ele><time>2026-04-11T11:32:40.124Z</time></trkpt><trkpt lat="44.2053017" lon="11.6653067"><ele>242.0</ele><time>2026-04-11T11:32:41.122Z</time></trkpt><trkpt lat="44.2051783" lon="11.6651967"><ele>242.0</ele><time>2026-04-11T11:32:42.124Z</time></trkpt><trkpt lat="44.2050633" lon="11.6650867"><ele>242.0</ele><time>2026-04-11T11:32:43.124Z</time></trkpt><trkpt lat="44.2049667" lon="11.6649633"><ele>244.75</ele><time>2026-04-11T11:32:44.124Z</time></trkpt><trkpt lat="44.2049117" lon="11.6648267"><ele>247.5</ele><time>2026-04-11T11:32:45.123Z</time></trkpt><trkpt lat="44.2048833" lon="11.66469"><ele>250.25</ele><time>2026-04-11T11:32:46.124Z</time></trkpt><trkpt lat="44.2048667" lon="11.664535"><ele>253.0</ele><time>2026-04-11T11:32:47.125Z</time></trkpt><trkpt lat="44.2048733" lon="11.664355"><ele>255.0</ele><time>2026-04-11T11:32:48.124Z</time></trkpt><trkpt lat="44.2048983" lon="11.664165"><ele>257.0</ele><time>2026-04-11T11:32:49.123Z</time></trkpt><trkpt lat="44.2049183" lon="11.663985"><ele>259.0</ele><time>2026-04-11T11:32:50.124Z</time></trkpt><trkpt lat="44.20495" lon="11.66384"><ele>261.0</ele><time>2026-04-11T11:32:51.124Z</time></trkpt><trkpt lat="44.205" lon="11.66371"><ele>262.0</ele><time>2026-04-11T11:32:52.124Z</time></trkpt><trkpt lat="44.2050617" lon="11.6635883"><ele>263.0</ele><time>2026-04-11T11:32:53.125Z</time></trkpt><trkpt lat="44.2051433" lon="11.6634917"><ele>264.0</ele><time>2026-04-11T11:32:54.123Z</time></trkpt><trkpt lat="44.2052367" lon="11.6634167"><ele>265.0</ele><time>2026-04-11T11:32:55.124Z</time></trkpt><trkpt lat="44.2053417" lon="11.663365"><ele>266.0</ele><time>2026-04-11T11:32:56.123Z</time></trkpt><trkpt lat="44.2054383" lon="11.6633317"><ele>266.0</ele><time>2026-04-11T11:32:57.124Z</time></trkpt><trkpt lat="44.20552" lon="11.6632817"><ele>266.0</ele><time>2026-04-11T11:32:58.125Z</time></trkpt><trkpt lat="44.20558" lon="11.663205"><ele>266.0</ele><time>2026-04-11T11:32:59.125Z</time></trkpt><trkpt lat="44.20561" lon="11.6631017"><ele>266.0</ele><time>2026-04-11T11:33:01.124Z</time></trkpt><trkpt lat="44.20558" lon="11.6629983"><ele>266.0</ele><time>2026-04-11T11:33:02.124Z</time></trkpt><trkpt lat="44.20552" lon="11.6629217"><ele>266.0</ele><time>2026-04-11T11:33:03.124Z</time></trkpt><trkpt lat="44.2054333" lon="11.662875"><ele>266.0</ele><time>2026-04-11T11:33:04.124Z</time></trkpt><trkpt lat="44.205325" lon="11.6628567"><ele>266.0</ele><time>2026-04-11T11:33:05.124Z</time></trkpt><trkpt lat="44.205205" lon="11.6628583"><ele>266.0</ele><time>2026-04-11T11:33:06.125Z</time></trkpt><trkpt lat="44.2050717" lon="11.6628817"><ele>266.0</ele><time>2026-04-11T11:33:07.124Z</time></trkpt><trkpt lat="44.204935" lon="11.662925"><ele>263.75</ele><time>2026-04-11T11:33:08.124Z</time></trkpt><trkpt lat="44.2047967" lon="11.6629717"><ele>261.5</ele><time>2026-04-11T11:33:09.124Z</time></trkpt><trkpt lat="44.20466" lon="11.66305"><ele>259.25</ele><time>2026-04-11T11:33:10.123Z</time></trkpt><trkpt lat="44.20454" lon="11.6630967"><ele>257.0</ele><time>2026-04-11T11:33:11.124Z</time></trkpt><trkpt lat="44.2044283" lon="11.6631133"><ele>257.0</ele><time>2026-04-11T11:33:12.124Z</time></trkpt><trkpt lat="44.2043233" lon="11.663115"><ele>257.0</ele><time>2026-04-11T11:33:13.124Z</time></trkpt><trkpt lat="44.2042333" lon="11.66308"><ele>257.0</ele><time>2026-04-11T11:33:14.124Z</time></trkpt><trkpt lat="44.20414" lon="11.66299"><ele>257.0</ele><time>2026-04-11T11:33:15.124Z</time></trkpt><trkpt lat="44.2040383" lon="11.6628583"><ele>260.33333333333337</ele><time>2026-04-11T11:33:16.123Z</time></trkpt><trkpt lat="44.2039183" lon="11.6627133"><ele>263.6666666666667</ele><time>2026-04-11T11:33:17.124Z</time></trkpt><trkpt lat="44.2037917" lon="11.66256"><ele>267.0</ele><time>2026-04-11T11:33:18.125Z</time></trkpt><trkpt lat="44.203655" lon="11.662415"><ele>267.0</ele><time>2026-04-11T11:33:19.124Z</time></trkpt><trkpt lat="44.2035217" lon="11.6622717"><ele>267.0</ele><time>2026-04-11T11:33:20.123Z</time></trkpt><trkpt lat="44.2033867" lon="11.6621333"><ele>267.0</ele><time>2026-04-11T11:33:21.124Z</time></trkpt><trkpt lat="44.2032583" lon="11.6620283"><ele>267.6666666666667</ele><time>2026-04-11T11:33:22.125Z</time></trkpt><trkpt lat="44.2031383" lon="11.6619067"><ele>268.33333333333337</ele><time>2026-04-11T11:33:23.124Z</time></trkpt><trkpt lat="44.2030267" lon="11.6617533"><ele>269.0</ele><time>2026-04-11T11:33:24.124Z</time></trkpt><trkpt lat="44.2029117" lon="11.66159"><ele>269.0</ele><time>2026-04-11T11:33:25.124Z</time></trkpt><trkpt lat="44.202795" lon="11.661425"><ele>269.0</ele><time>2026-04-11T11:33:26.124Z</time></trkpt><trkpt lat="44.20268" lon="11.6612533"><ele>269.0</ele><time>2026-04-11T11:33:27.124Z</time></trkpt><trkpt lat="44.2025667" lon="11.6610767"><ele>268.6666666666667</ele><time>2026-04-11T11:33:28.124Z</time></trkpt><trkpt lat="44.20246" lon="11.660895"><ele>268.3333333333333</ele><time>2026-04-11T11:33:29.123Z</time></trkpt><trkpt lat="44.2023467" lon="11.660705"><ele>268.0</ele><time>2026-04-11T11:33:30.124Z</time></trkpt><trkpt lat="44.2022317" lon="11.6605133"><ele>268.0</ele><time>2026-04-11T11:33:31.124Z</time></trkpt><trkpt lat="44.20212" lon="11.6603167"><ele>268.0</ele><time>2026-04-11T11:33:32.124Z</time></trkpt><trkpt lat="44.2020133" lon="11.660115"><ele>268.0</ele><time>2026-04-11T11:33:33.123Z</time></trkpt><trkpt lat="44.2019033" lon="11.6599083"><ele>270.66666666666663</ele><time>2026-04-11T11:33:34.124Z</time></trkpt><trkpt lat="44.2017917" lon="11.6597033"><ele>273.3333333333333</ele><time>2026-04-11T11:33:35.124Z</time></trkpt><trkpt lat="44.201675" lon="11.659515"><ele>276.0</ele><time>2026-04-11T11:33:36.124Z</time></trkpt><trkpt lat="44.2015483" lon="11.6593433"><ele>274.6666666666667</ele><time>2026-04-11T11:33:37.124Z</time></trkpt><trkpt lat="44.2014117" lon="11.6591817"><ele>273.33333333333337</ele><time>2026-04-11T11:33:38.124Z</time></trkpt><trkpt lat="44.2012767" lon="11.6590233"><ele>272.0</ele><time>2026-04-11T11:33:39.124Z</time></trkpt><trkpt lat="44.2011417" lon="11.6588633"><ele>272.0</ele><time>2026-04-11T11:33:40.123Z</time></trkpt><trkpt lat="44.2010083" lon="11.658705"><ele>272.0</ele><time>2026-04-11T11:33:41.125Z</time></trkpt><trkpt lat="44.2008717" lon="11.6585533"><ele>272.0</ele><time>2026-04-11T11:33:42.124Z</time></trkpt><trkpt lat="44.200735" lon="11.6584033"><ele>273.6666666666667</ele><time>2026-04-11T11:33:43.124Z</time></trkpt><trkpt lat="44.2006" lon="11.6582533"><ele>275.3333333333333</ele><time>2026-04-11T11:33:44.124Z</time></trkpt><trkpt lat="44.200475" lon="11.6580917"><ele>277.0</ele><time>2026-04-11T11:33:45.125Z</time></trkpt><trkpt lat="44.20036" lon="11.6579133"><ele>281.0</ele><time>2026-04-11T11:33:46.124Z</time></trkpt><trkpt lat="44.200255" lon="11.6577133"><ele>285.0</ele><time>2026-04-11T11:33:47.124Z</time></trkpt><trkpt lat="44.200155" lon="11.6575067"><ele>289.0</ele><time>2026-04-11T11:33:48.123Z</time></trkpt><trkpt lat="44.2000633" lon="11.6573067"><ele>289.0</ele><time>2026-04-11T11:33:49.123Z</time></trkpt><trkpt lat="44.199975" lon="11.6571283"><ele>289.0</ele><time>2026-04-11T11:33:50.123Z</time></trkpt><trkpt lat="44.199895" lon="11.6569683"><ele>289.0</ele><time>2026-04-11T11:33:51.124Z</time></trkpt><trkpt lat="44.1998283" lon="11.65683"><ele>289.0</ele><time>2026-04-11T11:33:52.124Z</time></trkpt><trkpt lat="44.1997717" lon="11.6566933"><ele>288.0</ele><time>2026-04-11T11:33:53.124Z</time></trkpt><trkpt lat="44.19974" lon="11.6565533"><ele>287.0</ele><time>2026-04-11T11:33:54.123Z</time></trkpt><trkpt lat="44.1997283" lon="11.6563883"><ele>286.0</ele><time>2026-04-11T11:33:55.123Z</time></trkpt><trkpt lat="44.1997167" lon="11.65622"><ele>285.0</ele><time>2026-04-11T11:33:56.124Z</time></trkpt><trkpt lat="44.1996933" lon="11.65605"><ele>287.0</ele><time>2026-04-11T11:33:57.124Z</time></trkpt><trkpt lat="44.1996583" lon="11.655875"><ele>289.0</ele><time>2026-04-11T11:33:58.123Z</time></trkpt><trkpt lat="44.1996117" lon="11.6557117"><ele>291.0</ele><time>2026-04-11T11:33:59.123Z</time></trkpt><trkpt lat="44.1995617" lon="11.6555733"><ele>293.0</ele><time>2026-04-11T11:34:00.124Z</time></trkpt><trkpt lat="44.1994983" lon="11.6554583"><ele>293.0</ele><time>2026-04-11T11:34:01.123Z</time></trkpt><trkpt lat="44.1994233" lon="11.6553767"><ele>293.0</ele><time>2026-04-11T11:34:02.124Z</time></trkpt><trkpt lat="44.199345" lon="11.655335"><ele>293.0</ele><time>2026-04-11T11:34:03.123Z</time></trkpt><trkpt lat="44.1992767" lon="11.6553283"><ele>293.0</ele><time>2026-04-11T11:34:04.124Z</time></trkpt><trkpt lat="44.1992183" lon="11.655435"><ele>293.0</ele><time>2026-04-11T11:34:06.123Z</time></trkpt><trkpt lat="44.1992033" lon="11.655535"><ele>293.0</ele><time>2026-04-11T11:34:07.124Z</time></trkpt><trkpt lat="44.1991933" lon="11.655655"><ele>293.0</ele><time>2026-04-11T11:34:08.124Z</time></trkpt><trkpt lat="44.1991983" lon="11.6557833"><ele>293.0</ele><time>2026-04-11T11:34:09.124Z</time></trkpt><trkpt lat="44.1992067" lon="11.655905"><ele>293.0</ele><time>2026-04-11T11:34:10.124Z</time></trkpt><trkpt lat="44.1992" lon="11.6560133"><ele>293.0</ele><time>2026-04-11T11:34:11.124Z</time></trkpt><trkpt lat="44.1991783" lon="11.6561117"><ele>293.0</ele><time>2026-04-11T11:34:12.123Z</time></trkpt><trkpt lat="44.1991383" lon="11.6562067"><ele>293.0</ele><time>2026-04-11T11:34:13.125Z</time></trkpt><trkpt lat="44.1990567" lon="11.65631"><ele>292.2</ele><time>2026-04-11T11:34:14.124Z</time></trkpt><trkpt lat="44.1989567" lon="11.65641"><ele>291.4</ele><time>2026-04-11T11:34:15.124Z</time></trkpt><trkpt lat="44.19886" lon="11.6564933"><ele>290.59999999999997</ele><time>2026-04-11T11:34:16.123Z</time></trkpt><trkpt lat="44.1987617" lon="11.65654"><ele>289.8</ele><time>2026-04-11T11:34:17.123Z</time></trkpt><trkpt lat="44.19866" lon="11.6565583"><ele>289.0</ele><time>2026-04-11T11:34:18.124Z</time></trkpt><trkpt lat="44.1985517" lon="11.656545"><ele>289.0</ele><time>2026-04-11T11:34:19.124Z</time></trkpt><trkpt lat="44.1984317" lon="11.6565217"><ele>289.0</ele><time>2026-04-11T11:34:20.124Z</time></trkpt><trkpt lat="44.1982983" lon="11.6564983"><ele>289.0</ele><time>2026-04-11T11:34:21.123Z</time></trkpt><trkpt lat="44.1981583" lon="11.6564683"><ele>289.0</ele><time>2026-04-11T11:34:22.124Z</time></trkpt><trkpt lat="44.19801" lon="11.6564233"><ele>288.0</ele><time>2026-04-11T11:34:23.123Z</time></trkpt><trkpt lat="44.197865" lon="11.6563883"><ele>287.0</ele><time>2026-04-11T11:34:24.124Z</time></trkpt><trkpt lat="44.1977267" lon="11.6563767"><ele>286.0</ele><time>2026-04-11T11:34:25.124Z</time></trkpt><trkpt lat="44.1975817" lon="11.656385"><ele>285.0</ele><time>2026-04-11T11:34:26.124Z</time></trkpt><trkpt lat="44.197425" lon="11.6563767"><ele>284.0</ele><time>2026-04-11T11:34:27.123Z</time></trkpt><trkpt lat="44.1972783" lon="11.656345"><ele>283.0</ele><time>2026-04-11T11:34:28.124Z</time></trkpt><trkpt lat="44.1971333" lon="11.65629"><ele>282.0</ele><time>2026-04-11T11:34:29.125Z</time></trkpt><trkpt lat="44.19699" lon="11.6562067"><ele>282.0</ele><time>2026-04-11T11:34:30.125Z</time></trkpt><trkpt lat="44.1968433" lon="11.6561267"><ele>282.0</ele><time>2026-04-11T11:34:31.124Z</time></trkpt><trkpt lat="44.1966933" lon="11.6560433"><ele>282.0</ele><time>2026-04-11T11:34:32.124Z</time></trkpt><trkpt lat="44.1965417" lon="11.6559517"><ele>283.0</ele><time>2026-04-11T11:34:33.125Z</time></trkpt><trkpt lat="44.19639" lon="11.6558517"><ele>284.0</ele><time>2026-04-11T11:34:34.125Z</time></trkpt><trkpt lat="44.1962417" lon="11.6557467"><ele>285.0</ele><time>2026-04-11T11:34:35.124Z</time></trkpt><trkpt lat="44.196095" lon="11.6556433"><ele>285.0</ele><time>2026-04-11T11:34:36.124Z</time></trkpt><trkpt lat="44.195965" lon="11.65555"><ele>285.0</ele><time>2026-04-11T11:34:37.124Z</time></trkpt><trkpt lat="44.1958517" lon="11.655455"><ele>285.0</ele><time>2026-04-11T11:34:38.124Z</time></trkpt><trkpt lat="44.1957533" lon="11.6553467"><ele>285.0</ele><time>2026-04-11T11:34:39.124Z</time></trkpt><trkpt lat="44.1956633" lon="11.6552133"><ele>284.25</ele><time>2026-04-11T11:34:40.124Z</time></trkpt><trkpt lat="44.1955833" lon="11.655055"><ele>283.5</ele><time>2026-04-11T11:34:41.123Z</time></trkpt><trkpt lat="44.1955017" lon="11.6548817"><ele>282.75</ele><time>2026-04-11T11:34:42.124Z</time></trkpt><trkpt lat="44.195425" lon="11.6547"><ele>282.0</ele><time>2026-04-11T11:34:43.124Z</time></trkpt><trkpt lat="44.195345" lon="11.6545217"><ele>288.0</ele><time>2026-04-11T11:34:44.124Z</time></trkpt><trkpt lat="44.1952633" lon="11.6543417"><ele>294.0</ele><time>2026-04-11T11:34:45.124Z</time></trkpt><trkpt lat="44.1951583" lon="11.6541767"><ele>300.0</ele><time>2026-04-11T11:34:46.124Z</time></trkpt><trkpt lat="44.1950417" lon="11.6540317"><ele>300.0</ele><time>2026-04-11T11:34:47.124Z</time></trkpt><trkpt lat="44.1949083" lon="11.6539067"><ele>300.0</ele><time>2026-04-11T11:34:48.123Z</time></trkpt><trkpt lat="44.1947717" lon="11.6537933"><ele>300.0</ele><time>2026-04-11T11:34:49.124Z</time></trkpt><trkpt lat="44.19463" lon="11.6536817"><ele>301.6666666666667</ele><time>2026-04-11T11:34:50.124Z</time></trkpt><trkpt lat="44.1944867" lon="11.653575"><ele>303.33333333333337</ele><time>2026-04-11T11:34:51.123Z</time></trkpt><trkpt lat="44.1943433" lon="11.6534717"><ele>305.0</ele><time>2026-04-11T11:34:52.124Z</time></trkpt><trkpt lat="44.1941983" lon="11.65337"><ele>305.0</ele><time>2026-04-11T11:34:53.125Z</time></trkpt><trkpt lat="44.1940417" lon="11.6532767"><ele>305.0</ele><time>2026-04-11T11:34:54.124Z</time></trkpt><trkpt lat="44.193885" lon="11.653195"><ele>305.0</ele><time>2026-04-11T11:34:55.124Z</time></trkpt><trkpt lat="44.19373" lon="11.6531183"><ele>301.25</ele><time>2026-04-11T11:34:56.124Z</time></trkpt><trkpt lat="44.1935817" lon="11.6530533"><ele>297.5</ele><time>2026-04-11T11:34:57.128Z</time></trkpt><trkpt lat="44.1934383" lon="11.6529933"><ele>293.75</ele><time>2026-04-11T11:34:58.125Z</time></trkpt><trkpt lat="44.1933133" lon="11.6529017"><ele>290.0</ele><time>2026-04-11T11:34:59.124Z</time></trkpt><trkpt lat="44.1931917" lon="11.65279"><ele>289.6666666666667</ele><time>2026-04-11T11:35:00.123Z</time></trkpt><trkpt lat="44.1930617" lon="11.6526667"><ele>289.3333333333333</ele><time>2026-04-11T11:35:01.124Z</time></trkpt><trkpt lat="44.1929333" lon="11.65253"><ele>289.0</ele><time>2026-04-11T11:35:02.123Z</time></trkpt><trkpt lat="44.1928183" lon="11.6523883"><ele>289.0</ele><time>2026-04-11T11:35:03.123Z</time></trkpt><trkpt lat="44.1927233" lon="11.652265"><ele>289.0</ele><time>2026-04-11T11:35:04.123Z</time></trkpt><trkpt lat="44.19266" lon="11.6521467"><ele>289.0</ele><time>2026-04-11T11:35:05.124Z</time></trkpt><trkpt lat="44.1926283" lon="11.6520217"><ele>289.0</ele><time>2026-04-11T11:35:06.124Z</time></trkpt><trkpt lat="44.1926333" lon="11.6518933"><ele>289.0</ele><time>2026-04-11T11:35:07.122Z</time></trkpt><trkpt lat="44.1926683" lon="11.6517583"><ele>289.5</ele><time>2026-04-11T11:35:08.124Z</time></trkpt><trkpt lat="44.1926883" lon="11.6516167"><ele>290.0</ele><time>2026-04-11T11:35:09.123Z</time></trkpt><trkpt lat="44.1926917" lon="11.6514633"><ele>290.5</ele><time>2026-04-11T11:35:10.124Z</time></trkpt><trkpt lat="44.1926717" lon="11.6513"><ele>291.0</ele><time>2026-04-11T11:35:11.123Z</time></trkpt><trkpt lat="44.1926383" lon="11.6511283"><ele>292.25</ele><time>2026-04-11T11:35:12.123Z</time></trkpt><trkpt lat="44.192595" lon="11.650955"><ele>293.5</ele><time>2026-04-11T11:35:13.124Z</time></trkpt><trkpt lat="44.1925533" lon="11.650795"><ele>294.75</ele><time>2026-04-11T11:35:14.125Z</time></trkpt><trkpt lat="44.1925117" lon="11.65065"><ele>296.0</ele><time>2026-04-11T11:35:15.124Z</time></trkpt><trkpt lat="44.192455" lon="11.6505317"><ele>296.0</ele><time>2026-04-11T11:35:16.124Z</time></trkpt><trkpt lat="44.1923783" lon="11.6504367"><ele>296.0</ele><time>2026-04-11T11:35:17.123Z</time></trkpt><trkpt lat="44.1922849" lon="11.650354"><ele>296.0</ele><time>2026-04-11T11:35:18.123Z</time></trkpt><trkpt lat="44.192184" lon="11.6502793"><ele>296.0</ele><time>2026-04-11T11:35:19.123Z</time></trkpt><trkpt lat="44.1920712" lon="11.6502068"><ele>297.0</ele><time>2026-04-11T11:35:20.124Z</time></trkpt><trkpt lat="44.1919489" lon="11.6501326"><ele>298.0</ele><time>2026-04-11T11:35:21.124Z</time></trkpt><trkpt lat="44.1918174" lon="11.6500523"><ele>299.0</ele><time>2026-04-11T11:35:22.124Z</time></trkpt><trkpt lat="44.1916822" lon="11.6499623"><ele>300.0</ele><time>2026-04-11T11:35:23.124Z</time></trkpt><trkpt lat="44.191546" lon="11.6498633"><ele>300.0</ele><time>2026-04-11T11:35:24.124Z</time></trkpt><trkpt lat="44.1914099" lon="11.6497613"><ele>300.0</ele><time>2026-04-11T11:35:25.125Z</time></trkpt><trkpt lat="44.1912713" lon="11.6496668"><ele>300.0</ele><time>2026-04-11T11:35:26.124Z</time></trkpt><trkpt lat="44.1911299" lon="11.6495813"><ele>300.0</ele><time>2026-04-11T11:35:27.124Z</time></trkpt><trkpt lat="44.1909834" lon="11.6495092"><ele>300.0</ele><time>2026-04-11T11:35:28.124Z</time></trkpt><trkpt lat="44.1908258" lon="11.6494663"><ele>300.0</ele><time>2026-04-11T11:35:29.123Z</time></trkpt><trkpt lat="44.1906621" lon="11.6494632"><ele>301.3333333333333</ele><time>2026-04-11T11:35:30.123Z</time></trkpt><trkpt lat="44.1904956" lon="11.6494811"><ele>302.66666666666663</ele><time>2026-04-11T11:35:31.125Z</time></trkpt><trkpt lat="44.1903305" lon="11.649506"><ele>304.0</ele><time>2026-04-11T11:35:32.123Z</time></trkpt><trkpt lat="44.1901682" lon="11.6495208"><ele>304.0</ele><time>2026-04-11T11:35:33.124Z</time></trkpt><trkpt lat="44.1900056" lon="11.6495211"><ele>304.0</ele><time>2026-04-11T11:35:34.123Z</time></trkpt><trkpt lat="44.1898391" lon="11.6495021"><ele>304.0</ele><time>2026-04-11T11:35:35.123Z</time></trkpt><trkpt lat="44.1896707" lon="11.6494834"><ele>305.0</ele><time>2026-04-11T11:35:36.124Z</time></trkpt><trkpt lat="44.1895027" lon="11.6494729"><ele>306.0</ele><time>2026-04-11T11:35:37.124Z</time></trkpt><trkpt lat="44.1893347" lon="11.6494804"><ele>307.0</ele><time>2026-04-11T11:35:38.124Z</time></trkpt><trkpt lat="44.1891722" lon="11.649507"><ele>307.0</ele><time>2026-04-11T11:35:39.123Z</time></trkpt><trkpt lat="44.1890128" lon="11.6495317"><ele>307.0</ele><time>2026-04-11T11:35:40.123Z</time></trkpt><trkpt lat="44.1888496" lon="11.649538"><ele>307.0</ele><time>2026-04-11T11:35:41.123Z</time></trkpt><trkpt lat="44.1886818" lon="11.6495125"><ele>307.3333333333333</ele><time>2026-04-11T11:35:42.123Z</time></trkpt><trkpt lat="44.1885098" lon="11.6494787"><ele>307.6666666666667</ele><time>2026-04-11T11:35:43.125Z</time></trkpt><trkpt lat="44.1883381" lon="11.6494493"><ele>308.0</ele><time>2026-04-11T11:35:44.124Z</time></trkpt><trkpt lat="44.1881679" lon="11.6494231"><ele>313.6666666666667</ele><time>2026-04-11T11:35:45.124Z</time></trkpt><trkpt lat="44.1880001" lon="11.6494036"><ele>319.3333333333333</ele><time>2026-04-11T11:35:46.124Z</time></trkpt><trkpt lat="44.1878421" lon="11.6493918"><ele>325.0</ele><time>2026-04-11T11:35:47.124Z</time></trkpt><trkpt lat="44.1876998" lon="11.6493816"><ele>325.0</ele><time>2026-04-11T11:35:48.124Z</time></trkpt><trkpt lat="44.1875739" lon="11.649358"><ele>325.0</ele><time>2026-04-11T11:35:49.123Z</time></trkpt><trkpt lat="44.1874671" lon="11.6493093"><ele>325.0</ele><time>2026-04-11T11:35:50.124Z</time></trkpt><trkpt lat="44.1873867" lon="11.6492088"><ele>325.0</ele><time>2026-04-11T11:35:51.124Z</time></trkpt><trkpt lat="44.1873085" lon="11.6490942"><ele>324.8</ele><time>2026-04-11T11:35:52.123Z</time></trkpt><trkpt lat="44.1872458" lon="11.6489546"><ele>324.6</ele><time>2026-04-11T11:35:53.124Z</time></trkpt><trkpt lat="44.1871948" lon="11.6488351"><ele>324.4</ele><time>2026-04-11T11:35:54.123Z</time></trkpt><trkpt lat="44.1871634" lon="11.6487287"><ele>324.2</ele><time>2026-04-11T11:35:55.123Z</time></trkpt><trkpt lat="44.1871546" lon="11.6486146"><ele>324.0</ele><time>2026-04-11T11:35:56.123Z</time></trkpt><trkpt lat="44.1871582" lon="11.6484791"><ele>324.0</ele><time>2026-04-11T11:35:57.124Z</time></trkpt><trkpt lat="44.1871252" lon="11.6483653"><ele>324.0</ele><time>2026-04-11T11:35:58.123Z</time></trkpt><trkpt lat="44.1870685" lon="11.6482967"><ele>324.0</ele><time>2026-04-11T11:35:59.124Z</time></trkpt><trkpt lat="44.1869511" lon="11.6482966"><ele>324.0</ele><time>2026-04-11T11:36:01.124Z</time></trkpt><trkpt lat="44.1868505" lon="11.6483143"><ele>324.0</ele><time>2026-04-11T11:36:02.124Z</time></trkpt><trkpt lat="44.1867001" lon="11.6483131"><ele>324.0</ele><time>2026-04-11T11:36:03.124Z</time></trkpt><trkpt lat="44.1865133" lon="11.6482867"><ele>324.0</ele><time>2026-04-11T11:36:04.123Z</time></trkpt><trkpt lat="44.1863467" lon="11.648245"><ele>324.0</ele><time>2026-04-11T11:36:05.124Z</time></trkpt><trkpt lat="44.186185" lon="11.6481817"><ele>320.3333333333333</ele><time>2026-04-11T11:36:06.124Z</time></trkpt><trkpt lat="44.18604" lon="11.6480883"><ele>316.66666666666663</ele><time>2026-04-11T11:36:07.123Z</time></trkpt><trkpt lat="44.1859" lon="11.647975"><ele>313.0</ele><time>2026-04-11T11:36:08.124Z</time></trkpt><trkpt lat="44.1857583" lon="11.64786"><ele>314.5</ele><time>2026-04-11T11:36:09.124Z</time></trkpt><trkpt lat="44.1856217" lon="11.647745"><ele>316.0</ele><time>2026-04-11T11:36:10.124Z</time></trkpt><trkpt lat="44.1855067" lon="11.64763"><ele>317.5</ele><time>2026-04-11T11:36:11.124Z</time></trkpt><trkpt lat="44.1854317" lon="11.6475"><ele>319.0</ele><time>2026-04-11T11:36:12.123Z</time></trkpt><trkpt lat="44.1853883" lon="11.647345"><ele>319.0</ele><time>2026-04-11T11:36:13.124Z</time></trkpt><trkpt lat="44.1853517" lon="11.6471633"><ele>319.0</ele><time>2026-04-11T11:36:14.124Z</time></trkpt><trkpt lat="44.1853167" lon="11.6469683"><ele>319.0</ele><time>2026-04-11T11:36:15.129Z</time></trkpt><trkpt lat="44.1852767" lon="11.6467783"><ele>319.0</ele><time>2026-04-11T11:36:16.123Z</time></trkpt><trkpt lat="44.1852133" lon="11.6466067"><ele>321.5</ele><time>2026-04-11T11:36:17.125Z</time></trkpt><trkpt lat="44.185125" lon="11.6464517"><ele>324.0</ele><time>2026-04-11T11:36:18.124Z</time></trkpt><trkpt lat="44.1850183" lon="11.646295"><ele>326.5</ele><time>2026-04-11T11:36:19.124Z</time></trkpt><trkpt lat="44.18492" lon="11.6461383"><ele>329.0</ele><time>2026-04-11T11:36:20.124Z</time></trkpt><trkpt lat="44.1848267" lon="11.6459617"><ele>329.0</ele><time>2026-04-11T11:36:21.124Z</time></trkpt><trkpt lat="44.184735" lon="11.64578"><ele>329.0</ele><time>2026-04-11T11:36:22.124Z</time></trkpt><trkpt lat="44.1846283" lon="11.6456133"><ele>329.0</ele><time>2026-04-11T11:36:23.123Z</time></trkpt><trkpt lat="44.184515" lon="11.6454583"><ele>329.0</ele><time>2026-04-11T11:36:24.124Z</time></trkpt><trkpt lat="44.1844017" lon="11.64532"><ele>329.0</ele><time>2026-04-11T11:36:25.125Z</time></trkpt><trkpt lat="44.1842817" lon="11.6451883"><ele>329.0</ele><time>2026-04-11T11:36:26.124Z</time></trkpt><trkpt lat="44.1841417" lon="11.64508"><ele>335.33333333333337</ele><time>2026-04-11T11:36:27.124Z</time></trkpt><trkpt lat="44.18399" lon="11.6449883"><ele>341.6666666666667</ele><time>2026-04-11T11:36:28.124Z</time></trkpt><trkpt lat="44.18384" lon="11.6449017"><ele>348.0</ele><time>2026-04-11T11:36:29.124Z</time></trkpt><trkpt lat="44.1836817" lon="11.6448217"><ele>348.0</ele><time>2026-04-11T11:36:30.123Z</time></trkpt><trkpt lat="44.18352" lon="11.6447483"><ele>348.0</ele><time>2026-04-11T11:36:31.124Z</time></trkpt><trkpt lat="44.1833517" lon="11.644675"><ele>348.0</ele><time>2026-04-11T11:36:32.123Z</time></trkpt><trkpt lat="44.1831933" lon="11.6445917"><ele>347.3333333333333</ele><time>2026-04-11T11:36:33.124Z</time></trkpt><trkpt lat="44.1830317" lon="11.6445117"><ele>346.66666666666663</ele><time>2026-04-11T11:36:34.126Z</time></trkpt><trkpt lat="44.1828683" lon="11.6444467"><ele>346.0</ele><time>2026-04-11T11:36:35.123Z</time></trkpt><trkpt lat="44.1827117" lon="11.64441"><ele>349.0</ele><time>2026-04-11T11:36:36.127Z</time></trkpt><trkpt lat="44.1825717" lon="11.6444067"><ele>352.0</ele><time>2026-04-11T11:36:37.124Z</time></trkpt><trkpt lat="44.1824683" lon="11.6444033"><ele>355.0</ele><time>2026-04-11T11:36:38.124Z</time></trkpt><trkpt lat="44.1823933" lon="11.64438"><ele>358.0</ele><time>2026-04-11T11:36:39.124Z</time></trkpt><trkpt lat="44.1824317" lon="11.64425"><ele>361.0</ele><time>2026-04-11T11:36:42.124Z</time></trkpt><trkpt lat="44.1825017" lon="11.644145"><ele>361.0</ele><time>2026-04-11T11:36:43.123Z</time></trkpt><trkpt lat="44.1826067" lon="11.64403"><ele>361.0</ele><time>2026-04-11T11:36:44.123Z</time></trkpt><trkpt lat="44.1827383" lon="11.64391"><ele>361.0</ele><time>2026-04-11T11:36:45.125Z</time></trkpt><trkpt lat="44.1828767" lon="11.64379"><ele>361.0</ele><time>2026-04-11T11:36:46.124Z</time></trkpt><trkpt lat="44.182995" lon="11.6436917"><ele>361.0</ele><time>2026-04-11T11:36:47.124Z</time></trkpt><trkpt lat="44.183075" lon="11.643615"><ele>361.0</ele><time>2026-04-11T11:36:48.122Z</time></trkpt><trkpt lat="44.1831267" lon="11.64354"><ele>361.0</ele><time>2026-04-11T11:36:49.124Z</time></trkpt><trkpt lat="44.1831417" lon="11.64342"><ele>361.0</ele><time>2026-04-11T11:36:51.125Z</time></trkpt><trkpt lat="44.1830917" lon="11.64326"><ele>365.25</ele><time>2026-04-11T11:36:53.122Z</time></trkpt><trkpt lat="44.1830083" lon="11.643215"><ele>369.5</ele><time>2026-04-11T11:36:54.124Z</time></trkpt><trkpt lat="44.182895" lon="11.6432117"><ele>373.75</ele><time>2026-04-11T11:36:55.123Z</time></trkpt><trkpt lat="44.1827683" lon="11.6432517"><ele>378.0</ele><time>2026-04-11T11:36:56.123Z</time></trkpt><trkpt lat="44.18264" lon="11.64332"><ele>378.0</ele><time>2026-04-11T11:36:57.124Z</time></trkpt><trkpt lat="44.1825067" lon="11.6434083"><ele>378.0</ele><time>2026-04-11T11:36:58.124Z</time></trkpt><trkpt lat="44.1823617" lon="11.64348"><ele>378.0</ele><time>2026-04-11T11:36:59.123Z</time></trkpt><trkpt lat="44.1822067" lon="11.6435317"><ele>378.6666666666667</ele><time>2026-04-11T11:37:00.123Z</time></trkpt><trkpt lat="44.18205" lon="11.643565"><ele>379.33333333333337</ele><time>2026-04-11T11:37:01.123Z</time></trkpt><trkpt lat="44.1818883" lon="11.6435967"><ele>380.0</ele><time>2026-04-11T11:37:02.123Z</time></trkpt><trkpt lat="44.181725" lon="11.6436267"><ele>374.0</ele><time>2026-04-11T11:37:03.124Z</time></trkpt><trkpt lat="44.1815717" lon="11.6436467"><ele>368.0</ele><time>2026-04-11T11:37:04.124Z</time></trkpt><trkpt lat="44.181455" lon="11.6436433"><ele>362.0</ele><time>2026-04-11T11:37:05.123Z</time></trkpt><trkpt lat="44.1813617" lon="11.6436017"><ele>356.0</ele><time>2026-04-11T11:37:06.124Z</time></trkpt><trkpt lat="44.181265" lon="11.6435317"><ele>356.0</ele><time>2026-04-11T11:37:07.124Z</time></trkpt><trkpt lat="44.1811517" lon="11.6434433"><ele>356.0</ele><time>2026-04-11T11:37:08.124Z</time></trkpt><trkpt lat="44.1810483" lon="11.6433433"><ele>356.0</ele><time>2026-04-11T11:37:09.124Z</time></trkpt><trkpt lat="44.1809783" lon="11.643225"><ele>356.0</ele><time>2026-04-11T11:37:10.123Z</time></trkpt><trkpt lat="44.1809433" lon="11.6431"><ele>356.0</ele><time>2026-04-11T11:37:11.124Z</time></trkpt><trkpt lat="44.18095" lon="11.64297"><ele>356.0</ele><time>2026-04-11T11:37:12.124Z</time></trkpt><trkpt lat="44.1809883" lon="11.6428333"><ele>356.0</ele><time>2026-04-11T11:37:13.124Z</time></trkpt><trkpt lat="44.181055" lon="11.6426817"><ele>356.0</ele><time>2026-04-11T11:37:14.124Z</time></trkpt><trkpt lat="44.1811217" lon="11.6425133"><ele>356.0</ele><time>2026-04-11T11:37:15.125Z</time></trkpt><trkpt lat="44.18119" lon="11.6423183"><ele>356.0</ele><time>2026-04-11T11:37:16.124Z</time></trkpt><trkpt lat="44.18125" lon="11.6421083"><ele>356.0</ele><time>2026-04-11T11:37:17.123Z</time></trkpt><trkpt lat="44.1812933" lon="11.641875"><ele>352.6666666666667</ele><time>2026-04-11T11:37:18.124Z</time></trkpt><trkpt lat="44.18133" lon="11.6416317"><ele>349.3333333333333</ele><time>2026-04-11T11:37:19.124Z</time></trkpt><trkpt lat="44.18136" lon="11.641395"><ele>346.0</ele><time>2026-04-11T11:37:20.124Z</time></trkpt><trkpt lat="44.1813817" lon="11.6411917"><ele>345.75</ele><time>2026-04-11T11:37:21.124Z</time></trkpt><trkpt lat="44.1813917" lon="11.6410133"><ele>345.5</ele><time>2026-04-11T11:37:22.123Z</time></trkpt><trkpt lat="44.1813767" lon="11.6408417"><ele>345.25</ele><time>2026-04-11T11:37:23.124Z</time></trkpt><trkpt lat="44.1813317" lon="11.6406667"><ele>345.0</ele><time>2026-04-11T11:37:24.124Z</time></trkpt><trkpt lat="44.18126" lon="11.6404933"><ele>345.0</ele><time>2026-04-11T11:37:25.123Z</time></trkpt><trkpt lat="44.181175" lon="11.6403233"><ele>345.0</ele><time>2026-04-11T11:37:26.124Z</time></trkpt><trkpt lat="44.1810833" lon="11.6401867"><ele>345.0</ele><time>2026-04-11T11:37:27.125Z</time></trkpt><trkpt lat="44.1809733" lon="11.6400817"><ele>345.0</ele><time>2026-04-11T11:37:28.124Z</time></trkpt><trkpt lat="44.1808467" lon="11.6399833"><ele>346.3333333333333</ele><time>2026-04-11T11:37:29.124Z</time></trkpt><trkpt lat="44.1807017" lon="11.6398767"><ele>347.66666666666663</ele><time>2026-04-11T11:37:30.124Z</time></trkpt><trkpt lat="44.1805633" lon="11.6397517"><ele>349.0</ele><time>2026-04-11T11:37:31.124Z</time></trkpt><trkpt lat="44.1804267" lon="11.6396217"><ele>349.0</ele><time>2026-04-11T11:37:32.125Z</time></trkpt><trkpt lat="44.1802967" lon="11.6395117"><ele>349.0</ele><time>2026-04-11T11:37:33.125Z</time></trkpt><trkpt lat="44.18015" lon="11.63944"><ele>349.0</ele><time>2026-04-11T11:37:34.126Z</time></trkpt><trkpt lat="44.17998" lon="11.6393883"><ele>355.66666666666663</ele><time>2026-04-11T11:37:35.125Z</time></trkpt><trkpt lat="44.1798" lon="11.63936"><ele>362.3333333333333</ele><time>2026-04-11T11:37:36.123Z</time></trkpt><trkpt lat="44.1796117" lon="11.6393417"><ele>369.0</ele><time>2026-04-11T11:37:37.124Z</time></trkpt><trkpt lat="44.1794117" lon="11.639325"><ele>369.0</ele><time>2026-04-11T11:37:38.124Z</time></trkpt><trkpt lat="44.17921" lon="11.6393083"><ele>369.0</ele><time>2026-04-11T11:37:39.123Z</time></trkpt><trkpt lat="44.1790267" lon="11.6392883"><ele>369.0</ele><time>2026-04-11T11:37:40.124Z</time></trkpt><trkpt lat="44.1788467" lon="11.6392583"><ele>369.3333333333333</ele><time>2026-04-11T11:37:41.122Z</time></trkpt><trkpt lat="44.1786633" lon="11.6392167"><ele>369.66666666666663</ele><time>2026-04-11T11:37:42.124Z</time></trkpt><trkpt lat="44.1784883" lon="11.6391517"><ele>370.0</ele><time>2026-04-11T11:37:43.124Z</time></trkpt><trkpt lat="44.1783267" lon="11.6390967"><ele>372.3333333333333</ele><time>2026-04-11T11:37:44.124Z</time></trkpt><trkpt lat="44.17816" lon="11.6390767"><ele>374.6666666666667</ele><time>2026-04-11T11:37:45.124Z</time></trkpt><trkpt lat="44.177975" lon="11.6390833"><ele>377.0</ele><time>2026-04-11T11:37:46.127Z</time></trkpt><trkpt lat="44.17778" lon="11.6391033"><ele>377.0</ele><time>2026-04-11T11:37:47.123Z</time></trkpt><trkpt lat="44.1775817" lon="11.6391233"><ele>377.0</ele><time>2026-04-11T11:37:48.123Z</time></trkpt><trkpt lat="44.1773767" lon="11.639135"><ele>377.0</ele><time>2026-04-11T11:37:49.123Z</time></trkpt><trkpt lat="44.1771667" lon="11.6391383"><ele>379.0</ele><time>2026-04-11T11:37:50.124Z</time></trkpt><trkpt lat="44.1769583" lon="11.6391583"><ele>381.0</ele><time>2026-04-11T11:37:51.123Z</time></trkpt><trkpt lat="44.17676" lon="11.6391817"><ele>383.0</ele><time>2026-04-11T11:37:52.125Z</time></trkpt><trkpt lat="44.1765633" lon="11.6392017"><ele>381.6666666666667</ele><time>2026-04-11T11:37:53.124Z</time></trkpt><trkpt lat="44.1763767" lon="11.63921"><ele>380.3333333333333</ele><time>2026-04-11T11:37:54.124Z</time></trkpt><trkpt lat="44.1762033" lon="11.6392033"><ele>379.0</ele><time>2026-04-11T11:37:55.124Z</time></trkpt><trkpt lat="44.176035" lon="11.63917"><ele>379.0</ele><time>2026-04-11T11:37:56.123Z</time></trkpt><trkpt lat="44.17587" lon="11.63911"><ele>379.0</ele><time>2026-04-11T11:37:57.124Z</time></trkpt><trkpt lat="44.1757017" lon="11.6390183"><ele>379.0</ele><time>2026-04-11T11:37:58.124Z</time></trkpt><trkpt lat="44.17553" lon="11.638905"><ele>380.3333333333333</ele><time>2026-04-11T11:37:59.122Z</time></trkpt><trkpt lat="44.1753633" lon="11.6387783"><ele>381.6666666666667</ele><time>2026-04-11T11:38:00.124Z</time></trkpt><trkpt lat="44.17521" lon="11.63864"><ele>383.0</ele><time>2026-04-11T11:38:01.123Z</time></trkpt><trkpt lat="44.17506" lon="11.6384983"><ele>383.0</ele><time>2026-04-11T11:38:02.124Z</time></trkpt><trkpt lat="44.1749233" lon="11.6383483"><ele>383.0</ele><time>2026-04-11T11:38:03.123Z</time></trkpt><trkpt lat="44.174815" lon="11.6382167"><ele>383.0</ele><time>2026-04-11T11:38:04.123Z</time></trkpt><trkpt lat="44.174735" lon="11.638105"><ele>383.0</ele><time>2026-04-11T11:38:05.123Z</time></trkpt><trkpt lat="44.1746833" lon="11.6379983"><ele>383.2</ele><time>2026-04-11T11:38:06.124Z</time></trkpt><trkpt lat="44.1746733" lon="11.6378883"><ele>383.4</ele><time>2026-04-11T11:38:07.124Z</time></trkpt><trkpt lat="44.1747033" lon="11.6377883"><ele>383.59999999999997</ele><time>2026-04-11T11:38:08.124Z</time></trkpt><trkpt lat="44.1747567" lon="11.6376917"><ele>383.79999999999995</ele><time>2026-04-11T11:38:09.124Z</time></trkpt><trkpt lat="44.17484" lon="11.637585"><ele>384.0</ele><time>2026-04-11T11:38:10.123Z</time></trkpt><trkpt lat="44.1749417" lon="11.63748"><ele>384.0</ele><time>2026-04-11T11:38:11.123Z</time></trkpt><trkpt lat="44.17502" lon="11.637395"><ele>384.0</ele><time>2026-04-11T11:38:12.124Z</time></trkpt><trkpt lat="44.17507" lon="11.63731"><ele>384.0</ele><time>2026-04-11T11:38:13.124Z</time></trkpt><trkpt lat="44.175095" lon="11.6372133"><ele>384.0</ele><time>2026-04-11T11:38:14.123Z</time></trkpt><trkpt lat="44.1751067" lon="11.6370983"><ele>384.0</ele><time>2026-04-11T11:38:15.124Z</time></trkpt><trkpt lat="44.1750617" lon="11.6369517"><ele>384.0</ele><time>2026-04-11T11:38:16.123Z</time></trkpt><trkpt lat="44.174995" lon="11.63681"><ele>385.66666666666663</ele><time>2026-04-11T11:38:17.124Z</time></trkpt><trkpt lat="44.1748883" lon="11.6366733"><ele>387.3333333333333</ele><time>2026-04-11T11:38:18.123Z</time></trkpt><trkpt lat="44.17478" lon="11.6365183"><ele>389.0</ele><time>2026-04-11T11:38:19.123Z</time></trkpt><trkpt lat="44.1746817" lon="11.6363383"><ele>386.3333333333333</ele><time>2026-04-11T11:38:20.123Z</time></trkpt><trkpt lat="44.1745817" lon="11.6361433"><ele>383.66666666666663</ele><time>2026-04-11T11:38:21.123Z</time></trkpt><trkpt lat="44.1744767" lon="11.6359433"><ele>381.0</ele><time>2026-04-11T11:38:22.124Z</time></trkpt><trkpt lat="44.174365" lon="11.635735"><ele>381.0</ele><time>2026-04-11T11:38:23.124Z</time></trkpt><trkpt lat="44.1742467" lon="11.63552"><ele>381.0</ele><time>2026-04-11T11:38:24.125Z</time></trkpt><trkpt lat="44.1741167" lon="11.63531"><ele>381.0</ele><time>2026-04-11T11:38:25.123Z</time></trkpt><trkpt lat="44.1739783" lon="11.6351083"><ele>379.3333333333333</ele><time>2026-04-11T11:38:26.123Z</time></trkpt><trkpt lat="44.17384" lon="11.6349117"><ele>377.66666666666663</ele><time>2026-04-11T11:38:27.124Z</time></trkpt><trkpt lat="44.1737217" lon="11.6347033"><ele>376.0</ele><time>2026-04-11T11:38:28.126Z</time></trkpt><trkpt lat="44.17363" lon="11.634495"><ele>379.75</ele><time>2026-04-11T11:38:29.124Z</time></trkpt><trkpt lat="44.1735467" lon="11.6343033"><ele>383.5</ele><time>2026-04-11T11:38:30.124Z</time></trkpt><trkpt lat="44.1734633" lon="11.63414"><ele>387.25</ele><time>2026-04-11T11:38:31.124Z</time></trkpt><trkpt lat="44.1733583" lon="11.6340017"><ele>391.0</ele><time>2026-04-11T11:38:32.124Z</time></trkpt><trkpt lat="44.1732383" lon="11.6338733"><ele>391.0</ele><time>2026-04-11T11:38:33.125Z</time></trkpt><trkpt lat="44.1731217" lon="11.6337483"><ele>391.0</ele><time>2026-04-11T11:38:34.123Z</time></trkpt><trkpt lat="44.1730133" lon="11.6336067"><ele>391.0</ele><time>2026-04-11T11:38:35.123Z</time></trkpt><trkpt lat="44.1729233" lon="11.6334567"><ele>391.0</ele><time>2026-04-11T11:38:36.123Z</time></trkpt><trkpt lat="44.1728433" lon="11.6332833"><ele>391.0</ele><time>2026-04-11T11:38:37.124Z</time></trkpt><trkpt lat="44.172755" lon="11.6331117"><ele>391.0</ele><time>2026-04-11T11:38:38.123Z</time></trkpt><trkpt lat="44.1726517" lon="11.6329567"><ele>391.0</ele><time>2026-04-11T11:38:39.124Z</time></trkpt><trkpt lat="44.1725233" lon="11.632845"><ele>394.33333333333337</ele><time>2026-04-11T11:38:40.123Z</time></trkpt><trkpt lat="44.1723767" lon="11.6327683"><ele>397.66666666666663</ele><time>2026-04-11T11:38:41.123Z</time></trkpt><trkpt lat="44.1722217" lon="11.6327"><ele>401.0</ele><time>2026-04-11T11:38:42.124Z</time></trkpt><trkpt lat="44.172065" lon="11.6326233"><ele>401.0</ele><time>2026-04-11T11:38:43.124Z</time></trkpt><trkpt lat="44.1719133" lon="11.6325333"><ele>401.0</ele><time>2026-04-11T11:38:44.124Z</time></trkpt><trkpt lat="44.1717683" lon="11.6324317"><ele>401.0</ele><time>2026-04-11T11:38:45.123Z</time></trkpt><trkpt lat="44.1716283" lon="11.6323067"><ele>400.0</ele><time>2026-04-11T11:38:46.123Z</time></trkpt><trkpt lat="44.171475" lon="11.632215"><ele>399.0</ele><time>2026-04-11T11:38:47.124Z</time></trkpt><trkpt lat="44.1713167" lon="11.6321567"><ele>398.0</ele><time>2026-04-11T11:38:48.124Z</time></trkpt><trkpt lat="44.1711517" lon="11.63214"><ele>398.0</ele><time>2026-04-11T11:38:49.123Z</time></trkpt><trkpt lat="44.170995" lon="11.6321417"><ele>398.0</ele><time>2026-04-11T11:38:50.124Z</time></trkpt><trkpt lat="44.1708567" lon="11.6321483"><ele>398.0</ele><time>2026-04-11T11:38:51.123Z</time></trkpt><trkpt lat="44.1707433" lon="11.6321483"><ele>398.0</ele><time>2026-04-11T11:38:52.124Z</time></trkpt><trkpt lat="44.1706417" lon="11.6321433"><ele>398.49999999999994</ele><time>2026-04-11T11:38:53.124Z</time></trkpt><trkpt lat="44.1705417" lon="11.6321333"><ele>399.0</ele><time>2026-04-11T11:38:54.124Z</time></trkpt><trkpt lat="44.1704533" lon="11.632125"><ele>399.5</ele><time>2026-04-11T11:38:55.124Z</time></trkpt><trkpt lat="44.170375" lon="11.6321217"><ele>400.0</ele><time>2026-04-11T11:38:56.124Z</time></trkpt><trkpt lat="44.1703017" lon="11.6321267"><ele>400.49999999999994</ele><time>2026-04-11T11:38:57.124Z</time></trkpt><trkpt lat="44.1702367" lon="11.6321283"><ele>401.0</ele><time>2026-04-11T11:38:58.124Z</time></trkpt><trkpt lat="44.1701283" lon="11.632125"><ele>401.0</ele><time>2026-04-11T11:39:00.123Z</time></trkpt><trkpt lat="44.17005" lon="11.632125"><ele>401.0</ele><time>2026-04-11T11:39:02.124Z</time></trkpt><trkpt lat="44.1699433" lon="11.6320933"><ele>401.0</ele><time>2026-04-11T11:39:36.124Z</time></trkpt><trkpt lat="44.1698283" lon="11.6320967"><ele>401.0</ele><time>2026-04-11T11:39:38.125Z</time></trkpt><trkpt lat="44.1697433" lon="11.6321"><ele>401.0</ele><time>2026-04-11T11:39:39.125Z</time></trkpt><trkpt lat="44.1696583" lon="11.63209"><ele>400.8</ele><time>2026-04-11T11:39:40.125Z</time></trkpt><trkpt lat="44.16958" lon="11.632055"><ele>400.6</ele><time>2026-04-11T11:39:41.125Z</time></trkpt><trkpt lat="44.1695217" lon="11.6319983"><ele>400.4</ele><time>2026-04-11T11:39:42.123Z</time></trkpt><trkpt lat="44.1694717" lon="11.6318283"><ele>400.2</ele><time>2026-04-11T11:39:44.123Z</time></trkpt><trkpt lat="44.1694667" lon="11.6317133"><ele>400.0</ele><time>2026-04-11T11:39:45.124Z</time></trkpt><trkpt lat="44.1694617" lon="11.63158"><ele>400.0</ele><time>2026-04-11T11:39:46.124Z</time></trkpt><trkpt lat="44.1694567" lon="11.6314383"><ele>400.0</ele><time>2026-04-11T11:39:47.123Z</time></trkpt><trkpt lat="44.16945" lon="11.63128"><ele>400.0</ele><time>2026-04-11T11:39:48.123Z</time></trkpt><trkpt lat="44.1694517" lon="11.6311133"><ele>400.0</ele><time>2026-04-11T11:39:49.123Z</time></trkpt><trkpt lat="44.1694517" lon="11.630945"><ele>399.6</ele><time>2026-04-11T11:39:50.125Z</time></trkpt><trkpt lat="44.1694483" lon="11.6307867"><ele>399.2</ele><time>2026-04-11T11:39:51.124Z</time></trkpt><trkpt lat="44.16944" lon="11.63063"><ele>398.79999999999995</ele><time>2026-04-11T11:39:52.124Z</time></trkpt><trkpt lat="44.1694333" lon="11.6304967"><ele>398.4</ele><time>2026-04-11T11:39:53.123Z</time></trkpt><trkpt lat="44.16942" lon="11.63038"><ele>398.0</ele><time>2026-04-11T11:39:54.124Z</time></trkpt><trkpt lat="44.1693933" lon="11.6302667"><ele>399.79999999999995</ele><time>2026-04-11T11:39:55.124Z</time></trkpt><trkpt lat="44.16935" lon="11.6301617"><ele>401.6</ele><time>2026-04-11T11:39:56.123Z</time></trkpt><trkpt lat="44.1692833" lon="11.630095"><ele>403.4</ele><time>2026-04-11T11:39:57.124Z</time></trkpt><trkpt lat="44.1692017" lon="11.630055"><ele>405.20000000000005</ele><time>2026-04-11T11:39:58.124Z</time></trkpt><trkpt lat="44.1691133" lon="11.6300183"><ele>407.0</ele><time>2026-04-11T11:39:59.123Z</time></trkpt><trkpt lat="44.1690033" lon="11.62998"><ele>407.0</ele><time>2026-04-11T11:40:00.123Z</time></trkpt><trkpt lat="44.16889" lon="11.6299433"><ele>407.0</ele><time>2026-04-11T11:40:01.124Z</time></trkpt><trkpt lat="44.1687683" lon="11.6299233"><ele>407.0</ele><time>2026-04-11T11:40:02.123Z</time></trkpt><trkpt lat="44.1686317" lon="11.629925"><ele>407.0</ele><time>2026-04-11T11:40:03.124Z</time></trkpt><trkpt lat="44.1684917" lon="11.6299367"><ele>407.0</ele><time>2026-04-11T11:40:04.123Z</time></trkpt><trkpt lat="44.168355" lon="11.6299517"><ele>407.0</ele><time>2026-04-11T11:40:05.126Z</time></trkpt><trkpt lat="44.1682217" lon="11.6299683"><ele>407.0</ele><time>2026-04-11T11:40:06.122Z</time></trkpt><trkpt lat="44.1680883" lon="11.6299867"><ele>407.0</ele><time>2026-04-11T11:40:07.124Z</time></trkpt><trkpt lat="44.16796" lon="11.6299983"><ele>408.0</ele><time>2026-04-11T11:40:08.125Z</time></trkpt><trkpt lat="44.16783" lon="11.6299833"><ele>409.0</ele><time>2026-04-11T11:40:09.124Z</time></trkpt><trkpt lat="44.1676933" lon="11.629955"><ele>410.0</ele><time>2026-04-11T11:40:10.124Z</time></trkpt><trkpt lat="44.1675617" lon="11.6299267"><ele>411.0</ele><time>2026-04-11T11:40:11.123Z</time></trkpt><trkpt lat="44.1674333" lon="11.6299"><ele>412.6</ele><time>2026-04-11T11:40:12.123Z</time></trkpt><trkpt lat="44.1673133" lon="11.629865"><ele>414.20000000000005</ele><time>2026-04-11T11:40:13.123Z</time></trkpt><trkpt lat="44.1672067" lon="11.6298267"><ele>415.79999999999995</ele><time>2026-04-11T11:40:14.124Z</time></trkpt><trkpt lat="44.1671083" lon="11.6297783"><ele>417.4</ele><time>2026-04-11T11:40:15.124Z</time></trkpt><trkpt lat="44.16702" lon="11.6297033"><ele>419.0</ele><time>2026-04-11T11:40:16.123Z</time></trkpt><trkpt lat="44.16693" lon="11.6296067"><ele>419.0</ele><time>2026-04-11T11:40:17.124Z</time></trkpt><trkpt lat="44.166835" lon="11.6295"><ele>419.0</ele><time>2026-04-11T11:40:18.123Z</time></trkpt><trkpt lat="44.1667367" lon="11.6293933"><ele>419.0</ele><time>2026-04-11T11:40:19.124Z</time></trkpt><trkpt lat="44.16665" lon="11.629285"><ele>419.0</ele><time>2026-04-11T11:40:20.123Z</time></trkpt><trkpt lat="44.1665817" lon="11.6291817"><ele>418.0</ele><time>2026-04-11T11:40:21.124Z</time></trkpt><trkpt lat="44.1665333" lon="11.6290667"><ele>417.0</ele><time>2026-04-11T11:40:22.122Z</time></trkpt><trkpt lat="44.1665067" lon="11.6289517"><ele>416.0</ele><time>2026-04-11T11:40:23.123Z</time></trkpt><trkpt lat="44.1665" lon="11.6288317"><ele>415.0</ele><time>2026-04-11T11:40:24.123Z</time></trkpt><trkpt lat="44.1665183" lon="11.6287017"><ele>414.0</ele><time>2026-04-11T11:40:25.124Z</time></trkpt><trkpt lat="44.1665583" lon="11.6285533"><ele>414.0</ele><time>2026-04-11T11:40:26.123Z</time></trkpt><trkpt lat="44.1666083" lon="11.6283983"><ele>414.0</ele><time>2026-04-11T11:40:27.124Z</time></trkpt><trkpt lat="44.1666583" lon="11.6282333"><ele>414.0</ele><time>2026-04-11T11:40:28.124Z</time></trkpt><trkpt lat="44.166715" lon="11.6280617"><ele>414.0</ele><time>2026-04-11T11:40:29.125Z</time></trkpt><trkpt lat="44.1667717" lon="11.6279"><ele>414.0</ele><time>2026-04-11T11:40:30.123Z</time></trkpt><trkpt lat="44.16682" lon="11.627755"><ele>414.0</ele><time>2026-04-11T11:40:31.124Z</time></trkpt><trkpt lat="44.16686" lon="11.6276267"><ele>414.0</ele><time>2026-04-11T11:40:32.124Z</time></trkpt><trkpt lat="44.16688" lon="11.6275133"><ele>414.0</ele><time>2026-04-11T11:40:33.125Z</time></trkpt><trkpt lat="44.1668717" lon="11.6274117"><ele>414.0</ele><time>2026-04-11T11:40:34.124Z</time></trkpt><trkpt lat="44.1668383" lon="11.6273167"><ele>414.0</ele><time>2026-04-11T11:40:35.123Z</time></trkpt><trkpt lat="44.1667883" lon="11.6272333"><ele>414.0</ele><time>2026-04-11T11:40:36.125Z</time></trkpt><trkpt lat="44.1667317" lon="11.6271533"><ele>414.0</ele><time>2026-04-11T11:40:37.124Z</time></trkpt><trkpt lat="44.16665" lon="11.627055"><ele>414.0</ele><time>2026-04-11T11:40:38.124Z</time></trkpt><trkpt lat="44.1665567" lon="11.626945"><ele>414.0</ele><time>2026-04-11T11:40:39.123Z</time></trkpt><trkpt lat="44.16646" lon="11.62684"><ele>414.0</ele><time>2026-04-11T11:40:40.124Z</time></trkpt><trkpt lat="44.16636" lon="11.626735"><ele>416.5</ele><time>2026-04-11T11:40:41.122Z</time></trkpt><trkpt lat="44.1662567" lon="11.6266217"><ele>419.0</ele><time>2026-04-11T11:40:42.122Z</time></trkpt><trkpt lat="44.166155" lon="11.6265167"><ele>421.5</ele><time>2026-04-11T11:40:43.123Z</time></trkpt><trkpt lat="44.1660483" lon="11.6264117"><ele>424.0</ele><time>2026-04-11T11:40:44.124Z</time></trkpt><trkpt lat="44.1659467" lon="11.6263017"><ele>424.0</ele><time>2026-04-11T11:40:45.122Z</time></trkpt><trkpt lat="44.1658483" lon="11.626185"><ele>424.0</ele><time>2026-04-11T11:40:46.123Z</time></trkpt><trkpt lat="44.1657517" lon="11.6260733"><ele>424.0</ele><time>2026-04-11T11:40:47.123Z</time></trkpt><trkpt lat="44.1656633" lon="11.6259833"><ele>424.0</ele><time>2026-04-11T11:40:48.123Z</time></trkpt><trkpt lat="44.16559" lon="11.6259083"><ele>425.83333333333337</ele><time>2026-04-11T11:40:49.123Z</time></trkpt><trkpt lat="44.165515" lon="11.6258683"><ele>427.6666666666667</ele><time>2026-04-11T11:40:50.124Z</time></trkpt><trkpt lat="44.165435" lon="11.6258717"><ele>429.5</ele><time>2026-04-11T11:40:51.124Z</time></trkpt><trkpt lat="44.1653583" lon="11.6259033"><ele>431.33333333333337</ele><time>2026-04-11T11:40:52.124Z</time></trkpt><trkpt lat="44.1652817" lon="11.6259617"><ele>433.1666666666667</ele><time>2026-04-11T11:40:53.123Z</time></trkpt><trkpt lat="44.1652117" lon="11.626035"><ele>435.0</ele><time>2026-04-11T11:40:54.123Z</time></trkpt><trkpt lat="44.1651333" lon="11.6261017"><ele>435.0</ele><time>2026-04-11T11:40:55.124Z</time></trkpt><trkpt lat="44.1650483" lon="11.62614"><ele>435.0</ele><time>2026-04-11T11:40:56.124Z</time></trkpt><trkpt lat="44.1649683" lon="11.6261567"><ele>435.0</ele><time>2026-04-11T11:40:57.124Z</time></trkpt><trkpt lat="44.1648917" lon="11.62616"><ele>435.0</ele><time>2026-04-11T11:40:58.123Z</time></trkpt><trkpt lat="44.164815" lon="11.626125"><ele>435.0</ele><time>2026-04-11T11:40:59.123Z</time></trkpt><trkpt lat="44.164745" lon="11.6260467"><ele>435.0</ele><time>2026-04-11T11:41:00.124Z</time></trkpt><trkpt lat="44.1646817" lon="11.6259367"><ele>433.75</ele><time>2026-04-11T11:41:01.124Z</time></trkpt><trkpt lat="44.1646183" lon="11.6258133"><ele>432.5</ele><time>2026-04-11T11:41:02.123Z</time></trkpt><trkpt lat="44.1645633" lon="11.6256867"><ele>431.25</ele><time>2026-04-11T11:41:03.124Z</time></trkpt><trkpt lat="44.1645017" lon="11.62555"><ele>430.0</ele><time>2026-04-11T11:41:04.123Z</time></trkpt><trkpt lat="44.1644333" lon="11.625405"><ele>432.0</ele><time>2026-04-11T11:41:05.122Z</time></trkpt><trkpt lat="44.1643617" lon="11.6252517"><ele>434.0</ele><time>2026-04-11T11:41:06.123Z</time></trkpt><trkpt lat="44.16429" lon="11.6251017"><ele>436.0</ele><time>2026-04-11T11:41:07.124Z</time></trkpt><trkpt lat="44.1642267" lon="11.624975"><ele>438.0</ele><time>2026-04-11T11:41:08.123Z</time></trkpt><trkpt lat="44.1641583" lon="11.6248767"><ele>438.0</ele><time>2026-04-11T11:41:09.123Z</time></trkpt><trkpt lat="44.1640817" lon="11.624805"><ele>437.99999999999994</ele><time>2026-04-11T11:41:10.124Z</time></trkpt><trkpt lat="44.1639867" lon="11.624765"><ele>437.99999999999994</ele><time>2026-04-11T11:41:11.124Z</time></trkpt><trkpt lat="44.163875" lon="11.6247567"><ele>438.0</ele><time>2026-04-11T11:41:12.122Z</time></trkpt><trkpt lat="44.1637467" lon="11.6247617"><ele>438.0</ele><time>2026-04-11T11:41:13.124Z</time></trkpt><trkpt lat="44.163615" lon="11.6247717"><ele>437.75</ele><time>2026-04-11T11:41:14.123Z</time></trkpt><trkpt lat="44.1634767" lon="11.6247917"><ele>437.5</ele><time>2026-04-11T11:41:15.123Z</time></trkpt><trkpt lat="44.1633317" lon="11.6248217"><ele>437.25</ele><time>2026-04-11T11:41:16.123Z</time></trkpt><trkpt lat="44.1632083" lon="11.6248433"><ele>437.0</ele><time>2026-04-11T11:41:17.123Z</time></trkpt><trkpt lat="44.1630967" lon="11.62486"><ele>438.40000000000003</ele><time>2026-04-11T11:41:18.124Z</time></trkpt><trkpt lat="44.1629967" lon="11.62485"><ele>439.80000000000007</ele><time>2026-04-11T11:41:19.123Z</time></trkpt><trkpt lat="44.1628967" lon="11.6248117"><ele>441.2</ele><time>2026-04-11T11:41:20.123Z</time></trkpt><trkpt lat="44.1627917" lon="11.6247417"><ele>442.6</ele><time>2026-04-11T11:41:21.124Z</time></trkpt><trkpt lat="44.16269" lon="11.6246483"><ele>444.0</ele><time>2026-04-11T11:41:22.123Z</time></trkpt><trkpt lat="44.1625917" lon="11.6245383"><ele>444.79999999999995</ele><time>2026-04-11T11:41:23.123Z</time></trkpt><trkpt lat="44.1624917" lon="11.624435"><ele>445.59999999999997</ele><time>2026-04-11T11:41:24.124Z</time></trkpt><trkpt lat="44.16241" lon="11.6243333"><ele>446.4</ele><time>2026-04-11T11:41:25.124Z</time></trkpt><trkpt lat="44.1623517" lon="11.624225"><ele>447.2</ele><time>2026-04-11T11:41:26.123Z</time></trkpt><trkpt lat="44.1623033" lon="11.6241167"><ele>448.0</ele><time>2026-04-11T11:41:27.124Z</time></trkpt><trkpt lat="44.16226" lon="11.623995"><ele>449.59999999999997</ele><time>2026-04-11T11:41:28.123Z</time></trkpt><trkpt lat="44.16222" lon="11.6238517"><ele>451.19999999999993</ele><time>2026-04-11T11:41:29.123Z</time></trkpt><trkpt lat="44.16218" lon="11.6237067"><ele>452.8</ele><time>2026-04-11T11:41:30.122Z</time></trkpt><trkpt lat="44.1621367" lon="11.6235783"><ele>454.4</ele><time>2026-04-11T11:41:31.124Z</time></trkpt><trkpt lat="44.1620817" lon="11.6234833"><ele>456.0</ele><time>2026-04-11T11:41:32.124Z</time></trkpt><trkpt lat="44.1620117" lon="11.6234083"><ele>456.0</ele><time>2026-04-11T11:41:33.123Z</time></trkpt><trkpt lat="44.1619267" lon="11.6233617"><ele>456.0</ele><time>2026-04-11T11:41:34.124Z</time></trkpt><trkpt lat="44.1618533" lon="11.6233033"><ele>456.0</ele><time>2026-04-11T11:41:35.123Z</time></trkpt><trkpt lat="44.1617983" lon="11.6232283"><ele>456.0</ele><time>2026-04-11T11:41:36.123Z</time></trkpt><trkpt lat="44.161755" lon="11.62315"><ele>456.0</ele><time>2026-04-11T11:41:37.122Z</time></trkpt><trkpt lat="44.1617183" lon="11.62306"><ele>456.0</ele><time>2026-04-11T11:41:38.124Z</time></trkpt><trkpt lat="44.16168" lon="11.6229417"><ele>455.20000000000005</ele><time>2026-04-11T11:41:39.124Z</time></trkpt><trkpt lat="44.1616633" lon="11.6227883"><ele>454.40000000000003</ele><time>2026-04-11T11:41:40.124Z</time></trkpt><trkpt lat="44.1616383" lon="11.6226417"><ele>453.6</ele><time>2026-04-11T11:41:41.123Z</time></trkpt><trkpt lat="44.1616017" lon="11.6225033"><ele>452.8</ele><time>2026-04-11T11:41:42.123Z</time></trkpt><trkpt lat="44.1615517" lon="11.622375"><ele>452.0</ele><time>2026-04-11T11:41:43.124Z</time></trkpt><trkpt lat="44.1614817" lon="11.6222967"><ele>454.20000000000005</ele><time>2026-04-11T11:41:44.123Z</time></trkpt><trkpt lat="44.1614067" lon="11.6222417"><ele>456.40000000000003</ele><time>2026-04-11T11:41:45.124Z</time></trkpt><trkpt lat="44.1613117" lon="11.6222233"><ele>458.59999999999997</ele><time>2026-04-11T11:41:46.123Z</time></trkpt><trkpt lat="44.1612083" lon="11.62222"><ele>460.79999999999995</ele><time>2026-04-11T11:41:47.125Z</time></trkpt><trkpt lat="44.161105" lon="11.6221883"><ele>463.0</ele><time>2026-04-11T11:41:48.123Z</time></trkpt><trkpt lat="44.1610133" lon="11.6221467"><ele>463.0</ele><time>2026-04-11T11:41:49.124Z</time></trkpt><trkpt lat="44.1609167" lon="11.6220833"><ele>463.0</ele><time>2026-04-11T11:41:50.122Z</time></trkpt><trkpt lat="44.160815" lon="11.6220233"><ele>463.0</ele><time>2026-04-11T11:41:51.123Z</time></trkpt><trkpt lat="44.1607083" lon="11.6219633"><ele>463.0</ele><time>2026-04-11T11:41:52.124Z</time></trkpt><trkpt lat="44.1605933" lon="11.6219083"><ele>464.5</ele><time>2026-04-11T11:41:53.123Z</time></trkpt><trkpt lat="44.1604733" lon="11.62184"><ele>466.0</ele><time>2026-04-11T11:41:54.123Z</time></trkpt><trkpt lat="44.1603583" lon="11.62177"><ele>467.5</ele><time>2026-04-11T11:41:55.123Z</time></trkpt><trkpt lat="44.1602517" lon="11.621705"><ele>469.0</ele><time>2026-04-11T11:41:56.123Z</time></trkpt><trkpt lat="44.1601617" lon="11.6216367"><ele>469.0</ele><time>2026-04-11T11:41:57.123Z</time></trkpt><trkpt lat="44.1600783" lon="11.6215883"><ele>469.0</ele><time>2026-04-11T11:41:58.123Z</time></trkpt><trkpt lat="44.159985" lon="11.62156"><ele>469.0</ele><time>2026-04-11T11:41:59.123Z</time></trkpt><trkpt lat="44.159885" lon="11.6215667"><ele>469.0</ele><time>2026-04-11T11:42:00.123Z</time></trkpt><trkpt lat="44.159785" lon="11.62157"><ele>469.0</ele><time>2026-04-11T11:42:01.124Z</time></trkpt><trkpt lat="44.1597" lon="11.6215717"><ele>473.79999999999995</ele><time>2026-04-11T11:42:02.124Z</time></trkpt><trkpt lat="44.1595967" lon="11.62153"><ele>478.59999999999997</ele><time>2026-04-11T11:42:04.124Z</time></trkpt><trkpt lat="44.1596267" lon="11.62142"><ele>483.4</ele><time>2026-04-11T11:42:07.124Z</time></trkpt><trkpt lat="44.159685" lon="11.62135"><ele>488.2</ele><time>2026-04-11T11:42:08.124Z</time></trkpt><trkpt lat="44.15975" lon="11.6212433"><ele>493.0</ele><time>2026-04-11T11:42:09.124Z</time></trkpt><trkpt lat="44.159805" lon="11.6211517"><ele>495.2</ele><time>2026-04-11T11:42:10.124Z</time></trkpt><trkpt lat="44.1598733" lon="11.6210067"><ele>497.4</ele><time>2026-04-11T11:42:12.123Z</time></trkpt><trkpt lat="44.1598467" lon="11.620865"><ele>499.59999999999997</ele><time>2026-04-11T11:42:13.123Z</time></trkpt><trkpt lat="44.1598083" lon="11.6207317"><ele>501.79999999999995</ele><time>2026-04-11T11:42:14.124Z</time></trkpt><trkpt lat="44.1597517" lon="11.6206033"><ele>504.0</ele><time>2026-04-11T11:42:15.124Z</time></trkpt><trkpt lat="44.159675" lon="11.6204717"><ele>504.0</ele><time>2026-04-11T11:42:16.123Z</time></trkpt><trkpt lat="44.1595983" lon="11.6203733"><ele>504.0</ele><time>2026-04-11T11:42:17.123Z</time></trkpt><trkpt lat="44.159515" lon="11.6203033"><ele>504.0</ele><time>2026-04-11T11:42:18.123Z</time></trkpt><trkpt lat="44.1594283" lon="11.6202433"><ele>504.0</ele><time>2026-04-11T11:42:19.123Z</time></trkpt><trkpt lat="44.1593433" lon="11.6201767"><ele>504.0</ele><time>2026-04-11T11:42:20.123Z</time></trkpt><trkpt lat="44.1592631" lon="11.6201088"><ele>502.0</ele><time>2026-04-11T11:42:21.124Z</time></trkpt><trkpt lat="44.1592033" lon="11.6200247"><ele>500.0</ele><time>2026-04-11T11:42:22.123Z</time></trkpt><trkpt lat="44.1591515" lon="11.6199031"><ele>498.0</ele><time>2026-04-11T11:42:23.123Z</time></trkpt><trkpt lat="44.1590952" lon="11.6197516"><ele>496.0</ele><time>2026-04-11T11:42:24.123Z</time></trkpt><trkpt lat="44.1590309" lon="11.6195857"><ele>494.0</ele><time>2026-04-11T11:42:25.123Z</time></trkpt><trkpt lat="44.1589598" lon="11.6194258"><ele>499.75</ele><time>2026-04-11T11:42:26.124Z</time></trkpt><trkpt lat="44.1588857" lon="11.6192766"><ele>505.5</ele><time>2026-04-11T11:42:27.123Z</time></trkpt><trkpt lat="44.1588025" lon="11.6191537"><ele>511.25</ele><time>2026-04-11T11:42:28.124Z</time></trkpt><trkpt lat="44.1587071" lon="11.6190534"><ele>517.0</ele><time>2026-04-11T11:42:29.123Z</time></trkpt><trkpt lat="44.1585881" lon="11.6189779"><ele>517.0</ele><time>2026-04-11T11:42:30.123Z</time></trkpt><trkpt lat="44.1584476" lon="11.6189104"><ele>517.0</ele><time>2026-04-11T11:42:31.124Z</time></trkpt><trkpt lat="44.1583406" lon="11.6188321"><ele>517.0</ele><time>2026-04-11T11:42:32.124Z</time></trkpt><trkpt lat="44.1582472" lon="11.6187409"><ele>517.0</ele><time>2026-04-11T11:42:33.124Z</time></trkpt><trkpt lat="44.1581771" lon="11.6186218"><ele>517.75</ele><time>2026-04-11T11:42:34.124Z</time></trkpt><trkpt lat="44.1580942" lon="11.6185079"><ele>518.5</ele><time>2026-04-11T11:42:35.123Z</time></trkpt><trkpt lat="44.1580052" lon="11.6184003"><ele>519.25</ele><time>2026-04-11T11:42:36.123Z</time></trkpt><trkpt lat="44.1579013" lon="11.6183084"><ele>520.0</ele><time>2026-04-11T11:42:37.123Z</time></trkpt><trkpt lat="44.1578018" lon="11.6182185"><ele>520.0</ele><time>2026-04-11T11:42:38.123Z</time></trkpt><trkpt lat="44.1577169" lon="11.6181399"><ele>520.0</ele><time>2026-04-11T11:42:39.124Z</time></trkpt><trkpt lat="44.1576343" lon="11.6180984"><ele>520.0</ele><time>2026-04-11T11:42:40.124Z</time></trkpt><trkpt lat="44.1575565" lon="11.6180986"><ele>520.0</ele><time>2026-04-11T11:42:41.123Z</time></trkpt><trkpt lat="44.157476" lon="11.6181148"><ele>520.0</ele><time>2026-04-11T11:42:42.123Z</time></trkpt><trkpt lat="44.157411" lon="11.6181359"><ele>520.0</ele><time>2026-04-11T11:42:43.124Z</time></trkpt><trkpt lat="44.157355" lon="11.6181918"><ele>524.2</ele><time>2026-04-11T11:42:45.124Z</time></trkpt><trkpt lat="44.1573039" lon="11.6182736"><ele>528.4</ele><time>2026-04-11T11:42:47.124Z</time></trkpt><trkpt lat="44.1572319" lon="11.6183676"><ele>532.6</ele><time>2026-04-11T11:42:49.122Z</time></trkpt><trkpt lat="44.1571551" lon="11.6184372"><ele>536.8</ele><time>2026-04-11T11:42:51.123Z</time></trkpt><trkpt lat="44.1570314" lon="11.6184519"><ele>541.0</ele><time>2026-04-11T11:42:53.123Z</time></trkpt><trkpt lat="44.1569284" lon="11.6183485"><ele>541.0</ele><time>2026-04-11T11:42:55.124Z</time></trkpt><trkpt lat="44.1568978" lon="11.6182415"><ele>541.0</ele><time>2026-04-11T11:42:56.125Z</time></trkpt><trkpt lat="44.1568569" lon="11.618154"><ele>541.0</ele><time>2026-04-11T11:42:57.123Z</time></trkpt><trkpt lat="44.1568154" lon="11.618044"><ele>541.0</ele><time>2026-04-11T11:42:58.124Z</time></trkpt><trkpt lat="44.1567655" lon="11.6179113"><ele>541.0</ele><time>2026-04-11T11:42:59.124Z</time></trkpt><trkpt lat="44.1567044" lon="11.6177872"><ele>542.2</ele><time>2026-04-11T11:43:00.123Z</time></trkpt><trkpt lat="44.1566377" lon="11.617664"><ele>543.4000000000001</ele><time>2026-04-11T11:43:01.123Z</time></trkpt><trkpt lat="44.1565831" lon="11.6175349"><ele>544.6</ele><time>2026-04-11T11:43:02.124Z</time></trkpt><trkpt lat="44.1565393" lon="11.6173926"><ele>545.8000000000001</ele><time>2026-04-11T11:43:03.124Z</time></trkpt><trkpt lat="44.1564921" lon="11.6172505"><ele>547.0</ele><time>2026-04-11T11:43:04.123Z</time></trkpt><trkpt lat="44.1564464" lon="11.6171112"><ele>547.0</ele><time>2026-04-11T11:43:05.123Z</time></trkpt><trkpt lat="44.1564078" lon="11.6169945"><ele>547.0</ele><time>2026-04-11T11:43:06.123Z</time></trkpt><trkpt lat="44.1563395" lon="11.6168717"><ele>547.0</ele><time>2026-04-11T11:43:08.124Z</time></trkpt><trkpt lat="44.1562117" lon="11.6168883"><ele>547.0</ele><time>2026-04-11T11:43:10.123Z</time></trkpt><trkpt lat="44.1561283" lon="11.61692"><ele>547.0</ele><time>2026-04-11T11:43:11.123Z</time></trkpt><trkpt lat="44.1560433" lon="11.6169533"><ele>547.0</ele><time>2026-04-11T11:43:12.123Z</time></trkpt><trkpt lat="44.1559483" lon="11.61699"><ele>547.0</ele><time>2026-04-11T11:43:13.123Z</time></trkpt><trkpt lat="44.1558417" lon="11.617015"><ele>547.0</ele><time>2026-04-11T11:43:14.123Z</time></trkpt><trkpt lat="44.1557467" lon="11.617045"><ele>547.0</ele><time>2026-04-11T11:43:15.124Z</time></trkpt><trkpt lat="44.15566" lon="11.61709"><ele>547.0</ele><time>2026-04-11T11:43:16.124Z</time></trkpt><trkpt lat="44.1555833" lon="11.6171467"><ele>543.4</ele><time>2026-04-11T11:43:17.123Z</time></trkpt><trkpt lat="44.15552" lon="11.6172267"><ele>539.8000000000001</ele><time>2026-04-11T11:43:18.123Z</time></trkpt><trkpt lat="44.1554533" lon="11.617325"><ele>536.2</ele><time>2026-04-11T11:43:19.123Z</time></trkpt><trkpt lat="44.15539" lon="11.6174333"><ele>532.6</ele><time>2026-04-11T11:43:20.123Z</time></trkpt><trkpt lat="44.15533" lon="11.6175417"><ele>529.0</ele><time>2026-04-11T11:43:21.124Z</time></trkpt><trkpt lat="44.1552733" lon="11.6176483"><ele>529.0</ele><time>2026-04-11T11:43:22.123Z</time></trkpt><trkpt lat="44.1552183" lon="11.6177633"><ele>529.0</ele><time>2026-04-11T11:43:23.124Z</time></trkpt><trkpt lat="44.1551667" lon="11.6178767"><ele>529.0</ele><time>2026-04-11T11:43:24.124Z</time></trkpt><trkpt lat="44.155135" lon="11.6179917"><ele>529.0</ele><time>2026-04-11T11:43:25.124Z</time></trkpt><trkpt lat="44.1551167" lon="11.6181167"><ele>529.0</ele><time>2026-04-11T11:43:26.123Z</time></trkpt><trkpt lat="44.1551017" lon="11.6182467"><ele>532.5</ele><time>2026-04-11T11:43:27.124Z</time></trkpt><trkpt lat="44.1550767" lon="11.6183833"><ele>536.0</ele><time>2026-04-11T11:43:28.123Z</time></trkpt><trkpt lat="44.1550417" lon="11.6185033"><ele>539.5</ele><time>2026-04-11T11:43:29.124Z</time></trkpt><trkpt lat="44.1549983" lon="11.6185833"><ele>543.0</ele><time>2026-04-11T11:43:30.124Z</time></trkpt><trkpt lat="44.1549483" lon="11.6186417"><ele>546.5</ele><time>2026-04-11T11:43:31.124Z</time></trkpt><trkpt lat="44.154875" lon="11.6186783"><ele>550.0</ele><time>2026-04-11T11:43:32.123Z</time></trkpt><trkpt lat="44.1547833" lon="11.6186867"><ele>548.2</ele><time>2026-04-11T11:43:33.122Z</time></trkpt><trkpt lat="44.154685" lon="11.6186567"><ele>546.4</ele><time>2026-04-11T11:43:34.123Z</time></trkpt><trkpt lat="44.1545833" lon="11.6185917"><ele>544.6</ele><time>2026-04-11T11:43:35.122Z</time></trkpt><trkpt lat="44.154505" lon="11.6185217"><ele>542.8</ele><time>2026-04-11T11:43:36.122Z</time></trkpt><trkpt lat="44.1544383" lon="11.618505"><ele>541.0</ele><time>2026-04-11T11:43:37.124Z</time></trkpt><trkpt lat="44.154335" lon="11.6185133"><ele>541.0</ele><time>2026-04-11T11:43:39.124Z</time></trkpt><trkpt lat="44.1544233" lon="11.618585"><ele>541.0</ele><time>2026-04-11T11:43:43.123Z</time></trkpt><trkpt lat="44.1544917" lon="11.61862"><ele>541.0</ele><time>2026-04-11T11:43:44.122Z</time></trkpt><trkpt lat="44.1545833" lon="11.6186967"><ele>541.0</ele><time>2026-04-11T11:43:45.125Z</time></trkpt><trkpt lat="44.15467" lon="11.6187733"><ele>541.0</ele><time>2026-04-11T11:43:46.124Z</time></trkpt><trkpt lat="44.1547633" lon="11.6188817"><ele>545.8</ele><time>2026-04-11T11:43:47.123Z</time></trkpt><trkpt lat="44.1548583" lon="11.6189517"><ele>550.6</ele><time>2026-04-11T11:43:48.123Z</time></trkpt><trkpt lat="44.1549533" lon="11.6189967"><ele>555.4</ele><time>2026-04-11T11:43:49.124Z</time></trkpt><trkpt lat="44.1550533" lon="11.61901"><ele>560.2</ele><time>2026-04-11T11:43:50.124Z</time></trkpt><trkpt lat="44.1551433" lon="11.6189967"><ele>565.0</ele><time>2026-04-11T11:43:51.123Z</time></trkpt><trkpt lat="44.155225" lon="11.6189517"><ele>566.2</ele><time>2026-04-11T11:43:52.123Z</time></trkpt><trkpt lat="44.155305" lon="11.6188883"><ele>567.4</ele><time>2026-04-11T11:43:53.123Z</time></trkpt><trkpt lat="44.1553733" lon="11.6187967"><ele>568.6</ele><time>2026-04-11T11:43:54.124Z</time></trkpt><trkpt lat="44.1554383" lon="11.6186867"><ele>569.8</ele><time>2026-04-11T11:43:55.123Z</time></trkpt><trkpt lat="44.1554983" lon="11.6185917"><ele>571.0</ele><time>2026-04-11T11:43:56.123Z</time></trkpt><trkpt lat="44.1555583" lon="11.6185283"><ele>571.0</ele><time>2026-04-11T11:43:57.123Z</time></trkpt><trkpt lat="44.155645" lon="11.618515"><ele>571.0</ele><time>2026-04-11T11:43:59.123Z</time></trkpt><trkpt lat="44.155655" lon="11.6186017"><ele>571.0</ele><time>2026-04-11T11:44:01.124Z</time></trkpt><trkpt lat="44.1555933" lon="11.6187917"><ele>571.0</ele><time>2026-04-11T11:44:03.124Z</time></trkpt><trkpt lat="44.1555467" lon="11.6189"><ele>571.0</ele><time>2026-04-11T11:44:04.123Z</time></trkpt><trkpt lat="44.1554883" lon="11.619025"><ele>571.0</ele><time>2026-04-11T11:44:05.124Z</time></trkpt><trkpt lat="44.1554333" lon="11.6191533"><ele>571.0</ele><time>2026-04-11T11:44:06.125Z</time></trkpt><trkpt lat="44.1553817" lon="11.619285"><ele>571.0</ele><time>2026-04-11T11:44:07.124Z</time></trkpt><trkpt lat="44.1553417" lon="11.6194117"><ele>571.0</ele><time>2026-04-11T11:44:08.124Z</time></trkpt><trkpt lat="44.15531" lon="11.619555"><ele>571.0</ele><time>2026-04-11T11:44:09.124Z</time></trkpt><trkpt lat="44.1552817" lon="11.6197017"><ele>573.6666666666667</ele><time>2026-04-11T11:44:10.123Z</time></trkpt><trkpt lat="44.1552433" lon="11.6198367"><ele>576.3333333333334</ele><time>2026-04-11T11:44:11.124Z</time></trkpt><trkpt lat="44.1551967" lon="11.6199583"><ele>579.0</ele><time>2026-04-11T11:44:12.123Z</time></trkpt><trkpt lat="44.1551433" lon="11.62006"><ele>581.6666666666666</ele><time>2026-04-11T11:44:13.124Z</time></trkpt><trkpt lat="44.155085" lon="11.6201317"><ele>584.3333333333333</ele><time>2026-04-11T11:44:14.123Z</time></trkpt><trkpt lat="44.1550133" lon="11.6201717"><ele>587.0</ele><time>2026-04-11T11:44:15.125Z</time></trkpt><trkpt lat="44.154935" lon="11.620185"><ele>587.0</ele><time>2026-04-11T11:44:16.123Z</time></trkpt><trkpt lat="44.1548417" lon="11.6201733"><ele>587.0</ele><time>2026-04-11T11:44:17.124Z</time></trkpt><trkpt lat="44.1547367" lon="11.6201467"><ele>587.0</ele><time>2026-04-11T11:44:18.123Z</time></trkpt><trkpt lat="44.1546233" lon="11.6201133"><ele>587.0</ele><time>2026-04-11T11:44:19.123Z</time></trkpt><trkpt lat="44.1545083" lon="11.620075"><ele>587.0</ele><time>2026-04-11T11:44:20.123Z</time></trkpt><trkpt lat="44.1544067" lon="11.6200467"><ele>587.0</ele><time>2026-04-11T11:44:21.124Z</time></trkpt><trkpt lat="44.1542933" lon="11.6200433"><ele>587.0</ele><time>2026-04-11T11:44:22.123Z</time></trkpt><trkpt lat="44.1541817" lon="11.6200767"><ele>587.0</ele><time>2026-04-11T11:44:23.124Z</time></trkpt><trkpt lat="44.1540833" lon="11.6201383"><ele>587.0</ele><time>2026-04-11T11:44:24.123Z</time></trkpt><trkpt lat="44.1539967" lon="11.620215"><ele>587.0</ele><time>2026-04-11T11:44:25.124Z</time></trkpt><trkpt lat="44.153915" lon="11.6203"><ele>591.0</ele><time>2026-04-11T11:44:26.124Z</time></trkpt><trkpt lat="44.1538283" lon="11.6204017"><ele>595.0</ele><time>2026-04-11T11:44:27.124Z</time></trkpt><trkpt lat="44.153735" lon="11.6205067"><ele>599.0</ele><time>2026-04-11T11:44:28.123Z</time></trkpt><trkpt lat="44.15364" lon="11.6206167"><ele>603.0</ele><time>2026-04-11T11:44:29.123Z</time></trkpt><trkpt lat="44.1535417" lon="11.62071"><ele>603.0</ele><time>2026-04-11T11:44:30.123Z</time></trkpt><trkpt lat="44.1534383" lon="11.620785"><ele>603.0</ele><time>2026-04-11T11:44:31.123Z</time></trkpt><trkpt lat="44.1533333" lon="11.6208567"><ele>603.0</ele><time>2026-04-11T11:44:32.123Z</time></trkpt><trkpt lat="44.1532333" lon="11.620915"><ele>603.0</ele><time>2026-04-11T11:44:33.124Z</time></trkpt><trkpt lat="44.1531483" lon="11.6209567"><ele>603.0</ele><time>2026-04-11T11:44:34.123Z</time></trkpt><trkpt lat="44.1530667" lon="11.62098"><ele>602.4285714285714</ele><time>2026-04-11T11:44:35.123Z</time></trkpt><trkpt lat="44.152995" lon="11.621"><ele>601.8571428571428</ele><time>2026-04-11T11:44:36.123Z</time></trkpt><trkpt lat="44.152925" lon="11.621035"><ele>601.2857142857142</ele><time>2026-04-11T11:44:37.123Z</time></trkpt><trkpt lat="44.1528683" lon="11.6210967"><ele>600.7142857142858</ele><time>2026-04-11T11:44:38.123Z</time></trkpt><trkpt lat="44.1528283" lon="11.6211783"><ele>600.1428571428571</ele><time>2026-04-11T11:44:39.123Z</time></trkpt><trkpt lat="44.1528167" lon="11.6212667"><ele>599.5714285714286</ele><time>2026-04-11T11:44:40.123Z</time></trkpt><trkpt lat="44.1528117" lon="11.6213667"><ele>599.0</ele><time>2026-04-11T11:44:41.124Z</time></trkpt><trkpt lat="44.1528267" lon="11.6214783"><ele>599.0</ele><time>2026-04-11T11:44:42.124Z</time></trkpt><trkpt lat="44.152845" lon="11.6216033"><ele>599.0</ele><time>2026-04-11T11:44:43.123Z</time></trkpt><trkpt lat="44.15288" lon="11.6217367"><ele>599.0</ele><time>2026-04-11T11:44:44.124Z</time></trkpt><trkpt lat="44.1529067" lon="11.6218817"><ele>599.0</ele><time>2026-04-11T11:44:45.125Z</time></trkpt><trkpt lat="44.15292" lon="11.6220133"><ele>599.0</ele><time>2026-04-11T11:44:46.123Z</time></trkpt><trkpt lat="44.1529183" lon="11.6221417"><ele>600.8</ele><time>2026-04-11T11:44:47.123Z</time></trkpt><trkpt lat="44.152895" lon="11.62227"><ele>602.5999999999999</ele><time>2026-04-11T11:44:48.123Z</time></trkpt><trkpt lat="44.1528533" lon="11.6224133"><ele>604.4</ele><time>2026-04-11T11:44:49.123Z</time></trkpt><trkpt lat="44.1527917" lon="11.6225583"><ele>606.1999999999999</ele><time>2026-04-11T11:44:50.123Z</time></trkpt><trkpt lat="44.1527283" lon="11.6226817"><ele>608.0</ele><time>2026-04-11T11:44:51.123Z</time></trkpt><trkpt lat="44.152655" lon="11.6228017"><ele>611.25</ele><time>2026-04-11T11:44:52.122Z</time></trkpt><trkpt lat="44.15257" lon="11.6229417"><ele>614.5</ele><time>2026-04-11T11:44:53.123Z</time></trkpt><trkpt lat="44.1524883" lon="11.62308"><ele>617.75</ele><time>2026-04-11T11:44:54.122Z</time></trkpt><trkpt lat="44.152415" lon="11.6232133"><ele>621.0</ele><time>2026-04-11T11:44:55.123Z</time></trkpt><trkpt lat="44.1523517" lon="11.62335"><ele>617.1666666666666</ele><time>2026-04-11T11:44:56.123Z</time></trkpt><trkpt lat="44.1523017" lon="11.6234783"><ele>613.3333333333334</ele><time>2026-04-11T11:44:57.124Z</time></trkpt><trkpt lat="44.1522633" lon="11.6235917"><ele>609.5</ele><time>2026-04-11T11:44:58.124Z</time></trkpt><trkpt lat="44.15223" lon="11.6236983"><ele>605.6666666666667</ele><time>2026-04-11T11:44:59.122Z</time></trkpt><trkpt lat="44.1522117" lon="11.6238"><ele>601.8333333333334</ele><time>2026-04-11T11:45:00.124Z</time></trkpt><trkpt lat="44.1522" lon="11.62391"><ele>598.0</ele><time>2026-04-11T11:45:01.123Z</time></trkpt><trkpt lat="44.1521933" lon="11.624035"><ele>598.0</ele><time>2026-04-11T11:45:02.123Z</time></trkpt><trkpt lat="44.1521883" lon="11.6241717"><ele>598.0</ele><time>2026-04-11T11:45:03.123Z</time></trkpt><trkpt lat="44.1521767" lon="11.62432"><ele>598.0</ele><time>2026-04-11T11:45:04.123Z</time></trkpt><trkpt lat="44.15216" lon="11.6244617"><ele>598.0</ele><time>2026-04-11T11:45:05.123Z</time></trkpt><trkpt lat="44.152125" lon="11.6246133"><ele>598.0</ele><time>2026-04-11T11:45:06.123Z</time></trkpt><trkpt lat="44.15208" lon="11.62478"><ele>597.5</ele><time>2026-04-11T11:45:07.123Z</time></trkpt><trkpt lat="44.1520267" lon="11.624955"><ele>597.0</ele><time>2026-04-11T11:45:08.123Z</time></trkpt><trkpt lat="44.1519767" lon="11.6251083"><ele>596.5</ele><time>2026-04-11T11:45:09.124Z</time></trkpt><trkpt lat="44.1519267" lon="11.6252533"><ele>596.0</ele><time>2026-04-11T11:45:10.123Z</time></trkpt><trkpt lat="44.1518983" lon="11.6253883"><ele>596.0</ele><time>2026-04-11T11:45:11.122Z</time></trkpt><trkpt lat="44.1518883" lon="11.6255317"><ele>596.0</ele><time>2026-04-11T11:45:12.122Z</time></trkpt><trkpt lat="44.1518783" lon="11.6256733"><ele>596.0</ele><time>2026-04-11T11:45:13.123Z</time></trkpt><trkpt lat="44.1518717" lon="11.6258"><ele>596.0</ele><time>2026-04-11T11:45:14.123Z</time></trkpt><trkpt lat="44.1518733" lon="11.6259033"><ele>596.0</ele><time>2026-04-11T11:45:15.124Z</time></trkpt><trkpt lat="44.15194" lon="11.6260433"><ele>596.0</ele><time>2026-04-11T11:45:17.123Z</time></trkpt><trkpt lat="44.1520033" lon="11.626095"><ele>596.0</ele><time>2026-04-11T11:45:18.124Z</time></trkpt><trkpt lat="44.15208" lon="11.6261733"><ele>596.0</ele><time>2026-04-11T11:45:19.123Z</time></trkpt><trkpt lat="44.15217" lon="11.6262533"><ele>596.0</ele><time>2026-04-11T11:45:20.123Z</time></trkpt><trkpt lat="44.1522733" lon="11.6263067"><ele>596.0</ele><time>2026-04-11T11:45:21.124Z</time></trkpt><trkpt lat="44.15238" lon="11.626365"><ele>595.0</ele><time>2026-04-11T11:45:22.123Z</time></trkpt><trkpt lat="44.1524817" lon="11.6264333"><ele>594.0</ele><time>2026-04-11T11:45:23.123Z</time></trkpt><trkpt lat="44.1525583" lon="11.6265233"><ele>593.0</ele><time>2026-04-11T11:45:24.123Z</time></trkpt><trkpt lat="44.1526317" lon="11.6266333"><ele>592.0</ele><time>2026-04-11T11:45:25.123Z</time></trkpt><trkpt lat="44.1526833" lon="11.6267667"><ele>591.0</ele><time>2026-04-11T11:45:26.122Z</time></trkpt><trkpt lat="44.152725" lon="11.6269083"><ele>589.4</ele><time>2026-04-11T11:45:27.123Z</time></trkpt><trkpt lat="44.152745" lon="11.62704"><ele>587.8</ele><time>2026-04-11T11:45:28.123Z</time></trkpt><trkpt lat="44.15274" lon="11.6271683"><ele>586.1999999999999</ele><time>2026-04-11T11:45:29.123Z</time></trkpt><trkpt lat="44.152715" lon="11.6272883"><ele>584.6</ele><time>2026-04-11T11:45:30.122Z</time></trkpt><trkpt lat="44.1526567" lon="11.6274083"><ele>583.0</ele><time>2026-04-11T11:45:31.123Z</time></trkpt><trkpt lat="44.1526" lon="11.6275217"><ele>583.0</ele><time>2026-04-11T11:45:32.123Z</time></trkpt><trkpt lat="44.1525667" lon="11.62765"><ele>583.0</ele><time>2026-04-11T11:45:33.125Z</time></trkpt><trkpt lat="44.1525517" lon="11.6277983"><ele>583.0</ele><time>2026-04-11T11:45:34.124Z</time></trkpt><trkpt lat="44.1525483" lon="11.627945"><ele>583.0</ele><time>2026-04-11T11:45:35.123Z</time></trkpt><trkpt lat="44.1525683" lon="11.6280783"><ele>583.0</ele><time>2026-04-11T11:45:36.123Z</time></trkpt><trkpt lat="44.15262" lon="11.628215"><ele>582.1999999999999</ele><time>2026-04-11T11:45:37.123Z</time></trkpt><trkpt lat="44.1526817" lon="11.628345"><ele>581.4</ele><time>2026-04-11T11:45:38.123Z</time></trkpt><trkpt lat="44.15273" lon="11.628455"><ele>580.5999999999999</ele><time>2026-04-11T11:45:39.123Z</time></trkpt><trkpt lat="44.1527533" lon="11.6285533"><ele>579.8</ele><time>2026-04-11T11:45:40.123Z</time></trkpt><trkpt lat="44.1527483" lon="11.628685"><ele>579.0</ele><time>2026-04-11T11:45:42.122Z</time></trkpt><trkpt lat="44.1526417" lon="11.6287717"><ele>580.3333333333334</ele><time>2026-04-11T11:45:44.124Z</time></trkpt><trkpt lat="44.1525633" lon="11.628825"><ele>581.6666666666666</ele><time>2026-04-11T11:45:45.124Z</time></trkpt><trkpt lat="44.1525067" lon="11.628895"><ele>583.0</ele><time>2026-04-11T11:45:46.123Z</time></trkpt><trkpt lat="44.15246" lon="11.6290167"><ele>584.3333333333333</ele><time>2026-04-11T11:45:47.124Z</time></trkpt><trkpt lat="44.152435" lon="11.6291117"><ele>585.6666666666666</ele><time>2026-04-11T11:45:48.123Z</time></trkpt><trkpt lat="44.15239" lon="11.6291867"><ele>587.0</ele><time>2026-04-11T11:45:49.123Z</time></trkpt><trkpt lat="44.1522967" lon="11.6292433"><ele>587.2</ele><time>2026-04-11T11:45:51.123Z</time></trkpt><trkpt lat="44.15223" lon="11.62921"><ele>587.4000000000001</ele><time>2026-04-11T11:45:52.123Z</time></trkpt><trkpt lat="44.1521433" lon="11.6291433"><ele>587.5999999999999</ele><time>2026-04-11T11:45:53.123Z</time></trkpt><trkpt lat="44.1520417" lon="11.6290533"><ele>587.8</ele><time>2026-04-11T11:45:54.123Z</time></trkpt><trkpt lat="44.151945" lon="11.6289683"><ele>588.0</ele><time>2026-04-11T11:45:55.123Z</time></trkpt><trkpt lat="44.1518417" lon="11.6288983"><ele>588.0</ele><time>2026-04-11T11:45:56.123Z</time></trkpt><trkpt lat="44.1517167" lon="11.6288533"><ele>588.0</ele><time>2026-04-11T11:45:57.123Z</time></trkpt><trkpt lat="44.1515967" lon="11.6288233"><ele>588.0</ele><time>2026-04-11T11:45:58.123Z</time></trkpt><trkpt lat="44.1514583" lon="11.6288167"><ele>588.0</ele><time>2026-04-11T11:45:59.123Z</time></trkpt><trkpt lat="44.1513267" lon="11.6287933"><ele>589.0</ele><time>2026-04-11T11:46:00.123Z</time></trkpt><trkpt lat="44.1512083" lon="11.62873"><ele>590.0</ele><time>2026-04-11T11:46:01.123Z</time></trkpt><trkpt lat="44.1510983" lon="11.628645"><ele>591.0</ele><time>2026-04-11T11:46:02.124Z</time></trkpt><trkpt lat="44.1509917" lon="11.6285383"><ele>592.0</ele><time>2026-04-11T11:46:03.123Z</time></trkpt><trkpt lat="44.150895" lon="11.62843"><ele>592.0</ele><time>2026-04-11T11:46:04.122Z</time></trkpt><trkpt lat="44.1508033" lon="11.6283483"><ele>592.0</ele><time>2026-04-11T11:46:05.128Z</time></trkpt><trkpt lat="44.150715" lon="11.6282867"><ele>592.0</ele><time>2026-04-11T11:46:06.125Z</time></trkpt><trkpt lat="44.1506067" lon="11.62827"><ele>592.0</ele><time>2026-04-11T11:46:07.125Z</time></trkpt><trkpt lat="44.1504917" lon="11.6282583"><ele>592.0</ele><time>2026-04-11T11:46:08.124Z</time></trkpt><trkpt lat="44.1503783" lon="11.6282433"><ele>597.5</ele><time>2026-04-11T11:46:09.124Z</time></trkpt><trkpt lat="44.15026" lon="11.62823"><ele>603.0</ele><time>2026-04-11T11:46:10.123Z</time></trkpt><trkpt lat="44.15014" lon="11.6282167"><ele>608.5</ele><time>2026-04-11T11:46:11.124Z</time></trkpt><trkpt lat="44.1500217" lon="11.628175"><ele>614.0</ele><time>2026-04-11T11:46:12.124Z</time></trkpt><trkpt lat="44.1499133" lon="11.628125"><ele>613.0</ele><time>2026-04-11T11:46:13.125Z</time></trkpt><trkpt lat="44.1498233" lon="11.628105"><ele>612.0</ele><time>2026-04-11T11:46:14.125Z</time></trkpt><trkpt lat="44.149725" lon="11.6281"><ele>611.0</ele><time>2026-04-11T11:46:15.124Z</time></trkpt><trkpt lat="44.1496367" lon="11.6281283"><ele>610.0</ele><time>2026-04-11T11:46:16.124Z</time></trkpt><trkpt lat="44.149555" lon="11.628185"><ele>609.0</ele><time>2026-04-11T11:46:17.124Z</time></trkpt><trkpt lat="44.14948" lon="11.62827"><ele>609.0</ele><time>2026-04-11T11:46:18.125Z</time></trkpt><trkpt lat="44.14942" lon="11.6283833"><ele>609.0</ele><time>2026-04-11T11:46:19.124Z</time></trkpt><trkpt lat="44.1493667" lon="11.6285183"><ele>609.0</ele><time>2026-04-11T11:46:20.125Z</time></trkpt><trkpt lat="44.1493083" lon="11.6286633"><ele>609.0</ele><time>2026-04-11T11:46:21.124Z</time></trkpt><trkpt lat="44.1492467" lon="11.6288133"><ele>614.2</ele><time>2026-04-11T11:46:22.124Z</time></trkpt><trkpt lat="44.14918" lon="11.62896"><ele>619.4</ele><time>2026-04-11T11:46:23.124Z</time></trkpt><trkpt lat="44.1491" lon="11.6290883"><ele>624.6</ele><time>2026-04-11T11:46:24.124Z</time></trkpt><trkpt lat="44.1490167" lon="11.62919"><ele>629.8</ele><time>2026-04-11T11:46:25.124Z</time></trkpt><trkpt lat="44.1489433" lon="11.62926"><ele>635.0</ele><time>2026-04-11T11:46:26.124Z</time></trkpt><trkpt lat="44.1488933" lon="11.6293167"><ele>635.0</ele><time>2026-04-11T11:46:27.124Z</time></trkpt><trkpt lat="44.1488867" lon="11.6294267"><ele>635.0</ele><time>2026-04-11T11:46:29.125Z</time></trkpt><trkpt lat="44.14898" lon="11.6293117"><ele>635.0</ele><time>2026-04-11T11:46:32.124Z</time></trkpt><trkpt lat="44.14904" lon="11.6292267"><ele>635.0</ele><time>2026-04-11T11:46:33.124Z</time></trkpt><trkpt lat="44.1491283" lon="11.6291433"><ele>635.0</ele><time>2026-04-11T11:46:34.125Z</time></trkpt><trkpt lat="44.14923" lon="11.6290683"><ele>635.0</ele><time>2026-04-11T11:46:35.124Z</time></trkpt><trkpt lat="44.1493433" lon="11.6290083"><ele>635.0</ele><time>2026-04-11T11:46:36.124Z</time></trkpt><trkpt lat="44.1494483" lon="11.628975"><ele>635.0</ele><time>2026-04-11T11:46:37.124Z</time></trkpt><trkpt lat="44.14954" lon="11.6289617"><ele>635.0</ele><time>2026-04-11T11:46:38.124Z</time></trkpt><trkpt lat="44.1496217" lon="11.6289817"><ele>635.0</ele><time>2026-04-11T11:46:39.124Z</time></trkpt><trkpt lat="44.149685" lon="11.6290433"><ele>635.0</ele><time>2026-04-11T11:46:40.124Z</time></trkpt><trkpt lat="44.1497483" lon="11.6291583"><ele>635.0</ele><time>2026-04-11T11:46:41.124Z</time></trkpt><trkpt lat="44.1498317" lon="11.62927"><ele>635.0</ele><time>2026-04-11T11:46:42.124Z</time></trkpt><trkpt lat="44.1499217" lon="11.6293533"><ele>635.0</ele><time>2026-04-11T11:46:43.124Z</time></trkpt><trkpt lat="44.1499967" lon="11.629405"><ele>635.0</ele><time>2026-04-11T11:46:44.124Z</time></trkpt><trkpt lat="44.1500617" lon="11.62949"><ele>635.0</ele><time>2026-04-11T11:46:46.123Z</time></trkpt><trkpt lat="44.1500267" lon="11.6295717"><ele>635.0</ele><time>2026-04-11T11:46:48.124Z</time></trkpt><trkpt lat="44.149945" lon="11.6296133"><ele>635.0</ele><time>2026-04-11T11:46:50.124Z</time></trkpt><trkpt lat="44.1498583" lon="11.6295583"><ele>635.0</ele><time>2026-04-11T11:46:51.124Z</time></trkpt><trkpt lat="44.14978" lon="11.6295167"><ele>635.0</ele><time>2026-04-11T11:46:52.124Z</time></trkpt><trkpt lat="44.1496917" lon="11.62948"><ele>635.0</ele><time>2026-04-11T11:46:53.124Z</time></trkpt><trkpt lat="44.149595" lon="11.6294733"><ele>641.0</ele><time>2026-04-11T11:46:54.125Z</time></trkpt><trkpt lat="44.1495033" lon="11.62952"><ele>647.0</ele><time>2026-04-11T11:46:55.124Z</time></trkpt><trkpt lat="44.1494333" lon="11.6296117"><ele>653.0</ele><time>2026-04-11T11:46:56.124Z</time></trkpt><trkpt lat="44.14937" lon="11.6297467"><ele>659.0</ele><time>2026-04-11T11:46:57.124Z</time></trkpt><trkpt lat="44.1493" lon="11.6298617"><ele>665.0</ele><time>2026-04-11T11:46:58.124Z</time></trkpt><trkpt lat="44.1492267" lon="11.6299483"><ele>665.0</ele><time>2026-04-11T11:46:59.124Z</time></trkpt><trkpt lat="44.1491467" lon="11.63001"><ele>665.0</ele><time>2026-04-11T11:47:00.124Z</time></trkpt><trkpt lat="44.1490633" lon="11.6300667"><ele>665.0</ele><time>2026-04-11T11:47:01.124Z</time></trkpt><trkpt lat="44.1489817" lon="11.63014"><ele>665.0</ele><time>2026-04-11T11:47:02.124Z</time></trkpt><trkpt lat="44.1488983" lon="11.630245"><ele>665.0</ele><time>2026-04-11T11:47:03.126Z</time></trkpt><trkpt lat="44.14881" lon="11.6303517"><ele>671.6</ele><time>2026-04-11T11:47:04.124Z</time></trkpt><trkpt lat="44.1487283" lon="11.630445"><ele>678.2</ele><time>2026-04-11T11:47:05.125Z</time></trkpt><trkpt lat="44.1486433" lon="11.630505"><ele>684.8</ele><time>2026-04-11T11:47:06.124Z</time></trkpt><trkpt lat="44.1485617" lon="11.6305517"><ele>691.4</ele><time>2026-04-11T11:47:07.124Z</time></trkpt><trkpt lat="44.14847" lon="11.63053"><ele>698.0</ele><time>2026-04-11T11:47:08.124Z</time></trkpt><trkpt lat="44.1483767" lon="11.6305017"><ele>698.0</ele><time>2026-04-11T11:47:09.124Z</time></trkpt><trkpt lat="44.14829" lon="11.6304467"><ele>698.0</ele><time>2026-04-11T11:47:10.124Z</time></trkpt><trkpt lat="44.1482167" lon="11.6303133"><ele>698.0</ele><time>2026-04-11T11:47:11.124Z</time></trkpt><trkpt lat="44.148145" lon="11.63017"><ele>698.0</ele><time>2026-04-11T11:47:12.124Z</time></trkpt><trkpt lat="44.14808" lon="11.6300317"><ele>697.6666666666666</ele><time>2026-04-11T11:47:13.124Z</time></trkpt><trkpt lat="44.1480183" lon="11.6299267"><ele>697.3333333333333</ele><time>2026-04-11T11:47:14.125Z</time></trkpt><trkpt lat="44.1479583" lon="11.6298367"><ele>697.0</ele><time>2026-04-11T11:47:15.127Z</time></trkpt><trkpt lat="44.1479033" lon="11.6297617"><ele>696.6666666666666</ele><time>2026-04-11T11:47:16.124Z</time></trkpt><trkpt lat="44.1478383" lon="11.62973"><ele>696.3333333333334</ele><time>2026-04-11T11:47:17.124Z</time></trkpt><trkpt lat="44.1477567" lon="11.6297133"><ele>696.0</ele><time>2026-04-11T11:47:18.124Z</time></trkpt><trkpt lat="44.1476533" lon="11.62971"><ele>696.0</ele><time>2026-04-11T11:47:19.125Z</time></trkpt><trkpt lat="44.1475383" lon="11.6296867"><ele>696.0</ele><time>2026-04-11T11:47:20.124Z</time></trkpt><trkpt lat="44.1474083" lon="11.6296633"><ele>696.0</ele><time>2026-04-11T11:47:21.124Z</time></trkpt><trkpt lat="44.1472967" lon="11.6296283"><ele>696.0</ele><time>2026-04-11T11:47:22.123Z</time></trkpt><trkpt lat="44.1472017" lon="11.629565"><ele>693.5999999999999</ele><time>2026-04-11T11:47:23.124Z</time></trkpt><trkpt lat="44.1471283" lon="11.6294733"><ele>691.2</ele><time>2026-04-11T11:47:24.124Z</time></trkpt><trkpt lat="44.147075" lon="11.6293717"><ele>688.8</ele><time>2026-04-11T11:47:25.124Z</time></trkpt><trkpt lat="44.1470383" lon="11.6292833"><ele>686.4000000000001</ele><time>2026-04-11T11:47:26.124Z</time></trkpt><trkpt lat="44.146945" lon="11.62924"><ele>684.0</ele><time>2026-04-11T11:47:28.123Z</time></trkpt><trkpt lat="44.1468433" lon="11.6293083"><ele>684.0</ele><time>2026-04-11T11:47:30.124Z</time></trkpt><trkpt lat="44.1468083" lon="11.629385"><ele>684.0</ele><time>2026-04-11T11:47:31.124Z</time></trkpt><trkpt lat="44.14678" lon="11.629495"><ele>684.0</ele><time>2026-04-11T11:47:32.124Z</time></trkpt><trkpt lat="44.1467767" lon="11.629645"><ele>684.0</ele><time>2026-04-11T11:47:33.125Z</time></trkpt><trkpt lat="44.14678" lon="11.629785"><ele>684.0</ele><time>2026-04-11T11:47:34.125Z</time></trkpt><trkpt lat="44.1467883" lon="11.6299133"><ele>684.0</ele><time>2026-04-11T11:47:35.124Z</time></trkpt><trkpt lat="44.1468117" lon="11.630035"><ele>684.0</ele><time>2026-04-11T11:47:36.124Z</time></trkpt><trkpt lat="44.1468617" lon="11.630145"><ele>684.0</ele><time>2026-04-11T11:47:37.124Z</time></trkpt><trkpt lat="44.1469433" lon="11.6302467"><ele>684.0</ele><time>2026-04-11T11:47:38.124Z</time></trkpt><trkpt lat="44.1470233" lon="11.63035"><ele>684.0</ele><time>2026-04-11T11:47:39.124Z</time></trkpt><trkpt lat="44.1471033" lon="11.6304617"><ele>681.25</ele><time>2026-04-11T11:47:40.125Z</time></trkpt><trkpt lat="44.1471717" lon="11.6305917"><ele>678.5</ele><time>2026-04-11T11:47:41.124Z</time></trkpt><trkpt lat="44.1472217" lon="11.6307417"><ele>675.75</ele><time>2026-04-11T11:47:42.124Z</time></trkpt><trkpt lat="44.1472567" lon="11.6308983"><ele>673.0</ele><time>2026-04-11T11:47:43.125Z</time></trkpt><trkpt lat="44.1472667" lon="11.631055"><ele>672.5</ele><time>2026-04-11T11:47:44.123Z</time></trkpt><trkpt lat="44.14726" lon="11.6312017"><ele>672.0</ele><time>2026-04-11T11:47:45.123Z</time></trkpt><trkpt lat="44.1472267" lon="11.631355"><ele>671.5</ele><time>2026-04-11T11:47:46.124Z</time></trkpt><trkpt lat="44.1471933" lon="11.6315217"><ele>671.0</ele><time>2026-04-11T11:47:47.124Z</time></trkpt><trkpt lat="44.1471733" lon="11.6316933"><ele>671.0</ele><time>2026-04-11T11:47:48.124Z</time></trkpt><trkpt lat="44.1471417" lon="11.6318433"><ele>671.0</ele><time>2026-04-11T11:47:49.124Z</time></trkpt><trkpt lat="44.1470833" lon="11.631965"><ele>671.0</ele><time>2026-04-11T11:47:50.125Z</time></trkpt><trkpt lat="44.1470117" lon="11.632065"><ele>671.0</ele><time>2026-04-11T11:47:51.124Z</time></trkpt><trkpt lat="44.146935" lon="11.6321383"><ele>671.0</ele><time>2026-04-11T11:47:52.124Z</time></trkpt><trkpt lat="44.146865" lon="11.6322017"><ele>672.8333333333333</ele><time>2026-04-11T11:47:53.124Z</time></trkpt><trkpt lat="44.14681" lon="11.632265"><ele>674.6666666666666</ele><time>2026-04-11T11:47:54.124Z</time></trkpt><trkpt lat="44.14676" lon="11.6323333"><ele>676.5</ele><time>2026-04-11T11:47:55.123Z</time></trkpt><trkpt lat="44.14672" lon="11.6324283"><ele>678.3333333333334</ele><time>2026-04-11T11:47:56.124Z</time></trkpt><trkpt lat="44.1467" lon="11.63256"><ele>680.1666666666667</ele><time>2026-04-11T11:47:57.124Z</time></trkpt><trkpt lat="44.1466717" lon="11.6327017"><ele>682.0</ele><time>2026-04-11T11:47:58.124Z</time></trkpt><trkpt lat="44.1466367" lon="11.6328417"><ele>682.5</ele><time>2026-04-11T11:47:59.124Z</time></trkpt><trkpt lat="44.14659" lon="11.6329983"><ele>683.0</ele><time>2026-04-11T11:48:00.124Z</time></trkpt><trkpt lat="44.1465333" lon="11.6331533"><ele>683.5</ele><time>2026-04-11T11:48:01.124Z</time></trkpt><trkpt lat="44.146485" lon="11.6333117"><ele>684.0</ele><time>2026-04-11T11:48:02.124Z</time></trkpt><trkpt lat="44.1464467" lon="11.6334683"><ele>679.75</ele><time>2026-04-11T11:48:03.126Z</time></trkpt><trkpt lat="44.1464017" lon="11.6336217"><ele>675.5</ele><time>2026-04-11T11:48:04.123Z</time></trkpt><trkpt lat="44.1463417" lon="11.6337717"><ele>671.25</ele><time>2026-04-11T11:48:05.124Z</time></trkpt><trkpt lat="44.1462733" lon="11.6339083"><ele>667.0</ele><time>2026-04-11T11:48:06.124Z</time></trkpt><trkpt lat="44.146205" lon="11.6340617"><ele>667.0</ele><time>2026-04-11T11:48:07.124Z</time></trkpt><trkpt lat="44.14614" lon="11.6342317"><ele>667.0</ele><time>2026-04-11T11:48:08.124Z</time></trkpt><trkpt lat="44.1460733" lon="11.634405"><ele>667.0</ele><time>2026-04-11T11:48:09.124Z</time></trkpt><trkpt lat="44.1460067" lon="11.6345833"><ele>667.0</ele><time>2026-04-11T11:48:10.124Z</time></trkpt><trkpt lat="44.1459383" lon="11.6347583"><ele>668.25</ele><time>2026-04-11T11:48:11.123Z</time></trkpt><trkpt lat="44.1458683" lon="11.6349117"><ele>669.5</ele><time>2026-04-11T11:48:12.124Z</time></trkpt><trkpt lat="44.1457917" lon="11.6350433"><ele>670.75</ele><time>2026-04-11T11:48:13.124Z</time></trkpt><trkpt lat="44.14572" lon="11.6351633"><ele>672.0</ele><time>2026-04-11T11:48:14.125Z</time></trkpt><trkpt lat="44.1456633" lon="11.63528"><ele>674.8333333333334</ele><time>2026-04-11T11:48:15.124Z</time></trkpt><trkpt lat="44.1456233" lon="11.6353983"><ele>677.6666666666666</ele><time>2026-04-11T11:48:16.124Z</time></trkpt><trkpt lat="44.145595" lon="11.6355033"><ele>680.5</ele><time>2026-04-11T11:48:17.124Z</time></trkpt><trkpt lat="44.1455783" lon="11.63559"><ele>683.3333333333333</ele><time>2026-04-11T11:48:18.124Z</time></trkpt><trkpt lat="44.14559" lon="11.6357167"><ele>686.1666666666666</ele><time>2026-04-11T11:48:20.124Z</time></trkpt><trkpt lat="44.1456317" lon="11.6357917"><ele>689.0</ele><time>2026-04-11T11:48:22.125Z</time></trkpt><trkpt lat="44.1457117" lon="11.6358167"><ele>687.4000000000001</ele><time>2026-04-11T11:48:25.124Z</time></trkpt><trkpt lat="44.145835" lon="11.6358233"><ele>685.8</ele><time>2026-04-11T11:50:52.124Z</time></trkpt><trkpt lat="44.1459567" lon="11.6358333"><ele>684.2</ele><time>2026-04-11T11:50:54.123Z</time></trkpt><trkpt lat="44.1460783" lon="11.635855"><ele>682.5999999999999</ele><time>2026-04-11T11:50:56.124Z</time></trkpt><trkpt lat="44.1461417" lon="11.6358733"><ele>681.0</ele><time>2026-04-11T11:50:57.125Z</time></trkpt><trkpt lat="44.1462133" lon="11.6359017"><ele>681.0</ele><time>2026-04-11T11:50:58.124Z</time></trkpt><trkpt lat="44.1462983" lon="11.6359367"><ele>681.0</ele><time>2026-04-11T11:50:59.124Z</time></trkpt><trkpt lat="44.1463917" lon="11.635975"><ele>681.0</ele><time>2026-04-11T11:51:00.124Z</time></trkpt><trkpt lat="44.146485" lon="11.63601"><ele>681.0</ele><time>2026-04-11T11:51:01.123Z</time></trkpt><trkpt lat="44.1465733" lon="11.636035"><ele>681.0</ele><time>2026-04-11T11:51:02.123Z</time></trkpt><trkpt lat="44.1466633" lon="11.6360517"><ele>682.0</ele><time>2026-04-11T11:51:03.124Z</time></trkpt><trkpt lat="44.1467517" lon="11.63606"><ele>683.0</ele><time>2026-04-11T11:51:04.124Z</time></trkpt><trkpt lat="44.14684" lon="11.6360617"><ele>684.0</ele><time>2026-04-11T11:51:05.124Z</time></trkpt><trkpt lat="44.1469233" lon="11.63606"><ele>685.0</ele><time>2026-04-11T11:51:06.123Z</time></trkpt><trkpt lat="44.1470033" lon="11.63606"><ele>686.0</ele><time>2026-04-11T11:51:07.124Z</time></trkpt><trkpt lat="44.147085" lon="11.636065"><ele>687.0</ele><time>2026-04-11T11:51:08.124Z</time></trkpt><trkpt lat="44.1471633" lon="11.6360883"><ele>687.0</ele><time>2026-04-11T11:51:09.125Z</time></trkpt><trkpt lat="44.1472367" lon="11.6361283"><ele>687.0</ele><time>2026-04-11T11:51:10.124Z</time></trkpt><trkpt lat="44.1473083" lon="11.6361883"><ele>687.0</ele><time>2026-04-11T11:51:11.123Z</time></trkpt><trkpt lat="44.1473817" lon="11.63627"><ele>687.0</ele><time>2026-04-11T11:51:12.124Z</time></trkpt><trkpt lat="44.1474533" lon="11.6363667"><ele>687.0</ele><time>2026-04-11T11:51:13.124Z</time></trkpt><trkpt lat="44.1475133" lon="11.6364883"><ele>682.75</ele><time>2026-04-11T11:51:14.124Z</time></trkpt><trkpt lat="44.1475633" lon="11.6366217"><ele>678.5</ele><time>2026-04-11T11:51:15.124Z</time></trkpt><trkpt lat="44.14762" lon="11.63677"><ele>674.25</ele><time>2026-04-11T11:51:16.124Z</time></trkpt><trkpt lat="44.147685" lon="11.636925"><ele>670.0</ele><time>2026-04-11T11:51:17.124Z</time></trkpt><trkpt lat="44.1477383" lon="11.6370767"><ele>665.2</ele><time>2026-04-11T11:51:18.124Z</time></trkpt><trkpt lat="44.1477733" lon="11.6372283"><ele>660.4</ele><time>2026-04-11T11:51:19.123Z</time></trkpt><trkpt lat="44.1478017" lon="11.637375"><ele>655.5999999999999</ele><time>2026-04-11T11:51:20.124Z</time></trkpt><trkpt lat="44.1478217" lon="11.6375233"><ele>650.8</ele><time>2026-04-11T11:51:21.124Z</time></trkpt><trkpt lat="44.1478483" lon="11.6376717"><ele>646.0</ele><time>2026-04-11T11:51:22.124Z</time></trkpt><trkpt lat="44.14789" lon="11.6378083"><ele>645.0</ele><time>2026-04-11T11:51:23.123Z</time></trkpt><trkpt lat="44.1479317" lon="11.63793"><ele>644.0</ele><time>2026-04-11T11:51:24.123Z</time></trkpt><trkpt lat="44.1479583" lon="11.63805"><ele>643.0</ele><time>2026-04-11T11:51:25.124Z</time></trkpt><trkpt lat="44.1479667" lon="11.6381733"><ele>642.0</ele><time>2026-04-11T11:51:26.125Z</time></trkpt><trkpt lat="44.1479733" lon="11.6383083"><ele>641.0</ele><time>2026-04-11T11:51:27.124Z</time></trkpt><trkpt lat="44.147975" lon="11.6384567"><ele>641.0</ele><time>2026-04-11T11:51:28.124Z</time></trkpt><trkpt lat="44.1479683" lon="11.6386067"><ele>641.0</ele><time>2026-04-11T11:51:29.124Z</time></trkpt><trkpt lat="44.1479467" lon="11.6387417"><ele>641.0</ele><time>2026-04-11T11:51:30.125Z</time></trkpt><trkpt lat="44.1479083" lon="11.6388583"><ele>641.0</ele><time>2026-04-11T11:51:31.124Z</time></trkpt><trkpt lat="44.1478567" lon="11.6389583"><ele>641.0</ele><time>2026-04-11T11:51:32.124Z</time></trkpt><trkpt lat="44.147805" lon="11.6390533"><ele>640.4</ele><time>2026-04-11T11:51:33.124Z</time></trkpt><trkpt lat="44.1477633" lon="11.6391617"><ele>639.8</ele><time>2026-04-11T11:51:34.125Z</time></trkpt><trkpt lat="44.14773" lon="11.6392833"><ele>639.1999999999999</ele><time>2026-04-11T11:51:35.124Z</time></trkpt><trkpt lat="44.1476983" lon="11.6394217"><ele>638.5999999999999</ele><time>2026-04-11T11:51:36.124Z</time></trkpt><trkpt lat="44.1476667" lon="11.6395633"><ele>638.0</ele><time>2026-04-11T11:51:37.123Z</time></trkpt><trkpt lat="44.147645" lon="11.639695"><ele>637.0</ele><time>2026-04-11T11:51:38.124Z</time></trkpt><trkpt lat="44.147635" lon="11.6398067"><ele>636.0</ele><time>2026-04-11T11:51:39.124Z</time></trkpt><trkpt lat="44.14764" lon="11.6399117"><ele>635.0</ele><time>2026-04-11T11:51:40.123Z</time></trkpt><trkpt lat="44.1476633" lon="11.640005"><ele>634.0</ele><time>2026-04-11T11:51:41.123Z</time></trkpt><trkpt lat="44.147705" lon="11.6400733"><ele>633.0</ele><time>2026-04-11T11:51:42.123Z</time></trkpt><trkpt lat="44.14777" lon="11.6401133"><ele>632.0</ele><time>2026-04-11T11:51:43.124Z</time></trkpt><trkpt lat="44.1478517" lon="11.6401217"><ele>631.0</ele><time>2026-04-11T11:51:44.124Z</time></trkpt><trkpt lat="44.1479383" lon="11.6401033"><ele>631.0</ele><time>2026-04-11T11:51:45.123Z</time></trkpt><trkpt lat="44.1480267" lon="11.6400567"><ele>631.0</ele><time>2026-04-11T11:51:46.124Z</time></trkpt><trkpt lat="44.1481117" lon="11.63999"><ele>631.0</ele><time>2026-04-11T11:51:47.124Z</time></trkpt><trkpt lat="44.1481983" lon="11.639915"><ele>631.0</ele><time>2026-04-11T11:51:48.123Z</time></trkpt><trkpt lat="44.1482783" lon="11.639835"><ele>631.0</ele><time>2026-04-11T11:51:49.123Z</time></trkpt><trkpt lat="44.148345" lon="11.63974"><ele>631.5</ele><time>2026-04-11T11:51:50.124Z</time></trkpt><trkpt lat="44.1484017" lon="11.6396417"><ele>632.0</ele><time>2026-04-11T11:51:51.125Z</time></trkpt><trkpt lat="44.1484433" lon="11.6395433"><ele>632.5</ele><time>2026-04-11T11:51:52.124Z</time></trkpt><trkpt lat="44.1484817" lon="11.6394533"><ele>633.0</ele><time>2026-04-11T11:51:53.123Z</time></trkpt><trkpt lat="44.14851" lon="11.63937"><ele>633.5</ele><time>2026-04-11T11:51:54.124Z</time></trkpt><trkpt lat="44.148555" lon="11.6392517"><ele>634.0</ele><time>2026-04-11T11:51:56.124Z</time></trkpt><trkpt lat="44.1485683" lon="11.6394483"><ele>634.0</ele><time>2026-04-11T11:52:05.124Z</time></trkpt><trkpt lat="44.1485467" lon="11.6395317"><ele>634.0</ele><time>2026-04-11T11:52:06.123Z</time></trkpt><trkpt lat="44.1485317" lon="11.639625"><ele>634.0</ele><time>2026-04-11T11:52:07.124Z</time></trkpt><trkpt lat="44.1485133" lon="11.6397167"><ele>634.0</ele><time>2026-04-11T11:52:08.125Z</time></trkpt><trkpt lat="44.1484983" lon="11.6398033"><ele>634.0</ele><time>2026-04-11T11:52:09.124Z</time></trkpt><trkpt lat="44.1484683" lon="11.6398867"><ele>634.0</ele><time>2026-04-11T11:52:10.123Z</time></trkpt><trkpt lat="44.14843" lon="11.6399717"><ele>634.0</ele><time>2026-04-11T11:52:11.124Z</time></trkpt><trkpt lat="44.1483817" lon="11.640075"><ele>634.0</ele><time>2026-04-11T11:52:12.124Z</time></trkpt><trkpt lat="44.1483383" lon="11.640165"><ele>634.0</ele><time>2026-04-11T11:52:13.123Z</time></trkpt><trkpt lat="44.1482917" lon="11.6402583"><ele>634.0</ele><time>2026-04-11T11:52:14.125Z</time></trkpt><trkpt lat="44.1482467" lon="11.640355"><ele>634.0</ele><time>2026-04-11T11:52:15.124Z</time></trkpt><trkpt lat="44.1482095" lon="11.640458"><ele>634.0</ele><time>2026-04-11T11:52:16.124Z</time></trkpt><trkpt lat="44.1481846" lon="11.6405708"><ele>634.0</ele><time>2026-04-11T11:52:17.125Z</time></trkpt><trkpt lat="44.1481684" lon="11.6406898"><ele>630.1666666666667</ele><time>2026-04-11T11:52:18.124Z</time></trkpt><trkpt lat="44.1481566" lon="11.6408099"><ele>626.3333333333334</ele><time>2026-04-11T11:52:19.123Z</time></trkpt><trkpt lat="44.1481379" lon="11.6409143"><ele>622.5</ele><time>2026-04-11T11:52:20.124Z</time></trkpt><trkpt lat="44.1480774" lon="11.6410038"><ele>618.6666666666666</ele><time>2026-04-11T11:52:22.124Z</time></trkpt><trkpt lat="44.1480025" lon="11.6409523"><ele>614.8333333333333</ele><time>2026-04-11T11:52:24.124Z</time></trkpt><trkpt lat="44.1479443" lon="11.6408998"><ele>611.0</ele><time>2026-04-11T11:52:25.125Z</time></trkpt><trkpt lat="44.1478673" lon="11.6408582"><ele>611.0</ele><time>2026-04-11T11:52:26.124Z</time></trkpt><trkpt lat="44.147779" lon="11.640825"><ele>611.0</ele><time>2026-04-11T11:52:27.125Z</time></trkpt><trkpt lat="44.1476783" lon="11.6407923"><ele>611.0</ele><time>2026-04-11T11:52:28.124Z</time></trkpt><trkpt lat="44.1475706" lon="11.6407606"><ele>611.0</ele><time>2026-04-11T11:52:29.125Z</time></trkpt><trkpt lat="44.1474735" lon="11.6407385"><ele>611.0</ele><time>2026-04-11T11:52:30.125Z</time></trkpt><trkpt lat="44.1473878" lon="11.6407273"><ele>607.5714285714287</ele><time>2026-04-11T11:52:31.123Z</time></trkpt><trkpt lat="44.1473117" lon="11.6407311"><ele>604.1428571428571</ele><time>2026-04-11T11:52:32.124Z</time></trkpt><trkpt lat="44.1472424" lon="11.6407588"><ele>600.7142857142858</ele><time>2026-04-11T11:52:33.123Z</time></trkpt><trkpt lat="44.1471743" lon="11.6408077"><ele>597.2857142857143</ele><time>2026-04-11T11:52:34.124Z</time></trkpt><trkpt lat="44.1471103" lon="11.6408644"><ele>593.8571428571429</ele><time>2026-04-11T11:52:35.124Z</time></trkpt><trkpt lat="44.1470481" lon="11.6409148"><ele>590.4285714285714</ele><time>2026-04-11T11:52:36.124Z</time></trkpt><trkpt lat="44.1469868" lon="11.64096"><ele>587.0</ele><time>2026-04-11T11:52:37.124Z</time></trkpt><trkpt lat="44.1468797" lon="11.6410124"><ele>587.0</ele><time>2026-04-11T11:52:39.125Z</time></trkpt><trkpt lat="44.1467689" lon="11.6410281"><ele>587.0</ele><time>2026-04-11T11:52:41.124Z</time></trkpt><trkpt lat="44.1466767" lon="11.641035"><ele>587.0</ele><time>2026-04-11T11:52:43.123Z</time></trkpt><trkpt lat="44.1465817" lon="11.6410483"><ele>587.0</ele><time>2026-04-11T11:52:45.125Z</time></trkpt><trkpt lat="44.146485" lon="11.6410317"><ele>587.0</ele><time>2026-04-11T11:52:47.124Z</time></trkpt><trkpt lat="44.1464283" lon="11.6409783"><ele>581.0</ele><time>2026-04-11T11:52:49.124Z</time></trkpt><trkpt lat="44.1463983" lon="11.6408583"><ele>575.0</ele><time>2026-04-11T11:52:51.126Z</time></trkpt><trkpt lat="44.146425" lon="11.640695"><ele>569.0</ele><time>2026-04-11T11:52:53.124Z</time></trkpt><trkpt lat="44.146475" lon="11.6405467"><ele>563.0</ele><time>2026-04-11T11:52:55.124Z</time></trkpt><trkpt lat="44.1465017" lon="11.6404217"><ele>557.0</ele><time>2026-04-11T11:52:57.125Z</time></trkpt><trkpt lat="44.1465233" lon="11.6402817"><ele>557.0</ele><time>2026-04-11T11:52:59.124Z</time></trkpt><trkpt lat="44.1465364" lon="11.6401366"><ele>557.0</ele><time>2026-04-11T11:53:01.124Z</time></trkpt><trkpt lat="44.1465313" lon="11.640012"><ele>557.0</ele><time>2026-04-11T11:53:03.124Z</time></trkpt><trkpt lat="44.1464537" lon="11.6399765"><ele>557.0</ele><time>2026-04-11T11:53:06.124Z</time></trkpt><trkpt lat="44.1463882" lon="11.6400636"><ele>557.0</ele><time>2026-04-11T11:53:08.123Z</time></trkpt><trkpt lat="44.1463371" lon="11.6401481"><ele>557.0</ele><time>2026-04-11T11:53:09.124Z</time></trkpt><trkpt lat="44.1462811" lon="11.640232"><ele>556.0</ele><time>2026-04-11T11:53:10.126Z</time></trkpt><trkpt lat="44.1462097" lon="11.6403104"><ele>555.0</ele><time>2026-04-11T11:53:11.124Z</time></trkpt><trkpt lat="44.1461382" lon="11.640386"><ele>554.0</ele><time>2026-04-11T11:53:12.124Z</time></trkpt><trkpt lat="44.1460653" lon="11.6404582"><ele>553.0</ele><time>2026-04-11T11:53:13.123Z</time></trkpt><trkpt lat="44.1460004" lon="11.640528"><ele>552.0</ele><time>2026-04-11T11:53:14.124Z</time></trkpt><trkpt lat="44.145948" lon="11.6406071"><ele>551.0</ele><time>2026-04-11T11:53:15.123Z</time></trkpt><trkpt lat="44.145902" lon="11.6406953"><ele>550.9999999999999</ele><time>2026-04-11T11:53:16.124Z</time></trkpt><trkpt lat="44.1458557" lon="11.6407827"><ele>551.0</ele><time>2026-04-11T11:53:17.124Z</time></trkpt><trkpt lat="44.145823" lon="11.6408666"><ele>551.0</ele><time>2026-04-11T11:53:18.125Z</time></trkpt><trkpt lat="44.1458033" lon="11.6409512"><ele>551.0</ele><time>2026-04-11T11:53:19.124Z</time></trkpt><trkpt lat="44.1457828" lon="11.641039"><ele>551.0</ele><time>2026-04-11T11:53:20.125Z</time></trkpt><trkpt lat="44.1457575" lon="11.6411217"><ele>550.9999999999999</ele><time>2026-04-11T11:53:21.124Z</time></trkpt><trkpt lat="44.1457182" lon="11.6412455"><ele>551.0</ele><time>2026-04-11T11:53:23.124Z</time></trkpt><trkpt lat="44.1457524" lon="11.6413411"><ele>549.0</ele><time>2026-04-11T11:53:25.124Z</time></trkpt><trkpt lat="44.1458697" lon="11.6414237"><ele>547.0</ele><time>2026-04-11T11:53:27.125Z</time></trkpt><trkpt lat="44.1459496" lon="11.6414698"><ele>545.0</ele><time>2026-04-11T11:53:28.124Z</time></trkpt><trkpt lat="44.1460309" lon="11.6415287"><ele>543.0</ele><time>2026-04-11T11:53:29.124Z</time></trkpt><trkpt lat="44.146113" lon="11.6416133"><ele>541.0</ele><time>2026-04-11T11:53:30.124Z</time></trkpt><trkpt lat="44.1461931" lon="11.6417062"><ele>541.0</ele><time>2026-04-11T11:53:31.124Z</time></trkpt><trkpt lat="44.1462552" lon="11.6417991"><ele>541.0</ele><time>2026-04-11T11:53:32.124Z</time></trkpt><trkpt lat="44.1463113" lon="11.6418699"><ele>541.0</ele><time>2026-04-11T11:53:33.125Z</time></trkpt><trkpt lat="44.1463749" lon="11.6419115"><ele>541.0</ele><time>2026-04-11T11:53:34.124Z</time></trkpt><trkpt lat="44.1464443" lon="11.64194"><ele>541.0</ele><time>2026-04-11T11:53:35.123Z</time></trkpt><trkpt lat="44.146524" lon="11.6419636"><ele>541.0</ele><time>2026-04-11T11:53:36.125Z</time></trkpt><trkpt lat="44.1466049" lon="11.6419908"><ele>540.6666666666667</ele><time>2026-04-11T11:53:37.124Z</time></trkpt><trkpt lat="44.1466808" lon="11.6420423"><ele>540.3333333333334</ele><time>2026-04-11T11:53:38.124Z</time></trkpt><trkpt lat="44.1467518" lon="11.642109"><ele>540.0</ele><time>2026-04-11T11:53:39.124Z</time></trkpt><trkpt lat="44.1468091" lon="11.6422049"><ele>539.6666666666666</ele><time>2026-04-11T11:53:40.124Z</time></trkpt><trkpt lat="44.1468457" lon="11.642308"><ele>539.3333333333333</ele><time>2026-04-11T11:53:41.124Z</time></trkpt><trkpt lat="44.146856" lon="11.64241"><ele>539.0</ele><time>2026-04-11T11:53:42.124Z</time></trkpt><trkpt lat="44.1468504" lon="11.6425139"><ele>539.0</ele><time>2026-04-11T11:53:43.124Z</time></trkpt><trkpt lat="44.1468533" lon="11.6426233"><ele>539.0</ele><time>2026-04-11T11:53:44.125Z</time></trkpt><trkpt lat="44.14688" lon="11.6427267"><ele>539.0</ele><time>2026-04-11T11:53:45.125Z</time></trkpt><trkpt lat="44.1468967" lon="11.64284"><ele>539.0</ele><time>2026-04-11T11:53:46.123Z</time></trkpt><trkpt lat="44.1468883" lon="11.6429467"><ele>539.0</ele><time>2026-04-11T11:53:47.125Z</time></trkpt><trkpt lat="44.1468567" lon="11.64305"><ele>539.0</ele><time>2026-04-11T11:53:48.125Z</time></trkpt><trkpt lat="44.1468133" lon="11.6431617"><ele>537.1666666666666</ele><time>2026-04-11T11:53:49.124Z</time></trkpt><trkpt lat="44.1467667" lon="11.6432767"><ele>535.3333333333333</ele><time>2026-04-11T11:53:50.124Z</time></trkpt><trkpt lat="44.1467217" lon="11.6433717"><ele>533.5</ele><time>2026-04-11T11:53:51.125Z</time></trkpt><trkpt lat="44.1466867" lon="11.64347"><ele>531.6666666666666</ele><time>2026-04-11T11:53:52.124Z</time></trkpt><trkpt lat="44.1466733" lon="11.6435583"><ele>529.8333333333334</ele><time>2026-04-11T11:53:53.124Z</time></trkpt><trkpt lat="44.1467067" lon="11.6437033"><ele>528.0</ele><time>2026-04-11T11:53:55.124Z</time></trkpt><trkpt lat="44.146755" lon="11.6437717"><ele>527.1666666666666</ele><time>2026-04-11T11:53:56.124Z</time></trkpt><trkpt lat="44.146805" lon="11.6438567"><ele>526.3333333333334</ele><time>2026-04-11T11:53:57.123Z</time></trkpt><trkpt lat="44.1468283" lon="11.6439483"><ele>525.5</ele><time>2026-04-11T11:53:58.124Z</time></trkpt><trkpt lat="44.1468283" lon="11.6441167"><ele>524.6666666666667</ele><time>2026-04-11T11:54:00.125Z</time></trkpt><trkpt lat="44.1468017" lon="11.64422"><ele>523.8333333333334</ele><time>2026-04-11T11:54:01.122Z</time></trkpt><trkpt lat="44.146755" lon="11.6443283"><ele>523.0</ele><time>2026-04-11T11:54:02.124Z</time></trkpt><trkpt lat="44.1466967" lon="11.6444083"><ele>522.3333333333334</ele><time>2026-04-11T11:54:03.124Z</time></trkpt><trkpt lat="44.1466367" lon="11.644465"><ele>521.6666666666667</ele><time>2026-04-11T11:54:04.124Z</time></trkpt><trkpt lat="44.1465467" lon="11.6445667"><ele>521.0</ele><time>2026-04-11T11:54:06.124Z</time></trkpt><trkpt lat="44.146525" lon="11.6447167"><ele>520.3333333333334</ele><time>2026-04-11T11:54:08.123Z</time></trkpt><trkpt lat="44.1465333" lon="11.6448067"><ele>519.6666666666666</ele><time>2026-04-11T11:54:09.123Z</time></trkpt><trkpt lat="44.1465367" lon="11.6449033"><ele>519.0</ele><time>2026-04-11T11:54:10.124Z</time></trkpt><trkpt lat="44.1465333" lon="11.6450117"><ele>515.6</ele><time>2026-04-11T11:54:11.124Z</time></trkpt><trkpt lat="44.1465233" lon="11.64514"><ele>512.2</ele><time>2026-04-11T11:54:12.124Z</time></trkpt><trkpt lat="44.1465133" lon="11.6452633"><ele>508.80000000000007</ele><time>2026-04-11T11:54:13.124Z</time></trkpt><trkpt lat="44.1465033" lon="11.645355"><ele>505.40000000000003</ele><time>2026-04-11T11:54:14.124Z</time></trkpt><trkpt lat="44.1465183" lon="11.64551"><ele>502.0</ele><time>2026-04-11T11:54:16.123Z</time></trkpt><trkpt lat="44.1466033" lon="11.6456183"><ele>502.00000000000006</ele><time>2026-04-11T11:54:18.124Z</time></trkpt><trkpt lat="44.1467133" lon="11.6456483"><ele>502.0</ele><time>2026-04-11T11:54:20.124Z</time></trkpt><trkpt lat="44.1467783" lon="11.6456633"><ele>502.0</ele><time>2026-04-11T11:54:21.123Z</time></trkpt><trkpt lat="44.1468533" lon="11.6457067"><ele>502.0</ele><time>2026-04-11T11:54:22.123Z</time></trkpt><trkpt lat="44.1469233" lon="11.6457633"><ele>502.00000000000006</ele><time>2026-04-11T11:54:23.124Z</time></trkpt><trkpt lat="44.1469967" lon="11.6458233"><ele>502.0</ele><time>2026-04-11T11:54:24.123Z</time></trkpt><trkpt lat="44.147055" lon="11.6458717"><ele>501.99999999999994</ele><time>2026-04-11T11:54:25.124Z</time></trkpt><trkpt lat="44.1471033" lon="11.6459467"><ele>502.0</ele><time>2026-04-11T11:54:26.124Z</time></trkpt><trkpt lat="44.14715" lon="11.6460417"><ele>501.99999999999994</ele><time>2026-04-11T11:54:27.124Z</time></trkpt><trkpt lat="44.1471867" lon="11.646145"><ele>501.99999999999994</ele><time>2026-04-11T11:54:28.124Z</time></trkpt><trkpt lat="44.1472217" lon="11.646235"><ele>502.0</ele><time>2026-04-11T11:54:29.124Z</time></trkpt><trkpt lat="44.14726" lon="11.646305"><ele>501.99999999999994</ele><time>2026-04-11T11:54:30.124Z</time></trkpt><trkpt lat="44.147315" lon="11.6463517"><ele>501.99999999999994</ele><time>2026-04-11T11:54:31.124Z</time></trkpt><trkpt lat="44.147425" lon="11.6464033"><ele>498.0</ele><time>2026-04-11T11:54:33.124Z</time></trkpt><trkpt lat="44.147535" lon="11.6464567"><ele>494.00000000000006</ele><time>2026-04-11T11:54:35.124Z</time></trkpt><trkpt lat="44.1476533" lon="11.6464483"><ele>490.00000000000006</ele><time>2026-04-11T11:54:37.124Z</time></trkpt><trkpt lat="44.1477683" lon="11.64639"><ele>486.0</ele><time>2026-04-11T11:54:39.124Z</time></trkpt><trkpt lat="44.1478317" lon="11.6463617"><ele>482.0</ele><time>2026-04-11T11:54:40.124Z</time></trkpt><trkpt lat="44.1479017" lon="11.6463333"><ele>481.99999999999994</ele><time>2026-04-11T11:54:41.124Z</time></trkpt><trkpt lat="44.147975" lon="11.6463"><ele>482.0</ele><time>2026-04-11T11:54:42.124Z</time></trkpt><trkpt lat="44.148055" lon="11.6462633"><ele>482.0</ele><time>2026-04-11T11:54:43.124Z</time></trkpt><trkpt lat="44.14814" lon="11.6462383"><ele>482.0</ele><time>2026-04-11T11:54:44.124Z</time></trkpt><trkpt lat="44.1482283" lon="11.6462117"><ele>481.99999999999994</ele><time>2026-04-11T11:54:45.124Z</time></trkpt><trkpt lat="44.14831" lon="11.6461817"><ele>482.0</ele><time>2026-04-11T11:54:46.124Z</time></trkpt><trkpt lat="44.1483867" lon="11.6461683"><ele>481.6</ele><time>2026-04-11T11:54:47.124Z</time></trkpt><trkpt lat="44.1484583" lon="11.6461717"><ele>481.20000000000005</ele><time>2026-04-11T11:54:48.124Z</time></trkpt><trkpt lat="44.1485467" lon="11.646245"><ele>480.8</ele><time>2026-04-11T11:54:50.124Z</time></trkpt><trkpt lat="44.1485383" lon="11.6463583"><ele>480.4</ele><time>2026-04-11T11:54:52.124Z</time></trkpt><trkpt lat="44.14846" lon="11.6465033"><ele>480.0</ele><time>2026-04-11T11:54:54.125Z</time></trkpt><trkpt lat="44.1484083" lon="11.646595"><ele>480.0</ele><time>2026-04-11T11:54:55.123Z</time></trkpt><trkpt lat="44.148365" lon="11.6467033"><ele>480.0</ele><time>2026-04-11T11:54:56.124Z</time></trkpt><trkpt lat="44.148325" lon="11.6468133"><ele>480.0</ele><time>2026-04-11T11:54:57.124Z</time></trkpt><trkpt lat="44.1482783" lon="11.6469033"><ele>480.0</ele><time>2026-04-11T11:54:58.124Z</time></trkpt><trkpt lat="44.1482267" lon="11.6469967"><ele>480.0</ele><time>2026-04-11T11:54:59.124Z</time></trkpt><trkpt lat="44.1481767" lon="11.6470967"><ele>480.0</ele><time>2026-04-11T11:55:00.124Z</time></trkpt><trkpt lat="44.1481333" lon="11.6471933"><ele>476.6666666666667</ele><time>2026-04-11T11:55:01.124Z</time></trkpt><trkpt lat="44.1480883" lon="11.6472833"><ele>473.33333333333337</ele><time>2026-04-11T11:55:02.124Z</time></trkpt><trkpt lat="44.14805" lon="11.6473717"><ele>470.0</ele><time>2026-04-11T11:55:03.125Z</time></trkpt><trkpt lat="44.1480217" lon="11.64746"><ele>466.6666666666667</ele><time>2026-04-11T11:55:04.125Z</time></trkpt><trkpt lat="44.1480117" lon="11.647555"><ele>463.33333333333337</ele><time>2026-04-11T11:55:05.124Z</time></trkpt><trkpt lat="44.1479983" lon="11.64767"><ele>460.0</ele><time>2026-04-11T11:55:06.124Z</time></trkpt><trkpt lat="44.1479983" lon="11.6477817"><ele>459.50000000000006</ele><time>2026-04-11T11:55:07.124Z</time></trkpt><trkpt lat="44.148005" lon="11.6478933"><ele>459.0</ele><time>2026-04-11T11:55:08.124Z</time></trkpt><trkpt lat="44.148005" lon="11.648005"><ele>458.5</ele><time>2026-04-11T11:55:09.125Z</time></trkpt><trkpt lat="44.1480117" lon="11.648125"><ele>458.0</ele><time>2026-04-11T11:55:10.123Z</time></trkpt><trkpt lat="44.1480183" lon="11.6482483"><ele>457.50000000000006</ele><time>2026-04-11T11:55:11.124Z</time></trkpt><trkpt lat="44.1480333" lon="11.6483733"><ele>457.0</ele><time>2026-04-11T11:55:12.125Z</time></trkpt><trkpt lat="44.148065" lon="11.64848"><ele>457.00000000000006</ele><time>2026-04-11T11:55:13.125Z</time></trkpt><trkpt lat="44.1481083" lon="11.64857"><ele>457.0</ele><time>2026-04-11T11:55:14.124Z</time></trkpt><trkpt lat="44.14817" lon="11.64863"><ele>457.0</ele><time>2026-04-11T11:55:15.124Z</time></trkpt><trkpt lat="44.1482417" lon="11.6486617"><ele>457.0</ele><time>2026-04-11T11:55:16.123Z</time></trkpt><trkpt lat="44.1483167" lon="11.6486817"><ele>457.00000000000006</ele><time>2026-04-11T11:55:17.123Z</time></trkpt><trkpt lat="44.1483917" lon="11.648715"><ele>457.0</ele><time>2026-04-11T11:55:18.123Z</time></trkpt><trkpt lat="44.148465" lon="11.64876"><ele>454.40000000000003</ele><time>2026-04-11T11:55:19.124Z</time></trkpt><trkpt lat="44.14854" lon="11.64881"><ele>451.80000000000007</ele><time>2026-04-11T11:55:20.124Z</time></trkpt><trkpt lat="44.1485983" lon="11.6488717"><ele>449.2</ele><time>2026-04-11T11:55:21.124Z</time></trkpt><trkpt lat="44.14867" lon="11.6489633"><ele>446.6</ele><time>2026-04-11T11:55:22.123Z</time></trkpt><trkpt lat="44.14875" lon="11.649075"><ele>444.0</ele><time>2026-04-11T11:55:23.124Z</time></trkpt><trkpt lat="44.1488283" lon="11.649185"><ele>444.0</ele><time>2026-04-11T11:55:24.124Z</time></trkpt><trkpt lat="44.1489017" lon="11.6492883"><ele>444.0</ele><time>2026-04-11T11:55:25.124Z</time></trkpt><trkpt lat="44.1489683" lon="11.6493883"><ele>444.0</ele><time>2026-04-11T11:55:26.124Z</time></trkpt><trkpt lat="44.14903" lon="11.6494917"><ele>444.0</ele><time>2026-04-11T11:55:27.123Z</time></trkpt><trkpt lat="44.1490933" lon="11.6495583"><ele>444.0</ele><time>2026-04-11T11:55:28.124Z</time></trkpt><trkpt lat="44.14916" lon="11.64962"><ele>442.1666666666667</ele><time>2026-04-11T11:55:29.124Z</time></trkpt><trkpt lat="44.14925" lon="11.649665"><ele>440.33333333333337</ele><time>2026-04-11T11:55:30.124Z</time></trkpt><trkpt lat="44.1493467" lon="11.6497083"><ele>438.5</ele><time>2026-04-11T11:55:31.123Z</time></trkpt><trkpt lat="44.1494367" lon="11.6497367"><ele>436.6666666666667</ele><time>2026-04-11T11:55:32.124Z</time></trkpt><trkpt lat="44.1495233" lon="11.6497383"><ele>434.83333333333337</ele><time>2026-04-11T11:55:33.124Z</time></trkpt><trkpt lat="44.1495933" lon="11.6497133"><ele>433.0</ele><time>2026-04-11T11:55:34.124Z</time></trkpt><trkpt lat="44.1496533" lon="11.6496683"><ele>433.00000000000006</ele><time>2026-04-11T11:55:35.123Z</time></trkpt><trkpt lat="44.149695" lon="11.6495933"><ele>433.0</ele><time>2026-04-11T11:55:36.124Z</time></trkpt><trkpt lat="44.1497417" lon="11.6494933"><ele>433.0</ele><time>2026-04-11T11:55:37.124Z</time></trkpt><trkpt lat="44.1497933" lon="11.6493917"><ele>433.0</ele><time>2026-04-11T11:55:38.124Z</time></trkpt><trkpt lat="44.1498517" lon="11.649295"><ele>433.00000000000006</ele><time>2026-04-11T11:55:39.124Z</time></trkpt><trkpt lat="44.14992" lon="11.6491967"><ele>433.0</ele><time>2026-04-11T11:55:40.124Z</time></trkpt><trkpt lat="44.14999" lon="11.649085"><ele>437.59999999999997</ele><time>2026-04-11T11:55:41.124Z</time></trkpt><trkpt lat="44.15007" lon="11.6489683"><ele>442.19999999999993</ele><time>2026-04-11T11:55:42.124Z</time></trkpt><trkpt lat="44.150155" lon="11.648865"><ele>446.8</ele><time>2026-04-11T11:55:43.125Z</time></trkpt><trkpt lat="44.1502383" lon="11.6487867"><ele>451.4</ele><time>2026-04-11T11:55:44.124Z</time></trkpt><trkpt lat="44.1503067" lon="11.6487117"><ele>456.0</ele><time>2026-04-11T11:55:45.124Z</time></trkpt><trkpt lat="44.150365" lon="11.6486333"><ele>461.8</ele><time>2026-04-11T11:55:46.124Z</time></trkpt><trkpt lat="44.150425" lon="11.6485517"><ele>467.6</ele><time>2026-04-11T11:55:47.124Z</time></trkpt><trkpt lat="44.1504917" lon="11.648465"><ele>473.4</ele><time>2026-04-11T11:55:48.124Z</time></trkpt><trkpt lat="44.1505633" lon="11.64839"><ele>479.2</ele><time>2026-04-11T11:55:49.124Z</time></trkpt><trkpt lat="44.1506383" lon="11.6483183"><ele>485.0</ele><time>2026-04-11T11:55:50.124Z</time></trkpt><trkpt lat="44.150705" lon="11.6482233"><ele>480.6</ele><time>2026-04-11T11:55:51.124Z</time></trkpt><trkpt lat="44.1507567" lon="11.6481183"><ele>476.2</ele><time>2026-04-11T11:55:52.124Z</time></trkpt><trkpt lat="44.1508067" lon="11.6480283"><ele>471.79999999999995</ele><time>2026-04-11T11:55:53.123Z</time></trkpt><trkpt lat="44.1508517" lon="11.6479667"><ele>467.4</ele><time>2026-04-11T11:55:54.123Z</time></trkpt><trkpt lat="44.150955" lon="11.6479317"><ele>463.0</ele><time>2026-04-11T11:55:56.124Z</time></trkpt><trkpt lat="44.1510717" lon="11.64801"><ele>463.00000000000006</ele><time>2026-04-11T11:55:58.124Z</time></trkpt><trkpt lat="44.1511133" lon="11.6481"><ele>463.0</ele><time>2026-04-11T11:55:59.124Z</time></trkpt><trkpt lat="44.1511433" lon="11.648205"><ele>463.0</ele><time>2026-04-11T11:56:00.123Z</time></trkpt><trkpt lat="44.15116" lon="11.6483217"><ele>463.0</ele><time>2026-04-11T11:56:01.124Z</time></trkpt><trkpt lat="44.1511467" lon="11.6484267"><ele>463.00000000000006</ele><time>2026-04-11T11:56:02.124Z</time></trkpt><trkpt lat="44.1511133" lon="11.6485333"><ele>463.0</ele><time>2026-04-11T11:56:03.124Z</time></trkpt><trkpt lat="44.1510767" lon="11.6486467"><ele>462.0</ele><time>2026-04-11T11:56:04.124Z</time></trkpt><trkpt lat="44.1510383" lon="11.6487567"><ele>460.99999999999994</ele><time>2026-04-11T11:56:05.124Z</time></trkpt><trkpt lat="44.1509867" lon="11.64887"><ele>459.99999999999994</ele><time>2026-04-11T11:56:06.123Z</time></trkpt><trkpt lat="44.1509233" lon="11.64898"><ele>459.0</ele><time>2026-04-11T11:56:07.124Z</time></trkpt><trkpt lat="44.1508533" lon="11.649085"><ele>458.0</ele><time>2026-04-11T11:56:08.124Z</time></trkpt><trkpt lat="44.15079" lon="11.6491983"><ele>458.0</ele><time>2026-04-11T11:56:09.124Z</time></trkpt><trkpt lat="44.15073" lon="11.64932"><ele>457.99999999999994</ele><time>2026-04-11T11:56:10.124Z</time></trkpt><trkpt lat="44.1506733" lon="11.6494433"><ele>457.99999999999994</ele><time>2026-04-11T11:56:11.124Z</time></trkpt><trkpt lat="44.1506233" lon="11.649565"><ele>458.0</ele><time>2026-04-11T11:56:12.124Z</time></trkpt><trkpt lat="44.1505733" lon="11.64969"><ele>458.0</ele><time>2026-04-11T11:56:13.124Z</time></trkpt><trkpt lat="44.150515" lon="11.6497967"><ele>454.2</ele><time>2026-04-11T11:56:14.124Z</time></trkpt><trkpt lat="44.1504467" lon="11.6498867"><ele>450.4</ele><time>2026-04-11T11:56:15.125Z</time></trkpt><trkpt lat="44.15037" lon="11.6499667"><ele>446.59999999999997</ele><time>2026-04-11T11:56:16.123Z</time></trkpt><trkpt lat="44.1503" lon="11.6500517"><ele>442.79999999999995</ele><time>2026-04-11T11:56:17.124Z</time></trkpt><trkpt lat="44.1502383" lon="11.65015"><ele>439.0</ele><time>2026-04-11T11:56:18.124Z</time></trkpt><trkpt lat="44.1501783" lon="11.650235"><ele>437.79999999999995</ele><time>2026-04-11T11:56:19.124Z</time></trkpt><trkpt lat="44.1501333" lon="11.6503183"><ele>436.59999999999997</ele><time>2026-04-11T11:56:20.124Z</time></trkpt><trkpt lat="44.1501033" lon="11.650415"><ele>435.4</ele><time>2026-04-11T11:56:21.125Z</time></trkpt><trkpt lat="44.1500917" lon="11.650515"><ele>434.2</ele><time>2026-04-11T11:56:22.123Z</time></trkpt><trkpt lat="44.1501267" lon="11.6506683"><ele>433.0</ele><time>2026-04-11T11:56:24.124Z</time></trkpt><trkpt lat="44.15023" lon="11.650765"><ele>433.0</ele><time>2026-04-11T11:56:26.125Z</time></trkpt><trkpt lat="44.1503" lon="11.650785"><ele>432.99999999999994</ele><time>2026-04-11T11:56:27.124Z</time></trkpt><trkpt lat="44.15038" lon="11.65081"><ele>432.99999999999994</ele><time>2026-04-11T11:56:28.124Z</time></trkpt><trkpt lat="44.1504733" lon="11.65084"><ele>433.0</ele><time>2026-04-11T11:56:29.124Z</time></trkpt><trkpt lat="44.15057" lon="11.6508883"><ele>433.0</ele><time>2026-04-11T11:56:30.124Z</time></trkpt><trkpt lat="44.1506633" lon="11.65096"><ele>431.0</ele><time>2026-04-11T11:56:31.123Z</time></trkpt><trkpt lat="44.15076" lon="11.6510517"><ele>428.99999999999994</ele><time>2026-04-11T11:56:32.124Z</time></trkpt><trkpt lat="44.1508533" lon="11.6511383"><ele>427.0</ele><time>2026-04-11T11:56:33.125Z</time></trkpt><trkpt lat="44.1509333" lon="11.651225"><ele>425.0</ele><time>2026-04-11T11:56:34.124Z</time></trkpt><trkpt lat="44.15099" lon="11.6513117"><ele>423.0</ele><time>2026-04-11T11:56:35.124Z</time></trkpt><trkpt lat="44.1510333" lon="11.65142"><ele>423.0</ele><time>2026-04-11T11:56:36.124Z</time></trkpt><trkpt lat="44.1510767" lon="11.6515383"><ele>423.0</ele><time>2026-04-11T11:56:37.124Z</time></trkpt><trkpt lat="44.1511383" lon="11.6516417"><ele>423.0</ele><time>2026-04-11T11:56:38.124Z</time></trkpt><trkpt lat="44.1512217" lon="11.6517233"><ele>423.0</ele><time>2026-04-11T11:56:39.124Z</time></trkpt><trkpt lat="44.1513067" lon="11.65177"><ele>423.0</ele><time>2026-04-11T11:56:40.124Z</time></trkpt><trkpt lat="44.1513983" lon="11.65181"><ele>423.0</ele><time>2026-04-11T11:56:41.124Z</time></trkpt><trkpt lat="44.1514833" lon="11.6518433"><ele>423.0</ele><time>2026-04-11T11:56:42.124Z</time></trkpt><trkpt lat="44.1515617" lon="11.6518467"><ele>423.0</ele><time>2026-04-11T11:56:43.124Z</time></trkpt><trkpt lat="44.1516433" lon="11.6518317"><ele>423.0</ele><time>2026-04-11T11:56:44.124Z</time></trkpt><trkpt lat="44.151735" lon="11.65182"><ele>423.0</ele><time>2026-04-11T11:56:45.124Z</time></trkpt><trkpt lat="44.1518317" lon="11.6518167"><ele>423.0</ele><time>2026-04-11T11:56:46.124Z</time></trkpt><trkpt lat="44.15193" lon="11.6518217"><ele>420.59999999999997</ele><time>2026-04-11T11:56:47.124Z</time></trkpt><trkpt lat="44.1520167" lon="11.65185"><ele>418.2</ele><time>2026-04-11T11:56:48.124Z</time></trkpt><trkpt lat="44.1521" lon="11.6519183"><ele>415.8</ele><time>2026-04-11T11:56:49.123Z</time></trkpt><trkpt lat="44.152185" lon="11.6519767"><ele>413.4</ele><time>2026-04-11T11:56:50.124Z</time></trkpt><trkpt lat="44.15227" lon="11.6520167"><ele>411.0</ele><time>2026-04-11T11:56:51.124Z</time></trkpt><trkpt lat="44.1523533" lon="11.6520483"><ele>412.0</ele><time>2026-04-11T11:56:52.124Z</time></trkpt><trkpt lat="44.1524483" lon="11.6520683"><ele>413.0</ele><time>2026-04-11T11:56:53.124Z</time></trkpt><trkpt lat="44.1525483" lon="11.65209"><ele>414.0</ele><time>2026-04-11T11:56:54.124Z</time></trkpt><trkpt lat="44.1526533" lon="11.652115"><ele>415.0</ele><time>2026-04-11T11:56:55.124Z</time></trkpt><trkpt lat="44.1527533" lon="11.65213"><ele>416.0</ele><time>2026-04-11T11:56:56.125Z</time></trkpt><trkpt lat="44.1528533" lon="11.65214"><ele>415.99999999999994</ele><time>2026-04-11T11:56:57.124Z</time></trkpt><trkpt lat="44.1529533" lon="11.6521433"><ele>416.0</ele><time>2026-04-11T11:56:58.124Z</time></trkpt><trkpt lat="44.1530467" lon="11.65215"><ele>416.0</ele><time>2026-04-11T11:56:59.124Z</time></trkpt><trkpt lat="44.1531283" lon="11.6521617"><ele>416.0</ele><time>2026-04-11T11:57:00.123Z</time></trkpt><trkpt lat="44.1531967" lon="11.6521917"><ele>415.99999999999994</ele><time>2026-04-11T11:57:01.124Z</time></trkpt><trkpt lat="44.15324" lon="11.65227"><ele>416.0</ele><time>2026-04-11T11:57:03.124Z</time></trkpt><trkpt lat="44.1531683" lon="11.652335"><ele>415.99999999999994</ele><time>2026-04-11T11:57:05.124Z</time></trkpt><trkpt lat="44.1531033" lon="11.65238"><ele>416.0</ele><time>2026-04-11T11:57:06.124Z</time></trkpt><trkpt lat="44.1530283" lon="11.65242"><ele>416.0</ele><time>2026-04-11T11:57:07.124Z</time></trkpt><trkpt lat="44.1529483" lon="11.65247"><ele>416.0</ele><time>2026-04-11T11:57:08.125Z</time></trkpt><trkpt lat="44.152875" lon="11.6525267"><ele>415.99999999999994</ele><time>2026-04-11T11:57:09.124Z</time></trkpt><trkpt lat="44.1528067" lon="11.6525967"><ele>416.0</ele><time>2026-04-11T11:57:10.122Z</time></trkpt><trkpt lat="44.1527483" lon="11.652685"><ele>416.0</ele><time>2026-04-11T11:57:11.124Z</time></trkpt><trkpt lat="44.152715" lon="11.6527867"><ele>416.0</ele><time>2026-04-11T11:57:12.124Z</time></trkpt><trkpt lat="44.1526867" lon="11.6529067"><ele>416.0</ele><time>2026-04-11T11:57:13.124Z</time></trkpt><trkpt lat="44.152675" lon="11.65305"><ele>416.0</ele><time>2026-04-11T11:57:14.124Z</time></trkpt><trkpt lat="44.1526717" lon="11.653205"><ele>416.0</ele><time>2026-04-11T11:57:15.123Z</time></trkpt><trkpt lat="44.1526667" lon="11.6533733"><ele>414.25</ele><time>2026-04-11T11:57:16.124Z</time></trkpt><trkpt lat="44.1526517" lon="11.6535417"><ele>412.5</ele><time>2026-04-11T11:57:17.124Z</time></trkpt><trkpt lat="44.1526267" lon="11.653705"><ele>410.75</ele><time>2026-04-11T11:57:18.123Z</time></trkpt><trkpt lat="44.1525967" lon="11.6538667"><ele>409.0</ele><time>2026-04-11T11:57:19.125Z</time></trkpt><trkpt lat="44.152565" lon="11.654015"><ele>407.79999999999995</ele><time>2026-04-11T11:57:20.123Z</time></trkpt><trkpt lat="44.1525417" lon="11.65414"><ele>406.59999999999997</ele><time>2026-04-11T11:57:21.126Z</time></trkpt><trkpt lat="44.1525267" lon="11.6542683"><ele>405.4</ele><time>2026-04-11T11:57:22.124Z</time></trkpt><trkpt lat="44.1525467" lon="11.6543917"><ele>404.2</ele><time>2026-04-11T11:57:23.124Z</time></trkpt><trkpt lat="44.1525883" lon="11.6545267"><ele>403.0</ele><time>2026-04-11T11:57:24.124Z</time></trkpt><trkpt lat="44.1526367" lon="11.6546633"><ele>401.0</ele><time>2026-04-11T11:57:25.124Z</time></trkpt><trkpt lat="44.15269" lon="11.6548067"><ele>399.0</ele><time>2026-04-11T11:57:26.124Z</time></trkpt><trkpt lat="44.1527383" lon="11.654945"><ele>397.0</ele><time>2026-04-11T11:57:27.124Z</time></trkpt><trkpt lat="44.1527783" lon="11.6550567"><ele>395.0</ele><time>2026-04-11T11:57:28.124Z</time></trkpt><trkpt lat="44.15283" lon="11.6551517"><ele>393.0</ele><time>2026-04-11T11:57:29.124Z</time></trkpt><trkpt lat="44.1529067" lon="11.655215"><ele>393.0</ele><time>2026-04-11T11:57:30.124Z</time></trkpt><trkpt lat="44.1529867" lon="11.6552717"><ele>393.0</ele><time>2026-04-11T11:57:31.124Z</time></trkpt><trkpt lat="44.15304" lon="11.655345"><ele>393.0</ele><time>2026-04-11T11:57:32.124Z</time></trkpt><trkpt lat="44.15306" lon="11.6554417"><ele>393.0</ele><time>2026-04-11T11:57:33.124Z</time></trkpt><trkpt lat="44.153065" lon="11.6555417"><ele>393.0</ele><time>2026-04-11T11:57:34.125Z</time></trkpt><trkpt lat="44.1530517" lon="11.6556383"><ele>393.0</ele><time>2026-04-11T11:57:35.124Z</time></trkpt><trkpt lat="44.15302" lon="11.6557483"><ele>391.8333333333333</ele><time>2026-04-11T11:57:36.124Z</time></trkpt><trkpt lat="44.1529717" lon="11.6558667"><ele>390.66666666666663</ele><time>2026-04-11T11:57:37.124Z</time></trkpt><trkpt lat="44.152945" lon="11.65597"><ele>389.5</ele><time>2026-04-11T11:57:38.123Z</time></trkpt><trkpt lat="44.15294" lon="11.6560717"><ele>388.3333333333333</ele><time>2026-04-11T11:57:39.124Z</time></trkpt><trkpt lat="44.1529617" lon="11.6561667"><ele>387.16666666666663</ele><time>2026-04-11T11:57:40.125Z</time></trkpt><trkpt lat="44.15301" lon="11.6562733"><ele>386.0</ele><time>2026-04-11T11:57:41.125Z</time></trkpt><trkpt lat="44.1530733" lon="11.6563933"><ele>386.0</ele><time>2026-04-11T11:57:42.125Z</time></trkpt><trkpt lat="44.1531367" lon="11.65652"><ele>386.0</ele><time>2026-04-11T11:57:43.124Z</time></trkpt><trkpt lat="44.1531767" lon="11.6566533"><ele>386.0</ele><time>2026-04-11T11:57:44.124Z</time></trkpt><trkpt lat="44.1531983" lon="11.6567983"><ele>386.0</ele><time>2026-04-11T11:57:45.124Z</time></trkpt><trkpt lat="44.1532083" lon="11.6569433"><ele>386.0</ele><time>2026-04-11T11:57:46.123Z</time></trkpt><trkpt lat="44.1532133" lon="11.657065"><ele>386.0</ele><time>2026-04-11T11:57:47.124Z</time></trkpt><trkpt lat="44.1532167" lon="11.6571583"><ele>386.0</ele><time>2026-04-11T11:57:48.125Z</time></trkpt><trkpt lat="44.153225" lon="11.6572767"><ele>386.0</ele><time>2026-04-11T11:57:50.123Z</time></trkpt><trkpt lat="44.1532367" lon="11.6574383"><ele>386.0</ele><time>2026-04-11T11:59:06.124Z</time></trkpt><trkpt lat="44.153215" lon="11.6576017"><ele>386.0</ele><time>2026-04-11T11:59:50.124Z</time></trkpt><trkpt lat="44.1531917" lon="11.657725"><ele>385.8</ele><time>2026-04-11T11:59:51.126Z</time></trkpt><trkpt lat="44.153175" lon="11.6578583"><ele>385.6</ele><time>2026-04-11T11:59:52.124Z</time></trkpt><trkpt lat="44.1531833" lon="11.6580067"><ele>385.4</ele><time>2026-04-11T11:59:53.125Z</time></trkpt><trkpt lat="44.1532067" lon="11.6581683"><ele>385.2</ele><time>2026-04-11T11:59:54.125Z</time></trkpt><trkpt lat="44.1532333" lon="11.6583417"><ele>385.0</ele><time>2026-04-11T11:59:55.124Z</time></trkpt><trkpt lat="44.1532583" lon="11.658525"><ele>383.0</ele><time>2026-04-11T11:59:56.124Z</time></trkpt><trkpt lat="44.1532917" lon="11.6586917"><ele>381.0</ele><time>2026-04-11T11:59:57.124Z</time></trkpt><trkpt lat="44.1533267" lon="11.6588367"><ele>379.0</ele><time>2026-04-11T11:59:58.124Z</time></trkpt><trkpt lat="44.1533617" lon="11.65896"><ele>377.0</ele><time>2026-04-11T11:59:59.124Z</time></trkpt><trkpt lat="44.1534083" lon="11.6590617"><ele>375.0</ele><time>2026-04-11T12:00:00.124Z</time></trkpt><trkpt lat="44.153465" lon="11.6591417"><ele>375.0</ele><time>2026-04-11T12:00:01.124Z</time></trkpt><trkpt lat="44.1535417" lon="11.65922"><ele>375.0</ele><time>2026-04-11T12:00:02.124Z</time></trkpt><trkpt lat="44.1536417" lon="11.6592933"><ele>375.0</ele><time>2026-04-11T12:00:03.124Z</time></trkpt><trkpt lat="44.15375" lon="11.6593733"><ele>375.0</ele><time>2026-04-11T12:00:04.124Z</time></trkpt><trkpt lat="44.1538567" lon="11.659445"><ele>375.0</ele><time>2026-04-11T12:00:05.124Z</time></trkpt><trkpt lat="44.153955" lon="11.6595067"><ele>377.4</ele><time>2026-04-11T12:00:06.124Z</time></trkpt><trkpt lat="44.1540183" lon="11.6595717"><ele>379.8</ele><time>2026-04-11T12:00:07.124Z</time></trkpt><trkpt lat="44.15406" lon="11.65965"><ele>382.20000000000005</ele><time>2026-04-11T12:00:08.124Z</time></trkpt><trkpt lat="44.154045" lon="11.6597983"><ele>384.6</ele><time>2026-04-11T12:00:10.125Z</time></trkpt><trkpt lat="44.1539717" lon="11.6598133"><ele>387.0</ele><time>2026-04-11T12:00:13.125Z</time></trkpt><trkpt lat="44.153835" lon="11.659795"><ele>387.0</ele><time>2026-04-11T12:00:15.125Z</time></trkpt><trkpt lat="44.153725" lon="11.6597867"><ele>387.0</ele><time>2026-04-11T12:00:16.125Z</time></trkpt><trkpt lat="44.1536033" lon="11.6597767"><ele>387.0</ele><time>2026-04-11T12:00:17.125Z</time></trkpt><trkpt lat="44.1534883" lon="11.6597617"><ele>387.0</ele><time>2026-04-11T12:00:18.124Z</time></trkpt><trkpt lat="44.153385" lon="11.65974"><ele>387.0</ele><time>2026-04-11T12:00:19.124Z</time></trkpt><trkpt lat="44.1532833" lon="11.6597167"><ele>387.0</ele><time>2026-04-11T12:00:20.124Z</time></trkpt><trkpt lat="44.1531917" lon="11.6596883"><ele>387.0</ele><time>2026-04-11T12:00:21.124Z</time></trkpt><trkpt lat="44.1530983" lon="11.6596583"><ele>387.0</ele><time>2026-04-11T12:00:22.123Z</time></trkpt><trkpt lat="44.1530017" lon="11.6596417"><ele>387.0</ele><time>2026-04-11T12:00:23.124Z</time></trkpt><trkpt lat="44.1529083" lon="11.6596517"><ele>385.8</ele><time>2026-04-11T12:00:24.124Z</time></trkpt><trkpt lat="44.1528167" lon="11.6596783"><ele>384.6</ele><time>2026-04-11T12:00:25.124Z</time></trkpt><trkpt lat="44.1527283" lon="11.6597183"><ele>383.40000000000003</ele><time>2026-04-11T12:00:26.124Z</time></trkpt><trkpt lat="44.152635" lon="11.6597667"><ele>382.20000000000005</ele><time>2026-04-11T12:00:27.125Z</time></trkpt><trkpt lat="44.1525317" lon="11.6598083"><ele>381.0</ele><time>2026-04-11T12:00:28.124Z</time></trkpt><trkpt lat="44.1524333" lon="11.65984"><ele>376.8333333333333</ele><time>2026-04-11T12:00:29.124Z</time></trkpt><trkpt lat="44.152335" lon="11.65986"><ele>372.6666666666667</ele><time>2026-04-11T12:00:30.123Z</time></trkpt><trkpt lat="44.1522467" lon="11.6598533"><ele>368.5</ele><time>2026-04-11T12:00:31.124Z</time></trkpt><trkpt lat="44.1521633" lon="11.6598383"><ele>364.33333333333337</ele><time>2026-04-11T12:00:32.123Z</time></trkpt><trkpt lat="44.1520917" lon="11.65983"><ele>360.1666666666667</ele><time>2026-04-11T12:00:33.125Z</time></trkpt><trkpt lat="44.15202" lon="11.6598467"><ele>356.0</ele><time>2026-04-11T12:00:34.124Z</time></trkpt><trkpt lat="44.1519617" lon="11.6599"><ele>356.0</ele><time>2026-04-11T12:00:35.124Z</time></trkpt><trkpt lat="44.1519167" lon="11.6599733"><ele>356.0</ele><time>2026-04-11T12:00:36.124Z</time></trkpt><trkpt lat="44.1518883" lon="11.66007"><ele>356.0</ele><time>2026-04-11T12:00:37.123Z</time></trkpt><trkpt lat="44.1518533" lon="11.6601717"><ele>356.0</ele><time>2026-04-11T12:00:38.125Z</time></trkpt><trkpt lat="44.151805" lon="11.6602817"><ele>356.0</ele><time>2026-04-11T12:00:39.125Z</time></trkpt><trkpt lat="44.15175" lon="11.660405"><ele>356.0</ele><time>2026-04-11T12:00:40.124Z</time></trkpt><trkpt lat="44.15169" lon="11.6605333"><ele>355.20000000000005</ele><time>2026-04-11T12:00:41.123Z</time></trkpt><trkpt lat="44.15163" lon="11.66066"><ele>354.40000000000003</ele><time>2026-04-11T12:00:42.125Z</time></trkpt><trkpt lat="44.1515683" lon="11.6607733"><ele>353.6</ele><time>2026-04-11T12:00:43.124Z</time></trkpt><trkpt lat="44.1514917" lon="11.6608717"><ele>352.8</ele><time>2026-04-11T12:00:44.124Z</time></trkpt><trkpt lat="44.1514017" lon="11.660965"><ele>352.0</ele><time>2026-04-11T12:00:45.124Z</time></trkpt><trkpt lat="44.1513183" lon="11.6610467"><ele>352.0</ele><time>2026-04-11T12:00:46.125Z</time></trkpt><trkpt lat="44.1512433" lon="11.6611383"><ele>352.0</ele><time>2026-04-11T12:00:47.123Z</time></trkpt><trkpt lat="44.1511733" lon="11.6612167"><ele>352.0</ele><time>2026-04-11T12:00:48.124Z</time></trkpt><trkpt lat="44.151115" lon="11.6612917"><ele>352.0</ele><time>2026-04-11T12:00:49.124Z</time></trkpt><trkpt lat="44.1510683" lon="11.66137"><ele>352.0</ele><time>2026-04-11T12:00:50.124Z</time></trkpt><trkpt lat="44.1510333" lon="11.6614517"><ele>352.0</ele><time>2026-04-11T12:00:51.125Z</time></trkpt><trkpt lat="44.1510117" lon="11.6615367"><ele>352.0</ele><time>2026-04-11T12:00:52.124Z</time></trkpt><trkpt lat="44.1510067" lon="11.66163"><ele>352.0</ele><time>2026-04-11T12:00:53.124Z</time></trkpt><trkpt lat="44.1510117" lon="11.66174"><ele>352.0</ele><time>2026-04-11T12:00:54.124Z</time></trkpt><trkpt lat="44.1510233" lon="11.6618667"><ele>352.0</ele><time>2026-04-11T12:00:55.124Z</time></trkpt><trkpt lat="44.151035" lon="11.6620033"><ele>352.0</ele><time>2026-04-11T12:00:56.124Z</time></trkpt><trkpt lat="44.15104" lon="11.662135"><ele>352.0</ele><time>2026-04-11T12:00:57.124Z</time></trkpt><trkpt lat="44.1510333" lon="11.6622667"><ele>350.8</ele><time>2026-04-11T12:00:58.123Z</time></trkpt><trkpt lat="44.151005" lon="11.6623983"><ele>349.6</ele><time>2026-04-11T12:00:59.124Z</time></trkpt><trkpt lat="44.150965" lon="11.66254"><ele>348.40000000000003</ele><time>2026-04-11T12:01:00.124Z</time></trkpt><trkpt lat="44.1509217" lon="11.66269"><ele>347.20000000000005</ele><time>2026-04-11T12:01:01.124Z</time></trkpt><trkpt lat="44.15088" lon="11.6628333"><ele>346.0</ele><time>2026-04-11T12:01:02.124Z</time></trkpt><trkpt lat="44.1508517" lon="11.6629667"><ele>345.0</ele><time>2026-04-11T12:01:03.125Z</time></trkpt><trkpt lat="44.1508283" lon="11.6630983"><ele>344.0</ele><time>2026-04-11T12:01:04.124Z</time></trkpt><trkpt lat="44.1508183" lon="11.6632417"><ele>343.0</ele><time>2026-04-11T12:01:05.125Z</time></trkpt><trkpt lat="44.15081" lon="11.6633933"><ele>342.0</ele><time>2026-04-11T12:01:06.124Z</time></trkpt><trkpt lat="44.1508033" lon="11.6635417"><ele>341.0</ele><time>2026-04-11T12:01:07.123Z</time></trkpt><trkpt lat="44.1507933" lon="11.663685"><ele>340.0</ele><time>2026-04-11T12:01:08.124Z</time></trkpt><trkpt lat="44.1507767" lon="11.66383"><ele>339.0</ele><time>2026-04-11T12:01:09.124Z</time></trkpt><trkpt lat="44.1507683" lon="11.6639633"><ele>338.0</ele><time>2026-04-11T12:01:10.124Z</time></trkpt><trkpt lat="44.15078" lon="11.6640833"><ele>337.0</ele><time>2026-04-11T12:01:11.125Z</time></trkpt><trkpt lat="44.15081" lon="11.664195"><ele>336.0</ele><time>2026-04-11T12:01:12.125Z</time></trkpt><trkpt lat="44.1508467" lon="11.6643183"><ele>336.0</ele><time>2026-04-11T12:01:13.125Z</time></trkpt><trkpt lat="44.150875" lon="11.664445"><ele>336.0</ele><time>2026-04-11T12:01:14.124Z</time></trkpt><trkpt lat="44.1508867" lon="11.6645783"><ele>336.0</ele><time>2026-04-11T12:01:15.125Z</time></trkpt><trkpt lat="44.150905" lon="11.6647167"><ele>336.0</ele><time>2026-04-11T12:01:16.124Z</time></trkpt><trkpt lat="44.1509383" lon="11.66485"><ele>336.0</ele><time>2026-04-11T12:01:17.124Z</time></trkpt><trkpt lat="44.1509783" lon="11.6649833"><ele>336.0</ele><time>2026-04-11T12:01:18.124Z</time></trkpt><trkpt lat="44.1510217" lon="11.665115"><ele>336.0</ele><time>2026-04-11T12:01:19.124Z</time></trkpt><trkpt lat="44.1510567" lon="11.6652483"><ele>336.0</ele><time>2026-04-11T12:01:20.124Z</time></trkpt><trkpt lat="44.15109" lon="11.66537"><ele>336.0</ele><time>2026-04-11T12:01:21.124Z</time></trkpt><trkpt lat="44.1511283" lon="11.665465"><ele>336.0</ele><time>2026-04-11T12:01:22.124Z</time></trkpt><trkpt lat="44.151175" lon="11.665545"><ele>336.4</ele><time>2026-04-11T12:01:23.125Z</time></trkpt><trkpt lat="44.1512333" lon="11.6656233"><ele>336.8</ele><time>2026-04-11T12:01:24.124Z</time></trkpt><trkpt lat="44.1513033" lon="11.6657033"><ele>337.2</ele><time>2026-04-11T12:01:25.124Z</time></trkpt><trkpt lat="44.1513617" lon="11.665775"><ele>337.59999999999997</ele><time>2026-04-11T12:01:26.124Z</time></trkpt><trkpt lat="44.1514017" lon="11.6659167"><ele>338.0</ele><time>2026-04-11T12:01:28.124Z</time></trkpt><trkpt lat="44.1514017" lon="11.6660683"><ele>335.83333333333337</ele><time>2026-04-11T12:01:30.124Z</time></trkpt><trkpt lat="44.1514283" lon="11.6661583"><ele>333.6666666666667</ele><time>2026-04-11T12:01:32.124Z</time></trkpt><trkpt lat="44.1515367" lon="11.66627"><ele>331.5</ele><time>2026-04-11T12:01:34.124Z</time></trkpt><trkpt lat="44.1515983" lon="11.66634"><ele>329.3333333333333</ele><time>2026-04-11T12:01:35.124Z</time></trkpt><trkpt lat="44.1516533" lon="11.6664333"><ele>327.16666666666663</ele><time>2026-04-11T12:01:36.124Z</time></trkpt><trkpt lat="44.1516883" lon="11.66653"><ele>325.0</ele><time>2026-04-11T12:01:37.124Z</time></trkpt><trkpt lat="44.1516933" lon="11.666635"><ele>325.0</ele><time>2026-04-11T12:01:38.124Z</time></trkpt><trkpt lat="44.151675" lon="11.6667467"><ele>325.0</ele><time>2026-04-11T12:01:39.124Z</time></trkpt><trkpt lat="44.1516444" lon="11.6668712"><ele>325.0</ele><time>2026-04-11T12:01:40.123Z</time></trkpt><trkpt lat="44.1516072" lon="11.6670132"><ele>325.0</ele><time>2026-04-11T12:01:41.124Z</time></trkpt><trkpt lat="44.1515739" lon="11.6671655"><ele>325.0</ele><time>2026-04-11T12:01:42.123Z</time></trkpt><trkpt lat="44.1515554" lon="11.6673139"><ele>325.2</ele><time>2026-04-11T12:01:43.124Z</time></trkpt><trkpt lat="44.1515573" lon="11.6674592"><ele>325.4</ele><time>2026-04-11T12:01:44.124Z</time></trkpt><trkpt lat="44.1515865" lon="11.667592"><ele>325.6</ele><time>2026-04-11T12:01:45.125Z</time></trkpt><trkpt lat="44.1516388" lon="11.6677038"><ele>325.8</ele><time>2026-04-11T12:01:46.124Z</time></trkpt><trkpt lat="44.1517118" lon="11.6678007"><ele>326.0</ele><time>2026-04-11T12:01:47.125Z</time></trkpt><trkpt lat="44.1517862" lon="11.667904"><ele>326.0</ele><time>2026-04-11T12:01:48.125Z</time></trkpt><trkpt lat="44.1518476" lon="11.6680092"><ele>326.0</ele><time>2026-04-11T12:01:49.124Z</time></trkpt><trkpt lat="44.1518923" lon="11.6681215"><ele>326.0</ele><time>2026-04-11T12:01:50.124Z</time></trkpt><trkpt lat="44.1519194" lon="11.6682438"><ele>326.0</ele><time>2026-04-11T12:01:51.124Z</time></trkpt><trkpt lat="44.1519285" lon="11.6683733"><ele>326.0</ele><time>2026-04-11T12:01:52.123Z</time></trkpt><trkpt lat="44.1519164" lon="11.6685154"><ele>324.25</ele><time>2026-04-11T12:01:53.124Z</time></trkpt><trkpt lat="44.1518849" lon="11.6686671"><ele>322.5</ele><time>2026-04-11T12:01:54.124Z</time></trkpt><trkpt lat="44.1518379" lon="11.6688238"><ele>320.75</ele><time>2026-04-11T12:01:55.125Z</time></trkpt><trkpt lat="44.1517922" lon="11.6689765"><ele>319.0</ele><time>2026-04-11T12:01:56.124Z</time></trkpt><trkpt lat="44.1517474" lon="11.6691078"><ele>319.0</ele><time>2026-04-11T12:01:57.124Z</time></trkpt><trkpt lat="44.1517033" lon="11.6692038"><ele>319.0</ele><time>2026-04-11T12:01:58.124Z</time></trkpt><trkpt lat="44.1516028" lon="11.6692868"><ele>319.0</ele><time>2026-04-11T12:02:00.124Z</time></trkpt><trkpt lat="44.1515374" lon="11.6692988"><ele>319.0</ele><time>2026-04-11T12:02:01.124Z</time></trkpt><trkpt lat="44.1514589" lon="11.6693092"><ele>319.0</ele><time>2026-04-11T12:02:02.125Z</time></trkpt><trkpt lat="44.1513701" lon="11.6693294"><ele>319.0</ele><time>2026-04-11T12:02:03.124Z</time></trkpt><trkpt lat="44.1512776" lon="11.6693662"><ele>316.25</ele><time>2026-04-11T12:02:04.124Z</time></trkpt><trkpt lat="44.1511791" lon="11.669418"><ele>313.5</ele><time>2026-04-11T12:02:05.124Z</time></trkpt><trkpt lat="44.1510807" lon="11.6694783"><ele>310.75</ele><time>2026-04-11T12:02:06.124Z</time></trkpt><trkpt lat="44.1509793" lon="11.6695568"><ele>308.0</ele><time>2026-04-11T12:02:07.124Z</time></trkpt><trkpt lat="44.1508757" lon="11.669647"><ele>308.0</ele><time>2026-04-11T12:02:08.124Z</time></trkpt><trkpt lat="44.1507747" lon="11.6697347"><ele>308.0</ele><time>2026-04-11T12:02:09.123Z</time></trkpt><trkpt lat="44.1506803" lon="11.6698143"><ele>308.0</ele><time>2026-04-11T12:02:10.124Z</time></trkpt><trkpt lat="44.1506049" lon="11.6698861"><ele>308.0</ele><time>2026-04-11T12:02:11.124Z</time></trkpt><trkpt lat="44.1505491" lon="11.6699771"><ele>308.0</ele><time>2026-04-11T12:02:12.124Z</time></trkpt><trkpt lat="44.1504945" lon="11.6700789"><ele>307.2</ele><time>2026-04-11T12:02:13.124Z</time></trkpt><trkpt lat="44.1504259" lon="11.6701809"><ele>306.4</ele><time>2026-04-11T12:02:14.124Z</time></trkpt><trkpt lat="44.1503457" lon="11.6702691"><ele>305.59999999999997</ele><time>2026-04-11T12:02:15.124Z</time></trkpt><trkpt lat="44.1502439" lon="11.6703475"><ele>304.8</ele><time>2026-04-11T12:02:16.124Z</time></trkpt><trkpt lat="44.1501325" lon="11.6704326"><ele>304.0</ele><time>2026-04-11T12:02:17.124Z</time></trkpt><trkpt lat="44.1500239" lon="11.6705137"><ele>304.0</ele><time>2026-04-11T12:02:18.124Z</time></trkpt><trkpt lat="44.1499208" lon="11.6705727"><ele>304.0</ele><time>2026-04-11T12:02:19.124Z</time></trkpt><trkpt lat="44.1498259" lon="11.6706136"><ele>304.0</ele><time>2026-04-11T12:02:20.124Z</time></trkpt><trkpt lat="44.1497469" lon="11.6706575"><ele>304.0</ele><time>2026-04-11T12:02:21.125Z</time></trkpt><trkpt lat="44.1496943" lon="11.6707186"><ele>304.0</ele><time>2026-04-11T12:02:22.124Z</time></trkpt><trkpt lat="44.1496482" lon="11.6707971"><ele>304.0</ele><time>2026-04-11T12:02:23.124Z</time></trkpt><trkpt lat="44.149626" lon="11.6709007"><ele>308.25</ele><time>2026-04-11T12:02:24.123Z</time></trkpt><trkpt lat="44.1496246" lon="11.6710308"><ele>312.5</ele><time>2026-04-11T12:02:25.123Z</time></trkpt><trkpt lat="44.1496427" lon="11.6711835"><ele>316.75</ele><time>2026-04-11T12:02:26.124Z</time></trkpt><trkpt lat="44.1496715" lon="11.6713507"><ele>321.0</ele><time>2026-04-11T12:02:27.124Z</time></trkpt><trkpt lat="44.1497" lon="11.671545"><ele>324.75</ele><time>2026-04-11T12:02:28.124Z</time></trkpt><trkpt lat="44.149725" lon="11.6717367"><ele>328.5</ele><time>2026-04-11T12:02:29.124Z</time></trkpt><trkpt lat="44.1497417" lon="11.6719417"><ele>332.25</ele><time>2026-04-11T12:02:30.124Z</time></trkpt><trkpt lat="44.1497583" lon="11.6721517"><ele>336.0</ele><time>2026-04-11T12:02:31.124Z</time></trkpt><trkpt lat="44.14978" lon="11.67235"><ele>337.5</ele><time>2026-04-11T12:02:32.124Z</time></trkpt><trkpt lat="44.1498017" lon="11.6725467"><ele>339.0</ele><time>2026-04-11T12:02:33.124Z</time></trkpt><trkpt lat="44.149825" lon="11.672745"><ele>340.5</ele><time>2026-04-11T12:02:34.124Z</time></trkpt><trkpt lat="44.1498567" lon="11.6729433"><ele>342.0</ele><time>2026-04-11T12:02:35.124Z</time></trkpt><trkpt lat="44.1498983" lon="11.6731417"><ele>332.3333333333333</ele><time>2026-04-11T12:02:36.123Z</time></trkpt><trkpt lat="44.149945" lon="11.6733383"><ele>322.66666666666663</ele><time>2026-04-11T12:02:37.124Z</time></trkpt><trkpt lat="44.149995" lon="11.6735383"><ele>313.0</ele><time>2026-04-11T12:02:38.125Z</time></trkpt><trkpt lat="44.1500433" lon="11.6737483"><ele>313.0</ele><time>2026-04-11T12:02:39.125Z</time></trkpt><trkpt lat="44.1501" lon="11.67396"><ele>313.0</ele><time>2026-04-11T12:02:40.124Z</time></trkpt><trkpt lat="44.150145" lon="11.6741517"><ele>313.0</ele><time>2026-04-11T12:02:41.124Z</time></trkpt><trkpt lat="44.15019" lon="11.6743267"><ele>313.0</ele><time>2026-04-11T12:02:42.124Z</time></trkpt><trkpt lat="44.150235" lon="11.6744883"><ele>315.0</ele><time>2026-04-11T12:02:43.123Z</time></trkpt><trkpt lat="44.1502833" lon="11.6746533"><ele>317.0</ele><time>2026-04-11T12:02:44.124Z</time></trkpt><trkpt lat="44.1503233" lon="11.6748267"><ele>319.0</ele><time>2026-04-11T12:02:45.124Z</time></trkpt><trkpt lat="44.1503533" lon="11.674985"><ele>321.0</ele><time>2026-04-11T12:02:46.124Z</time></trkpt><trkpt lat="44.15037" lon="11.675145"><ele>320.5</ele><time>2026-04-11T12:02:47.124Z</time></trkpt><trkpt lat="44.15037" lon="11.6753167"><ele>320.0</ele><time>2026-04-11T12:02:48.124Z</time></trkpt><trkpt lat="44.1503733" lon="11.6754867"><ele>319.5</ele><time>2026-04-11T12:02:49.124Z</time></trkpt><trkpt lat="44.1503683" lon="11.6756417"><ele>319.0</ele><time>2026-04-11T12:02:50.123Z</time></trkpt><trkpt lat="44.1503583" lon="11.6757933"><ele>319.0</ele><time>2026-04-11T12:02:51.125Z</time></trkpt><trkpt lat="44.150355" lon="11.6759567"><ele>319.0</ele><time>2026-04-11T12:02:52.123Z</time></trkpt><trkpt lat="44.150355" lon="11.67611"><ele>319.0</ele><time>2026-04-11T12:02:53.124Z</time></trkpt><trkpt lat="44.1503533" lon="11.6762567"><ele>319.0</ele><time>2026-04-11T12:02:54.124Z</time></trkpt><trkpt lat="44.15035" lon="11.6764017"><ele>319.0</ele><time>2026-04-11T12:02:55.124Z</time></trkpt><trkpt lat="44.1503517" lon="11.6765583"><ele>317.0</ele><time>2026-04-11T12:02:56.124Z</time></trkpt><trkpt lat="44.1503533" lon="11.6767267"><ele>315.0</ele><time>2026-04-11T12:02:57.124Z</time></trkpt><trkpt lat="44.1503533" lon="11.6768933"><ele>313.0</ele><time>2026-04-11T12:02:58.124Z</time></trkpt><trkpt lat="44.1503367" lon="11.6770483"><ele>311.0</ele><time>2026-04-11T12:02:59.124Z</time></trkpt><trkpt lat="44.15031" lon="11.67719"><ele>308.8</ele><time>2026-04-11T12:03:00.124Z</time></trkpt><trkpt lat="44.1502817" lon="11.6773167"><ele>306.6</ele><time>2026-04-11T12:03:01.125Z</time></trkpt><trkpt lat="44.1502533" lon="11.67744"><ele>304.4</ele><time>2026-04-11T12:03:02.124Z</time></trkpt><trkpt lat="44.1502217" lon="11.6775717"><ele>302.2</ele><time>2026-04-11T12:03:03.124Z</time></trkpt><trkpt lat="44.1501933" lon="11.6777083"><ele>300.0</ele><time>2026-04-11T12:03:04.123Z</time></trkpt><trkpt lat="44.1501683" lon="11.677845"><ele>297.6</ele><time>2026-04-11T12:03:05.123Z</time></trkpt><trkpt lat="44.1501383" lon="11.67798"><ele>295.2</ele><time>2026-04-11T12:03:06.126Z</time></trkpt><trkpt lat="44.1501083" lon="11.678105"><ele>292.8</ele><time>2026-04-11T12:03:07.124Z</time></trkpt><trkpt lat="44.1500683" lon="11.6782217"><ele>290.4</ele><time>2026-04-11T12:03:08.124Z</time></trkpt><trkpt lat="44.15003" lon="11.678335"><ele>288.0</ele><time>2026-04-11T12:03:09.124Z</time></trkpt><trkpt lat="44.1499867" lon="11.6784483"><ele>288.0</ele><time>2026-04-11T12:03:10.128Z</time></trkpt><trkpt lat="44.1499433" lon="11.6785483"><ele>288.0</ele><time>2026-04-11T12:03:11.124Z</time></trkpt><trkpt lat="44.1498917" lon="11.6786433"><ele>288.0</ele><time>2026-04-11T12:03:12.123Z</time></trkpt><trkpt lat="44.1498267" lon="11.6787367"><ele>288.0</ele><time>2026-04-11T12:03:13.124Z</time></trkpt><trkpt lat="44.149755" lon="11.6788217"><ele>288.0</ele><time>2026-04-11T12:03:14.125Z</time></trkpt><trkpt lat="44.1496817" lon="11.67892"><ele>289.0</ele><time>2026-04-11T12:03:15.124Z</time></trkpt><trkpt lat="44.149615" lon="11.6790467"><ele>290.0</ele><time>2026-04-11T12:03:16.124Z</time></trkpt><trkpt lat="44.1495567" lon="11.6791783"><ele>291.0</ele><time>2026-04-11T12:03:17.123Z</time></trkpt><trkpt lat="44.1495067" lon="11.679305"><ele>292.0</ele><time>2026-04-11T12:03:18.124Z</time></trkpt><trkpt lat="44.149465" lon="11.6794267"><ele>293.0</ele><time>2026-04-11T12:03:19.123Z</time></trkpt><trkpt lat="44.1494183" lon="11.679535"><ele>295.4</ele><time>2026-04-11T12:03:20.125Z</time></trkpt><trkpt lat="44.1493583" lon="11.6796367"><ele>297.8</ele><time>2026-04-11T12:03:21.124Z</time></trkpt><trkpt lat="44.149285" lon="11.679735"><ele>300.2</ele><time>2026-04-11T12:03:22.126Z</time></trkpt><trkpt lat="44.1491933" lon="11.67983"><ele>302.6</ele><time>2026-04-11T12:03:23.123Z</time></trkpt><trkpt lat="44.1491033" lon="11.67994"><ele>305.0</ele><time>2026-04-11T12:03:24.125Z</time></trkpt><trkpt lat="44.1490183" lon="11.6800617"><ele>305.0</ele><time>2026-04-11T12:03:25.125Z</time></trkpt><trkpt lat="44.1489417" lon="11.6801783"><ele>305.0</ele><time>2026-04-11T12:03:26.125Z</time></trkpt><trkpt lat="44.1488683" lon="11.6802983"><ele>305.0</ele><time>2026-04-11T12:03:27.124Z</time></trkpt><trkpt lat="44.148795" lon="11.6804233"><ele>305.0</ele><time>2026-04-11T12:03:28.124Z</time></trkpt><trkpt lat="44.14872" lon="11.6805483"><ele>301.75</ele><time>2026-04-11T12:03:29.123Z</time></trkpt><trkpt lat="44.1486333" lon="11.68067"><ele>298.5</ele><time>2026-04-11T12:03:30.124Z</time></trkpt><trkpt lat="44.14855" lon="11.6807883"><ele>295.25</ele><time>2026-04-11T12:03:31.124Z</time></trkpt><trkpt lat="44.1484833" lon="11.6809033"><ele>292.0</ele><time>2026-04-11T12:03:32.124Z</time></trkpt><trkpt lat="44.1484317" lon="11.6810317"><ele>290.2</ele><time>2026-04-11T12:03:33.124Z</time></trkpt><trkpt lat="44.148395" lon="11.6811783"><ele>288.4</ele><time>2026-04-11T12:03:34.124Z</time></trkpt><trkpt lat="44.1483783" lon="11.6813317"><ele>286.6</ele><time>2026-04-11T12:03:35.124Z</time></trkpt><trkpt lat="44.1483717" lon="11.681485"><ele>284.8</ele><time>2026-04-11T12:03:36.124Z</time></trkpt><trkpt lat="44.1483683" lon="11.6816417"><ele>283.0</ele><time>2026-04-11T12:03:37.125Z</time></trkpt><trkpt lat="44.1483633" lon="11.6818"><ele>282.4</ele><time>2026-04-11T12:03:38.124Z</time></trkpt><trkpt lat="44.148355" lon="11.6819583"><ele>281.8</ele><time>2026-04-11T12:03:39.124Z</time></trkpt><trkpt lat="44.148345" lon="11.6821033"><ele>281.2</ele><time>2026-04-11T12:03:40.124Z</time></trkpt><trkpt lat="44.1483383" lon="11.6822367"><ele>280.6</ele><time>2026-04-11T12:03:41.124Z</time></trkpt><trkpt lat="44.1483333" lon="11.68237"><ele>280.0</ele><time>2026-04-11T12:03:42.124Z</time></trkpt><trkpt lat="44.14833" lon="11.6825133"><ele>280.0</ele><time>2026-04-11T12:03:43.124Z</time></trkpt><trkpt lat="44.148325" lon="11.6826567"><ele>280.0</ele><time>2026-04-11T12:03:44.123Z</time></trkpt><trkpt lat="44.1483117" lon="11.6827967"><ele>280.0</ele><time>2026-04-11T12:03:45.124Z</time></trkpt><trkpt lat="44.1483" lon="11.682935"><ele>280.0</ele><time>2026-04-11T12:03:46.124Z</time></trkpt><trkpt lat="44.1482917" lon="11.6830883"><ele>280.0</ele><time>2026-04-11T12:03:47.123Z</time></trkpt><trkpt lat="44.1482783" lon="11.6832633"><ele>279.0</ele><time>2026-04-11T12:03:48.123Z</time></trkpt><trkpt lat="44.1482633" lon="11.6834533"><ele>278.0</ele><time>2026-04-11T12:03:49.124Z</time></trkpt><trkpt lat="44.14825" lon="11.683655"><ele>277.0</ele><time>2026-04-11T12:03:50.124Z</time></trkpt><trkpt lat="44.148235" lon="11.68386"><ele>276.0</ele><time>2026-04-11T12:03:51.124Z</time></trkpt><trkpt lat="44.1482267" lon="11.684075"><ele>273.5</ele><time>2026-04-11T12:03:52.123Z</time></trkpt><trkpt lat="44.1482267" lon="11.6842767"><ele>271.0</ele><time>2026-04-11T12:03:53.125Z</time></trkpt><trkpt lat="44.148225" lon="11.6844767"><ele>268.5</ele><time>2026-04-11T12:03:54.124Z</time></trkpt><trkpt lat="44.1482233" lon="11.684665"><ele>266.0</ele><time>2026-04-11T12:03:55.124Z</time></trkpt><trkpt lat="44.1482167" lon="11.6848483"><ele>265.25</ele><time>2026-04-11T12:03:56.123Z</time></trkpt><trkpt lat="44.1482133" lon="11.685025"><ele>264.5</ele><time>2026-04-11T12:03:57.124Z</time></trkpt><trkpt lat="44.1482133" lon="11.6851933"><ele>263.75</ele><time>2026-04-11T12:03:58.124Z</time></trkpt><trkpt lat="44.1482233" lon="11.68536"><ele>263.0</ele><time>2026-04-11T12:03:59.124Z</time></trkpt><trkpt lat="44.1482533" lon="11.6855167"><ele>262.0</ele><time>2026-04-11T12:04:00.125Z</time></trkpt><trkpt lat="44.1482933" lon="11.6856583"><ele>261.0</ele><time>2026-04-11T12:04:01.124Z</time></trkpt><trkpt lat="44.1483233" lon="11.68579"><ele>260.0</ele><time>2026-04-11T12:04:02.124Z</time></trkpt><trkpt lat="44.1483317" lon="11.68592"><ele>259.0</ele><time>2026-04-11T12:04:03.124Z</time></trkpt><trkpt lat="44.148315" lon="11.6860617"><ele>258.0</ele><time>2026-04-11T12:04:04.122Z</time></trkpt><trkpt lat="44.148295" lon="11.686225"><ele>256.0</ele><time>2026-04-11T12:04:05.124Z</time></trkpt><trkpt lat="44.1482817" lon="11.6863917"><ele>254.0</ele><time>2026-04-11T12:04:06.124Z</time></trkpt><trkpt lat="44.148275" lon="11.686555"><ele>252.0</ele><time>2026-04-11T12:04:07.124Z</time></trkpt><trkpt lat="44.14827" lon="11.6867067"><ele>250.0</ele><time>2026-04-11T12:04:08.124Z</time></trkpt><trkpt lat="44.1482783" lon="11.6868533"><ele>248.4</ele><time>2026-04-11T12:04:09.125Z</time></trkpt><trkpt lat="44.1483017" lon="11.6869967"><ele>246.8</ele><time>2026-04-11T12:04:10.124Z</time></trkpt><trkpt lat="44.1483333" lon="11.6871367"><ele>245.2</ele><time>2026-04-11T12:04:11.126Z</time></trkpt><trkpt lat="44.1483567" lon="11.6872767"><ele>243.6</ele><time>2026-04-11T12:04:12.124Z</time></trkpt><trkpt lat="44.1483633" lon="11.6874233"><ele>242.0</ele><time>2026-04-11T12:04:13.124Z</time></trkpt><trkpt lat="44.148355" lon="11.6875667"><ele>242.0</ele><time>2026-04-11T12:04:14.124Z</time></trkpt><trkpt lat="44.1483283" lon="11.6877067"><ele>242.0</ele><time>2026-04-11T12:04:15.124Z</time></trkpt><trkpt lat="44.148285" lon="11.687855"><ele>242.0</ele><time>2026-04-11T12:04:16.124Z</time></trkpt><trkpt lat="44.148235" lon="11.6879967"><ele>242.0</ele><time>2026-04-11T12:04:17.124Z</time></trkpt><trkpt lat="44.1481817" lon="11.6881267"><ele>242.0</ele><time>2026-04-11T12:04:18.124Z</time></trkpt><trkpt lat="44.1481233" lon="11.6882483"><ele>240.2</ele><time>2026-04-11T12:04:19.124Z</time></trkpt><trkpt lat="44.14806" lon="11.68836"><ele>238.39999999999998</ele><time>2026-04-11T12:04:20.124Z</time></trkpt><trkpt lat="44.1479883" lon="11.6884583"><ele>236.60000000000002</ele><time>2026-04-11T12:04:21.123Z</time></trkpt><trkpt lat="44.147925" lon="11.6885367"><ele>234.8</ele><time>2026-04-11T12:04:22.124Z</time></trkpt><trkpt lat="44.1478683" lon="11.6886033"><ele>233.0</ele><time>2026-04-11T12:04:23.124Z</time></trkpt><trkpt lat="44.1477767" lon="11.6886817"><ele>233.0</ele><time>2026-04-11T12:04:25.124Z</time></trkpt><trkpt lat="44.1476767" lon="11.6886883"><ele>233.0</ele><time>2026-04-11T12:04:27.124Z</time></trkpt><trkpt lat="44.1476033" lon="11.6886467"><ele>233.0</ele><time>2026-04-11T12:04:28.124Z</time></trkpt><trkpt lat="44.1475167" lon="11.68858"><ele>233.0</ele><time>2026-04-11T12:04:29.124Z</time></trkpt><trkpt lat="44.1474183" lon="11.68847"><ele>233.0</ele><time>2026-04-11T12:04:30.124Z</time></trkpt><trkpt lat="44.1473233" lon="11.6883467"><ele>229.75</ele><time>2026-04-11T12:04:31.124Z</time></trkpt><trkpt lat="44.1472333" lon="11.6882133"><ele>226.5</ele><time>2026-04-11T12:04:32.124Z</time></trkpt><trkpt lat="44.14714" lon="11.6880817"><ele>223.25</ele><time>2026-04-11T12:04:33.123Z</time></trkpt><trkpt lat="44.1470483" lon="11.6879467"><ele>220.0</ele><time>2026-04-11T12:04:34.124Z</time></trkpt><trkpt lat="44.1469583" lon="11.6878033"><ele>223.5</ele><time>2026-04-11T12:04:35.124Z</time></trkpt><trkpt lat="44.1468683" lon="11.6876583"><ele>227.0</ele><time>2026-04-11T12:04:36.124Z</time></trkpt><trkpt lat="44.1467733" lon="11.6875133"><ele>230.5</ele><time>2026-04-11T12:04:37.124Z</time></trkpt><trkpt lat="44.14667" lon="11.6873717"><ele>234.0</ele><time>2026-04-11T12:04:38.124Z</time></trkpt><trkpt lat="44.14655" lon="11.6872367"><ele>235.66666666666669</ele><time>2026-04-11T12:04:39.125Z</time></trkpt><trkpt lat="44.1464083" lon="11.6871117"><ele>237.33333333333334</ele><time>2026-04-11T12:04:40.124Z</time></trkpt><trkpt lat="44.1462533" lon="11.6869933"><ele>239.0</ele><time>2026-04-11T12:04:41.124Z</time></trkpt><trkpt lat="44.14609" lon="11.6868783"><ele>239.0</ele><time>2026-04-11T12:04:42.124Z</time></trkpt><trkpt lat="44.1459167" lon="11.6867583"><ele>239.0</ele><time>2026-04-11T12:04:43.124Z</time></trkpt><trkpt lat="44.1457333" lon="11.68664"><ele>239.0</ele><time>2026-04-11T12:04:44.124Z</time></trkpt><trkpt lat="44.145545" lon="11.68652"><ele>235.33333333333334</ele><time>2026-04-11T12:04:45.124Z</time></trkpt><trkpt lat="44.145355" lon="11.6863967"><ele>231.66666666666669</ele><time>2026-04-11T12:04:46.124Z</time></trkpt><trkpt lat="44.1451583" lon="11.6862667"><ele>228.0</ele><time>2026-04-11T12:04:47.124Z</time></trkpt><trkpt lat="44.1449567" lon="11.6861367"><ele>231.5</ele><time>2026-04-11T12:04:48.124Z</time></trkpt><trkpt lat="44.1447533" lon="11.6860067"><ele>235.0</ele><time>2026-04-11T12:04:49.125Z</time></trkpt><trkpt lat="44.1445467" lon="11.6858767"><ele>235.0</ele><time>2026-04-11T12:04:50.124Z</time></trkpt><trkpt lat="44.1443433" lon="11.6857417"><ele>235.0</ele><time>2026-04-11T12:04:51.125Z</time></trkpt><trkpt lat="44.1441383" lon="11.6856117"><ele>233.33333333333331</ele><time>2026-04-11T12:04:52.124Z</time></trkpt><trkpt lat="44.1439433" lon="11.6854917"><ele>231.66666666666669</ele><time>2026-04-11T12:04:53.123Z</time></trkpt><trkpt lat="44.1437567" lon="11.6853833"><ele>230.0</ele><time>2026-04-11T12:04:54.124Z</time></trkpt><trkpt lat="44.143575" lon="11.685295"><ele>232.66666666666669</ele><time>2026-04-11T12:04:55.124Z</time></trkpt><trkpt lat="44.143395" lon="11.6852267"><ele>235.33333333333331</ele><time>2026-04-11T12:04:56.123Z</time></trkpt><trkpt lat="44.1432083" lon="11.6851783"><ele>238.0</ele><time>2026-04-11T12:04:57.124Z</time></trkpt><trkpt lat="44.143015" lon="11.6851417"><ele>238.0</ele><time>2026-04-11T12:04:58.124Z</time></trkpt><trkpt lat="44.1428183" lon="11.6851083"><ele>238.0</ele><time>2026-04-11T12:04:59.124Z</time></trkpt><trkpt lat="44.1426167" lon="11.6850783"><ele>238.0</ele><time>2026-04-11T12:05:00.124Z</time></trkpt><trkpt lat="44.142415" lon="11.6850433"><ele>238.33333333333331</ele><time>2026-04-11T12:05:01.123Z</time></trkpt><trkpt lat="44.14221" lon="11.6850167"><ele>238.66666666666669</ele><time>2026-04-11T12:05:02.124Z</time></trkpt><trkpt lat="44.1420017" lon="11.6849967"><ele>239.0</ele><time>2026-04-11T12:05:03.124Z</time></trkpt><trkpt lat="44.1417933" lon="11.68498"><ele>239.0</ele><time>2026-04-11T12:05:04.124Z</time></trkpt><trkpt lat="44.1415833" lon="11.684965"><ele>239.0</ele><time>2026-04-11T12:05:05.124Z</time></trkpt><trkpt lat="44.141375" lon="11.6849517"><ele>239.0</ele><time>2026-04-11T12:05:06.124Z</time></trkpt><trkpt lat="44.1411633" lon="11.6849383"><ele>238.33333333333334</ele><time>2026-04-11T12:05:07.123Z</time></trkpt><trkpt lat="44.1409517" lon="11.6849233"><ele>237.66666666666669</ele><time>2026-04-11T12:05:08.124Z</time></trkpt><trkpt lat="44.1407417" lon="11.6848983"><ele>237.0</ele><time>2026-04-11T12:05:09.123Z</time></trkpt><trkpt lat="44.14053" lon="11.684865"><ele>236.66666666666669</ele><time>2026-04-11T12:05:10.124Z</time></trkpt><trkpt lat="44.1403217" lon="11.6848183"><ele>236.33333333333334</ele><time>2026-04-11T12:05:11.123Z</time></trkpt><trkpt lat="44.140115" lon="11.68475"><ele>236.0</ele><time>2026-04-11T12:05:12.123Z</time></trkpt><trkpt lat="44.1399133" lon="11.6846567"><ele>235.0</ele><time>2026-04-11T12:05:13.124Z</time></trkpt><trkpt lat="44.1397167" lon="11.68454"><ele>234.0</ele><time>2026-04-11T12:05:14.124Z</time></trkpt><trkpt lat="44.1395233" lon="11.6844083"><ele>233.0</ele><time>2026-04-11T12:05:15.123Z</time></trkpt><trkpt lat="44.13933" lon="11.6842767"><ele>235.0</ele><time>2026-04-11T12:05:16.124Z</time></trkpt><trkpt lat="44.1391367" lon="11.6841483"><ele>237.0</ele><time>2026-04-11T12:05:17.124Z</time></trkpt><trkpt lat="44.1389383" lon="11.6840367"><ele>239.0</ele><time>2026-04-11T12:05:18.125Z</time></trkpt><trkpt lat="44.1387383" lon="11.6839383"><ele>239.0</ele><time>2026-04-11T12:05:19.124Z</time></trkpt><trkpt lat="44.1385367" lon="11.6838483"><ele>239.0</ele><time>2026-04-11T12:05:20.123Z</time></trkpt><trkpt lat="44.13833" lon="11.68376"><ele>239.0</ele><time>2026-04-11T12:05:21.124Z</time></trkpt><trkpt lat="44.13812" lon="11.6836733"><ele>237.33333333333334</ele><time>2026-04-11T12:05:22.124Z</time></trkpt><trkpt lat="44.137905" lon="11.6836"><ele>235.66666666666669</ele><time>2026-04-11T12:05:23.124Z</time></trkpt><trkpt lat="44.137695" lon="11.68354"><ele>234.0</ele><time>2026-04-11T12:05:24.124Z</time></trkpt><trkpt lat="44.1374967" lon="11.6834967"><ele>235.66666666666669</ele><time>2026-04-11T12:05:25.124Z</time></trkpt><trkpt lat="44.137305" lon="11.6834567"><ele>237.33333333333334</ele><time>2026-04-11T12:05:26.124Z</time></trkpt><trkpt lat="44.1371217" lon="11.6834"><ele>239.0</ele><time>2026-04-11T12:05:27.123Z</time></trkpt><trkpt lat="44.1369533" lon="11.683315"><ele>239.0</ele><time>2026-04-11T12:05:28.124Z</time></trkpt><trkpt lat="44.1367933" lon="11.6832167"><ele>239.0</ele><time>2026-04-11T12:05:29.123Z</time></trkpt><trkpt lat="44.1366333" lon="11.6831"><ele>239.0</ele><time>2026-04-11T12:05:30.124Z</time></trkpt><trkpt lat="44.13647" lon="11.6829733"><ele>240.66666666666669</ele><time>2026-04-11T12:05:31.124Z</time></trkpt><trkpt lat="44.1363" lon="11.6828433"><ele>242.33333333333331</ele><time>2026-04-11T12:05:32.124Z</time></trkpt><trkpt lat="44.1361233" lon="11.6827267"><ele>244.0</ele><time>2026-04-11T12:05:33.124Z</time></trkpt><trkpt lat="44.1359333" lon="11.6826333"><ele>244.0</ele><time>2026-04-11T12:05:34.124Z</time></trkpt><trkpt lat="44.13574" lon="11.682555"><ele>244.0</ele><time>2026-04-11T12:05:35.124Z</time></trkpt><trkpt lat="44.1355383" lon="11.6824883"><ele>244.0</ele><time>2026-04-11T12:05:36.123Z</time></trkpt><trkpt lat="44.1353367" lon="11.682435"><ele>242.33333333333331</ele><time>2026-04-11T12:05:37.124Z</time></trkpt><trkpt lat="44.1351417" lon="11.6824"><ele>240.66666666666669</ele><time>2026-04-11T12:05:38.124Z</time></trkpt><trkpt lat="44.1349567" lon="11.6823917"><ele>239.0</ele><time>2026-04-11T12:05:39.124Z</time></trkpt><trkpt lat="44.1347867" lon="11.6823817"><ele>236.75</ele><time>2026-04-11T12:05:40.124Z</time></trkpt><trkpt lat="44.1346367" lon="11.6823533"><ele>234.5</ele><time>2026-04-11T12:05:41.123Z</time></trkpt><trkpt lat="44.1344933" lon="11.6822967"><ele>232.25</ele><time>2026-04-11T12:05:42.124Z</time></trkpt><trkpt lat="44.1343617" lon="11.6822133"><ele>230.0</ele><time>2026-04-11T12:05:43.123Z</time></trkpt><trkpt lat="44.1342317" lon="11.68212"><ele>230.0</ele><time>2026-04-11T12:05:44.124Z</time></trkpt><trkpt lat="44.1341183" lon="11.682025"><ele>230.0</ele><time>2026-04-11T12:05:45.123Z</time></trkpt><trkpt lat="44.13403" lon="11.6819117"><ele>230.0</ele><time>2026-04-11T12:05:46.123Z</time></trkpt><trkpt lat="44.13397" lon="11.68178"><ele>230.0</ele><time>2026-04-11T12:05:47.124Z</time></trkpt><trkpt lat="44.1339233" lon="11.6816283"><ele>229.75</ele><time>2026-04-11T12:05:48.124Z</time></trkpt><trkpt lat="44.13387" lon="11.6814517"><ele>229.5</ele><time>2026-04-11T12:05:49.124Z</time></trkpt><trkpt lat="44.133805" lon="11.6812717"><ele>229.25</ele><time>2026-04-11T12:05:50.123Z</time></trkpt><trkpt lat="44.13371" lon="11.6811017"><ele>229.0</ele><time>2026-04-11T12:05:51.125Z</time></trkpt><trkpt lat="44.1335883" lon="11.6809467"><ele>230.0</ele><time>2026-04-11T12:05:52.124Z</time></trkpt><trkpt lat="44.1334483" lon="11.6807967"><ele>231.0</ele><time>2026-04-11T12:05:53.124Z</time></trkpt><trkpt lat="44.133305" lon="11.6806433"><ele>232.0</ele><time>2026-04-11T12:05:54.124Z</time></trkpt><trkpt lat="44.13316" lon="11.6804967"><ele>232.0</ele><time>2026-04-11T12:05:55.123Z</time></trkpt><trkpt lat="44.1330133" lon="11.6803783"><ele>232.0</ele><time>2026-04-11T12:05:56.124Z</time></trkpt><trkpt lat="44.1328583" lon="11.6803067"><ele>232.0</ele><time>2026-04-11T12:05:57.124Z</time></trkpt><trkpt lat="44.1326867" lon="11.68027"><ele>237.66666666666666</ele><time>2026-04-11T12:05:58.124Z</time></trkpt><trkpt lat="44.1325" lon="11.6802483"><ele>243.33333333333331</ele><time>2026-04-11T12:05:59.125Z</time></trkpt><trkpt lat="44.1323083" lon="11.68022"><ele>249.0</ele><time>2026-04-11T12:06:00.123Z</time></trkpt><trkpt lat="44.1321117" lon="11.6801967"><ele>249.66666666666669</ele><time>2026-04-11T12:06:01.124Z</time></trkpt><trkpt lat="44.1319133" lon="11.6801733"><ele>250.33333333333334</ele><time>2026-04-11T12:06:02.124Z</time></trkpt><trkpt lat="44.131715" lon="11.680185"><ele>251.0</ele><time>2026-04-11T12:06:03.124Z</time></trkpt><trkpt lat="44.1315183" lon="11.68025"><ele>248.0</ele><time>2026-04-11T12:06:04.124Z</time></trkpt><trkpt lat="44.1313267" lon="11.6803483"><ele>245.0</ele><time>2026-04-11T12:06:05.124Z</time></trkpt><trkpt lat="44.1311383" lon="11.6804717"><ele>242.0</ele><time>2026-04-11T12:06:06.125Z</time></trkpt><trkpt lat="44.1309517" lon="11.6806117"><ele>242.0</ele><time>2026-04-11T12:06:07.124Z</time></trkpt><trkpt lat="44.13077" lon="11.6807567"><ele>242.0</ele><time>2026-04-11T12:06:08.124Z</time></trkpt><trkpt lat="44.1306017" lon="11.6808883"><ele>242.0</ele><time>2026-04-11T12:06:09.125Z</time></trkpt><trkpt lat="44.1304467" lon="11.6810033"><ele>241.66666666666669</ele><time>2026-04-11T12:06:10.124Z</time></trkpt><trkpt lat="44.1302933" lon="11.681095"><ele>241.33333333333331</ele><time>2026-04-11T12:06:11.124Z</time></trkpt><trkpt lat="44.130135" lon="11.681155"><ele>241.0</ele><time>2026-04-11T12:06:12.124Z</time></trkpt><trkpt lat="44.1299633" lon="11.6811733"><ele>238.66666666666666</ele><time>2026-04-11T12:06:13.126Z</time></trkpt><trkpt lat="44.1297867" lon="11.681155"><ele>236.33333333333331</ele><time>2026-04-11T12:06:14.124Z</time></trkpt><trkpt lat="44.1296017" lon="11.6811167"><ele>234.0</ele><time>2026-04-11T12:06:15.124Z</time></trkpt><trkpt lat="44.1294217" lon="11.6810717"><ele>235.33333333333331</ele><time>2026-04-11T12:06:16.127Z</time></trkpt><trkpt lat="44.1292517" lon="11.6810133"><ele>236.66666666666666</ele><time>2026-04-11T12:06:17.124Z</time></trkpt><trkpt lat="44.129095" lon="11.6809217"><ele>238.0</ele><time>2026-04-11T12:06:18.124Z</time></trkpt><trkpt lat="44.128955" lon="11.6808083"><ele>238.0</ele><time>2026-04-11T12:06:19.124Z</time></trkpt><trkpt lat="44.128835" lon="11.68067"><ele>238.0</ele><time>2026-04-11T12:06:20.124Z</time></trkpt><trkpt lat="44.12873" lon="11.6804917"><ele>238.0</ele><time>2026-04-11T12:06:21.124Z</time></trkpt><trkpt lat="44.1286517" lon="11.68027"><ele>240.33333333333331</ele><time>2026-04-11T12:06:22.124Z</time></trkpt><trkpt lat="44.12856" lon="11.6800483"><ele>242.66666666666669</ele><time>2026-04-11T12:06:23.123Z</time></trkpt><trkpt lat="44.1284567" lon="11.679855"><ele>245.0</ele><time>2026-04-11T12:06:24.126Z</time></trkpt><trkpt lat="44.1283417" lon="11.67969"><ele>243.33333333333334</ele><time>2026-04-11T12:06:25.124Z</time></trkpt><trkpt lat="44.1282083" lon="11.6795633"><ele>241.66666666666669</ele><time>2026-04-11T12:06:26.123Z</time></trkpt><trkpt lat="44.1280533" lon="11.6794633"><ele>240.0</ele><time>2026-04-11T12:06:27.124Z</time></trkpt><trkpt lat="44.1278817" lon="11.6793983"><ele>243.0</ele><time>2026-04-11T12:06:28.124Z</time></trkpt><trkpt lat="44.1277" lon="11.67937"><ele>246.0</ele><time>2026-04-11T12:06:29.124Z</time></trkpt><trkpt lat="44.1275067" lon="11.679375"><ele>249.0</ele><time>2026-04-11T12:06:30.124Z</time></trkpt><trkpt lat="44.1273183" lon="11.6794133"><ele>249.0</ele><time>2026-04-11T12:06:31.123Z</time></trkpt><trkpt lat="44.1271417" lon="11.6794517"><ele>249.0</ele><time>2026-04-11T12:06:32.124Z</time></trkpt><trkpt lat="44.1269667" lon="11.6794483"><ele>249.0</ele><time>2026-04-11T12:06:33.125Z</time></trkpt><trkpt lat="44.12679" lon="11.6794133"><ele>249.0</ele><time>2026-04-11T12:06:34.123Z</time></trkpt><trkpt lat="44.12661" lon="11.679355"><ele>249.0</ele><time>2026-04-11T12:06:35.124Z</time></trkpt><trkpt lat="44.1264317" lon="11.6792967"><ele>249.0</ele><time>2026-04-11T12:06:36.123Z</time></trkpt><trkpt lat="44.1262583" lon="11.6792783"><ele>248.0</ele><time>2026-04-11T12:06:37.123Z</time></trkpt><trkpt lat="44.1260983" lon="11.679295"><ele>247.0</ele><time>2026-04-11T12:06:38.124Z</time></trkpt><trkpt lat="44.125945" lon="11.679355"><ele>246.0</ele><time>2026-04-11T12:06:39.124Z</time></trkpt><trkpt lat="44.1258033" lon="11.6794333"><ele>240.33333333333331</ele><time>2026-04-11T12:06:40.124Z</time></trkpt><trkpt lat="44.1256633" lon="11.67949"><ele>234.66666666666666</ele><time>2026-04-11T12:06:41.124Z</time></trkpt><trkpt lat="44.1255083" lon="11.67951"><ele>229.0</ele><time>2026-04-11T12:06:42.123Z</time></trkpt><trkpt lat="44.1253417" lon="11.6794833"><ele>230.33333333333331</ele><time>2026-04-11T12:06:43.124Z</time></trkpt><trkpt lat="44.1251683" lon="11.6794017"><ele>231.66666666666669</ele><time>2026-04-11T12:06:44.123Z</time></trkpt><trkpt lat="44.1249967" lon="11.6792767"><ele>233.0</ele><time>2026-04-11T12:06:45.124Z</time></trkpt><trkpt lat="44.124815" lon="11.679135"><ele>233.0</ele><time>2026-04-11T12:06:46.123Z</time></trkpt><trkpt lat="44.1246233" lon="11.67899"><ele>233.0</ele><time>2026-04-11T12:06:47.125Z</time></trkpt><trkpt lat="44.12443" lon="11.6788483"><ele>233.0</ele><time>2026-04-11T12:06:48.125Z</time></trkpt><trkpt lat="44.1242517" lon="11.6787167"><ele>233.0</ele><time>2026-04-11T12:06:49.124Z</time></trkpt><trkpt lat="44.1240933" lon="11.678605"><ele>233.0</ele><time>2026-04-11T12:06:50.123Z</time></trkpt><trkpt lat="44.1239667" lon="11.6785317"><ele>233.0</ele><time>2026-04-11T12:06:51.125Z</time></trkpt><trkpt lat="44.1238517" lon="11.678495"><ele>233.0</ele><time>2026-04-11T12:06:52.123Z</time></trkpt><trkpt lat="44.1237467" lon="11.6784783"><ele>233.2</ele><time>2026-04-11T12:06:53.123Z</time></trkpt><trkpt lat="44.1236567" lon="11.6784433"><ele>233.4</ele><time>2026-04-11T12:06:54.125Z</time></trkpt><trkpt lat="44.123565" lon="11.6783867"><ele>233.59999999999997</ele><time>2026-04-11T12:06:55.124Z</time></trkpt><trkpt lat="44.1234667" lon="11.6783"><ele>233.79999999999998</ele><time>2026-04-11T12:06:56.123Z</time></trkpt><trkpt lat="44.1233567" lon="11.6782117"><ele>234.0</ele><time>2026-04-11T12:06:57.124Z</time></trkpt><trkpt lat="44.1232283" lon="11.67813"><ele>233.33333333333331</ele><time>2026-04-11T12:06:58.123Z</time></trkpt><trkpt lat="44.1230817" lon="11.678055"><ele>232.66666666666666</ele><time>2026-04-11T12:06:59.124Z</time></trkpt><trkpt lat="44.1229283" lon="11.6779783"><ele>232.0</ele><time>2026-04-11T12:07:00.124Z</time></trkpt><trkpt lat="44.12277" lon="11.6778867"><ele>232.0</ele><time>2026-04-11T12:07:01.122Z</time></trkpt><trkpt lat="44.1226083" lon="11.67779"><ele>232.0</ele><time>2026-04-11T12:07:02.124Z</time></trkpt><trkpt lat="44.1224383" lon="11.677695"><ele>232.0</ele><time>2026-04-11T12:07:03.124Z</time></trkpt><trkpt lat="44.1222633" lon="11.6775917"><ele>233.66666666666666</ele><time>2026-04-11T12:07:04.124Z</time></trkpt><trkpt lat="44.12209" lon="11.677475"><ele>235.33333333333331</ele><time>2026-04-11T12:07:05.124Z</time></trkpt><trkpt lat="44.1219267" lon="11.6773667"><ele>237.0</ele><time>2026-04-11T12:07:06.124Z</time></trkpt><trkpt lat="44.1217817" lon="11.67728"><ele>237.0</ele><time>2026-04-11T12:07:07.124Z</time></trkpt><trkpt lat="44.1216467" lon="11.6772233"><ele>237.0</ele><time>2026-04-11T12:07:08.124Z</time></trkpt><trkpt lat="44.1215167" lon="11.6772233"><ele>237.0</ele><time>2026-04-11T12:07:09.124Z</time></trkpt><trkpt lat="44.12139" lon="11.6772667"><ele>237.0</ele><time>2026-04-11T12:07:10.123Z</time></trkpt><trkpt lat="44.1212633" lon="11.6773217"><ele>237.0</ele><time>2026-04-11T12:07:11.124Z</time></trkpt><trkpt lat="44.1211367" lon="11.6773483"><ele>237.0</ele><time>2026-04-11T12:07:12.123Z</time></trkpt><trkpt lat="44.1209967" lon="11.677355"><ele>237.0</ele><time>2026-04-11T12:07:13.124Z</time></trkpt><trkpt lat="44.1208517" lon="11.677325"><ele>237.0</ele><time>2026-04-11T12:07:14.124Z</time></trkpt><trkpt lat="44.1207" lon="11.6772567"><ele>236.33333333333331</ele><time>2026-04-11T12:07:15.127Z</time></trkpt><trkpt lat="44.1205383" lon="11.6771783"><ele>235.66666666666666</ele><time>2026-04-11T12:07:16.125Z</time></trkpt><trkpt lat="44.1203683" lon="11.6770967"><ele>235.0</ele><time>2026-04-11T12:07:17.123Z</time></trkpt><trkpt lat="44.1201933" lon="11.6770117"><ele>235.66666666666666</ele><time>2026-04-11T12:07:18.123Z</time></trkpt><trkpt lat="44.1200167" lon="11.6769083"><ele>236.33333333333331</ele><time>2026-04-11T12:07:19.123Z</time></trkpt><trkpt lat="44.1198383" lon="11.6768017"><ele>237.0</ele><time>2026-04-11T12:07:20.123Z</time></trkpt><trkpt lat="44.1196617" lon="11.676685"><ele>237.0</ele><time>2026-04-11T12:07:21.124Z</time></trkpt><trkpt lat="44.1194867" lon="11.6765583"><ele>237.0</ele><time>2026-04-11T12:07:22.124Z</time></trkpt><trkpt lat="44.1193217" lon="11.6764233"><ele>237.0</ele><time>2026-04-11T12:07:23.122Z</time></trkpt><trkpt lat="44.1191717" lon="11.6762817"><ele>236.5</ele><time>2026-04-11T12:07:24.124Z</time></trkpt><trkpt lat="44.1190383" lon="11.6761467"><ele>236.0</ele><time>2026-04-11T12:07:25.124Z</time></trkpt><trkpt lat="44.1189267" lon="11.676015"><ele>235.5</ele><time>2026-04-11T12:07:26.123Z</time></trkpt><trkpt lat="44.11884" lon="11.6758767"><ele>235.0</ele><time>2026-04-11T12:07:27.124Z</time></trkpt><trkpt lat="44.118775" lon="11.6756983"><ele>234.66666666666666</ele><time>2026-04-11T12:07:28.123Z</time></trkpt><trkpt lat="44.118725" lon="11.6754967"><ele>234.33333333333331</ele><time>2026-04-11T12:07:29.124Z</time></trkpt><trkpt lat="44.1186533" lon="11.6752917"><ele>234.0</ele><time>2026-04-11T12:07:30.125Z</time></trkpt><trkpt lat="44.1185917" lon="11.6751083"><ele>235.5</ele><time>2026-04-11T12:07:31.124Z</time></trkpt><trkpt lat="44.11855" lon="11.6749283"><ele>237.0</ele><time>2026-04-11T12:07:32.124Z</time></trkpt><trkpt lat="44.1185317" lon="11.6747417"><ele>238.5</ele><time>2026-04-11T12:07:33.124Z</time></trkpt><trkpt lat="44.11853" lon="11.6745467"><ele>240.0</ele><time>2026-04-11T12:07:34.124Z</time></trkpt><trkpt lat="44.1185367" lon="11.6743433"><ele>242.25</ele><time>2026-04-11T12:07:35.124Z</time></trkpt><trkpt lat="44.1185433" lon="11.6741467"><ele>244.5</ele><time>2026-04-11T12:07:36.123Z</time></trkpt><trkpt lat="44.1185433" lon="11.67397"><ele>246.75</ele><time>2026-04-11T12:07:37.125Z</time></trkpt><trkpt lat="44.1185217" lon="11.67382"><ele>249.0</ele><time>2026-04-11T12:07:38.124Z</time></trkpt><trkpt lat="44.118475" lon="11.6737067"><ele>249.0</ele><time>2026-04-11T12:07:39.124Z</time></trkpt><trkpt lat="44.118385" lon="11.6736417"><ele>249.0</ele><time>2026-04-11T12:07:40.123Z</time></trkpt><trkpt lat="44.11827" lon="11.6735767"><ele>249.0</ele><time>2026-04-11T12:07:41.124Z</time></trkpt><trkpt lat="44.1181733" lon="11.67348"><ele>249.0</ele><time>2026-04-11T12:07:42.124Z</time></trkpt><trkpt lat="44.1180867" lon="11.6733567"><ele>250.25</ele><time>2026-04-11T12:07:43.124Z</time></trkpt><trkpt lat="44.11801" lon="11.6732083"><ele>251.5</ele><time>2026-04-11T12:07:44.123Z</time></trkpt><trkpt lat="44.1179433" lon="11.6730467"><ele>252.75</ele><time>2026-04-11T12:07:45.125Z</time></trkpt><trkpt lat="44.11789" lon="11.6728967"><ele>254.0</ele><time>2026-04-11T12:07:46.124Z</time></trkpt><trkpt lat="44.117845" lon="11.6727667"><ele>255.16666666666669</ele><time>2026-04-11T12:07:47.123Z</time></trkpt><trkpt lat="44.117805" lon="11.6726583"><ele>256.33333333333337</ele><time>2026-04-11T12:07:48.124Z</time></trkpt><trkpt lat="44.117765" lon="11.6725583"><ele>257.5</ele><time>2026-04-11T12:07:49.122Z</time></trkpt><trkpt lat="44.11773" lon="11.6724683"><ele>258.6666666666667</ele><time>2026-04-11T12:07:50.124Z</time></trkpt><trkpt lat="44.1176983" lon="11.6723783"><ele>259.8333333333333</ele><time>2026-04-11T12:07:51.124Z</time></trkpt><trkpt lat="44.117665" lon="11.67229"><ele>261.0</ele><time>2026-04-11T12:07:52.124Z</time></trkpt><trkpt lat="44.11763" lon="11.6721967"><ele>261.0</ele><time>2026-04-11T12:07:53.124Z</time></trkpt><trkpt lat="44.1175883" lon="11.6721"><ele>261.0</ele><time>2026-04-11T12:07:54.123Z</time></trkpt><trkpt lat="44.1175383" lon="11.6720083"><ele>261.0</ele><time>2026-04-11T12:07:55.124Z</time></trkpt><trkpt lat="44.1174783" lon="11.6719333"><ele>261.0</ele><time>2026-04-11T12:07:56.123Z</time></trkpt><trkpt lat="44.1174183" lon="11.6718783"><ele>261.0</ele><time>2026-04-11T12:07:57.124Z</time></trkpt><trkpt lat="44.1173567" lon="11.6718567"><ele>261.0</ele><time>2026-04-11T12:07:58.124Z</time></trkpt><trkpt lat="44.1172367" lon="11.6718717"><ele>258.75</ele><time>2026-04-11T12:08:00.123Z</time></trkpt><trkpt lat="44.1171733" lon="11.6719183"><ele>256.5</ele><time>2026-04-11T12:08:01.123Z</time></trkpt><trkpt lat="44.1171183" lon="11.6719633"><ele>254.25</ele><time>2026-04-11T12:08:02.123Z</time></trkpt><trkpt lat="44.1170417" lon="11.6719817"><ele>252.0</ele><time>2026-04-11T12:08:04.123Z</time></trkpt><trkpt lat="44.1185367" lon="11.6743433"><ele>251.25</ele><time>2026-04-11T12:07:35.124Z</time></trkpt><trkpt lat="44.1185433" lon="11.6741467"><ele>250.5</ele><time>2026-04-11T12:07:36.123Z</time></trkpt><trkpt lat="44.1185433" lon="11.67397"><ele>249.75</ele><time>2026-04-11T12:07:37.125Z</time></trkpt><trkpt lat="44.1185217" lon="11.67382"><ele>249.0</ele><time>2026-04-11T12:07:38.124Z</time></trkpt><trkpt lat="44.118475" lon="11.6737067"><ele>249.0</ele><time>2026-04-11T12:07:39.124Z</time></trkpt><trkpt lat="44.118385" lon="11.6736417"><ele>249.0</ele><time>2026-04-11T12:07:40.123Z</time></trkpt><trkpt lat="44.11827" lon="11.6735767"><ele>249.0</ele><time>2026-04-11T12:07:41.124Z</time></trkpt><trkpt lat="44.1181733" lon="11.67348"><ele>249.0</ele><time>2026-04-11T12:07:42.124Z</time></trkpt><trkpt lat="44.1180867" lon="11.6733567"><ele>250.25</ele><time>2026-04-11T12:07:43.124Z</time></trkpt><trkpt lat="44.11801" lon="11.6732083"><ele>251.5</ele><time>2026-04-11T12:07:44.123Z</time></trkpt><trkpt lat="44.1179433" lon="11.6730467"><ele>252.75</ele><time>2026-04-11T12:07:45.125Z</time></trkpt><trkpt lat="44.11789" lon="11.6728967"><ele>254.0</ele><time>2026-04-11T12:07:46.124Z</time></trkpt><trkpt lat="44.117845" lon="11.6727667"><ele>255.16666666666669</ele><time>2026-04-11T12:07:47.123Z</time></trkpt><trkpt lat="44.117805" lon="11.6726583"><ele>256.33333333333337</ele><time>2026-04-11T12:07:48.124Z</time></trkpt><trkpt lat="44.117765" lon="11.6725583"><ele>257.5</ele><time>2026-04-11T12:07:49.122Z</time></trkpt><trkpt lat="44.11773" lon="11.6724683"><ele>258.6666666666667</ele><time>2026-04-11T12:07:50.124Z</time></trkpt><trkpt lat="44.1176983" lon="11.6723783"><ele>259.8333333333333</ele><time>2026-04-11T12:07:51.124Z</time></trkpt><trkpt lat="44.117665" lon="11.67229"><ele>261.0</ele><time>2026-04-11T12:07:52.124Z</time></trkpt><trkpt lat="44.11763" lon="11.6721967"><ele>261.0</ele><time>2026-04-11T12:07:53.124Z</time></trkpt><trkpt lat="44.1175883" lon="11.6721"><ele>261.0</ele><time>2026-04-11T12:07:54.123Z</time></trkpt><trkpt lat="44.1175383" lon="11.6720083"><ele>261.0</ele><time>2026-04-11T12:07:55.124Z</time></trkpt><trkpt lat="44.1174783" lon="11.6719333"><ele>261.0</ele><time>2026-04-11T12:07:56.123Z</time></trkpt><trkpt lat="44.1174183" lon="11.6718783"><ele>261.0</ele><time>2026-04-11T12:07:57.124Z</time></trkpt><trkpt lat="44.1173567" lon="11.6718567"><ele>261.0</ele><time>2026-04-11T12:07:58.124Z</time></trkpt><trkpt lat="44.1172367" lon="11.6718717"><ele>259.5</ele><time>2026-04-11T12:08:00.123Z</time></trkpt><trkpt lat="44.1171733" lon="11.6719183"><ele>258.0</ele><time>2026-04-11T12:08:01.123Z</time></trkpt><trkpt lat="44.1171183" lon="11.6719633"><ele>256.5</ele><time>2026-04-11T12:08:02.123Z</time></trkpt><trkpt lat="44.1170417" lon="11.6719817"><ele>255.0</ele><time>2026-04-11T12:08:04.123Z</time></trkpt><trkpt lat="44.1169633" lon="11.6718767"><ele>253.5</ele><time>2026-04-11T12:08:06.124Z</time></trkpt><trkpt lat="44.1169133" lon="11.6717883"><ele>252.0</ele><time>2026-04-11T12:08:07.124Z</time></trkpt><trkpt lat="44.11685" lon="11.6717133"><ele>251.66666666666666</ele><time>2026-04-11T12:08:08.126Z</time></trkpt><trkpt lat="44.116785" lon="11.6716533"><ele>251.33333333333331</ele><time>2026-04-11T12:08:09.123Z</time></trkpt><trkpt lat="44.1167133" lon="11.6716117"><ele>251.0</ele><time>2026-04-11T12:08:10.124Z</time></trkpt><trkpt lat="44.1166417" lon="11.6715783"><ele>250.66666666666666</ele><time>2026-04-11T12:08:11.124Z</time></trkpt><trkpt lat="44.1165767" lon="11.6715483"><ele>250.33333333333331</ele><time>2026-04-11T12:08:12.123Z</time></trkpt><trkpt lat="44.1165083" lon="11.6715317"><ele>250.0</ele><time>2026-04-11T12:08:13.123Z</time></trkpt><trkpt lat="44.1163933" lon="11.6715483"><ele>249.8</ele><time>2026-04-11T12:08:15.124Z</time></trkpt><trkpt lat="44.1163" lon="11.6715817"><ele>249.6</ele><time>2026-04-11T12:08:17.123Z</time></trkpt><trkpt lat="44.1161933" lon="11.6715133"><ele>249.39999999999998</ele><time>2026-04-11T12:08:19.123Z</time></trkpt><trkpt lat="44.1161267" lon="11.6714383"><ele>249.2</ele><time>2026-04-11T12:08:20.123Z</time></trkpt><trkpt lat="44.116055" lon="11.6713533"><ele>249.0</ele><time>2026-04-11T12:08:21.124Z</time></trkpt><trkpt lat="44.1159633" lon="11.6712767"><ele>249.0</ele><time>2026-04-11T12:08:22.124Z</time></trkpt><trkpt lat="44.1158633" lon="11.6711933"><ele>249.0</ele><time>2026-04-11T12:08:23.124Z</time></trkpt><trkpt lat="44.1157483" lon="11.67112"><ele>249.0</ele><time>2026-04-11T12:08:24.124Z</time></trkpt><trkpt lat="44.11562" lon="11.6710517"><ele>249.0</ele><time>2026-04-11T12:08:25.125Z</time></trkpt><trkpt lat="44.11549" lon="11.67098"><ele>250.0</ele><time>2026-04-11T12:08:26.124Z</time></trkpt><trkpt lat="44.11536" lon="11.6709167"><ele>251.0</ele><time>2026-04-11T12:08:27.125Z</time></trkpt><trkpt lat="44.1152483" lon="11.6708567"><ele>252.0</ele><time>2026-04-11T12:08:28.125Z</time></trkpt><trkpt lat="44.1151483" lon="11.6708033"><ele>253.0</ele><time>2026-04-11T12:08:29.125Z</time></trkpt><trkpt lat="44.1150567" lon="11.6707567"><ele>253.0</ele><time>2026-04-11T12:08:30.125Z</time></trkpt><trkpt lat="44.114975" lon="11.6707167"><ele>253.0</ele><time>2026-04-11T12:08:31.125Z</time></trkpt><trkpt lat="44.1149017" lon="11.6706767"><ele>253.0</ele><time>2026-04-11T12:08:32.125Z</time></trkpt><trkpt lat="44.1148217" lon="11.6706217"><ele>253.0</ele><time>2026-04-11T12:08:33.125Z</time></trkpt><trkpt lat="44.1147417" lon="11.67054"><ele>253.0</ele><time>2026-04-11T12:08:34.125Z</time></trkpt><trkpt lat="44.114665" lon="11.6704317"><ele>252.25</ele><time>2026-04-11T12:08:35.123Z</time></trkpt><trkpt lat="44.1145883" lon="11.6702967"><ele>251.5</ele><time>2026-04-11T12:08:36.124Z</time></trkpt><trkpt lat="44.1145183" lon="11.6701467"><ele>250.75</ele><time>2026-04-11T12:08:37.123Z</time></trkpt><trkpt lat="44.1144517" lon="11.669985"><ele>250.0</ele><time>2026-04-11T12:08:38.124Z</time></trkpt><trkpt lat="44.11438" lon="11.6698217"><ele>250.0</ele><time>2026-04-11T12:08:39.125Z</time></trkpt><trkpt lat="44.1143" lon="11.6696583"><ele>250.0</ele><time>2026-04-11T12:08:40.123Z</time></trkpt><trkpt lat="44.1142217" lon="11.669495"><ele>250.0</ele><time>2026-04-11T12:08:41.123Z</time></trkpt><trkpt lat="44.1141433" lon="11.6693317"><ele>250.0</ele><time>2026-04-11T12:08:42.123Z</time></trkpt><trkpt lat="44.11406" lon="11.6691767"><ele>248.25</ele><time>2026-04-11T12:08:43.124Z</time></trkpt><trkpt lat="44.1139683" lon="11.6690317"><ele>246.5</ele><time>2026-04-11T12:08:44.124Z</time></trkpt><trkpt lat="44.11387" lon="11.6688983"><ele>244.75</ele><time>2026-04-11T12:08:45.124Z</time></trkpt><trkpt lat="44.1137633" lon="11.66877"><ele>243.0</ele><time>2026-04-11T12:08:46.124Z</time></trkpt><trkpt lat="44.113645" lon="11.6686517"><ele>245.0</ele><time>2026-04-11T12:08:47.123Z</time></trkpt><trkpt lat="44.1135233" lon="11.66853"><ele>247.0</ele><time>2026-04-11T12:08:48.129Z</time></trkpt><trkpt lat="44.1134" lon="11.668405"><ele>249.0</ele><time>2026-04-11T12:08:49.124Z</time></trkpt><trkpt lat="44.113275" lon="11.66828"><ele>247.0</ele><time>2026-04-11T12:08:50.123Z</time></trkpt><trkpt lat="44.1131483" lon="11.6681633"><ele>245.0</ele><time>2026-04-11T12:08:51.123Z</time></trkpt><trkpt lat="44.1130217" lon="11.6680433"><ele>243.0</ele><time>2026-04-11T12:08:52.124Z</time></trkpt><trkpt lat="44.1128983" lon="11.6679183"><ele>243.0</ele><time>2026-04-11T12:08:53.123Z</time></trkpt><trkpt lat="44.1127767" lon="11.6677883"><ele>243.0</ele><time>2026-04-11T12:08:54.124Z</time></trkpt><trkpt lat="44.1126517" lon="11.6676633"><ele>243.0</ele><time>2026-04-11T12:08:55.124Z</time></trkpt><trkpt lat="44.11252" lon="11.6675483"><ele>243.66666666666669</ele><time>2026-04-11T12:08:56.124Z</time></trkpt><trkpt lat="44.1123817" lon="11.6674367"><ele>244.33333333333334</ele><time>2026-04-11T12:08:57.125Z</time></trkpt><trkpt lat="44.1122417" lon="11.667325"><ele>245.0</ele><time>2026-04-11T12:08:58.124Z</time></trkpt><trkpt lat="44.1120967" lon="11.66721"><ele>245.0</ele><time>2026-04-11T12:08:59.124Z</time></trkpt><trkpt lat="44.1119567" lon="11.6670933"><ele>245.0</ele><time>2026-04-11T12:09:00.125Z</time></trkpt><trkpt lat="44.111825" lon="11.6669833"><ele>245.0</ele><time>2026-04-11T12:09:01.124Z</time></trkpt><trkpt lat="44.1117067" lon="11.6668883"><ele>245.0</ele><time>2026-04-11T12:09:02.124Z</time></trkpt><trkpt lat="44.1116083" lon="11.6668067"><ele>245.0</ele><time>2026-04-11T12:09:03.124Z</time></trkpt><trkpt lat="44.1115233" lon="11.666725"><ele>245.0</ele><time>2026-04-11T12:09:04.124Z</time></trkpt><trkpt lat="44.1114333" lon="11.6666383"><ele>245.0</ele><time>2026-04-11T12:09:05.124Z</time></trkpt><trkpt lat="44.1113333" lon="11.6665433"><ele>245.0</ele><time>2026-04-11T12:09:06.123Z</time></trkpt><trkpt lat="44.11122" lon="11.6664367"><ele>245.0</ele><time>2026-04-11T12:09:07.124Z</time></trkpt><trkpt lat="44.1111" lon="11.66632"><ele>245.0</ele><time>2026-04-11T12:09:08.123Z</time></trkpt><trkpt lat="44.1109717" lon="11.6661933"><ele>245.0</ele><time>2026-04-11T12:09:09.125Z</time></trkpt><trkpt lat="44.1108417" lon="11.66606"><ele>245.0</ele><time>2026-04-11T12:09:10.124Z</time></trkpt><trkpt lat="44.110725" lon="11.6659233"><ele>245.0</ele><time>2026-04-11T12:09:11.124Z</time></trkpt><trkpt lat="44.1106217" lon="11.66577"><ele>245.0</ele><time>2026-04-11T12:09:12.124Z</time></trkpt><trkpt lat="44.1105283" lon="11.6655867"><ele>245.0</ele><time>2026-04-11T12:09:13.124Z</time></trkpt><trkpt lat="44.110455" lon="11.6653833"><ele>245.0</ele><time>2026-04-11T12:09:14.124Z</time></trkpt><trkpt lat="44.1103883" lon="11.66517"><ele>245.0</ele><time>2026-04-11T12:09:15.125Z</time></trkpt><trkpt lat="44.110315" lon="11.6649583"><ele>245.33333333333334</ele><time>2026-04-11T12:09:16.123Z</time></trkpt><trkpt lat="44.110235" lon="11.6647483"><ele>245.66666666666669</ele><time>2026-04-11T12:09:17.124Z</time></trkpt><trkpt lat="44.1101583" lon="11.6645433"><ele>246.0</ele><time>2026-04-11T12:09:18.123Z</time></trkpt><trkpt lat="44.1100883" lon="11.66435"><ele>246.0</ele><time>2026-04-11T12:09:19.124Z</time></trkpt><trkpt lat="44.1100317" lon="11.664165"><ele>246.0</ele><time>2026-04-11T12:09:20.125Z</time></trkpt><trkpt lat="44.1099733" lon="11.6640033"><ele>246.0</ele><time>2026-04-11T12:09:21.124Z</time></trkpt><trkpt lat="44.109895" lon="11.6638717"><ele>246.0</ele><time>2026-04-11T12:09:22.124Z</time></trkpt><trkpt lat="44.1097917" lon="11.66376"><ele>246.0</ele><time>2026-04-11T12:09:23.123Z</time></trkpt><trkpt lat="44.1096733" lon="11.6636567"><ele>246.0</ele><time>2026-04-11T12:09:24.124Z</time></trkpt><trkpt lat="44.10955" lon="11.66355"><ele>246.0</ele><time>2026-04-11T12:09:25.124Z</time></trkpt><trkpt lat="44.1094217" lon="11.6634333"><ele>246.0</ele><time>2026-04-11T12:09:26.124Z</time></trkpt><trkpt lat="44.1092883" lon="11.6633233"><ele>246.5</ele><time>2026-04-11T12:09:27.124Z</time></trkpt><trkpt lat="44.1091517" lon="11.6632367"><ele>247.0</ele><time>2026-04-11T12:09:28.124Z</time></trkpt><trkpt lat="44.1090167" lon="11.6631767"><ele>247.5</ele><time>2026-04-11T12:09:29.125Z</time></trkpt><trkpt lat="44.1088933" lon="11.6631183"><ele>248.0</ele><time>2026-04-11T12:09:30.125Z</time></trkpt><trkpt lat="44.1087767" lon="11.663035"><ele>248.0</ele><time>2026-04-11T12:09:31.124Z</time></trkpt><trkpt lat="44.108665" lon="11.662915"><ele>248.0</ele><time>2026-04-11T12:09:32.124Z</time></trkpt><trkpt lat="44.1085467" lon="11.662775"><ele>248.0</ele><time>2026-04-11T12:09:33.124Z</time></trkpt><trkpt lat="44.10843" lon="11.6626133"><ele>248.33333333333334</ele><time>2026-04-11T12:09:34.123Z</time></trkpt><trkpt lat="44.108315" lon="11.6624317"><ele>248.66666666666669</ele><time>2026-04-11T12:09:35.125Z</time></trkpt><trkpt lat="44.1082017" lon="11.662235"><ele>249.0</ele><time>2026-04-11T12:09:36.124Z</time></trkpt><trkpt lat="44.108085" lon="11.6620333"><ele>249.33333333333331</ele><time>2026-04-11T12:09:37.123Z</time></trkpt><trkpt lat="44.107965" lon="11.6618283"><ele>249.66666666666666</ele><time>2026-04-11T12:09:38.123Z</time></trkpt><trkpt lat="44.1078383" lon="11.6616183"><ele>250.0</ele><time>2026-04-11T12:09:39.124Z</time></trkpt><trkpt lat="44.10771" lon="11.6614067"><ele>250.0</ele><time>2026-04-11T12:09:40.124Z</time></trkpt><trkpt lat="44.1075817" lon="11.661195"><ele>250.0</ele><time>2026-04-11T12:09:41.124Z</time></trkpt><trkpt lat="44.1074517" lon="11.6609833"><ele>250.0</ele><time>2026-04-11T12:09:42.123Z</time></trkpt><trkpt lat="44.1073233" lon="11.6607733"><ele>250.0</ele><time>2026-04-11T12:09:43.124Z</time></trkpt><trkpt lat="44.107195" lon="11.6605617"><ele>250.0</ele><time>2026-04-11T12:09:44.124Z</time></trkpt><trkpt lat="44.1070667" lon="11.660345"><ele>250.0</ele><time>2026-04-11T12:09:45.124Z</time></trkpt><trkpt lat="44.1069383" lon="11.6601217"><ele>251.0</ele><time>2026-04-11T12:09:46.124Z</time></trkpt><trkpt lat="44.1068117" lon="11.65989"><ele>252.0</ele><time>2026-04-11T12:09:47.123Z</time></trkpt><trkpt lat="44.10668" lon="11.6596533"><ele>253.0</ele><time>2026-04-11T12:09:48.124Z</time></trkpt><trkpt lat="44.10655" lon="11.6594183"><ele>253.0</ele><time>2026-04-11T12:09:49.123Z</time></trkpt><trkpt lat="44.10642" lon="11.6591767"><ele>253.0</ele><time>2026-04-11T12:09:50.124Z</time></trkpt><trkpt lat="44.1062933" lon="11.658935"><ele>253.0</ele><time>2026-04-11T12:09:51.122Z</time></trkpt><trkpt lat="44.106165" lon="11.658695"><ele>254.33333333333331</ele><time>2026-04-11T12:09:52.125Z</time></trkpt><trkpt lat="44.1060383" lon="11.6584567"><ele>255.66666666666669</ele><time>2026-04-11T12:09:53.124Z</time></trkpt><trkpt lat="44.1059133" lon="11.6582183"><ele>257.0</ele><time>2026-04-11T12:09:54.124Z</time></trkpt><trkpt lat="44.1057883" lon="11.6579767"><ele>256.33333333333337</ele><time>2026-04-11T12:09:55.124Z</time></trkpt><trkpt lat="44.10566" lon="11.657735"><ele>255.66666666666669</ele><time>2026-04-11T12:09:56.124Z</time></trkpt><trkpt lat="44.1055317" lon="11.6574933"><ele>255.0</ele><time>2026-04-11T12:09:57.124Z</time></trkpt><trkpt lat="44.1054033" lon="11.6572467"><ele>255.0</ele><time>2026-04-11T12:09:58.124Z</time></trkpt><trkpt lat="44.105275" lon="11.6569983"><ele>255.0</ele><time>2026-04-11T12:09:59.124Z</time></trkpt><trkpt lat="44.1051467" lon="11.6567533"><ele>255.0</ele><time>2026-04-11T12:10:00.125Z</time></trkpt><trkpt lat="44.1050167" lon="11.6565083"><ele>255.33333333333331</ele><time>2026-04-11T12:10:01.124Z</time></trkpt><trkpt lat="44.10489" lon="11.656265"><ele>255.66666666666666</ele><time>2026-04-11T12:10:02.124Z</time></trkpt><trkpt lat="44.104765" lon="11.65603"><ele>256.0</ele><time>2026-04-11T12:10:03.125Z</time></trkpt><trkpt lat="44.1046483" lon="11.6558083"><ele>256.0</ele><time>2026-04-11T12:10:04.125Z</time></trkpt><trkpt lat="44.1045417" lon="11.655605"><ele>256.0</ele><time>2026-04-11T12:10:05.124Z</time></trkpt><trkpt lat="44.1044433" lon="11.6554133"><ele>256.0</ele><time>2026-04-11T12:10:06.125Z</time></trkpt><trkpt lat="44.1043467" lon="11.6552217"><ele>256.3333333333333</ele><time>2026-04-11T12:10:07.124Z</time></trkpt><trkpt lat="44.104255" lon="11.655035"><ele>256.6666666666667</ele><time>2026-04-11T12:10:08.123Z</time></trkpt><trkpt lat="44.1041667" lon="11.65486"><ele>257.0</ele><time>2026-04-11T12:10:09.124Z</time></trkpt><trkpt lat="44.1040767" lon="11.654695"><ele>256.33333333333337</ele><time>2026-04-11T12:10:10.124Z</time></trkpt><trkpt lat="44.1039833" lon="11.654525"><ele>255.66666666666669</ele><time>2026-04-11T12:10:11.124Z</time></trkpt><trkpt lat="44.10389" lon="11.6543417"><ele>255.0</ele><time>2026-04-11T12:10:12.124Z</time></trkpt><trkpt lat="44.103805" lon="11.6541417"><ele>255.0</ele><time>2026-04-11T12:10:13.124Z</time></trkpt><trkpt lat="44.103725" lon="11.6539333"><ele>255.0</ele><time>2026-04-11T12:10:14.124Z</time></trkpt><trkpt lat="44.1036417" lon="11.653725"><ele>255.0</ele><time>2026-04-11T12:10:15.124Z</time></trkpt><trkpt lat="44.10356" lon="11.653525"><ele>255.66666666666669</ele><time>2026-04-11T12:10:16.124Z</time></trkpt><trkpt lat="44.1034817" lon="11.6533367"><ele>256.33333333333337</ele><time>2026-04-11T12:10:17.123Z</time></trkpt><trkpt lat="44.1033983" lon="11.6531467"><ele>257.0</ele><time>2026-04-11T12:10:18.124Z</time></trkpt><trkpt lat="44.1033117" lon="11.6529533"><ele>257.0</ele><time>2026-04-11T12:10:19.124Z</time></trkpt><trkpt lat="44.1032267" lon="11.6527583"><ele>257.0</ele><time>2026-04-11T12:10:20.124Z</time></trkpt><trkpt lat="44.10314" lon="11.6525567"><ele>257.0</ele><time>2026-04-11T12:10:21.124Z</time></trkpt><trkpt lat="44.1030583" lon="11.6523533"><ele>257.0</ele><time>2026-04-11T12:10:22.124Z</time></trkpt><trkpt lat="44.1029833" lon="11.6521583"><ele>257.0</ele><time>2026-04-11T12:10:23.123Z</time></trkpt><trkpt lat="44.1029" lon="11.6519767"><ele>257.0</ele><time>2026-04-11T12:10:24.124Z</time></trkpt><trkpt lat="44.102805" lon="11.6518067"><ele>257.6666666666667</ele><time>2026-04-11T12:10:25.124Z</time></trkpt><trkpt lat="44.1026933" lon="11.6516467"><ele>258.3333333333333</ele><time>2026-04-11T12:10:26.124Z</time></trkpt><trkpt lat="44.1025667" lon="11.651495"><ele>259.0</ele><time>2026-04-11T12:10:27.125Z</time></trkpt><trkpt lat="44.102425" lon="11.6513483"><ele>258.66666666666663</ele><time>2026-04-11T12:10:28.125Z</time></trkpt><trkpt lat="44.102275" lon="11.6512"><ele>258.3333333333333</ele><time>2026-04-11T12:10:29.124Z</time></trkpt><trkpt lat="44.1021217" lon="11.6510533"><ele>258.0</ele><time>2026-04-11T12:10:30.123Z</time></trkpt><trkpt lat="44.1019667" lon="11.65091"><ele>258.6666666666667</ele><time>2026-04-11T12:10:31.124Z</time></trkpt><trkpt lat="44.1018167" lon="11.6507617"><ele>259.33333333333337</ele><time>2026-04-11T12:10:32.124Z</time></trkpt><trkpt lat="44.10169" lon="11.6506033"><ele>260.0</ele><time>2026-04-11T12:10:33.124Z</time></trkpt><trkpt lat="44.101585" lon="11.6504233"><ele>261.6666666666667</ele><time>2026-04-11T12:10:34.124Z</time></trkpt><trkpt lat="44.101495" lon="11.65022"><ele>263.3333333333333</ele><time>2026-04-11T12:10:35.124Z</time></trkpt><trkpt lat="44.1014" lon="11.65"><ele>265.0</ele><time>2026-04-11T12:10:36.124Z</time></trkpt><trkpt lat="44.1013017" lon="11.6497767"><ele>265.0</ele><time>2026-04-11T12:10:37.124Z</time></trkpt><trkpt lat="44.1011983" lon="11.6495533"><ele>265.0</ele><time>2026-04-11T12:10:38.124Z</time></trkpt><trkpt lat="44.1010933" lon="11.6493267"><ele>265.0</ele><time>2026-04-11T12:10:39.124Z</time></trkpt><trkpt lat="44.1009883" lon="11.6490983"><ele>264.66666666666663</ele><time>2026-04-11T12:10:40.124Z</time></trkpt><trkpt lat="44.1008833" lon="11.6488683"><ele>264.3333333333333</ele><time>2026-04-11T12:10:41.124Z</time></trkpt><trkpt lat="44.1007783" lon="11.6486333"><ele>264.0</ele><time>2026-04-11T12:10:42.124Z</time></trkpt><trkpt lat="44.100675" lon="11.6483967"><ele>264.0</ele><time>2026-04-11T12:10:43.124Z</time></trkpt><trkpt lat="44.1005717" lon="11.648155"><ele>264.0</ele><time>2026-04-11T12:10:44.124Z</time></trkpt><trkpt lat="44.1004683" lon="11.64791"><ele>264.0</ele><time>2026-04-11T12:10:45.125Z</time></trkpt><trkpt lat="44.1003633" lon="11.64766"><ele>265.6666666666667</ele><time>2026-04-11T12:10:46.126Z</time></trkpt><trkpt lat="44.1002567" lon="11.6474067"><ele>267.33333333333337</ele><time>2026-04-11T12:10:47.124Z</time></trkpt><trkpt lat="44.1001517" lon="11.64715"><ele>269.0</ele><time>2026-04-11T12:10:48.124Z</time></trkpt><trkpt lat="44.1000483" lon="11.6468917"><ele>270.0</ele><time>2026-04-11T12:10:49.124Z</time></trkpt><trkpt lat="44.0999483" lon="11.64664"><ele>271.0</ele><time>2026-04-11T12:10:50.124Z</time></trkpt><trkpt lat="44.0998517" lon="11.6464033"><ele>272.0</ele><time>2026-04-11T12:10:51.125Z</time></trkpt><trkpt lat="44.0997617" lon="11.6461767"><ele>271.0</ele><time>2026-04-11T12:10:52.124Z</time></trkpt><trkpt lat="44.099675" lon="11.6459517"><ele>270.0</ele><time>2026-04-11T12:10:53.124Z</time></trkpt><trkpt lat="44.0995967" lon="11.6457283"><ele>269.0</ele><time>2026-04-11T12:10:54.124Z</time></trkpt><trkpt lat="44.0995283" lon="11.6455367"><ele>269.0</ele><time>2026-04-11T12:10:55.124Z</time></trkpt><trkpt lat="44.09947" lon="11.6453833"><ele>269.0</ele><time>2026-04-11T12:10:56.123Z</time></trkpt><trkpt lat="44.0994083" lon="11.645285"><ele>269.0</ele><time>2026-04-11T12:10:57.125Z</time></trkpt><trkpt lat="44.09933" lon="11.6452383"><ele>269.0</ele><time>2026-04-11T12:10:58.124Z</time></trkpt><trkpt lat="44.0992467" lon="11.6452483"><ele>269.0</ele><time>2026-04-11T12:10:59.124Z</time></trkpt><trkpt lat="44.09916" lon="11.6452783"><ele>268.75</ele><time>2026-04-11T12:11:00.124Z</time></trkpt><trkpt lat="44.0990617" lon="11.64535"><ele>268.5</ele><time>2026-04-11T12:11:01.124Z</time></trkpt><trkpt lat="44.09895" lon="11.64544"><ele>268.25</ele><time>2026-04-11T12:11:02.124Z</time></trkpt><trkpt lat="44.0988267" lon="11.6455417"><ele>268.0</ele><time>2026-04-11T12:11:03.124Z</time></trkpt><trkpt lat="44.0986917" lon="11.6456533"><ele>268.0</ele><time>2026-04-11T12:11:04.125Z</time></trkpt><trkpt lat="44.0985517" lon="11.6457533"><ele>268.0</ele><time>2026-04-11T12:11:05.123Z</time></trkpt><trkpt lat="44.098415" lon="11.645855"><ele>268.0</ele><time>2026-04-11T12:11:06.124Z</time></trkpt><trkpt lat="44.0982733" lon="11.6459667"><ele>269.66666666666663</ele><time>2026-04-11T12:11:07.124Z</time></trkpt><trkpt lat="44.098135" lon="11.6460733"><ele>271.3333333333333</ele><time>2026-04-11T12:11:08.125Z</time></trkpt><trkpt lat="44.0979917" lon="11.6461567"><ele>273.0</ele><time>2026-04-11T12:11:09.124Z</time></trkpt><trkpt lat="44.0978533" lon="11.6462067"><ele>273.6</ele><time>2026-04-11T12:11:10.124Z</time></trkpt><trkpt lat="44.0977367" lon="11.6462433"><ele>274.20000000000005</ele><time>2026-04-11T12:11:11.123Z</time></trkpt><trkpt lat="44.0976417" lon="11.6462683"><ele>274.8</ele><time>2026-04-11T12:11:12.125Z</time></trkpt><trkpt lat="44.0975667" lon="11.64628"><ele>275.40000000000003</ele><time>2026-04-11T12:11:13.124Z</time></trkpt><trkpt lat="44.09745" lon="11.6462333"><ele>276.0</ele><time>2026-04-11T12:11:15.123Z</time></trkpt><trkpt lat="44.09738" lon="11.646165"><ele>277.0</ele><time>2026-04-11T12:11:16.123Z</time></trkpt><trkpt lat="44.0973033" lon="11.6460717"><ele>278.0</ele><time>2026-04-11T12:11:17.124Z</time></trkpt><trkpt lat="44.0972167" lon="11.64596"><ele>279.0</ele><time>2026-04-11T12:11:18.124Z</time></trkpt><trkpt lat="44.0971317" lon="11.6458333"><ele>280.0</ele><time>2026-04-11T12:11:19.123Z</time></trkpt><trkpt lat="44.0970467" lon="11.6456867"><ele>280.0</ele><time>2026-04-11T12:11:20.124Z</time></trkpt><trkpt lat="44.0969583" lon="11.645525"><ele>280.0</ele><time>2026-04-11T12:11:21.124Z</time></trkpt><trkpt lat="44.0968733" lon="11.645345"><ele>280.0</ele><time>2026-04-11T12:11:22.124Z</time></trkpt><trkpt lat="44.0967933" lon="11.6451517"><ele>279.0</ele><time>2026-04-11T12:11:23.123Z</time></trkpt><trkpt lat="44.0967217" lon="11.644945"><ele>278.0</ele><time>2026-04-11T12:11:24.124Z</time></trkpt><trkpt lat="44.0966583" lon="11.644725"><ele>277.0</ele><time>2026-04-11T12:11:25.124Z</time></trkpt><trkpt lat="44.096595" lon="11.6444967"><ele>277.3333333333333</ele><time>2026-04-11T12:11:26.124Z</time></trkpt><trkpt lat="44.096525" lon="11.6442667"><ele>277.6666666666667</ele><time>2026-04-11T12:11:27.125Z</time></trkpt><trkpt lat="44.09644" lon="11.6440417"><ele>278.0</ele><time>2026-04-11T12:11:28.123Z</time></trkpt><trkpt lat="44.0963433" lon="11.6438183"><ele>278.0</ele><time>2026-04-11T12:11:29.124Z</time></trkpt><trkpt lat="44.096245" lon="11.6435933"><ele>278.0</ele><time>2026-04-11T12:11:30.124Z</time></trkpt><trkpt lat="44.0961433" lon="11.6433617"><ele>278.0</ele><time>2026-04-11T12:11:31.124Z</time></trkpt><trkpt lat="44.0960417" lon="11.6431267"><ele>278.0</ele><time>2026-04-11T12:11:32.124Z</time></trkpt><trkpt lat="44.0959383" lon="11.642885"><ele>278.0</ele><time>2026-04-11T12:11:33.124Z</time></trkpt><trkpt lat="44.0958367" lon="11.642645"><ele>278.0</ele><time>2026-04-11T12:11:34.124Z</time></trkpt><trkpt lat="44.0957417" lon="11.6424117"><ele>279.0</ele><time>2026-04-11T12:11:35.123Z</time></trkpt><trkpt lat="44.0956483" lon="11.6421917"><ele>280.0</ele><time>2026-04-11T12:11:36.124Z</time></trkpt><trkpt lat="44.0955617" lon="11.6419833"><ele>281.0</ele><time>2026-04-11T12:11:37.124Z</time></trkpt><trkpt lat="44.09548" lon="11.641785"><ele>281.0</ele><time>2026-04-11T12:11:38.125Z</time></trkpt><trkpt lat="44.0954" lon="11.6415967"><ele>281.0</ele><time>2026-04-11T12:11:39.126Z</time></trkpt><trkpt lat="44.0953267" lon="11.6414183"><ele>281.0</ele><time>2026-04-11T12:11:40.124Z</time></trkpt><trkpt lat="44.0952533" lon="11.64125"><ele>281.0</ele><time>2026-04-11T12:11:41.125Z</time></trkpt><trkpt lat="44.0951867" lon="11.64109"><ele>280.75</ele><time>2026-04-11T12:11:42.125Z</time></trkpt><trkpt lat="44.095125" lon="11.640935"><ele>280.5</ele><time>2026-04-11T12:11:43.124Z</time></trkpt><trkpt lat="44.095065" lon="11.6407867"><ele>280.25</ele><time>2026-04-11T12:11:44.124Z</time></trkpt><trkpt lat="44.0950133" lon="11.64065"><ele>280.0</ele><time>2026-04-11T12:11:45.124Z</time></trkpt><trkpt lat="44.0949633" lon="11.6405267"><ele>280.0</ele><time>2026-04-11T12:11:46.122Z</time></trkpt><trkpt lat="44.0949233" lon="11.6404183"><ele>280.0</ele><time>2026-04-11T12:11:47.124Z</time></trkpt><trkpt lat="44.0948917" lon="11.6403317"><ele>280.0</ele><time>2026-04-11T12:11:48.124Z</time></trkpt><trkpt lat="44.0948633" lon="11.64021"><ele>280.0</ele><time>2026-04-11T12:11:50.123Z</time></trkpt><trkpt lat="44.0948883" lon="11.6401233"><ele>280.0</ele><time>2026-04-11T12:11:53.125Z</time></trkpt><trkpt lat="44.0948717" lon="11.6400283"><ele>280.0</ele><time>2026-04-11T12:11:56.124Z</time></trkpt><trkpt lat="44.09496" lon="11.6399617"><ele>280.0</ele><time>2026-04-11T12:13:01.125Z</time></trkpt><trkpt lat="44.0949883" lon="11.6398367"><ele>280.0</ele><time>2026-04-11T13:11:48.125Z</time></trkpt><trkpt lat="44.0948967" lon="11.6398767"><ele>280.0</ele><time>2026-04-11T13:12:03.124Z</time></trkpt><trkpt lat="44.0948383" lon="11.6399867"><ele>280.0</ele><time>2026-04-11T13:12:18.124Z</time></trkpt><trkpt lat="44.09479" lon="11.6400667"><ele>280.0</ele><time>2026-04-11T13:12:24.126Z</time></trkpt><trkpt lat="44.0947667" lon="11.6401483"><ele>280.0</ele><time>2026-04-11T13:12:26.124Z</time></trkpt><trkpt lat="44.0947367" lon="11.64023"><ele>280.4</ele><time>2026-04-11T13:12:29.124Z</time></trkpt><trkpt lat="44.0947183" lon="11.6404233"><ele>280.8</ele><time>2026-04-11T13:13:03.125Z</time></trkpt><trkpt lat="44.0946533" lon="11.6405467"><ele>281.2</ele><time>2026-04-11T13:13:05.123Z</time></trkpt><trkpt lat="44.0946067" lon="11.6406167"><ele>281.6</ele><time>2026-04-11T13:13:06.125Z</time></trkpt><trkpt lat="44.0945617" lon="11.6406917"><ele>282.0</ele><time>2026-04-11T13:13:07.124Z</time></trkpt><trkpt lat="44.094505" lon="11.6408017"><ele>282.0</ele><time>2026-04-11T13:13:08.124Z</time></trkpt><trkpt lat="44.0944283" lon="11.6409183"><ele>282.0</ele><time>2026-04-11T13:13:09.124Z</time></trkpt><trkpt lat="44.0943517" lon="11.64102"><ele>282.0</ele><time>2026-04-11T13:13:10.124Z</time></trkpt><trkpt lat="44.0942867" lon="11.6410983"><ele>282.0</ele><time>2026-04-11T13:13:11.123Z</time></trkpt><trkpt lat="44.0942283" lon="11.641175"><ele>282.0</ele><time>2026-04-11T13:13:12.124Z</time></trkpt><trkpt lat="44.0941683" lon="11.6412567"><ele>282.2857142857143</ele><time>2026-04-11T13:13:13.125Z</time></trkpt><trkpt lat="44.09411" lon="11.64134"><ele>282.57142857142856</ele><time>2026-04-11T13:13:14.125Z</time></trkpt><trkpt lat="44.0940567" lon="11.64141"><ele>282.85714285714283</ele><time>2026-04-11T13:13:15.124Z</time></trkpt><trkpt lat="44.0940033" lon="11.641475"><ele>283.1428571428571</ele><time>2026-04-11T13:13:16.123Z</time></trkpt><trkpt lat="44.093955" lon="11.6415467"><ele>283.4285714285714</ele><time>2026-04-11T13:13:17.124Z</time></trkpt><trkpt lat="44.09391" lon="11.6416183"><ele>283.7142857142857</ele><time>2026-04-11T13:13:18.124Z</time></trkpt><trkpt lat="44.093865" lon="11.641695"><ele>284.0</ele><time>2026-04-11T13:13:19.124Z</time></trkpt><trkpt lat="44.093825" lon="11.64178"><ele>284.5</ele><time>2026-04-11T13:13:20.124Z</time></trkpt><trkpt lat="44.0937833" lon="11.6418717"><ele>285.0</ele><time>2026-04-11T13:13:21.125Z</time></trkpt><trkpt lat="44.0937417" lon="11.641965"><ele>285.5</ele><time>2026-04-11T13:13:22.125Z</time></trkpt><trkpt lat="44.0937" lon="11.64206"><ele>286.0</ele><time>2026-04-11T13:13:23.124Z</time></trkpt><trkpt lat="44.0936517" lon="11.642155"><ele>286.5</ele><time>2026-04-11T13:13:24.124Z</time></trkpt><trkpt lat="44.0936033" lon="11.64225"><ele>287.0</ele><time>2026-04-11T13:13:25.123Z</time></trkpt><trkpt lat="44.0935533" lon="11.6423467"><ele>287.5</ele><time>2026-04-11T13:13:26.124Z</time></trkpt><trkpt lat="44.0935" lon="11.6424367"><ele>288.0</ele><time>2026-04-11T13:13:27.125Z</time></trkpt><trkpt lat="44.093445" lon="11.642525"><ele>288.5</ele><time>2026-04-11T13:13:28.123Z</time></trkpt><trkpt lat="44.0933883" lon="11.64261"><ele>289.0</ele><time>2026-04-11T13:13:29.125Z</time></trkpt><trkpt lat="44.0933367" lon="11.6426983"><ele>289.5</ele><time>2026-04-11T13:13:30.123Z</time></trkpt><trkpt lat="44.0932883" lon="11.6427867"><ele>290.0</ele><time>2026-04-11T13:13:31.124Z</time></trkpt><trkpt lat="44.093245" lon="11.6428767"><ele>291.0</ele><time>2026-04-11T13:13:32.124Z</time></trkpt><trkpt lat="44.0931967" lon="11.6429717"><ele>292.0</ele><time>2026-04-11T13:13:33.125Z</time></trkpt><trkpt lat="44.0931467" lon="11.6430667"><ele>293.0</ele><time>2026-04-11T13:13:34.125Z</time></trkpt><trkpt lat="44.0930967" lon="11.6431633"><ele>294.0</ele><time>2026-04-11T13:13:35.123Z</time></trkpt><trkpt lat="44.093045" lon="11.6432583"><ele>295.0</ele><time>2026-04-11T13:13:36.124Z</time></trkpt><trkpt lat="44.09299" lon="11.6433517"><ele>296.0</ele><time>2026-04-11T13:13:37.123Z</time></trkpt><trkpt lat="44.092935" lon="11.6434433"><ele>296.0</ele><time>2026-04-11T13:13:38.124Z</time></trkpt><trkpt lat="44.0928767" lon="11.6435367"><ele>296.0</ele><time>2026-04-11T13:13:39.125Z</time></trkpt><trkpt lat="44.092815" lon="11.643625"><ele>296.0</ele><time>2026-04-11T13:13:40.124Z</time></trkpt><trkpt lat="44.0927467" lon="11.6437033"><ele>296.0</ele><time>2026-04-11T13:13:41.124Z</time></trkpt><trkpt lat="44.0926767" lon="11.6437783"><ele>296.0</ele><time>2026-04-11T13:13:42.124Z</time></trkpt><trkpt lat="44.0926067" lon="11.6438567"><ele>296.0</ele><time>2026-04-11T13:13:43.124Z</time></trkpt><trkpt lat="44.0925333" lon="11.6439317"><ele>297.40000000000003</ele><time>2026-04-11T13:13:44.124Z</time></trkpt><trkpt lat="44.0924583" lon="11.64401"><ele>298.8</ele><time>2026-04-11T13:13:45.123Z</time></trkpt><trkpt lat="44.092385" lon="11.6440933"><ele>300.20000000000005</ele><time>2026-04-11T13:13:46.124Z</time></trkpt><trkpt lat="44.092315" lon="11.64418"><ele>301.6</ele><time>2026-04-11T13:13:47.124Z</time></trkpt><trkpt lat="44.092245" lon="11.6442683"><ele>303.0</ele><time>2026-04-11T13:13:48.124Z</time></trkpt><trkpt lat="44.09217" lon="11.6443533"><ele>303.0</ele><time>2026-04-11T13:13:49.123Z</time></trkpt><trkpt lat="44.0920933" lon="11.6444383"><ele>303.0</ele><time>2026-04-11T13:13:50.124Z</time></trkpt><trkpt lat="44.0920167" lon="11.644525"><ele>303.0</ele><time>2026-04-11T13:13:51.124Z</time></trkpt><trkpt lat="44.09194" lon="11.6446133"><ele>303.0</ele><time>2026-04-11T13:13:52.124Z</time></trkpt><trkpt lat="44.0918667" lon="11.6447"><ele>303.0</ele><time>2026-04-11T13:13:53.124Z</time></trkpt><trkpt lat="44.0917933" lon="11.6447867"><ele>303.8</ele><time>2026-04-11T13:13:54.122Z</time></trkpt><trkpt lat="44.0917217" lon="11.6448767"><ele>304.6</ele><time>2026-04-11T13:13:55.124Z</time></trkpt><trkpt lat="44.0916517" lon="11.6449733"><ele>305.4</ele><time>2026-04-11T13:13:56.124Z</time></trkpt><trkpt lat="44.0915867" lon="11.64507"><ele>306.2</ele><time>2026-04-11T13:13:57.124Z</time></trkpt><trkpt lat="44.0915133" lon="11.6451583"><ele>307.0</ele><time>2026-04-11T13:13:58.124Z</time></trkpt><trkpt lat="44.09143" lon="11.6452317"><ele>310.0</ele><time>2026-04-11T13:13:59.124Z</time></trkpt><trkpt lat="44.09134" lon="11.6453"><ele>313.0</ele><time>2026-04-11T13:14:00.124Z</time></trkpt><trkpt lat="44.091255" lon="11.6453683"><ele>316.0</ele><time>2026-04-11T13:14:01.124Z</time></trkpt><trkpt lat="44.0911717" lon="11.6454417"><ele>319.0</ele><time>2026-04-11T13:14:02.124Z</time></trkpt><trkpt lat="44.0910883" lon="11.6455233"><ele>322.0</ele><time>2026-04-11T13:14:03.125Z</time></trkpt><trkpt lat="44.0910033" lon="11.645605"><ele>322.0</ele><time>2026-04-11T13:14:04.124Z</time></trkpt><trkpt lat="44.0909183" lon="11.645695"><ele>322.0</ele><time>2026-04-11T13:14:05.124Z</time></trkpt><trkpt lat="44.0908317" lon="11.6457917"><ele>322.0</ele><time>2026-04-11T13:14:06.124Z</time></trkpt><trkpt lat="44.090745" lon="11.645905"><ele>322.0</ele><time>2026-04-11T13:14:07.124Z</time></trkpt><trkpt lat="44.0906583" lon="11.646025"><ele>325.0</ele><time>2026-04-11T13:14:08.124Z</time></trkpt><trkpt lat="44.090565" lon="11.6461433"><ele>328.0</ele><time>2026-04-11T13:14:09.124Z</time></trkpt><trkpt lat="44.0904633" lon="11.6462383"><ele>331.0</ele><time>2026-04-11T13:14:10.125Z</time></trkpt><trkpt lat="44.09035" lon="11.64631"><ele>334.0</ele><time>2026-04-11T13:14:11.124Z</time></trkpt><trkpt lat="44.090225" lon="11.6463767"><ele>334.0</ele><time>2026-04-11T13:14:12.127Z</time></trkpt><trkpt lat="44.0900967" lon="11.64644"><ele>334.0</ele><time>2026-04-11T13:14:13.126Z</time></trkpt><trkpt lat="44.08997" lon="11.646505"><ele>334.0</ele><time>2026-04-11T13:14:14.125Z</time></trkpt><trkpt lat="44.0898417" lon="11.6465783"><ele>334.0</ele><time>2026-04-11T13:14:15.126Z</time></trkpt><trkpt lat="44.089715" lon="11.64666"><ele>331.25</ele><time>2026-04-11T13:14:16.125Z</time></trkpt><trkpt lat="44.0895867" lon="11.6467333"><ele>328.5</ele><time>2026-04-11T13:14:17.126Z</time></trkpt><trkpt lat="44.0894567" lon="11.6468017"><ele>325.75</ele><time>2026-04-11T13:14:18.125Z</time></trkpt><trkpt lat="44.0893183" lon="11.646865"><ele>323.0</ele><time>2026-04-11T13:14:19.125Z</time></trkpt><trkpt lat="44.0891783" lon="11.6469217"><ele>328.0</ele><time>2026-04-11T13:14:20.125Z</time></trkpt><trkpt lat="44.0890367" lon="11.6469667"><ele>333.0</ele><time>2026-04-11T13:14:21.126Z</time></trkpt><trkpt lat="44.08889" lon="11.6470083"><ele>338.0</ele><time>2026-04-11T13:14:22.126Z</time></trkpt><trkpt lat="44.088745" lon="11.6470583"><ele>343.0</ele><time>2026-04-11T13:14:23.125Z</time></trkpt><trkpt lat="44.0886" lon="11.6471133"><ele>343.0</ele><time>2026-04-11T13:14:24.126Z</time></trkpt><trkpt lat="44.0884567" lon="11.6471717"><ele>343.0</ele><time>2026-04-11T13:14:25.125Z</time></trkpt><trkpt lat="44.0883367" lon="11.64723"><ele>343.0</ele><time>2026-04-11T13:14:26.126Z</time></trkpt><trkpt lat="44.0882417" lon="11.6472917"><ele>343.0</ele><time>2026-04-11T13:14:27.126Z</time></trkpt><trkpt lat="44.0881683" lon="11.6473633"><ele>341.66666666666663</ele><time>2026-04-11T13:14:28.125Z</time></trkpt><trkpt lat="44.0881017" lon="11.6474483"><ele>340.3333333333333</ele><time>2026-04-11T13:14:29.125Z</time></trkpt><trkpt lat="44.08805" lon="11.64755"><ele>339.0</ele><time>2026-04-11T13:14:30.127Z</time></trkpt><trkpt lat="44.088025" lon="11.6476417"><ele>337.6666666666667</ele><time>2026-04-11T13:14:31.126Z</time></trkpt><trkpt lat="44.0880217" lon="11.6478183"><ele>336.33333333333337</ele><time>2026-04-11T13:14:33.126Z</time></trkpt><trkpt lat="44.0880383" lon="11.6479067"><ele>335.0</ele><time>2026-04-11T13:14:34.126Z</time></trkpt><trkpt lat="44.088055" lon="11.6480033"><ele>339.4</ele><time>2026-04-11T13:14:35.125Z</time></trkpt><trkpt lat="44.0880733" lon="11.6481183"><ele>343.8</ele><time>2026-04-11T13:14:36.124Z</time></trkpt><trkpt lat="44.0880983" lon="11.6482467"><ele>348.20000000000005</ele><time>2026-04-11T13:14:37.124Z</time></trkpt><trkpt lat="44.0881267" lon="11.6483733"><ele>352.6</ele><time>2026-04-11T13:14:38.124Z</time></trkpt><trkpt lat="44.08816" lon="11.6485"><ele>357.0</ele><time>2026-04-11T13:14:39.124Z</time></trkpt><trkpt lat="44.0881867" lon="11.6486217"><ele>357.0</ele><time>2026-04-11T13:14:40.125Z</time></trkpt><trkpt lat="44.08819" lon="11.6487133"><ele>357.0</ele><time>2026-04-11T13:14:41.124Z</time></trkpt><trkpt lat="44.0881533" lon="11.648845"><ele>357.0</ele><time>2026-04-11T13:14:43.125Z</time></trkpt><trkpt lat="44.08808" lon="11.64886"><ele>357.0</ele><time>2026-04-11T13:14:45.125Z</time></trkpt><trkpt lat="44.0880117" lon="11.6487683"><ele>357.0</ele><time>2026-04-11T13:14:47.124Z</time></trkpt><trkpt lat="44.0879583" lon="11.6486933"><ele>357.0</ele><time>2026-04-11T13:14:48.125Z</time></trkpt><trkpt lat="44.087905" lon="11.6485983"><ele>357.0</ele><time>2026-04-11T13:14:49.126Z</time></trkpt><trkpt lat="44.0877767" lon="11.6483783"><ele>357.0</ele><time>2026-04-11T13:14:51.125Z</time></trkpt><trkpt lat="44.087715" lon="11.6482583"><ele>357.0</ele><time>2026-04-11T13:14:52.126Z</time></trkpt><trkpt lat="44.08766" lon="11.648165"><ele>357.0</ele><time>2026-04-11T13:14:53.124Z</time></trkpt><trkpt lat="44.0876033" lon="11.64811"><ele>357.0</ele><time>2026-04-11T13:14:54.124Z</time></trkpt><trkpt lat="44.08754" lon="11.64809"><ele>357.0</ele><time>2026-04-11T13:14:55.124Z</time></trkpt><trkpt lat="44.087475" lon="11.6480933"><ele>357.0</ele><time>2026-04-11T13:14:56.124Z</time></trkpt><trkpt lat="44.0874067" lon="11.64811"><ele>357.0</ele><time>2026-04-11T13:14:57.124Z</time></trkpt><trkpt lat="44.08733" lon="11.6481367"><ele>357.0</ele><time>2026-04-11T13:14:58.126Z</time></trkpt><trkpt lat="44.0872467" lon="11.6481767"><ele>357.0</ele><time>2026-04-11T13:14:59.125Z</time></trkpt><trkpt lat="44.0871683" lon="11.64822"><ele>357.20000000000005</ele><time>2026-04-11T13:15:00.125Z</time></trkpt><trkpt lat="44.0870833" lon="11.6482633"><ele>357.4</ele><time>2026-04-11T13:15:01.124Z</time></trkpt><trkpt lat="44.086995" lon="11.6483067"><ele>357.6</ele><time>2026-04-11T13:15:02.124Z</time></trkpt><trkpt lat="44.0869017" lon="11.6483567"><ele>357.79999999999995</ele><time>2026-04-11T13:15:03.125Z</time></trkpt><trkpt lat="44.0868083" lon="11.64841"><ele>358.0</ele><time>2026-04-11T13:15:04.124Z</time></trkpt><trkpt lat="44.0867133" lon="11.648455"><ele>358.0</ele><time>2026-04-11T13:15:05.124Z</time></trkpt><trkpt lat="44.086615" lon="11.648495"><ele>358.0</ele><time>2026-04-11T13:15:06.124Z</time></trkpt><trkpt lat="44.086515" lon="11.6485333"><ele>358.0</ele><time>2026-04-11T13:15:07.124Z</time></trkpt><trkpt lat="44.0864133" lon="11.648575"><ele>358.0</ele><time>2026-04-11T13:15:08.124Z</time></trkpt><trkpt lat="44.0863117" lon="11.6486183"><ele>358.0</ele><time>2026-04-11T13:15:09.125Z</time></trkpt><trkpt lat="44.08621" lon="11.64866"><ele>363.59999999999997</ele><time>2026-04-11T13:15:10.124Z</time></trkpt><trkpt lat="44.086115" lon="11.64871"><ele>369.2</ele><time>2026-04-11T13:15:11.124Z</time></trkpt><trkpt lat="44.08602" lon="11.64877"><ele>374.8</ele><time>2026-04-11T13:15:12.125Z</time></trkpt><trkpt lat="44.0859317" lon="11.64884"><ele>380.4</ele><time>2026-04-11T13:15:13.125Z</time></trkpt><trkpt lat="44.0858533" lon="11.6489333"><ele>386.0</ele><time>2026-04-11T13:15:14.126Z</time></trkpt><trkpt lat="44.0857817" lon="11.6490067"><ele>386.16666666666663</ele><time>2026-04-11T13:15:15.125Z</time></trkpt><trkpt lat="44.0857033" lon="11.6490467"><ele>386.3333333333333</ele><time>2026-04-11T13:15:16.125Z</time></trkpt><trkpt lat="44.0856233" lon="11.64906"><ele>386.5</ele><time>2026-04-11T13:15:17.124Z</time></trkpt><trkpt lat="44.085535" lon="11.6490533"><ele>386.66666666666663</ele><time>2026-04-11T13:15:18.123Z</time></trkpt><trkpt lat="44.0854383" lon="11.649025"><ele>386.8333333333333</ele><time>2026-04-11T13:15:19.124Z</time></trkpt><trkpt lat="44.085345" lon="11.64899"><ele>387.0</ele><time>2026-04-11T13:15:20.124Z</time></trkpt><trkpt lat="44.08525" lon="11.64896"><ele>387.0</ele><time>2026-04-11T13:15:21.123Z</time></trkpt><trkpt lat="44.085165" lon="11.6489483"><ele>387.0</ele><time>2026-04-11T13:15:22.124Z</time></trkpt><trkpt lat="44.085075" lon="11.6489533"><ele>387.0</ele><time>2026-04-11T13:15:23.125Z</time></trkpt><trkpt lat="44.0849867" lon="11.648985"><ele>387.0</ele><time>2026-04-11T13:15:24.124Z</time></trkpt><trkpt lat="44.0849" lon="11.6490283"><ele>387.0</ele><time>2026-04-11T13:15:25.124Z</time></trkpt><trkpt lat="44.0848133" lon="11.6490683"><ele>386.0</ele><time>2026-04-11T13:15:26.125Z</time></trkpt><trkpt lat="44.084725" lon="11.6491117"><ele>385.0</ele><time>2026-04-11T13:15:27.124Z</time></trkpt><trkpt lat="44.0846517" lon="11.6491733"><ele>384.0</ele><time>2026-04-11T13:15:28.125Z</time></trkpt><trkpt lat="44.0845933" lon="11.64924"><ele>383.0</ele><time>2026-04-11T13:15:29.123Z</time></trkpt><trkpt lat="44.0845467" lon="11.6493317"><ele>382.0</ele><time>2026-04-11T13:15:30.124Z</time></trkpt><trkpt lat="44.0845217" lon="11.6494433"><ele>381.0</ele><time>2026-04-11T13:15:31.125Z</time></trkpt><trkpt lat="44.0844967" lon="11.64956"><ele>384.8</ele><time>2026-04-11T13:15:32.126Z</time></trkpt><trkpt lat="44.0844517" lon="11.6496733"><ele>388.6</ele><time>2026-04-11T13:15:33.124Z</time></trkpt><trkpt lat="44.0843917" lon="11.649765"><ele>392.4</ele><time>2026-04-11T13:15:34.124Z</time></trkpt><trkpt lat="44.08432" lon="11.6498467"><ele>396.2</ele><time>2026-04-11T13:15:35.124Z</time></trkpt><trkpt lat="44.0842383" lon="11.64993"><ele>400.0</ele><time>2026-04-11T13:15:36.124Z</time></trkpt><trkpt lat="44.084165" lon="11.649995"><ele>400.00000000000006</ele><time>2026-04-11T13:15:37.125Z</time></trkpt><trkpt lat="44.0840967" lon="11.6500317"><ele>400.0</ele><time>2026-04-11T13:15:38.123Z</time></trkpt><trkpt lat="44.084015" lon="11.650025"><ele>400.0</ele><time>2026-04-11T13:15:39.124Z</time></trkpt><trkpt lat="44.08393" lon="11.64997"><ele>400.0</ele><time>2026-04-11T13:15:40.124Z</time></trkpt><trkpt lat="44.0838567" lon="11.6498867"><ele>400.00000000000006</ele><time>2026-04-11T13:15:41.124Z</time></trkpt><trkpt lat="44.083785" lon="11.6497867"><ele>400.0</ele><time>2026-04-11T13:15:42.125Z</time></trkpt><trkpt lat="44.0837183" lon="11.6496783"><ele>400.50000000000006</ele><time>2026-04-11T13:15:43.123Z</time></trkpt><trkpt lat="44.0836667" lon="11.6495917"><ele>401.0</ele><time>2026-04-11T13:15:44.124Z</time></trkpt><trkpt lat="44.0836133" lon="11.6495383"><ele>401.5</ele><time>2026-04-11T13:15:45.125Z</time></trkpt><trkpt lat="44.08352" lon="11.6495267"><ele>402.0</ele><time>2026-04-11T13:15:47.124Z</time></trkpt><trkpt lat="44.0834617" lon="11.64957"><ele>402.50000000000006</ele><time>2026-04-11T13:15:48.123Z</time></trkpt><trkpt lat="44.0834017" lon="11.6496333"><ele>403.0</ele><time>2026-04-11T13:15:49.123Z</time></trkpt><trkpt lat="44.0833433" lon="11.6497267"><ele>403.0</ele><time>2026-04-11T13:15:50.125Z</time></trkpt><trkpt lat="44.0832883" lon="11.6498333"><ele>403.0</ele><time>2026-04-11T13:15:51.123Z</time></trkpt><trkpt lat="44.0832567" lon="11.6499483"><ele>403.0</ele><time>2026-04-11T13:15:52.125Z</time></trkpt><trkpt lat="44.0832467" lon="11.6500717"><ele>403.0</ele><time>2026-04-11T13:15:53.127Z</time></trkpt><trkpt lat="44.0832517" lon="11.6502"><ele>403.0</ele><time>2026-04-11T13:15:54.125Z</time></trkpt><trkpt lat="44.0832583" lon="11.6503267"><ele>405.50000000000006</ele><time>2026-04-11T13:15:55.126Z</time></trkpt><trkpt lat="44.0832683" lon="11.6504567"><ele>408.0</ele><time>2026-04-11T13:15:56.126Z</time></trkpt><trkpt lat="44.0832717" lon="11.6505867"><ele>410.5</ele><time>2026-04-11T13:15:57.125Z</time></trkpt><trkpt lat="44.083265" lon="11.6506917"><ele>413.0</ele><time>2026-04-11T13:15:58.127Z</time></trkpt><trkpt lat="44.083235" lon="11.65079"><ele>415.50000000000006</ele><time>2026-04-11T13:15:59.125Z</time></trkpt><trkpt lat="44.0832017" lon="11.6508667"><ele>418.0</ele><time>2026-04-11T13:16:00.124Z</time></trkpt><trkpt lat="44.0831367" lon="11.650915"><ele>418.2</ele><time>2026-04-11T13:16:01.124Z</time></trkpt><trkpt lat="44.083055" lon="11.6509417"><ele>418.4</ele><time>2026-04-11T13:16:02.124Z</time></trkpt><trkpt lat="44.0829583" lon="11.650945"><ele>418.59999999999997</ele><time>2026-04-11T13:16:03.124Z</time></trkpt><trkpt lat="44.0828717" lon="11.6508983"><ele>418.79999999999995</ele><time>2026-04-11T13:16:04.124Z</time></trkpt><trkpt lat="44.0828" lon="11.65082"><ele>419.0</ele><time>2026-04-11T13:16:05.124Z</time></trkpt><trkpt lat="44.0827333" lon="11.6507433"><ele>419.0</ele><time>2026-04-11T13:16:06.124Z</time></trkpt><trkpt lat="44.08267" lon="11.6507117"><ele>419.0</ele><time>2026-04-11T13:16:07.124Z</time></trkpt><trkpt lat="44.0825817" lon="11.650755"><ele>419.0</ele><time>2026-04-11T13:16:09.124Z</time></trkpt><trkpt lat="44.082555" lon="11.65093"><ele>419.0</ele><time>2026-04-11T13:16:11.125Z</time></trkpt><trkpt lat="44.0825933" lon="11.6510367"><ele>419.0</ele><time>2026-04-11T13:16:12.124Z</time></trkpt><trkpt lat="44.0826383" lon="11.651145"><ele>421.6</ele><time>2026-04-11T13:16:13.124Z</time></trkpt><trkpt lat="44.08267" lon="11.651275"><ele>424.2</ele><time>2026-04-11T13:16:14.124Z</time></trkpt><trkpt lat="44.0826917" lon="11.6514083"><ele>426.80000000000007</ele><time>2026-04-11T13:16:15.125Z</time></trkpt><trkpt lat="44.0827217" lon="11.6515483"><ele>429.40000000000003</ele><time>2026-04-11T13:16:16.124Z</time></trkpt><trkpt lat="44.0827583" lon="11.651695"><ele>432.0</ele><time>2026-04-11T13:16:17.123Z</time></trkpt><trkpt lat="44.082805" lon="11.6518433"><ele>434.0</ele><time>2026-04-11T13:16:18.124Z</time></trkpt><trkpt lat="44.0828533" lon="11.6519767"><ele>436.0</ele><time>2026-04-11T13:16:19.126Z</time></trkpt><trkpt lat="44.0828717" lon="11.6520917"><ele>438.0</ele><time>2026-04-11T13:16:20.126Z</time></trkpt><trkpt lat="44.0828733" lon="11.6521917"><ele>440.0</ele><time>2026-04-11T13:16:21.126Z</time></trkpt><trkpt lat="44.0828283" lon="11.6523067"><ele>442.0</ele><time>2026-04-11T13:16:23.126Z</time></trkpt><trkpt lat="44.0827467" lon="11.6522867"><ele>444.0</ele><time>2026-04-11T13:16:25.126Z</time></trkpt><trkpt lat="44.0826783" lon="11.6521283"><ele>444.0</ele><time>2026-04-11T13:16:27.126Z</time></trkpt><trkpt lat="44.0826533" lon="11.65203"><ele>444.0</ele><time>2026-04-11T13:16:28.126Z</time></trkpt><trkpt lat="44.0826183" lon="11.65192"><ele>444.0</ele><time>2026-04-11T13:16:29.125Z</time></trkpt><trkpt lat="44.0825633" lon="11.6518"><ele>444.0</ele><time>2026-04-11T13:16:30.124Z</time></trkpt><trkpt lat="44.0825" lon="11.6516917"><ele>444.0</ele><time>2026-04-11T13:16:31.124Z</time></trkpt><trkpt lat="44.082415" lon="11.6515967"><ele>444.6</ele><time>2026-04-11T13:16:32.124Z</time></trkpt><trkpt lat="44.082325" lon="11.6515233"><ele>445.2</ele><time>2026-04-11T13:16:33.125Z</time></trkpt><trkpt lat="44.0822633" lon="11.651435"><ele>445.80000000000007</ele><time>2026-04-11T13:16:34.124Z</time></trkpt><trkpt lat="44.0822267" lon="11.6513217"><ele>446.40000000000003</ele><time>2026-04-11T13:16:35.124Z</time></trkpt><trkpt lat="44.0822094" lon="11.6511966"><ele>447.0</ele><time>2026-04-11T13:16:36.123Z</time></trkpt><trkpt lat="44.0822083" lon="11.6510603"><ele>447.0</ele><time>2026-04-11T13:16:37.124Z</time></trkpt><trkpt lat="44.0821964" lon="11.6509294"><ele>447.00000000000006</ele><time>2026-04-11T13:16:38.123Z</time></trkpt><trkpt lat="44.0821745" lon="11.6508092"><ele>447.00000000000006</ele><time>2026-04-11T13:16:39.124Z</time></trkpt><trkpt lat="44.0821347" lon="11.6507011"><ele>447.0</ele><time>2026-04-11T13:16:40.124Z</time></trkpt><trkpt lat="44.0820779" lon="11.6505951"><ele>447.0</ele><time>2026-04-11T13:16:41.124Z</time></trkpt><trkpt lat="44.0820129" lon="11.650492"><ele>447.0</ele><time>2026-04-11T13:16:42.124Z</time></trkpt><trkpt lat="44.0819464" lon="11.6503899"><ele>447.00000000000006</ele><time>2026-04-11T13:16:43.124Z</time></trkpt><trkpt lat="44.0818867" lon="11.6502856"><ele>447.00000000000006</ele><time>2026-04-11T13:16:44.125Z</time></trkpt><trkpt lat="44.0818409" lon="11.6501685"><ele>447.0</ele><time>2026-04-11T13:16:45.125Z</time></trkpt><trkpt lat="44.0818041" lon="11.6500395"><ele>447.0</ele><time>2026-04-11T13:16:46.124Z</time></trkpt><trkpt lat="44.0817673" lon="11.6499189"><ele>447.8333333333333</ele><time>2026-04-11T13:16:47.124Z</time></trkpt><trkpt lat="44.0817191" lon="11.6498176"><ele>448.66666666666663</ele><time>2026-04-11T13:16:48.124Z</time></trkpt><trkpt lat="44.0816581" lon="11.649745"><ele>449.5</ele><time>2026-04-11T13:16:49.124Z</time></trkpt><trkpt lat="44.0815972" lon="11.6497068"><ele>450.3333333333333</ele><time>2026-04-11T13:16:50.124Z</time></trkpt><trkpt lat="44.0815315" lon="11.6497037"><ele>451.16666666666663</ele><time>2026-04-11T13:16:51.124Z</time></trkpt><trkpt lat="44.081457" lon="11.6497264"><ele>452.0</ele><time>2026-04-11T13:16:52.125Z</time></trkpt><trkpt lat="44.0813768" lon="11.6497771"><ele>452.0</ele><time>2026-04-11T13:16:53.126Z</time></trkpt><trkpt lat="44.0812881" lon="11.6498465"><ele>452.00000000000006</ele><time>2026-04-11T13:16:54.127Z</time></trkpt><trkpt lat="44.0811958" lon="11.64992"><ele>452.00000000000006</ele><time>2026-04-11T13:16:55.127Z</time></trkpt><trkpt lat="44.0810963" lon="11.6499865"><ele>452.0</ele><time>2026-04-11T13:16:56.125Z</time></trkpt><trkpt lat="44.0809934" lon="11.6500402"><ele>452.0</ele><time>2026-04-11T13:16:57.126Z</time></trkpt><trkpt lat="44.0808896" lon="11.6500572"><ele>452.0</ele><time>2026-04-11T13:16:58.126Z</time></trkpt><trkpt lat="44.0807917" lon="11.6500399"><ele>452.00000000000006</ele><time>2026-04-11T13:16:59.126Z</time></trkpt><trkpt lat="44.0806944" lon="11.6499977"><ele>452.00000000000006</ele><time>2026-04-11T13:17:00.126Z</time></trkpt><trkpt lat="44.0805963" lon="11.6499545"><ele>452.0</ele><time>2026-04-11T13:17:01.126Z</time></trkpt><trkpt lat="44.080494" lon="11.6499298"><ele>452.0</ele><time>2026-04-11T13:17:02.127Z</time></trkpt><trkpt lat="44.0803893" lon="11.6499132"><ele>453.6</ele><time>2026-04-11T13:17:03.126Z</time></trkpt><trkpt lat="44.0802801" lon="11.6499022"><ele>455.20000000000005</ele><time>2026-04-11T13:17:04.125Z</time></trkpt><trkpt lat="44.0801724" lon="11.6498819"><ele>456.8</ele><time>2026-04-11T13:17:05.126Z</time></trkpt><trkpt lat="44.0800658" lon="11.6498582"><ele>458.4</ele><time>2026-04-11T13:17:06.125Z</time></trkpt><trkpt lat="44.0799601" lon="11.6498434"><ele>460.0</ele><time>2026-04-11T13:17:07.126Z</time></trkpt><trkpt lat="44.0798572" lon="11.6498453"><ele>460.83333333333337</ele><time>2026-04-11T13:17:08.124Z</time></trkpt><trkpt lat="44.0797658" lon="11.6498581"><ele>461.6666666666667</ele><time>2026-04-11T13:17:09.126Z</time></trkpt><trkpt lat="44.079694" lon="11.6498734"><ele>462.5</ele><time>2026-04-11T13:17:10.125Z</time></trkpt><trkpt lat="44.0796131" lon="11.6499773"><ele>463.33333333333337</ele><time>2026-04-11T13:17:12.125Z</time></trkpt><trkpt lat="44.0796245" lon="11.6501206"><ele>464.1666666666667</ele><time>2026-04-11T13:17:14.128Z</time></trkpt><trkpt lat="44.0796858" lon="11.6501649"><ele>465.0</ele><time>2026-04-11T13:17:15.127Z</time></trkpt><trkpt lat="44.079764" lon="11.6501774"><ele>465.0</ele><time>2026-04-11T13:17:16.124Z</time></trkpt><trkpt lat="44.079858" lon="11.6501692"><ele>465.0</ele><time>2026-04-11T13:17:17.124Z</time></trkpt><trkpt lat="44.0799458" lon="11.6501711"><ele>465.0</ele><time>2026-04-11T13:17:18.123Z</time></trkpt><trkpt lat="44.0800311" lon="11.6501992"><ele>465.0</ele><time>2026-04-11T13:17:19.126Z</time></trkpt><trkpt lat="44.0801146" lon="11.6502498"><ele>465.0</ele><time>2026-04-11T13:17:20.125Z</time></trkpt><trkpt lat="44.0801906" lon="11.6503123"><ele>465.0</ele><time>2026-04-11T13:17:21.125Z</time></trkpt><trkpt lat="44.0802479" lon="11.6503769"><ele>468.6</ele><time>2026-04-11T13:17:22.124Z</time></trkpt><trkpt lat="44.0802567" lon="11.65052"><ele>472.2</ele><time>2026-04-11T13:17:24.125Z</time></trkpt><trkpt lat="44.0802" lon="11.6505933"><ele>475.79999999999995</ele><time>2026-04-11T13:17:26.124Z</time></trkpt><trkpt lat="44.08006" lon="11.6505517"><ele>479.4</ele><time>2026-04-11T13:17:28.124Z</time></trkpt><trkpt lat="44.07997" lon="11.6505033"><ele>483.0</ele><time>2026-04-11T13:17:29.125Z</time></trkpt><trkpt lat="44.0798883" lon="11.6504733"><ele>483.0</ele><time>2026-04-11T13:17:30.125Z</time></trkpt><trkpt lat="44.0798217" lon="11.65047"><ele>483.0</ele><time>2026-04-11T13:17:31.125Z</time></trkpt><trkpt lat="44.079755" lon="11.65054"><ele>483.0</ele><time>2026-04-11T13:17:33.123Z</time></trkpt><trkpt lat="44.0797917" lon="11.65064"><ele>483.0</ele><time>2026-04-11T13:17:35.124Z</time></trkpt><trkpt lat="44.0798433" lon="11.650695"><ele>483.0</ele><time>2026-04-11T13:17:36.123Z</time></trkpt><trkpt lat="44.0799133" lon="11.6507483"><ele>483.0</ele><time>2026-04-11T13:17:37.124Z</time></trkpt><trkpt lat="44.0799883" lon="11.6508017"><ele>483.0</ele><time>2026-04-11T13:17:38.124Z</time></trkpt><trkpt lat="44.0800567" lon="11.6508767"><ele>483.0</ele><time>2026-04-11T13:17:39.124Z</time></trkpt><trkpt lat="44.0801017" lon="11.650955"><ele>483.0</ele><time>2026-04-11T13:17:40.124Z</time></trkpt><trkpt lat="44.0801333" lon="11.6510683"><ele>483.0</ele><time>2026-04-11T13:17:41.125Z</time></trkpt><trkpt lat="44.08015" lon="11.6512"><ele>483.0</ele><time>2026-04-11T13:17:42.125Z</time></trkpt><trkpt lat="44.0801633" lon="11.65134"><ele>483.0</ele><time>2026-04-11T13:17:43.124Z</time></trkpt><trkpt lat="44.0801783" lon="11.6514867"><ele>486.5</ele><time>2026-04-11T13:17:44.126Z</time></trkpt><trkpt lat="44.0802" lon="11.6516417"><ele>490.0</ele><time>2026-04-11T13:17:45.125Z</time></trkpt><trkpt lat="44.08023" lon="11.651795"><ele>493.5</ele><time>2026-04-11T13:17:46.125Z</time></trkpt><trkpt lat="44.0802583" lon="11.6519517"><ele>497.0</ele><time>2026-04-11T13:17:47.124Z</time></trkpt><trkpt lat="44.0802867" lon="11.6521133"><ele>499.75</ele><time>2026-04-11T13:17:48.124Z</time></trkpt><trkpt lat="44.0803183" lon="11.652275"><ele>502.5</ele><time>2026-04-11T13:17:49.125Z</time></trkpt><trkpt lat="44.08035" lon="11.65244"><ele>505.25</ele><time>2026-04-11T13:17:50.124Z</time></trkpt><trkpt lat="44.0803717" lon="11.6526067"><ele>508.0</ele><time>2026-04-11T13:17:51.125Z</time></trkpt><trkpt lat="44.0803833" lon="11.6527733"><ele>510.75</ele><time>2026-04-11T13:17:52.125Z</time></trkpt><trkpt lat="44.080385" lon="11.6529367"><ele>513.5</ele><time>2026-04-11T13:17:53.125Z</time></trkpt><trkpt lat="44.08038" lon="11.6531033"><ele>516.25</ele><time>2026-04-11T13:17:54.125Z</time></trkpt><trkpt lat="44.0803883" lon="11.6532583"><ele>519.0</ele><time>2026-04-11T13:17:55.124Z</time></trkpt><trkpt lat="44.080405" lon="11.6534083"><ele>519.0</ele><time>2026-04-11T13:17:56.124Z</time></trkpt><trkpt lat="44.0804383" lon="11.653555"><ele>519.0</ele><time>2026-04-11T13:17:57.125Z</time></trkpt><trkpt lat="44.0804817" lon="11.6536933"><ele>519.0</ele><time>2026-04-11T13:17:58.124Z</time></trkpt><trkpt lat="44.0805333" lon="11.6538317"><ele>519.0</ele><time>2026-04-11T13:17:59.124Z</time></trkpt><trkpt lat="44.0805817" lon="11.65397"><ele>519.0</ele><time>2026-04-11T13:18:00.125Z</time></trkpt><trkpt lat="44.080625" lon="11.65411"><ele>518.4</ele><time>2026-04-11T13:18:01.126Z</time></trkpt><trkpt lat="44.0806633" lon="11.6542533"><ele>517.8</ele><time>2026-04-11T13:18:02.125Z</time></trkpt><trkpt lat="44.0807" lon="11.6544"><ele>517.2</ele><time>2026-04-11T13:18:03.127Z</time></trkpt><trkpt lat="44.0807367" lon="11.6545483"><ele>516.6</ele><time>2026-04-11T13:18:04.127Z</time></trkpt><trkpt lat="44.080775" lon="11.6546967"><ele>516.0</ele><time>2026-04-11T13:18:05.123Z</time></trkpt><trkpt lat="44.0808217" lon="11.6548483"><ele>516.0</ele><time>2026-04-11T13:18:06.124Z</time></trkpt><trkpt lat="44.080865" lon="11.6549983"><ele>516.0</ele><time>2026-04-11T13:18:07.125Z</time></trkpt><trkpt lat="44.0809083" lon="11.6551533"><ele>516.0</ele><time>2026-04-11T13:18:08.124Z</time></trkpt><trkpt lat="44.0809483" lon="11.6553033"><ele>516.0</ele><time>2026-04-11T13:18:09.125Z</time></trkpt><trkpt lat="44.08099" lon="11.6554383"><ele>517.1666666666666</ele><time>2026-04-11T13:18:10.124Z</time></trkpt><trkpt lat="44.0810217" lon="11.6555517"><ele>518.3333333333334</ele><time>2026-04-11T13:18:11.125Z</time></trkpt><trkpt lat="44.08102" lon="11.65564"><ele>519.5</ele><time>2026-04-11T13:18:12.126Z</time></trkpt><trkpt lat="44.0809767" lon="11.655725"><ele>520.6666666666667</ele><time>2026-04-11T13:18:14.126Z</time></trkpt><trkpt lat="44.0809133" lon="11.6556233"><ele>521.8333333333334</ele><time>2026-04-11T13:18:17.124Z</time></trkpt><trkpt lat="44.0808767" lon="11.6555217"><ele>523.0</ele><time>2026-04-11T13:18:18.125Z</time></trkpt><trkpt lat="44.080835" lon="11.6554133"><ele>523.0</ele><time>2026-04-11T13:18:19.124Z</time></trkpt><trkpt lat="44.0807883" lon="11.6553167"><ele>523.0</ele><time>2026-04-11T13:18:20.124Z</time></trkpt><trkpt lat="44.0807317" lon="11.655225"><ele>523.0</ele><time>2026-04-11T13:18:21.124Z</time></trkpt><trkpt lat="44.08069" lon="11.6551367"><ele>523.0</ele><time>2026-04-11T13:18:22.124Z</time></trkpt><trkpt lat="44.0806183" lon="11.6550367"><ele>523.0</ele><time>2026-04-11T13:18:23.124Z</time></trkpt><trkpt lat="44.0805433" lon="11.6549317"><ele>525.0</ele><time>2026-04-11T13:18:24.124Z</time></trkpt><trkpt lat="44.08047" lon="11.6548233"><ele>527.0</ele><time>2026-04-11T13:18:25.124Z</time></trkpt><trkpt lat="44.0803933" lon="11.6547233"><ele>529.0</ele><time>2026-04-11T13:18:26.125Z</time></trkpt><trkpt lat="44.0803083" lon="11.6546317"><ele>531.0</ele><time>2026-04-11T13:18:27.126Z</time></trkpt><trkpt lat="44.08022" lon="11.65454"><ele>533.0</ele><time>2026-04-11T13:18:28.126Z</time></trkpt><trkpt lat="44.0801383" lon="11.6544433"><ele>533.0</ele><time>2026-04-11T13:18:29.125Z</time></trkpt><trkpt lat="44.0800633" lon="11.6543333"><ele>533.0</ele><time>2026-04-11T13:18:30.126Z</time></trkpt><trkpt lat="44.0799967" lon="11.6542133"><ele>533.0</ele><time>2026-04-11T13:18:31.126Z</time></trkpt><trkpt lat="44.079935" lon="11.65409"><ele>533.0</ele><time>2026-04-11T13:18:32.126Z</time></trkpt><trkpt lat="44.0798917" lon="11.6539917"><ele>533.0</ele><time>2026-04-11T13:18:33.126Z</time></trkpt><trkpt lat="44.0798233" lon="11.6538967"><ele>540.8333333333333</ele><time>2026-04-11T13:18:35.126Z</time></trkpt><trkpt lat="44.079755" lon="11.65394"><ele>548.6666666666666</ele><time>2026-04-11T13:18:37.125Z</time></trkpt><trkpt lat="44.079755" lon="11.6540633"><ele>556.5</ele><time>2026-04-11T13:18:39.126Z</time></trkpt><trkpt lat="44.079805" lon="11.6542033"><ele>564.3333333333334</ele><time>2026-04-11T13:18:41.125Z</time></trkpt><trkpt lat="44.0798467" lon="11.654285"><ele>572.1666666666667</ele><time>2026-04-11T13:18:42.127Z</time></trkpt><trkpt lat="44.0798883" lon="11.6543783"><ele>580.0</ele><time>2026-04-11T13:18:43.126Z</time></trkpt><trkpt lat="44.0799233" lon="11.6544833"><ele>574.5</ele><time>2026-04-11T13:18:44.126Z</time></trkpt><trkpt lat="44.07994" lon="11.6545967"><ele>569.0</ele><time>2026-04-11T13:18:45.125Z</time></trkpt><trkpt lat="44.0799617" lon="11.6547133"><ele>563.5</ele><time>2026-04-11T13:18:46.126Z</time></trkpt><trkpt lat="44.079985" lon="11.65484"><ele>558.0</ele><time>2026-04-11T13:18:47.126Z</time></trkpt><trkpt lat="44.0799983" lon="11.6549667"><ele>552.5</ele><time>2026-04-11T13:18:48.125Z</time></trkpt><trkpt lat="44.080005" lon="11.655085"><ele>547.0</ele><time>2026-04-11T13:18:49.125Z</time></trkpt><trkpt lat="44.0800083" lon="11.65521"><ele>550.0</ele><time>2026-04-11T13:18:50.126Z</time></trkpt><trkpt lat="44.080015" lon="11.6553267"><ele>553.0</ele><time>2026-04-11T13:18:51.127Z</time></trkpt><trkpt lat="44.0800367" lon="11.6554517"><ele>556.0</ele><time>2026-04-11T13:18:52.125Z</time></trkpt><trkpt lat="44.080065" lon="11.65558"><ele>559.0</ele><time>2026-04-11T13:18:53.124Z</time></trkpt><trkpt lat="44.0801033" lon="11.6557083"><ele>562.0</ele><time>2026-04-11T13:18:54.126Z</time></trkpt><trkpt lat="44.0801483" lon="11.6558333"><ele>562.0</ele><time>2026-04-11T13:18:55.125Z</time></trkpt><trkpt lat="44.080195" lon="11.6559517"><ele>562.0</ele><time>2026-04-11T13:18:56.125Z</time></trkpt><trkpt lat="44.08022" lon="11.6560733"><ele>562.0</ele><time>2026-04-11T13:18:57.126Z</time></trkpt><trkpt lat="44.080215" lon="11.656185"><ele>562.0</ele><time>2026-04-11T13:18:58.125Z</time></trkpt><trkpt lat="44.08019" lon="11.6563067"><ele>562.0</ele><time>2026-04-11T13:18:59.125Z</time></trkpt><trkpt lat="44.0801633" lon="11.6564367"><ele>562.0</ele><time>2026-04-11T13:19:00.125Z</time></trkpt><trkpt lat="44.0801217" lon="11.6565617"><ele>562.0</ele><time>2026-04-11T13:19:01.125Z</time></trkpt><trkpt lat="44.08008" lon="11.65669"><ele>562.0</ele><time>2026-04-11T13:19:02.125Z</time></trkpt><trkpt lat="44.0800517" lon="11.65683"><ele>562.0</ele><time>2026-04-11T13:19:03.126Z</time></trkpt><trkpt lat="44.080025" lon="11.6569733"><ele>562.0</ele><time>2026-04-11T13:19:04.126Z</time></trkpt><trkpt lat="44.0799983" lon="11.6571117"><ele>562.0</ele><time>2026-04-11T13:19:05.125Z</time></trkpt><trkpt lat="44.0799767" lon="11.6572517"><ele>562.0</ele><time>2026-04-11T13:19:06.125Z</time></trkpt><trkpt lat="44.0799583" lon="11.65739"><ele>562.0</ele><time>2026-04-11T13:19:07.126Z</time></trkpt><trkpt lat="44.0799383" lon="11.6575283"><ele>562.0</ele><time>2026-04-11T13:19:08.124Z</time></trkpt><trkpt lat="44.0799117" lon="11.6576517"><ele>562.0</ele><time>2026-04-11T13:19:09.124Z</time></trkpt><trkpt lat="44.0798717" lon="11.6577583"><ele>566.0</ele><time>2026-04-11T13:19:10.124Z</time></trkpt><trkpt lat="44.0798133" lon="11.6578383"><ele>570.0</ele><time>2026-04-11T13:19:11.123Z</time></trkpt><trkpt lat="44.0797417" lon="11.6579"><ele>574.0</ele><time>2026-04-11T13:19:12.124Z</time></trkpt><trkpt lat="44.079665" lon="11.6579583"><ele>578.0</ele><time>2026-04-11T13:19:13.123Z</time></trkpt><trkpt lat="44.0795917" lon="11.6580283"><ele>582.0</ele><time>2026-04-11T13:19:14.124Z</time></trkpt><trkpt lat="44.0795383" lon="11.6581217"><ele>586.0</ele><time>2026-04-11T13:19:15.124Z</time></trkpt><trkpt lat="44.0795" lon="11.6582317"><ele>586.0</ele><time>2026-04-11T13:19:16.124Z</time></trkpt><trkpt lat="44.079465" lon="11.6583467"><ele>586.0</ele><time>2026-04-11T13:19:17.125Z</time></trkpt><trkpt lat="44.0794217" lon="11.6584567"><ele>586.0</ele><time>2026-04-11T13:19:18.124Z</time></trkpt><trkpt lat="44.07937" lon="11.6585617"><ele>586.0</ele><time>2026-04-11T13:19:19.124Z</time></trkpt><trkpt lat="44.07932" lon="11.65867"><ele>586.0</ele><time>2026-04-11T13:19:20.124Z</time></trkpt><trkpt lat="44.0792783" lon="11.658785"><ele>583.6666666666667</ele><time>2026-04-11T13:19:21.124Z</time></trkpt><trkpt lat="44.0792317" lon="11.6588717"><ele>581.3333333333334</ele><time>2026-04-11T13:19:22.123Z</time></trkpt><trkpt lat="44.0791783" lon="11.6589517"><ele>579.0</ele><time>2026-04-11T13:19:23.124Z</time></trkpt><trkpt lat="44.0791167" lon="11.6590183"><ele>576.6666666666666</ele><time>2026-04-11T13:19:24.124Z</time></trkpt><trkpt lat="44.07905" lon="11.6590717"><ele>574.3333333333333</ele><time>2026-04-11T13:19:25.124Z</time></trkpt><trkpt lat="44.078975" lon="11.659115"><ele>572.0</ele><time>2026-04-11T13:19:26.124Z</time></trkpt><trkpt lat="44.0788933" lon="11.6591417"><ele>576.8333333333333</ele><time>2026-04-11T13:19:27.125Z</time></trkpt><trkpt lat="44.0788117" lon="11.6591633"><ele>581.6666666666666</ele><time>2026-04-11T13:19:28.125Z</time></trkpt><trkpt lat="44.0787283" lon="11.6591767"><ele>586.5</ele><time>2026-04-11T13:19:29.124Z</time></trkpt><trkpt lat="44.0786417" lon="11.6591983"><ele>591.3333333333334</ele><time>2026-04-11T13:19:30.124Z</time></trkpt><trkpt lat="44.0785583" lon="11.6592183"><ele>596.1666666666667</ele><time>2026-04-11T13:19:31.125Z</time></trkpt><trkpt lat="44.0784883" lon="11.659255"><ele>601.0</ele><time>2026-04-11T13:19:32.124Z</time></trkpt><trkpt lat="44.0784283" lon="11.659315"><ele>601.0</ele><time>2026-04-11T13:19:33.125Z</time></trkpt><trkpt lat="44.0783817" lon="11.659395"><ele>601.0</ele><time>2026-04-11T13:19:34.124Z</time></trkpt><trkpt lat="44.0783467" lon="11.6594767"><ele>601.0</ele><time>2026-04-11T13:19:35.124Z</time></trkpt><trkpt lat="44.07832" lon="11.6595683"><ele>601.0</ele><time>2026-04-11T13:19:36.125Z</time></trkpt><trkpt lat="44.0782983" lon="11.6596633"><ele>601.0</ele><time>2026-04-11T13:19:37.125Z</time></trkpt><trkpt lat="44.078295" lon="11.6597633"><ele>601.0</ele><time>2026-04-11T13:19:38.125Z</time></trkpt><trkpt lat="44.0783133" lon="11.65986"><ele>601.0</ele><time>2026-04-11T13:19:39.125Z</time></trkpt><trkpt lat="44.0783533" lon="11.6599467"><ele>601.1666666666667</ele><time>2026-04-11T13:19:40.124Z</time></trkpt><trkpt lat="44.0783967" lon="11.6600317"><ele>601.3333333333334</ele><time>2026-04-11T13:19:41.124Z</time></trkpt><trkpt lat="44.07843" lon="11.6601217"><ele>601.5</ele><time>2026-04-11T13:19:42.125Z</time></trkpt><trkpt lat="44.07844" lon="11.66028"><ele>601.6666666666666</ele><time>2026-04-11T13:19:44.125Z</time></trkpt><trkpt lat="44.07843" lon="11.66037"><ele>601.8333333333333</ele><time>2026-04-11T13:19:45.126Z</time></trkpt><trkpt lat="44.0784033" lon="11.6604533"><ele>602.0</ele><time>2026-04-11T13:19:46.126Z</time></trkpt><trkpt lat="44.0783683" lon="11.660545"><ele>602.0</ele><time>2026-04-11T13:19:47.125Z</time></trkpt><trkpt lat="44.07834" lon="11.6606433"><ele>602.0</ele><time>2026-04-11T13:19:48.126Z</time></trkpt><trkpt lat="44.078315" lon="11.6607433"><ele>602.0</ele><time>2026-04-11T13:19:49.126Z</time></trkpt><trkpt lat="44.078305" lon="11.6608483"><ele>602.0</ele><time>2026-04-11T13:19:50.125Z</time></trkpt><trkpt lat="44.0783133" lon="11.66095"><ele>602.0</ele><time>2026-04-11T13:19:51.127Z</time></trkpt><trkpt lat="44.0783433" lon="11.6610383"><ele>602.0</ele><time>2026-04-11T13:19:52.126Z</time></trkpt><trkpt lat="44.0784317" lon="11.6611267"><ele>602.0</ele><time>2026-04-11T13:19:54.126Z</time></trkpt><trkpt lat="44.0784983" lon="11.6611383"><ele>602.0</ele><time>2026-04-11T13:19:55.124Z</time></trkpt><trkpt lat="44.078575" lon="11.6611267"><ele>602.0</ele><time>2026-04-11T13:19:56.124Z</time></trkpt><trkpt lat="44.0786517" lon="11.6610967"><ele>602.0</ele><time>2026-04-11T13:19:57.124Z</time></trkpt><trkpt lat="44.0787267" lon="11.6610533"><ele>602.0</ele><time>2026-04-11T13:19:58.124Z</time></trkpt><trkpt lat="44.078805" lon="11.661015"><ele>602.0</ele><time>2026-04-11T13:19:59.124Z</time></trkpt><trkpt lat="44.078885" lon="11.6609783"><ele>602.0</ele><time>2026-04-11T13:20:00.123Z</time></trkpt><trkpt lat="44.0789683" lon="11.66094"><ele>602.0</ele><time>2026-04-11T13:20:01.125Z</time></trkpt><trkpt lat="44.07905" lon="11.6608933"><ele>602.0</ele><time>2026-04-11T13:20:02.125Z</time></trkpt><trkpt lat="44.0791367" lon="11.66083"><ele>602.0</ele><time>2026-04-11T13:20:03.125Z</time></trkpt><trkpt lat="44.0792017" lon="11.6607567"><ele>602.0</ele><time>2026-04-11T13:20:04.124Z</time></trkpt><trkpt lat="44.07926" lon="11.660705"><ele>602.0</ele><time>2026-04-11T13:20:05.124Z</time></trkpt><trkpt lat="44.0793483" lon="11.6607067"><ele>602.3333333333333</ele><time>2026-04-11T13:20:07.123Z</time></trkpt><trkpt lat="44.0793" lon="11.6608517"><ele>602.6666666666666</ele><time>2026-04-11T13:20:11.125Z</time></trkpt><trkpt lat="44.079255" lon="11.6609283"><ele>603.0</ele><time>2026-04-11T13:20:12.125Z</time></trkpt><trkpt lat="44.079209" lon="11.6609976"><ele>603.3333333333334</ele><time>2026-04-11T13:20:13.124Z</time></trkpt><trkpt lat="44.0791594" lon="11.6610703"><ele>603.6666666666667</ele><time>2026-04-11T13:20:14.123Z</time></trkpt><trkpt lat="44.07911" lon="11.6611538"><ele>604.0</ele><time>2026-04-11T13:20:15.124Z</time></trkpt><trkpt lat="44.0790615" lon="11.6612507"><ele>606.6</ele><time>2026-04-11T13:20:16.124Z</time></trkpt><trkpt lat="44.0790066" lon="11.6613416"><ele>609.2</ele><time>2026-04-11T13:20:17.124Z</time></trkpt><trkpt lat="44.0789493" lon="11.6614385"><ele>611.8000000000001</ele><time>2026-04-11T13:20:18.125Z</time></trkpt><trkpt lat="44.0789021" lon="11.6615472"><ele>614.4</ele><time>2026-04-11T13:20:19.124Z</time></trkpt><trkpt lat="44.0788696" lon="11.661666"><ele>617.0</ele><time>2026-04-11T13:20:20.124Z</time></trkpt><trkpt lat="44.0788507" lon="11.6617957"><ele>617.0</ele><time>2026-04-11T13:20:21.124Z</time></trkpt><trkpt lat="44.0788314" lon="11.6619306"><ele>617.0</ele><time>2026-04-11T13:20:22.124Z</time></trkpt><trkpt lat="44.0788047" lon="11.6620632"><ele>617.0</ele><time>2026-04-11T13:20:23.124Z</time></trkpt><trkpt lat="44.0787696" lon="11.6621941"><ele>617.0</ele><time>2026-04-11T13:20:24.125Z</time></trkpt><trkpt lat="44.0787267" lon="11.6623152"><ele>617.0</ele><time>2026-04-11T13:20:25.125Z</time></trkpt><trkpt lat="44.0786798" lon="11.6624282"><ele>617.1666666666666</ele><time>2026-04-11T13:20:26.125Z</time></trkpt><trkpt lat="44.078628" lon="11.6625388"><ele>617.3333333333333</ele><time>2026-04-11T13:20:27.125Z</time></trkpt><trkpt lat="44.078572" lon="11.6626439"><ele>617.5</ele><time>2026-04-11T13:20:28.125Z</time></trkpt><trkpt lat="44.0785168" lon="11.6627399"><ele>617.6666666666666</ele><time>2026-04-11T13:20:29.124Z</time></trkpt><trkpt lat="44.0784649" lon="11.6628185"><ele>617.8333333333334</ele><time>2026-04-11T13:20:30.125Z</time></trkpt><trkpt lat="44.0784116" lon="11.662871"><ele>618.0</ele><time>2026-04-11T13:20:31.126Z</time></trkpt><trkpt lat="44.078288" lon="11.6628804"><ele>619.6666666666666</ele><time>2026-04-11T13:20:33.124Z</time></trkpt><trkpt lat="44.0782195" lon="11.6628452"><ele>621.3333333333334</ele><time>2026-04-11T13:20:34.123Z</time></trkpt><trkpt lat="44.0781501" lon="11.6628"><ele>623.0</ele><time>2026-04-11T13:20:35.125Z</time></trkpt><trkpt lat="44.0780794" lon="11.6627547"><ele>624.6666666666667</ele><time>2026-04-11T13:20:36.124Z</time></trkpt><trkpt lat="44.0780107" lon="11.6627113"><ele>626.3333333333334</ele><time>2026-04-11T13:20:37.124Z</time></trkpt><trkpt lat="44.0779408" lon="11.6626702"><ele>628.0</ele><time>2026-04-11T13:20:38.124Z</time></trkpt><trkpt lat="44.0778662" lon="11.6626293"><ele>628.0</ele><time>2026-04-11T13:20:39.125Z</time></trkpt><trkpt lat="44.0777871" lon="11.662598"><ele>628.0</ele><time>2026-04-11T13:20:40.124Z</time></trkpt><trkpt lat="44.0777016" lon="11.6625827"><ele>628.0</ele><time>2026-04-11T13:20:41.123Z</time></trkpt><trkpt lat="44.0776083" lon="11.662584"><ele>628.0</ele><time>2026-04-11T13:20:42.124Z</time></trkpt><trkpt lat="44.0775153" lon="11.6626049"><ele>628.0</ele><time>2026-04-11T13:20:43.124Z</time></trkpt><trkpt lat="44.0774298" lon="11.6626507"><ele>628.0</ele><time>2026-04-11T13:20:44.124Z</time></trkpt><trkpt lat="44.0773537" lon="11.6627322"><ele>628.6</ele><time>2026-04-11T13:20:45.124Z</time></trkpt><trkpt lat="44.0772954" lon="11.6628395"><ele>629.1999999999999</ele><time>2026-04-11T13:20:46.124Z</time></trkpt><trkpt lat="44.0772584" lon="11.6629677"><ele>629.8</ele><time>2026-04-11T13:20:47.124Z</time></trkpt><trkpt lat="44.0772362" lon="11.6631069"><ele>630.4</ele><time>2026-04-11T13:20:48.124Z</time></trkpt><trkpt lat="44.0772125" lon="11.6632356"><ele>631.0</ele><time>2026-04-11T13:20:49.124Z</time></trkpt><trkpt lat="44.0771684" lon="11.6633325"><ele>631.0</ele><time>2026-04-11T13:20:50.124Z</time></trkpt><trkpt lat="44.0771197" lon="11.663415"><ele>631.0</ele><time>2026-04-11T13:20:51.124Z</time></trkpt><trkpt lat="44.07704" lon="11.6634333"><ele>631.0</ele><time>2026-04-11T13:20:52.126Z</time></trkpt><trkpt lat="44.0769583" lon="11.6634567"><ele>631.0</ele><time>2026-04-11T13:20:53.123Z</time></trkpt><trkpt lat="44.0768667" lon="11.6634867"><ele>631.0</ele><time>2026-04-11T13:20:54.124Z</time></trkpt><trkpt lat="44.0767683" lon="11.6635183"><ele>631.0</ele><time>2026-04-11T13:20:55.124Z</time></trkpt><trkpt lat="44.0766733" lon="11.6635583"><ele>635.0</ele><time>2026-04-11T13:20:56.124Z</time></trkpt><trkpt lat="44.0765933" lon="11.6636067"><ele>639.0</ele><time>2026-04-11T13:20:57.124Z</time></trkpt><trkpt lat="44.0765317" lon="11.6636783"><ele>643.0</ele><time>2026-04-11T13:20:58.124Z</time></trkpt><trkpt lat="44.0764933" lon="11.6637767"><ele>647.0</ele><time>2026-04-11T13:20:59.123Z</time></trkpt><trkpt lat="44.0764717" lon="11.6638967"><ele>651.0</ele><time>2026-04-11T13:21:00.123Z</time></trkpt><trkpt lat="44.076455" lon="11.6640383"><ele>655.0</ele><time>2026-04-11T13:21:01.125Z</time></trkpt><trkpt lat="44.076445" lon="11.664185"><ele>655.0</ele><time>2026-04-11T13:21:02.124Z</time></trkpt><trkpt lat="44.076425" lon="11.664325"><ele>655.0</ele><time>2026-04-11T13:21:03.125Z</time></trkpt><trkpt lat="44.0764067" lon="11.664465"><ele>655.0</ele><time>2026-04-11T13:21:04.124Z</time></trkpt><trkpt lat="44.0763883" lon="11.664605"><ele>655.0</ele><time>2026-04-11T13:21:05.125Z</time></trkpt><trkpt lat="44.076375" lon="11.664755"><ele>655.0</ele><time>2026-04-11T13:21:06.124Z</time></trkpt><trkpt lat="44.0763617" lon="11.6649083"><ele>654.75</ele><time>2026-04-11T13:21:07.125Z</time></trkpt><trkpt lat="44.0763467" lon="11.6650683"><ele>654.5</ele><time>2026-04-11T13:21:08.124Z</time></trkpt><trkpt lat="44.07633" lon="11.6652267"><ele>654.25</ele><time>2026-04-11T13:21:09.125Z</time></trkpt><trkpt lat="44.07631" lon="11.665385"><ele>654.0</ele><time>2026-04-11T13:21:10.124Z</time></trkpt><trkpt lat="44.0762883" lon="11.6655533"><ele>651.0</ele><time>2026-04-11T13:21:11.124Z</time></trkpt><trkpt lat="44.0762667" lon="11.6657233"><ele>648.0</ele><time>2026-04-11T13:21:12.124Z</time></trkpt><trkpt lat="44.0762483" lon="11.66589"><ele>645.0</ele><time>2026-04-11T13:21:13.124Z</time></trkpt><trkpt lat="44.076235" lon="11.66606"><ele>642.0</ele><time>2026-04-11T13:21:14.125Z</time></trkpt><trkpt lat="44.07622" lon="11.66623"><ele>640.0</ele><time>2026-04-11T13:21:15.124Z</time></trkpt><trkpt lat="44.076195" lon="11.6663983"><ele>638.0</ele><time>2026-04-11T13:21:16.123Z</time></trkpt><trkpt lat="44.0761617" lon="11.6665583"><ele>636.0</ele><time>2026-04-11T13:21:17.124Z</time></trkpt><trkpt lat="44.0761317" lon="11.6667033"><ele>634.0</ele><time>2026-04-11T13:21:18.124Z</time></trkpt><trkpt lat="44.0760967" lon="11.6668317"><ele>634.0</ele><time>2026-04-11T13:21:19.124Z</time></trkpt><trkpt lat="44.0760567" lon="11.6669383"><ele>634.0</ele><time>2026-04-11T13:21:20.124Z</time></trkpt><trkpt lat="44.076005" lon="11.6670317"><ele>634.0</ele><time>2026-04-11T13:21:21.124Z</time></trkpt><trkpt lat="44.0759433" lon="11.66711"><ele>634.0</ele><time>2026-04-11T13:21:22.124Z</time></trkpt><trkpt lat="44.075885" lon="11.6671867"><ele>634.0</ele><time>2026-04-11T13:21:23.124Z</time></trkpt><trkpt lat="44.0758383" lon="11.667265"><ele>634.0</ele><time>2026-04-11T13:21:24.123Z</time></trkpt><trkpt lat="44.07581" lon="11.66735"><ele>634.2</ele><time>2026-04-11T13:21:25.125Z</time></trkpt><trkpt lat="44.0758033" lon="11.6675033"><ele>634.4</ele><time>2026-04-11T13:21:27.124Z</time></trkpt><trkpt lat="44.0758117" lon="11.6676667"><ele>634.6</ele><time>2026-04-11T13:21:29.124Z</time></trkpt><trkpt lat="44.07582" lon="11.6677617"><ele>634.8</ele><time>2026-04-11T13:21:30.123Z</time></trkpt><trkpt lat="44.0758333" lon="11.66787"><ele>635.0</ele><time>2026-04-11T13:21:31.124Z</time></trkpt><trkpt lat="44.0758467" lon="11.66798"><ele>635.0</ele><time>2026-04-11T13:21:32.125Z</time></trkpt><trkpt lat="44.0758567" lon="11.668095"><ele>635.0</ele><time>2026-04-11T13:21:33.125Z</time></trkpt><trkpt lat="44.0758617" lon="11.6682167"><ele>635.0</ele><time>2026-04-11T13:21:34.125Z</time></trkpt><trkpt lat="44.07587" lon="11.6683233"><ele>635.0</ele><time>2026-04-11T13:21:35.124Z</time></trkpt><trkpt lat="44.0758867" lon="11.668415"><ele>635.0</ele><time>2026-04-11T13:21:36.124Z</time></trkpt><trkpt lat="44.0759283" lon="11.6684967"><ele>635.0</ele><time>2026-04-11T13:21:37.124Z</time></trkpt><trkpt lat="44.0759917" lon="11.66856"><ele>635.0</ele><time>2026-04-11T13:21:38.125Z</time></trkpt><trkpt lat="44.0760467" lon="11.668625"><ele>635.0</ele><time>2026-04-11T13:21:39.125Z</time></trkpt><trkpt lat="44.0760783" lon="11.66871"><ele>635.0</ele><time>2026-04-11T13:21:40.124Z</time></trkpt><trkpt lat="44.07609" lon="11.6688833"><ele>635.0</ele><time>2026-04-11T13:21:42.123Z</time></trkpt><trkpt lat="44.076085" lon="11.668975"><ele>635.0</ele><time>2026-04-11T13:21:43.124Z</time></trkpt><trkpt lat="44.076055" lon="11.669065"><ele>635.0</ele><time>2026-04-11T13:21:44.124Z</time></trkpt><trkpt lat="44.0760167" lon="11.6691533"><ele>635.0</ele><time>2026-04-11T13:21:45.125Z</time></trkpt><trkpt lat="44.0759517" lon="11.6692533"><ele>635.0</ele><time>2026-04-11T13:21:46.124Z</time></trkpt><trkpt lat="44.0758817" lon="11.66936"><ele>635.0</ele><time>2026-04-11T13:21:47.124Z</time></trkpt><trkpt lat="44.07581" lon="11.66948"><ele>635.0</ele><time>2026-04-11T13:21:48.124Z</time></trkpt><trkpt lat="44.07575" lon="11.6696167"><ele>635.0</ele><time>2026-04-11T13:21:49.123Z</time></trkpt><trkpt lat="44.0756967" lon="11.6697583"><ele>640.6</ele><time>2026-04-11T13:21:50.124Z</time></trkpt><trkpt lat="44.07567" lon="11.6699117"><ele>646.2</ele><time>2026-04-11T13:21:51.124Z</time></trkpt><trkpt lat="44.0756683" lon="11.6700683"><ele>651.8</ele><time>2026-04-11T13:21:52.123Z</time></trkpt><trkpt lat="44.0756733" lon="11.670225"><ele>657.4</ele><time>2026-04-11T13:21:53.124Z</time></trkpt><trkpt lat="44.0756767" lon="11.6703783"><ele>663.0</ele><time>2026-04-11T13:21:54.123Z</time></trkpt><trkpt lat="44.075675" lon="11.670525"><ele>663.0</ele><time>2026-04-11T13:21:55.124Z</time></trkpt><trkpt lat="44.07566" lon="11.6706567"><ele>663.0</ele><time>2026-04-11T13:21:56.123Z</time></trkpt><trkpt lat="44.0756267" lon="11.67078"><ele>663.0</ele><time>2026-04-11T13:21:57.124Z</time></trkpt><trkpt lat="44.07559" lon="11.67089"><ele>663.0</ele><time>2026-04-11T13:21:58.124Z</time></trkpt><trkpt lat="44.07557" lon="11.6709967"><ele>663.0</ele><time>2026-04-11T13:21:59.124Z</time></trkpt><trkpt lat="44.0755767" lon="11.6711117"><ele>663.0</ele><time>2026-04-11T13:22:00.124Z</time></trkpt><trkpt lat="44.0755967" lon="11.671235"><ele>665.25</ele><time>2026-04-11T13:22:01.123Z</time></trkpt><trkpt lat="44.0756417" lon="11.6713667"><ele>667.5</ele><time>2026-04-11T13:22:02.124Z</time></trkpt><trkpt lat="44.075705" lon="11.671505"><ele>669.75</ele><time>2026-04-11T13:22:03.124Z</time></trkpt><trkpt lat="44.075775" lon="11.671645"><ele>672.0</ele><time>2026-04-11T13:22:04.124Z</time></trkpt><trkpt lat="44.0758733" lon="11.6717667"><ele>667.8</ele><time>2026-04-11T13:22:05.123Z</time></trkpt><trkpt lat="44.0759717" lon="11.6718517"><ele>663.6</ele><time>2026-04-11T13:22:06.125Z</time></trkpt><trkpt lat="44.0760617" lon="11.6719183"><ele>659.4</ele><time>2026-04-11T13:22:07.124Z</time></trkpt><trkpt lat="44.076135" lon="11.6719833"><ele>655.1999999999999</ele><time>2026-04-11T13:22:08.124Z</time></trkpt><trkpt lat="44.076185" lon="11.6720617"><ele>651.0</ele><time>2026-04-11T13:22:09.124Z</time></trkpt><trkpt lat="44.0762117" lon="11.6721517"><ele>651.0</ele><time>2026-04-11T13:22:10.122Z</time></trkpt><trkpt lat="44.0762333" lon="11.672265"><ele>651.0</ele><time>2026-04-11T13:22:11.123Z</time></trkpt><trkpt lat="44.076245" lon="11.6723933"><ele>651.0</ele><time>2026-04-11T13:22:12.124Z</time></trkpt><trkpt lat="44.0762667" lon="11.6725067"><ele>651.0</ele><time>2026-04-11T13:22:13.125Z</time></trkpt><trkpt lat="44.0763" lon="11.6726133"><ele>651.0</ele><time>2026-04-11T13:22:14.123Z</time></trkpt><trkpt lat="44.07636" lon="11.6727167"><ele>651.0</ele><time>2026-04-11T13:22:15.124Z</time></trkpt><trkpt lat="44.076435" lon="11.6728067"><ele>649.5999999999999</ele><time>2026-04-11T13:22:16.124Z</time></trkpt><trkpt lat="44.0765217" lon="11.672875"><ele>648.2</ele><time>2026-04-11T13:22:17.125Z</time></trkpt><trkpt lat="44.076595" lon="11.6729417"><ele>646.8</ele><time>2026-04-11T13:22:18.124Z</time></trkpt><trkpt lat="44.0766583" lon="11.6730283"><ele>645.4000000000001</ele><time>2026-04-11T13:22:19.125Z</time></trkpt><trkpt lat="44.07672" lon="11.67313"><ele>644.0</ele><time>2026-04-11T13:22:20.124Z</time></trkpt><trkpt lat="44.0767767" lon="11.6732183"><ele>641.4000000000001</ele><time>2026-04-11T13:22:21.125Z</time></trkpt><trkpt lat="44.0768417" lon="11.6732917"><ele>638.8000000000001</ele><time>2026-04-11T13:22:22.124Z</time></trkpt><trkpt lat="44.0769217" lon="11.67336"><ele>636.2</ele><time>2026-04-11T13:22:23.124Z</time></trkpt><trkpt lat="44.077015" lon="11.6734183"><ele>633.6</ele><time>2026-04-11T13:22:24.125Z</time></trkpt><trkpt lat="44.07712" lon="11.67345"><ele>631.0</ele><time>2026-04-11T13:22:25.125Z</time></trkpt><trkpt lat="44.077235" lon="11.67346"><ele>631.0</ele><time>2026-04-11T13:22:26.124Z</time></trkpt><trkpt lat="44.0773517" lon="11.673455"><ele>631.0</ele><time>2026-04-11T13:22:27.125Z</time></trkpt><trkpt lat="44.07746" lon="11.67345"><ele>631.0</ele><time>2026-04-11T13:22:28.124Z</time></trkpt><trkpt lat="44.0775617" lon="11.6734567"><ele>631.0</ele><time>2026-04-11T13:22:29.124Z</time></trkpt><trkpt lat="44.0776517" lon="11.6734767"><ele>631.0</ele><time>2026-04-11T13:22:30.124Z</time></trkpt><trkpt lat="44.0777367" lon="11.6735367"><ele>625.0</ele><time>2026-04-11T13:22:31.125Z</time></trkpt><trkpt lat="44.0778217" lon="11.673645"><ele>619.0</ele><time>2026-04-11T13:22:32.124Z</time></trkpt><trkpt lat="44.0779067" lon="11.673775"><ele>613.0</ele><time>2026-04-11T13:22:33.124Z</time></trkpt><trkpt lat="44.0780117" lon="11.6738983"><ele>607.0</ele><time>2026-04-11T13:22:34.124Z</time></trkpt><trkpt lat="44.0781267" lon="11.6740083"><ele>607.0</ele><time>2026-04-11T13:22:35.124Z</time></trkpt><trkpt lat="44.0782333" lon="11.6741283"><ele>607.0</ele><time>2026-04-11T13:22:36.124Z</time></trkpt><trkpt lat="44.0783233" lon="11.6742617"><ele>607.0</ele><time>2026-04-11T13:22:37.125Z</time></trkpt><trkpt lat="44.078415" lon="11.67442"><ele>607.0</ele><time>2026-04-11T13:22:38.125Z</time></trkpt><trkpt lat="44.0784983" lon="11.6745983"><ele>606.0</ele><time>2026-04-11T13:22:39.125Z</time></trkpt><trkpt lat="44.07857" lon="11.67477"><ele>605.0</ele><time>2026-04-11T13:22:40.126Z</time></trkpt><trkpt lat="44.0786283" lon="11.674935"><ele>604.0</ele><time>2026-04-11T13:22:41.125Z</time></trkpt><trkpt lat="44.0786717" lon="11.6751067"><ele>603.0</ele><time>2026-04-11T13:22:42.125Z</time></trkpt><trkpt lat="44.0786917" lon="11.67528"><ele>599.4</ele><time>2026-04-11T13:22:43.124Z</time></trkpt><trkpt lat="44.0787067" lon="11.6754383"><ele>595.8</ele><time>2026-04-11T13:22:44.125Z</time></trkpt><trkpt lat="44.078745" lon="11.6755783"><ele>592.2</ele><time>2026-04-11T13:22:45.125Z</time></trkpt><trkpt lat="44.0788017" lon="11.6757067"><ele>588.6</ele><time>2026-04-11T13:22:46.125Z</time></trkpt><trkpt lat="44.0788817" lon="11.6758117"><ele>585.0</ele><time>2026-04-11T13:22:47.125Z</time></trkpt><trkpt lat="44.078985" lon="11.675905"><ele>586.4</ele><time>2026-04-11T13:22:48.125Z</time></trkpt><trkpt lat="44.079105" lon="11.6759983"><ele>587.8</ele><time>2026-04-11T13:22:49.124Z</time></trkpt><trkpt lat="44.0792017" lon="11.6760933"><ele>589.2</ele><time>2026-04-11T13:22:50.125Z</time></trkpt><trkpt lat="44.0792683" lon="11.6761733"><ele>590.6</ele><time>2026-04-11T13:22:51.125Z</time></trkpt><trkpt lat="44.0793033" lon="11.6762667"><ele>592.0</ele><time>2026-04-11T13:22:52.125Z</time></trkpt><trkpt lat="44.079335" lon="11.6763783"><ele>592.0</ele><time>2026-04-11T13:22:53.124Z</time></trkpt><trkpt lat="44.0793783" lon="11.676495"><ele>592.0</ele><time>2026-04-11T13:22:54.125Z</time></trkpt><trkpt lat="44.079435" lon="11.6766067"><ele>592.0</ele><time>2026-04-11T13:22:55.125Z</time></trkpt><trkpt lat="44.079505" lon="11.6767233"><ele>592.0</ele><time>2026-04-11T13:22:56.125Z</time></trkpt><trkpt lat="44.0795667" lon="11.67685"><ele>592.0</ele><time>2026-04-11T13:22:57.125Z</time></trkpt><trkpt lat="44.0796033" lon="11.6769833"><ele>588.4</ele><time>2026-04-11T13:22:58.125Z</time></trkpt><trkpt lat="44.0796417" lon="11.6771267"><ele>584.8000000000001</ele><time>2026-04-11T13:22:59.125Z</time></trkpt><trkpt lat="44.07965" lon="11.6772733"><ele>581.2</ele><time>2026-04-11T13:23:00.125Z</time></trkpt><trkpt lat="44.0796267" lon="11.67743"><ele>577.6</ele><time>2026-04-11T13:23:01.124Z</time></trkpt><trkpt lat="44.0795967" lon="11.677585"><ele>574.0</ele><time>2026-04-11T13:23:02.124Z</time></trkpt><trkpt lat="44.0795733" lon="11.6777433"><ele>570.0</ele><time>2026-04-11T13:23:03.125Z</time></trkpt><trkpt lat="44.0795633" lon="11.6779067"><ele>566.0</ele><time>2026-04-11T13:23:04.125Z</time></trkpt><trkpt lat="44.0795783" lon="11.67806"><ele>562.0</ele><time>2026-04-11T13:23:05.124Z</time></trkpt><trkpt lat="44.0796233" lon="11.678205"><ele>558.0</ele><time>2026-04-11T13:23:06.124Z</time></trkpt><trkpt lat="44.0796883" lon="11.6783567"><ele>558.0</ele><time>2026-04-11T13:23:07.125Z</time></trkpt><trkpt lat="44.0797617" lon="11.6785017"><ele>558.0</ele><time>2026-04-11T13:23:08.125Z</time></trkpt><trkpt lat="44.0798367" lon="11.6786567"><ele>558.0</ele><time>2026-04-11T13:23:09.125Z</time></trkpt><trkpt lat="44.0799" lon="11.6788"><ele>558.0</ele><time>2026-04-11T13:23:10.125Z</time></trkpt><trkpt lat="44.079945" lon="11.67894"><ele>557.5</ele><time>2026-04-11T13:23:11.124Z</time></trkpt><trkpt lat="44.0799783" lon="11.6791017"><ele>557.0</ele><time>2026-04-11T13:23:12.125Z</time></trkpt><trkpt lat="44.0799733" lon="11.6792667"><ele>556.5</ele><time>2026-04-11T13:23:13.125Z</time></trkpt><trkpt lat="44.0799367" lon="11.679415"><ele>556.0</ele><time>2026-04-11T13:23:14.126Z</time></trkpt><trkpt lat="44.079885" lon="11.6795383"><ele>556.0</ele><time>2026-04-11T13:23:15.125Z</time></trkpt><trkpt lat="44.0798117" lon="11.6796383"><ele>556.0</ele><time>2026-04-11T13:23:16.124Z</time></trkpt><trkpt lat="44.07972" lon="11.6797167"><ele>556.0</ele><time>2026-04-11T13:23:17.124Z</time></trkpt><trkpt lat="44.0796533" lon="11.6798083"><ele>556.0</ele><time>2026-04-11T13:23:18.124Z</time></trkpt><trkpt lat="44.0796" lon="11.6799033"><ele>556.0</ele><time>2026-04-11T13:23:19.124Z</time></trkpt><trkpt lat="44.07956" lon="11.6800083"><ele>556.0</ele><time>2026-04-11T13:23:20.125Z</time></trkpt><trkpt lat="44.0795283" lon="11.680125"><ele>556.0</ele><time>2026-04-11T13:23:21.125Z</time></trkpt><trkpt lat="44.07953" lon="11.6802433"><ele>556.0</ele><time>2026-04-11T13:23:22.125Z</time></trkpt><trkpt lat="44.0795667" lon="11.68038"><ele>556.0</ele><time>2026-04-11T13:23:23.124Z</time></trkpt><trkpt lat="44.07958" lon="11.6805183"><ele>556.0</ele><time>2026-04-11T13:23:24.124Z</time></trkpt><trkpt lat="44.0795883" lon="11.6806717"><ele>555.5</ele><time>2026-04-11T13:23:25.125Z</time></trkpt><trkpt lat="44.0795983" lon="11.6808383"><ele>555.0</ele><time>2026-04-11T13:23:26.124Z</time></trkpt><trkpt lat="44.0796" lon="11.6810183"><ele>554.5</ele><time>2026-04-11T13:23:27.124Z</time></trkpt><trkpt lat="44.0795933" lon="11.6811933"><ele>554.0</ele><time>2026-04-11T13:23:28.124Z</time></trkpt><trkpt lat="44.0795883" lon="11.6813717"><ele>553.5</ele><time>2026-04-11T13:23:29.125Z</time></trkpt><trkpt lat="44.0795817" lon="11.6815483"><ele>553.0</ele><time>2026-04-11T13:23:30.124Z</time></trkpt><trkpt lat="44.0795717" lon="11.681715"><ele>552.5</ele><time>2026-04-11T13:23:31.124Z</time></trkpt><trkpt lat="44.0795533" lon="11.6818667"><ele>552.0</ele><time>2026-04-11T13:23:32.124Z</time></trkpt><trkpt lat="44.0795167" lon="11.6820083"><ele>552.0</ele><time>2026-04-11T13:23:33.125Z</time></trkpt><trkpt lat="44.0794667" lon="11.6821317"><ele>552.0</ele><time>2026-04-11T13:23:34.125Z</time></trkpt><trkpt lat="44.0794133" lon="11.6822367"><ele>552.0</ele><time>2026-04-11T13:23:35.126Z</time></trkpt><trkpt lat="44.0793467" lon="11.6823217"><ele>552.0</ele><time>2026-04-11T13:23:36.124Z</time></trkpt><trkpt lat="44.0792783" lon="11.6824083"><ele>552.0</ele><time>2026-04-11T13:23:37.124Z</time></trkpt><trkpt lat="44.0792233" lon="11.6824883"><ele>552.0</ele><time>2026-04-11T13:23:38.125Z</time></trkpt><trkpt lat="44.079185" lon="11.6825617"><ele>552.0</ele><time>2026-04-11T13:23:39.126Z</time></trkpt><trkpt lat="44.0791533" lon="11.68271"><ele>552.0</ele><time>2026-04-11T13:23:41.123Z</time></trkpt><trkpt lat="44.0791867" lon="11.6828617"><ele>552.0</ele><time>2026-04-11T13:23:43.124Z</time></trkpt><trkpt lat="44.079225" lon="11.6829633"><ele>552.0</ele><time>2026-04-11T13:23:44.124Z</time></trkpt><trkpt lat="44.0792567" lon="11.6830683"><ele>552.4285714285714</ele><time>2026-04-11T13:23:45.125Z</time></trkpt><trkpt lat="44.0792667" lon="11.6831733"><ele>552.8571428571429</ele><time>2026-04-11T13:23:46.124Z</time></trkpt><trkpt lat="44.0792617" lon="11.6832783"><ele>553.2857142857143</ele><time>2026-04-11T13:23:47.124Z</time></trkpt><trkpt lat="44.0792433" lon="11.68337"><ele>553.7142857142858</ele><time>2026-04-11T13:23:48.124Z</time></trkpt><trkpt lat="44.0792083" lon="11.6834533"><ele>554.1428571428571</ele><time>2026-04-11T13:23:49.124Z</time></trkpt><trkpt lat="44.0791533" lon="11.6835233"><ele>554.5714285714287</ele><time>2026-04-11T13:23:50.124Z</time></trkpt><trkpt lat="44.0790833" lon="11.6835883"><ele>555.0</ele><time>2026-04-11T13:23:51.125Z</time></trkpt><trkpt lat="44.0789983" lon="11.683635"><ele>550.3333333333334</ele><time>2026-04-11T13:23:52.123Z</time></trkpt><trkpt lat="44.0789" lon="11.6836833"><ele>545.6666666666666</ele><time>2026-04-11T13:23:53.125Z</time></trkpt><trkpt lat="44.0788067" lon="11.6837333"><ele>541.0</ele><time>2026-04-11T13:23:54.127Z</time></trkpt><trkpt lat="44.07872" lon="11.6837833"><ele>536.3333333333333</ele><time>2026-04-11T13:23:55.124Z</time></trkpt><trkpt lat="44.07865" lon="11.6838333"><ele>531.6666666666666</ele><time>2026-04-11T13:23:56.123Z</time></trkpt><trkpt lat="44.0786017" lon="11.6838917"><ele>527.0</ele><time>2026-04-11T13:23:57.125Z</time></trkpt><trkpt lat="44.0785867" lon="11.6840367"><ele>527.0</ele><time>2026-04-11T13:23:59.124Z</time></trkpt><trkpt lat="44.07862" lon="11.6841317"><ele>527.0</ele><time>2026-04-11T13:24:00.124Z</time></trkpt><trkpt lat="44.0786683" lon="11.6842517"><ele>527.0</ele><time>2026-04-11T13:24:01.124Z</time></trkpt><trkpt lat="44.0786917" lon="11.68438"><ele>527.0</ele><time>2026-04-11T13:24:02.123Z</time></trkpt><trkpt lat="44.078695" lon="11.68451"><ele>527.0</ele><time>2026-04-11T13:24:03.126Z</time></trkpt><trkpt lat="44.07869" lon="11.6846167"><ele>527.0</ele><time>2026-04-11T13:24:04.124Z</time></trkpt><trkpt lat="44.0786767" lon="11.6847117"><ele>526.5</ele><time>2026-04-11T13:24:05.123Z</time></trkpt><trkpt lat="44.0786167" lon="11.6848617"><ele>526.0</ele><time>2026-04-11T13:24:07.125Z</time></trkpt><trkpt lat="44.0785417" lon="11.684985"><ele>525.5</ele><time>2026-04-11T13:24:09.124Z</time></trkpt><trkpt lat="44.078475" lon="11.685125"><ele>525.0</ele><time>2026-04-11T13:24:11.124Z</time></trkpt><trkpt lat="44.0784667" lon="11.6852767"><ele>525.0</ele><time>2026-04-11T13:24:13.124Z</time></trkpt><trkpt lat="44.0784583" lon="11.685395"><ele>525.0</ele><time>2026-04-11T13:24:15.124Z</time></trkpt><trkpt lat="44.0783833" lon="11.6853567"><ele>525.0</ele><time>2026-04-11T13:24:18.123Z</time></trkpt><trkpt lat="44.07837" lon="11.685195"><ele>525.0</ele><time>2026-04-11T13:24:20.126Z</time></trkpt><trkpt lat="44.0783967" lon="11.6850983"><ele>525.0</ele><time>2026-04-11T13:24:21.126Z</time></trkpt><trkpt lat="44.07844" lon="11.6849883"><ele>525.0</ele><time>2026-04-11T13:24:22.124Z</time></trkpt><trkpt lat="44.0784817" lon="11.6848767"><ele>525.0</ele><time>2026-04-11T13:24:23.124Z</time></trkpt><trkpt lat="44.0785133" lon="11.6847633"><ele>525.0</ele><time>2026-04-11T13:24:24.126Z</time></trkpt><trkpt lat="44.0785283" lon="11.6846483"><ele>525.0</ele><time>2026-04-11T13:24:25.125Z</time></trkpt><trkpt lat="44.0785267" lon="11.6845367"><ele>525.0</ele><time>2026-04-11T13:24:26.124Z</time></trkpt><trkpt lat="44.0785067" lon="11.6844317"><ele>525.0</ele><time>2026-04-11T13:24:27.123Z</time></trkpt><trkpt lat="44.078475" lon="11.68434"><ele>525.0</ele><time>2026-04-11T13:24:28.125Z</time></trkpt><trkpt lat="44.0784317" lon="11.6842517"><ele>525.3333333333334</ele><time>2026-04-11T13:24:29.124Z</time></trkpt><trkpt lat="44.0783683" lon="11.684165"><ele>525.6666666666666</ele><time>2026-04-11T13:24:30.122Z</time></trkpt><trkpt lat="44.0782983" lon="11.684075"><ele>526.0</ele><time>2026-04-11T13:24:31.124Z</time></trkpt><trkpt lat="44.0782417" lon="11.6839817"><ele>526.3333333333333</ele><time>2026-04-11T13:24:32.125Z</time></trkpt><trkpt lat="44.0782067" lon="11.6838733"><ele>526.6666666666666</ele><time>2026-04-11T13:24:33.124Z</time></trkpt><trkpt lat="44.0781883" lon="11.6837683"><ele>527.0</ele><time>2026-04-11T13:24:34.124Z</time></trkpt><trkpt lat="44.0781917" lon="11.6836683"><ele>525.6666666666666</ele><time>2026-04-11T13:24:35.123Z</time></trkpt><trkpt lat="44.07826" lon="11.683575"><ele>524.3333333333333</ele><time>2026-04-11T13:24:36.124Z</time></trkpt><trkpt lat="44.07832" lon="11.6834783"><ele>523.0</ele><time>2026-04-11T13:24:37.126Z</time></trkpt><trkpt lat="44.0783883" lon="11.683405"><ele>521.6666666666666</ele><time>2026-04-11T13:24:38.124Z</time></trkpt><trkpt lat="44.0784517" lon="11.6833417"><ele>520.3333333333334</ele><time>2026-04-11T13:24:39.125Z</time></trkpt><trkpt lat="44.07851" lon="11.6832817"><ele>519.0</ele><time>2026-04-11T13:24:40.124Z</time></trkpt><trkpt lat="44.07853" lon="11.6831767"><ele>519.0</ele><time>2026-04-11T13:24:42.124Z</time></trkpt><trkpt lat="44.0784617" lon="11.6831633"><ele>519.0</ele><time>2026-04-11T13:24:44.124Z</time></trkpt><trkpt lat="44.0783983" lon="11.6831967"><ele>519.0</ele><time>2026-04-11T13:24:45.124Z</time></trkpt><trkpt lat="44.07833" lon="11.6832317"><ele>519.0</ele><time>2026-04-11T13:24:46.124Z</time></trkpt><trkpt lat="44.0782383" lon="11.6832767"><ele>519.0</ele><time>2026-04-11T13:24:47.124Z</time></trkpt><trkpt lat="44.078155" lon="11.6833233"><ele>519.0</ele><time>2026-04-11T13:24:48.124Z</time></trkpt><trkpt lat="44.0780767" lon="11.6833717"><ele>513.6</ele><time>2026-04-11T13:24:49.124Z</time></trkpt><trkpt lat="44.0780017" lon="11.6834333"><ele>508.2</ele><time>2026-04-11T13:24:50.123Z</time></trkpt><trkpt lat="44.07793" lon="11.6835017"><ele>502.80000000000007</ele><time>2026-04-11T13:24:51.126Z</time></trkpt><trkpt lat="44.07787" lon="11.683585"><ele>497.40000000000003</ele><time>2026-04-11T13:24:52.125Z</time></trkpt><trkpt lat="44.077825" lon="11.68367"><ele>492.0</ele><time>2026-04-11T13:24:53.124Z</time></trkpt><trkpt lat="44.0778117" lon="11.6838367"><ele>492.0</ele><time>2026-04-11T13:24:55.124Z</time></trkpt><trkpt lat="44.077835" lon="11.6839367"><ele>492.0</ele><time>2026-04-11T13:24:56.124Z</time></trkpt><trkpt lat="44.0778767" lon="11.6840483"><ele>492.0</ele><time>2026-04-11T13:24:57.124Z</time></trkpt><trkpt lat="44.0779117" lon="11.68416"><ele>492.0</ele><time>2026-04-11T13:24:58.124Z</time></trkpt><trkpt lat="44.07793" lon="11.6842683"><ele>492.0</ele><time>2026-04-11T13:24:59.123Z</time></trkpt><trkpt lat="44.0779317" lon="11.6843833"><ele>492.0</ele><time>2026-04-11T13:25:00.125Z</time></trkpt><trkpt lat="44.0779217" lon="11.6845033"><ele>492.20000000000005</ele><time>2026-04-11T13:25:01.123Z</time></trkpt><trkpt lat="44.077895" lon="11.6846183"><ele>492.40000000000003</ele><time>2026-04-11T13:25:02.123Z</time></trkpt><trkpt lat="44.077855" lon="11.68474"><ele>492.59999999999997</ele><time>2026-04-11T13:25:03.125Z</time></trkpt><trkpt lat="44.077825" lon="11.6848733"><ele>492.79999999999995</ele><time>2026-04-11T13:25:04.123Z</time></trkpt><trkpt lat="44.0777883" lon="11.684995"><ele>493.0</ele><time>2026-04-11T13:25:05.124Z</time></trkpt><trkpt lat="44.07774" lon="11.6851033"><ele>493.00000000000006</ele><time>2026-04-11T13:25:06.124Z</time></trkpt><trkpt lat="44.0776783" lon="11.685185"><ele>493.0</ele><time>2026-04-11T13:25:07.124Z</time></trkpt><trkpt lat="44.0776067" lon="11.685245"><ele>493.0</ele><time>2026-04-11T13:25:08.124Z</time></trkpt><trkpt lat="44.077525" lon="11.6852867"><ele>493.0</ele><time>2026-04-11T13:25:09.125Z</time></trkpt><trkpt lat="44.0774583" lon="11.685325"><ele>493.00000000000006</ele><time>2026-04-11T13:25:10.123Z</time></trkpt><trkpt lat="44.0774067" lon="11.6853817"><ele>493.0</ele><time>2026-04-11T13:25:11.124Z</time></trkpt><trkpt lat="44.07735" lon="11.6855317"><ele>489.33333333333337</ele><time>2026-04-11T13:25:13.124Z</time></trkpt><trkpt lat="44.0773383" lon="11.6856267"><ele>485.6666666666667</ele><time>2026-04-11T13:25:14.125Z</time></trkpt><trkpt lat="44.0773217" lon="11.6857367"><ele>482.0</ele><time>2026-04-11T13:25:15.124Z</time></trkpt><trkpt lat="44.0773" lon="11.685855"><ele>478.33333333333337</ele><time>2026-04-11T13:25:16.124Z</time></trkpt><trkpt lat="44.0772667" lon="11.685975"><ele>474.6666666666667</ele><time>2026-04-11T13:25:17.124Z</time></trkpt><trkpt lat="44.0772233" lon="11.6861117"><ele>471.0</ele><time>2026-04-11T13:25:18.124Z</time></trkpt><trkpt lat="44.0771783" lon="11.6862617"><ele>470.5</ele><time>2026-04-11T13:25:19.124Z</time></trkpt><trkpt lat="44.0771283" lon="11.6864233"><ele>470.0</ele><time>2026-04-11T13:25:20.125Z</time></trkpt><trkpt lat="44.0770717" lon="11.68658"><ele>469.5</ele><time>2026-04-11T13:25:21.125Z</time></trkpt><trkpt lat="44.0770167" lon="11.68673"><ele>469.0</ele><time>2026-04-11T13:25:22.125Z</time></trkpt><trkpt lat="44.0769567" lon="11.6868767"><ele>470.0</ele><time>2026-04-11T13:25:23.124Z</time></trkpt><trkpt lat="44.0769033" lon="11.68702"><ele>471.0</ele><time>2026-04-11T13:25:24.124Z</time></trkpt><trkpt lat="44.076855" lon="11.6871583"><ele>472.0</ele><time>2026-04-11T13:25:25.123Z</time></trkpt><trkpt lat="44.0768033" lon="11.687285"><ele>473.0</ele><time>2026-04-11T13:25:26.125Z</time></trkpt><trkpt lat="44.0767467" lon="11.6874067"><ele>474.0</ele><time>2026-04-11T13:25:27.125Z</time></trkpt><trkpt lat="44.0766833" lon="11.6875167"><ele>474.0</ele><time>2026-04-11T13:25:28.122Z</time></trkpt><trkpt lat="44.0766167" lon="11.687625"><ele>474.0</ele><time>2026-04-11T13:25:29.122Z</time></trkpt><trkpt lat="44.0765567" lon="11.6877383"><ele>474.0</ele><time>2026-04-11T13:25:30.125Z</time></trkpt><trkpt lat="44.0765083" lon="11.6878567"><ele>474.0</ele><time>2026-04-11T13:25:31.122Z</time></trkpt><trkpt lat="44.07648" lon="11.6879883"><ele>474.0</ele><time>2026-04-11T13:25:32.123Z</time></trkpt><trkpt lat="44.0764567" lon="11.688135"><ele>474.5</ele><time>2026-04-11T13:25:33.124Z</time></trkpt><trkpt lat="44.0764233" lon="11.68829"><ele>475.0</ele><time>2026-04-11T13:25:34.123Z</time></trkpt><trkpt lat="44.0763883" lon="11.6884517"><ele>475.5</ele><time>2026-04-11T13:25:35.123Z</time></trkpt><trkpt lat="44.0763583" lon="11.6886233"><ele>476.0</ele><time>2026-04-11T13:25:36.123Z</time></trkpt><trkpt lat="44.0763283" lon="11.6887933"><ele>476.0</ele><time>2026-04-11T13:25:37.123Z</time></trkpt><trkpt lat="44.0762967" lon="11.6889567"><ele>476.0</ele><time>2026-04-11T13:25:38.125Z</time></trkpt><trkpt lat="44.07627" lon="11.689115"><ele>476.0</ele><time>2026-04-11T13:25:39.124Z</time></trkpt><trkpt lat="44.076245" lon="11.6892667"><ele>476.0</ele><time>2026-04-11T13:25:40.124Z</time></trkpt><trkpt lat="44.0762267" lon="11.68942"><ele>475.25</ele><time>2026-04-11T13:25:41.124Z</time></trkpt><trkpt lat="44.0762183" lon="11.6895883"><ele>474.5</ele><time>2026-04-11T13:25:42.125Z</time></trkpt><trkpt lat="44.0762167" lon="11.6897517"><ele>473.75</ele><time>2026-04-11T13:25:43.124Z</time></trkpt><trkpt lat="44.0762283" lon="11.68991"><ele>473.0</ele><time>2026-04-11T13:25:44.125Z</time></trkpt><trkpt lat="44.0762467" lon="11.690065"><ele>472.99999999999994</ele><time>2026-04-11T13:25:45.125Z</time></trkpt><trkpt lat="44.0762667" lon="11.69021"><ele>473.0</ele><time>2026-04-11T13:25:46.125Z</time></trkpt><trkpt lat="44.0762733" lon="11.69034"><ele>473.0</ele><time>2026-04-11T13:25:47.125Z</time></trkpt><trkpt lat="44.076265" lon="11.69046"><ele>473.0</ele><time>2026-04-11T13:25:48.124Z</time></trkpt><trkpt lat="44.0762417" lon="11.6905667"><ele>472.99999999999994</ele><time>2026-04-11T13:25:49.124Z</time></trkpt><trkpt lat="44.0761933" lon="11.6906583"><ele>473.0</ele><time>2026-04-11T13:25:50.123Z</time></trkpt><trkpt lat="44.0761417" lon="11.6907467"><ele>469.2</ele><time>2026-04-11T13:25:51.124Z</time></trkpt><trkpt lat="44.076095" lon="11.6908317"><ele>465.4</ele><time>2026-04-11T13:25:52.125Z</time></trkpt><trkpt lat="44.07601" lon="11.6909267"><ele>461.59999999999997</ele><time>2026-04-11T13:25:54.122Z</time></trkpt><trkpt lat="44.0759167" lon="11.6909117"><ele>457.79999999999995</ele><time>2026-04-11T13:25:56.124Z</time></trkpt><trkpt lat="44.07583" lon="11.6907733"><ele>454.0</ele><time>2026-04-11T13:25:58.123Z</time></trkpt><trkpt lat="44.075785" lon="11.6906833"><ele>448.5</ele><time>2026-04-11T13:25:59.125Z</time></trkpt><trkpt lat="44.0757217" lon="11.69058"><ele>443.0</ele><time>2026-04-11T13:26:00.124Z</time></trkpt><trkpt lat="44.0756383" lon="11.69048"><ele>437.5</ele><time>2026-04-11T13:26:01.123Z</time></trkpt><trkpt lat="44.0755417" lon="11.6903733"><ele>432.0</ele><time>2026-04-11T13:26:02.124Z</time></trkpt><trkpt lat="44.075445" lon="11.6902583"><ele>435.5</ele><time>2026-04-11T13:26:03.124Z</time></trkpt><trkpt lat="44.0753433" lon="11.6901317"><ele>439.0</ele><time>2026-04-11T13:26:04.123Z</time></trkpt><trkpt lat="44.0752383" lon="11.6900133"><ele>442.5</ele><time>2026-04-11T13:26:05.123Z</time></trkpt><trkpt lat="44.0751317" lon="11.6899167"><ele>446.0</ele><time>2026-04-11T13:26:06.122Z</time></trkpt><trkpt lat="44.0750183" lon="11.68983"><ele>443.8</ele><time>2026-04-11T13:26:07.125Z</time></trkpt><trkpt lat="44.0749167" lon="11.6897417"><ele>441.6</ele><time>2026-04-11T13:26:08.124Z</time></trkpt><trkpt lat="44.0748333" lon="11.6896617"><ele>439.4</ele><time>2026-04-11T13:26:09.124Z</time></trkpt><trkpt lat="44.0747767" lon="11.6895633"><ele>437.2</ele><time>2026-04-11T13:26:10.124Z</time></trkpt><trkpt lat="44.0747267" lon="11.6894683"><ele>435.0</ele><time>2026-04-11T13:26:11.123Z</time></trkpt><trkpt lat="44.0747017" lon="11.689375"><ele>435.00000000000006</ele><time>2026-04-11T13:26:12.123Z</time></trkpt><trkpt lat="44.0747033" lon="11.6892767"><ele>435.0</ele><time>2026-04-11T13:26:13.123Z</time></trkpt><trkpt lat="44.0747133" lon="11.6891833"><ele>435.0</ele><time>2026-04-11T13:26:14.124Z</time></trkpt><trkpt lat="44.0747533" lon="11.689095"><ele>435.0</ele><time>2026-04-11T13:26:15.124Z</time></trkpt><trkpt lat="44.0747883" lon="11.68901"><ele>435.0</ele><time>2026-04-11T13:26:16.124Z</time></trkpt><trkpt lat="44.0748133" lon="11.6889283"><ele>435.00000000000006</ele><time>2026-04-11T13:26:17.123Z</time></trkpt><trkpt lat="44.0747983" lon="11.6888367"><ele>435.0</ele><time>2026-04-11T13:26:19.123Z</time></trkpt><trkpt lat="44.0747183" lon="11.6888817"><ele>435.0</ele><time>2026-04-11T13:26:21.125Z</time></trkpt><trkpt lat="44.0746383" lon="11.688995"><ele>435.0</ele><time>2026-04-11T13:26:23.123Z</time></trkpt><trkpt lat="44.074595" lon="11.6890617"><ele>435.0</ele><time>2026-04-11T13:26:24.124Z</time></trkpt><trkpt lat="44.0745567" lon="11.6891367"><ele>435.0</ele><time>2026-04-11T13:26:25.123Z</time></trkpt><trkpt lat="44.0745067" lon="11.6892983"><ele>435.0</ele><time>2026-04-11T13:26:27.124Z</time></trkpt><trkpt lat="44.0745217" lon="11.6894267"><ele>432.8</ele><time>2026-04-11T13:26:29.124Z</time></trkpt><trkpt lat="44.0745767" lon="11.6895617"><ele>430.6</ele><time>2026-04-11T13:26:31.124Z</time></trkpt><trkpt lat="44.07465" lon="11.6897167"><ele>428.4</ele><time>2026-04-11T13:26:33.123Z</time></trkpt><trkpt lat="44.0746967" lon="11.6897867"><ele>426.2</ele><time>2026-04-11T13:26:34.123Z</time></trkpt><trkpt lat="44.0747583" lon="11.689855"><ele>424.0</ele><time>2026-04-11T13:26:35.124Z</time></trkpt><trkpt lat="44.0748283" lon="11.6899317"><ele>424.0</ele><time>2026-04-11T13:26:36.124Z</time></trkpt><trkpt lat="44.0749033" lon="11.6900133"><ele>424.0</ele><time>2026-04-11T13:26:37.125Z</time></trkpt><trkpt lat="44.074985" lon="11.6901133"><ele>424.0</ele><time>2026-04-11T13:26:38.124Z</time></trkpt><trkpt lat="44.07507" lon="11.6902233"><ele>424.0</ele><time>2026-04-11T13:26:39.124Z</time></trkpt><trkpt lat="44.0751567" lon="11.6903417"><ele>424.0</ele><time>2026-04-11T13:26:40.125Z</time></trkpt><trkpt lat="44.0752417" lon="11.6904733"><ele>426.0</ele><time>2026-04-11T13:26:41.125Z</time></trkpt><trkpt lat="44.075325" lon="11.6906183"><ele>428.0</ele><time>2026-04-11T13:26:42.124Z</time></trkpt><trkpt lat="44.07541" lon="11.6907683"><ele>430.0</ele><time>2026-04-11T13:26:43.128Z</time></trkpt><trkpt lat="44.0754967" lon="11.6909217"><ele>432.0</ele><time>2026-04-11T13:26:44.124Z</time></trkpt><trkpt lat="44.0755867" lon="11.6910733"><ele>431.25</ele><time>2026-04-11T13:26:45.124Z</time></trkpt><trkpt lat="44.0756767" lon="11.6912183"><ele>430.5</ele><time>2026-04-11T13:26:46.124Z</time></trkpt><trkpt lat="44.0757717" lon="11.6913517"><ele>429.75</ele><time>2026-04-11T13:26:47.124Z</time></trkpt><trkpt lat="44.0758767" lon="11.6914717"><ele>429.0</ele><time>2026-04-11T13:26:48.125Z</time></trkpt><trkpt lat="44.0759917" lon="11.6915767"><ele>429.0</ele><time>2026-04-11T13:26:49.124Z</time></trkpt><trkpt lat="44.0761033" lon="11.69168"><ele>429.0</ele><time>2026-04-11T13:26:50.127Z</time></trkpt><trkpt lat="44.0762" lon="11.6917933"><ele>429.0</ele><time>2026-04-11T13:26:51.125Z</time></trkpt><trkpt lat="44.0762733" lon="11.6919233"><ele>429.0</ele><time>2026-04-11T13:26:52.123Z</time></trkpt><trkpt lat="44.0763133" lon="11.6920733"><ele>426.0</ele><time>2026-04-11T13:26:53.124Z</time></trkpt><trkpt lat="44.0763267" lon="11.6922317"><ele>423.0</ele><time>2026-04-11T13:26:54.124Z</time></trkpt><trkpt lat="44.0763467" lon="11.6923917"><ele>420.0</ele><time>2026-04-11T13:26:55.124Z</time></trkpt><trkpt lat="44.0763867" lon="11.69255"><ele>417.0</ele><time>2026-04-11T13:26:56.123Z</time></trkpt><trkpt lat="44.0764517" lon="11.692705"><ele>415.33333333333337</ele><time>2026-04-11T13:26:57.124Z</time></trkpt><trkpt lat="44.0765367" lon="11.6928683"><ele>413.6666666666667</ele><time>2026-04-11T13:26:58.124Z</time></trkpt><trkpt lat="44.0766317" lon="11.6930483"><ele>412.0</ele><time>2026-04-11T13:26:59.124Z</time></trkpt><trkpt lat="44.0767317" lon="11.6932367"><ele>413.6666666666667</ele><time>2026-04-11T13:27:00.125Z</time></trkpt><trkpt lat="44.0768333" lon="11.6934417"><ele>415.33333333333337</ele><time>2026-04-11T13:27:01.125Z</time></trkpt><trkpt lat="44.0769367" lon="11.6936517"><ele>417.0</ele><time>2026-04-11T13:27:02.124Z</time></trkpt><trkpt lat="44.0770417" lon="11.6938683"><ele>417.0</ele><time>2026-04-11T13:27:03.124Z</time></trkpt><trkpt lat="44.0771367" lon="11.694075"><ele>417.0</ele><time>2026-04-11T13:27:04.124Z</time></trkpt><trkpt lat="44.0772233" lon="11.6942567"><ele>417.0</ele><time>2026-04-11T13:27:05.123Z</time></trkpt><trkpt lat="44.0773033" lon="11.6944083"><ele>416.0</ele><time>2026-04-11T13:27:06.124Z</time></trkpt><trkpt lat="44.0773933" lon="11.6945183"><ele>415.0</ele><time>2026-04-11T13:27:07.124Z</time></trkpt><trkpt lat="44.0774983" lon="11.6945817"><ele>414.0</ele><time>2026-04-11T13:27:08.123Z</time></trkpt><trkpt lat="44.0776033" lon="11.69463"><ele>413.0</ele><time>2026-04-11T13:27:09.125Z</time></trkpt><trkpt lat="44.0776983" lon="11.6946767"><ele>412.0</ele><time>2026-04-11T13:27:10.123Z</time></trkpt><trkpt lat="44.0777717" lon="11.694765"><ele>412.0</ele><time>2026-04-11T13:27:11.123Z</time></trkpt><trkpt lat="44.0778117" lon="11.6948817"><ele>412.0</ele><time>2026-04-11T13:27:12.123Z</time></trkpt><trkpt lat="44.07782" lon="11.6950333"><ele>412.0</ele><time>2026-04-11T13:27:13.124Z</time></trkpt><trkpt lat="44.0778033" lon="11.6952"><ele>412.0</ele><time>2026-04-11T13:27:14.122Z</time></trkpt><trkpt lat="44.07778" lon="11.6953667"><ele>412.0</ele><time>2026-04-11T13:27:15.124Z</time></trkpt><trkpt lat="44.0777767" lon="11.6955283"><ele>410.25</ele><time>2026-04-11T13:27:16.123Z</time></trkpt><trkpt lat="44.07781" lon="11.69569"><ele>408.5</ele><time>2026-04-11T13:27:17.127Z</time></trkpt><trkpt lat="44.0778783" lon="11.695845"><ele>406.75</ele><time>2026-04-11T13:27:18.124Z</time></trkpt><trkpt lat="44.077965" lon="11.696"><ele>405.0</ele><time>2026-04-11T13:27:19.123Z</time></trkpt><trkpt lat="44.078065" lon="11.6961617"><ele>403.0</ele><time>2026-04-11T13:27:20.124Z</time></trkpt><trkpt lat="44.0781717" lon="11.6963283"><ele>401.0</ele><time>2026-04-11T13:27:21.124Z</time></trkpt><trkpt lat="44.0782817" lon="11.696505"><ele>399.0</ele><time>2026-04-11T13:27:22.126Z</time></trkpt><trkpt lat="44.078395" lon="11.69669"><ele>399.66666666666663</ele><time>2026-04-11T13:27:23.123Z</time></trkpt><trkpt lat="44.0785067" lon="11.696875"><ele>400.3333333333333</ele><time>2026-04-11T13:27:24.125Z</time></trkpt><trkpt lat="44.07862" lon="11.6970683"><ele>401.0</ele><time>2026-04-11T13:27:25.125Z</time></trkpt><trkpt lat="44.078735" lon="11.69726"><ele>401.0</ele><time>2026-04-11T13:27:26.124Z</time></trkpt><trkpt lat="44.078855" lon="11.6974417"><ele>401.0</ele><time>2026-04-11T13:27:27.125Z</time></trkpt><trkpt lat="44.0789783" lon="11.69761"><ele>401.0</ele><time>2026-04-11T13:27:28.126Z</time></trkpt><trkpt lat="44.0791067" lon="11.6977767"><ele>402.0</ele><time>2026-04-11T13:27:29.124Z</time></trkpt><trkpt lat="44.079235" lon="11.69795"><ele>403.0</ele><time>2026-04-11T13:27:30.126Z</time></trkpt><trkpt lat="44.0793517" lon="11.6981367"><ele>404.0</ele><time>2026-04-11T13:27:31.123Z</time></trkpt><trkpt lat="44.0794533" lon="11.69834"><ele>404.0</ele><time>2026-04-11T13:27:32.124Z</time></trkpt><trkpt lat="44.0795533" lon="11.69855"><ele>404.0</ele><time>2026-04-11T13:27:33.124Z</time></trkpt><trkpt lat="44.079655" lon="11.698755"><ele>404.0</ele><time>2026-04-11T13:27:34.123Z</time></trkpt><trkpt lat="44.079755" lon="11.698945"><ele>404.3333333333333</ele><time>2026-04-11T13:27:35.123Z</time></trkpt><trkpt lat="44.0798533" lon="11.6991217"><ele>404.66666666666663</ele><time>2026-04-11T13:27:36.123Z</time></trkpt><trkpt lat="44.0799467" lon="11.6992917"><ele>405.0</ele><time>2026-04-11T13:27:37.124Z</time></trkpt><trkpt lat="44.0800317" lon="11.6994567"><ele>403.0</ele><time>2026-04-11T13:27:38.123Z</time></trkpt><trkpt lat="44.08011" lon="11.6996283"><ele>401.0</ele><time>2026-04-11T13:27:39.124Z</time></trkpt><trkpt lat="44.0801817" lon="11.6998083"><ele>399.0</ele><time>2026-04-11T13:27:40.123Z</time></trkpt><trkpt lat="44.08025" lon="11.699995"><ele>397.0</ele><time>2026-04-11T13:27:41.123Z</time></trkpt><trkpt lat="44.08032" lon="11.70018"><ele>396.0</ele><time>2026-04-11T13:27:42.124Z</time></trkpt><trkpt lat="44.080395" lon="11.7003617"><ele>395.0</ele><time>2026-04-11T13:27:43.124Z</time></trkpt><trkpt lat="44.0804683" lon="11.7005367"><ele>394.0</ele><time>2026-04-11T13:27:44.123Z</time></trkpt><trkpt lat="44.0805383" lon="11.7007067"><ele>393.0</ele><time>2026-04-11T13:27:45.124Z</time></trkpt><trkpt lat="44.08061" lon="11.700865"><ele>393.0</ele><time>2026-04-11T13:27:46.124Z</time></trkpt><trkpt lat="44.080695" lon="11.7009983"><ele>393.0</ele><time>2026-04-11T13:27:47.122Z</time></trkpt><trkpt lat="44.0808" lon="11.701095"><ele>393.0</ele><time>2026-04-11T13:27:48.123Z</time></trkpt><trkpt lat="44.0809033" lon="11.70117"><ele>393.0</ele><time>2026-04-11T13:27:49.123Z</time></trkpt><trkpt lat="44.0809867" lon="11.7012583"><ele>393.5</ele><time>2026-04-11T13:27:50.124Z</time></trkpt><trkpt lat="44.0810533" lon="11.7013733"><ele>394.0</ele><time>2026-04-11T13:27:51.126Z</time></trkpt><trkpt lat="44.08109" lon="11.701515"><ele>394.5</ele><time>2026-04-11T13:27:52.124Z</time></trkpt><trkpt lat="44.0810967" lon="11.7016783"><ele>395.0</ele><time>2026-04-11T13:27:53.123Z</time></trkpt><trkpt lat="44.0810867" lon="11.70186"><ele>394.0</ele><time>2026-04-11T13:27:54.124Z</time></trkpt><trkpt lat="44.081075" lon="11.7020583"><ele>393.0</ele><time>2026-04-11T13:27:55.124Z</time></trkpt><trkpt lat="44.0810683" lon="11.7022667"><ele>392.0</ele><time>2026-04-11T13:27:56.123Z</time></trkpt><trkpt lat="44.0810667" lon="11.7024867"><ele>392.0</ele><time>2026-04-11T13:27:57.124Z</time></trkpt><trkpt lat="44.081065" lon="11.7027117"><ele>392.0</ele><time>2026-04-11T13:27:58.126Z</time></trkpt><trkpt lat="44.08105" lon="11.702945"><ele>392.0</ele><time>2026-04-11T13:27:59.123Z</time></trkpt><trkpt lat="44.0810167" lon="11.7031783"><ele>391.3333333333333</ele><time>2026-04-11T13:28:00.123Z</time></trkpt><trkpt lat="44.0809783" lon="11.7034167"><ele>390.66666666666663</ele><time>2026-04-11T13:28:01.124Z</time></trkpt><trkpt lat="44.0809333" lon="11.7036533"><ele>390.0</ele><time>2026-04-11T13:28:02.124Z</time></trkpt><trkpt lat="44.0808867" lon="11.703885"><ele>390.0</ele><time>2026-04-11T13:28:03.124Z</time></trkpt><trkpt lat="44.08084" lon="11.7041067"><ele>390.0</ele><time>2026-04-11T13:28:04.123Z</time></trkpt><trkpt lat="44.080795" lon="11.7043233"><ele>390.0</ele><time>2026-04-11T13:28:05.122Z</time></trkpt><trkpt lat="44.0807533" lon="11.70453"><ele>389.25</ele><time>2026-04-11T13:28:06.123Z</time></trkpt><trkpt lat="44.0807117" lon="11.7047283"><ele>388.5</ele><time>2026-04-11T13:28:07.124Z</time></trkpt><trkpt lat="44.08067" lon="11.70492"><ele>387.75</ele><time>2026-04-11T13:28:08.122Z</time></trkpt><trkpt lat="44.0806283" lon="11.705105"><ele>387.0</ele><time>2026-04-11T13:28:09.124Z</time></trkpt><trkpt lat="44.0805917" lon="11.7052833"><ele>386.5</ele><time>2026-04-11T13:28:10.124Z</time></trkpt><trkpt lat="44.0805567" lon="11.7054567"><ele>386.0</ele><time>2026-04-11T13:28:11.123Z</time></trkpt><trkpt lat="44.080525" lon="11.7056267"><ele>385.5</ele><time>2026-04-11T13:28:12.123Z</time></trkpt><trkpt lat="44.0804883" lon="11.7058"><ele>385.0</ele><time>2026-04-11T13:28:13.123Z</time></trkpt><trkpt lat="44.08046" lon="11.7059783"><ele>384.5</ele><time>2026-04-11T13:28:14.123Z</time></trkpt><trkpt lat="44.0804417" lon="11.7061583"><ele>384.0</ele><time>2026-04-11T13:28:15.124Z</time></trkpt><trkpt lat="44.0804333" lon="11.706345"><ele>383.5</ele><time>2026-04-11T13:28:16.123Z</time></trkpt><trkpt lat="44.0804383" lon="11.7065317"><ele>383.0</ele><time>2026-04-11T13:28:17.124Z</time></trkpt><trkpt lat="44.080445" lon="11.7067183"><ele>383.0</ele><time>2026-04-11T13:28:18.123Z</time></trkpt><trkpt lat="44.0804483" lon="11.706905"><ele>383.0</ele><time>2026-04-11T13:28:19.124Z</time></trkpt><trkpt lat="44.0804483" lon="11.7070883"><ele>383.0</ele><time>2026-04-11T13:28:20.124Z</time></trkpt><trkpt lat="44.0804467" lon="11.70727"><ele>383.0</ele><time>2026-04-11T13:28:21.125Z</time></trkpt><trkpt lat="44.0804367" lon="11.7074483"><ele>383.0</ele><time>2026-04-11T13:28:22.125Z</time></trkpt><trkpt lat="44.080425" lon="11.7076233"><ele>383.0</ele><time>2026-04-11T13:28:23.124Z</time></trkpt><trkpt lat="44.0804133" lon="11.7078"><ele>383.0</ele><time>2026-04-11T13:28:24.124Z</time></trkpt><trkpt lat="44.0804017" lon="11.7079733"><ele>383.0</ele><time>2026-04-11T13:28:25.125Z</time></trkpt><trkpt lat="44.08039" lon="11.7081433"><ele>383.0</ele><time>2026-04-11T13:28:26.124Z</time></trkpt><trkpt lat="44.080375" lon="11.7083067"><ele>383.0</ele><time>2026-04-11T13:28:27.124Z</time></trkpt><trkpt lat="44.080365" lon="11.708455"><ele>383.0</ele><time>2026-04-11T13:28:28.124Z</time></trkpt><trkpt lat="44.0803533" lon="11.7085883"><ele>383.0</ele><time>2026-04-11T13:28:29.124Z</time></trkpt><trkpt lat="44.0803467" lon="11.708705"><ele>383.0</ele><time>2026-04-11T13:28:30.122Z</time></trkpt><trkpt lat="44.080345" lon="11.7088033"><ele>383.0</ele><time>2026-04-11T13:28:31.124Z</time></trkpt><trkpt lat="44.0803433" lon="11.7089433"><ele>383.0</ele><time>2026-04-11T13:28:33.124Z</time></trkpt><trkpt lat="44.0803633" lon="11.7090283"><ele>383.0</ele><time>2026-04-11T13:28:35.122Z</time></trkpt><trkpt lat="44.0804367" lon="11.7091083"><ele>383.0</ele><time>2026-04-11T13:28:37.124Z</time></trkpt><trkpt lat="44.08049" lon="11.709155"><ele>383.0</ele><time>2026-04-11T13:28:38.122Z</time></trkpt><trkpt lat="44.08056" lon="11.7091833"><ele>383.0</ele><time>2026-04-11T13:28:39.124Z</time></trkpt><trkpt lat="44.080645" lon="11.7092117"><ele>383.0</ele><time>2026-04-11T13:28:40.122Z</time></trkpt><trkpt lat="44.0807467" lon="11.709235"><ele>383.0</ele><time>2026-04-11T13:28:41.125Z</time></trkpt><trkpt lat="44.08087" lon="11.70926"><ele>383.0</ele><time>2026-04-11T13:28:42.124Z</time></trkpt><trkpt lat="44.0809917" lon="11.7092733"><ele>383.0</ele><time>2026-04-11T13:28:43.125Z</time></trkpt><trkpt lat="44.08111" lon="11.7092817"><ele>382.25</ele><time>2026-04-11T13:28:44.123Z</time></trkpt><trkpt lat="44.0812267" lon="11.7092967"><ele>381.5</ele><time>2026-04-11T13:28:45.125Z</time></trkpt><trkpt lat="44.0813367" lon="11.7093367"><ele>380.75</ele><time>2026-04-11T13:28:46.123Z</time></trkpt><trkpt lat="44.0814417" lon="11.7094083"><ele>380.0</ele><time>2026-04-11T13:28:47.123Z</time></trkpt><trkpt lat="44.081535" lon="11.709515"><ele>379.5</ele><time>2026-04-11T13:28:48.124Z</time></trkpt><trkpt lat="44.08162" lon="11.7096417"><ele>379.0</ele><time>2026-04-11T13:28:49.124Z</time></trkpt><trkpt lat="44.0816983" lon="11.7097767"><ele>378.5</ele><time>2026-04-11T13:28:50.124Z</time></trkpt><trkpt lat="44.0817883" lon="11.70992"><ele>378.0</ele><time>2026-04-11T13:28:51.124Z</time></trkpt><trkpt lat="44.081885" lon="11.710075"><ele>378.0</ele><time>2026-04-11T13:28:52.124Z</time></trkpt><trkpt lat="44.0819867" lon="11.7102333"><ele>378.0</ele><time>2026-04-11T13:28:53.123Z</time></trkpt><trkpt lat="44.0820917" lon="11.71039"><ele>378.0</ele><time>2026-04-11T13:28:54.124Z</time></trkpt><trkpt lat="44.08219" lon="11.7105533"><ele>376.75</ele><time>2026-04-11T13:28:55.124Z</time></trkpt><trkpt lat="44.0822767" lon="11.7107183"><ele>375.5</ele><time>2026-04-11T13:28:56.126Z</time></trkpt><trkpt lat="44.0823417" lon="11.7108817"><ele>374.25</ele><time>2026-04-11T13:28:57.125Z</time></trkpt><trkpt lat="44.0823767" lon="11.7110433"><ele>373.0</ele><time>2026-04-11T13:28:58.125Z</time></trkpt><trkpt lat="44.0823933" lon="11.71119"><ele>372.5</ele><time>2026-04-11T13:28:59.123Z</time></trkpt><trkpt lat="44.082405" lon="11.7113133"><ele>372.0</ele><time>2026-04-11T13:29:00.123Z</time></trkpt><trkpt lat="44.0824183" lon="11.711415"><ele>371.5</ele><time>2026-04-11T13:29:01.123Z</time></trkpt><trkpt lat="44.0824567" lon="11.7115567"><ele>371.0</ele><time>2026-04-11T13:29:03.124Z</time></trkpt><trkpt lat="44.0824917" lon="11.7116583"><ele>370.5</ele><time>2026-04-11T13:29:05.123Z</time></trkpt><trkpt lat="44.0825183" lon="11.7117433"><ele>370.0</ele><time>2026-04-11T13:29:08.123Z</time></trkpt><trkpt lat="44.0825583" lon="11.7118817"><ele>372.2</ele><time>2026-04-11T13:29:40.123Z</time></trkpt><trkpt lat="44.0825867" lon="11.7119867"><ele>374.4</ele><time>2026-04-11T13:29:41.122Z</time></trkpt><trkpt lat="44.0826167" lon="11.7121033"><ele>376.6</ele><time>2026-04-11T13:29:42.124Z</time></trkpt><trkpt lat="44.0826483" lon="11.712235"><ele>378.8</ele><time>2026-04-11T13:29:43.124Z</time></trkpt><trkpt lat="44.0826783" lon="11.71237"><ele>381.0</ele><time>2026-04-11T13:29:44.124Z</time></trkpt><trkpt lat="44.0827083" lon="11.7125017"><ele>381.0</ele><time>2026-04-11T13:29:45.124Z</time></trkpt><trkpt lat="44.08274" lon="11.7126267"><ele>381.0</ele><time>2026-04-11T13:29:46.123Z</time></trkpt><trkpt lat="44.08277" lon="11.7127517"><ele>381.0</ele><time>2026-04-11T13:29:47.123Z</time></trkpt><trkpt lat="44.0828" lon="11.7128767"><ele>381.0</ele><time>2026-04-11T13:29:48.124Z</time></trkpt><trkpt lat="44.0828333" lon="11.7130083"><ele>381.0</ele><time>2026-04-11T13:29:49.124Z</time></trkpt><trkpt lat="44.0828717" lon="11.7131467"><ele>378.8</ele><time>2026-04-11T13:29:50.124Z</time></trkpt><trkpt lat="44.0829167" lon="11.7132833"><ele>376.6</ele><time>2026-04-11T13:29:51.125Z</time></trkpt><trkpt lat="44.0829633" lon="11.7134183"><ele>374.4</ele><time>2026-04-11T13:29:52.126Z</time></trkpt><trkpt lat="44.083015" lon="11.713555"><ele>372.2</ele><time>2026-04-11T13:29:53.124Z</time></trkpt><trkpt lat="44.0830667" lon="11.7136933"><ele>370.0</ele><time>2026-04-11T13:29:54.125Z</time></trkpt><trkpt lat="44.0831117" lon="11.71384"><ele>369.25</ele><time>2026-04-11T13:29:55.125Z</time></trkpt><trkpt lat="44.0831617" lon="11.71398"><ele>368.5</ele><time>2026-04-11T13:29:56.124Z</time></trkpt><trkpt lat="44.08321" lon="11.7141233"><ele>367.75</ele><time>2026-04-11T13:29:57.125Z</time></trkpt><trkpt lat="44.08326" lon="11.714265"><ele>367.0</ele><time>2026-04-11T13:29:58.127Z</time></trkpt><trkpt lat="44.0833183" lon="11.7144067"><ele>368.5</ele><time>2026-04-11T13:29:59.124Z</time></trkpt><trkpt lat="44.08338" lon="11.714545"><ele>370.0</ele><time>2026-04-11T13:30:00.125Z</time></trkpt><trkpt lat="44.0834433" lon="11.714685"><ele>371.5</ele><time>2026-04-11T13:30:01.125Z</time></trkpt><trkpt lat="44.0835067" lon="11.714825"><ele>373.0</ele><time>2026-04-11T13:30:02.125Z</time></trkpt><trkpt lat="44.08357" lon="11.714955"><ele>373.0</ele><time>2026-04-11T13:30:03.125Z</time></trkpt><trkpt lat="44.0836333" lon="11.7150783"><ele>373.0</ele><time>2026-04-11T13:30:04.125Z</time></trkpt><trkpt lat="44.08369" lon="11.7151983"><ele>373.0</ele><time>2026-04-11T13:30:05.125Z</time></trkpt><trkpt lat="44.0837417" lon="11.7153217"><ele>373.0</ele><time>2026-04-11T13:30:06.125Z</time></trkpt><trkpt lat="44.0837833" lon="11.71545"><ele>373.0</ele><time>2026-04-11T13:30:07.125Z</time></trkpt><trkpt lat="44.083815" lon="11.71559"><ele>370.5</ele><time>2026-04-11T13:30:08.125Z</time></trkpt><trkpt lat="44.0838567" lon="11.715745"><ele>368.0</ele><time>2026-04-11T13:30:09.125Z</time></trkpt><trkpt lat="44.083905" lon="11.7159017"><ele>365.5</ele><time>2026-04-11T13:30:10.124Z</time></trkpt><trkpt lat="44.0839583" lon="11.7160633"><ele>363.0</ele><time>2026-04-11T13:30:11.124Z</time></trkpt><trkpt lat="44.08401" lon="11.7162283"><ele>362.0</ele><time>2026-04-11T13:30:12.122Z</time></trkpt><trkpt lat="44.0840633" lon="11.7163933"><ele>361.0</ele><time>2026-04-11T13:30:13.123Z</time></trkpt><trkpt lat="44.0841217" lon="11.7165533"><ele>360.0</ele><time>2026-04-11T13:30:14.125Z</time></trkpt><trkpt lat="44.0841817" lon="11.716695"><ele>359.0</ele><time>2026-04-11T13:30:15.124Z</time></trkpt><trkpt lat="44.08425" lon="11.7168217"><ele>360.5</ele><time>2026-04-11T13:30:16.123Z</time></trkpt><trkpt lat="44.0843233" lon="11.7169433"><ele>362.0</ele><time>2026-04-11T13:30:17.124Z</time></trkpt><trkpt lat="44.0844017" lon="11.717055"><ele>363.5</ele><time>2026-04-11T13:30:18.124Z</time></trkpt><trkpt lat="44.0844917" lon="11.7171467"><ele>365.0</ele><time>2026-04-11T13:30:19.125Z</time></trkpt><trkpt lat="44.0845933" lon="11.71722"><ele>365.0</ele><time>2026-04-11T13:30:20.123Z</time></trkpt><trkpt lat="44.0847033" lon="11.7172817"><ele>365.0</ele><time>2026-04-11T13:30:21.123Z</time></trkpt><trkpt lat="44.084825" lon="11.71733"><ele>365.0</ele><time>2026-04-11T13:30:22.123Z</time></trkpt><trkpt lat="44.0849567" lon="11.7173717"><ele>365.0</ele><time>2026-04-11T13:30:23.123Z</time></trkpt><trkpt lat="44.0850917" lon="11.7174067"><ele>367.25</ele><time>2026-04-11T13:30:24.123Z</time></trkpt><trkpt lat="44.08523" lon="11.7174367"><ele>369.5</ele><time>2026-04-11T13:30:25.123Z</time></trkpt><trkpt lat="44.0853667" lon="11.7174617"><ele>371.75</ele><time>2026-04-11T13:30:26.124Z</time></trkpt><trkpt lat="44.0855" lon="11.7174817"><ele>374.0</ele><time>2026-04-11T13:30:27.124Z</time></trkpt><trkpt lat="44.0856367" lon="11.7175117"><ele>375.75</ele><time>2026-04-11T13:30:28.124Z</time></trkpt><trkpt lat="44.08577" lon="11.7175417"><ele>377.5</ele><time>2026-04-11T13:30:29.124Z</time></trkpt><trkpt lat="44.0859067" lon="11.717565"><ele>379.25</ele><time>2026-04-11T13:30:30.124Z</time></trkpt><trkpt lat="44.0860467" lon="11.7175983"><ele>381.0</ele><time>2026-04-11T13:30:31.123Z</time></trkpt><trkpt lat="44.0861883" lon="11.7176383"><ele>381.0</ele><time>2026-04-11T13:30:32.124Z</time></trkpt><trkpt lat="44.0863217" lon="11.7176867"><ele>381.0</ele><time>2026-04-11T13:30:33.124Z</time></trkpt><trkpt lat="44.08645" lon="11.71774"><ele>381.0</ele><time>2026-04-11T13:30:34.127Z</time></trkpt><trkpt lat="44.0865817" lon="11.717775"><ele>381.0</ele><time>2026-04-11T13:30:35.126Z</time></trkpt><trkpt lat="44.086725" lon="11.7177933"><ele>374.0</ele><time>2026-04-11T13:30:36.125Z</time></trkpt><trkpt lat="44.0868733" lon="11.7178017"><ele>367.0</ele><time>2026-04-11T13:30:37.122Z</time></trkpt><trkpt lat="44.08703" lon="11.7178067"><ele>360.0</ele><time>2026-04-11T13:30:38.122Z</time></trkpt><trkpt lat="44.0871917" lon="11.7178133"><ele>360.0</ele><time>2026-04-11T13:30:39.124Z</time></trkpt><trkpt lat="44.0873583" lon="11.7178217"><ele>360.0</ele><time>2026-04-11T13:30:40.124Z</time></trkpt><trkpt lat="44.0875267" lon="11.717835"><ele>360.0</ele><time>2026-04-11T13:30:41.124Z</time></trkpt><trkpt lat="44.087695" lon="11.717845"><ele>359.3333333333333</ele><time>2026-04-11T13:30:42.124Z</time></trkpt><trkpt lat="44.0878617" lon="11.7178533"><ele>358.66666666666663</ele><time>2026-04-11T13:30:43.123Z</time></trkpt><trkpt lat="44.08803" lon="11.71786"><ele>358.0</ele><time>2026-04-11T13:30:44.123Z</time></trkpt><trkpt lat="44.0882" lon="11.7178733"><ele>358.0</ele><time>2026-04-11T13:30:45.124Z</time></trkpt><trkpt lat="44.0883717" lon="11.7178933"><ele>358.0</ele><time>2026-04-11T13:30:46.124Z</time></trkpt><trkpt lat="44.088545" lon="11.71792"><ele>358.0</ele><time>2026-04-11T13:30:47.124Z</time></trkpt><trkpt lat="44.08872" lon="11.7179567"><ele>358.0</ele><time>2026-04-11T13:30:48.124Z</time></trkpt><trkpt lat="44.088895" lon="11.7179983"><ele>358.0</ele><time>2026-04-11T13:30:49.123Z</time></trkpt><trkpt lat="44.0890733" lon="11.71804"><ele>358.0</ele><time>2026-04-11T13:30:50.123Z</time></trkpt><trkpt lat="44.0892517" lon="11.7180783"><ele>358.66666666666663</ele><time>2026-04-11T13:30:51.124Z</time></trkpt><trkpt lat="44.0894333" lon="11.71811"><ele>359.3333333333333</ele><time>2026-04-11T13:30:52.124Z</time></trkpt><trkpt lat="44.0896183" lon="11.71814"><ele>360.0</ele><time>2026-04-11T13:30:53.122Z</time></trkpt><trkpt lat="44.0898033" lon="11.71817"><ele>359.3333333333333</ele><time>2026-04-11T13:30:54.123Z</time></trkpt><trkpt lat="44.08999" lon="11.718195"><ele>358.66666666666663</ele><time>2026-04-11T13:30:55.124Z</time></trkpt><trkpt lat="44.0901667" lon="11.7182117"><ele>358.0</ele><time>2026-04-11T13:30:56.124Z</time></trkpt><trkpt lat="44.0903333" lon="11.7182117"><ele>358.0</ele><time>2026-04-11T13:30:57.124Z</time></trkpt><trkpt lat="44.0904933" lon="11.7182067"><ele>358.0</ele><time>2026-04-11T13:30:58.123Z</time></trkpt><trkpt lat="44.0906433" lon="11.7181883"><ele>358.0</ele><time>2026-04-11T13:30:59.123Z</time></trkpt><trkpt lat="44.0907833" lon="11.7181417"><ele>357.75</ele><time>2026-04-11T13:31:00.123Z</time></trkpt><trkpt lat="44.0909117" lon="11.7180783"><ele>357.5</ele><time>2026-04-11T13:31:01.123Z</time></trkpt><trkpt lat="44.0910267" lon="11.71801"><ele>357.25</ele><time>2026-04-11T13:31:02.123Z</time></trkpt><trkpt lat="44.0911317" lon="11.7179633"><ele>357.0</ele><time>2026-04-11T13:31:03.124Z</time></trkpt><trkpt lat="44.0912167" lon="11.71795"><ele>357.0</ele><time>2026-04-11T13:31:04.124Z</time></trkpt><trkpt lat="44.0912867" lon="11.71797"><ele>357.0</ele><time>2026-04-11T13:31:05.126Z</time></trkpt><trkpt lat="44.0913433" lon="11.7180233"><ele>357.0</ele><time>2026-04-11T13:31:06.124Z</time></trkpt><trkpt lat="44.0913767" lon="11.7180983"><ele>357.0</ele><time>2026-04-11T13:31:07.123Z</time></trkpt><trkpt lat="44.091395" lon="11.718195"><ele>357.0</ele><time>2026-04-11T13:31:08.126Z</time></trkpt><trkpt lat="44.091405" lon="11.718285"><ele>357.0</ele><time>2026-04-11T13:31:09.127Z</time></trkpt><trkpt lat="44.0914033" lon="11.7184167"><ele>357.0</ele><time>2026-04-11T13:31:10.127Z</time></trkpt><trkpt lat="44.091395" lon="11.7185933"><ele>354.3333333333333</ele><time>2026-04-11T13:31:11.126Z</time></trkpt><trkpt lat="44.0913767" lon="11.718815"><ele>351.66666666666663</ele><time>2026-04-11T13:31:12.125Z</time></trkpt><trkpt lat="44.0913533" lon="11.7190367"><ele>349.0</ele><time>2026-04-11T13:31:13.124Z</time></trkpt><trkpt lat="44.091325" lon="11.7192583"><ele>348.3333333333333</ele><time>2026-04-11T13:31:14.125Z</time></trkpt><trkpt lat="44.0912883" lon="11.7194833"><ele>347.6666666666667</ele><time>2026-04-11T13:31:15.125Z</time></trkpt><trkpt lat="44.09125" lon="11.7197033"><ele>347.0</ele><time>2026-04-11T13:31:16.124Z</time></trkpt><trkpt lat="44.0912167" lon="11.71992"><ele>347.0</ele><time>2026-04-11T13:31:17.122Z</time></trkpt><trkpt lat="44.09118" lon="11.72013"><ele>347.0</ele><time>2026-04-11T13:31:18.124Z</time></trkpt><trkpt lat="44.0911433" lon="11.7203317"><ele>347.0</ele><time>2026-04-11T13:31:19.123Z</time></trkpt><trkpt lat="44.0911083" lon="11.7205217"><ele>347.0</ele><time>2026-04-11T13:31:20.124Z</time></trkpt><trkpt lat="44.0910733" lon="11.7206967"><ele>346.8</ele><time>2026-04-11T13:31:21.124Z</time></trkpt><trkpt lat="44.0910433" lon="11.7208417"><ele>346.6</ele><time>2026-04-11T13:31:22.124Z</time></trkpt><trkpt lat="44.09102" lon="11.72098"><ele>346.40000000000003</ele><time>2026-04-11T13:31:23.123Z</time></trkpt><trkpt lat="44.091015" lon="11.7211233"><ele>346.20000000000005</ele><time>2026-04-11T13:31:24.123Z</time></trkpt><trkpt lat="44.091035" lon="11.721255"><ele>346.0</ele><time>2026-04-11T13:31:25.123Z</time></trkpt><trkpt lat="44.0910817" lon="11.7213717"><ele>346.3333333333333</ele><time>2026-04-11T13:31:26.125Z</time></trkpt><trkpt lat="44.0911383" lon="11.7214617"><ele>346.66666666666663</ele><time>2026-04-11T13:31:27.124Z</time></trkpt><trkpt lat="44.0912017" lon="11.7215267"><ele>347.0</ele><time>2026-04-11T13:31:28.123Z</time></trkpt><trkpt lat="44.09127" lon="11.721565"><ele>347.3333333333333</ele><time>2026-04-11T13:31:29.123Z</time></trkpt><trkpt lat="44.091345" lon="11.721585"><ele>347.6666666666667</ele><time>2026-04-11T13:31:30.124Z</time></trkpt><trkpt lat="44.0914333" lon="11.7215817"><ele>348.0</ele><time>2026-04-11T13:31:31.124Z</time></trkpt><trkpt lat="44.091535" lon="11.7215633"><ele>346.5</ele><time>2026-04-11T13:31:32.124Z</time></trkpt><trkpt lat="44.0916517" lon="11.7215217"><ele>345.0</ele><time>2026-04-11T13:31:33.126Z</time></trkpt><trkpt lat="44.0917983" lon="11.7214683"><ele>343.5</ele><time>2026-04-11T13:31:34.126Z</time></trkpt><trkpt lat="44.0919717" lon="11.7214167"><ele>342.0</ele><time>2026-04-11T13:31:35.127Z</time></trkpt><trkpt lat="44.09215" lon="11.721375"><ele>342.0</ele><time>2026-04-11T13:31:36.125Z</time></trkpt><trkpt lat="44.092315" lon="11.72136"><ele>342.0</ele><time>2026-04-11T13:31:37.125Z</time></trkpt><trkpt lat="44.092475" lon="11.72136"><ele>342.0</ele><time>2026-04-11T13:31:38.124Z</time></trkpt><trkpt lat="44.09264" lon="11.7213667"><ele>341.6666666666667</ele><time>2026-04-11T13:31:39.124Z</time></trkpt><trkpt lat="44.0928117" lon="11.72138"><ele>341.33333333333337</ele><time>2026-04-11T13:31:40.124Z</time></trkpt><trkpt lat="44.0929867" lon="11.7213917"><ele>341.0</ele><time>2026-04-11T13:31:41.124Z</time></trkpt><trkpt lat="44.0931433" lon="11.7214067"><ele>341.0</ele><time>2026-04-11T13:31:42.126Z</time></trkpt><trkpt lat="44.0932917" lon="11.721425"><ele>341.0</ele><time>2026-04-11T13:31:43.123Z</time></trkpt><trkpt lat="44.0934267" lon="11.7214267"><ele>341.0</ele><time>2026-04-11T13:31:44.124Z</time></trkpt><trkpt lat="44.0935383" lon="11.72143"><ele>341.0</ele><time>2026-04-11T13:31:45.124Z</time></trkpt><trkpt lat="44.0936317" lon="11.7214317"><ele>341.0</ele><time>2026-04-11T13:31:46.122Z</time></trkpt><trkpt lat="44.0937067" lon="11.7214283"><ele>341.0</ele><time>2026-04-11T13:31:47.123Z</time></trkpt><trkpt lat="44.0938167" lon="11.7214417"><ele>341.0</ele><time>2026-04-11T13:31:49.123Z</time></trkpt><trkpt lat="44.093895" lon="11.7214617"><ele>341.0</ele><time>2026-04-11T13:31:52.124Z</time></trkpt><trkpt lat="44.0939733" lon="11.7214917"><ele>341.0</ele><time>2026-04-11T13:31:54.124Z</time></trkpt><trkpt lat="44.0940617" lon="11.721525"><ele>341.0</ele><time>2026-04-11T13:31:56.124Z</time></trkpt><trkpt lat="44.094245" lon="11.721545"><ele>340.6</ele><time>2026-04-11T13:38:35.124Z</time></trkpt><trkpt lat="44.0943183" lon="11.721545"><ele>340.20000000000005</ele><time>2026-04-11T13:38:36.122Z</time></trkpt><trkpt lat="44.0944133" lon="11.72155"><ele>339.79999999999995</ele><time>2026-04-11T13:38:37.122Z</time></trkpt><trkpt lat="44.0945217" lon="11.72155"><ele>339.4</ele><time>2026-04-11T13:38:38.124Z</time></trkpt><trkpt lat="44.094645" lon="11.7215483"><ele>339.0</ele><time>2026-04-11T13:38:39.124Z</time></trkpt><trkpt lat="44.0947833" lon="11.72155"><ele>338.0</ele><time>2026-04-11T13:38:40.123Z</time></trkpt><trkpt lat="44.0949267" lon="11.721555"><ele>337.0</ele><time>2026-04-11T13:38:41.123Z</time></trkpt><trkpt lat="44.0950633" lon="11.721565"><ele>336.0</ele><time>2026-04-11T13:38:42.124Z</time></trkpt><trkpt lat="44.0951767" lon="11.7215867"><ele>335.0</ele><time>2026-04-11T13:38:43.124Z</time></trkpt><trkpt lat="44.09526" lon="11.72162"><ele>335.0</ele><time>2026-04-11T13:38:44.123Z</time></trkpt><trkpt lat="44.0953133" lon="11.7216733"><ele>335.0</ele><time>2026-04-11T13:38:45.123Z</time></trkpt><trkpt lat="44.0953367" lon="11.72184"><ele>335.0</ele><time>2026-04-11T13:38:47.124Z</time></trkpt><trkpt lat="44.0953333" lon="11.7219667"><ele>335.0</ele><time>2026-04-11T13:38:48.124Z</time></trkpt><trkpt lat="44.095345" lon="11.7220733"><ele>335.0</ele><time>2026-04-11T13:38:49.124Z</time></trkpt><trkpt lat="44.0954383" lon="11.722185"><ele>335.5</ele><time>2026-04-11T13:38:51.124Z</time></trkpt><trkpt lat="44.0955483" lon="11.7222133"><ele>336.0</ele><time>2026-04-11T13:38:52.124Z</time></trkpt><trkpt lat="44.0956883" lon="11.72223"><ele>336.5</ele><time>2026-04-11T13:38:53.123Z</time></trkpt><trkpt lat="44.095845" lon="11.7222417"><ele>337.0</ele><time>2026-04-11T13:38:54.123Z</time></trkpt><trkpt lat="44.09602" lon="11.7222583"><ele>337.0</ele><time>2026-04-11T13:38:55.124Z</time></trkpt><trkpt lat="44.0962083" lon="11.7222883"><ele>337.0</ele><time>2026-04-11T13:38:56.123Z</time></trkpt><trkpt lat="44.0964017" lon="11.722335"><ele>337.0</ele><time>2026-04-11T13:38:57.124Z</time></trkpt><trkpt lat="44.0966" lon="11.7223867"><ele>335.66666666666663</ele><time>2026-04-11T13:38:58.123Z</time></trkpt><trkpt lat="44.096805" lon="11.7224333"><ele>334.3333333333333</ele><time>2026-04-11T13:38:59.124Z</time></trkpt><trkpt lat="44.0970133" lon="11.72248"><ele>333.0</ele><time>2026-04-11T13:39:00.123Z</time></trkpt><trkpt lat="44.09722" lon="11.7225367"><ele>331.6666666666667</ele><time>2026-04-11T13:39:01.123Z</time></trkpt><trkpt lat="44.09742" lon="11.7226017"><ele>330.33333333333337</ele><time>2026-04-11T13:39:02.124Z</time></trkpt><trkpt lat="44.0976133" lon="11.7226683"><ele>329.0</ele><time>2026-04-11T13:39:03.124Z</time></trkpt><trkpt lat="44.0977967" lon="11.722725"><ele>331.33333333333337</ele><time>2026-04-11T13:39:04.123Z</time></trkpt><trkpt lat="44.09798" lon="11.72276"><ele>333.6666666666667</ele><time>2026-04-11T13:39:05.124Z</time></trkpt><trkpt lat="44.0981667" lon="11.7227833"><ele>336.0</ele><time>2026-04-11T13:39:06.124Z</time></trkpt><trkpt lat="44.0983333" lon="11.722805"><ele>336.0</ele><time>2026-04-11T13:39:07.123Z</time></trkpt><trkpt lat="44.0984733" lon="11.7228467"><ele>336.0</ele><time>2026-04-11T13:39:08.123Z</time></trkpt><trkpt lat="44.0985967" lon="11.7229233"><ele>336.0</ele><time>2026-04-11T13:39:09.123Z</time></trkpt><trkpt lat="44.0987183" lon="11.7230417"><ele>336.0</ele><time>2026-04-11T13:39:10.123Z</time></trkpt><trkpt lat="44.0988183" lon="11.7231717"><ele>336.0</ele><time>2026-04-11T13:39:11.124Z</time></trkpt><trkpt lat="44.098885" lon="11.7232967"><ele>336.0</ele><time>2026-04-11T13:39:12.124Z</time></trkpt><trkpt lat="44.0989283" lon="11.7234117"><ele>336.0</ele><time>2026-04-11T13:39:13.123Z</time></trkpt><trkpt lat="44.098975" lon="11.723475"><ele>336.0</ele><time>2026-04-11T13:39:14.123Z</time></trkpt><trkpt lat="44.099045" lon="11.7235"><ele>336.0</ele><time>2026-04-11T13:39:15.124Z</time></trkpt><trkpt lat="44.0991117" lon="11.7235167"><ele>336.0</ele><time>2026-04-11T13:39:16.123Z</time></trkpt><trkpt lat="44.099205" lon="11.7234933"><ele>335.4</ele><time>2026-04-11T13:39:18.124Z</time></trkpt><trkpt lat="44.0992933" lon="11.7233983"><ele>334.8</ele><time>2026-04-11T13:39:56.125Z</time></trkpt><trkpt lat="44.099405" lon="11.72337"><ele>334.2</ele><time>2026-04-11T13:39:58.124Z</time></trkpt><trkpt lat="44.099485" lon="11.7233417"><ele>333.59999999999997</ele><time>2026-04-11T13:39:59.123Z</time></trkpt><trkpt lat="44.0995733" lon="11.7232983"><ele>333.0</ele><time>2026-04-11T13:40:00.123Z</time></trkpt><trkpt lat="44.0996583" lon="11.7232417"><ele>333.0</ele><time>2026-04-11T13:40:01.123Z</time></trkpt><trkpt lat="44.0997317" lon="11.7231867"><ele>333.0</ele><time>2026-04-11T13:40:02.123Z</time></trkpt><trkpt lat="44.0998083" lon="11.723135"><ele>333.0</ele><time>2026-04-11T13:40:03.123Z</time></trkpt><trkpt lat="44.0998867" lon="11.7231133"><ele>333.0</ele><time>2026-04-11T13:40:04.125Z</time></trkpt><trkpt lat="44.0999567" lon="11.7231217"><ele>333.0</ele><time>2026-04-11T13:40:05.124Z</time></trkpt><trkpt lat="44.100015" lon="11.72317"><ele>333.0</ele><time>2026-04-11T13:40:06.124Z</time></trkpt><trkpt lat="44.1000683" lon="11.7232333"><ele>333.59999999999997</ele><time>2026-04-11T13:40:07.124Z</time></trkpt><trkpt lat="44.1001317" lon="11.723305"><ele>334.2</ele><time>2026-04-11T13:40:08.124Z</time></trkpt><trkpt lat="44.1002017" lon="11.7233817"><ele>334.8</ele><time>2026-04-11T13:40:09.124Z</time></trkpt><trkpt lat="44.10028" lon="11.7234633"><ele>335.4</ele><time>2026-04-11T13:40:10.123Z</time></trkpt><trkpt lat="44.10036" lon="11.7235517"><ele>336.0</ele><time>2026-04-11T13:40:11.124Z</time></trkpt><trkpt lat="44.1004417" lon="11.723645"><ele>336.0</ele><time>2026-04-11T13:40:12.125Z</time></trkpt><trkpt lat="44.1005267" lon="11.7237367"><ele>336.0</ele><time>2026-04-11T13:40:13.123Z</time></trkpt><trkpt lat="44.10061" lon="11.72383"><ele>336.0</ele><time>2026-04-11T13:40:14.124Z</time></trkpt><trkpt lat="44.1006933" lon="11.7239217"><ele>336.0</ele><time>2026-04-11T13:40:15.125Z</time></trkpt><trkpt lat="44.1007767" lon="11.7240117"><ele>336.0</ele><time>2026-04-11T13:40:16.124Z</time></trkpt><trkpt lat="44.1008633" lon="11.7241017"><ele>337.0</ele><time>2026-04-11T13:40:17.123Z</time></trkpt><trkpt lat="44.1009517" lon="11.7241983"><ele>338.0</ele><time>2026-04-11T13:40:18.123Z</time></trkpt><trkpt lat="44.1010417" lon="11.7243"><ele>339.0</ele><time>2026-04-11T13:40:19.124Z</time></trkpt><trkpt lat="44.101135" lon="11.7244033"><ele>340.0</ele><time>2026-04-11T13:40:20.124Z</time></trkpt><trkpt lat="44.1012317" lon="11.7245017"><ele>340.0</ele><time>2026-04-11T13:40:21.124Z</time></trkpt><trkpt lat="44.1013233" lon="11.7245867"><ele>340.0</ele><time>2026-04-11T13:40:22.124Z</time></trkpt><trkpt lat="44.1014167" lon="11.7246533"><ele>340.0</ele><time>2026-04-11T13:40:23.123Z</time></trkpt><trkpt lat="44.10151" lon="11.7246983"><ele>340.0</ele><time>2026-04-11T13:40:24.124Z</time></trkpt><trkpt lat="44.1016067" lon="11.7247333"><ele>340.0</ele><time>2026-04-11T13:40:25.124Z</time></trkpt><trkpt lat="44.1017033" lon="11.7247683"><ele>339.2</ele><time>2026-04-11T13:40:26.124Z</time></trkpt><trkpt lat="44.1018017" lon="11.724815"><ele>338.4</ele><time>2026-04-11T13:40:27.124Z</time></trkpt><trkpt lat="44.1019033" lon="11.72488"><ele>337.6</ele><time>2026-04-11T13:40:28.124Z</time></trkpt><trkpt lat="44.1020017" lon="11.7249617"><ele>336.8</ele><time>2026-04-11T13:40:29.124Z</time></trkpt><trkpt lat="44.1020883" lon="11.7250517"><ele>336.0</ele><time>2026-04-11T13:40:30.124Z</time></trkpt><trkpt lat="44.1021633" lon="11.7251317"><ele>336.0</ele><time>2026-04-11T13:40:31.124Z</time></trkpt><trkpt lat="44.102235" lon="11.7251967"><ele>336.0</ele><time>2026-04-11T13:40:32.124Z</time></trkpt><trkpt lat="44.10231" lon="11.7252483"><ele>336.0</ele><time>2026-04-11T13:40:33.123Z</time></trkpt><trkpt lat="44.1023917" lon="11.7252717"><ele>336.0</ele><time>2026-04-11T13:40:34.128Z</time></trkpt><trkpt lat="44.1024717" lon="11.7252767"><ele>336.0</ele><time>2026-04-11T13:40:35.123Z</time></trkpt><trkpt lat="44.1025633" lon="11.7252583"><ele>336.0</ele><time>2026-04-11T13:40:36.124Z</time></trkpt><trkpt lat="44.1026583" lon="11.7252267"><ele>333.4</ele><time>2026-04-11T13:40:37.125Z</time></trkpt><trkpt lat="44.102755" lon="11.7251783"><ele>330.8</ele><time>2026-04-11T13:40:38.124Z</time></trkpt><trkpt lat="44.1028467" lon="11.7251317"><ele>328.2</ele><time>2026-04-11T13:40:39.124Z</time></trkpt><trkpt lat="44.1029317" lon="11.725085"><ele>325.59999999999997</ele><time>2026-04-11T13:40:40.127Z</time></trkpt><trkpt lat="44.1030117" lon="11.7250383"><ele>323.0</ele><time>2026-04-11T13:40:41.125Z</time></trkpt><trkpt lat="44.1030867" lon="11.7249933"><ele>323.00000000000006</ele><time>2026-04-11T13:40:42.124Z</time></trkpt><trkpt lat="44.1031567" lon="11.7249483"><ele>323.0</ele><time>2026-04-11T13:40:43.124Z</time></trkpt><trkpt lat="44.1032233" lon="11.7249067"><ele>323.0</ele><time>2026-04-11T13:40:44.124Z</time></trkpt><trkpt lat="44.103285" lon="11.7248683"><ele>323.0</ele><time>2026-04-11T13:40:45.124Z</time></trkpt><trkpt lat="44.103345" lon="11.72483"><ele>323.0</ele><time>2026-04-11T13:40:46.124Z</time></trkpt><trkpt lat="44.1034083" lon="11.7247983"><ele>323.00000000000006</ele><time>2026-04-11T13:40:47.124Z</time></trkpt><trkpt lat="44.1034783" lon="11.72478"><ele>323.0</ele><time>2026-04-11T13:40:48.124Z</time></trkpt><trkpt lat="44.10356" lon="11.7247833"><ele>321.79999999999995</ele><time>2026-04-11T13:40:49.126Z</time></trkpt><trkpt lat="44.1036417" lon="11.7248083"><ele>320.59999999999997</ele><time>2026-04-11T13:40:50.125Z</time></trkpt><trkpt lat="44.1037217" lon="11.7248583"><ele>319.4</ele><time>2026-04-11T13:40:51.127Z</time></trkpt><trkpt lat="44.1038083" lon="11.7249167"><ele>318.2</ele><time>2026-04-11T13:40:52.125Z</time></trkpt><trkpt lat="44.1038967" lon="11.72498"><ele>317.0</ele><time>2026-04-11T13:40:53.125Z</time></trkpt><trkpt lat="44.1039917" lon="11.72505"><ele>317.0</ele><time>2026-04-11T13:40:54.126Z</time></trkpt><trkpt lat="44.1040883" lon="11.72513"><ele>317.0</ele><time>2026-04-11T13:40:55.126Z</time></trkpt><trkpt lat="44.1041917" lon="11.725215"><ele>317.0</ele><time>2026-04-11T13:40:56.125Z</time></trkpt><trkpt lat="44.1042967" lon="11.7253017"><ele>317.0</ele><time>2026-04-11T13:40:57.126Z</time></trkpt><trkpt lat="44.1044067" lon="11.7253867"><ele>317.0</ele><time>2026-04-11T13:40:58.125Z</time></trkpt><trkpt lat="44.1045183" lon="11.7254717"><ele>317.0</ele><time>2026-04-11T13:40:59.125Z</time></trkpt><trkpt lat="44.1046333" lon="11.7255567"><ele>317.0</ele><time>2026-04-11T13:41:00.125Z</time></trkpt><trkpt lat="44.1047483" lon="11.7256417"><ele>317.0</ele><time>2026-04-11T13:41:01.123Z</time></trkpt><trkpt lat="44.1048633" lon="11.7257267"><ele>317.25</ele><time>2026-04-11T13:41:02.123Z</time></trkpt><trkpt lat="44.1049767" lon="11.7258167"><ele>317.5</ele><time>2026-04-11T13:41:03.123Z</time></trkpt><trkpt lat="44.105095" lon="11.7259"><ele>317.75</ele><time>2026-04-11T13:41:04.123Z</time></trkpt><trkpt lat="44.105215" lon="11.7259783"><ele>318.0</ele><time>2026-04-11T13:41:05.124Z</time></trkpt><trkpt lat="44.1053383" lon="11.726055"><ele>317.25</ele><time>2026-04-11T13:41:06.123Z</time></trkpt><trkpt lat="44.10546" lon="11.7261283"><ele>316.5</ele><time>2026-04-11T13:41:07.124Z</time></trkpt><trkpt lat="44.1055833" lon="11.7261983"><ele>315.75</ele><time>2026-04-11T13:41:08.124Z</time></trkpt><trkpt lat="44.1057033" lon="11.72627"><ele>315.0</ele><time>2026-04-11T13:41:09.124Z</time></trkpt><trkpt lat="44.1058233" lon="11.7263367"><ele>315.0</ele><time>2026-04-11T13:41:10.123Z</time></trkpt><trkpt lat="44.1059417" lon="11.7264033"><ele>315.0</ele><time>2026-04-11T13:41:11.124Z</time></trkpt><trkpt lat="44.1060567" lon="11.72647"><ele>315.0</ele><time>2026-04-11T13:41:12.123Z</time></trkpt><trkpt lat="44.1061667" lon="11.7265367"><ele>315.0</ele><time>2026-04-11T13:41:13.123Z</time></trkpt><trkpt lat="44.1062683" lon="11.7266017"><ele>315.0</ele><time>2026-04-11T13:41:14.124Z</time></trkpt><trkpt lat="44.1063533" lon="11.7266567"><ele>315.0</ele><time>2026-04-11T13:41:15.125Z</time></trkpt><trkpt lat="44.1064233" lon="11.726705"><ele>315.0</ele><time>2026-04-11T13:41:16.123Z</time></trkpt><trkpt lat="44.1064817" lon="11.726755"><ele>315.0</ele><time>2026-04-11T13:41:17.124Z</time></trkpt><trkpt lat="44.1065417" lon="11.72679"><ele>315.0</ele><time>2026-04-11T13:41:18.124Z</time></trkpt><trkpt lat="44.1066083" lon="11.726805"><ele>315.0</ele><time>2026-04-11T13:41:19.124Z</time></trkpt><trkpt lat="44.10668" lon="11.7268"><ele>315.0</ele><time>2026-04-11T13:41:20.125Z</time></trkpt><trkpt lat="44.1067567" lon="11.7267817"><ele>314.6666666666667</ele><time>2026-04-11T13:41:21.124Z</time></trkpt><trkpt lat="44.1068267" lon="11.7267567"><ele>314.3333333333333</ele><time>2026-04-11T13:41:22.124Z</time></trkpt><trkpt lat="44.1068917" lon="11.7267333"><ele>314.0</ele><time>2026-04-11T13:41:23.124Z</time></trkpt><trkpt lat="44.1070117" lon="11.7267033"><ele>313.66666666666663</ele><time>2026-04-11T13:41:25.124Z</time></trkpt><trkpt lat="44.1070783" lon="11.7266983"><ele>313.3333333333333</ele><time>2026-04-11T13:41:26.123Z</time></trkpt><trkpt lat="44.1071417" lon="11.7267033"><ele>313.0</ele><time>2026-04-11T13:41:27.124Z</time></trkpt><trkpt lat="44.1072167" lon="11.726715"><ele>313.0</ele><time>2026-04-11T13:41:29.124Z</time></trkpt><trkpt lat="44.1072983" lon="11.7267167"><ele>313.0</ele><time>2026-04-11T13:41:33.124Z</time></trkpt><trkpt lat="44.1073733" lon="11.726705"><ele>313.0</ele><time>2026-04-11T13:41:35.124Z</time></trkpt><trkpt lat="44.10744" lon="11.7266767"><ele>313.0</ele><time>2026-04-11T13:41:37.124Z</time></trkpt><trkpt lat="44.107505" lon="11.7266467"><ele>313.0</ele><time>2026-04-11T13:41:40.125Z</time></trkpt><trkpt lat="44.1076067" lon="11.7266067"><ele>313.0</ele><time>2026-04-11T13:42:20.124Z</time></trkpt><trkpt lat="44.10754" lon="11.7266817"><ele>313.0</ele><time>2026-04-11T13:43:13.122Z</time></trkpt><trkpt lat="44.1074783" lon="11.7267"><ele>313.0</ele><time>2026-04-11T13:43:16.124Z</time></trkpt><trkpt lat="44.1074133" lon="11.7266917"><ele>313.0</ele><time>2026-04-11T13:45:34.126Z</time></trkpt><trkpt lat="44.1074117" lon="11.7265667"><ele>313.0</ele><time>2026-04-11T13:45:43.125Z</time></trkpt><trkpt lat="44.1073467" lon="11.7266533"><ele>313.0</ele><time>2026-04-11T14:32:11.123Z</time></trkpt><trkpt lat="44.1072867" lon="11.72668"><ele>313.0</ele><time>2026-04-11T14:32:18.124Z</time></trkpt><trkpt lat="44.1071933" lon="11.7266733"><ele>313.0</ele><time>2026-04-11T14:32:20.123Z</time></trkpt><trkpt lat="44.107075" lon="11.7266783"><ele>313.0</ele><time>2026-04-11T14:32:22.123Z</time></trkpt><trkpt lat="44.1069717" lon="11.7267067"><ele>313.0</ele><time>2026-04-11T14:32:24.123Z</time></trkpt><trkpt lat="44.1068717" lon="11.726745"><ele>313.0</ele><time>2026-04-11T14:32:26.123Z</time></trkpt><trkpt lat="44.1068017" lon="11.726765"><ele>313.0</ele><time>2026-04-11T14:32:27.123Z</time></trkpt><trkpt lat="44.1067217" lon="11.72679"><ele>313.0</ele><time>2026-04-11T14:32:28.124Z</time></trkpt><trkpt lat="44.1066417" lon="11.7268017"><ele>313.0</ele><time>2026-04-11T14:32:29.123Z</time></trkpt><trkpt lat="44.1065683" lon="11.72678"><ele>313.0</ele><time>2026-04-11T14:32:30.124Z</time></trkpt><trkpt lat="44.1065" lon="11.726735"><ele>313.0</ele><time>2026-04-11T14:32:31.124Z</time></trkpt><trkpt lat="44.1064233" lon="11.7266767"><ele>313.0</ele><time>2026-04-11T14:32:32.124Z</time></trkpt><trkpt lat="44.1063317" lon="11.7266183"><ele>313.0</ele><time>2026-04-11T14:32:33.123Z</time></trkpt><trkpt lat="44.1062367" lon="11.72656"><ele>313.4</ele><time>2026-04-11T14:32:34.124Z</time></trkpt><trkpt lat="44.1061367" lon="11.7264967"><ele>313.8</ele><time>2026-04-11T14:32:35.123Z</time></trkpt><trkpt lat="44.1060333" lon="11.726435"><ele>314.2</ele><time>2026-04-11T14:32:36.124Z</time></trkpt><trkpt lat="44.105935" lon="11.7263767"><ele>314.6</ele><time>2026-04-11T14:32:37.124Z</time></trkpt><trkpt lat="44.1058467" lon="11.726325"><ele>315.0</ele><time>2026-04-11T14:32:38.124Z</time></trkpt><trkpt lat="44.1057533" lon="11.726275"><ele>315.6</ele><time>2026-04-11T14:32:39.123Z</time></trkpt><trkpt lat="44.1056583" lon="11.72622"><ele>316.2</ele><time>2026-04-11T14:32:40.123Z</time></trkpt><trkpt lat="44.1055633" lon="11.72616"><ele>316.8</ele><time>2026-04-11T14:32:41.123Z</time></trkpt><trkpt lat="44.105465" lon="11.7260983"><ele>317.4</ele><time>2026-04-11T14:32:42.124Z</time></trkpt><trkpt lat="44.1053667" lon="11.726035"><ele>318.0</ele><time>2026-04-11T14:32:43.124Z</time></trkpt><trkpt lat="44.1052633" lon="11.7259717"><ele>318.0</ele><time>2026-04-11T14:32:44.129Z</time></trkpt><trkpt lat="44.10516" lon="11.7259033"><ele>318.0</ele><time>2026-04-11T14:32:45.124Z</time></trkpt><trkpt lat="44.1050583" lon="11.72583"><ele>318.0</ele><time>2026-04-11T14:32:46.124Z</time></trkpt><trkpt lat="44.104955" lon="11.7257467"><ele>318.0</ele><time>2026-04-11T14:32:47.124Z</time></trkpt><trkpt lat="44.10485" lon="11.7256617"><ele>317.75</ele><time>2026-04-11T14:32:48.124Z</time></trkpt><trkpt lat="44.10474" lon="11.7255767"><ele>317.5</ele><time>2026-04-11T14:32:49.124Z</time></trkpt><trkpt lat="44.104625" lon="11.7254933"><ele>317.25</ele><time>2026-04-11T14:32:50.123Z</time></trkpt><trkpt lat="44.1045083" lon="11.7254067"><ele>317.0</ele><time>2026-04-11T14:32:51.123Z</time></trkpt><trkpt lat="44.10439" lon="11.72532"><ele>317.0</ele><time>2026-04-11T14:32:52.124Z</time></trkpt><trkpt lat="44.1042717" lon="11.7252283"><ele>317.0</ele><time>2026-04-11T14:32:53.123Z</time></trkpt><trkpt lat="44.104155" lon="11.725135"><ele>317.0</ele><time>2026-04-11T14:32:54.123Z</time></trkpt><trkpt lat="44.10404" lon="11.7250417"><ele>317.0</ele><time>2026-04-11T14:32:55.125Z</time></trkpt><trkpt lat="44.10393" lon="11.724955"><ele>317.0</ele><time>2026-04-11T14:32:56.123Z</time></trkpt><trkpt lat="44.1038267" lon="11.7248783"><ele>317.0</ele><time>2026-04-11T14:32:57.124Z</time></trkpt><trkpt lat="44.1037317" lon="11.7248183"><ele>317.0</ele><time>2026-04-11T14:32:58.124Z</time></trkpt><trkpt lat="44.1036367" lon="11.724785"><ele>317.0</ele><time>2026-04-11T14:32:59.123Z</time></trkpt><trkpt lat="44.1035367" lon="11.7247833"><ele>317.0</ele><time>2026-04-11T14:33:00.124Z</time></trkpt><trkpt lat="44.1034367" lon="11.724815"><ele>317.0</ele><time>2026-04-11T14:33:01.124Z</time></trkpt><trkpt lat="44.1033367" lon="11.724865"><ele>317.0</ele><time>2026-04-11T14:33:02.123Z</time></trkpt><trkpt lat="44.10323" lon="11.7249267"><ele>317.0</ele><time>2026-04-11T14:33:03.124Z</time></trkpt><trkpt lat="44.10312" lon="11.7249933"><ele>317.0</ele><time>2026-04-11T14:33:04.123Z</time></trkpt><trkpt lat="44.1030017" lon="11.7250617"><ele>318.5</ele><time>2026-04-11T14:33:05.124Z</time></trkpt><trkpt lat="44.1028767" lon="11.7251317"><ele>320.0</ele><time>2026-04-11T14:33:06.123Z</time></trkpt><trkpt lat="44.10275" lon="11.7252"><ele>321.5</ele><time>2026-04-11T14:33:07.124Z</time></trkpt><trkpt lat="44.1026317" lon="11.725255"><ele>323.0</ele><time>2026-04-11T14:33:08.124Z</time></trkpt><trkpt lat="44.10252" lon="11.72528"><ele>326.25</ele><time>2026-04-11T14:33:09.123Z</time></trkpt><trkpt lat="44.10241" lon="11.7252683"><ele>329.5</ele><time>2026-04-11T14:33:10.124Z</time></trkpt><trkpt lat="44.1023017" lon="11.7252117"><ele>332.75</ele><time>2026-04-11T14:33:11.124Z</time></trkpt><trkpt lat="44.10221" lon="11.72512"><ele>336.0</ele><time>2026-04-11T14:33:12.123Z</time></trkpt><trkpt lat="44.1021167" lon="11.7250267"><ele>336.0</ele><time>2026-04-11T14:33:13.124Z</time></trkpt><trkpt lat="44.1020167" lon="11.724935"><ele>336.0</ele><time>2026-04-11T14:33:14.123Z</time></trkpt><trkpt lat="44.1019067" lon="11.7248567"><ele>336.0</ele><time>2026-04-11T14:33:15.125Z</time></trkpt><trkpt lat="44.10178" lon="11.7247983"><ele>336.0</ele><time>2026-04-11T14:33:16.123Z</time></trkpt><trkpt lat="44.10165" lon="11.7247433"><ele>337.0</ele><time>2026-04-11T14:33:17.124Z</time></trkpt><trkpt lat="44.1015217" lon="11.7246967"><ele>338.0</ele><time>2026-04-11T14:33:18.123Z</time></trkpt><trkpt lat="44.1013983" lon="11.7246367"><ele>339.0</ele><time>2026-04-11T14:33:19.124Z</time></trkpt><trkpt lat="44.1012917" lon="11.72456"><ele>340.0</ele><time>2026-04-11T14:33:20.124Z</time></trkpt><trkpt lat="44.1011933" lon="11.72447"><ele>337.25</ele><time>2026-04-11T14:33:21.123Z</time></trkpt><trkpt lat="44.101105" lon="11.72437"><ele>334.5</ele><time>2026-04-11T14:33:22.122Z</time></trkpt><trkpt lat="44.1010217" lon="11.7242683"><ele>331.75</ele><time>2026-04-11T14:33:23.123Z</time></trkpt><trkpt lat="44.1009333" lon="11.7241633"><ele>329.0</ele><time>2026-04-11T14:33:24.125Z</time></trkpt><trkpt lat="44.100845" lon="11.7240583"><ele>329.0</ele><time>2026-04-11T14:33:25.123Z</time></trkpt><trkpt lat="44.1007633" lon="11.7239683"><ele>329.0</ele><time>2026-04-11T14:33:26.124Z</time></trkpt><trkpt lat="44.1006883" lon="11.7238867"><ele>329.0</ele><time>2026-04-11T14:33:27.125Z</time></trkpt><trkpt lat="44.1006133" lon="11.7238"><ele>329.0</ele><time>2026-04-11T14:33:28.123Z</time></trkpt><trkpt lat="44.1005367" lon="11.7237117"><ele>329.0</ele><time>2026-04-11T14:33:29.124Z</time></trkpt><trkpt lat="44.10046" lon="11.723625"><ele>329.0</ele><time>2026-04-11T14:33:30.123Z</time></trkpt><trkpt lat="44.100385" lon="11.723545"><ele>329.0</ele><time>2026-04-11T14:33:31.124Z</time></trkpt><trkpt lat="44.10032" lon="11.7234717"><ele>329.0</ele><time>2026-04-11T14:33:32.122Z</time></trkpt><trkpt lat="44.10026" lon="11.7234033"><ele>329.0</ele><time>2026-04-11T14:33:33.124Z</time></trkpt><trkpt lat="44.1001933" lon="11.723325"><ele>329.0</ele><time>2026-04-11T14:33:34.123Z</time></trkpt><trkpt lat="44.1001217" lon="11.723245"><ele>329.0</ele><time>2026-04-11T14:33:35.123Z</time></trkpt><trkpt lat="44.100035" lon="11.7231767"><ele>329.0</ele><time>2026-04-11T14:33:36.123Z</time></trkpt><trkpt lat="44.0999383" lon="11.72315"><ele>329.0</ele><time>2026-04-11T14:33:37.123Z</time></trkpt><trkpt lat="44.0998383" lon="11.723185"><ele>329.0</ele><time>2026-04-11T14:33:38.123Z</time></trkpt><trkpt lat="44.099745" lon="11.7232417"><ele>329.0</ele><time>2026-04-11T14:33:39.124Z</time></trkpt><trkpt lat="44.0996517" lon="11.7233117"><ele>329.0</ele><time>2026-04-11T14:33:40.124Z</time></trkpt><trkpt lat="44.09955" lon="11.7233733"><ele>329.6666666666667</ele><time>2026-04-11T14:33:41.123Z</time></trkpt><trkpt lat="44.0994367" lon="11.723415"><ele>330.33333333333337</ele><time>2026-04-11T14:33:42.124Z</time></trkpt><trkpt lat="44.0993433" lon="11.7234567"><ele>331.0</ele><time>2026-04-11T14:33:43.123Z</time></trkpt><trkpt lat="44.0992667" lon="11.7235017"><ele>331.6666666666667</ele><time>2026-04-11T14:33:44.123Z</time></trkpt><trkpt lat="44.0992067" lon="11.7235617"><ele>332.3333333333333</ele><time>2026-04-11T14:33:45.124Z</time></trkpt><trkpt lat="44.0991567" lon="11.7236433"><ele>333.0</ele><time>2026-04-11T14:33:46.123Z</time></trkpt><trkpt lat="44.0991183" lon="11.7237483"><ele>334.4</ele><time>2026-04-11T14:33:47.123Z</time></trkpt><trkpt lat="44.0990867" lon="11.7238633"><ele>335.79999999999995</ele><time>2026-04-11T14:33:48.123Z</time></trkpt><trkpt lat="44.0990517" lon="11.7239883"><ele>337.2</ele><time>2026-04-11T14:33:49.124Z</time></trkpt><trkpt lat="44.0990117" lon="11.7241133"><ele>338.6</ele><time>2026-04-11T14:33:50.124Z</time></trkpt><trkpt lat="44.0989733" lon="11.7242383"><ele>340.0</ele><time>2026-04-11T14:33:51.125Z</time></trkpt><trkpt lat="44.0989467" lon="11.7243483"><ele>341.8333333333333</ele><time>2026-04-11T14:33:52.122Z</time></trkpt><trkpt lat="44.0989317" lon="11.7244383"><ele>343.66666666666663</ele><time>2026-04-11T14:33:53.124Z</time></trkpt><trkpt lat="44.098945" lon="11.7246017"><ele>345.5</ele><time>2026-04-11T14:33:55.123Z</time></trkpt><trkpt lat="44.0990433" lon="11.724685"><ele>347.3333333333333</ele><time>2026-04-11T14:33:57.124Z</time></trkpt><trkpt lat="44.0991067" lon="11.7246733"><ele>349.1666666666667</ele><time>2026-04-11T14:33:58.124Z</time></trkpt><trkpt lat="44.0991683" lon="11.7246433"><ele>351.0</ele><time>2026-04-11T14:33:59.123Z</time></trkpt><trkpt lat="44.099235" lon="11.724615"><ele>351.0</ele><time>2026-04-11T14:34:00.123Z</time></trkpt><trkpt lat="44.099305" lon="11.72459"><ele>351.0</ele><time>2026-04-11T14:34:01.124Z</time></trkpt><trkpt lat="44.09938" lon="11.72458"><ele>351.0</ele><time>2026-04-11T14:34:02.124Z</time></trkpt><trkpt lat="44.09946" lon="11.7245933"><ele>351.0</ele><time>2026-04-11T14:34:03.124Z</time></trkpt><trkpt lat="44.099545" lon="11.7246233"><ele>351.0</ele><time>2026-04-11T14:34:04.124Z</time></trkpt><trkpt lat="44.0996267" lon="11.724675"><ele>351.0</ele><time>2026-04-11T14:34:05.124Z</time></trkpt><trkpt lat="44.0996867" lon="11.7247533"><ele>351.0</ele><time>2026-04-11T14:34:06.123Z</time></trkpt><trkpt lat="44.09974" lon="11.7248567"><ele>351.0</ele><time>2026-04-11T14:34:07.123Z</time></trkpt><trkpt lat="44.0997883" lon="11.724965"><ele>351.0</ele><time>2026-04-11T14:34:08.123Z</time></trkpt><trkpt lat="44.0998433" lon="11.7250717"><ele>351.0</ele><time>2026-04-11T14:34:09.124Z</time></trkpt><trkpt lat="44.09991" lon="11.725155"><ele>351.0</ele><time>2026-04-11T14:34:10.124Z</time></trkpt><trkpt lat="44.0999917" lon="11.7252017"><ele>351.0</ele><time>2026-04-11T14:34:11.123Z</time></trkpt><trkpt lat="44.1000783" lon="11.72522"><ele>351.0</ele><time>2026-04-11T14:34:12.124Z</time></trkpt><trkpt lat="44.1001667" lon="11.7252217"><ele>351.0</ele><time>2026-04-11T14:34:13.124Z</time></trkpt><trkpt lat="44.100255" lon="11.7252167"><ele>351.0</ele><time>2026-04-11T14:34:14.123Z</time></trkpt><trkpt lat="44.100325" lon="11.725235"><ele>351.0</ele><time>2026-04-11T14:34:15.125Z</time></trkpt><trkpt lat="44.1003883" lon="11.725275"><ele>351.0</ele><time>2026-04-11T14:34:16.123Z</time></trkpt><trkpt lat="44.1004383" lon="11.7253467"><ele>354.1666666666667</ele><time>2026-04-11T14:34:17.124Z</time></trkpt><trkpt lat="44.100485" lon="11.7254433"><ele>357.3333333333333</ele><time>2026-04-11T14:34:18.124Z</time></trkpt><trkpt lat="44.1005317" lon="11.7255483"><ele>360.5</ele><time>2026-04-11T14:34:19.124Z</time></trkpt><trkpt lat="44.100565" lon="11.7256583"><ele>363.66666666666663</ele><time>2026-04-11T14:34:20.123Z</time></trkpt><trkpt lat="44.1005817" lon="11.72578"><ele>366.8333333333333</ele><time>2026-04-11T14:34:21.123Z</time></trkpt><trkpt lat="44.1005883" lon="11.7259083"><ele>370.0</ele><time>2026-04-11T14:34:22.124Z</time></trkpt><trkpt lat="44.1005933" lon="11.7260467"><ele>371.6</ele><time>2026-04-11T14:34:23.124Z</time></trkpt><trkpt lat="44.1006067" lon="11.7261833"><ele>373.2</ele><time>2026-04-11T14:34:24.124Z</time></trkpt><trkpt lat="44.1006283" lon="11.7263217"><ele>374.79999999999995</ele><time>2026-04-11T14:34:25.125Z</time></trkpt><trkpt lat="44.1006633" lon="11.72645"><ele>376.4</ele><time>2026-04-11T14:34:26.124Z</time></trkpt><trkpt lat="44.1007067" lon="11.7265583"><ele>378.0</ele><time>2026-04-11T14:34:27.127Z</time></trkpt><trkpt lat="44.100765" lon="11.7266533"><ele>378.0</ele><time>2026-04-11T14:34:28.125Z</time></trkpt><trkpt lat="44.1008317" lon="11.7267133"><ele>378.0</ele><time>2026-04-11T14:34:29.124Z</time></trkpt><trkpt lat="44.10091" lon="11.7267383"><ele>378.0</ele><time>2026-04-11T14:34:30.124Z</time></trkpt><trkpt lat="44.1009983" lon="11.726735"><ele>378.0</ele><time>2026-04-11T14:34:31.126Z</time></trkpt><trkpt lat="44.1010833" lon="11.7266933"><ele>378.0</ele><time>2026-04-11T14:34:32.124Z</time></trkpt><trkpt lat="44.1011517" lon="11.7266183"><ele>378.0</ele><time>2026-04-11T14:34:33.125Z</time></trkpt><trkpt lat="44.1012217" lon="11.7265433"><ele>378.0</ele><time>2026-04-11T14:34:34.124Z</time></trkpt><trkpt lat="44.1013" lon="11.726475"><ele>378.0</ele><time>2026-04-11T14:34:35.124Z</time></trkpt><trkpt lat="44.1013767" lon="11.726405"><ele>378.0</ele><time>2026-04-11T14:34:36.125Z</time></trkpt><trkpt lat="44.1014617" lon="11.726345"><ele>378.0</ele><time>2026-04-11T14:34:37.122Z</time></trkpt><trkpt lat="44.1015467" lon="11.726295"><ele>378.0</ele><time>2026-04-11T14:34:38.125Z</time></trkpt><trkpt lat="44.1016333" lon="11.7262683"><ele>379.0</ele><time>2026-04-11T14:34:39.124Z</time></trkpt><trkpt lat="44.101715" lon="11.72627"><ele>380.0</ele><time>2026-04-11T14:34:40.124Z</time></trkpt><trkpt lat="44.1017917" lon="11.7262917"><ele>381.0</ele><time>2026-04-11T14:34:41.123Z</time></trkpt><trkpt lat="44.101855" lon="11.7263483"><ele>382.0</ele><time>2026-04-11T14:34:42.124Z</time></trkpt><trkpt lat="44.1018983" lon="11.7264383"><ele>383.0</ele><time>2026-04-11T14:34:43.123Z</time></trkpt><trkpt lat="44.1019167" lon="11.726545"><ele>384.0</ele><time>2026-04-11T14:34:44.124Z</time></trkpt><trkpt lat="44.1019083" lon="11.726655"><ele>384.0</ele><time>2026-04-11T14:34:45.124Z</time></trkpt><trkpt lat="44.1018917" lon="11.726765"><ele>384.0</ele><time>2026-04-11T14:34:46.122Z</time></trkpt><trkpt lat="44.101875" lon="11.72688"><ele>384.0</ele><time>2026-04-11T14:34:47.123Z</time></trkpt><trkpt lat="44.10187" lon="11.7269983"><ele>384.0</ele><time>2026-04-11T14:34:48.124Z</time></trkpt><trkpt lat="44.101885" lon="11.7271083"><ele>384.0</ele><time>2026-04-11T14:34:49.123Z</time></trkpt><trkpt lat="44.1019183" lon="11.727205"><ele>384.0</ele><time>2026-04-11T14:34:50.124Z</time></trkpt><trkpt lat="44.1019833" lon="11.72729"><ele>388.2</ele><time>2026-04-11T14:34:51.124Z</time></trkpt><trkpt lat="44.1020433" lon="11.727385"><ele>392.4</ele><time>2026-04-11T14:34:52.123Z</time></trkpt><trkpt lat="44.1020817" lon="11.7275033"><ele>396.6</ele><time>2026-04-11T14:34:53.123Z</time></trkpt><trkpt lat="44.102095" lon="11.7276333"><ele>400.8</ele><time>2026-04-11T14:34:54.123Z</time></trkpt><trkpt lat="44.1021183" lon="11.72777"><ele>405.0</ele><time>2026-04-11T14:34:55.124Z</time></trkpt><trkpt lat="44.1021583" lon="11.72791"><ele>403.6</ele><time>2026-04-11T14:34:56.124Z</time></trkpt><trkpt lat="44.1022233" lon="11.7280417"><ele>402.2</ele><time>2026-04-11T14:34:57.124Z</time></trkpt><trkpt lat="44.1022933" lon="11.728165"><ele>400.79999999999995</ele><time>2026-04-11T14:34:58.123Z</time></trkpt><trkpt lat="44.1023633" lon="11.7282833"><ele>399.4</ele><time>2026-04-11T14:34:59.123Z</time></trkpt><trkpt lat="44.1024333" lon="11.7284033"><ele>398.0</ele><time>2026-04-11T14:35:00.123Z</time></trkpt><trkpt lat="44.102475" lon="11.7285233"><ele>400.16666666666663</ele><time>2026-04-11T14:35:01.124Z</time></trkpt><trkpt lat="44.1025" lon="11.728645"><ele>402.3333333333333</ele><time>2026-04-11T14:35:02.124Z</time></trkpt><trkpt lat="44.1025183" lon="11.7287733"><ele>404.5</ele><time>2026-04-11T14:35:03.125Z</time></trkpt><trkpt lat="44.1025367" lon="11.7289017"><ele>406.66666666666663</ele><time>2026-04-11T14:35:04.123Z</time></trkpt><trkpt lat="44.1025667" lon="11.7290183"><ele>408.8333333333333</ele><time>2026-04-11T14:35:05.124Z</time></trkpt><trkpt lat="44.1026117" lon="11.7291133"><ele>411.0</ele><time>2026-04-11T14:35:06.124Z</time></trkpt><trkpt lat="44.1026683" lon="11.7291683"><ele>411.0</ele><time>2026-04-11T14:35:07.123Z</time></trkpt><trkpt lat="44.1027417" lon="11.7292033"><ele>411.0</ele><time>2026-04-11T14:35:08.124Z</time></trkpt><trkpt lat="44.102805" lon="11.7292633"><ele>411.0</ele><time>2026-04-11T14:35:09.124Z</time></trkpt><trkpt lat="44.1028783" lon="11.7293517"><ele>411.0</ele><time>2026-04-11T14:35:10.123Z</time></trkpt><trkpt lat="44.1029467" lon="11.7294467"><ele>411.0</ele><time>2026-04-11T14:35:11.123Z</time></trkpt><trkpt lat="44.1030317" lon="11.729535"><ele>412.0</ele><time>2026-04-11T14:35:12.124Z</time></trkpt><trkpt lat="44.1031183" lon="11.7296233"><ele>413.0</ele><time>2026-04-11T14:35:13.123Z</time></trkpt><trkpt lat="44.1032083" lon="11.729705"><ele>414.0</ele><time>2026-04-11T14:35:14.124Z</time></trkpt><trkpt lat="44.1033133" lon="11.7297717"><ele>415.0</ele><time>2026-04-11T14:35:15.125Z</time></trkpt><trkpt lat="44.1034217" lon="11.7298133"><ele>416.0</ele><time>2026-04-11T14:35:16.123Z</time></trkpt><trkpt lat="44.1035317" lon="11.7298517"><ele>416.0</ele><time>2026-04-11T14:35:17.124Z</time></trkpt><trkpt lat="44.10363" lon="11.729905"><ele>416.0</ele><time>2026-04-11T14:35:18.124Z</time></trkpt><trkpt lat="44.10372" lon="11.7299833"><ele>416.0</ele><time>2026-04-11T14:35:19.123Z</time></trkpt><trkpt lat="44.10381" lon="11.7300683"><ele>416.0</ele><time>2026-04-11T14:35:20.125Z</time></trkpt><trkpt lat="44.1039033" lon="11.7301483"><ele>416.0</ele><time>2026-04-11T14:35:21.124Z</time></trkpt><trkpt lat="44.10399" lon="11.7302217"><ele>418.8</ele><time>2026-04-11T14:35:22.123Z</time></trkpt><trkpt lat="44.1040583" lon="11.730285"><ele>421.6</ele><time>2026-04-11T14:35:23.123Z</time></trkpt><trkpt lat="44.1041067" lon="11.73035"><ele>424.4</ele><time>2026-04-11T14:35:24.124Z</time></trkpt><trkpt lat="44.1041" lon="11.7304767"><ele>427.2</ele><time>2026-04-11T14:35:26.123Z</time></trkpt><trkpt lat="44.1040117" lon="11.73054"><ele>430.0</ele><time>2026-04-11T14:35:28.124Z</time></trkpt><trkpt lat="44.10388" lon="11.7305483"><ele>430.33333333333337</ele><time>2026-04-11T14:35:30.123Z</time></trkpt><trkpt lat="44.1038033" lon="11.7305633"><ele>430.6666666666667</ele><time>2026-04-11T14:35:31.123Z</time></trkpt><trkpt lat="44.1037217" lon="11.7305833"><ele>431.0</ele><time>2026-04-11T14:35:32.124Z</time></trkpt><trkpt lat="44.1036483" lon="11.7306233"><ele>431.33333333333337</ele><time>2026-04-11T14:35:33.124Z</time></trkpt><trkpt lat="44.1035767" lon="11.73069"><ele>431.6666666666667</ele><time>2026-04-11T14:35:34.123Z</time></trkpt><trkpt lat="44.1035033" lon="11.73077"><ele>432.0</ele><time>2026-04-11T14:35:35.122Z</time></trkpt><trkpt lat="44.1034283" lon="11.7308417"><ele>432.0</ele><time>2026-04-11T14:35:36.123Z</time></trkpt><trkpt lat="44.1033433" lon="11.730895"><ele>432.00000000000006</ele><time>2026-04-11T14:35:37.122Z</time></trkpt><trkpt lat="44.1032533" lon="11.730915"><ele>432.00000000000006</ele><time>2026-04-11T14:35:38.124Z</time></trkpt><trkpt lat="44.1031633" lon="11.730905"><ele>432.0</ele><time>2026-04-11T14:35:39.123Z</time></trkpt><trkpt lat="44.1030717" lon="11.7308717"><ele>432.0</ele><time>2026-04-11T14:35:40.124Z</time></trkpt><trkpt lat="44.1029783" lon="11.73084"><ele>434.40000000000003</ele><time>2026-04-11T14:35:41.123Z</time></trkpt><trkpt lat="44.1028883" lon="11.7308183"><ele>436.80000000000007</ele><time>2026-04-11T14:35:42.124Z</time></trkpt><trkpt lat="44.1028" lon="11.7308167"><ele>439.2</ele><time>2026-04-11T14:35:43.123Z</time></trkpt><trkpt lat="44.1027117" lon="11.73084"><ele>441.6</ele><time>2026-04-11T14:35:44.123Z</time></trkpt><trkpt lat="44.102615" lon="11.73087"><ele>444.0</ele><time>2026-04-11T14:35:45.125Z</time></trkpt><trkpt lat="44.1025217" lon="11.73089"><ele>444.0</ele><time>2026-04-11T14:35:46.126Z</time></trkpt><trkpt lat="44.102435" lon="11.7308833"><ele>444.0</ele><time>2026-04-11T14:35:47.125Z</time></trkpt><trkpt lat="44.1023567" lon="11.730855"><ele>444.0</ele><time>2026-04-11T14:35:48.125Z</time></trkpt><trkpt lat="44.1022733" lon="11.730805"><ele>444.0</ele><time>2026-04-11T14:35:49.125Z</time></trkpt><trkpt lat="44.1021817" lon="11.73075"><ele>444.0</ele><time>2026-04-11T14:35:50.125Z</time></trkpt><trkpt lat="44.10209" lon="11.7307133"><ele>446.2</ele><time>2026-04-11T14:35:51.125Z</time></trkpt><trkpt lat="44.1019917" lon="11.7306967"><ele>448.4</ele><time>2026-04-11T14:35:52.124Z</time></trkpt><trkpt lat="44.1018867" lon="11.730675"><ele>450.6</ele><time>2026-04-11T14:35:53.124Z</time></trkpt><trkpt lat="44.10178" lon="11.7306517"><ele>452.8</ele><time>2026-04-11T14:35:54.125Z</time></trkpt><trkpt lat="44.101675" lon="11.7306067"><ele>455.0</ele><time>2026-04-11T14:35:55.123Z</time></trkpt><trkpt lat="44.10158" lon="11.73054"><ele>455.16666666666663</ele><time>2026-04-11T14:35:56.123Z</time></trkpt><trkpt lat="44.1014933" lon="11.7304783"><ele>455.3333333333333</ele><time>2026-04-11T14:35:57.124Z</time></trkpt><trkpt lat="44.101415" lon="11.730455"><ele>455.5</ele><time>2026-04-11T14:35:58.124Z</time></trkpt><trkpt lat="44.1013333" lon="11.73046"><ele>455.66666666666663</ele><time>2026-04-11T14:35:59.124Z</time></trkpt><trkpt lat="44.101245" lon="11.73048"><ele>455.8333333333333</ele><time>2026-04-11T14:36:00.124Z</time></trkpt><trkpt lat="44.101155" lon="11.7305117"><ele>456.0</ele><time>2026-04-11T14:36:01.124Z</time></trkpt><trkpt lat="44.1010683" lon="11.7305467"><ele>456.0</ele><time>2026-04-11T14:36:02.124Z</time></trkpt><trkpt lat="44.100985" lon="11.7305883"><ele>456.0</ele><time>2026-04-11T14:36:03.124Z</time></trkpt><trkpt lat="44.1009217" lon="11.730645"><ele>456.0</ele><time>2026-04-11T14:36:04.124Z</time></trkpt><trkpt lat="44.1008733" lon="11.730715"><ele>456.0</ele><time>2026-04-11T14:36:05.124Z</time></trkpt><trkpt lat="44.1008483" lon="11.7307983"><ele>456.0</ele><time>2026-04-11T14:36:06.122Z</time></trkpt><trkpt lat="44.1008417" lon="11.73089"><ele>456.0</ele><time>2026-04-11T14:36:07.123Z</time></trkpt><trkpt lat="44.1008783" lon="11.7310283"><ele>457.5</ele><time>2026-04-11T14:36:09.124Z</time></trkpt><trkpt lat="44.10097" lon="11.7311233"><ele>459.0</ele><time>2026-04-11T14:36:11.124Z</time></trkpt><trkpt lat="44.1010317" lon="11.7311567"><ele>460.5</ele><time>2026-04-11T14:36:12.124Z</time></trkpt><trkpt lat="44.1010983" lon="11.7311867"><ele>462.0</ele><time>2026-04-11T14:36:13.123Z</time></trkpt><trkpt lat="44.10117" lon="11.7312233"><ele>463.5</ele><time>2026-04-11T14:36:14.123Z</time></trkpt><trkpt lat="44.1012383" lon="11.7312633"><ele>465.0</ele><time>2026-04-11T14:36:15.124Z</time></trkpt><trkpt lat="44.1013067" lon="11.7313017"><ele>465.0</ele><time>2026-04-11T14:36:16.123Z</time></trkpt><trkpt lat="44.1013783" lon="11.7313383"><ele>465.0</ele><time>2026-04-11T14:36:17.125Z</time></trkpt><trkpt lat="44.10145" lon="11.7313733"><ele>465.0</ele><time>2026-04-11T14:36:18.125Z</time></trkpt><trkpt lat="44.101525" lon="11.7314117"><ele>465.0</ele><time>2026-04-11T14:36:19.125Z</time></trkpt><trkpt lat="44.1015983" lon="11.7314517"><ele>465.0</ele><time>2026-04-11T14:36:20.125Z</time></trkpt><trkpt lat="44.101675" lon="11.7314917"><ele>465.0</ele><time>2026-04-11T14:36:21.125Z</time></trkpt><trkpt lat="44.10176" lon="11.7315283"><ele>466.5</ele><time>2026-04-11T14:36:22.125Z</time></trkpt><trkpt lat="44.1018433" lon="11.73157"><ele>468.0</ele><time>2026-04-11T14:36:23.125Z</time></trkpt><trkpt lat="44.1019267" lon="11.7316133"><ele>469.5</ele><time>2026-04-11T14:36:24.126Z</time></trkpt><trkpt lat="44.102005" lon="11.7316617"><ele>471.0</ele><time>2026-04-11T14:36:25.125Z</time></trkpt><trkpt lat="44.1020817" lon="11.7317083"><ele>472.5</ele><time>2026-04-11T14:36:26.124Z</time></trkpt><trkpt lat="44.1021533" lon="11.7317483"><ele>474.0</ele><time>2026-04-11T14:36:27.124Z</time></trkpt><trkpt lat="44.1022217" lon="11.7317967"><ele>474.0</ele><time>2026-04-11T14:36:28.124Z</time></trkpt><trkpt lat="44.102285" lon="11.7318583"><ele>474.0</ele><time>2026-04-11T14:36:29.124Z</time></trkpt><trkpt lat="44.1023383" lon="11.7319317"><ele>474.0</ele><time>2026-04-11T14:36:30.124Z</time></trkpt><trkpt lat="44.1023917" lon="11.7320083"><ele>474.0</ele><time>2026-04-11T14:36:31.124Z</time></trkpt><trkpt lat="44.1024367" lon="11.7320933"><ele>474.0</ele><time>2026-04-11T14:36:32.125Z</time></trkpt><trkpt lat="44.1024733" lon="11.732185"><ele>474.0</ele><time>2026-04-11T14:36:33.125Z</time></trkpt><trkpt lat="44.1024933" lon="11.7322883"><ele>476.6666666666667</ele><time>2026-04-11T14:36:34.124Z</time></trkpt><trkpt lat="44.1025083" lon="11.7323917"><ele>479.33333333333337</ele><time>2026-04-11T14:36:35.125Z</time></trkpt><trkpt lat="44.1025183" lon="11.732495"><ele>482.0</ele><time>2026-04-11T14:36:36.126Z</time></trkpt><trkpt lat="44.1025371" lon="11.7326071"><ele>484.6666666666667</ele><time>2026-04-11T14:36:37.126Z</time></trkpt><trkpt lat="44.1025627" lon="11.7327221"><ele>487.33333333333337</ele><time>2026-04-11T14:36:38.126Z</time></trkpt><trkpt lat="44.1025912" lon="11.7328344"><ele>490.0</ele><time>2026-04-11T14:36:39.126Z</time></trkpt><trkpt lat="44.1026333" lon="11.7329392"><ele>492.00000000000006</ele><time>2026-04-11T14:36:40.126Z</time></trkpt><trkpt lat="44.1026823" lon="11.7330383"><ele>494.0</ele><time>2026-04-11T14:36:41.125Z</time></trkpt><trkpt lat="44.1027361" lon="11.7331333"><ele>496.0</ele><time>2026-04-11T14:36:42.127Z</time></trkpt><trkpt lat="44.1027935" lon="11.733228"><ele>498.0</ele><time>2026-04-11T14:36:43.126Z</time></trkpt><trkpt lat="44.1028559" lon="11.7333187"><ele>500.00000000000006</ele><time>2026-04-11T14:36:44.126Z</time></trkpt><trkpt lat="44.1029187" lon="11.7333993"><ele>502.0</ele><time>2026-04-11T14:36:45.126Z</time></trkpt><trkpt lat="44.1029883" lon="11.7334643"><ele>502.0</ele><time>2026-04-11T14:36:46.126Z</time></trkpt><trkpt lat="44.1030696" lon="11.7335115"><ele>502.00000000000006</ele><time>2026-04-11T14:36:47.125Z</time></trkpt><trkpt lat="44.1031602" lon="11.7335482"><ele>502.00000000000006</ele><time>2026-04-11T14:36:48.125Z</time></trkpt><trkpt lat="44.1032559" lon="11.733584"><ele>502.0</ele><time>2026-04-11T14:36:49.125Z</time></trkpt><trkpt lat="44.1033519" lon="11.7336193"><ele>502.0</ele><time>2026-04-11T14:36:50.124Z</time></trkpt><trkpt lat="44.1034515" lon="11.7336538"><ele>503.40000000000003</ele><time>2026-04-11T14:36:51.125Z</time></trkpt><trkpt lat="44.1035546" lon="11.7336861"><ele>504.80000000000007</ele><time>2026-04-11T14:36:52.124Z</time></trkpt><trkpt lat="44.1036556" lon="11.7337149"><ele>506.2</ele><time>2026-04-11T14:36:53.123Z</time></trkpt><trkpt lat="44.103753" lon="11.7337471"><ele>507.6</ele><time>2026-04-11T14:36:54.125Z</time></trkpt><trkpt lat="44.1038438" lon="11.7337868"><ele>509.0</ele><time>2026-04-11T14:36:55.126Z</time></trkpt><trkpt lat="44.1039259" lon="11.733851"><ele>509.0</ele><time>2026-04-11T14:36:56.124Z</time></trkpt><trkpt lat="44.1039999" lon="11.7339404"><ele>509.0</ele><time>2026-04-11T14:36:57.124Z</time></trkpt><trkpt lat="44.1040585" lon="11.7340505"><ele>509.0</ele><time>2026-04-11T14:36:58.123Z</time></trkpt><trkpt lat="44.1040932" lon="11.7341667"><ele>509.0</ele><time>2026-04-11T14:36:59.124Z</time></trkpt><trkpt lat="44.1041098" lon="11.7342914"><ele>509.0</ele><time>2026-04-11T14:37:00.125Z</time></trkpt><trkpt lat="44.1041183" lon="11.7344233"><ele>508.8333333333333</ele><time>2026-04-11T14:37:01.124Z</time></trkpt><trkpt lat="44.104145" lon="11.7345483"><ele>508.66666666666663</ele><time>2026-04-11T14:37:02.128Z</time></trkpt><trkpt lat="44.10417" lon="11.7346717"><ele>508.5</ele><time>2026-04-11T14:37:03.127Z</time></trkpt><trkpt lat="44.10419" lon="11.734795"><ele>508.33333333333337</ele><time>2026-04-11T14:37:04.124Z</time></trkpt><trkpt lat="44.1041967" lon="11.7348983"><ele>508.1666666666667</ele><time>2026-04-11T14:37:05.125Z</time></trkpt><trkpt lat="44.104185" lon="11.7349933"><ele>508.0</ele><time>2026-04-11T14:37:06.124Z</time></trkpt><trkpt lat="44.1041167" lon="11.73513"><ele>509.00000000000006</ele><time>2026-04-11T14:37:08.125Z</time></trkpt><trkpt lat="44.1040633" lon="11.7351817"><ele>510.0</ele><time>2026-04-11T14:37:09.124Z</time></trkpt><trkpt lat="44.103995" lon="11.7352283"><ele>511.0</ele><time>2026-04-11T14:37:10.124Z</time></trkpt><trkpt lat="44.103925" lon="11.73527"><ele>512.0</ele><time>2026-04-11T14:37:11.124Z</time></trkpt><trkpt lat="44.1038467" lon="11.7353183"><ele>513.0</ele><time>2026-04-11T14:37:12.124Z</time></trkpt><trkpt lat="44.10377" lon="11.7353717"><ele>514.0</ele><time>2026-04-11T14:37:13.125Z</time></trkpt><trkpt lat="44.103695" lon="11.73541"><ele>514.0</ele><time>2026-04-11T14:37:14.125Z</time></trkpt><trkpt lat="44.1036133" lon="11.7354533"><ele>514.0</ele><time>2026-04-11T14:37:15.124Z</time></trkpt><trkpt lat="44.10353" lon="11.7354967"><ele>514.0</ele><time>2026-04-11T14:37:16.125Z</time></trkpt><trkpt lat="44.103455" lon="11.735555"><ele>514.0</ele><time>2026-04-11T14:37:17.124Z</time></trkpt><trkpt lat="44.1033883" lon="11.7356233"><ele>514.0</ele><time>2026-04-11T14:37:18.125Z</time></trkpt><trkpt lat="44.10333" lon="11.73571"><ele>514.0</ele><time>2026-04-11T14:37:19.125Z</time></trkpt><trkpt lat="44.1032817" lon="11.73581"><ele>514.0</ele><time>2026-04-11T14:37:20.125Z</time></trkpt><trkpt lat="44.10325" lon="11.7359217"><ele>514.0</ele><time>2026-04-11T14:37:21.126Z</time></trkpt><trkpt lat="44.1032367" lon="11.7360383"><ele>514.0</ele><time>2026-04-11T14:37:22.124Z</time></trkpt><trkpt lat="44.1032317" lon="11.7361533"><ele>514.0</ele><time>2026-04-11T14:37:23.125Z</time></trkpt><trkpt lat="44.1032267" lon="11.7362683"><ele>514.0</ele><time>2026-04-11T14:37:24.127Z</time></trkpt><trkpt lat="44.1032067" lon="11.73638"><ele>514.0</ele><time>2026-04-11T14:37:25.124Z</time></trkpt><trkpt lat="44.1031733" lon="11.7364817"><ele>519.6666666666667</ele><time>2026-04-11T14:37:26.124Z</time></trkpt><trkpt lat="44.1031367" lon="11.7365883"><ele>525.3333333333334</ele><time>2026-04-11T14:37:27.129Z</time></trkpt><trkpt lat="44.1030967" lon="11.736695"><ele>531.0</ele><time>2026-04-11T14:37:28.124Z</time></trkpt><trkpt lat="44.1030583" lon="11.736805"><ele>536.6666666666666</ele><time>2026-04-11T14:37:29.124Z</time></trkpt><trkpt lat="44.1030233" lon="11.7369183"><ele>542.3333333333333</ele><time>2026-04-11T14:37:30.124Z</time></trkpt><trkpt lat="44.1029867" lon="11.7370283"><ele>548.0</ele><time>2026-04-11T14:37:31.124Z</time></trkpt><trkpt lat="44.10295" lon="11.7371383"><ele>548.0</ele><time>2026-04-11T14:37:32.125Z</time></trkpt><trkpt lat="44.102915" lon="11.737245"><ele>548.0</ele><time>2026-04-11T14:37:33.126Z</time></trkpt><trkpt lat="44.1028817" lon="11.737355"><ele>548.0</ele><time>2026-04-11T14:37:34.124Z</time></trkpt><trkpt lat="44.1028433" lon="11.7374683"><ele>548.0</ele><time>2026-04-11T14:37:35.124Z</time></trkpt><trkpt lat="44.1028067" lon="11.7375883"><ele>548.0</ele><time>2026-04-11T14:37:36.125Z</time></trkpt><trkpt lat="44.1027683" lon="11.737715"><ele>546.0</ele><time>2026-04-11T14:37:37.124Z</time></trkpt><trkpt lat="44.102725" lon="11.7378467"><ele>544.0</ele><time>2026-04-11T14:37:38.124Z</time></trkpt><trkpt lat="44.1026783" lon="11.73798"><ele>542.0</ele><time>2026-04-11T14:37:39.124Z</time></trkpt><trkpt lat="44.1026317" lon="11.7381133"><ele>540.0</ele><time>2026-04-11T14:37:40.125Z</time></trkpt><trkpt lat="44.10259" lon="11.7382433"><ele>538.0</ele><time>2026-04-11T14:37:41.125Z</time></trkpt><trkpt lat="44.1025483" lon="11.7383717"><ele>538.0</ele><time>2026-04-11T14:37:42.124Z</time></trkpt><trkpt lat="44.1025033" lon="11.7384933"><ele>538.0</ele><time>2026-04-11T14:37:43.125Z</time></trkpt><trkpt lat="44.1024517" lon="11.7386033"><ele>538.0</ele><time>2026-04-11T14:37:44.126Z</time></trkpt><trkpt lat="44.1023967" lon="11.7387033"><ele>538.0</ele><time>2026-04-11T14:37:45.125Z</time></trkpt><trkpt lat="44.1023283" lon="11.738795"><ele>538.0</ele><time>2026-04-11T14:37:46.126Z</time></trkpt><trkpt lat="44.1022567" lon="11.7388867"><ele>541.6</ele><time>2026-04-11T14:37:47.125Z</time></trkpt><trkpt lat="44.1022017" lon="11.739"><ele>545.1999999999999</ele><time>2026-04-11T14:37:48.124Z</time></trkpt><trkpt lat="44.10215" lon="11.7391217"><ele>548.8</ele><time>2026-04-11T14:37:49.123Z</time></trkpt><trkpt lat="44.1021083" lon="11.7392517"><ele>552.4</ele><time>2026-04-11T14:37:50.124Z</time></trkpt><trkpt lat="44.1020783" lon="11.739385"><ele>556.0</ele><time>2026-04-11T14:37:51.124Z</time></trkpt><trkpt lat="44.1020667" lon="11.7395217"><ele>556.0</ele><time>2026-04-11T14:37:52.125Z</time></trkpt><trkpt lat="44.1020667" lon="11.73966"><ele>556.0</ele><time>2026-04-11T14:37:53.124Z</time></trkpt><trkpt lat="44.1020733" lon="11.7398"><ele>556.0</ele><time>2026-04-11T14:37:54.124Z</time></trkpt><trkpt lat="44.1020783" lon="11.7399483"><ele>556.0</ele><time>2026-04-11T14:37:55.125Z</time></trkpt><trkpt lat="44.102075" lon="11.7400917"><ele>556.0</ele><time>2026-04-11T14:37:56.125Z</time></trkpt><trkpt lat="44.1020733" lon="11.74023"><ele>557.6</ele><time>2026-04-11T14:37:57.125Z</time></trkpt><trkpt lat="44.10208" lon="11.7403667"><ele>559.2</ele><time>2026-04-11T14:37:58.124Z</time></trkpt><trkpt lat="44.1020967" lon="11.74051"><ele>560.8</ele><time>2026-04-11T14:37:59.124Z</time></trkpt><trkpt lat="44.1021317" lon="11.740645"><ele>562.4</ele><time>2026-04-11T14:38:00.124Z</time></trkpt><trkpt lat="44.10217" lon="11.7407733"><ele>564.0</ele><time>2026-04-11T14:38:01.125Z</time></trkpt><trkpt lat="44.1021983" lon="11.74091"><ele>564.0</ele><time>2026-04-11T14:38:02.125Z</time></trkpt><trkpt lat="44.10221" lon="11.7410467"><ele>564.0</ele><time>2026-04-11T14:38:03.126Z</time></trkpt><trkpt lat="44.1022133" lon="11.7411833"><ele>564.0</ele><time>2026-04-11T14:38:04.124Z</time></trkpt><trkpt lat="44.102225" lon="11.7413217"><ele>564.0</ele><time>2026-04-11T14:38:05.125Z</time></trkpt><trkpt lat="44.1022367" lon="11.7414567"><ele>564.0</ele><time>2026-04-11T14:38:06.124Z</time></trkpt><trkpt lat="44.1022533" lon="11.741595"><ele>566.2</ele><time>2026-04-11T14:38:07.124Z</time></trkpt><trkpt lat="44.10227" lon="11.74173"><ele>568.4</ele><time>2026-04-11T14:38:08.124Z</time></trkpt><trkpt lat="44.102275" lon="11.7418667"><ele>570.6</ele><time>2026-04-11T14:38:09.123Z</time></trkpt><trkpt lat="44.1022767" lon="11.7419983"><ele>572.8</ele><time>2026-04-11T14:38:10.124Z</time></trkpt><trkpt lat="44.1022833" lon="11.74213"><ele>575.0</ele><time>2026-04-11T14:38:11.125Z</time></trkpt><trkpt lat="44.1023" lon="11.7422633"><ele>577.6666666666666</ele><time>2026-04-11T14:38:12.124Z</time></trkpt><trkpt lat="44.10232" lon="11.742395"><ele>580.3333333333333</ele><time>2026-04-11T14:38:13.125Z</time></trkpt><trkpt lat="44.102335" lon="11.7425217"><ele>583.0</ele><time>2026-04-11T14:38:14.125Z</time></trkpt><trkpt lat="44.1023367" lon="11.7426283"><ele>585.6666666666666</ele><time>2026-04-11T14:38:15.124Z</time></trkpt><trkpt lat="44.1023217" lon="11.7427283"><ele>588.3333333333334</ele><time>2026-04-11T14:38:16.123Z</time></trkpt><trkpt lat="44.1022867" lon="11.7428367"><ele>591.0</ele><time>2026-04-11T14:38:17.124Z</time></trkpt><trkpt lat="44.1022417" lon="11.7429483"><ele>593.0</ele><time>2026-04-11T14:38:18.126Z</time></trkpt><trkpt lat="44.1021867" lon="11.7430617"><ele>595.0</ele><time>2026-04-11T14:38:19.124Z</time></trkpt><trkpt lat="44.10212" lon="11.7431667"><ele>597.0</ele><time>2026-04-11T14:38:20.124Z</time></trkpt><trkpt lat="44.10206" lon="11.743275"><ele>599.0</ele><time>2026-04-11T14:38:21.125Z</time></trkpt><trkpt lat="44.1020183" lon="11.7434017"><ele>601.0</ele><time>2026-04-11T14:38:22.124Z</time></trkpt><trkpt lat="44.1019933" lon="11.7435317"><ele>599.6</ele><time>2026-04-11T14:38:23.124Z</time></trkpt><trkpt lat="44.1019683" lon="11.7436667"><ele>598.2</ele><time>2026-04-11T14:38:24.123Z</time></trkpt><trkpt lat="44.1019583" lon="11.7438167"><ele>596.8</ele><time>2026-04-11T14:38:25.124Z</time></trkpt><trkpt lat="44.1019583" lon="11.7439617"><ele>595.4</ele><time>2026-04-11T14:38:26.125Z</time></trkpt><trkpt lat="44.1019617" lon="11.7440917"><ele>594.0</ele><time>2026-04-11T14:38:27.125Z</time></trkpt><trkpt lat="44.101955" lon="11.7442217"><ele>594.0</ele><time>2026-04-11T14:38:28.125Z</time></trkpt><trkpt lat="44.1019467" lon="11.7443517"><ele>594.0</ele><time>2026-04-11T14:38:29.126Z</time></trkpt><trkpt lat="44.101955" lon="11.7444917"><ele>594.0</ele><time>2026-04-11T14:38:30.126Z</time></trkpt><trkpt lat="44.101975" lon="11.7446367"><ele>594.0</ele><time>2026-04-11T14:38:31.126Z</time></trkpt><trkpt lat="44.1020067" lon="11.744765"><ele>594.0</ele><time>2026-04-11T14:38:32.128Z</time></trkpt><trkpt lat="44.102045" lon="11.7448533"><ele>591.6</ele><time>2026-04-11T14:38:33.126Z</time></trkpt><trkpt lat="44.1021233" lon="11.7449717"><ele>589.2</ele><time>2026-04-11T14:38:35.126Z</time></trkpt><trkpt lat="44.1021833" lon="11.74507"><ele>586.8000000000001</ele><time>2026-04-11T14:38:37.124Z</time></trkpt><trkpt lat="44.10221" lon="11.74515"><ele>584.4</ele><time>2026-04-11T14:38:39.124Z</time></trkpt><trkpt lat="44.10219" lon="11.745295"><ele>582.0</ele><time>2026-04-11T14:39:13.124Z</time></trkpt><trkpt lat="44.1020983" lon="11.7452867"><ele>582.0</ele><time>2026-04-11T14:39:15.124Z</time></trkpt><trkpt lat="44.1019667" lon="11.7452683"><ele>582.0</ele><time>2026-04-11T14:39:17.124Z</time></trkpt><trkpt lat="44.1018867" lon="11.7452383"><ele>582.0</ele><time>2026-04-11T14:39:18.124Z</time></trkpt><trkpt lat="44.1018167" lon="11.7452083"><ele>582.0</ele><time>2026-04-11T14:39:19.124Z</time></trkpt><trkpt lat="44.1017433" lon="11.7451817"><ele>582.0</ele><time>2026-04-11T14:39:20.124Z</time></trkpt><trkpt lat="44.1016267" lon="11.7451833"><ele>581.6</ele><time>2026-04-11T14:39:22.125Z</time></trkpt><trkpt lat="44.1015133" lon="11.7452133"><ele>581.2</ele><time>2026-04-11T14:39:24.125Z</time></trkpt><trkpt lat="44.1013867" lon="11.7452067"><ele>580.8</ele><time>2026-04-11T14:39:26.127Z</time></trkpt><trkpt lat="44.1013167" lon="11.7451867"><ele>580.4</ele><time>2026-04-11T14:39:27.126Z</time></trkpt><trkpt lat="44.1012467" lon="11.7451567"><ele>580.0</ele><time>2026-04-11T14:39:28.125Z</time></trkpt><trkpt lat="44.1011783" lon="11.74512"><ele>580.0</ele><time>2026-04-11T14:39:29.126Z</time></trkpt><trkpt lat="44.1011117" lon="11.745075"><ele>580.0</ele><time>2026-04-11T14:39:30.124Z</time></trkpt><trkpt lat="44.1010467" lon="11.7450233"><ele>580.0</ele><time>2026-04-11T14:39:31.124Z</time></trkpt><trkpt lat="44.1009833" lon="11.7449717"><ele>580.0</ele><time>2026-04-11T14:39:32.124Z</time></trkpt><trkpt lat="44.1009217" lon="11.74492"><ele>580.0</ele><time>2026-04-11T14:39:33.124Z</time></trkpt><trkpt lat="44.1008567" lon="11.7448883"><ele>580.0</ele><time>2026-04-11T14:39:34.124Z</time></trkpt><trkpt lat="44.1007883" lon="11.74488"><ele>580.0</ele><time>2026-04-11T14:39:35.125Z</time></trkpt><trkpt lat="44.100715" lon="11.74489"><ele>580.2857142857143</ele><time>2026-04-11T14:39:36.124Z</time></trkpt><trkpt lat="44.10064" lon="11.7449183"><ele>580.5714285714287</ele><time>2026-04-11T14:39:37.124Z</time></trkpt><trkpt lat="44.1005717" lon="11.7449617"><ele>580.8571428571429</ele><time>2026-04-11T14:39:38.123Z</time></trkpt><trkpt lat="44.1005033" lon="11.7450033"><ele>581.1428571428571</ele><time>2026-04-11T14:39:39.124Z</time></trkpt><trkpt lat="44.1004383" lon="11.74505"><ele>581.4285714285713</ele><time>2026-04-11T14:39:40.125Z</time></trkpt><trkpt lat="44.1003767" lon="11.7451033"><ele>581.7142857142857</ele><time>2026-04-11T14:39:41.123Z</time></trkpt><trkpt lat="44.1003133" lon="11.74516"><ele>582.0</ele><time>2026-04-11T14:39:42.124Z</time></trkpt><trkpt lat="44.100255" lon="11.7452083"><ele>582.0</ele><time>2026-04-11T14:39:43.125Z</time></trkpt><trkpt lat="44.1001483" lon="11.7452167"><ele>582.0</ele><time>2026-04-11T14:39:45.123Z</time></trkpt><trkpt lat="44.10006" lon="11.7451233"><ele>582.0</ele><time>2026-04-11T14:39:47.124Z</time></trkpt><trkpt lat="44.1000317" lon="11.7450367"><ele>582.0</ele><time>2026-04-11T14:39:48.124Z</time></trkpt><trkpt lat="44.1000083" lon="11.7449483"><ele>582.0</ele><time>2026-04-11T14:39:49.124Z</time></trkpt><trkpt lat="44.0999983" lon="11.7448433"><ele>582.0</ele><time>2026-04-11T14:39:50.124Z</time></trkpt><trkpt lat="44.0999933" lon="11.7447317"><ele>582.0</ele><time>2026-04-11T14:39:51.125Z</time></trkpt><trkpt lat="44.099985" lon="11.744625"><ele>582.0</ele><time>2026-04-11T14:39:52.124Z</time></trkpt><trkpt lat="44.099965" lon="11.7445183"><ele>582.0</ele><time>2026-04-11T14:39:53.124Z</time></trkpt><trkpt lat="44.0999333" lon="11.7444133"><ele>582.0</ele><time>2026-04-11T14:39:54.124Z</time></trkpt><trkpt lat="44.0998967" lon="11.7443167"><ele>582.0</ele><time>2026-04-11T14:39:55.124Z</time></trkpt><trkpt lat="44.0998483" lon="11.74423"><ele>582.0</ele><time>2026-04-11T14:39:56.125Z</time></trkpt><trkpt lat="44.0997967" lon="11.7441583"><ele>582.5</ele><time>2026-04-11T14:39:57.124Z</time></trkpt><trkpt lat="44.0997383" lon="11.7441033"><ele>583.0</ele><time>2026-04-11T14:39:58.124Z</time></trkpt><trkpt lat="44.09967" lon="11.74405"><ele>583.5</ele><time>2026-04-11T14:39:59.125Z</time></trkpt><trkpt lat="44.0996" lon="11.7439983"><ele>584.0</ele><time>2026-04-11T14:40:00.124Z</time></trkpt><trkpt lat="44.0995317" lon="11.7439467"><ele>584.5</ele><time>2026-04-11T14:40:01.126Z</time></trkpt><trkpt lat="44.0994567" lon="11.74389"><ele>585.0</ele><time>2026-04-11T14:40:02.124Z</time></trkpt><trkpt lat="44.099385" lon="11.743835"><ele>585.0</ele><time>2026-04-11T14:40:03.124Z</time></trkpt><trkpt lat="44.099305" lon="11.74378"><ele>585.0</ele><time>2026-04-11T14:40:04.124Z</time></trkpt><trkpt lat="44.0992233" lon="11.7437283"><ele>585.0</ele><time>2026-04-11T14:40:05.125Z</time></trkpt><trkpt lat="44.0991433" lon="11.7436917"><ele>585.0</ele><time>2026-04-11T14:40:06.124Z</time></trkpt><trkpt lat="44.099055" lon="11.7436633"><ele>585.0</ele><time>2026-04-11T14:40:07.124Z</time></trkpt><trkpt lat="44.0989667" lon="11.7436383"><ele>585.0</ele><time>2026-04-11T14:40:08.124Z</time></trkpt><trkpt lat="44.0988883" lon="11.7436067"><ele>584.6666666666666</ele><time>2026-04-11T14:40:09.125Z</time></trkpt><trkpt lat="44.0988217" lon="11.74356"><ele>584.3333333333334</ele><time>2026-04-11T14:40:10.124Z</time></trkpt><trkpt lat="44.0987817" lon="11.743485"><ele>584.0</ele><time>2026-04-11T14:40:11.125Z</time></trkpt><trkpt lat="44.0987517" lon="11.7433983"><ele>583.6666666666667</ele><time>2026-04-11T14:40:12.125Z</time></trkpt><trkpt lat="44.09874" lon="11.7432883"><ele>583.3333333333334</ele><time>2026-04-11T14:40:13.124Z</time></trkpt><trkpt lat="44.0987517" lon="11.7431733"><ele>583.0</ele><time>2026-04-11T14:40:14.124Z</time></trkpt><trkpt lat="44.0987717" lon="11.7430567"><ele>583.0</ele><time>2026-04-11T14:40:15.123Z</time></trkpt><trkpt lat="44.0988133" lon="11.7429267"><ele>583.0</ele><time>2026-04-11T14:40:16.124Z</time></trkpt><trkpt lat="44.0988683" lon="11.7427817"><ele>583.0</ele><time>2026-04-11T14:40:17.124Z</time></trkpt><trkpt lat="44.09892" lon="11.7426333"><ele>583.0</ele><time>2026-04-11T14:40:18.124Z</time></trkpt><trkpt lat="44.0989667" lon="11.7424933"><ele>583.0</ele><time>2026-04-11T14:40:19.124Z</time></trkpt><trkpt lat="44.09901" lon="11.74235"><ele>581.0</ele><time>2026-04-11T14:40:20.123Z</time></trkpt><trkpt lat="44.0990317" lon="11.742195"><ele>579.0</ele><time>2026-04-11T14:40:21.124Z</time></trkpt><trkpt lat="44.0990383" lon="11.7420467"><ele>577.0</ele><time>2026-04-11T14:40:22.124Z</time></trkpt><trkpt lat="44.09904" lon="11.7418817"><ele>575.0</ele><time>2026-04-11T14:40:23.124Z</time></trkpt><trkpt lat="44.0990383" lon="11.7417233"><ele>573.5</ele><time>2026-04-11T14:40:24.123Z</time></trkpt><trkpt lat="44.0990333" lon="11.7415567"><ele>572.0</ele><time>2026-04-11T14:40:25.125Z</time></trkpt><trkpt lat="44.0990283" lon="11.7413967"><ele>570.5</ele><time>2026-04-11T14:40:26.125Z</time></trkpt><trkpt lat="44.0990133" lon="11.7412367"><ele>569.0</ele><time>2026-04-11T14:40:27.126Z</time></trkpt><trkpt lat="44.0989883" lon="11.7410717"><ele>570.2</ele><time>2026-04-11T14:40:28.125Z</time></trkpt><trkpt lat="44.0989567" lon="11.74092"><ele>571.4</ele><time>2026-04-11T14:40:29.125Z</time></trkpt><trkpt lat="44.0989217" lon="11.7407817"><ele>572.6</ele><time>2026-04-11T14:40:30.126Z</time></trkpt><trkpt lat="44.0988767" lon="11.7406517"><ele>573.8</ele><time>2026-04-11T14:40:31.126Z</time></trkpt><trkpt lat="44.0988233" lon="11.7405333"><ele>575.0</ele><time>2026-04-11T14:40:32.126Z</time></trkpt><trkpt lat="44.0987683" lon="11.7404117"><ele>575.0</ele><time>2026-04-11T14:40:33.13Z</time></trkpt><trkpt lat="44.0987033" lon="11.7402983"><ele>575.0</ele><time>2026-04-11T14:40:34.125Z</time></trkpt><trkpt lat="44.0986367" lon="11.7401833"><ele>575.0</ele><time>2026-04-11T14:40:35.125Z</time></trkpt><trkpt lat="44.0985633" lon="11.7400667"><ele>575.0</ele><time>2026-04-11T14:40:36.123Z</time></trkpt><trkpt lat="44.098475" lon="11.7399583"><ele>575.0</ele><time>2026-04-11T14:40:37.124Z</time></trkpt><trkpt lat="44.0983767" lon="11.7398683"><ele>576.75</ele><time>2026-04-11T14:40:38.124Z</time></trkpt><trkpt lat="44.098265" lon="11.7398017"><ele>578.5</ele><time>2026-04-11T14:40:39.124Z</time></trkpt><trkpt lat="44.0981433" lon="11.7397717"><ele>580.25</ele><time>2026-04-11T14:40:40.124Z</time></trkpt><trkpt lat="44.0980183" lon="11.7397617"><ele>582.0</ele><time>2026-04-11T14:40:41.124Z</time></trkpt><trkpt lat="44.0978933" lon="11.7397667"><ele>582.0</ele><time>2026-04-11T14:40:42.124Z</time></trkpt><trkpt lat="44.09777" lon="11.7397783"><ele>582.0</ele><time>2026-04-11T14:40:43.123Z</time></trkpt><trkpt lat="44.0976483" lon="11.73977"><ele>582.0</ele><time>2026-04-11T14:40:44.124Z</time></trkpt><trkpt lat="44.0975267" lon="11.7397517"><ele>582.0</ele><time>2026-04-11T14:40:45.124Z</time></trkpt><trkpt lat="44.097415" lon="11.7397117"><ele>580.4</ele><time>2026-04-11T14:40:46.124Z</time></trkpt><trkpt lat="44.0973083" lon="11.7396533"><ele>578.8000000000001</ele><time>2026-04-11T14:40:47.124Z</time></trkpt><trkpt lat="44.0972117" lon="11.7395817"><ele>577.2</ele><time>2026-04-11T14:40:48.126Z</time></trkpt><trkpt lat="44.0971283" lon="11.7395017"><ele>575.6</ele><time>2026-04-11T14:40:49.124Z</time></trkpt><trkpt lat="44.0970467" lon="11.7394167"><ele>574.0</ele><time>2026-04-11T14:40:50.124Z</time></trkpt><trkpt lat="44.0969667" lon="11.739325"><ele>577.8</ele><time>2026-04-11T14:40:51.125Z</time></trkpt><trkpt lat="44.096885" lon="11.739215"><ele>581.5999999999999</ele><time>2026-04-11T14:40:52.126Z</time></trkpt><trkpt lat="44.096805" lon="11.7391083"><ele>585.4</ele><time>2026-04-11T14:40:53.125Z</time></trkpt><trkpt lat="44.096725" lon="11.739005"><ele>589.1999999999999</ele><time>2026-04-11T14:40:54.126Z</time></trkpt><trkpt lat="44.0966383" lon="11.7389267"><ele>593.0</ele><time>2026-04-11T14:40:55.126Z</time></trkpt><trkpt lat="44.096545" lon="11.7388733"><ele>593.0</ele><time>2026-04-11T14:40:56.125Z</time></trkpt><trkpt lat="44.0964417" lon="11.7388533"><ele>593.0</ele><time>2026-04-11T14:40:57.125Z</time></trkpt><trkpt lat="44.09633" lon="11.7388617"><ele>593.0</ele><time>2026-04-11T14:40:58.125Z</time></trkpt><trkpt lat="44.0962167" lon="11.7388783"><ele>593.0</ele><time>2026-04-11T14:40:59.125Z</time></trkpt><trkpt lat="44.09611" lon="11.7388767"><ele>593.0</ele><time>2026-04-11T14:41:00.125Z</time></trkpt><trkpt lat="44.0960033" lon="11.7388683"><ele>593.0</ele><time>2026-04-11T14:41:01.124Z</time></trkpt><trkpt lat="44.0958967" lon="11.7388417"><ele>593.0</ele><time>2026-04-11T14:41:02.125Z</time></trkpt><trkpt lat="44.0957933" lon="11.7387983"><ele>593.0</ele><time>2026-04-11T14:41:03.124Z</time></trkpt><trkpt lat="44.0956933" lon="11.738735"><ele>593.0</ele><time>2026-04-11T14:41:04.124Z</time></trkpt><trkpt lat="44.0955933" lon="11.7386683"><ele>593.0</ele><time>2026-04-11T14:41:05.124Z</time></trkpt><trkpt lat="44.0954883" lon="11.7386"><ele>593.25</ele><time>2026-04-11T14:41:06.124Z</time></trkpt><trkpt lat="44.0953733" lon="11.7385533"><ele>593.5</ele><time>2026-04-11T14:41:07.123Z</time></trkpt><trkpt lat="44.0952633" lon="11.7385117"><ele>593.75</ele><time>2026-04-11T14:41:08.123Z</time></trkpt><trkpt lat="44.09515" lon="11.7384833"><ele>594.0</ele><time>2026-04-11T14:41:09.123Z</time></trkpt><trkpt lat="44.09504" lon="11.7384633"><ele>595.6</ele><time>2026-04-11T14:41:10.124Z</time></trkpt><trkpt lat="44.09493" lon="11.7384467"><ele>597.2</ele><time>2026-04-11T14:41:11.124Z</time></trkpt><trkpt lat="44.0948217" lon="11.7384367"><ele>598.8000000000001</ele><time>2026-04-11T14:41:12.125Z</time></trkpt><trkpt lat="44.0947133" lon="11.7384467"><ele>600.4</ele><time>2026-04-11T14:41:13.124Z</time></trkpt><trkpt lat="44.0946117" lon="11.7384883"><ele>602.0</ele><time>2026-04-11T14:41:14.124Z</time></trkpt><trkpt lat="44.09452" lon="11.7385633"><ele>603.8000000000001</ele><time>2026-04-11T14:41:15.124Z</time></trkpt><trkpt lat="44.0944367" lon="11.7386583"><ele>605.6</ele><time>2026-04-11T14:41:16.123Z</time></trkpt><trkpt lat="44.0943617" lon="11.7387567"><ele>607.4000000000001</ele><time>2026-04-11T14:41:17.124Z</time></trkpt><trkpt lat="44.0942867" lon="11.7388633"><ele>609.2</ele><time>2026-04-11T14:41:18.124Z</time></trkpt><trkpt lat="44.0942233" lon="11.7389933"><ele>611.0</ele><time>2026-04-11T14:41:19.124Z</time></trkpt><trkpt lat="44.0941833" lon="11.7391433"><ele>611.0</ele><time>2026-04-11T14:41:20.124Z</time></trkpt><trkpt lat="44.0941583" lon="11.7393067"><ele>611.0</ele><time>2026-04-11T14:41:21.124Z</time></trkpt><trkpt lat="44.0941333" lon="11.7394667"><ele>611.0</ele><time>2026-04-11T14:41:22.125Z</time></trkpt><trkpt lat="44.0941017" lon="11.7396233"><ele>611.0</ele><time>2026-04-11T14:41:23.124Z</time></trkpt><trkpt lat="44.0940567" lon="11.7397683"><ele>611.6</ele><time>2026-04-11T14:41:24.124Z</time></trkpt><trkpt lat="44.0940167" lon="11.7399"><ele>612.2</ele><time>2026-04-11T14:41:25.124Z</time></trkpt><trkpt lat="44.0939833" lon="11.7400367"><ele>612.8</ele><time>2026-04-11T14:41:26.124Z</time></trkpt><trkpt lat="44.09395" lon="11.7401683"><ele>613.4</ele><time>2026-04-11T14:41:27.124Z</time></trkpt><trkpt lat="44.093895" lon="11.7402917"><ele>614.0</ele><time>2026-04-11T14:41:28.123Z</time></trkpt><trkpt lat="44.0938267" lon="11.7404067"><ele>610.6</ele><time>2026-04-11T14:41:29.124Z</time></trkpt><trkpt lat="44.09376" lon="11.7405117"><ele>607.2</ele><time>2026-04-11T14:41:30.126Z</time></trkpt><trkpt lat="44.0936967" lon="11.7406167"><ele>603.8000000000001</ele><time>2026-04-11T14:41:31.124Z</time></trkpt><trkpt lat="44.0936233" lon="11.7407133"><ele>600.4</ele><time>2026-04-11T14:41:32.123Z</time></trkpt><trkpt lat="44.0935483" lon="11.7407883"><ele>597.0</ele><time>2026-04-11T14:41:33.124Z</time></trkpt><trkpt lat="44.09347" lon="11.74085"><ele>597.0</ele><time>2026-04-11T14:41:34.124Z</time></trkpt><trkpt lat="44.0933817" lon="11.74088"><ele>597.0</ele><time>2026-04-11T14:41:35.124Z</time></trkpt><trkpt lat="44.09329" lon="11.7408917"><ele>597.0</ele><time>2026-04-11T14:41:36.124Z</time></trkpt><trkpt lat="44.093205" lon="11.74089"><ele>597.0</ele><time>2026-04-11T14:41:37.125Z</time></trkpt><trkpt lat="44.093135" lon="11.7408633"><ele>597.0</ele><time>2026-04-11T14:41:38.124Z</time></trkpt><trkpt lat="44.0930633" lon="11.7408183"><ele>597.0</ele><time>2026-04-11T14:41:39.126Z</time></trkpt><trkpt lat="44.0930017" lon="11.7407233"><ele>595.2</ele><time>2026-04-11T14:41:40.125Z</time></trkpt><trkpt lat="44.09293" lon="11.7406083"><ele>593.4000000000001</ele><time>2026-04-11T14:41:41.124Z</time></trkpt><trkpt lat="44.0928617" lon="11.7405083"><ele>591.5999999999999</ele><time>2026-04-11T14:41:42.124Z</time></trkpt><trkpt lat="44.092795" lon="11.7403867"><ele>589.8</ele><time>2026-04-11T14:41:43.124Z</time></trkpt><trkpt lat="44.0927333" lon="11.7402617"><ele>588.0</ele><time>2026-04-11T14:41:44.124Z</time></trkpt><trkpt lat="44.0926783" lon="11.7401283"><ele>588.0</ele><time>2026-04-11T14:41:45.124Z</time></trkpt><trkpt lat="44.0926383" lon="11.74"><ele>588.0</ele><time>2026-04-11T14:41:46.124Z</time></trkpt><trkpt lat="44.09262" lon="11.7398667"><ele>588.0</ele><time>2026-04-11T14:41:47.128Z</time></trkpt><trkpt lat="44.0926167" lon="11.7397333"><ele>588.0</ele><time>2026-04-11T14:41:48.124Z</time></trkpt><trkpt lat="44.0926383" lon="11.7395817"><ele>588.0</ele><time>2026-04-11T14:41:49.124Z</time></trkpt><trkpt lat="44.09266" lon="11.739425"><ele>587.1999999999999</ele><time>2026-04-11T14:41:50.123Z</time></trkpt><trkpt lat="44.0926817" lon="11.7392683"><ele>586.4</ele><time>2026-04-11T14:41:51.125Z</time></trkpt><trkpt lat="44.09271" lon="11.7391217"><ele>585.5999999999999</ele><time>2026-04-11T14:41:52.125Z</time></trkpt><trkpt lat="44.0927433" lon="11.7389767"><ele>584.8</ele><time>2026-04-11T14:41:53.124Z</time></trkpt><trkpt lat="44.092765" lon="11.73884"><ele>584.0</ele><time>2026-04-11T14:41:54.124Z</time></trkpt><trkpt lat="44.0927717" lon="11.73872"><ele>584.0</ele><time>2026-04-11T14:41:55.123Z</time></trkpt><trkpt lat="44.0927583" lon="11.7386067"><ele>584.0</ele><time>2026-04-11T14:41:56.125Z</time></trkpt><trkpt lat="44.0927283" lon="11.7385033"><ele>584.0</ele><time>2026-04-11T14:41:57.124Z</time></trkpt><trkpt lat="44.0926867" lon="11.7383967"><ele>584.0</ele><time>2026-04-11T14:41:58.125Z</time></trkpt><trkpt lat="44.09262" lon="11.7383083"><ele>584.0</ele><time>2026-04-11T14:41:59.124Z</time></trkpt><trkpt lat="44.092535" lon="11.738235"><ele>584.0</ele><time>2026-04-11T14:42:00.124Z</time></trkpt><trkpt lat="44.092455" lon="11.738155"><ele>582.2</ele><time>2026-04-11T14:42:01.124Z</time></trkpt><trkpt lat="44.0923733" lon="11.7380717"><ele>580.4</ele><time>2026-04-11T14:42:02.124Z</time></trkpt><trkpt lat="44.092305" lon="11.737975"><ele>578.6</ele><time>2026-04-11T14:42:03.124Z</time></trkpt><trkpt lat="44.0922467" lon="11.7378767"><ele>576.8</ele><time>2026-04-11T14:42:04.124Z</time></trkpt><trkpt lat="44.092215" lon="11.7377617"><ele>575.0</ele><time>2026-04-11T14:42:05.125Z</time></trkpt><trkpt lat="44.092195" lon="11.7376333"><ele>575.0</ele><time>2026-04-11T14:42:06.123Z</time></trkpt><trkpt lat="44.0921683" lon="11.737505"><ele>575.0</ele><time>2026-04-11T14:42:07.124Z</time></trkpt><trkpt lat="44.0921233" lon="11.737405"><ele>575.0</ele><time>2026-04-11T14:42:08.125Z</time></trkpt><trkpt lat="44.09207" lon="11.7373117"><ele>575.0</ele><time>2026-04-11T14:42:09.124Z</time></trkpt><trkpt lat="44.0919917" lon="11.7372233"><ele>575.0</ele><time>2026-04-11T14:42:10.123Z</time></trkpt><trkpt lat="44.0918933" lon="11.7371817"><ele>575.0</ele><time>2026-04-11T14:42:11.123Z</time></trkpt><trkpt lat="44.0917933" lon="11.7371867"><ele>575.0</ele><time>2026-04-11T14:42:12.124Z</time></trkpt><trkpt lat="44.0916933" lon="11.7372083"><ele>575.0</ele><time>2026-04-11T14:42:13.122Z</time></trkpt><trkpt lat="44.0916" lon="11.73723"><ele>575.0</ele><time>2026-04-11T14:42:14.124Z</time></trkpt><trkpt lat="44.0915067" lon="11.73727"><ele>575.0</ele><time>2026-04-11T14:42:15.125Z</time></trkpt><trkpt lat="44.0914167" lon="11.7373383"><ele>575.1666666666666</ele><time>2026-04-11T14:42:16.123Z</time></trkpt><trkpt lat="44.0913417" lon="11.73743"><ele>575.3333333333333</ele><time>2026-04-11T14:42:17.124Z</time></trkpt><trkpt lat="44.0912767" lon="11.7375233"><ele>575.5</ele><time>2026-04-11T14:42:18.124Z</time></trkpt><trkpt lat="44.0911917" lon="11.7375983"><ele>575.6666666666666</ele><time>2026-04-11T14:42:19.125Z</time></trkpt><trkpt lat="44.0911233" lon="11.73764"><ele>575.8333333333334</ele><time>2026-04-11T14:42:20.125Z</time></trkpt><trkpt lat="44.0910483" lon="11.7376733"><ele>576.0</ele><time>2026-04-11T14:42:21.125Z</time></trkpt><trkpt lat="44.0909717" lon="11.73768"><ele>576.0</ele><time>2026-04-11T14:42:22.125Z</time></trkpt><trkpt lat="44.0908867" lon="11.7376567"><ele>576.0</ele><time>2026-04-11T14:42:23.125Z</time></trkpt><trkpt lat="44.0907967" lon="11.7376383"><ele>576.0</ele><time>2026-04-11T14:42:24.124Z</time></trkpt><trkpt lat="44.0906983" lon="11.7376267"><ele>576.0</ele><time>2026-04-11T14:42:25.123Z</time></trkpt><trkpt lat="44.0906017" lon="11.7376217"><ele>576.0</ele><time>2026-04-11T14:42:26.124Z</time></trkpt><trkpt lat="44.090505" lon="11.737615"><ele>574.4</ele><time>2026-04-11T14:42:27.124Z</time></trkpt><trkpt lat="44.090405" lon="11.7376033"><ele>572.8</ele><time>2026-04-11T14:42:28.124Z</time></trkpt><trkpt lat="44.090305" lon="11.7375883"><ele>571.1999999999999</ele><time>2026-04-11T14:42:29.124Z</time></trkpt><trkpt lat="44.090195" lon="11.7375683"><ele>569.6</ele><time>2026-04-11T14:42:30.123Z</time></trkpt><trkpt lat="44.0900867" lon="11.737545"><ele>568.0</ele><time>2026-04-11T14:42:31.123Z</time></trkpt><trkpt lat="44.08998" lon="11.73753"><ele>568.1999999999999</ele><time>2026-04-11T14:42:32.123Z</time></trkpt><trkpt lat="44.089875" lon="11.73754"><ele>568.4</ele><time>2026-04-11T14:42:33.124Z</time></trkpt><trkpt lat="44.0897683" lon="11.7375667"><ele>568.5999999999999</ele><time>2026-04-11T14:42:34.123Z</time></trkpt><trkpt lat="44.0896633" lon="11.7376083"><ele>568.8</ele><time>2026-04-11T14:42:35.124Z</time></trkpt><trkpt lat="44.089565" lon="11.7376583"><ele>569.0</ele><time>2026-04-11T14:42:36.124Z</time></trkpt><trkpt lat="44.089465" lon="11.7377067"><ele>565.5</ele><time>2026-04-11T14:42:37.124Z</time></trkpt><trkpt lat="44.0893617" lon="11.7377533"><ele>562.0</ele><time>2026-04-11T14:42:38.123Z</time></trkpt><trkpt lat="44.08925" lon="11.7378"><ele>558.5</ele><time>2026-04-11T14:42:39.124Z</time></trkpt><trkpt lat="44.0891333" lon="11.7378417"><ele>555.0</ele><time>2026-04-11T14:42:40.123Z</time></trkpt><trkpt lat="44.08902" lon="11.737865"><ele>554.75</ele><time>2026-04-11T14:42:41.124Z</time></trkpt><trkpt lat="44.0889033" lon="11.737885"><ele>554.5</ele><time>2026-04-11T14:42:42.124Z</time></trkpt><trkpt lat="44.0887833" lon="11.737885"><ele>554.25</ele><time>2026-04-11T14:42:43.124Z</time></trkpt><trkpt lat="44.08867" lon="11.737865"><ele>554.0</ele><time>2026-04-11T14:42:44.124Z</time></trkpt><trkpt lat="44.088565" lon="11.737825"><ele>554.0</ele><time>2026-04-11T14:42:45.124Z</time></trkpt><trkpt lat="44.0884617" lon="11.737765"><ele>554.0</ele><time>2026-04-11T14:42:46.124Z</time></trkpt><trkpt lat="44.08836" lon="11.737685"><ele>554.0</ele><time>2026-04-11T14:42:47.124Z</time></trkpt><trkpt lat="44.088255" lon="11.7376033"><ele>554.0</ele><time>2026-04-11T14:42:48.125Z</time></trkpt><trkpt lat="44.0881483" lon="11.737525"><ele>558.25</ele><time>2026-04-11T14:42:49.124Z</time></trkpt><trkpt lat="44.0880333" lon="11.7374733"><ele>562.5</ele><time>2026-04-11T14:42:50.124Z</time></trkpt><trkpt lat="44.0879117" lon="11.7374517"><ele>566.75</ele><time>2026-04-11T14:42:51.124Z</time></trkpt><trkpt lat="44.0877883" lon="11.737465"><ele>571.0</ele><time>2026-04-11T14:42:52.123Z</time></trkpt><trkpt lat="44.0876667" lon="11.737505"><ele>571.0</ele><time>2026-04-11T14:42:53.126Z</time></trkpt><trkpt lat="44.087555" lon="11.737545"><ele>571.0</ele><time>2026-04-11T14:42:54.123Z</time></trkpt><trkpt lat="44.087455" lon="11.7375717"><ele>571.0</ele><time>2026-04-11T14:42:55.124Z</time></trkpt><trkpt lat="44.0873667" lon="11.7375717"><ele>571.0</ele><time>2026-04-11T14:42:56.124Z</time></trkpt><trkpt lat="44.0872917" lon="11.73754"><ele>571.0</ele><time>2026-04-11T14:42:57.125Z</time></trkpt><trkpt lat="44.0872283" lon="11.7374817"><ele>569.4</ele><time>2026-04-11T14:42:58.124Z</time></trkpt><trkpt lat="44.08718" lon="11.7373783"><ele>567.8</ele><time>2026-04-11T14:42:59.124Z</time></trkpt><trkpt lat="44.0871367" lon="11.7372583"><ele>566.1999999999999</ele><time>2026-04-11T14:43:00.124Z</time></trkpt><trkpt lat="44.0871017" lon="11.737105"><ele>564.6</ele><time>2026-04-11T14:43:01.124Z</time></trkpt><trkpt lat="44.087065" lon="11.73695"><ele>563.0</ele><time>2026-04-11T14:43:02.123Z</time></trkpt><trkpt lat="44.087025" lon="11.7367933"><ele>563.0</ele><time>2026-04-11T14:43:03.124Z</time></trkpt><trkpt lat="44.0869817" lon="11.7366383"><ele>563.0</ele><time>2026-04-11T14:43:04.124Z</time></trkpt><trkpt lat="44.0869183" lon="11.736485"><ele>563.0</ele><time>2026-04-11T14:43:05.123Z</time></trkpt><trkpt lat="44.08685" lon="11.7363367"><ele>563.0</ele><time>2026-04-11T14:43:06.123Z</time></trkpt><trkpt lat="44.0867783" lon="11.7361783"><ele>564.25</ele><time>2026-04-11T14:43:07.124Z</time></trkpt><trkpt lat="44.0867167" lon="11.7360183"><ele>565.5</ele><time>2026-04-11T14:43:08.124Z</time></trkpt><trkpt lat="44.086665" lon="11.73586"><ele>566.75</ele><time>2026-04-11T14:43:09.124Z</time></trkpt><trkpt lat="44.0866133" lon="11.735715"><ele>568.0</ele><time>2026-04-11T14:43:10.125Z</time></trkpt><trkpt lat="44.0865517" lon="11.7355867"><ele>565.5</ele><time>2026-04-11T14:43:11.124Z</time></trkpt><trkpt lat="44.0864683" lon="11.7354883"><ele>563.0</ele><time>2026-04-11T14:43:12.125Z</time></trkpt><trkpt lat="44.08637" lon="11.7354133"><ele>560.5</ele><time>2026-04-11T14:43:13.124Z</time></trkpt><trkpt lat="44.0862633" lon="11.7353483"><ele>558.0</ele><time>2026-04-11T14:43:14.123Z</time></trkpt><trkpt lat="44.0861483" lon="11.7352983"><ele>558.0</ele><time>2026-04-11T14:43:15.124Z</time></trkpt><trkpt lat="44.0860283" lon="11.7352567"><ele>558.0</ele><time>2026-04-11T14:43:16.124Z</time></trkpt><trkpt lat="44.0859033" lon="11.7352067"><ele>558.0</ele><time>2026-04-11T14:43:17.124Z</time></trkpt><trkpt lat="44.085785" lon="11.7351517"><ele>558.0</ele><time>2026-04-11T14:43:18.124Z</time></trkpt><trkpt lat="44.0856717" lon="11.735085"><ele>561.0</ele><time>2026-04-11T14:43:19.124Z</time></trkpt><trkpt lat="44.0855617" lon="11.735015"><ele>564.0</ele><time>2026-04-11T14:43:20.124Z</time></trkpt><trkpt lat="44.0854483" lon="11.7349433"><ele>567.0</ele><time>2026-04-11T14:43:21.124Z</time></trkpt><trkpt lat="44.0853383" lon="11.7348833"><ele>570.0</ele><time>2026-04-11T14:43:22.126Z</time></trkpt><trkpt lat="44.0852433" lon="11.7348317"><ele>570.0</ele><time>2026-04-11T14:43:23.124Z</time></trkpt><trkpt lat="44.085155" lon="11.7347817"><ele>570.0</ele><time>2026-04-11T14:43:24.124Z</time></trkpt><trkpt lat="44.085075" lon="11.7347417"><ele>570.0</ele><time>2026-04-11T14:43:25.124Z</time></trkpt><trkpt lat="44.0850083" lon="11.734705"><ele>570.0</ele><time>2026-04-11T14:43:26.126Z</time></trkpt><trkpt lat="44.084905" lon="11.73464"><ele>570.0</ele><time>2026-04-11T14:43:28.125Z</time></trkpt><trkpt lat="44.0848195" lon="11.7345965"><ele>568.8333333333334</ele><time>2026-04-11T14:43:30.126Z</time></trkpt><trkpt lat="44.0847454" lon="11.7345639"><ele>567.6666666666666</ele><time>2026-04-11T14:43:32.125Z</time></trkpt><trkpt lat="44.0846518" lon="11.7345116"><ele>566.5</ele><time>2026-04-11T14:43:34.125Z</time></trkpt><trkpt lat="44.0845407" lon="11.734449"><ele>565.3333333333333</ele><time>2026-04-11T14:43:36.125Z</time></trkpt><trkpt lat="44.0844788" lon="11.7344244"><ele>564.1666666666666</ele><time>2026-04-11T14:43:37.125Z</time></trkpt><trkpt lat="44.0844078" lon="11.7343983"><ele>563.0</ele><time>2026-04-11T14:43:38.125Z</time></trkpt><trkpt lat="44.0843344" lon="11.7343683"><ele>562.5</ele><time>2026-04-11T14:43:39.125Z</time></trkpt><trkpt lat="44.0842653" lon="11.734328"><ele>562.0</ele><time>2026-04-11T14:43:40.125Z</time></trkpt><trkpt lat="44.0841986" lon="11.7342793"><ele>561.5</ele><time>2026-04-11T14:43:41.124Z</time></trkpt><trkpt lat="44.0841273" lon="11.7342244"><ele>561.0</ele><time>2026-04-11T14:43:42.125Z</time></trkpt><trkpt lat="44.0840543" lon="11.7341559"><ele>560.5</ele><time>2026-04-11T14:43:43.125Z</time></trkpt><trkpt lat="44.0839868" lon="11.7340752"><ele>560.0</ele><time>2026-04-11T14:43:44.125Z</time></trkpt><trkpt lat="44.0839267" lon="11.733984"><ele>560.0</ele><time>2026-04-11T14:43:45.125Z</time></trkpt><trkpt lat="44.0838758" lon="11.7338836"><ele>560.0</ele><time>2026-04-11T14:43:46.125Z</time></trkpt><trkpt lat="44.0838346" lon="11.7337704"><ele>560.0</ele><time>2026-04-11T14:43:47.125Z</time></trkpt><trkpt lat="44.0838029" lon="11.7336435"><ele>560.0</ele><time>2026-04-11T14:43:48.125Z</time></trkpt><trkpt lat="44.0837835" lon="11.7335119"><ele>560.0</ele><time>2026-04-11T14:43:49.125Z</time></trkpt><trkpt lat="44.0837743" lon="11.7333829"><ele>560.1666666666666</ele><time>2026-04-11T14:43:50.125Z</time></trkpt><trkpt lat="44.0837751" lon="11.7332603"><ele>560.3333333333333</ele><time>2026-04-11T14:43:51.124Z</time></trkpt><trkpt lat="44.0837887" lon="11.7331428"><ele>560.5</ele><time>2026-04-11T14:43:52.123Z</time></trkpt><trkpt lat="44.0838025" lon="11.7330323"><ele>560.6666666666666</ele><time>2026-04-11T14:43:53.124Z</time></trkpt><trkpt lat="44.0838099" lon="11.7329216"><ele>560.8333333333334</ele><time>2026-04-11T14:43:54.122Z</time></trkpt><trkpt lat="44.0838106" lon="11.7328074"><ele>561.0</ele><time>2026-04-11T14:43:55.123Z</time></trkpt><trkpt lat="44.0837959" lon="11.7326951"><ele>561.6666666666666</ele><time>2026-04-11T14:43:56.124Z</time></trkpt><trkpt lat="44.0837666" lon="11.7325913"><ele>562.3333333333334</ele><time>2026-04-11T14:43:57.124Z</time></trkpt><trkpt lat="44.0837283" lon="11.7324873"><ele>563.0</ele><time>2026-04-11T14:43:58.123Z</time></trkpt><trkpt lat="44.0836843" lon="11.7323814"><ele>563.6666666666667</ele><time>2026-04-11T14:43:59.122Z</time></trkpt><trkpt lat="44.0836357" lon="11.7322684"><ele>564.3333333333334</ele><time>2026-04-11T14:44:00.123Z</time></trkpt><trkpt lat="44.0835851" lon="11.7321545"><ele>565.0</ele><time>2026-04-11T14:44:01.123Z</time></trkpt><trkpt lat="44.0835217" lon="11.7320501"><ele>565.0</ele><time>2026-04-11T14:44:02.124Z</time></trkpt><trkpt lat="44.0834542" lon="11.73195"><ele>565.0</ele><time>2026-04-11T14:44:03.124Z</time></trkpt><trkpt lat="44.0833796" lon="11.7318576"><ele>565.0</ele><time>2026-04-11T14:44:04.124Z</time></trkpt><trkpt lat="44.0832964" lon="11.7317817"><ele>565.0</ele><time>2026-04-11T14:44:05.125Z</time></trkpt><trkpt lat="44.0832133" lon="11.731706"><ele>565.0</ele><time>2026-04-11T14:44:06.124Z</time></trkpt><trkpt lat="44.0831332" lon="11.7316344"><ele>564.6</ele><time>2026-04-11T14:44:07.123Z</time></trkpt><trkpt lat="44.0830556" lon="11.7315652"><ele>564.2</ele><time>2026-04-11T14:44:08.124Z</time></trkpt><trkpt lat="44.0829748" lon="11.7314972"><ele>563.8</ele><time>2026-04-11T14:44:09.123Z</time></trkpt><trkpt lat="44.0828879" lon="11.731428"><ele>563.4</ele><time>2026-04-11T14:44:10.123Z</time></trkpt><trkpt lat="44.082794" lon="11.73136"><ele>563.0</ele><time>2026-04-11T14:44:11.124Z</time></trkpt><trkpt lat="44.0827011" lon="11.7312963"><ele>563.0</ele><time>2026-04-11T14:44:12.124Z</time></trkpt><trkpt lat="44.0826064" lon="11.7312374"><ele>563.0</ele><time>2026-04-11T14:44:13.125Z</time></trkpt><trkpt lat="44.082518" lon="11.7311821"><ele>563.0</ele><time>2026-04-11T14:44:14.124Z</time></trkpt><trkpt lat="44.082438" lon="11.731122"><ele>563.0</ele><time>2026-04-11T14:44:15.124Z</time></trkpt><trkpt lat="44.0823705" lon="11.7310522"><ele>563.0</ele><time>2026-04-11T14:44:16.124Z</time></trkpt><trkpt lat="44.0823153" lon="11.730962"><ele>559.6</ele><time>2026-04-11T14:44:17.124Z</time></trkpt><trkpt lat="44.0822739" lon="11.7308461"><ele>556.1999999999999</ele><time>2026-04-11T14:44:18.124Z</time></trkpt><trkpt lat="44.0822494" lon="11.7307102"><ele>552.8</ele><time>2026-04-11T14:44:19.124Z</time></trkpt><trkpt lat="44.0822475" lon="11.7305701"><ele>549.4</ele><time>2026-04-11T14:44:20.124Z</time></trkpt><trkpt lat="44.0822749" lon="11.7304278"><ele>546.0</ele><time>2026-04-11T14:44:21.125Z</time></trkpt><trkpt lat="44.0823223" lon="11.7302991"><ele>544.2</ele><time>2026-04-11T14:44:22.123Z</time></trkpt><trkpt lat="44.0823855" lon="11.7301799"><ele>542.4000000000001</ele><time>2026-04-11T14:44:23.124Z</time></trkpt><trkpt lat="44.0824589" lon="11.7300675"><ele>540.6</ele><time>2026-04-11T14:44:24.123Z</time></trkpt><trkpt lat="44.0825338" lon="11.7299555"><ele>538.8000000000001</ele><time>2026-04-11T14:44:25.123Z</time></trkpt><trkpt lat="44.082608" lon="11.7298401"><ele>537.0</ele><time>2026-04-11T14:44:26.124Z</time></trkpt><trkpt lat="44.0826684" lon="11.7297264"><ele>541.0</ele><time>2026-04-11T14:44:27.124Z</time></trkpt><trkpt lat="44.0827242" lon="11.7296088"><ele>545.0</ele><time>2026-04-11T14:44:28.124Z</time></trkpt><trkpt lat="44.0827746" lon="11.7294859"><ele>549.0</ele><time>2026-04-11T14:44:29.124Z</time></trkpt><trkpt lat="44.0828176" lon="11.7293549"><ele>553.0</ele><time>2026-04-11T14:44:30.124Z</time></trkpt><trkpt lat="44.0828534" lon="11.7292163"><ele>557.0</ele><time>2026-04-11T14:44:31.124Z</time></trkpt><trkpt lat="44.0828683" lon="11.7290733"><ele>557.0</ele><time>2026-04-11T14:44:32.124Z</time></trkpt><trkpt lat="44.0828717" lon="11.7289383"><ele>557.0</ele><time>2026-04-11T14:44:33.124Z</time></trkpt><trkpt lat="44.08286" lon="11.72882"><ele>557.0</ele><time>2026-04-11T14:44:34.124Z</time></trkpt><trkpt lat="44.08283" lon="11.728715"><ele>557.0</ele><time>2026-04-11T14:44:35.124Z</time></trkpt><trkpt lat="44.0827817" lon="11.7286217"><ele>557.0</ele><time>2026-04-11T14:44:36.124Z</time></trkpt><trkpt lat="44.0827167" lon="11.7285383"><ele>557.0</ele><time>2026-04-11T14:44:37.124Z</time></trkpt><trkpt lat="44.082645" lon="11.7284767"><ele>557.6</ele><time>2026-04-11T14:44:38.124Z</time></trkpt><trkpt lat="44.08257" lon="11.7284183"><ele>558.2</ele><time>2026-04-11T14:44:39.125Z</time></trkpt><trkpt lat="44.08249" lon="11.72837"><ele>558.8</ele><time>2026-04-11T14:44:40.124Z</time></trkpt><trkpt lat="44.0824033" lon="11.72833"><ele>559.4</ele><time>2026-04-11T14:44:41.124Z</time></trkpt><trkpt lat="44.0823133" lon="11.7282967"><ele>560.0</ele><time>2026-04-11T14:44:42.124Z</time></trkpt><trkpt lat="44.082215" lon="11.7282567"><ele>558.8</ele><time>2026-04-11T14:44:43.123Z</time></trkpt><trkpt lat="44.0821167" lon="11.728215"><ele>557.6</ele><time>2026-04-11T14:44:44.123Z</time></trkpt><trkpt lat="44.08201" lon="11.72817"><ele>556.4</ele><time>2026-04-11T14:44:45.123Z</time></trkpt><trkpt lat="44.0819033" lon="11.7281233"><ele>555.2</ele><time>2026-04-11T14:44:46.124Z</time></trkpt><trkpt lat="44.0818033" lon="11.7280733"><ele>554.0</ele><time>2026-04-11T14:44:47.124Z</time></trkpt><trkpt lat="44.0817" lon="11.7280333"><ele>553.0</ele><time>2026-04-11T14:44:48.124Z</time></trkpt><trkpt lat="44.081595" lon="11.7279883"><ele>552.0</ele><time>2026-04-11T14:44:49.124Z</time></trkpt><trkpt lat="44.0814833" lon="11.727935"><ele>551.0</ele><time>2026-04-11T14:44:50.124Z</time></trkpt><trkpt lat="44.0813717" lon="11.7278933"><ele>550.0</ele><time>2026-04-11T14:44:51.124Z</time></trkpt><trkpt lat="44.0812583" lon="11.7278633"><ele>550.0</ele><time>2026-04-11T14:44:52.123Z</time></trkpt><trkpt lat="44.0811483" lon="11.7278433"><ele>550.0</ele><time>2026-04-11T14:44:53.124Z</time></trkpt><trkpt lat="44.0810517" lon="11.7278333"><ele>550.0</ele><time>2026-04-11T14:44:54.124Z</time></trkpt><trkpt lat="44.080955" lon="11.7278233"><ele>550.0</ele><time>2026-04-11T14:44:55.124Z</time></trkpt><trkpt lat="44.0808783" lon="11.7278183"><ele>550.0</ele><time>2026-04-11T14:44:56.124Z</time></trkpt><trkpt lat="44.0808033" lon="11.7278117"><ele>548.4</ele><time>2026-04-11T14:44:57.124Z</time></trkpt><trkpt lat="44.0807333" lon="11.7278"><ele>546.8</ele><time>2026-04-11T14:44:58.123Z</time></trkpt><trkpt lat="44.080615" lon="11.72777"><ele>545.2</ele><time>2026-04-11T14:45:00.124Z</time></trkpt><trkpt lat="44.0805017" lon="11.727745"><ele>543.6</ele><time>2026-04-11T14:45:02.124Z</time></trkpt><trkpt lat="44.0803967" lon="11.7276917"><ele>542.0</ele><time>2026-04-11T14:45:04.123Z</time></trkpt><trkpt lat="44.08031" lon="11.7276283"><ele>546.5</ele><time>2026-04-11T14:45:06.124Z</time></trkpt><trkpt lat="44.0802133" lon="11.7275617"><ele>551.0</ele><time>2026-04-11T14:45:08.124Z</time></trkpt><trkpt lat="44.0801533" lon="11.7275283"><ele>555.5</ele><time>2026-04-11T14:45:09.125Z</time></trkpt><trkpt lat="44.0800833" lon="11.727505"><ele>560.0</ele><time>2026-04-11T14:45:10.124Z</time></trkpt><trkpt lat="44.0800067" lon="11.7274783"><ele>564.5</ele><time>2026-04-11T14:45:11.124Z</time></trkpt><trkpt lat="44.0799133" lon="11.72747"><ele>569.0</ele><time>2026-04-11T14:45:12.124Z</time></trkpt><trkpt lat="44.0798167" lon="11.727465"><ele>569.0</ele><time>2026-04-11T14:45:13.123Z</time></trkpt><trkpt lat="44.0797167" lon="11.72746"><ele>569.0</ele><time>2026-04-11T14:45:14.124Z</time></trkpt><trkpt lat="44.079625" lon="11.7274367"><ele>569.0</ele><time>2026-04-11T14:45:15.124Z</time></trkpt><trkpt lat="44.0795367" lon="11.7274117"><ele>569.0</ele><time>2026-04-11T14:45:16.124Z</time></trkpt><trkpt lat="44.0794517" lon="11.7273883"><ele>569.0</ele><time>2026-04-11T14:45:17.123Z</time></trkpt><trkpt lat="44.0793767" lon="11.7273733"><ele>569.0</ele><time>2026-04-11T14:45:18.124Z</time></trkpt><trkpt lat="44.079305" lon="11.727365"><ele>569.0000000000001</ele><time>2026-04-11T14:45:19.123Z</time></trkpt><trkpt lat="44.0792417" lon="11.7273483"><ele>569.0</ele><time>2026-04-11T14:45:20.123Z</time></trkpt><trkpt lat="44.0791733" lon="11.7273333"><ele>569.0</ele><time>2026-04-11T14:45:21.124Z</time></trkpt><trkpt lat="44.0791117" lon="11.72729"><ele>569.0</ele><time>2026-04-11T14:45:22.123Z</time></trkpt><trkpt lat="44.07906" lon="11.7272217"><ele>569.0</ele><time>2026-04-11T14:45:23.124Z</time></trkpt><trkpt lat="44.0790233" lon="11.72715"><ele>569.0000000000001</ele><time>2026-04-11T14:45:24.124Z</time></trkpt><trkpt lat="44.0789917" lon="11.7270683"><ele>569.0</ele><time>2026-04-11T14:45:25.127Z</time></trkpt><trkpt lat="44.0789833" lon="11.7269633"><ele>564.6</ele><time>2026-04-11T14:45:26.124Z</time></trkpt><trkpt lat="44.0790083" lon="11.7268433"><ele>560.2</ele><time>2026-04-11T14:45:27.124Z</time></trkpt><trkpt lat="44.0790317" lon="11.7267033"><ele>555.8000000000001</ele><time>2026-04-11T14:45:28.123Z</time></trkpt><trkpt lat="44.0790383" lon="11.7265633"><ele>551.4</ele><time>2026-04-11T14:45:29.124Z</time></trkpt><trkpt lat="44.0790433" lon="11.726425"><ele>547.0</ele><time>2026-04-11T14:45:30.124Z</time></trkpt><trkpt lat="44.0790383" lon="11.7262917"><ele>547.0</ele><time>2026-04-11T14:45:31.124Z</time></trkpt><trkpt lat="44.0790183" lon="11.7261633"><ele>547.0</ele><time>2026-04-11T14:45:32.124Z</time></trkpt><trkpt lat="44.0789883" lon="11.72603"><ele>547.0</ele><time>2026-04-11T14:45:33.124Z</time></trkpt><trkpt lat="44.0789533" lon="11.725905"><ele>547.0</ele><time>2026-04-11T14:45:34.123Z</time></trkpt><trkpt lat="44.0789133" lon="11.7257867"><ele>547.0</ele><time>2026-04-11T14:45:35.124Z</time></trkpt><trkpt lat="44.0788733" lon="11.72566"><ele>548.2</ele><time>2026-04-11T14:45:36.124Z</time></trkpt><trkpt lat="44.0788283" lon="11.7255367"><ele>549.4000000000001</ele><time>2026-04-11T14:45:37.123Z</time></trkpt><trkpt lat="44.07877" lon="11.725425"><ele>550.5999999999999</ele><time>2026-04-11T14:45:38.123Z</time></trkpt><trkpt lat="44.078705" lon="11.7253217"><ele>551.8</ele><time>2026-04-11T14:45:39.125Z</time></trkpt><trkpt lat="44.07863" lon="11.7252233"><ele>553.0</ele><time>2026-04-11T14:45:40.123Z</time></trkpt><trkpt lat="44.078555" lon="11.7251167"><ele>554.8</ele><time>2026-04-11T14:45:41.125Z</time></trkpt><trkpt lat="44.0784817" lon="11.7250083"><ele>556.5999999999999</ele><time>2026-04-11T14:45:42.124Z</time></trkpt><trkpt lat="44.0784017" lon="11.72492"><ele>558.4000000000001</ele><time>2026-04-11T14:45:43.125Z</time></trkpt><trkpt lat="44.07832" lon="11.7248483"><ele>560.2</ele><time>2026-04-11T14:45:44.125Z</time></trkpt><trkpt lat="44.078235" lon="11.7247983"><ele>562.0</ele><time>2026-04-11T14:45:45.126Z</time></trkpt><trkpt lat="44.0781467" lon="11.724765"><ele>562.0</ele><time>2026-04-11T14:45:46.123Z</time></trkpt><trkpt lat="44.0780533" lon="11.7247483"><ele>562.0</ele><time>2026-04-11T14:45:47.123Z</time></trkpt><trkpt lat="44.07796" lon="11.7247367"><ele>562.0</ele><time>2026-04-11T14:45:48.124Z</time></trkpt><trkpt lat="44.0778583" lon="11.72474"><ele>562.0</ele><time>2026-04-11T14:45:49.124Z</time></trkpt><trkpt lat="44.0777583" lon="11.724765"><ele>562.0</ele><time>2026-04-11T14:45:50.124Z</time></trkpt><trkpt lat="44.0776483" lon="11.724795"><ele>562.0</ele><time>2026-04-11T14:45:51.124Z</time></trkpt><trkpt lat="44.077525" lon="11.7248133"><ele>562.0</ele><time>2026-04-11T14:45:52.124Z</time></trkpt><trkpt lat="44.0774067" lon="11.7248233"><ele>562.0</ele><time>2026-04-11T14:45:53.123Z</time></trkpt><trkpt lat="44.0772883" lon="11.7248233"><ele>562.0</ele><time>2026-04-11T14:45:54.124Z</time></trkpt><trkpt lat="44.0771733" lon="11.7248317"><ele>562.6</ele><time>2026-04-11T14:45:55.124Z</time></trkpt><trkpt lat="44.0770567" lon="11.724855"><ele>563.2</ele><time>2026-04-11T14:45:56.123Z</time></trkpt><trkpt lat="44.07695" lon="11.7248967"><ele>563.8</ele><time>2026-04-11T14:45:57.125Z</time></trkpt><trkpt lat="44.0768483" lon="11.7249383"><ele>564.4</ele><time>2026-04-11T14:45:58.123Z</time></trkpt><trkpt lat="44.0767517" lon="11.7249567"><ele>565.0</ele><time>2026-04-11T14:45:59.123Z</time></trkpt><trkpt lat="44.0766617" lon="11.7249233"><ele>564.8333333333334</ele><time>2026-04-11T14:46:00.126Z</time></trkpt><trkpt lat="44.0765783" lon="11.7248617"><ele>564.6666666666667</ele><time>2026-04-11T14:46:01.124Z</time></trkpt><trkpt lat="44.0765117" lon="11.7247817"><ele>564.5</ele><time>2026-04-11T14:46:02.124Z</time></trkpt><trkpt lat="44.07647" lon="11.72469"><ele>564.3333333333334</ele><time>2026-04-11T14:46:03.124Z</time></trkpt><trkpt lat="44.0764383" lon="11.7245833"><ele>564.1666666666666</ele><time>2026-04-11T14:46:04.124Z</time></trkpt><trkpt lat="44.076425" lon="11.72448"><ele>564.0</ele><time>2026-04-11T14:46:05.124Z</time></trkpt><trkpt lat="44.0764167" lon="11.7243883"><ele>564.0</ele><time>2026-04-11T14:46:06.126Z</time></trkpt><trkpt lat="44.07641" lon="11.7242567"><ele>564.0</ele><time>2026-04-11T14:46:08.124Z</time></trkpt><trkpt lat="44.0763439" lon="11.7242078"><ele>564.0</ele><time>2026-04-11T14:46:12.123Z</time></trkpt><trkpt lat="44.0763004" lon="11.7243336"><ele>564.0</ele><time>2026-04-11T14:46:16.129Z</time></trkpt><trkpt lat="44.0763172" lon="11.7245311"><ele>564.0</ele><time>2026-04-11T14:46:17.168Z</time></trkpt><trkpt lat="44.0763213" lon="11.7246572"><ele>559.5</ele><time>2026-04-11T14:46:18.209Z</time></trkpt><trkpt lat="44.0763503" lon="11.7248193"><ele>555.0</ele><time>2026-04-11T14:46:19.122Z</time></trkpt><trkpt lat="44.0763953" lon="11.7249808"><ele>550.5</ele><time>2026-04-11T14:46:20.124Z</time></trkpt><trkpt lat="44.0764602" lon="11.7251225"><ele>546.0</ele><time>2026-04-11T14:46:21.125Z</time></trkpt><trkpt lat="44.0765442" lon="11.7252343"><ele>544.5</ele><time>2026-04-11T14:46:22.123Z</time></trkpt><trkpt lat="44.0766483" lon="11.7253194"><ele>543.0</ele><time>2026-04-11T14:46:23.124Z</time></trkpt><trkpt lat="44.0767586" lon="11.7253787"><ele>541.5</ele><time>2026-04-11T14:46:24.124Z</time></trkpt><trkpt lat="44.0768694" lon="11.7253983"><ele>540.0</ele><time>2026-04-11T14:46:25.124Z</time></trkpt><trkpt lat="44.0769886" lon="11.7253829"><ele>540.0</ele><time>2026-04-11T14:46:26.124Z</time></trkpt><trkpt lat="44.0771159" lon="11.7253646"><ele>540.0</ele><time>2026-04-11T14:46:27.124Z</time></trkpt><trkpt lat="44.0772468" lon="11.7253655"><ele>540.0</ele><time>2026-04-11T14:46:28.123Z</time></trkpt><trkpt lat="44.0773819" lon="11.7253773"><ele>540.0</ele><time>2026-04-11T14:46:29.123Z</time></trkpt><trkpt lat="44.0775129" lon="11.7253857"><ele>540.0</ele><time>2026-04-11T14:46:30.124Z</time></trkpt><trkpt lat="44.0776405" lon="11.7253892"><ele>540.0</ele><time>2026-04-11T14:46:31.124Z</time></trkpt><trkpt lat="44.0777569" lon="11.7253936"><ele>540.0</ele><time>2026-04-11T14:46:32.124Z</time></trkpt><trkpt lat="44.0778514" lon="11.7254086"><ele>540.0</ele><time>2026-04-11T14:46:33.125Z</time></trkpt><trkpt lat="44.0779276" lon="11.7254326"><ele>540.0</ele><time>2026-04-11T14:46:34.123Z</time></trkpt><trkpt lat="44.0779869" lon="11.7255512"><ele>540.0</ele><time>2026-04-11T14:46:36.124Z</time></trkpt><trkpt lat="44.077885" lon="11.7256215"><ele>540.0</ele><time>2026-04-11T14:46:38.124Z</time></trkpt><trkpt lat="44.0777878" lon="11.7256412"><ele>540.0</ele><time>2026-04-11T14:46:39.124Z</time></trkpt><trkpt lat="44.0776728" lon="11.7256699"><ele>540.0</ele><time>2026-04-11T14:46:40.123Z</time></trkpt><trkpt lat="44.07753" lon="11.7257169"><ele>540.0</ele><time>2026-04-11T14:46:41.123Z</time></trkpt><trkpt lat="44.0773767" lon="11.7257878"><ele>540.0</ele><time>2026-04-11T14:46:42.123Z</time></trkpt><trkpt lat="44.0772331" lon="11.7258835"><ele>540.0</ele><time>2026-04-11T14:46:43.124Z</time></trkpt><trkpt lat="44.0770977" lon="11.7259958"><ele>532.0</ele><time>2026-04-11T14:46:44.123Z</time></trkpt><trkpt lat="44.076967" lon="11.7261089"><ele>524.0</ele><time>2026-04-11T14:46:45.123Z</time></trkpt><trkpt lat="44.0768304" lon="11.7262096"><ele>516.0</ele><time>2026-04-11T14:46:46.123Z</time></trkpt><trkpt lat="44.076697" lon="11.7263088"><ele>512.75</ele><time>2026-04-11T14:46:47.123Z</time></trkpt><trkpt lat="44.0765786" lon="11.7264216"><ele>509.5</ele><time>2026-04-11T14:46:48.124Z</time></trkpt><trkpt lat="44.0764739" lon="11.7265345"><ele>506.25</ele><time>2026-04-11T14:46:49.124Z</time></trkpt><trkpt lat="44.0763848" lon="11.7266306"><ele>503.0</ele><time>2026-04-11T14:46:50.124Z</time></trkpt><trkpt lat="44.0763018" lon="11.7267027"><ele>503.0</ele><time>2026-04-11T14:46:51.123Z</time></trkpt><trkpt lat="44.076224" lon="11.7267408"><ele>502.99999999999994</ele><time>2026-04-11T14:46:52.124Z</time></trkpt><trkpt lat="44.0761508" lon="11.7267588"><ele>502.99999999999994</ele><time>2026-04-11T14:46:53.123Z</time></trkpt><trkpt lat="44.0760493" lon="11.7266101"><ele>503.0</ele><time>2026-04-11T14:46:55.124Z</time></trkpt><trkpt lat="44.0760168" lon="11.7264419"><ele>503.0</ele><time>2026-04-11T14:46:56.124Z</time></trkpt><trkpt lat="44.0759818" lon="11.7262622"><ele>503.0</ele><time>2026-04-11T14:46:57.122Z</time></trkpt><trkpt lat="44.0759454" lon="11.7261004"><ele>502.99999999999994</ele><time>2026-04-11T14:46:58.123Z</time></trkpt><trkpt lat="44.0759164" lon="11.7259641"><ele>502.99999999999994</ele><time>2026-04-11T14:46:59.124Z</time></trkpt><trkpt lat="44.0758903" lon="11.7258551"><ele>503.0</ele><time>2026-04-11T14:47:00.128Z</time></trkpt><trkpt lat="44.0758605" lon="11.7257658"><ele>503.0</ele><time>2026-04-11T14:47:01.123Z</time></trkpt><trkpt lat="44.0757754" lon="11.7258305"><ele>503.0</ele><time>2026-04-11T14:47:03.123Z</time></trkpt><trkpt lat="44.0757541" lon="11.7259135"><ele>502.99999999999994</ele><time>2026-04-11T14:47:04.124Z</time></trkpt><trkpt lat="44.0757779" lon="11.726046"><ele>502.99999999999994</ele><time>2026-04-11T14:47:05.123Z</time></trkpt><trkpt lat="44.0758103" lon="11.7262008"><ele>503.0</ele><time>2026-04-11T14:47:06.124Z</time></trkpt><trkpt lat="44.075835" lon="11.7263701"><ele>503.0</ele><time>2026-04-11T14:47:07.123Z</time></trkpt><trkpt lat="44.0758463" lon="11.7265514"><ele>503.0</ele><time>2026-04-11T14:47:08.124Z</time></trkpt><trkpt lat="44.0758518" lon="11.7267363"><ele>503.0</ele><time>2026-04-11T14:47:09.124Z</time></trkpt><trkpt lat="44.0758563" lon="11.7269241"><ele>503.0</ele><time>2026-04-11T14:47:10.123Z</time></trkpt><trkpt lat="44.0758608" lon="11.7271095"><ele>503.0</ele><time>2026-04-11T14:47:11.125Z</time></trkpt><trkpt lat="44.0758572" lon="11.7272846"><ele>501.79999999999995</ele><time>2026-04-11T14:47:12.122Z</time></trkpt><trkpt lat="44.0758329" lon="11.7274434"><ele>500.59999999999997</ele><time>2026-04-11T14:47:13.123Z</time></trkpt><trkpt lat="44.0757857" lon="11.7275796"><ele>499.40000000000003</ele><time>2026-04-11T14:47:14.123Z</time></trkpt><trkpt lat="44.0757181" lon="11.7276958"><ele>498.20000000000005</ele><time>2026-04-11T14:47:15.124Z</time></trkpt><trkpt lat="44.075634" lon="11.7277922"><ele>497.0</ele><time>2026-04-11T14:47:16.124Z</time></trkpt><trkpt lat="44.0755467" lon="11.727886"><ele>491.20000000000005</ele><time>2026-04-11T14:47:17.124Z</time></trkpt><trkpt lat="44.0754857" lon="11.7279903"><ele>485.40000000000003</ele><time>2026-04-11T14:47:18.124Z</time></trkpt><trkpt lat="44.0754474" lon="11.7280983"><ele>479.59999999999997</ele><time>2026-04-11T14:47:19.125Z</time></trkpt><trkpt lat="44.0754368" lon="11.7282191"><ele>473.79999999999995</ele><time>2026-04-11T14:47:20.124Z</time></trkpt><trkpt lat="44.0754599" lon="11.7283571"><ele>468.0</ele><time>2026-04-11T14:47:21.124Z</time></trkpt><trkpt lat="44.0754988" lon="11.7284987"><ele>465.4</ele><time>2026-04-11T14:47:22.125Z</time></trkpt><trkpt lat="44.0755533" lon="11.7286483"><ele>462.79999999999995</ele><time>2026-04-11T14:47:23.128Z</time></trkpt><trkpt lat="44.0755933" lon="11.7287717"><ele>460.2</ele><time>2026-04-11T14:47:24.124Z</time></trkpt><trkpt lat="44.0756167" lon="11.72887"><ele>457.6</ele><time>2026-04-11T14:47:25.124Z</time></trkpt><trkpt lat="44.0756017" lon="11.728995"><ele>455.0</ele><time>2026-04-11T14:47:27.124Z</time></trkpt><trkpt lat="44.0755217" lon="11.7288717"><ele>455.0</ele><time>2026-04-11T14:47:30.123Z</time></trkpt><trkpt lat="44.0754717" lon="11.7287533"><ele>455.0</ele><time>2026-04-11T14:47:31.124Z</time></trkpt><trkpt lat="44.075415" lon="11.7286183"><ele>455.0</ele><time>2026-04-11T14:47:32.123Z</time></trkpt><trkpt lat="44.0753417" lon="11.7284867"><ele>455.0</ele><time>2026-04-11T14:47:33.124Z</time></trkpt><trkpt lat="44.07525" lon="11.7283733"><ele>457.6</ele><time>2026-04-11T14:47:34.124Z</time></trkpt><trkpt lat="44.0751633" lon="11.728285"><ele>460.2</ele><time>2026-04-11T14:47:35.122Z</time></trkpt><trkpt lat="44.0750917" lon="11.7282283"><ele>462.79999999999995</ele><time>2026-04-11T14:47:36.126Z</time></trkpt><trkpt lat="44.0749733" lon="11.728185"><ele>465.4</ele><time>2026-04-11T14:47:38.124Z</time></trkpt><trkpt lat="44.07493" lon="11.7282917"><ele>468.0</ele><time>2026-04-11T14:47:40.123Z</time></trkpt><trkpt lat="44.0750083" lon="11.7283983"><ele>468.0</ele><time>2026-04-11T14:47:42.124Z</time></trkpt><trkpt lat="44.07507" lon="11.72848"><ele>467.99999999999994</ele><time>2026-04-11T14:47:43.124Z</time></trkpt><trkpt lat="44.0751333" lon="11.7285817"><ele>467.99999999999994</ele><time>2026-04-11T14:47:44.124Z</time></trkpt><trkpt lat="44.0751633" lon="11.728725"><ele>468.0</ele><time>2026-04-11T14:47:45.124Z</time></trkpt><trkpt lat="44.0751783" lon="11.728895"><ele>468.0</ele><time>2026-04-11T14:47:46.123Z</time></trkpt><trkpt lat="44.0752033" lon="11.7290517"><ele>464.75</ele><time>2026-04-11T14:47:47.124Z</time></trkpt><trkpt lat="44.0752517" lon="11.7292367"><ele>461.5</ele><time>2026-04-11T14:47:48.124Z</time></trkpt><trkpt lat="44.0752983" lon="11.7294033"><ele>458.25</ele><time>2026-04-11T14:47:49.123Z</time></trkpt><trkpt lat="44.0753433" lon="11.7295783"><ele>455.0</ele><time>2026-04-11T14:47:50.123Z</time></trkpt><trkpt lat="44.0753783" lon="11.72974"><ele>451.66666666666663</ele><time>2026-04-11T14:47:51.124Z</time></trkpt><trkpt lat="44.0754033" lon="11.7298867"><ele>448.3333333333333</ele><time>2026-04-11T14:47:52.123Z</time></trkpt><trkpt lat="44.07543" lon="11.730015"><ele>445.0</ele><time>2026-04-11T14:47:53.123Z</time></trkpt><trkpt lat="44.0754783" lon="11.7300967"><ele>441.66666666666663</ele><time>2026-04-11T14:47:54.123Z</time></trkpt><trkpt lat="44.0755383" lon="11.730135"><ele>438.3333333333333</ele><time>2026-04-11T14:47:55.123Z</time></trkpt><trkpt lat="44.0756017" lon="11.7301417"><ele>435.0</ele><time>2026-04-11T14:47:56.122Z</time></trkpt><trkpt lat="44.0756783" lon="11.730105"><ele>435.0</ele><time>2026-04-11T14:47:57.123Z</time></trkpt><trkpt lat="44.0757667" lon="11.73004"><ele>435.0</ele><time>2026-04-11T14:47:58.123Z</time></trkpt><trkpt lat="44.0758583" lon="11.7299667"><ele>435.0</ele><time>2026-04-11T14:47:59.124Z</time></trkpt><trkpt lat="44.0759567" lon="11.7299067"><ele>435.0</ele><time>2026-04-11T14:48:00.123Z</time></trkpt><trkpt lat="44.0760583" lon="11.7298517"><ele>435.0</ele><time>2026-04-11T14:48:01.124Z</time></trkpt><trkpt lat="44.0761633" lon="11.7298217"><ele>435.8</ele><time>2026-04-11T14:48:02.123Z</time></trkpt><trkpt lat="44.07627" lon="11.7298083"><ele>436.6</ele><time>2026-04-11T14:48:03.124Z</time></trkpt><trkpt lat="44.0763733" lon="11.7298033"><ele>437.4</ele><time>2026-04-11T14:48:04.123Z</time></trkpt><trkpt lat="44.0764733" lon="11.7298067"><ele>438.2</ele><time>2026-04-11T14:48:05.122Z</time></trkpt><trkpt lat="44.0765717" lon="11.7298267"><ele>439.0</ele><time>2026-04-11T14:48:06.123Z</time></trkpt><trkpt lat="44.0766633" lon="11.7298483"><ele>439.00000000000006</ele><time>2026-04-11T14:48:07.123Z</time></trkpt><trkpt lat="44.076745" lon="11.7298817"><ele>439.0</ele><time>2026-04-11T14:48:08.124Z</time></trkpt><trkpt lat="44.0767983" lon="11.7299517"><ele>439.0</ele><time>2026-04-11T14:48:09.123Z</time></trkpt><trkpt lat="44.0768233" lon="11.7300417"><ele>439.0</ele><time>2026-04-11T14:48:10.123Z</time></trkpt><trkpt lat="44.0768367" lon="11.7301483"><ele>439.00000000000006</ele><time>2026-04-11T14:48:11.123Z</time></trkpt><trkpt lat="44.0768483" lon="11.7302767"><ele>439.0</ele><time>2026-04-11T14:48:12.124Z</time></trkpt><trkpt lat="44.0768633" lon="11.73042"><ele>434.25</ele><time>2026-04-11T14:48:13.123Z</time></trkpt><trkpt lat="44.0768967" lon="11.7305683"><ele>429.5</ele><time>2026-04-11T14:48:14.124Z</time></trkpt><trkpt lat="44.0769567" lon="11.730715"><ele>424.75</ele><time>2026-04-11T14:48:15.124Z</time></trkpt><trkpt lat="44.077025" lon="11.730865"><ele>420.0</ele><time>2026-04-11T14:48:16.123Z</time></trkpt><trkpt lat="44.0770983" lon="11.7310067"><ele>419.6</ele><time>2026-04-11T14:48:17.123Z</time></trkpt><trkpt lat="44.0771633" lon="11.7311267"><ele>419.2</ele><time>2026-04-11T14:48:18.123Z</time></trkpt><trkpt lat="44.0772167" lon="11.7312317"><ele>418.79999999999995</ele><time>2026-04-11T14:48:19.123Z</time></trkpt><trkpt lat="44.0772483" lon="11.73133"><ele>418.4</ele><time>2026-04-11T14:48:20.124Z</time></trkpt><trkpt lat="44.077245" lon="11.731495"><ele>418.0</ele><time>2026-04-11T14:48:22.123Z</time></trkpt><trkpt lat="44.07716" lon="11.7315367"><ele>418.0</ele><time>2026-04-11T14:48:24.124Z</time></trkpt><trkpt lat="44.0770583" lon="11.7315"><ele>418.0</ele><time>2026-04-11T14:48:25.124Z</time></trkpt><trkpt lat="44.0769483" lon="11.7314533"><ele>418.0</ele><time>2026-04-11T14:48:26.123Z</time></trkpt><trkpt lat="44.076845" lon="11.7314183"><ele>418.0</ele><time>2026-04-11T14:48:27.124Z</time></trkpt><trkpt lat="44.0767367" lon="11.7314083"><ele>418.0</ele><time>2026-04-11T14:48:28.124Z</time></trkpt><trkpt lat="44.0766417" lon="11.73142"><ele>414.4</ele><time>2026-04-11T14:48:29.123Z</time></trkpt><trkpt lat="44.076565" lon="11.7314767"><ele>410.79999999999995</ele><time>2026-04-11T14:48:30.123Z</time></trkpt><trkpt lat="44.07649" lon="11.7315817"><ele>407.2</ele><time>2026-04-11T14:48:31.123Z</time></trkpt><trkpt lat="44.076425" lon="11.731725"><ele>403.6</ele><time>2026-04-11T14:48:32.123Z</time></trkpt><trkpt lat="44.0763683" lon="11.7318783"><ele>400.0</ele><time>2026-04-11T14:48:33.124Z</time></trkpt><trkpt lat="44.0763283" lon="11.7320383"><ele>397.6</ele><time>2026-04-11T14:48:34.122Z</time></trkpt><trkpt lat="44.0763217" lon="11.7321967"><ele>395.2</ele><time>2026-04-11T14:48:35.124Z</time></trkpt><trkpt lat="44.0763367" lon="11.7323567"><ele>392.79999999999995</ele><time>2026-04-11T14:48:36.123Z</time></trkpt><trkpt lat="44.0763633" lon="11.73251"><ele>390.4</ele><time>2026-04-11T14:48:37.124Z</time></trkpt><trkpt lat="44.076395" lon="11.7326417"><ele>388.0</ele><time>2026-04-11T14:48:38.125Z</time></trkpt><trkpt lat="44.076415" lon="11.73277"><ele>387.1666666666667</ele><time>2026-04-11T14:48:39.124Z</time></trkpt><trkpt lat="44.0764067" lon="11.7329033"><ele>386.33333333333337</ele><time>2026-04-11T14:48:40.123Z</time></trkpt><trkpt lat="44.0763783" lon="11.73303"><ele>385.5</ele><time>2026-04-11T14:48:41.125Z</time></trkpt><trkpt lat="44.07634" lon="11.7331383"><ele>384.6666666666667</ele><time>2026-04-11T14:48:42.123Z</time></trkpt><trkpt lat="44.076295" lon="11.73323"><ele>383.83333333333337</ele><time>2026-04-11T14:48:43.123Z</time></trkpt><trkpt lat="44.0762567" lon="11.733305"><ele>383.0</ele><time>2026-04-11T14:48:44.124Z</time></trkpt><trkpt lat="44.0762233" lon="11.7333833"><ele>383.0</ele><time>2026-04-11T14:48:45.124Z</time></trkpt><trkpt lat="44.07619" lon="11.7334717"><ele>383.0</ele><time>2026-04-11T14:48:46.123Z</time></trkpt><trkpt lat="44.0761817" lon="11.7335767"><ele>383.0</ele><time>2026-04-11T14:48:47.122Z</time></trkpt><trkpt lat="44.0761933" lon="11.7336783"><ele>383.0</ele><time>2026-04-11T14:48:48.123Z</time></trkpt><trkpt lat="44.0762267" lon="11.733775"><ele>383.0</ele><time>2026-04-11T14:48:49.124Z</time></trkpt><trkpt lat="44.0762683" lon="11.733875"><ele>383.0</ele><time>2026-04-11T14:48:50.124Z</time></trkpt><trkpt lat="44.0763133" lon="11.733985"><ele>381.5</ele><time>2026-04-11T14:48:51.123Z</time></trkpt><trkpt lat="44.0763583" lon="11.7341"><ele>380.0</ele><time>2026-04-11T14:48:52.123Z</time></trkpt><trkpt lat="44.0763917" lon="11.7342083"><ele>378.5</ele><time>2026-04-11T14:48:53.122Z</time></trkpt><trkpt lat="44.0764117" lon="11.7343233"><ele>377.0</ele><time>2026-04-11T14:48:54.124Z</time></trkpt><trkpt lat="44.0764217" lon="11.7344433"><ele>375.5</ele><time>2026-04-11T14:48:55.123Z</time></trkpt><trkpt lat="44.0764167" lon="11.73457"><ele>374.0</ele><time>2026-04-11T14:48:56.124Z</time></trkpt><trkpt lat="44.0764033" lon="11.7346967"><ele>373.1666666666667</ele><time>2026-04-11T14:48:57.124Z</time></trkpt><trkpt lat="44.0763867" lon="11.7348033"><ele>372.33333333333337</ele><time>2026-04-11T14:48:58.123Z</time></trkpt><trkpt lat="44.0763717" lon="11.73489"><ele>371.5</ele><time>2026-04-11T14:48:59.124Z</time></trkpt><trkpt lat="44.076335" lon="11.735055"><ele>370.6666666666667</ele><time>2026-04-11T14:49:01.124Z</time></trkpt><trkpt lat="44.0763033" lon="11.7351533"><ele>369.8333333333333</ele><time>2026-04-11T14:49:02.124Z</time></trkpt><trkpt lat="44.0762667" lon="11.735255"><ele>369.0</ele><time>2026-04-11T14:49:03.124Z</time></trkpt><trkpt lat="44.076225" lon="11.735355"><ele>368.1666666666667</ele><time>2026-04-11T14:49:04.123Z</time></trkpt><trkpt lat="44.0761817" lon="11.735455"><ele>367.3333333333333</ele><time>2026-04-11T14:49:05.124Z</time></trkpt><trkpt lat="44.0761433" lon="11.7355667"><ele>366.5</ele><time>2026-04-11T14:49:06.123Z</time></trkpt><trkpt lat="44.0761183" lon="11.735685"><ele>365.66666666666663</ele><time>2026-04-11T14:49:07.122Z</time></trkpt><trkpt lat="44.076105" lon="11.735805"><ele>364.8333333333333</ele><time>2026-04-11T14:49:08.123Z</time></trkpt><trkpt lat="44.0761167" lon="11.7359317"><ele>364.0</ele><time>2026-04-11T14:49:09.125Z</time></trkpt><trkpt lat="44.07614" lon="11.736045"><ele>362.3333333333333</ele><time>2026-04-11T14:49:10.124Z</time></trkpt><trkpt lat="44.0761717" lon="11.7361583"><ele>360.66666666666663</ele><time>2026-04-11T14:49:11.123Z</time></trkpt><trkpt lat="44.0761967" lon="11.73628"><ele>359.0</ele><time>2026-04-11T14:49:12.123Z</time></trkpt><trkpt lat="44.076225" lon="11.7363967"><ele>357.3333333333333</ele><time>2026-04-11T14:49:13.124Z</time></trkpt><trkpt lat="44.076255" lon="11.7365133"><ele>355.6666666666667</ele><time>2026-04-11T14:49:14.123Z</time></trkpt><trkpt lat="44.0762883" lon="11.7366333"><ele>354.0</ele><time>2026-04-11T14:49:15.124Z</time></trkpt><trkpt lat="44.0763183" lon="11.7367483"><ele>354.0</ele><time>2026-04-11T14:49:16.123Z</time></trkpt><trkpt lat="44.0763433" lon="11.736865"><ele>354.0</ele><time>2026-04-11T14:49:17.123Z</time></trkpt><trkpt lat="44.0763667" lon="11.7369733"><ele>354.0</ele><time>2026-04-11T14:49:18.124Z</time></trkpt><trkpt lat="44.0763833" lon="11.7370733"><ele>354.0</ele><time>2026-04-11T14:49:19.123Z</time></trkpt><trkpt lat="44.0763983" lon="11.7371683"><ele>354.0</ele><time>2026-04-11T14:49:20.122Z</time></trkpt><trkpt lat="44.0764167" lon="11.7372683"><ele>354.0</ele><time>2026-04-11T14:49:21.124Z</time></trkpt><trkpt lat="44.07644" lon="11.737375"><ele>353.2</ele><time>2026-04-11T14:49:22.123Z</time></trkpt><trkpt lat="44.0764733" lon="11.7374833"><ele>352.4</ele><time>2026-04-11T14:49:23.124Z</time></trkpt><trkpt lat="44.0765183" lon="11.7375967"><ele>351.6</ele><time>2026-04-11T14:49:24.124Z</time></trkpt><trkpt lat="44.076575" lon="11.737705"><ele>350.8</ele><time>2026-04-11T14:49:25.122Z</time></trkpt><trkpt lat="44.0766383" lon="11.737805"><ele>350.0</ele><time>2026-04-11T14:49:26.123Z</time></trkpt><trkpt lat="44.0767083" lon="11.7378967"><ele>350.0</ele><time>2026-04-11T14:49:27.124Z</time></trkpt><trkpt lat="44.07677" lon="11.73798"><ele>350.0</ele><time>2026-04-11T14:49:28.122Z</time></trkpt><trkpt lat="44.0768117" lon="11.7380467"><ele>350.0</ele><time>2026-04-11T14:49:29.123Z</time></trkpt><trkpt lat="44.0768417" lon="11.73815"><ele>350.0</ele><time>2026-04-11T14:49:31.124Z</time></trkpt><trkpt lat="44.076835" lon="11.7382517"><ele>350.0</ele><time>2026-04-11T14:49:33.124Z</time></trkpt><trkpt lat="44.076765" lon="11.7383283"><ele>350.0</ele><time>2026-04-11T14:49:35.123Z</time></trkpt><trkpt lat="44.076685" lon="11.7383617"><ele>348.8</ele><time>2026-04-11T14:49:37.124Z</time></trkpt><trkpt lat="44.0766" lon="11.7383817"><ele>347.6</ele><time>2026-04-11T14:49:39.124Z</time></trkpt><trkpt lat="44.0765117" lon="11.7384317"><ele>346.4</ele><time>2026-04-11T14:49:41.123Z</time></trkpt><trkpt lat="44.0764333" lon="11.738535"><ele>345.2</ele><time>2026-04-11T14:49:43.125Z</time></trkpt><trkpt lat="44.0763983" lon="11.7386283"><ele>344.0</ele><time>2026-04-11T14:49:45.123Z</time></trkpt><trkpt lat="44.07638" lon="11.7387433"><ele>344.0</ele><time>2026-04-11T14:49:47.125Z</time></trkpt><trkpt lat="44.0764417" lon="11.738885"><ele>344.0</ele><time>2026-04-11T14:49:49.123Z</time></trkpt><trkpt lat="44.0764917" lon="11.7389633"><ele>344.0</ele><time>2026-04-11T14:49:50.123Z</time></trkpt><trkpt lat="44.076545" lon="11.739045"><ele>344.0</ele><time>2026-04-11T14:49:51.124Z</time></trkpt><trkpt lat="44.0766017" lon="11.73913"><ele>344.0</ele><time>2026-04-11T14:49:52.123Z</time></trkpt><trkpt lat="44.0766633" lon="11.739225"><ele>344.0</ele><time>2026-04-11T14:49:53.124Z</time></trkpt><trkpt lat="44.0767317" lon="11.7393233"><ele>343.79999999999995</ele><time>2026-04-11T14:49:54.123Z</time></trkpt><trkpt lat="44.0768067" lon="11.739425"><ele>343.59999999999997</ele><time>2026-04-11T14:49:55.123Z</time></trkpt><trkpt lat="44.0768817" lon="11.7395283"><ele>343.4</ele><time>2026-04-11T14:49:56.123Z</time></trkpt><trkpt lat="44.0769517" lon="11.7396267"><ele>343.2</ele><time>2026-04-11T14:49:57.123Z</time></trkpt><trkpt lat="44.077015" lon="11.7397217"><ele>343.0</ele><time>2026-04-11T14:49:58.123Z</time></trkpt><trkpt lat="44.0770817" lon="11.73982"><ele>343.0</ele><time>2026-04-11T14:49:59.123Z</time></trkpt><trkpt lat="44.0771483" lon="11.7399183"><ele>343.0</ele><time>2026-04-11T14:50:00.123Z</time></trkpt><trkpt lat="44.0772167" lon="11.740015"><ele>343.0</ele><time>2026-04-11T14:50:01.122Z</time></trkpt><trkpt lat="44.0772867" lon="11.7401117"><ele>343.0</ele><time>2026-04-11T14:50:02.123Z</time></trkpt><trkpt lat="44.0773583" lon="11.7402117"><ele>343.0</ele><time>2026-04-11T14:50:03.124Z</time></trkpt><trkpt lat="44.07743" lon="11.7403133"><ele>342.0</ele><time>2026-04-11T14:50:04.124Z</time></trkpt><trkpt lat="44.0775017" lon="11.740435"><ele>341.0</ele><time>2026-04-11T14:50:05.124Z</time></trkpt><trkpt lat="44.0775883" lon="11.74056"><ele>340.0</ele><time>2026-04-11T14:50:06.124Z</time></trkpt><trkpt lat="44.0776817" lon="11.7406883"><ele>339.0</ele><time>2026-04-11T14:50:07.123Z</time></trkpt><trkpt lat="44.0777783" lon="11.7408217"><ele>339.0</ele><time>2026-04-11T14:50:08.123Z</time></trkpt><trkpt lat="44.0778817" lon="11.7409617"><ele>339.0</ele><time>2026-04-11T14:50:09.123Z</time></trkpt><trkpt lat="44.0779883" lon="11.74111"><ele>339.0</ele><time>2026-04-11T14:50:10.124Z</time></trkpt><trkpt lat="44.0780933" lon="11.7412583"><ele>339.0</ele><time>2026-04-11T14:50:11.123Z</time></trkpt><trkpt lat="44.0781883" lon="11.7413917"><ele>339.25</ele><time>2026-04-11T14:50:12.124Z</time></trkpt><trkpt lat="44.0782733" lon="11.7415217"><ele>339.5</ele><time>2026-04-11T14:50:13.123Z</time></trkpt><trkpt lat="44.0783617" lon="11.741655"><ele>339.75</ele><time>2026-04-11T14:50:14.124Z</time></trkpt><trkpt lat="44.0784533" lon="11.741785"><ele>340.0</ele><time>2026-04-11T14:50:15.124Z</time></trkpt><trkpt lat="44.07854" lon="11.7419117"><ele>339.2</ele><time>2026-04-11T14:50:16.124Z</time></trkpt><trkpt lat="44.0786233" lon="11.74203"><ele>338.4</ele><time>2026-04-11T14:50:17.124Z</time></trkpt><trkpt lat="44.078695" lon="11.742145"><ele>337.6</ele><time>2026-04-11T14:50:18.123Z</time></trkpt><trkpt lat="44.07875" lon="11.742265"><ele>336.8</ele><time>2026-04-11T14:50:19.126Z</time></trkpt><trkpt lat="44.078795" lon="11.742385"><ele>336.0</ele><time>2026-04-11T14:50:20.123Z</time></trkpt><trkpt lat="44.0788333" lon="11.7425017"><ele>336.0</ele><time>2026-04-11T14:50:21.124Z</time></trkpt><trkpt lat="44.0788733" lon="11.7426183"><ele>336.0</ele><time>2026-04-11T14:50:22.124Z</time></trkpt><trkpt lat="44.0789083" lon="11.7427333"><ele>336.0</ele><time>2026-04-11T14:50:23.123Z</time></trkpt><trkpt lat="44.0789367" lon="11.7428433"><ele>336.0</ele><time>2026-04-11T14:50:24.123Z</time></trkpt><trkpt lat="44.078965" lon="11.742925"><ele>336.0</ele><time>2026-04-11T14:50:25.123Z</time></trkpt><trkpt lat="44.0790017" lon="11.74305"><ele>336.0</ele><time>2026-04-11T14:50:27.123Z</time></trkpt><trkpt lat="44.0790417" lon="11.7431617"><ele>336.0</ele><time>2026-04-11T14:50:29.122Z</time></trkpt><trkpt lat="44.07908" lon="11.743285"><ele>336.0</ele><time>2026-04-11T14:50:31.122Z</time></trkpt><trkpt lat="44.0791267" lon="11.7434133"><ele>336.0</ele><time>2026-04-11T14:50:33.123Z</time></trkpt><trkpt lat="44.0791617" lon="11.7435383"><ele>336.0</ele><time>2026-04-11T14:50:35.122Z</time></trkpt><trkpt lat="44.0791833" lon="11.7436417"><ele>336.0</ele><time>2026-04-11T14:50:37.123Z</time></trkpt><trkpt lat="44.07917" lon="11.7437383"><ele>336.0</ele><time>2026-04-11T14:50:39.124Z</time></trkpt><trkpt lat="44.0791133" lon="11.7438067"><ele>336.4</ele><time>2026-04-11T14:50:41.124Z</time></trkpt><trkpt lat="44.07903" lon="11.7438383"><ele>336.8</ele><time>2026-04-11T14:50:44.124Z</time></trkpt><trkpt lat="44.0789417" lon="11.7438633"><ele>337.2</ele><time>2026-04-11T14:50:47.124Z</time></trkpt><trkpt lat="44.078855" lon="11.7438567"><ele>337.59999999999997</ele><time>2026-04-11T14:50:50.124Z</time></trkpt><trkpt lat="44.0787833" lon="11.7438517"><ele>338.0</ele><time>2026-04-11T14:50:53.124Z</time></trkpt><trkpt lat="44.0786583" lon="11.7439267"><ele>338.0</ele><time>2026-04-11T14:51:31.124Z</time></trkpt><trkpt lat="44.0786233" lon="11.7440483"><ele>338.0</ele><time>2026-04-11T14:52:24.125Z</time></trkpt><trkpt lat="44.0787217" lon="11.7440267"><ele>338.0</ele><time>2026-04-11T14:52:26.124Z</time></trkpt><trkpt lat="44.078815" lon="11.7439967"><ele>338.0</ele><time>2026-04-11T14:52:27.125Z</time></trkpt><trkpt lat="44.0789283" lon="11.743965"><ele>338.0</ele><time>2026-04-11T14:52:28.124Z</time></trkpt><trkpt lat="44.0790233" lon="11.7439517"><ele>337.2</ele><time>2026-04-11T14:52:29.125Z</time></trkpt><trkpt lat="44.0791067" lon="11.743925"><ele>336.4</ele><time>2026-04-11T14:52:30.127Z</time></trkpt><trkpt lat="44.0792167" lon="11.7439033"><ele>335.59999999999997</ele><time>2026-04-11T14:52:32.123Z</time></trkpt><trkpt lat="44.0793283" lon="11.7439283"><ele>334.79999999999995</ele><time>2026-04-11T14:52:34.124Z</time></trkpt><trkpt lat="44.0793967" lon="11.7439583"><ele>334.0</ele><time>2026-04-11T14:52:35.124Z</time></trkpt><trkpt lat="44.0794683" lon="11.7439983"><ele>334.0</ele><time>2026-04-11T14:52:36.125Z</time></trkpt><trkpt lat="44.0795417" lon="11.7440483"><ele>334.0</ele><time>2026-04-11T14:52:37.124Z</time></trkpt><trkpt lat="44.0796217" lon="11.7441033"><ele>334.0</ele><time>2026-04-11T14:52:38.124Z</time></trkpt><trkpt lat="44.0797067" lon="11.744155"><ele>334.0</ele><time>2026-04-11T14:52:39.125Z</time></trkpt><trkpt lat="44.0797933" lon="11.74421"><ele>334.0</ele><time>2026-04-11T14:52:40.124Z</time></trkpt><trkpt lat="44.0798833" lon="11.7442633"><ele>333.6</ele><time>2026-04-11T14:52:41.124Z</time></trkpt><trkpt lat="44.079975" lon="11.7443167"><ele>333.2</ele><time>2026-04-11T14:52:42.127Z</time></trkpt><trkpt lat="44.08007" lon="11.7443683"><ele>332.8</ele><time>2026-04-11T14:52:43.124Z</time></trkpt><trkpt lat="44.0801683" lon="11.7444217"><ele>332.40000000000003</ele><time>2026-04-11T14:52:44.123Z</time></trkpt><trkpt lat="44.0802683" lon="11.744485"><ele>332.0</ele><time>2026-04-11T14:52:45.124Z</time></trkpt><trkpt lat="44.0803683" lon="11.7445433"><ele>331.8</ele><time>2026-04-11T14:52:46.124Z</time></trkpt><trkpt lat="44.080465" lon="11.7445967"><ele>331.6</ele><time>2026-04-11T14:52:47.124Z</time></trkpt><trkpt lat="44.08056" lon="11.7446483"><ele>331.40000000000003</ele><time>2026-04-11T14:52:48.124Z</time></trkpt><trkpt lat="44.0806583" lon="11.744705"><ele>331.20000000000005</ele><time>2026-04-11T14:52:49.127Z</time></trkpt><trkpt lat="44.08076" lon="11.744765"><ele>331.0</ele><time>2026-04-11T14:52:50.126Z</time></trkpt><trkpt lat="44.0808667" lon="11.7448267"><ele>331.0</ele><time>2026-04-11T14:52:51.126Z</time></trkpt><trkpt lat="44.080975" lon="11.7448917"><ele>331.0</ele><time>2026-04-11T14:52:52.125Z</time></trkpt><trkpt lat="44.081085" lon="11.74496"><ele>331.0</ele><time>2026-04-11T14:52:53.125Z</time></trkpt><trkpt lat="44.0812" lon="11.7450267"><ele>331.0</ele><time>2026-04-11T14:52:54.125Z</time></trkpt><trkpt lat="44.0813183" lon="11.7450883"><ele>331.0</ele><time>2026-04-11T14:52:55.125Z</time></trkpt><trkpt lat="44.0814417" lon="11.7451417"><ele>331.0</ele><time>2026-04-11T14:52:56.126Z</time></trkpt><trkpt lat="44.0815733" lon="11.7451867"><ele>331.0</ele><time>2026-04-11T14:52:57.125Z</time></trkpt><trkpt lat="44.0817067" lon="11.7452217"><ele>331.0</ele><time>2026-04-11T14:52:58.125Z</time></trkpt><trkpt lat="44.081845" lon="11.7452483"><ele>330.5</ele><time>2026-04-11T14:52:59.124Z</time></trkpt><trkpt lat="44.0819867" lon="11.7452717"><ele>330.0</ele><time>2026-04-11T14:53:00.125Z</time></trkpt><trkpt lat="44.082125" lon="11.7452983"><ele>329.5</ele><time>2026-04-11T14:53:01.124Z</time></trkpt><trkpt lat="44.0822667" lon="11.7453167"><ele>329.0</ele><time>2026-04-11T14:53:02.124Z</time></trkpt><trkpt lat="44.0824033" lon="11.74534"><ele>328.5</ele><time>2026-04-11T14:53:03.124Z</time></trkpt><trkpt lat="44.08254" lon="11.745365"><ele>328.0</ele><time>2026-04-11T14:53:04.124Z</time></trkpt><trkpt lat="44.0826817" lon="11.7453883"><ele>327.5</ele><time>2026-04-11T14:53:05.124Z</time></trkpt><trkpt lat="44.0828267" lon="11.7454067"><ele>327.0</ele><time>2026-04-11T14:53:06.124Z</time></trkpt><trkpt lat="44.082975" lon="11.7454267"><ele>327.0</ele><time>2026-04-11T14:53:07.124Z</time></trkpt><trkpt lat="44.0831267" lon="11.74546"><ele>327.0</ele><time>2026-04-11T14:53:08.124Z</time></trkpt><trkpt lat="44.08328" lon="11.7455033"><ele>327.0</ele><time>2026-04-11T14:53:09.124Z</time></trkpt><trkpt lat="44.0834367" lon="11.7455633"><ele>326.0</ele><time>2026-04-11T14:53:10.124Z</time></trkpt><trkpt lat="44.0835883" lon="11.7456433"><ele>325.0</ele><time>2026-04-11T14:53:11.124Z</time></trkpt><trkpt lat="44.0837433" lon="11.7457367"><ele>324.0</ele><time>2026-04-11T14:53:12.125Z</time></trkpt><trkpt lat="44.0838917" lon="11.7458383"><ele>324.0</ele><time>2026-04-11T14:53:13.123Z</time></trkpt><trkpt lat="44.0840433" lon="11.7459383"><ele>324.0</ele><time>2026-04-11T14:53:14.123Z</time></trkpt><trkpt lat="44.0841917" lon="11.7460433"><ele>324.0</ele><time>2026-04-11T14:53:15.124Z</time></trkpt><trkpt lat="44.0843417" lon="11.746145"><ele>323.6666666666667</ele><time>2026-04-11T14:53:16.124Z</time></trkpt><trkpt lat="44.0844933" lon="11.7462433"><ele>323.33333333333337</ele><time>2026-04-11T14:53:17.124Z</time></trkpt><trkpt lat="44.0846383" lon="11.7463433"><ele>323.0</ele><time>2026-04-11T14:53:18.123Z</time></trkpt><trkpt lat="44.084785" lon="11.7464317"><ele>322.0</ele><time>2026-04-11T14:53:19.124Z</time></trkpt><trkpt lat="44.0849317" lon="11.746505"><ele>321.0</ele><time>2026-04-11T14:53:20.124Z</time></trkpt><trkpt lat="44.0850817" lon="11.7465583"><ele>320.0</ele><time>2026-04-11T14:53:21.127Z</time></trkpt><trkpt lat="44.08524" lon="11.7465767"><ele>320.0</ele><time>2026-04-11T14:53:22.125Z</time></trkpt><trkpt lat="44.0854017" lon="11.7465567"><ele>320.0</ele><time>2026-04-11T14:53:23.125Z</time></trkpt><trkpt lat="44.0855667" lon="11.7465083"><ele>320.0</ele><time>2026-04-11T14:53:24.126Z</time></trkpt><trkpt lat="44.0857333" lon="11.7464383"><ele>319.0</ele><time>2026-04-11T14:53:25.124Z</time></trkpt><trkpt lat="44.0859017" lon="11.7463567"><ele>318.0</ele><time>2026-04-11T14:53:26.124Z</time></trkpt><trkpt lat="44.08607" lon="11.746275"><ele>317.0</ele><time>2026-04-11T14:53:27.124Z</time></trkpt><trkpt lat="44.0862317" lon="11.7461967"><ele>317.0</ele><time>2026-04-11T14:53:28.124Z</time></trkpt><trkpt lat="44.086385" lon="11.7461267"><ele>317.0</ele><time>2026-04-11T14:53:29.124Z</time></trkpt><trkpt lat="44.0865233" lon="11.74608"><ele>317.0</ele><time>2026-04-11T14:53:30.124Z</time></trkpt><trkpt lat="44.0866517" lon="11.7460783"><ele>317.0</ele><time>2026-04-11T14:53:31.123Z</time></trkpt><trkpt lat="44.0867733" lon="11.74613"><ele>316.0</ele><time>2026-04-11T14:53:32.124Z</time></trkpt><trkpt lat="44.0868817" lon="11.7462333"><ele>315.0</ele><time>2026-04-11T14:53:33.124Z</time></trkpt><trkpt lat="44.0869717" lon="11.7463833"><ele>314.0</ele><time>2026-04-11T14:53:34.124Z</time></trkpt><trkpt lat="44.0870533" lon="11.7465567"><ele>313.0</ele><time>2026-04-11T14:53:35.124Z</time></trkpt><trkpt lat="44.0871317" lon="11.7467333"><ele>313.3333333333333</ele><time>2026-04-11T14:53:36.124Z</time></trkpt><trkpt lat="44.0872117" lon="11.7469133"><ele>313.6666666666667</ele><time>2026-04-11T14:53:37.124Z</time></trkpt><trkpt lat="44.0872933" lon="11.7470933"><ele>314.0</ele><time>2026-04-11T14:53:38.124Z</time></trkpt><trkpt lat="44.0873783" lon="11.747275"><ele>314.33333333333337</ele><time>2026-04-11T14:53:39.124Z</time></trkpt><trkpt lat="44.0874633" lon="11.74746"><ele>314.6666666666667</ele><time>2026-04-11T14:53:40.123Z</time></trkpt><trkpt lat="44.08755" lon="11.7476467"><ele>315.0</ele><time>2026-04-11T14:53:41.124Z</time></trkpt><trkpt lat="44.0876383" lon="11.7478333"><ele>315.0</ele><time>2026-04-11T14:53:42.124Z</time></trkpt><trkpt lat="44.0877267" lon="11.74802"><ele>315.0</ele><time>2026-04-11T14:53:43.123Z</time></trkpt><trkpt lat="44.0878167" lon="11.748205"><ele>315.0</ele><time>2026-04-11T14:53:44.123Z</time></trkpt><trkpt lat="44.0879083" lon="11.74839"><ele>319.0</ele><time>2026-04-11T14:53:45.124Z</time></trkpt><trkpt lat="44.0880067" lon="11.7485683"><ele>323.0</ele><time>2026-04-11T14:53:46.124Z</time></trkpt><trkpt lat="44.08812" lon="11.7487267"><ele>327.0</ele><time>2026-04-11T14:53:47.123Z</time></trkpt><trkpt lat="44.0882467" lon="11.7488733"><ele>321.6666666666667</ele><time>2026-04-11T14:53:48.124Z</time></trkpt><trkpt lat="44.0883817" lon="11.74901"><ele>316.33333333333337</ele><time>2026-04-11T14:53:49.124Z</time></trkpt><trkpt lat="44.0885233" lon="11.7491383"><ele>311.0</ele><time>2026-04-11T14:53:50.125Z</time></trkpt><trkpt lat="44.0886683" lon="11.7492683"><ele>310.6666666666667</ele><time>2026-04-11T14:53:51.125Z</time></trkpt><trkpt lat="44.088815" lon="11.7494"><ele>310.3333333333333</ele><time>2026-04-11T14:53:52.127Z</time></trkpt><trkpt lat="44.0889633" lon="11.749535"><ele>310.0</ele><time>2026-04-11T14:53:53.125Z</time></trkpt><trkpt lat="44.0891167" lon="11.7496717"><ele>310.0</ele><time>2026-04-11T14:53:54.124Z</time></trkpt><trkpt lat="44.0892717" lon="11.7498083"><ele>310.0</ele><time>2026-04-11T14:53:55.123Z</time></trkpt><trkpt lat="44.08943" lon="11.74995"><ele>310.0</ele><time>2026-04-11T14:53:56.124Z</time></trkpt><trkpt lat="44.08959" lon="11.7500933"><ele>311.3333333333333</ele><time>2026-04-11T14:53:57.124Z</time></trkpt><trkpt lat="44.0897517" lon="11.750235"><ele>312.6666666666667</ele><time>2026-04-11T14:53:58.124Z</time></trkpt><trkpt lat="44.0899183" lon="11.7503817"><ele>314.0</ele><time>2026-04-11T14:53:59.124Z</time></trkpt><trkpt lat="44.0900867" lon="11.75053"><ele>311.33333333333337</ele><time>2026-04-11T14:54:00.124Z</time></trkpt><trkpt lat="44.0902567" lon="11.7506783"><ele>308.6666666666667</ele><time>2026-04-11T14:54:01.124Z</time></trkpt><trkpt lat="44.0904283" lon="11.7508267"><ele>306.0</ele><time>2026-04-11T14:54:02.125Z</time></trkpt><trkpt lat="44.0906033" lon="11.7509783"><ele>305.6666666666667</ele><time>2026-04-11T14:54:03.124Z</time></trkpt><trkpt lat="44.090775" lon="11.7511333"><ele>305.33333333333337</ele><time>2026-04-11T14:54:04.124Z</time></trkpt><trkpt lat="44.0909333" lon="11.7512917"><ele>305.0</ele><time>2026-04-11T14:54:05.124Z</time></trkpt><trkpt lat="44.091075" lon="11.751455"><ele>305.0</ele><time>2026-04-11T14:54:06.124Z</time></trkpt><trkpt lat="44.091205" lon="11.7516233"><ele>305.0</ele><time>2026-04-11T14:54:07.123Z</time></trkpt><trkpt lat="44.091325" lon="11.7518017"><ele>305.0</ele><time>2026-04-11T14:54:08.124Z</time></trkpt><trkpt lat="44.09144" lon="11.7519883"><ele>304.33333333333337</ele><time>2026-04-11T14:54:09.124Z</time></trkpt><trkpt lat="44.091555" lon="11.7521767"><ele>303.6666666666667</ele><time>2026-04-11T14:54:10.124Z</time></trkpt><trkpt lat="44.0916717" lon="11.75236"><ele>303.0</ele><time>2026-04-11T14:54:11.124Z</time></trkpt><trkpt lat="44.0918" lon="11.75253"><ele>303.6666666666667</ele><time>2026-04-11T14:54:12.124Z</time></trkpt><trkpt lat="44.0919383" lon="11.7526867"><ele>304.33333333333337</ele><time>2026-04-11T14:54:13.124Z</time></trkpt><trkpt lat="44.0920867" lon="11.7528367"><ele>305.0</ele><time>2026-04-11T14:54:14.124Z</time></trkpt><trkpt lat="44.09224" lon="11.7529783"><ele>305.0</ele><time>2026-04-11T14:54:15.127Z</time></trkpt><trkpt lat="44.0923883" lon="11.7531333"><ele>305.0</ele><time>2026-04-11T14:54:16.124Z</time></trkpt><trkpt lat="44.0925283" lon="11.7533117"><ele>305.0</ele><time>2026-04-11T14:54:17.124Z</time></trkpt><trkpt lat="44.092655" lon="11.75352"><ele>304.6666666666667</ele><time>2026-04-11T14:54:18.123Z</time></trkpt><trkpt lat="44.0927717" lon="11.7537417"><ele>304.3333333333333</ele><time>2026-04-11T14:54:19.124Z</time></trkpt><trkpt lat="44.0928867" lon="11.753965"><ele>304.0</ele><time>2026-04-11T14:54:20.124Z</time></trkpt><trkpt lat="44.093" lon="11.7541867"><ele>302.66666666666663</ele><time>2026-04-11T14:54:21.124Z</time></trkpt><trkpt lat="44.0931117" lon="11.7543967"><ele>301.3333333333333</ele><time>2026-04-11T14:54:22.125Z</time></trkpt><trkpt lat="44.09322" lon="11.7545967"><ele>300.0</ele><time>2026-04-11T14:54:23.124Z</time></trkpt><trkpt lat="44.09333" lon="11.7547867"><ele>301.3333333333333</ele><time>2026-04-11T14:54:24.125Z</time></trkpt><trkpt lat="44.0934517" lon="11.754965"><ele>302.66666666666663</ele><time>2026-04-11T14:54:25.124Z</time></trkpt><trkpt lat="44.0935883" lon="11.7551283"><ele>304.0</ele><time>2026-04-11T14:54:26.124Z</time></trkpt><trkpt lat="44.09373" lon="11.75529"><ele>304.0</ele><time>2026-04-11T14:54:27.124Z</time></trkpt><trkpt lat="44.093875" lon="11.75545"><ele>304.0</ele><time>2026-04-11T14:54:28.124Z</time></trkpt><trkpt lat="44.0940217" lon="11.7556067"><ele>304.0</ele><time>2026-04-11T14:54:29.124Z</time></trkpt><trkpt lat="44.0941683" lon="11.7557683"><ele>304.3333333333333</ele><time>2026-04-11T14:54:30.124Z</time></trkpt><trkpt lat="44.0943217" lon="11.7559217"><ele>304.6666666666667</ele><time>2026-04-11T14:54:31.123Z</time></trkpt><trkpt lat="44.09448" lon="11.756075"><ele>305.0</ele><time>2026-04-11T14:54:32.123Z</time></trkpt><trkpt lat="44.0946433" lon="11.7562183"><ele>305.0</ele><time>2026-04-11T14:54:33.125Z</time></trkpt><trkpt lat="44.0948133" lon="11.7563567"><ele>305.0</ele><time>2026-04-11T14:54:34.124Z</time></trkpt><trkpt lat="44.0949867" lon="11.7564883"><ele>305.0</ele><time>2026-04-11T14:54:35.125Z</time></trkpt><trkpt lat="44.0951567" lon="11.7566217"><ele>304.0</ele><time>2026-04-11T14:54:36.124Z</time></trkpt><trkpt lat="44.095315" lon="11.7567683"><ele>303.0</ele><time>2026-04-11T14:54:37.124Z</time></trkpt><trkpt lat="44.09546" lon="11.756935"><ele>302.0</ele><time>2026-04-11T14:54:38.124Z</time></trkpt><trkpt lat="44.0955983" lon="11.7571117"><ele>302.0</ele><time>2026-04-11T14:54:39.124Z</time></trkpt><trkpt lat="44.0957383" lon="11.75728"><ele>302.0</ele><time>2026-04-11T14:54:40.123Z</time></trkpt><trkpt lat="44.095885" lon="11.7574383"><ele>302.0</ele><time>2026-04-11T14:54:41.124Z</time></trkpt><trkpt lat="44.0960383" lon="11.7575883"><ele>301.33333333333337</ele><time>2026-04-11T14:54:42.124Z</time></trkpt><trkpt lat="44.0961983" lon="11.7577333"><ele>300.6666666666667</ele><time>2026-04-11T14:54:43.123Z</time></trkpt><trkpt lat="44.0963617" lon="11.7578767"><ele>300.0</ele><time>2026-04-11T14:54:44.124Z</time></trkpt><trkpt lat="44.0965283" lon="11.7580267"><ele>303.0</ele><time>2026-04-11T14:54:45.125Z</time></trkpt><trkpt lat="44.096695" lon="11.7581833"><ele>306.0</ele><time>2026-04-11T14:54:46.124Z</time></trkpt><trkpt lat="44.0968683" lon="11.7583333"><ele>309.0</ele><time>2026-04-11T14:54:47.124Z</time></trkpt><trkpt lat="44.0970483" lon="11.7584783"><ele>305.6666666666667</ele><time>2026-04-11T14:54:48.124Z</time></trkpt><trkpt lat="44.0972333" lon="11.7586233"><ele>302.33333333333337</ele><time>2026-04-11T14:54:49.124Z</time></trkpt><trkpt lat="44.09742" lon="11.75877"><ele>299.0</ele><time>2026-04-11T14:54:50.124Z</time></trkpt><trkpt lat="44.097605" lon="11.7589183"><ele>299.0</ele><time>2026-04-11T14:54:51.124Z</time></trkpt><trkpt lat="44.0977883" lon="11.75908"><ele>299.0</ele><time>2026-04-11T14:54:52.124Z</time></trkpt><trkpt lat="44.0979667" lon="11.7592533"><ele>299.0</ele><time>2026-04-11T14:54:53.125Z</time></trkpt><trkpt lat="44.0981417" lon="11.7594267"><ele>297.6666666666667</ele><time>2026-04-11T14:54:54.123Z</time></trkpt><trkpt lat="44.0983167" lon="11.7595967"><ele>296.3333333333333</ele><time>2026-04-11T14:54:55.124Z</time></trkpt><trkpt lat="44.0984917" lon="11.7597617"><ele>295.0</ele><time>2026-04-11T14:54:56.123Z</time></trkpt><trkpt lat="44.0986633" lon="11.7599283"><ele>295.0</ele><time>2026-04-11T14:54:57.124Z</time></trkpt><trkpt lat="44.0988333" lon="11.7600917"><ele>295.0</ele><time>2026-04-11T14:54:58.124Z</time></trkpt><trkpt lat="44.0990033" lon="11.760245"><ele>295.0</ele><time>2026-04-11T14:54:59.124Z</time></trkpt><trkpt lat="44.0991783" lon="11.7603783"><ele>294.66666666666663</ele><time>2026-04-11T14:55:00.124Z</time></trkpt><trkpt lat="44.0993583" lon="11.76048"><ele>294.3333333333333</ele><time>2026-04-11T14:55:01.123Z</time></trkpt><trkpt lat="44.0995467" lon="11.7605517"><ele>294.0</ele><time>2026-04-11T14:55:02.124Z</time></trkpt><trkpt lat="44.0997417" lon="11.7605917"><ele>295.3333333333333</ele><time>2026-04-11T14:55:03.124Z</time></trkpt><trkpt lat="44.0999417" lon="11.76062"><ele>296.66666666666663</ele><time>2026-04-11T14:55:04.124Z</time></trkpt><trkpt lat="44.100145" lon="11.7606417"><ele>298.0</ele><time>2026-04-11T14:55:05.124Z</time></trkpt><trkpt lat="44.10035" lon="11.760665"><ele>298.0</ele><time>2026-04-11T14:55:06.124Z</time></trkpt><trkpt lat="44.10056" lon="11.7606933"><ele>298.0</ele><time>2026-04-11T14:55:07.124Z</time></trkpt><trkpt lat="44.1007733" lon="11.7607267"><ele>298.0</ele><time>2026-04-11T14:55:08.123Z</time></trkpt><trkpt lat="44.100985" lon="11.7607883"><ele>298.3333333333333</ele><time>2026-04-11T14:55:09.125Z</time></trkpt><trkpt lat="44.1011933" lon="11.7608733"><ele>298.6666666666667</ele><time>2026-04-11T14:55:10.124Z</time></trkpt><trkpt lat="44.1013983" lon="11.7609733"><ele>299.0</ele><time>2026-04-11T14:55:11.124Z</time></trkpt><trkpt lat="44.1016033" lon="11.7610783"><ele>295.0</ele><time>2026-04-11T14:55:12.122Z</time></trkpt><trkpt lat="44.1018067" lon="11.7611883"><ele>291.0</ele><time>2026-04-11T14:55:13.123Z</time></trkpt><trkpt lat="44.102" lon="11.76132"><ele>287.0</ele><time>2026-04-11T14:55:14.123Z</time></trkpt><trkpt lat="44.1021817" lon="11.761485"><ele>287.0</ele><time>2026-04-11T14:55:15.124Z</time></trkpt><trkpt lat="44.10235" lon="11.761665"><ele>287.0</ele><time>2026-04-11T14:55:16.123Z</time></trkpt><trkpt lat="44.1025083" lon="11.7618533"><ele>287.0</ele><time>2026-04-11T14:55:17.125Z</time></trkpt><trkpt lat="44.102655" lon="11.7620367"><ele>286.33333333333337</ele><time>2026-04-11T14:55:18.124Z</time></trkpt><trkpt lat="44.1027817" lon="11.7622317"><ele>285.6666666666667</ele><time>2026-04-11T14:55:19.124Z</time></trkpt><trkpt lat="44.10289" lon="11.76243"><ele>285.0</ele><time>2026-04-11T14:55:20.124Z</time></trkpt><trkpt lat="44.1029883" lon="11.7626233"><ele>284.6666666666667</ele><time>2026-04-11T14:55:21.124Z</time></trkpt><trkpt lat="44.1030833" lon="11.7628133"><ele>284.33333333333337</ele><time>2026-04-11T14:55:22.122Z</time></trkpt><trkpt lat="44.1031833" lon="11.7629933"><ele>284.0</ele><time>2026-04-11T14:55:23.123Z</time></trkpt><trkpt lat="44.103295" lon="11.7631667"><ele>284.0</ele><time>2026-04-11T14:55:24.123Z</time></trkpt><trkpt lat="44.1034217" lon="11.7633217"><ele>284.0</ele><time>2026-04-11T14:55:25.124Z</time></trkpt><trkpt lat="44.1035617" lon="11.76346"><ele>284.0</ele><time>2026-04-11T14:55:26.124Z</time></trkpt><trkpt lat="44.1037183" lon="11.763575"><ele>283.6666666666667</ele><time>2026-04-11T14:55:27.125Z</time></trkpt><trkpt lat="44.1038833" lon="11.7636633"><ele>283.3333333333333</ele><time>2026-04-11T14:55:28.124Z</time></trkpt><trkpt lat="44.1040583" lon="11.76374"><ele>283.0</ele><time>2026-04-11T14:55:29.124Z</time></trkpt><trkpt lat="44.1042383" lon="11.76381"><ele>281.66666666666663</ele><time>2026-04-11T14:55:30.123Z</time></trkpt><trkpt lat="44.1044217" lon="11.7638817"><ele>280.3333333333333</ele><time>2026-04-11T14:55:31.123Z</time></trkpt><trkpt lat="44.1046083" lon="11.763955"><ele>279.0</ele><time>2026-04-11T14:55:32.123Z</time></trkpt><trkpt lat="44.1047983" lon="11.7640383"><ele>279.6666666666667</ele><time>2026-04-11T14:55:33.124Z</time></trkpt><trkpt lat="44.104985" lon="11.7641317"><ele>280.33333333333337</ele><time>2026-04-11T14:55:34.125Z</time></trkpt><trkpt lat="44.10516" lon="11.7642567"><ele>281.0</ele><time>2026-04-11T14:55:35.124Z</time></trkpt><trkpt lat="44.10533" lon="11.7644067"><ele>281.0</ele><time>2026-04-11T14:55:36.124Z</time></trkpt><trkpt lat="44.1054917" lon="11.7645717"><ele>281.0</ele><time>2026-04-11T14:55:37.122Z</time></trkpt><trkpt lat="44.105655" lon="11.7647367"><ele>281.0</ele><time>2026-04-11T14:55:38.124Z</time></trkpt><trkpt lat="44.10582" lon="11.7648983"><ele>281.33333333333337</ele><time>2026-04-11T14:55:39.124Z</time></trkpt><trkpt lat="44.1059883" lon="11.765055"><ele>281.6666666666667</ele><time>2026-04-11T14:55:40.123Z</time></trkpt><trkpt lat="44.1061617" lon="11.7651967"><ele>282.0</ele><time>2026-04-11T14:55:41.124Z</time></trkpt><trkpt lat="44.10634" lon="11.7653217"><ele>282.0</ele><time>2026-04-11T14:55:42.124Z</time></trkpt><trkpt lat="44.106525" lon="11.7654333"><ele>282.0</ele><time>2026-04-11T14:55:43.124Z</time></trkpt><trkpt lat="44.1067083" lon="11.7655433"><ele>282.0</ele><time>2026-04-11T14:55:44.126Z</time></trkpt><trkpt lat="44.106885" lon="11.7656533"><ele>281.3333333333333</ele><time>2026-04-11T14:55:45.123Z</time></trkpt><trkpt lat="44.107045" lon="11.7657683"><ele>280.66666666666663</ele><time>2026-04-11T14:55:46.124Z</time></trkpt><trkpt lat="44.10719" lon="11.7658933"><ele>280.0</ele><time>2026-04-11T14:55:47.124Z</time></trkpt><trkpt lat="44.1073267" lon="11.7660167"><ele>279.66666666666663</ele><time>2026-04-11T14:55:48.123Z</time></trkpt><trkpt lat="44.1074717" lon="11.7661167"><ele>279.3333333333333</ele><time>2026-04-11T14:55:49.124Z</time></trkpt><trkpt lat="44.107625" lon="11.7661933"><ele>279.0</ele><time>2026-04-11T14:55:50.124Z</time></trkpt><trkpt lat="44.1077833" lon="11.7662417"><ele>279.0</ele><time>2026-04-11T14:55:51.125Z</time></trkpt><trkpt lat="44.1079383" lon="11.7662533"><ele>279.0</ele><time>2026-04-11T14:55:52.125Z</time></trkpt><trkpt lat="44.1080867" lon="11.7662567"><ele>279.0</ele><time>2026-04-11T14:55:53.123Z</time></trkpt><trkpt lat="44.108225" lon="11.76629"><ele>279.0</ele><time>2026-04-11T14:55:54.123Z</time></trkpt><trkpt lat="44.108355" lon="11.7663667"><ele>279.0</ele><time>2026-04-11T14:55:55.124Z</time></trkpt><trkpt lat="44.1084683" lon="11.7664967"><ele>279.0</ele><time>2026-04-11T14:55:56.124Z</time></trkpt><trkpt lat="44.1085667" lon="11.76667"><ele>279.0</ele><time>2026-04-11T14:55:57.124Z</time></trkpt><trkpt lat="44.1086567" lon="11.7668717"><ele>277.0</ele><time>2026-04-11T14:55:58.124Z</time></trkpt><trkpt lat="44.10875" lon="11.7670817"><ele>275.0</ele><time>2026-04-11T14:55:59.124Z</time></trkpt><trkpt lat="44.1088467" lon="11.7673"><ele>273.0</ele><time>2026-04-11T14:56:00.123Z</time></trkpt><trkpt lat="44.10895" lon="11.7675217"><ele>273.0</ele><time>2026-04-11T14:56:01.124Z</time></trkpt><trkpt lat="44.1090533" lon="11.7677383"><ele>273.0</ele><time>2026-04-11T14:56:02.124Z</time></trkpt><trkpt lat="44.1091533" lon="11.7679483"><ele>273.0</ele><time>2026-04-11T14:56:03.123Z</time></trkpt><trkpt lat="44.1092483" lon="11.76814"><ele>272.5</ele><time>2026-04-11T14:56:04.123Z</time></trkpt><trkpt lat="44.109345" lon="11.7683017"><ele>272.0</ele><time>2026-04-11T14:56:05.124Z</time></trkpt><trkpt lat="44.1094533" lon="11.7684367"><ele>271.5</ele><time>2026-04-11T14:56:06.125Z</time></trkpt><trkpt lat="44.1095817" lon="11.76854"><ele>271.0</ele><time>2026-04-11T14:56:07.124Z</time></trkpt><trkpt lat="44.1097267" lon="11.7686067"><ele>271.0</ele><time>2026-04-11T14:56:08.124Z</time></trkpt><trkpt lat="44.1098867" lon="11.76865"><ele>271.0</ele><time>2026-04-11T14:56:09.124Z</time></trkpt><trkpt lat="44.1100583" lon="11.768685"><ele>271.0</ele><time>2026-04-11T14:56:10.123Z</time></trkpt><trkpt lat="44.11024" lon="11.7687267"><ele>271.0</ele><time>2026-04-11T14:56:11.123Z</time></trkpt><trkpt lat="44.11043" lon="11.7687667"><ele>271.0</ele><time>2026-04-11T14:56:12.123Z</time></trkpt><trkpt lat="44.1106267" lon="11.768805"><ele>271.0</ele><time>2026-04-11T14:56:13.124Z</time></trkpt><trkpt lat="44.1108267" lon="11.7688467"><ele>271.0</ele><time>2026-04-11T14:56:14.123Z</time></trkpt><trkpt lat="44.111025" lon="11.7688917"><ele>271.0</ele><time>2026-04-11T14:56:15.124Z</time></trkpt><trkpt lat="44.111215" lon="11.76895"><ele>271.0</ele><time>2026-04-11T14:56:16.124Z</time></trkpt><trkpt lat="44.111385" lon="11.7690467"><ele>271.0</ele><time>2026-04-11T14:56:17.124Z</time></trkpt><trkpt lat="44.1115367" lon="11.7691883"><ele>271.0</ele><time>2026-04-11T14:56:18.123Z</time></trkpt><trkpt lat="44.1116683" lon="11.769375"><ele>271.0</ele><time>2026-04-11T14:56:19.124Z</time></trkpt><trkpt lat="44.1118017" lon="11.7695683"><ele>269.3333333333333</ele><time>2026-04-11T14:56:20.124Z</time></trkpt><trkpt lat="44.1119533" lon="11.76974"><ele>267.6666666666667</ele><time>2026-04-11T14:56:21.124Z</time></trkpt><trkpt lat="44.1121183" lon="11.7698967"><ele>266.0</ele><time>2026-04-11T14:56:22.124Z</time></trkpt><trkpt lat="44.11229" lon="11.77005"><ele>265.0</ele><time>2026-04-11T14:56:23.124Z</time></trkpt><trkpt lat="44.1124667" lon="11.7702117"><ele>264.0</ele><time>2026-04-11T14:56:24.124Z</time></trkpt><trkpt lat="44.1126467" lon="11.77037"><ele>263.0</ele><time>2026-04-11T14:56:25.123Z</time></trkpt><trkpt lat="44.1128283" lon="11.7705283"><ele>263.0</ele><time>2026-04-11T14:56:26.125Z</time></trkpt><trkpt lat="44.1130117" lon="11.77069"><ele>263.0</ele><time>2026-04-11T14:56:27.124Z</time></trkpt><trkpt lat="44.1131967" lon="11.7708533"><ele>263.0</ele><time>2026-04-11T14:56:28.125Z</time></trkpt><trkpt lat="44.1133817" lon="11.7710183"><ele>263.0</ele><time>2026-04-11T14:56:29.123Z</time></trkpt><trkpt lat="44.113565" lon="11.7711867"><ele>263.0</ele><time>2026-04-11T14:56:30.125Z</time></trkpt><trkpt lat="44.1137433" lon="11.7713617"><ele>263.0</ele><time>2026-04-11T14:56:31.122Z</time></trkpt><trkpt lat="44.11391" lon="11.77156"><ele>263.0</ele><time>2026-04-11T14:56:32.124Z</time></trkpt><trkpt lat="44.1140633" lon="11.77178"><ele>263.0</ele><time>2026-04-11T14:56:33.124Z</time></trkpt><trkpt lat="44.1142033" lon="11.772015"><ele>263.0</ele><time>2026-04-11T14:56:34.123Z</time></trkpt><trkpt lat="44.1143317" lon="11.7722567"><ele>263.6666666666667</ele><time>2026-04-11T14:56:35.124Z</time></trkpt><trkpt lat="44.114455" lon="11.7725"><ele>264.3333333333333</ele><time>2026-04-11T14:56:36.123Z</time></trkpt><trkpt lat="44.11458" lon="11.77274"><ele>265.0</ele><time>2026-04-11T14:56:37.124Z</time></trkpt><trkpt lat="44.114705" lon="11.772975"><ele>265.66666666666663</ele><time>2026-04-11T14:56:38.124Z</time></trkpt><trkpt lat="44.11483" lon="11.7732067"><ele>266.3333333333333</ele><time>2026-04-11T14:56:39.124Z</time></trkpt><trkpt lat="44.1149517" lon="11.7734233"><ele>267.0</ele><time>2026-04-11T14:56:40.123Z</time></trkpt><trkpt lat="44.1150733" lon="11.7736183"><ele>265.3333333333333</ele><time>2026-04-11T14:56:41.123Z</time></trkpt><trkpt lat="44.1152083" lon="11.7737917"><ele>263.66666666666663</ele><time>2026-04-11T14:56:42.124Z</time></trkpt><trkpt lat="44.115365" lon="11.7739267"><ele>262.0</ele><time>2026-04-11T14:56:43.124Z</time></trkpt><trkpt lat="44.1155333" lon="11.774025"><ele>262.0</ele><time>2026-04-11T14:56:44.124Z</time></trkpt><trkpt lat="44.115715" lon="11.77408"><ele>262.0</ele><time>2026-04-11T14:56:45.125Z</time></trkpt><trkpt lat="44.1159033" lon="11.7741017"><ele>262.0</ele><time>2026-04-11T14:56:46.124Z</time></trkpt><trkpt lat="44.1160983" lon="11.7741117"><ele>265.3333333333333</ele><time>2026-04-11T14:56:47.123Z</time></trkpt><trkpt lat="44.1162933" lon="11.7741283"><ele>268.6666666666667</ele><time>2026-04-11T14:56:48.124Z</time></trkpt><trkpt lat="44.11649" lon="11.7741617"><ele>272.0</ele><time>2026-04-11T14:56:49.123Z</time></trkpt><trkpt lat="44.1166867" lon="11.77421"><ele>273.33333333333337</ele><time>2026-04-11T14:56:50.124Z</time></trkpt><trkpt lat="44.1168833" lon="11.7742667"><ele>274.6666666666667</ele><time>2026-04-11T14:56:51.124Z</time></trkpt><trkpt lat="44.1170783" lon="11.77434"><ele>276.0</ele><time>2026-04-11T14:56:52.123Z</time></trkpt><trkpt lat="44.1172617" lon="11.7744267"><ele>273.3333333333333</ele><time>2026-04-11T14:56:53.123Z</time></trkpt><trkpt lat="44.1174317" lon="11.77452"><ele>270.66666666666663</ele><time>2026-04-11T14:56:54.125Z</time></trkpt><trkpt lat="44.117585" lon="11.77463"><ele>268.0</ele><time>2026-04-11T14:56:55.123Z</time></trkpt><trkpt lat="44.1177067" lon="11.7747733"><ele>268.0</ele><time>2026-04-11T14:56:56.124Z</time></trkpt><trkpt lat="44.1177967" lon="11.7749433"><ele>268.0</ele><time>2026-04-11T14:56:57.124Z</time></trkpt><trkpt lat="44.117865" lon="11.7751283"><ele>268.0</ele><time>2026-04-11T14:56:58.123Z</time></trkpt><trkpt lat="44.1179367" lon="11.7753083"><ele>268.0</ele><time>2026-04-11T14:56:59.124Z</time></trkpt><trkpt lat="44.118025" lon="11.7754733"><ele>267.5</ele><time>2026-04-11T14:57:00.124Z</time></trkpt><trkpt lat="44.1181333" lon="11.7756167"><ele>267.0</ele><time>2026-04-11T14:57:01.124Z</time></trkpt><trkpt lat="44.1182583" lon="11.7757217"><ele>266.5</ele><time>2026-04-11T14:57:02.124Z</time></trkpt><trkpt lat="44.1183933" lon="11.7757833"><ele>266.0</ele><time>2026-04-11T14:57:03.124Z</time></trkpt><trkpt lat="44.1185367" lon="11.7758"><ele>266.0</ele><time>2026-04-11T14:57:04.124Z</time></trkpt><trkpt lat="44.1186883" lon="11.7757733"><ele>266.0</ele><time>2026-04-11T14:57:05.126Z</time></trkpt><trkpt lat="44.11885" lon="11.7757033"><ele>266.0</ele><time>2026-04-11T14:57:06.125Z</time></trkpt><trkpt lat="44.1190283" lon="11.775605"><ele>263.0</ele><time>2026-04-11T14:57:07.125Z</time></trkpt><trkpt lat="44.1192233" lon="11.7754867"><ele>260.0</ele><time>2026-04-11T14:57:08.125Z</time></trkpt><trkpt lat="44.1194383" lon="11.775355"><ele>257.0</ele><time>2026-04-11T14:57:09.125Z</time></trkpt><trkpt lat="44.1196583" lon="11.7752267"><ele>260.33333333333337</ele><time>2026-04-11T14:57:10.125Z</time></trkpt><trkpt lat="44.11987" lon="11.775115"><ele>263.6666666666667</ele><time>2026-04-11T14:57:11.125Z</time></trkpt><trkpt lat="44.1200733" lon="11.7750383"><ele>267.0</ele><time>2026-04-11T14:57:12.124Z</time></trkpt><trkpt lat="44.1202683" lon="11.7749983"><ele>267.0</ele><time>2026-04-11T14:57:13.124Z</time></trkpt><trkpt lat="44.120455" lon="11.7750183"><ele>267.0</ele><time>2026-04-11T14:57:14.124Z</time></trkpt><trkpt lat="44.1206417" lon="11.7750783"><ele>267.0</ele><time>2026-04-11T14:57:15.124Z</time></trkpt><trkpt lat="44.1208233" lon="11.77517"><ele>260.6666666666667</ele><time>2026-04-11T14:57:16.124Z</time></trkpt><trkpt lat="44.1209983" lon="11.7752667"><ele>254.33333333333334</ele><time>2026-04-11T14:57:17.123Z</time></trkpt><trkpt lat="44.12116" lon="11.775345"><ele>248.0</ele><time>2026-04-11T14:57:18.124Z</time></trkpt><trkpt lat="44.1212983" lon="11.775405"><ele>248.0</ele><time>2026-04-11T14:57:19.124Z</time></trkpt><trkpt lat="44.1214167" lon="11.7754533"><ele>248.0</ele><time>2026-04-11T14:57:20.124Z</time></trkpt><trkpt lat="44.1215233" lon="11.775505"><ele>248.0</ele><time>2026-04-11T14:57:21.125Z</time></trkpt><trkpt lat="44.1216233" lon="11.7755533"><ele>248.0</ele><time>2026-04-11T14:57:22.124Z</time></trkpt><trkpt lat="44.1217217" lon="11.7756233"><ele>247.33333333333334</ele><time>2026-04-11T14:57:23.124Z</time></trkpt><trkpt lat="44.1218283" lon="11.7757267"><ele>246.66666666666669</ele><time>2026-04-11T14:57:24.124Z</time></trkpt><trkpt lat="44.12194" lon="11.7758717"><ele>246.0</ele><time>2026-04-11T14:57:25.124Z</time></trkpt><trkpt lat="44.1220583" lon="11.7760617"><ele>246.0</ele><time>2026-04-11T14:57:26.123Z</time></trkpt><trkpt lat="44.1221817" lon="11.7762867"><ele>246.0</ele><time>2026-04-11T14:57:27.124Z</time></trkpt><trkpt lat="44.1223133" lon="11.7765383"><ele>246.0</ele><time>2026-04-11T14:57:28.125Z</time></trkpt><trkpt lat="44.122455" lon="11.7767933"><ele>247.0</ele><time>2026-04-11T14:57:29.123Z</time></trkpt><trkpt lat="44.1226033" lon="11.7770483"><ele>248.0</ele><time>2026-04-11T14:57:30.125Z</time></trkpt><trkpt lat="44.12276" lon="11.7772983"><ele>248.0</ele><time>2026-04-11T14:57:31.124Z</time></trkpt><trkpt lat="44.1229233" lon="11.7775417"><ele>248.0</ele><time>2026-04-11T14:57:32.123Z</time></trkpt><trkpt lat="44.123095" lon="11.7777733"><ele>252.0</ele><time>2026-04-11T14:57:33.124Z</time></trkpt><trkpt lat="44.1232733" lon="11.77799"><ele>256.0</ele><time>2026-04-11T14:57:34.124Z</time></trkpt><trkpt lat="44.12346" lon="11.7781833"><ele>256.0</ele><time>2026-04-11T14:57:35.124Z</time></trkpt><trkpt lat="44.1236433" lon="11.7783617"><ele>256.0</ele><time>2026-04-11T14:57:36.123Z</time></trkpt><trkpt lat="44.12381" lon="11.7785533"><ele>256.0</ele><time>2026-04-11T14:57:37.123Z</time></trkpt><trkpt lat="44.1239617" lon="11.7787667"><ele>257.0</ele><time>2026-04-11T14:57:38.124Z</time></trkpt><trkpt lat="44.1240983" lon="11.7789833"><ele>258.0</ele><time>2026-04-11T14:57:39.124Z</time></trkpt><trkpt lat="44.1242267" lon="11.7791867"><ele>259.0</ele><time>2026-04-11T14:57:40.125Z</time></trkpt><trkpt lat="44.1243583" lon="11.7793667"><ele>256.66666666666663</ele><time>2026-04-11T14:57:41.123Z</time></trkpt><trkpt lat="44.1245017" lon="11.7795233"><ele>254.33333333333331</ele><time>2026-04-11T14:57:42.124Z</time></trkpt><trkpt lat="44.1246683" lon="11.7796467"><ele>252.0</ele><time>2026-04-11T14:57:43.123Z</time></trkpt><trkpt lat="44.1248483" lon="11.779735"><ele>253.0</ele><time>2026-04-11T14:57:44.124Z</time></trkpt><trkpt lat="44.1250417" lon="11.7797917"><ele>254.0</ele><time>2026-04-11T14:57:45.124Z</time></trkpt><trkpt lat="44.1252433" lon="11.779825"><ele>255.0</ele><time>2026-04-11T14:57:46.123Z</time></trkpt><trkpt lat="44.1254617" lon="11.7798483"><ele>255.0</ele><time>2026-04-11T14:57:47.124Z</time></trkpt><trkpt lat="44.125685" lon="11.77987"><ele>255.0</ele><time>2026-04-11T14:57:48.123Z</time></trkpt><trkpt lat="44.125915" lon="11.7798917"><ele>253.5</ele><time>2026-04-11T14:57:49.125Z</time></trkpt><trkpt lat="44.12615" lon="11.7799167"><ele>252.0</ele><time>2026-04-11T14:57:50.123Z</time></trkpt><trkpt lat="44.126385" lon="11.77994"><ele>251.5</ele><time>2026-04-11T14:57:51.124Z</time></trkpt><trkpt lat="44.1266217" lon="11.779965"><ele>251.0</ele><time>2026-04-11T14:57:52.123Z</time></trkpt><trkpt lat="44.12686" lon="11.77999"><ele>251.0</ele><time>2026-04-11T14:57:53.123Z</time></trkpt><trkpt lat="44.1270917" lon="11.7800133"><ele>251.0</ele><time>2026-04-11T14:57:54.124Z</time></trkpt><trkpt lat="44.1273117" lon="11.780035"><ele>251.66666666666669</ele><time>2026-04-11T14:57:55.124Z</time></trkpt><trkpt lat="44.1275233" lon="11.780055"><ele>252.33333333333331</ele><time>2026-04-11T14:57:56.125Z</time></trkpt><trkpt lat="44.12772" lon="11.78007"><ele>253.0</ele><time>2026-04-11T14:57:57.123Z</time></trkpt><trkpt lat="44.1279167" lon="11.7800733"><ele>253.0</ele><time>2026-04-11T14:57:58.124Z</time></trkpt><trkpt lat="44.128115" lon="11.78006"><ele>253.0</ele><time>2026-04-11T14:57:59.124Z</time></trkpt><trkpt lat="44.1283133" lon="11.7800417"><ele>253.0</ele><time>2026-04-11T14:58:00.124Z</time></trkpt><trkpt lat="44.12851" lon="11.78003"><ele>253.66666666666666</ele><time>2026-04-11T14:58:01.124Z</time></trkpt><trkpt lat="44.12871" lon="11.7800383"><ele>254.33333333333331</ele><time>2026-04-11T14:58:02.124Z</time></trkpt><trkpt lat="44.128915" lon="11.78006"><ele>255.0</ele><time>2026-04-11T14:58:03.123Z</time></trkpt><trkpt lat="44.1291217" lon="11.780085"><ele>257.3333333333333</ele><time>2026-04-11T14:58:04.124Z</time></trkpt><trkpt lat="44.1293317" lon="11.7801133"><ele>259.66666666666663</ele><time>2026-04-11T14:58:05.124Z</time></trkpt><trkpt lat="44.1295433" lon="11.780135"><ele>262.0</ele><time>2026-04-11T14:58:06.123Z</time></trkpt><trkpt lat="44.12975" lon="11.78014"><ele>264.66666666666663</ele><time>2026-04-11T14:58:07.124Z</time></trkpt><trkpt lat="44.1299483" lon="11.7801283"><ele>267.3333333333333</ele><time>2026-04-11T14:58:08.123Z</time></trkpt><trkpt lat="44.1301333" lon="11.7801233"><ele>270.0</ele><time>2026-04-11T14:58:09.124Z</time></trkpt><trkpt lat="44.1303067" lon="11.780145"><ele>261.0</ele><time>2026-04-11T14:58:10.123Z</time></trkpt><trkpt lat="44.1304767" lon="11.7802"><ele>252.0</ele><time>2026-04-11T14:58:11.124Z</time></trkpt><trkpt lat="44.1306433" lon="11.7802733"><ele>243.0</ele><time>2026-04-11T14:58:12.123Z</time></trkpt><trkpt lat="44.1308117" lon="11.78035"><ele>243.0</ele><time>2026-04-11T14:58:13.124Z</time></trkpt><trkpt lat="44.1309833" lon="11.7804133"><ele>243.0</ele><time>2026-04-11T14:58:14.124Z</time></trkpt><trkpt lat="44.131165" lon="11.7804517"><ele>243.0</ele><time>2026-04-11T14:58:15.123Z</time></trkpt><trkpt lat="44.13135" lon="11.7804733"><ele>243.0</ele><time>2026-04-11T14:58:16.124Z</time></trkpt><trkpt lat="44.131535" lon="11.7804783"><ele>243.0</ele><time>2026-04-11T14:58:17.123Z</time></trkpt><trkpt lat="44.1317267" lon="11.780465"><ele>243.0</ele><time>2026-04-11T14:58:18.123Z</time></trkpt><trkpt lat="44.13192" lon="11.78045"><ele>242.66666666666669</ele><time>2026-04-11T14:58:19.124Z</time></trkpt><trkpt lat="44.13212" lon="11.780445"><ele>242.33333333333334</ele><time>2026-04-11T14:58:20.122Z</time></trkpt><trkpt lat="44.1323217" lon="11.7804667"><ele>242.0</ele><time>2026-04-11T14:58:21.124Z</time></trkpt><trkpt lat="44.13252" lon="11.7805217"><ele>241.66666666666669</ele><time>2026-04-11T14:58:22.124Z</time></trkpt><trkpt lat="44.132715" lon="11.7806067"><ele>241.33333333333331</ele><time>2026-04-11T14:58:23.123Z</time></trkpt><trkpt lat="44.1329067" lon="11.7806933"><ele>241.0</ele><time>2026-04-11T14:58:24.124Z</time></trkpt><trkpt lat="44.1331017" lon="11.78077"><ele>244.66666666666666</ele><time>2026-04-11T14:58:25.124Z</time></trkpt><trkpt lat="44.1332967" lon="11.7808283"><ele>248.33333333333331</ele><time>2026-04-11T14:58:26.124Z</time></trkpt><trkpt lat="44.1334933" lon="11.7808783"><ele>252.0</ele><time>2026-04-11T14:58:27.124Z</time></trkpt><trkpt lat="44.1336883" lon="11.7809233"><ele>252.0</ele><time>2026-04-11T14:58:28.124Z</time></trkpt><trkpt lat="44.1338867" lon="11.7809667"><ele>252.0</ele><time>2026-04-11T14:58:29.123Z</time></trkpt><trkpt lat="44.13408" lon="11.7810233"><ele>252.0</ele><time>2026-04-11T14:58:30.123Z</time></trkpt><trkpt lat="44.1342617" lon="11.7811033"><ele>245.66666666666669</ele><time>2026-04-11T14:58:31.124Z</time></trkpt><trkpt lat="44.1344383" lon="11.7812117"><ele>239.33333333333334</ele><time>2026-04-11T14:58:32.124Z</time></trkpt><trkpt lat="44.1346067" lon="11.7813383"><ele>233.0</ele><time>2026-04-11T14:58:33.124Z</time></trkpt><trkpt lat="44.1347683" lon="11.78146"><ele>238.0</ele><time>2026-04-11T14:58:34.123Z</time></trkpt><trkpt lat="44.1349333" lon="11.781545"><ele>243.0</ele><time>2026-04-11T14:58:35.125Z</time></trkpt><trkpt lat="44.135105" lon="11.7815967"><ele>248.0</ele><time>2026-04-11T14:58:36.123Z</time></trkpt><trkpt lat="44.135285" lon="11.781625"><ele>248.0</ele><time>2026-04-11T14:58:37.122Z</time></trkpt><trkpt lat="44.1354717" lon="11.78164"><ele>248.0</ele><time>2026-04-11T14:58:38.123Z</time></trkpt><trkpt lat="44.135665" lon="11.78166"><ele>248.0</ele><time>2026-04-11T14:58:39.124Z</time></trkpt><trkpt lat="44.1358633" lon="11.781695"><ele>249.33333333333334</ele><time>2026-04-11T14:58:40.123Z</time></trkpt><trkpt lat="44.13606" lon="11.781745"><ele>250.66666666666669</ele><time>2026-04-11T14:58:41.123Z</time></trkpt><trkpt lat="44.1362617" lon="11.7817967"><ele>252.0</ele><time>2026-04-11T14:58:42.123Z</time></trkpt><trkpt lat="44.136465" lon="11.781855"><ele>248.66666666666669</ele><time>2026-04-11T14:58:43.124Z</time></trkpt><trkpt lat="44.1366733" lon="11.78191"><ele>245.33333333333334</ele><time>2026-04-11T14:58:44.123Z</time></trkpt><trkpt lat="44.1368883" lon="11.7819633"><ele>242.0</ele><time>2026-04-11T14:58:45.124Z</time></trkpt><trkpt lat="44.1371067" lon="11.7820133"><ele>242.0</ele><time>2026-04-11T14:58:46.126Z</time></trkpt><trkpt lat="44.1373233" lon="11.7820717"><ele>242.0</ele><time>2026-04-11T14:58:47.123Z</time></trkpt><trkpt lat="44.137535" lon="11.7821267"><ele>242.0</ele><time>2026-04-11T14:58:48.124Z</time></trkpt><trkpt lat="44.1377367" lon="11.7821783"><ele>242.33333333333334</ele><time>2026-04-11T14:58:49.124Z</time></trkpt><trkpt lat="44.1379283" lon="11.7822233"><ele>242.66666666666669</ele><time>2026-04-11T14:58:50.123Z</time></trkpt><trkpt lat="44.1381" lon="11.78226"><ele>243.0</ele><time>2026-04-11T14:58:51.124Z</time></trkpt><trkpt lat="44.138255" lon="11.7822733"><ele>242.33333333333331</ele><time>2026-04-11T14:58:52.124Z</time></trkpt><trkpt lat="44.1384033" lon="11.7822467"><ele>241.66666666666666</ele><time>2026-04-11T14:58:53.124Z</time></trkpt><trkpt lat="44.13855" lon="11.7821833"><ele>241.0</ele><time>2026-04-11T14:58:54.124Z</time></trkpt><trkpt lat="44.138695" lon="11.78211"><ele>241.0</ele><time>2026-04-11T14:58:55.125Z</time></trkpt><trkpt lat="44.1388533" lon="11.7820483"><ele>241.0</ele><time>2026-04-11T14:58:56.124Z</time></trkpt><trkpt lat="44.139025" lon="11.7820067"><ele>241.0</ele><time>2026-04-11T14:58:57.125Z</time></trkpt><trkpt lat="44.1392083" lon="11.7819767"><ele>238.0</ele><time>2026-04-11T14:58:58.124Z</time></trkpt><trkpt lat="44.1394017" lon="11.7819633"><ele>235.0</ele><time>2026-04-11T14:58:59.124Z</time></trkpt><trkpt lat="44.1396033" lon="11.7819617"><ele>232.0</ele><time>2026-04-11T14:59:00.123Z</time></trkpt><trkpt lat="44.1398083" lon="11.781965"><ele>229.33333333333331</ele><time>2026-04-11T14:59:01.123Z</time></trkpt><trkpt lat="44.14001" lon="11.7819667"><ele>226.66666666666669</ele><time>2026-04-11T14:59:02.124Z</time></trkpt><trkpt lat="44.1402067" lon="11.7819633"><ele>224.0</ele><time>2026-04-11T14:59:03.124Z</time></trkpt><trkpt lat="44.1403917" lon="11.7819383"><ele>224.0</ele><time>2026-04-11T14:59:04.123Z</time></trkpt><trkpt lat="44.1405667" lon="11.78188"><ele>224.0</ele><time>2026-04-11T14:59:05.124Z</time></trkpt><trkpt lat="44.1407317" lon="11.78179"><ele>224.0</ele><time>2026-04-11T14:59:06.123Z</time></trkpt><trkpt lat="44.1408933" lon="11.7816783"><ele>228.33333333333334</ele><time>2026-04-11T14:59:07.123Z</time></trkpt><trkpt lat="44.1410483" lon="11.781565"><ele>232.66666666666669</ele><time>2026-04-11T14:59:08.124Z</time></trkpt><trkpt lat="44.1411933" lon="11.7814617"><ele>237.0</ele><time>2026-04-11T14:59:09.125Z</time></trkpt><trkpt lat="44.1413233" lon="11.7813917"><ele>237.0</ele><time>2026-04-11T14:59:10.124Z</time></trkpt><trkpt lat="44.14144" lon="11.7813633"><ele>237.0</ele><time>2026-04-11T14:59:11.124Z</time></trkpt><trkpt lat="44.1415483" lon="11.7813883"><ele>237.0</ele><time>2026-04-11T14:59:12.123Z</time></trkpt><trkpt lat="44.1416567" lon="11.7814667"><ele>237.0</ele><time>2026-04-11T14:59:13.125Z</time></trkpt><trkpt lat="44.14177" lon="11.7815617"><ele>234.5</ele><time>2026-04-11T14:59:14.123Z</time></trkpt><trkpt lat="44.1418917" lon="11.7816517"><ele>232.0</ele><time>2026-04-11T14:59:15.124Z</time></trkpt><trkpt lat="44.142025" lon="11.781725"><ele>229.5</ele><time>2026-04-11T14:59:16.124Z</time></trkpt><trkpt lat="44.14217" lon="11.78176"><ele>227.0</ele><time>2026-04-11T14:59:17.124Z</time></trkpt><trkpt lat="44.1423217" lon="11.7817617"><ele>228.33333333333334</ele><time>2026-04-11T14:59:18.124Z</time></trkpt><trkpt lat="44.142475" lon="11.7817417"><ele>229.66666666666669</ele><time>2026-04-11T14:59:19.124Z</time></trkpt><trkpt lat="44.1426317" lon="11.7817217"><ele>231.0</ele><time>2026-04-11T14:59:20.124Z</time></trkpt><trkpt lat="44.1427983" lon="11.7817133"><ele>231.0</ele><time>2026-04-11T14:59:21.125Z</time></trkpt><trkpt lat="44.14297" lon="11.781725"><ele>231.0</ele><time>2026-04-11T14:59:22.123Z</time></trkpt><trkpt lat="44.14315" lon="11.7817467"><ele>231.0</ele><time>2026-04-11T14:59:23.125Z</time></trkpt><trkpt lat="44.1433317" lon="11.78179"><ele>226.0</ele><time>2026-04-11T14:59:24.124Z</time></trkpt><trkpt lat="44.1435217" lon="11.781855"><ele>221.0</ele><time>2026-04-11T14:59:25.123Z</time></trkpt><trkpt lat="44.1437133" lon="11.7819283"><ele>216.0</ele><time>2026-04-11T14:59:26.123Z</time></trkpt><trkpt lat="44.1439083" lon="11.781995"><ele>215.33333333333331</ele><time>2026-04-11T14:59:27.124Z</time></trkpt><trkpt lat="44.144105" lon="11.7820567"><ele>214.66666666666666</ele><time>2026-04-11T14:59:28.123Z</time></trkpt><trkpt lat="44.144295" lon="11.7821033"><ele>214.0</ele><time>2026-04-11T14:59:29.123Z</time></trkpt><trkpt lat="44.1444683" lon="11.7821433"><ele>214.0</ele><time>2026-04-11T14:59:30.124Z</time></trkpt><trkpt lat="44.14463" lon="11.7821683"><ele>214.0</ele><time>2026-04-11T14:59:31.124Z</time></trkpt><trkpt lat="44.1447867" lon="11.7821717"><ele>214.0</ele><time>2026-04-11T14:59:32.123Z</time></trkpt><trkpt lat="44.14494" lon="11.78215"><ele>213.0</ele><time>2026-04-11T14:59:33.123Z</time></trkpt><trkpt lat="44.1450867" lon="11.78214"><ele>212.0</ele><time>2026-04-11T14:59:34.124Z</time></trkpt><trkpt lat="44.1452317" lon="11.7821783"><ele>211.0</ele><time>2026-04-11T14:59:35.124Z</time></trkpt><trkpt lat="44.1453767" lon="11.7822517"><ele>210.0</ele><time>2026-04-11T14:59:36.123Z</time></trkpt><trkpt lat="44.1455183" lon="11.7823433"><ele>210.0</ele><time>2026-04-11T14:59:37.123Z</time></trkpt><trkpt lat="44.1456333" lon="11.7824717"><ele>210.0</ele><time>2026-04-11T14:59:38.123Z</time></trkpt><trkpt lat="44.1457233" lon="11.7826383"><ele>210.0</ele><time>2026-04-11T14:59:39.123Z</time></trkpt><trkpt lat="44.1458067" lon="11.7828133"><ele>210.0</ele><time>2026-04-11T14:59:40.123Z</time></trkpt><trkpt lat="44.1459067" lon="11.7829817"><ele>206.0</ele><time>2026-04-11T14:59:41.123Z</time></trkpt><trkpt lat="44.1460333" lon="11.7831217"><ele>202.0</ele><time>2026-04-11T14:59:42.123Z</time></trkpt><trkpt lat="44.14618" lon="11.7832283"><ele>198.0</ele><time>2026-04-11T14:59:43.124Z</time></trkpt><trkpt lat="44.1463383" lon="11.7833067"><ele>198.0</ele><time>2026-04-11T14:59:44.123Z</time></trkpt><trkpt lat="44.1465067" lon="11.7833783"><ele>198.0</ele><time>2026-04-11T14:59:45.123Z</time></trkpt><trkpt lat="44.146675" lon="11.7834567"><ele>198.0</ele><time>2026-04-11T14:59:46.124Z</time></trkpt><trkpt lat="44.14684" lon="11.7835517"><ele>196.66666666666669</ele><time>2026-04-11T14:59:47.124Z</time></trkpt><trkpt lat="44.1470017" lon="11.7836583"><ele>195.33333333333334</ele><time>2026-04-11T14:59:48.122Z</time></trkpt><trkpt lat="44.1471583" lon="11.783775"><ele>194.0</ele><time>2026-04-11T14:59:49.124Z</time></trkpt><trkpt lat="44.1473133" lon="11.783905"><ele>197.0</ele><time>2026-04-11T14:59:50.124Z</time></trkpt><trkpt lat="44.147465" lon="11.784045"><ele>200.0</ele><time>2026-04-11T14:59:51.124Z</time></trkpt><trkpt lat="44.14762" lon="11.7841867"><ele>203.0</ele><time>2026-04-11T14:59:52.123Z</time></trkpt><trkpt lat="44.1477733" lon="11.7843233"><ele>199.33333333333334</ele><time>2026-04-11T14:59:53.127Z</time></trkpt><trkpt lat="44.1479167" lon="11.784445"><ele>195.66666666666669</ele><time>2026-04-11T14:59:54.123Z</time></trkpt><trkpt lat="44.1480533" lon="11.7845517"><ele>192.0</ele><time>2026-04-11T14:59:55.124Z</time></trkpt><trkpt lat="44.1481867" lon="11.7846583"><ele>194.33333333333331</ele><time>2026-04-11T14:59:56.123Z</time></trkpt><trkpt lat="44.1483167" lon="11.7847717"><ele>196.66666666666666</ele><time>2026-04-11T14:59:57.124Z</time></trkpt><trkpt lat="44.1484517" lon="11.7848967"><ele>199.0</ele><time>2026-04-11T14:59:58.131Z</time></trkpt><trkpt lat="44.1485917" lon="11.7850283"><ele>199.0</ele><time>2026-04-11T14:59:59.123Z</time></trkpt><trkpt lat="44.148735" lon="11.78517"><ele>199.0</ele><time>2026-04-11T15:00:00.124Z</time></trkpt><trkpt lat="44.1488833" lon="11.785315"><ele>199.0</ele><time>2026-04-11T15:00:01.124Z</time></trkpt><trkpt lat="44.14904" lon="11.78546"><ele>196.66666666666666</ele><time>2026-04-11T15:00:02.123Z</time></trkpt><trkpt lat="44.1492083" lon="11.785595"><ele>194.33333333333331</ele><time>2026-04-11T15:00:03.123Z</time></trkpt><trkpt lat="44.14939" lon="11.78571"><ele>192.0</ele><time>2026-04-11T15:00:04.124Z</time></trkpt><trkpt lat="44.1495767" lon="11.7858117"><ele>192.0</ele><time>2026-04-11T15:00:05.123Z</time></trkpt><trkpt lat="44.1497717" lon="11.7859"><ele>192.0</ele><time>2026-04-11T15:00:06.124Z</time></trkpt><trkpt lat="44.1499667" lon="11.7859867"><ele>192.0</ele><time>2026-04-11T15:00:07.124Z</time></trkpt><trkpt lat="44.1501583" lon="11.78608"><ele>191.33333333333334</ele><time>2026-04-11T15:00:08.125Z</time></trkpt><trkpt lat="44.1503483" lon="11.7861867"><ele>190.66666666666669</ele><time>2026-04-11T15:00:09.124Z</time></trkpt><trkpt lat="44.1505333" lon="11.78631"><ele>190.0</ele><time>2026-04-11T15:00:10.123Z</time></trkpt><trkpt lat="44.1507183" lon="11.7864433"><ele>188.0</ele><time>2026-04-11T15:00:11.124Z</time></trkpt><trkpt lat="44.150905" lon="11.7865817"><ele>186.0</ele><time>2026-04-11T15:00:12.125Z</time></trkpt><trkpt lat="44.1510933" lon="11.7867167"><ele>184.0</ele><time>2026-04-11T15:00:13.124Z</time></trkpt><trkpt lat="44.1512833" lon="11.786845"><ele>184.0</ele><time>2026-04-11T15:00:14.123Z</time></trkpt><trkpt lat="44.1514717" lon="11.7869733"><ele>184.0</ele><time>2026-04-11T15:00:15.124Z</time></trkpt><trkpt lat="44.1516583" lon="11.7871067"><ele>184.0</ele><time>2026-04-11T15:00:16.124Z</time></trkpt><trkpt lat="44.1518417" lon="11.7872367"><ele>187.0</ele><time>2026-04-11T15:00:17.124Z</time></trkpt><trkpt lat="44.1520233" lon="11.7873717"><ele>190.0</ele><time>2026-04-11T15:00:18.123Z</time></trkpt><trkpt lat="44.152205" lon="11.787505"><ele>193.0</ele><time>2026-04-11T15:00:19.125Z</time></trkpt><trkpt lat="44.1523833" lon="11.787635"><ele>192.33333333333331</ele><time>2026-04-11T15:00:20.125Z</time></trkpt><trkpt lat="44.15256" lon="11.7877633"><ele>191.66666666666666</ele><time>2026-04-11T15:00:21.124Z</time></trkpt><trkpt lat="44.1527333" lon="11.7878917"><ele>191.0</ele><time>2026-04-11T15:00:22.123Z</time></trkpt><trkpt lat="44.1529067" lon="11.7880217"><ele>191.0</ele><time>2026-04-11T15:00:23.124Z</time></trkpt><trkpt lat="44.1530767" lon="11.7881433"><ele>191.0</ele><time>2026-04-11T15:00:24.124Z</time></trkpt><trkpt lat="44.153235" lon="11.7882517"><ele>191.0</ele><time>2026-04-11T15:00:25.124Z</time></trkpt><trkpt lat="44.1533917" lon="11.7883433"><ele>189.5</ele><time>2026-04-11T15:00:26.124Z</time></trkpt><trkpt lat="44.15354" lon="11.7884183"><ele>188.0</ele><time>2026-04-11T15:00:27.126Z</time></trkpt><trkpt lat="44.1536817" lon="11.7884767"><ele>186.5</ele><time>2026-04-11T15:00:28.125Z</time></trkpt><trkpt lat="44.15381" lon="11.7885367"><ele>185.0</ele><time>2026-04-11T15:00:29.125Z</time></trkpt><trkpt lat="44.1539333" lon="11.7886017"><ele>187.25</ele><time>2026-04-11T15:00:30.124Z</time></trkpt><trkpt lat="44.1540533" lon="11.7886683"><ele>189.5</ele><time>2026-04-11T15:00:31.125Z</time></trkpt><trkpt lat="44.1541667" lon="11.78875"><ele>191.75</ele><time>2026-04-11T15:00:32.125Z</time></trkpt><trkpt lat="44.1542733" lon="11.788845"><ele>194.0</ele><time>2026-04-11T15:00:33.122Z</time></trkpt><trkpt lat="44.154375" lon="11.7889483"><ele>194.0</ele><time>2026-04-11T15:00:34.122Z</time></trkpt><trkpt lat="44.15447" lon="11.78905"><ele>194.0</ele><time>2026-04-11T15:00:35.124Z</time></trkpt><trkpt lat="44.15457" lon="11.789155"><ele>194.0</ele><time>2026-04-11T15:00:36.125Z</time></trkpt><trkpt lat="44.1546717" lon="11.7892633"><ele>194.0</ele><time>2026-04-11T15:00:37.124Z</time></trkpt><trkpt lat="44.154775" lon="11.7893717"><ele>193.25</ele><time>2026-04-11T15:00:38.123Z</time></trkpt><trkpt lat="44.15489" lon="11.7894783"><ele>192.5</ele><time>2026-04-11T15:00:39.125Z</time></trkpt><trkpt lat="44.1550117" lon="11.7895817"><ele>191.75</ele><time>2026-04-11T15:00:40.126Z</time></trkpt><trkpt lat="44.155145" lon="11.7896767"><ele>191.0</ele><time>2026-04-11T15:00:41.122Z</time></trkpt><trkpt lat="44.1552833" lon="11.7897533"><ele>191.0</ele><time>2026-04-11T15:00:42.123Z</time></trkpt><trkpt lat="44.1554217" lon="11.7898167"><ele>191.0</ele><time>2026-04-11T15:00:43.123Z</time></trkpt><trkpt lat="44.155555" lon="11.7898733"><ele>191.0</ele><time>2026-04-11T15:00:44.123Z</time></trkpt><trkpt lat="44.15568" lon="11.7899267"><ele>191.0</ele><time>2026-04-11T15:00:45.123Z</time></trkpt><trkpt lat="44.1558017" lon="11.7899817"><ele>190.25</ele><time>2026-04-11T15:00:46.124Z</time></trkpt><trkpt lat="44.1559183" lon="11.790035"><ele>189.5</ele><time>2026-04-11T15:00:47.124Z</time></trkpt><trkpt lat="44.156035" lon="11.790095"><ele>188.75</ele><time>2026-04-11T15:00:48.123Z</time></trkpt><trkpt lat="44.1561583" lon="11.790155"><ele>188.0</ele><time>2026-04-11T15:00:49.124Z</time></trkpt><trkpt lat="44.1562883" lon="11.790215"><ele>188.0</ele><time>2026-04-11T15:00:50.123Z</time></trkpt><trkpt lat="44.156415" lon="11.7902717"><ele>188.0</ele><time>2026-04-11T15:00:51.124Z</time></trkpt><trkpt lat="44.15653" lon="11.7903267"><ele>188.0</ele><time>2026-04-11T15:00:52.124Z</time></trkpt><trkpt lat="44.156645" lon="11.79038"><ele>188.0</ele><time>2026-04-11T15:00:53.123Z</time></trkpt><trkpt lat="44.1567483" lon="11.7904333"><ele>188.5</ele><time>2026-04-11T15:00:54.123Z</time></trkpt><trkpt lat="44.15685" lon="11.790485"><ele>189.0</ele><time>2026-04-11T15:00:55.123Z</time></trkpt><trkpt lat="44.1569567" lon="11.790535"><ele>189.5</ele><time>2026-04-11T15:00:56.123Z</time></trkpt><trkpt lat="44.1570683" lon="11.7905883"><ele>190.0</ele><time>2026-04-11T15:00:57.124Z</time></trkpt><trkpt lat="44.157185" lon="11.790645"><ele>190.0</ele><time>2026-04-11T15:00:58.123Z</time></trkpt><trkpt lat="44.1573033" lon="11.7907067"><ele>190.0</ele><time>2026-04-11T15:00:59.124Z</time></trkpt><trkpt lat="44.1574183" lon="11.7907583"><ele>190.0</ele><time>2026-04-11T15:01:00.124Z</time></trkpt><trkpt lat="44.15753" lon="11.7908117"><ele>190.0</ele><time>2026-04-11T15:01:01.129Z</time></trkpt><trkpt lat="44.15763" lon="11.7908583"><ele>190.6</ele><time>2026-04-11T15:01:02.126Z</time></trkpt><trkpt lat="44.15773" lon="11.7908933"><ele>191.2</ele><time>2026-04-11T15:01:03.125Z</time></trkpt><trkpt lat="44.15783" lon="11.790915"><ele>191.8</ele><time>2026-04-11T15:01:04.124Z</time></trkpt><trkpt lat="44.1579283" lon="11.7909333"><ele>192.4</ele><time>2026-04-11T15:01:05.124Z</time></trkpt><trkpt lat="44.1580233" lon="11.7909517"><ele>193.0</ele><time>2026-04-11T15:01:06.125Z</time></trkpt><trkpt lat="44.1581033" lon="11.790955"><ele>192.99999999999997</ele><time>2026-04-11T15:01:07.124Z</time></trkpt><trkpt lat="44.1581867" lon="11.7909433"><ele>193.0</ele><time>2026-04-11T15:01:08.124Z</time></trkpt><trkpt lat="44.1582583" lon="11.79093"><ele>193.0</ele><time>2026-04-11T15:01:09.123Z</time></trkpt><trkpt lat="44.1583567" lon="11.7908683"><ele>193.0</ele><time>2026-04-11T15:01:11.123Z</time></trkpt><trkpt lat="44.1584" lon="11.7907983"><ele>192.99999999999997</ele><time>2026-04-11T15:01:13.123Z</time></trkpt><trkpt lat="44.1583917" lon="11.7906333"><ele>193.0</ele><time>2026-04-11T15:01:16.123Z</time></trkpt><trkpt lat="44.1583683" lon="11.79051"><ele>192.5</ele><time>2026-04-11T15:01:17.122Z</time></trkpt><trkpt lat="44.1583333" lon="11.7903583"><ele>192.0</ele><time>2026-04-11T15:01:18.123Z</time></trkpt><trkpt lat="44.1582867" lon="11.7901883"><ele>191.5</ele><time>2026-04-11T15:01:19.124Z</time></trkpt><trkpt lat="44.1582317" lon="11.790015"><ele>191.0</ele><time>2026-04-11T15:01:20.123Z</time></trkpt><trkpt lat="44.1581683" lon="11.789835"><ele>193.0</ele><time>2026-04-11T15:01:21.124Z</time></trkpt><trkpt lat="44.1581" lon="11.7896467"><ele>195.0</ele><time>2026-04-11T15:01:22.125Z</time></trkpt><trkpt lat="44.1580317" lon="11.7894567"><ele>197.0</ele><time>2026-04-11T15:01:23.124Z</time></trkpt><trkpt lat="44.157965" lon="11.789255"><ele>197.33333333333334</ele><time>2026-04-11T15:01:24.125Z</time></trkpt><trkpt lat="44.15791" lon="11.7890483"><ele>197.66666666666669</ele><time>2026-04-11T15:01:25.123Z</time></trkpt><trkpt lat="44.1578683" lon="11.7888367"><ele>198.0</ele><time>2026-04-11T15:01:26.123Z</time></trkpt><trkpt lat="44.157835" lon="11.7886183"><ele>198.0</ele><time>2026-04-11T15:01:27.124Z</time></trkpt><trkpt lat="44.1578017" lon="11.7884"><ele>198.0</ele><time>2026-04-11T15:01:28.123Z</time></trkpt><trkpt lat="44.1577717" lon="11.78818"><ele>198.0</ele><time>2026-04-11T15:01:29.124Z</time></trkpt><trkpt lat="44.1577433" lon="11.7879567"><ele>198.0</ele><time>2026-04-11T15:01:30.124Z</time></trkpt><trkpt lat="44.1577133" lon="11.7877367"><ele>198.0</ele><time>2026-04-11T15:01:31.124Z</time></trkpt><trkpt lat="44.1576867" lon="11.7875267"><ele>198.0</ele><time>2026-04-11T15:01:32.124Z</time></trkpt><trkpt lat="44.1576633" lon="11.7873217"><ele>197.5</ele><time>2026-04-11T15:01:33.124Z</time></trkpt><trkpt lat="44.1576433" lon="11.7871167"><ele>197.0</ele><time>2026-04-11T15:01:34.123Z</time></trkpt><trkpt lat="44.1576283" lon="11.786915"><ele>196.5</ele><time>2026-04-11T15:01:35.123Z</time></trkpt><trkpt lat="44.1576167" lon="11.7867167"><ele>196.0</ele><time>2026-04-11T15:01:36.124Z</time></trkpt><trkpt lat="44.1576117" lon="11.7865167"><ele>194.0</ele><time>2026-04-11T15:01:37.123Z</time></trkpt><trkpt lat="44.1576217" lon="11.7863333"><ele>192.0</ele><time>2026-04-11T15:01:38.124Z</time></trkpt><trkpt lat="44.15765" lon="11.786165"><ele>190.0</ele><time>2026-04-11T15:01:39.123Z</time></trkpt><trkpt lat="44.1576967" lon="11.78601"><ele>188.0</ele><time>2026-04-11T15:01:40.123Z</time></trkpt><trkpt lat="44.15776" lon="11.785865"><ele>186.75</ele><time>2026-04-11T15:01:41.124Z</time></trkpt><trkpt lat="44.1578367" lon="11.7857333"><ele>185.5</ele><time>2026-04-11T15:01:42.124Z</time></trkpt><trkpt lat="44.1579167" lon="11.785605"><ele>184.25</ele><time>2026-04-11T15:01:43.124Z</time></trkpt><trkpt lat="44.15799" lon="11.7854583"><ele>183.0</ele><time>2026-04-11T15:01:44.124Z</time></trkpt><trkpt lat="44.1580417" lon="11.7852917"><ele>182.0</ele><time>2026-04-11T15:01:45.124Z</time></trkpt><trkpt lat="44.1580717" lon="11.7851083"><ele>181.0</ele><time>2026-04-11T15:01:46.123Z</time></trkpt><trkpt lat="44.1580883" lon="11.7849133"><ele>180.0</ele><time>2026-04-11T15:01:47.123Z</time></trkpt><trkpt lat="44.1581033" lon="11.7847133"><ele>179.0</ele><time>2026-04-11T15:01:48.123Z</time></trkpt><trkpt lat="44.1581233" lon="11.78451"><ele>178.5</ele><time>2026-04-11T15:01:49.123Z</time></trkpt><trkpt lat="44.1581533" lon="11.784315"><ele>178.0</ele><time>2026-04-11T15:01:50.124Z</time></trkpt><trkpt lat="44.1582" lon="11.784135"><ele>177.5</ele><time>2026-04-11T15:01:51.124Z</time></trkpt><trkpt lat="44.1582617" lon="11.7839683"><ele>177.0</ele><time>2026-04-11T15:01:52.124Z</time></trkpt><trkpt lat="44.1583417" lon="11.783805"><ele>178.25</ele><time>2026-04-11T15:01:53.122Z</time></trkpt><trkpt lat="44.1584267" lon="11.783645"><ele>179.5</ele><time>2026-04-11T15:01:54.124Z</time></trkpt><trkpt lat="44.1585133" lon="11.783475"><ele>180.75</ele><time>2026-04-11T15:01:55.123Z</time></trkpt><trkpt lat="44.1586017" lon="11.7833083"><ele>182.0</ele><time>2026-04-11T15:01:56.123Z</time></trkpt><trkpt lat="44.158685" lon="11.7831467"><ele>183.0</ele><time>2026-04-11T15:01:57.123Z</time></trkpt><trkpt lat="44.1587667" lon="11.7829867"><ele>184.0</ele><time>2026-04-11T15:01:58.125Z</time></trkpt><trkpt lat="44.1588467" lon="11.7828333"><ele>185.0</ele><time>2026-04-11T15:01:59.124Z</time></trkpt><trkpt lat="44.158925" lon="11.7826833"><ele>186.0</ele><time>2026-04-11T15:02:00.124Z</time></trkpt><trkpt lat="44.159" lon="11.7825417"><ele>187.0</ele><time>2026-04-11T15:02:01.123Z</time></trkpt><trkpt lat="44.15907" lon="11.782405"><ele>188.0</ele><time>2026-04-11T15:02:02.123Z</time></trkpt><trkpt lat="44.15913" lon="11.78227"><ele>189.0</ele><time>2026-04-11T15:02:03.124Z</time></trkpt><trkpt lat="44.1591833" lon="11.7821417"><ele>190.0</ele><time>2026-04-11T15:02:04.123Z</time></trkpt><trkpt lat="44.1592183" lon="11.7820233"><ele>191.0</ele><time>2026-04-11T15:02:05.123Z</time></trkpt><trkpt lat="44.1592317" lon="11.781915"><ele>191.20000000000002</ele><time>2026-04-11T15:02:06.123Z</time></trkpt><trkpt lat="44.15922" lon="11.7818167"><ele>191.4</ele><time>2026-04-11T15:02:07.123Z</time></trkpt><trkpt lat="44.159185" lon="11.781715"><ele>191.6</ele><time>2026-04-11T15:02:08.124Z</time></trkpt><trkpt lat="44.1591267" lon="11.781605"><ele>191.8</ele><time>2026-04-11T15:02:09.124Z</time></trkpt><trkpt lat="44.1590583" lon="11.7814817"><ele>192.0</ele><time>2026-04-11T15:02:10.123Z</time></trkpt><trkpt lat="44.1589867" lon="11.7813433"><ele>192.0</ele><time>2026-04-11T15:02:11.123Z</time></trkpt><trkpt lat="44.1589067" lon="11.781195"><ele>192.0</ele><time>2026-04-11T15:02:12.123Z</time></trkpt><trkpt lat="44.1588217" lon="11.7810417"><ele>192.0</ele><time>2026-04-11T15:02:13.123Z</time></trkpt><trkpt lat="44.1587333" lon="11.7808833"><ele>192.0</ele><time>2026-04-11T15:02:14.123Z</time></trkpt><trkpt lat="44.158645" lon="11.78072"><ele>193.25</ele><time>2026-04-11T15:02:15.125Z</time></trkpt><trkpt lat="44.1585567" lon="11.7805617"><ele>194.5</ele><time>2026-04-11T15:02:16.123Z</time></trkpt><trkpt lat="44.1584783" lon="11.7804117"><ele>195.75</ele><time>2026-04-11T15:02:17.123Z</time></trkpt><trkpt lat="44.1584017" lon="11.7802717"><ele>197.0</ele><time>2026-04-11T15:02:18.123Z</time></trkpt><trkpt lat="44.1583267" lon="11.7801267"><ele>199.0</ele><time>2026-04-11T15:02:19.122Z</time></trkpt><trkpt lat="44.1582533" lon="11.779975"><ele>201.0</ele><time>2026-04-11T15:02:20.123Z</time></trkpt><trkpt lat="44.15818" lon="11.7798217"><ele>203.0</ele><time>2026-04-11T15:02:21.123Z</time></trkpt><trkpt lat="44.158105" lon="11.7796683"><ele>205.0</ele><time>2026-04-11T15:02:22.123Z</time></trkpt><trkpt lat="44.1580267" lon="11.7795167"><ele>202.25</ele><time>2026-04-11T15:02:23.123Z</time></trkpt><trkpt lat="44.1579433" lon="11.7793617"><ele>199.5</ele><time>2026-04-11T15:02:24.125Z</time></trkpt><trkpt lat="44.1578583" lon="11.7792083"><ele>196.75</ele><time>2026-04-11T15:02:25.125Z</time></trkpt><trkpt lat="44.1577833" lon="11.77906"><ele>194.0</ele><time>2026-04-11T15:02:26.124Z</time></trkpt><trkpt lat="44.1577117" lon="11.7789083"><ele>194.0</ele><time>2026-04-11T15:02:27.124Z</time></trkpt><trkpt lat="44.157635" lon="11.77876"><ele>194.0</ele><time>2026-04-11T15:02:28.123Z</time></trkpt><trkpt lat="44.15755" lon="11.7786267"><ele>194.0</ele><time>2026-04-11T15:02:29.124Z</time></trkpt><trkpt lat="44.1574533" lon="11.7785017"><ele>194.0</ele><time>2026-04-11T15:02:30.124Z</time></trkpt><trkpt lat="44.15735" lon="11.778385"><ele>193.75</ele><time>2026-04-11T15:02:31.124Z</time></trkpt><trkpt lat="44.15724" lon="11.7782683"><ele>193.5</ele><time>2026-04-11T15:02:32.125Z</time></trkpt><trkpt lat="44.157125" lon="11.7781533"><ele>193.25</ele><time>2026-04-11T15:02:33.126Z</time></trkpt><trkpt lat="44.1570083" lon="11.7780267"><ele>193.0</ele><time>2026-04-11T15:02:34.126Z</time></trkpt><trkpt lat="44.156905" lon="11.777875"><ele>193.0</ele><time>2026-04-11T15:02:35.125Z</time></trkpt><trkpt lat="44.1568" lon="11.7777483"><ele>193.0</ele><time>2026-04-11T15:02:36.126Z</time></trkpt><trkpt lat="44.1567133" lon="11.7776233"><ele>193.0</ele><time>2026-04-11T15:02:37.126Z</time></trkpt><trkpt lat="44.15664" lon="11.7774817"><ele>193.0</ele><time>2026-04-11T15:02:38.126Z</time></trkpt><trkpt lat="44.1565817" lon="11.7773217"><ele>193.0</ele><time>2026-04-11T15:02:39.126Z</time></trkpt><trkpt lat="44.15653" lon="11.7771517"><ele>193.0</ele><time>2026-04-11T15:02:40.125Z</time></trkpt><trkpt lat="44.156485" lon="11.7769667"><ele>193.0</ele><time>2026-04-11T15:02:41.124Z</time></trkpt><trkpt lat="44.156435" lon="11.7767767"><ele>193.0</ele><time>2026-04-11T15:02:42.124Z</time></trkpt><trkpt lat="44.1563917" lon="11.77658"><ele>193.0</ele><time>2026-04-11T15:02:43.123Z</time></trkpt><trkpt lat="44.15635" lon="11.7763733"><ele>193.0</ele><time>2026-04-11T15:02:44.123Z</time></trkpt><trkpt lat="44.15631" lon="11.776175"><ele>193.0</ele><time>2026-04-11T15:02:45.123Z</time></trkpt><trkpt lat="44.1562683" lon="11.7760067"><ele>193.0</ele><time>2026-04-11T15:02:46.125Z</time></trkpt><trkpt lat="44.1562267" lon="11.7758833"><ele>193.33333333333331</ele><time>2026-04-11T15:02:47.124Z</time></trkpt><trkpt lat="44.1561933" lon="11.775785"><ele>193.66666666666666</ele><time>2026-04-11T15:02:48.124Z</time></trkpt><trkpt lat="44.15617" lon="11.7756433"><ele>194.0</ele><time>2026-04-11T15:02:50.124Z</time></trkpt><trkpt lat="44.1562167" lon="11.77554"><ele>194.33333333333331</ele><time>2026-04-11T15:02:52.124Z</time></trkpt><trkpt lat="44.156275" lon="11.7754883"><ele>194.66666666666666</ele><time>2026-04-11T15:02:53.124Z</time></trkpt><trkpt lat="44.1563517" lon="11.7754383"><ele>195.0</ele><time>2026-04-11T15:02:54.123Z</time></trkpt><trkpt lat="44.1564433" lon="11.7753867"><ele>197.5</ele><time>2026-04-11T15:02:55.126Z</time></trkpt><trkpt lat="44.1565467" lon="11.77533"><ele>200.0</ele><time>2026-04-11T15:02:56.125Z</time></trkpt><trkpt lat="44.1566583" lon="11.77527"><ele>202.5</ele><time>2026-04-11T15:02:57.124Z</time></trkpt><trkpt lat="44.156775" lon="11.7752083"><ele>205.0</ele><time>2026-04-11T15:02:58.124Z</time></trkpt><trkpt lat="44.1568933" lon="11.7751433"><ele>206.0</ele><time>2026-04-11T15:02:59.124Z</time></trkpt><trkpt lat="44.1570133" lon="11.7750767"><ele>207.0</ele><time>2026-04-11T15:03:00.125Z</time></trkpt><trkpt lat="44.1571333" lon="11.77501"><ele>208.0</ele><time>2026-04-11T15:03:01.123Z</time></trkpt><trkpt lat="44.1572533" lon="11.77494"><ele>209.0</ele><time>2026-04-11T15:03:02.125Z</time></trkpt><trkpt lat="44.1573717" lon="11.77487"><ele>210.0</ele><time>2026-04-11T15:03:03.125Z</time></trkpt><trkpt lat="44.1574883" lon="11.7748"><ele>211.0</ele><time>2026-04-11T15:03:04.125Z</time></trkpt><trkpt lat="44.157595" lon="11.7747183"><ele>212.0</ele><time>2026-04-11T15:03:05.127Z</time></trkpt><trkpt lat="44.1576883" lon="11.7746083"><ele>213.0</ele><time>2026-04-11T15:03:06.126Z</time></trkpt><trkpt lat="44.15777" lon="11.7744717"><ele>214.5</ele><time>2026-04-11T15:03:07.125Z</time></trkpt><trkpt lat="44.15785" lon="11.77433"><ele>216.0</ele><time>2026-04-11T15:03:08.124Z</time></trkpt><trkpt lat="44.15793" lon="11.7741883"><ele>217.5</ele><time>2026-04-11T15:03:09.124Z</time></trkpt><trkpt lat="44.1580017" lon="11.7740517"><ele>219.0</ele><time>2026-04-11T15:03:10.126Z</time></trkpt><trkpt lat="44.158055" lon="11.7739283"><ele>219.0</ele><time>2026-04-11T15:03:11.124Z</time></trkpt><trkpt lat="44.1580733" lon="11.7738083"><ele>219.0</ele><time>2026-04-11T15:03:12.124Z</time></trkpt><trkpt lat="44.158065" lon="11.7736967"><ele>219.0</ele><time>2026-04-11T15:03:13.124Z</time></trkpt><trkpt lat="44.1579967" lon="11.7736267"><ele>219.0</ele><time>2026-04-11T15:03:14.124Z</time></trkpt><trkpt lat="44.157915" lon="11.773595"><ele>219.0</ele><time>2026-04-11T15:03:15.124Z</time></trkpt><trkpt lat="44.1578067" lon="11.7736183"><ele>219.0</ele><time>2026-04-11T15:03:16.128Z</time></trkpt><trkpt lat="44.157685" lon="11.7736717"><ele>219.0</ele><time>2026-04-11T15:03:17.124Z</time></trkpt><trkpt lat="44.1575617" lon="11.7737267"><ele>218.99999999999997</ele><time>2026-04-11T15:03:18.124Z</time></trkpt><trkpt lat="44.157445" lon="11.77378"><ele>218.99999999999997</ele><time>2026-04-11T15:03:19.124Z</time></trkpt><trkpt lat="44.1573417" lon="11.77381"><ele>219.0</ele><time>2026-04-11T15:03:20.126Z</time></trkpt><trkpt lat="44.1572533" lon="11.7738067"><ele>219.0</ele><time>2026-04-11T15:03:21.126Z</time></trkpt><trkpt lat="44.1571867" lon="11.7737717"><ele>219.79999999999998</ele><time>2026-04-11T15:03:22.126Z</time></trkpt><trkpt lat="44.1571733" lon="11.7736217"><ele>220.59999999999997</ele><time>2026-04-11T15:03:24.125Z</time></trkpt><trkpt lat="44.15724" lon="11.77353"><ele>221.4</ele><time>2026-04-11T15:03:25.127Z</time></trkpt><trkpt lat="44.157315" lon="11.773435"><ele>222.2</ele><time>2026-04-11T15:03:26.125Z</time></trkpt><trkpt lat="44.15741" lon="11.7733233"><ele>223.0</ele><time>2026-04-11T15:03:27.126Z</time></trkpt><trkpt lat="44.157505" lon="11.7732067"><ele>224.25</ele><time>2026-04-11T15:03:28.126Z</time></trkpt><trkpt lat="44.1576083" lon="11.7730867"><ele>225.5</ele><time>2026-04-11T15:03:29.126Z</time></trkpt><trkpt lat="44.15771" lon="11.7729683"><ele>226.75</ele><time>2026-04-11T15:03:30.127Z</time></trkpt><trkpt lat="44.1578117" lon="11.7728517"><ele>228.0</ele><time>2026-04-11T15:03:31.126Z</time></trkpt><trkpt lat="44.1579117" lon="11.7727283"><ele>230.75</ele><time>2026-04-11T15:03:32.127Z</time></trkpt><trkpt lat="44.1580183" lon="11.7726017"><ele>233.5</ele><time>2026-04-11T15:03:33.126Z</time></trkpt><trkpt lat="44.1581217" lon="11.7724833"><ele>236.25</ele><time>2026-04-11T15:03:34.124Z</time></trkpt><trkpt lat="44.1582317" lon="11.7723733"><ele>239.0</ele><time>2026-04-11T15:03:35.127Z</time></trkpt><trkpt lat="44.1583433" lon="11.77227"><ele>239.0</ele><time>2026-04-11T15:03:36.126Z</time></trkpt><trkpt lat="44.1584483" lon="11.7721583"><ele>239.0</ele><time>2026-04-11T15:03:37.124Z</time></trkpt><trkpt lat="44.1585367" lon="11.7720433"><ele>239.0</ele><time>2026-04-11T15:03:38.124Z</time></trkpt><trkpt lat="44.1586033" lon="11.7719283"><ele>239.0</ele><time>2026-04-11T15:03:39.124Z</time></trkpt><trkpt lat="44.158665" lon="11.7718267"><ele>240.33333333333334</ele><time>2026-04-11T15:03:40.123Z</time></trkpt><trkpt lat="44.158725" lon="11.7717667"><ele>241.66666666666669</ele><time>2026-04-11T15:03:41.125Z</time></trkpt><trkpt lat="44.1587917" lon="11.7717383"><ele>243.0</ele><time>2026-04-11T15:03:42.125Z</time></trkpt><trkpt lat="44.1588717" lon="11.771745"><ele>244.33333333333331</ele><time>2026-04-11T15:03:43.124Z</time></trkpt><trkpt lat="44.1589617" lon="11.7717633"><ele>245.66666666666666</ele><time>2026-04-11T15:03:44.129Z</time></trkpt><trkpt lat="44.1590483" lon="11.7717667"><ele>247.0</ele><time>2026-04-11T15:03:45.124Z</time></trkpt><trkpt lat="44.159135" lon="11.77174"><ele>247.0</ele><time>2026-04-11T15:03:46.124Z</time></trkpt><trkpt lat="44.1592283" lon="11.77168"><ele>247.0</ele><time>2026-04-11T15:03:47.124Z</time></trkpt><trkpt lat="44.1593233" lon="11.7716117"><ele>247.0</ele><time>2026-04-11T15:03:48.124Z</time></trkpt><trkpt lat="44.15941" lon="11.77152"><ele>247.0</ele><time>2026-04-11T15:03:49.124Z</time></trkpt><trkpt lat="44.15948" lon="11.771415"><ele>247.0</ele><time>2026-04-11T15:03:50.126Z</time></trkpt><trkpt lat="44.159535" lon="11.7712883"><ele>247.0</ele><time>2026-04-11T15:03:51.124Z</time></trkpt><trkpt lat="44.1595767" lon="11.77115"><ele>247.0</ele><time>2026-04-11T15:03:52.125Z</time></trkpt><trkpt lat="44.15961" lon="11.771"><ele>247.0</ele><time>2026-04-11T15:03:53.123Z</time></trkpt><trkpt lat="44.1596467" lon="11.770835"><ele>247.0</ele><time>2026-04-11T15:03:54.124Z</time></trkpt><trkpt lat="44.1596883" lon="11.77066"><ele>250.75</ele><time>2026-04-11T15:03:55.126Z</time></trkpt><trkpt lat="44.1597267" lon="11.7704817"><ele>254.5</ele><time>2026-04-11T15:03:56.126Z</time></trkpt><trkpt lat="44.1597667" lon="11.7703033"><ele>258.25</ele><time>2026-04-11T15:03:57.129Z</time></trkpt><trkpt lat="44.1598133" lon="11.7701217"><ele>262.0</ele><time>2026-04-11T15:03:58.126Z</time></trkpt><trkpt lat="44.1598717" lon="11.7699583"><ele>262.5</ele><time>2026-04-11T15:03:59.126Z</time></trkpt><trkpt lat="44.159945" lon="11.7698283"><ele>263.0</ele><time>2026-04-11T15:04:00.124Z</time></trkpt><trkpt lat="44.1600317" lon="11.769715"><ele>263.5</ele><time>2026-04-11T15:04:01.124Z</time></trkpt><trkpt lat="44.1601283" lon="11.7696117"><ele>264.0</ele><time>2026-04-11T15:04:02.125Z</time></trkpt><trkpt lat="44.1602267" lon="11.769515"><ele>264.0</ele><time>2026-04-11T15:04:03.124Z</time></trkpt><trkpt lat="44.1603183" lon="11.7694117"><ele>264.0</ele><time>2026-04-11T15:04:04.124Z</time></trkpt><trkpt lat="44.1603883" lon="11.7692883"><ele>264.0</ele><time>2026-04-11T15:04:05.125Z</time></trkpt><trkpt lat="44.1604467" lon="11.7691433"><ele>264.0</ele><time>2026-04-11T15:04:06.125Z</time></trkpt><trkpt lat="44.160495" lon="11.7689817"><ele>266.5</ele><time>2026-04-11T15:04:07.124Z</time></trkpt><trkpt lat="44.16054" lon="11.768815"><ele>269.0</ele><time>2026-04-11T15:04:08.125Z</time></trkpt><trkpt lat="44.1605867" lon="11.7686467"><ele>271.5</ele><time>2026-04-11T15:04:09.126Z</time></trkpt><trkpt lat="44.1606367" lon="11.7684733"><ele>274.0</ele><time>2026-04-11T15:04:10.123Z</time></trkpt><trkpt lat="44.1606883" lon="11.768295"><ele>273.0</ele><time>2026-04-11T15:04:11.124Z</time></trkpt><trkpt lat="44.1607483" lon="11.7681167"><ele>272.0</ele><time>2026-04-11T15:04:12.125Z</time></trkpt><trkpt lat="44.1608183" lon="11.7679483"><ele>271.0</ele><time>2026-04-11T15:04:13.124Z</time></trkpt><trkpt lat="44.1609" lon="11.7677867"><ele>270.0</ele><time>2026-04-11T15:04:14.125Z</time></trkpt><trkpt lat="44.16099" lon="11.76763"><ele>273.75</ele><time>2026-04-11T15:04:15.124Z</time></trkpt><trkpt lat="44.1610833" lon="11.7674667"><ele>277.5</ele><time>2026-04-11T15:04:16.124Z</time></trkpt><trkpt lat="44.161175" lon="11.767305"><ele>281.25</ele><time>2026-04-11T15:04:17.125Z</time></trkpt><trkpt lat="44.16126" lon="11.7671517"><ele>285.0</ele><time>2026-04-11T15:04:18.124Z</time></trkpt><trkpt lat="44.16133" lon="11.7669883"><ele>287.25</ele><time>2026-04-11T15:04:19.124Z</time></trkpt><trkpt lat="44.1613733" lon="11.7668067"><ele>289.5</ele><time>2026-04-11T15:04:20.124Z</time></trkpt><trkpt lat="44.161405" lon="11.766615"><ele>291.75</ele><time>2026-04-11T15:04:21.125Z</time></trkpt><trkpt lat="44.161435" lon="11.7664133"><ele>294.0</ele><time>2026-04-11T15:04:22.124Z</time></trkpt><trkpt lat="44.1614633" lon="11.7662183"><ele>294.0</ele><time>2026-04-11T15:04:23.124Z</time></trkpt><trkpt lat="44.1614933" lon="11.7660433"><ele>294.0</ele><time>2026-04-11T15:04:24.124Z</time></trkpt><trkpt lat="44.1615083" lon="11.7658933"><ele>294.0</ele><time>2026-04-11T15:04:25.124Z</time></trkpt><trkpt lat="44.1614967" lon="11.765775"><ele>294.0</ele><time>2026-04-11T15:04:26.124Z</time></trkpt><trkpt lat="44.1614533" lon="11.76568"><ele>294.0</ele><time>2026-04-11T15:04:27.126Z</time></trkpt><trkpt lat="44.16138" lon="11.7656583"><ele>295.75</ele><time>2026-04-11T15:04:28.124Z</time></trkpt><trkpt lat="44.1613017" lon="11.7656733"><ele>297.5</ele><time>2026-04-11T15:04:29.124Z</time></trkpt><trkpt lat="44.161205" lon="11.765765"><ele>299.25</ele><time>2026-04-11T15:04:30.125Z</time></trkpt><trkpt lat="44.1610967" lon="11.7658733"><ele>301.0</ele><time>2026-04-11T15:04:31.123Z</time></trkpt><trkpt lat="44.1609783" lon="11.76597"><ele>302.25</ele><time>2026-04-11T15:04:32.124Z</time></trkpt><trkpt lat="44.1608467" lon="11.7660333"><ele>303.5</ele><time>2026-04-11T15:04:33.124Z</time></trkpt><trkpt lat="44.1607083" lon="11.7660783"><ele>304.75</ele><time>2026-04-11T15:04:34.124Z</time></trkpt><trkpt lat="44.16057" lon="11.7661167"><ele>306.0</ele><time>2026-04-11T15:04:35.124Z</time></trkpt><trkpt lat="44.16043" lon="11.7661583"><ele>306.0</ele><time>2026-04-11T15:04:36.125Z</time></trkpt><trkpt lat="44.1602883" lon="11.7662017"><ele>306.0</ele><time>2026-04-11T15:04:37.124Z</time></trkpt><trkpt lat="44.160145" lon="11.76625"><ele>306.0</ele><time>2026-04-11T15:04:38.124Z</time></trkpt><trkpt lat="44.1600017" lon="11.7663"><ele>306.0</ele><time>2026-04-11T15:04:39.124Z</time></trkpt><trkpt lat="44.15986" lon="11.7663567"><ele>310.6666666666667</ele><time>2026-04-11T15:04:40.124Z</time></trkpt><trkpt lat="44.1597183" lon="11.7664267"><ele>315.33333333333337</ele><time>2026-04-11T15:04:41.124Z</time></trkpt><trkpt lat="44.1595717" lon="11.7665017"><ele>320.0</ele><time>2026-04-11T15:04:42.125Z</time></trkpt><trkpt lat="44.1594233" lon="11.7665783"><ele>320.0</ele><time>2026-04-11T15:04:43.125Z</time></trkpt><trkpt lat="44.15927" lon="11.7666567"><ele>320.0</ele><time>2026-04-11T15:04:44.125Z</time></trkpt><trkpt lat="44.159115" lon="11.7667383"><ele>320.0</ele><time>2026-04-11T15:04:45.125Z</time></trkpt><trkpt lat="44.158955" lon="11.766825"><ele>320.0</ele><time>2026-04-11T15:04:46.124Z</time></trkpt><trkpt lat="44.1587883" lon="11.7669167"><ele>320.0</ele><time>2026-04-11T15:04:47.124Z</time></trkpt><trkpt lat="44.1586217" lon="11.7670067"><ele>320.0</ele><time>2026-04-11T15:04:48.123Z</time></trkpt><trkpt lat="44.1584633" lon="11.7670867"><ele>320.0</ele><time>2026-04-11T15:04:49.123Z</time></trkpt><trkpt lat="44.158325" lon="11.767155"><ele>320.0</ele><time>2026-04-11T15:04:50.125Z</time></trkpt><trkpt lat="44.1582033" lon="11.7672083"><ele>320.0</ele><time>2026-04-11T15:04:51.125Z</time></trkpt><trkpt lat="44.158085" lon="11.767235"><ele>320.0</ele><time>2026-04-11T15:04:52.123Z</time></trkpt><trkpt lat="44.1579567" lon="11.7672283"><ele>321.5</ele><time>2026-04-11T15:04:53.125Z</time></trkpt><trkpt lat="44.1578167" lon="11.7671967"><ele>323.0</ele><time>2026-04-11T15:04:54.124Z</time></trkpt><trkpt lat="44.157675" lon="11.7671683"><ele>324.5</ele><time>2026-04-11T15:04:55.124Z</time></trkpt><trkpt lat="44.1575267" lon="11.7671617"><ele>326.0</ele><time>2026-04-11T15:04:56.124Z</time></trkpt><trkpt lat="44.157375" lon="11.767175"><ele>328.0</ele><time>2026-04-11T15:04:57.126Z</time></trkpt><trkpt lat="44.1572217" lon="11.767195"><ele>330.0</ele><time>2026-04-11T15:04:58.123Z</time></trkpt><trkpt lat="44.1570667" lon="11.7672133"><ele>332.0</ele><time>2026-04-11T15:04:59.125Z</time></trkpt><trkpt lat="44.15691" lon="11.767235"><ele>332.0</ele><time>2026-04-11T15:05:00.125Z</time></trkpt><trkpt lat="44.156755" lon="11.7672567"><ele>332.0</ele><time>2026-04-11T15:05:01.124Z</time></trkpt><trkpt lat="44.1566083" lon="11.7672833"><ele>332.0</ele><time>2026-04-11T15:05:02.126Z</time></trkpt><trkpt lat="44.1564733" lon="11.7673217"><ele>332.0</ele><time>2026-04-11T15:05:03.125Z</time></trkpt><trkpt lat="44.1563517" lon="11.7673667"><ele>334.40000000000003</ele><time>2026-04-11T15:05:04.126Z</time></trkpt><trkpt lat="44.1562433" lon="11.76741"><ele>336.8</ele><time>2026-04-11T15:05:05.124Z</time></trkpt><trkpt lat="44.15615" lon="11.7674417"><ele>339.2</ele><time>2026-04-11T15:05:06.124Z</time></trkpt><trkpt lat="44.1560617" lon="11.7674533"><ele>341.6</ele><time>2026-04-11T15:05:07.124Z</time></trkpt><trkpt lat="44.15598" lon="11.7674383"><ele>344.0</ele><time>2026-04-11T15:05:08.125Z</time></trkpt><trkpt lat="44.155915" lon="11.7673883"><ele>344.0</ele><time>2026-04-11T15:05:09.123Z</time></trkpt><trkpt lat="44.1558783" lon="11.7672967"><ele>344.0</ele><time>2026-04-11T15:05:10.124Z</time></trkpt><trkpt lat="44.1558883" lon="11.7671783"><ele>344.0</ele><time>2026-04-11T15:05:11.124Z</time></trkpt><trkpt lat="44.15592" lon="11.7670767"><ele>344.0</ele><time>2026-04-11T15:05:12.123Z</time></trkpt><trkpt lat="44.15599" lon="11.7670017"><ele>344.0</ele><time>2026-04-11T15:05:13.125Z</time></trkpt><trkpt lat="44.1560767" lon="11.7669333"><ele>344.0</ele><time>2026-04-11T15:05:14.124Z</time></trkpt><trkpt lat="44.156195" lon="11.76688"><ele>345.0</ele><time>2026-04-11T15:05:15.125Z</time></trkpt><trkpt lat="44.15632" lon="11.7667967"><ele>346.0</ele><time>2026-04-11T15:05:16.124Z</time></trkpt><trkpt lat="44.15643" lon="11.76669"><ele>347.0</ele><time>2026-04-11T15:05:17.125Z</time></trkpt><trkpt lat="44.15651" lon="11.766565"><ele>348.0</ele><time>2026-04-11T15:05:18.125Z</time></trkpt><trkpt lat="44.15658" lon="11.76642"><ele>348.0</ele><time>2026-04-11T15:05:19.124Z</time></trkpt><trkpt lat="44.1566467" lon="11.7662633"><ele>348.0</ele><time>2026-04-11T15:05:20.124Z</time></trkpt><trkpt lat="44.1567183" lon="11.7661017"><ele>348.0</ele><time>2026-04-11T15:05:21.129Z</time></trkpt><trkpt lat="44.1567983" lon="11.765945"><ele>348.0</ele><time>2026-04-11T15:05:22.124Z</time></trkpt><trkpt lat="44.1568817" lon="11.7657883"><ele>351.25</ele><time>2026-04-11T15:05:23.124Z</time></trkpt><trkpt lat="44.156965" lon="11.76563"><ele>354.5</ele><time>2026-04-11T15:05:24.123Z</time></trkpt><trkpt lat="44.1570517" lon="11.765475"><ele>357.75</ele><time>2026-04-11T15:05:25.124Z</time></trkpt><trkpt lat="44.1571367" lon="11.76532"><ele>361.0</ele><time>2026-04-11T15:05:26.124Z</time></trkpt><trkpt lat="44.1572183" lon="11.7651617"><ele>361.25</ele><time>2026-04-11T15:05:27.125Z</time></trkpt><trkpt lat="44.1572983" lon="11.765005"><ele>361.5</ele><time>2026-04-11T15:05:28.126Z</time></trkpt><trkpt lat="44.1573717" lon="11.7648533"><ele>361.75</ele><time>2026-04-11T15:05:29.124Z</time></trkpt><trkpt lat="44.1574417" lon="11.7647183"><ele>362.0</ele><time>2026-04-11T15:05:30.124Z</time></trkpt><trkpt lat="44.15752" lon="11.764605"><ele>362.0</ele><time>2026-04-11T15:05:31.124Z</time></trkpt><trkpt lat="44.1576033" lon="11.7645033"><ele>362.0</ele><time>2026-04-11T15:05:32.124Z</time></trkpt><trkpt lat="44.15769" lon="11.7644117"><ele>362.0</ele><time>2026-04-11T15:05:33.124Z</time></trkpt><trkpt lat="44.15777" lon="11.7643267"><ele>362.0</ele><time>2026-04-11T15:05:34.124Z</time></trkpt><trkpt lat="44.1578333" lon="11.7642467"><ele>362.0</ele><time>2026-04-11T15:05:35.125Z</time></trkpt><trkpt lat="44.1578733" lon="11.7641617"><ele>364.0</ele><time>2026-04-11T15:05:36.124Z</time></trkpt><trkpt lat="44.15789" lon="11.764065"><ele>366.0</ele><time>2026-04-11T15:05:37.124Z</time></trkpt><trkpt lat="44.1578783" lon="11.763955"><ele>368.0</ele><time>2026-04-11T15:05:38.124Z</time></trkpt><trkpt lat="44.15785" lon="11.763845"><ele>370.0</ele><time>2026-04-11T15:05:39.124Z</time></trkpt><trkpt lat="44.15779" lon="11.763745"><ele>372.0</ele><time>2026-04-11T15:05:40.124Z</time></trkpt><trkpt lat="44.1577117" lon="11.763675"><ele>374.0</ele><time>2026-04-11T15:05:41.124Z</time></trkpt><trkpt lat="44.157615" lon="11.7636467"><ele>374.0</ele><time>2026-04-11T15:05:42.124Z</time></trkpt><trkpt lat="44.15752" lon="11.763625"><ele>374.0</ele><time>2026-04-11T15:05:43.125Z</time></trkpt><trkpt lat="44.1574133" lon="11.7636333"><ele>374.0</ele><time>2026-04-11T15:05:44.126Z</time></trkpt><trkpt lat="44.1573083" lon="11.7636667"><ele>374.0</ele><time>2026-04-11T15:05:45.124Z</time></trkpt><trkpt lat="44.1572067" lon="11.7636917"><ele>374.0</ele><time>2026-04-11T15:05:46.124Z</time></trkpt><trkpt lat="44.1571017" lon="11.7637017"><ele>375.2</ele><time>2026-04-11T15:05:47.125Z</time></trkpt><trkpt lat="44.156995" lon="11.7637"><ele>376.4</ele><time>2026-04-11T15:05:48.124Z</time></trkpt><trkpt lat="44.1568883" lon="11.7637017"><ele>377.6</ele><time>2026-04-11T15:05:49.124Z</time></trkpt><trkpt lat="44.156775" lon="11.7637117"><ele>378.8</ele><time>2026-04-11T15:05:50.125Z</time></trkpt><trkpt lat="44.1566583" lon="11.7637167"><ele>380.0</ele><time>2026-04-11T15:05:51.124Z</time></trkpt><trkpt lat="44.15654" lon="11.7637133"><ele>382.25</ele><time>2026-04-11T15:05:52.123Z</time></trkpt><trkpt lat="44.15642" lon="11.7637017"><ele>384.5</ele><time>2026-04-11T15:05:53.124Z</time></trkpt><trkpt lat="44.1562967" lon="11.7636933"><ele>386.75</ele><time>2026-04-11T15:05:54.124Z</time></trkpt><trkpt lat="44.1561667" lon="11.7636817"><ele>389.0</ele><time>2026-04-11T15:05:55.124Z</time></trkpt><trkpt lat="44.1560333" lon="11.7636733"><ele>389.0</ele><time>2026-04-11T15:05:56.124Z</time></trkpt><trkpt lat="44.1559" lon="11.763665"><ele>389.0</ele><time>2026-04-11T15:05:57.125Z</time></trkpt><trkpt lat="44.1557717" lon="11.76366"><ele>389.0</ele><time>2026-04-11T15:05:58.124Z</time></trkpt><trkpt lat="44.1556483" lon="11.7636717"><ele>389.0</ele><time>2026-04-11T15:05:59.124Z</time></trkpt><trkpt lat="44.155535" lon="11.76371"><ele>392.5</ele><time>2026-04-11T15:06:00.125Z</time></trkpt><trkpt lat="44.155425" lon="11.7637667"><ele>396.0</ele><time>2026-04-11T15:06:01.123Z</time></trkpt><trkpt lat="44.1553183" lon="11.7638333"><ele>399.5</ele><time>2026-04-11T15:06:02.124Z</time></trkpt><trkpt lat="44.155215" lon="11.7639117"><ele>403.0</ele><time>2026-04-11T15:06:03.124Z</time></trkpt><trkpt lat="44.1551133" lon="11.764005"><ele>403.0</ele><time>2026-04-11T15:06:04.123Z</time></trkpt><trkpt lat="44.155015" lon="11.7641017"><ele>403.0</ele><time>2026-04-11T15:06:05.125Z</time></trkpt><trkpt lat="44.1549183" lon="11.764175"><ele>403.0</ele><time>2026-04-11T15:06:06.124Z</time></trkpt><trkpt lat="44.1548267" lon="11.764205"><ele>403.0</ele><time>2026-04-11T15:06:07.125Z</time></trkpt><trkpt lat="44.1547617" lon="11.76416"><ele>403.0</ele><time>2026-04-11T15:06:08.125Z</time></trkpt><trkpt lat="44.1547133" lon="11.7640783"><ele>402.25</ele><time>2026-04-11T15:06:09.125Z</time></trkpt><trkpt lat="44.15472" lon="11.7639517"><ele>401.5</ele><time>2026-04-11T15:06:10.124Z</time></trkpt><trkpt lat="44.154745" lon="11.7638017"><ele>400.75</ele><time>2026-04-11T15:06:11.125Z</time></trkpt><trkpt lat="44.154805" lon="11.7636483"><ele>400.0</ele><time>2026-04-11T15:06:12.123Z</time></trkpt><trkpt lat="44.15489" lon="11.7635233"><ele>400.0</ele><time>2026-04-11T15:06:13.125Z</time></trkpt><trkpt lat="44.1549917" lon="11.7634133"><ele>400.0</ele><time>2026-04-11T15:06:14.125Z</time></trkpt><trkpt lat="44.155085" lon="11.76331"><ele>400.0</ele><time>2026-04-11T15:06:15.125Z</time></trkpt><trkpt lat="44.1551683" lon="11.7631883"><ele>400.0</ele><time>2026-04-11T15:06:16.124Z</time></trkpt><trkpt lat="44.1552417" lon="11.7630483"><ele>400.0</ele><time>2026-04-11T15:06:17.124Z</time></trkpt><trkpt lat="44.1552983" lon="11.7629067"><ele>400.0</ele><time>2026-04-11T15:06:18.124Z</time></trkpt><trkpt lat="44.155345" lon="11.7627683"><ele>400.0</ele><time>2026-04-11T15:06:19.124Z</time></trkpt><trkpt lat="44.1553917" lon="11.7626317"><ele>400.0</ele><time>2026-04-11T15:06:20.125Z</time></trkpt><trkpt lat="44.15544" lon="11.7624867"><ele>400.0</ele><time>2026-04-11T15:06:21.125Z</time></trkpt><trkpt lat="44.1554883" lon="11.76234"><ele>399.75</ele><time>2026-04-11T15:06:22.125Z</time></trkpt><trkpt lat="44.1555367" lon="11.7621917"><ele>399.5</ele><time>2026-04-11T15:06:23.124Z</time></trkpt><trkpt lat="44.1555883" lon="11.7620367"><ele>399.25</ele><time>2026-04-11T15:06:24.125Z</time></trkpt><trkpt lat="44.15564" lon="11.7618817"><ele>399.0</ele><time>2026-04-11T15:06:25.125Z</time></trkpt><trkpt lat="44.155695" lon="11.7617233"><ele>403.0</ele><time>2026-04-11T15:06:26.125Z</time></trkpt><trkpt lat="44.15575" lon="11.7615583"><ele>407.0</ele><time>2026-04-11T15:06:27.125Z</time></trkpt><trkpt lat="44.15581" lon="11.7613817"><ele>411.0</ele><time>2026-04-11T15:06:28.124Z</time></trkpt><trkpt lat="44.15587" lon="11.7611983"><ele>415.0</ele><time>2026-04-11T15:06:29.124Z</time></trkpt><trkpt lat="44.1559267" lon="11.76101"><ele>416.33333333333337</ele><time>2026-04-11T15:06:30.125Z</time></trkpt><trkpt lat="44.1559817" lon="11.7608133"><ele>417.66666666666663</ele><time>2026-04-11T15:06:31.124Z</time></trkpt><trkpt lat="44.1560283" lon="11.7606083"><ele>419.0</ele><time>2026-04-11T15:06:32.124Z</time></trkpt><trkpt lat="44.1560683" lon="11.7604"><ele>421.3333333333333</ele><time>2026-04-11T15:06:33.124Z</time></trkpt><trkpt lat="44.1561033" lon="11.76019"><ele>423.66666666666663</ele><time>2026-04-11T15:06:34.125Z</time></trkpt><trkpt lat="44.1561383" lon="11.7599817"><ele>426.0</ele><time>2026-04-11T15:06:35.124Z</time></trkpt><trkpt lat="44.1561683" lon="11.7597733"><ele>426.0</ele><time>2026-04-11T15:06:36.124Z</time></trkpt><trkpt lat="44.1562033" lon="11.7595667"><ele>426.0</ele><time>2026-04-11T15:06:37.124Z</time></trkpt><trkpt lat="44.1562433" lon="11.7593633"><ele>426.0</ele><time>2026-04-11T15:06:38.124Z</time></trkpt><trkpt lat="44.1562867" lon="11.7591617"><ele>431.0</ele><time>2026-04-11T15:06:39.124Z</time></trkpt><trkpt lat="44.15633" lon="11.7589583"><ele>436.0</ele><time>2026-04-11T15:06:40.125Z</time></trkpt><trkpt lat="44.156375" lon="11.7587533"><ele>441.0</ele><time>2026-04-11T15:06:41.124Z</time></trkpt><trkpt lat="44.1564217" lon="11.7585533"><ele>443.20000000000005</ele><time>2026-04-11T15:06:42.124Z</time></trkpt><trkpt lat="44.1564683" lon="11.7583633"><ele>445.40000000000003</ele><time>2026-04-11T15:06:43.124Z</time></trkpt><trkpt lat="44.1565083" lon="11.7582033"><ele>447.6</ele><time>2026-04-11T15:06:44.124Z</time></trkpt><trkpt lat="44.1565267" lon="11.7580767"><ele>449.8</ele><time>2026-04-11T15:06:45.125Z</time></trkpt><trkpt lat="44.1565267" lon="11.75796"><ele>452.0</ele><time>2026-04-11T15:06:46.124Z</time></trkpt><trkpt lat="44.1565017" lon="11.7578617"><ele>452.0</ele><time>2026-04-11T15:06:47.124Z</time></trkpt><trkpt lat="44.1564333" lon="11.7578167"><ele>452.00000000000006</ele><time>2026-04-11T15:06:48.125Z</time></trkpt><trkpt lat="44.1563533" lon="11.7578333"><ele>452.00000000000006</ele><time>2026-04-11T15:06:49.124Z</time></trkpt><trkpt lat="44.156275" lon="11.75788"><ele>452.0</ele><time>2026-04-11T15:06:50.124Z</time></trkpt><trkpt lat="44.1562" lon="11.7579467"><ele>452.0</ele><time>2026-04-11T15:06:51.124Z</time></trkpt><trkpt lat="44.156105" lon="11.7580683"><ele>452.0</ele><time>2026-04-11T15:06:52.125Z</time></trkpt><trkpt lat="44.1560133" lon="11.7581517"><ele>452.00000000000006</ele><time>2026-04-11T15:06:53.123Z</time></trkpt><trkpt lat="44.15591" lon="11.7582083"><ele>452.00000000000006</ele><time>2026-04-11T15:06:54.124Z</time></trkpt><trkpt lat="44.1558" lon="11.7582117"><ele>452.0</ele><time>2026-04-11T15:06:55.124Z</time></trkpt><trkpt lat="44.155685" lon="11.7581733"><ele>452.0</ele><time>2026-04-11T15:06:56.124Z</time></trkpt><trkpt lat="44.155565" lon="11.75812"><ele>452.49999999999994</ele><time>2026-04-11T15:06:57.125Z</time></trkpt><trkpt lat="44.15545" lon="11.7580617"><ele>453.0</ele><time>2026-04-11T15:06:58.124Z</time></trkpt><trkpt lat="44.1553633" lon="11.7579867"><ele>453.5</ele><time>2026-04-11T15:06:59.124Z</time></trkpt><trkpt lat="44.15533" lon="11.7578967"><ele>454.0</ele><time>2026-04-11T15:07:00.124Z</time></trkpt><trkpt lat="44.1553317" lon="11.7578033"><ele>454.49999999999994</ele><time>2026-04-11T15:07:01.124Z</time></trkpt><trkpt lat="44.1553667" lon="11.7577033"><ele>455.0</ele><time>2026-04-11T15:07:02.125Z</time></trkpt><trkpt lat="44.1554317" lon="11.757565"><ele>455.0</ele><time>2026-04-11T15:07:03.124Z</time></trkpt><trkpt lat="44.15548" lon="11.7574033"><ele>455.0</ele><time>2026-04-11T15:07:04.124Z</time></trkpt><trkpt lat="44.155495" lon="11.7572217"><ele>455.0</ele><time>2026-04-11T15:07:05.123Z</time></trkpt><trkpt lat="44.1554733" lon="11.7570367"><ele>455.0</ele><time>2026-04-11T15:07:06.123Z</time></trkpt><trkpt lat="44.155425" lon="11.7568483"><ele>459.0</ele><time>2026-04-11T15:07:07.124Z</time></trkpt><trkpt lat="44.155355" lon="11.7566633"><ele>463.0</ele><time>2026-04-11T15:07:08.124Z</time></trkpt><trkpt lat="44.155285" lon="11.7564883"><ele>467.0</ele><time>2026-04-11T15:07:09.123Z</time></trkpt><trkpt lat="44.1552283" lon="11.7563283"><ele>471.0</ele><time>2026-04-11T15:07:10.125Z</time></trkpt><trkpt lat="44.1552" lon="11.7561733"><ele>473.5</ele><time>2026-04-11T15:07:11.124Z</time></trkpt><trkpt lat="44.15521" lon="11.7560333"><ele>476.0</ele><time>2026-04-11T15:07:12.122Z</time></trkpt><trkpt lat="44.155255" lon="11.7558967"><ele>478.5</ele><time>2026-04-11T15:07:13.124Z</time></trkpt><trkpt lat="44.155325" lon="11.7557517"><ele>481.0</ele><time>2026-04-11T15:07:14.125Z</time></trkpt><trkpt lat="44.1554017" lon="11.7555983"><ele>481.0</ele><time>2026-04-11T15:07:15.126Z</time></trkpt><trkpt lat="44.155485" lon="11.7554333"><ele>481.0</ele><time>2026-04-11T15:07:16.124Z</time></trkpt><trkpt lat="44.1555683" lon="11.7552617"><ele>481.0</ele><time>2026-04-11T15:07:17.124Z</time></trkpt><trkpt lat="44.1556533" lon="11.7550883"><ele>481.0</ele><time>2026-04-11T15:07:18.124Z</time></trkpt><trkpt lat="44.1557433" lon="11.754925"><ele>479.5</ele><time>2026-04-11T15:07:19.124Z</time></trkpt><trkpt lat="44.155825" lon="11.754775"><ele>478.0</ele><time>2026-04-11T15:07:20.124Z</time></trkpt><trkpt lat="44.1558983" lon="11.7546267"><ele>476.5</ele><time>2026-04-11T15:07:21.124Z</time></trkpt><trkpt lat="44.1559617" lon="11.75448"><ele>475.0</ele><time>2026-04-11T15:07:22.125Z</time></trkpt><trkpt lat="44.1560183" lon="11.7543233"><ele>478.75</ele><time>2026-04-11T15:07:23.124Z</time></trkpt><trkpt lat="44.1560683" lon="11.754155"><ele>482.5</ele><time>2026-04-11T15:07:24.124Z</time></trkpt><trkpt lat="44.1561133" lon="11.753985"><ele>486.25</ele><time>2026-04-11T15:07:25.124Z</time></trkpt><trkpt lat="44.156165" lon="11.7538167"><ele>490.0</ele><time>2026-04-11T15:07:26.124Z</time></trkpt><trkpt lat="44.15622" lon="11.7536533"><ele>492.0</ele><time>2026-04-11T15:07:27.125Z</time></trkpt><trkpt lat="44.1562817" lon="11.7534883"><ele>494.0</ele><time>2026-04-11T15:07:28.124Z</time></trkpt><trkpt lat="44.1563383" lon="11.7533167"><ele>496.0</ele><time>2026-04-11T15:07:29.124Z</time></trkpt><trkpt lat="44.1563983" lon="11.7531517"><ele>498.0</ele><time>2026-04-11T15:07:30.124Z</time></trkpt><trkpt lat="44.1564617" lon="11.7529967"><ele>497.5</ele><time>2026-04-11T15:07:31.125Z</time></trkpt><trkpt lat="44.15654" lon="11.752855"><ele>497.0</ele><time>2026-04-11T15:07:32.124Z</time></trkpt><trkpt lat="44.1566283" lon="11.7527217"><ele>496.5</ele><time>2026-04-11T15:07:33.127Z</time></trkpt><trkpt lat="44.1567167" lon="11.752585"><ele>496.0</ele><time>2026-04-11T15:07:34.124Z</time></trkpt><trkpt lat="44.156795" lon="11.75243"><ele>496.0</ele><time>2026-04-11T15:07:35.124Z</time></trkpt><trkpt lat="44.1568683" lon="11.7522617"><ele>496.0</ele><time>2026-04-11T15:07:36.125Z</time></trkpt><trkpt lat="44.15694" lon="11.752095"><ele>496.0</ele><time>2026-04-11T15:07:37.124Z</time></trkpt><trkpt lat="44.1570183" lon="11.7519317"><ele>496.0</ele><time>2026-04-11T15:07:38.125Z</time></trkpt><trkpt lat="44.1571083" lon="11.7517817"><ele>496.25</ele><time>2026-04-11T15:07:39.125Z</time></trkpt><trkpt lat="44.1571883" lon="11.7516333"><ele>496.5</ele><time>2026-04-11T15:07:40.123Z</time></trkpt><trkpt lat="44.1572683" lon="11.7514817"><ele>496.75</ele><time>2026-04-11T15:07:41.124Z</time></trkpt><trkpt lat="44.157345" lon="11.75133"><ele>497.0</ele><time>2026-04-11T15:07:42.124Z</time></trkpt><trkpt lat="44.1574217" lon="11.751185"><ele>497.0</ele><time>2026-04-11T15:07:43.123Z</time></trkpt><trkpt lat="44.1575017" lon="11.751045"><ele>497.0</ele><time>2026-04-11T15:07:44.123Z</time></trkpt><trkpt lat="44.1575833" lon="11.7509117"><ele>497.0</ele><time>2026-04-11T15:07:45.124Z</time></trkpt><trkpt lat="44.1576717" lon="11.7507883"><ele>497.0</ele><time>2026-04-11T15:07:46.124Z</time></trkpt><trkpt lat="44.1577717" lon="11.75068"><ele>499.0</ele><time>2026-04-11T15:07:47.124Z</time></trkpt><trkpt lat="44.1578767" lon="11.7505867"><ele>501.0</ele><time>2026-04-11T15:07:48.125Z</time></trkpt><trkpt lat="44.1579817" lon="11.750505"><ele>503.0</ele><time>2026-04-11T15:07:49.126Z</time></trkpt><trkpt lat="44.15809" lon="11.7504167"><ele>505.0</ele><time>2026-04-11T15:07:50.124Z</time></trkpt><trkpt lat="44.1582017" lon="11.750325"><ele>506.0</ele><time>2026-04-11T15:07:51.126Z</time></trkpt><trkpt lat="44.1583167" lon="11.7502267"><ele>507.0</ele><time>2026-04-11T15:07:52.126Z</time></trkpt><trkpt lat="44.1584183" lon="11.7501033"><ele>508.0</ele><time>2026-04-11T15:07:53.125Z</time></trkpt><trkpt lat="44.1585117" lon="11.7499583"><ele>509.0</ele><time>2026-04-11T15:07:54.126Z</time></trkpt><trkpt lat="44.1585867" lon="11.7497967"><ele>509.25</ele><time>2026-04-11T15:07:55.125Z</time></trkpt><trkpt lat="44.158645" lon="11.7496233"><ele>509.5</ele><time>2026-04-11T15:07:56.125Z</time></trkpt><trkpt lat="44.1586867" lon="11.749435"><ele>509.75</ele><time>2026-04-11T15:07:57.126Z</time></trkpt><trkpt lat="44.1587117" lon="11.74925"><ele>510.0</ele><time>2026-04-11T15:07:58.124Z</time></trkpt><trkpt lat="44.1587483" lon="11.7490917"><ele>508.0</ele><time>2026-04-11T15:07:59.125Z</time></trkpt><trkpt lat="44.1588083" lon="11.7489617"><ele>506.0</ele><time>2026-04-11T15:08:00.124Z</time></trkpt><trkpt lat="44.1588883" lon="11.7488667"><ele>504.0</ele><time>2026-04-11T15:08:01.123Z</time></trkpt><trkpt lat="44.1589833" lon="11.74879"><ele>502.0</ele><time>2026-04-11T15:08:02.124Z</time></trkpt><trkpt lat="44.15908" lon="11.7487133"><ele>500.0</ele><time>2026-04-11T15:08:03.124Z</time></trkpt><trkpt lat="44.1591583" lon="11.7486217"><ele>505.4</ele><time>2026-04-11T15:08:04.124Z</time></trkpt><trkpt lat="44.1592083" lon="11.748515"><ele>510.8</ele><time>2026-04-11T15:08:05.123Z</time></trkpt><trkpt lat="44.159245" lon="11.7484033"><ele>516.2</ele><time>2026-04-11T15:08:06.124Z</time></trkpt><trkpt lat="44.1592567" lon="11.7482567"><ele>521.6</ele><time>2026-04-11T15:08:07.125Z</time></trkpt><trkpt lat="44.1592633" lon="11.7480917"><ele>527.0</ele><time>2026-04-11T15:08:08.124Z</time></trkpt><trkpt lat="44.1592533" lon="11.74792"><ele>527.0</ele><time>2026-04-11T15:08:09.125Z</time></trkpt><trkpt lat="44.1592183" lon="11.7477567"><ele>527.0</ele><time>2026-04-11T15:08:10.123Z</time></trkpt><trkpt lat="44.1591583" lon="11.7475983"><ele>527.0</ele><time>2026-04-11T15:08:11.123Z</time></trkpt><trkpt lat="44.159085" lon="11.7474483"><ele>527.0</ele><time>2026-04-11T15:08:12.124Z</time></trkpt><trkpt lat="44.159015" lon="11.7473083"><ele>525.75</ele><time>2026-04-11T15:08:13.124Z</time></trkpt><trkpt lat="44.158965" lon="11.7471617"><ele>524.5</ele><time>2026-04-11T15:08:14.124Z</time></trkpt><trkpt lat="44.15894" lon="11.7470033"><ele>523.25</ele><time>2026-04-11T15:08:15.123Z</time></trkpt><trkpt lat="44.1589267" lon="11.746835"><ele>522.0</ele><time>2026-04-11T15:08:16.122Z</time></trkpt><trkpt lat="44.1589083" lon="11.74666"><ele>522.0</ele><time>2026-04-11T15:08:17.124Z</time></trkpt><trkpt lat="44.1588717" lon="11.7465183"><ele>522.0</ele><time>2026-04-11T15:08:18.124Z</time></trkpt><trkpt lat="44.1588" lon="11.74643"><ele>522.0</ele><time>2026-04-11T15:08:19.123Z</time></trkpt><trkpt lat="44.158715" lon="11.74635"><ele>522.0</ele><time>2026-04-11T15:08:20.124Z</time></trkpt><trkpt lat="44.158615" lon="11.7462917"><ele>522.0</ele><time>2026-04-11T15:08:21.124Z</time></trkpt><trkpt lat="44.1585117" lon="11.7462267"><ele>522.0</ele><time>2026-04-11T15:08:22.124Z</time></trkpt><trkpt lat="44.1584067" lon="11.74616"><ele>522.0</ele><time>2026-04-11T15:08:23.123Z</time></trkpt><trkpt lat="44.158305" lon="11.746085"><ele>522.0</ele><time>2026-04-11T15:08:24.123Z</time></trkpt><trkpt lat="44.15821" lon="11.7460017"><ele>522.0</ele><time>2026-04-11T15:08:25.124Z</time></trkpt><trkpt lat="44.1581167" lon="11.7459"><ele>524.0</ele><time>2026-04-11T15:08:26.124Z</time></trkpt><trkpt lat="44.1580233" lon="11.74579"><ele>526.0</ele><time>2026-04-11T15:08:27.125Z</time></trkpt><trkpt lat="44.15793" lon="11.7456833"><ele>528.0</ele><time>2026-04-11T15:08:28.124Z</time></trkpt><trkpt lat="44.1578367" lon="11.7455783"><ele>530.0</ele><time>2026-04-11T15:08:29.124Z</time></trkpt><trkpt lat="44.1577517" lon="11.7454683"><ele>530.0</ele><time>2026-04-11T15:08:30.124Z</time></trkpt><trkpt lat="44.15769" lon="11.7453517"><ele>530.0</ele><time>2026-04-11T15:08:31.124Z</time></trkpt><trkpt lat="44.15764" lon="11.7452367"><ele>530.0</ele><time>2026-04-11T15:08:32.125Z</time></trkpt><trkpt lat="44.1575933" lon="11.74512"><ele>530.0</ele><time>2026-04-11T15:08:33.126Z</time></trkpt><trkpt lat="44.1575533" lon="11.7450083"><ele>530.0</ele><time>2026-04-11T15:08:34.123Z</time></trkpt><trkpt lat="44.1575283" lon="11.7448917"><ele>534.2</ele><time>2026-04-11T15:08:35.123Z</time></trkpt><trkpt lat="44.15752" lon="11.744765"><ele>538.4</ele><time>2026-04-11T15:08:36.124Z</time></trkpt><trkpt lat="44.157535" lon="11.7446233"><ele>542.6</ele><time>2026-04-11T15:08:37.123Z</time></trkpt><trkpt lat="44.1575683" lon="11.7444667"><ele>546.8</ele><time>2026-04-11T15:08:38.124Z</time></trkpt><trkpt lat="44.1576133" lon="11.744305"><ele>551.0</ele><time>2026-04-11T15:08:39.124Z</time></trkpt><trkpt lat="44.1576667" lon="11.7441433"><ele>553.75</ele><time>2026-04-11T15:08:40.123Z</time></trkpt><trkpt lat="44.157725" lon="11.7439883"><ele>556.5</ele><time>2026-04-11T15:08:41.124Z</time></trkpt><trkpt lat="44.1577933" lon="11.74385"><ele>559.25</ele><time>2026-04-11T15:08:42.125Z</time></trkpt><trkpt lat="44.1578683" lon="11.7437267"><ele>562.0</ele><time>2026-04-11T15:08:43.124Z</time></trkpt><trkpt lat="44.1579433" lon="11.7435983"><ele>564.6</ele><time>2026-04-11T15:08:44.125Z</time></trkpt><trkpt lat="44.1580117" lon="11.74347"><ele>567.2</ele><time>2026-04-11T15:08:45.125Z</time></trkpt><trkpt lat="44.1580767" lon="11.7433433"><ele>569.8</ele><time>2026-04-11T15:08:46.123Z</time></trkpt><trkpt lat="44.15814" lon="11.7432167"><ele>572.4</ele><time>2026-04-11T15:08:47.124Z</time></trkpt><trkpt lat="44.1582" lon="11.7430967"><ele>575.0</ele><time>2026-04-11T15:08:48.124Z</time></trkpt><trkpt lat="44.1582433" lon="11.7429867"><ele>575.0</ele><time>2026-04-11T15:08:49.124Z</time></trkpt><trkpt lat="44.1582667" lon="11.742875"><ele>575.0</ele><time>2026-04-11T15:08:50.124Z</time></trkpt><trkpt lat="44.1582683" lon="11.742765"><ele>575.0</ele><time>2026-04-11T15:08:51.124Z</time></trkpt><trkpt lat="44.158245" lon="11.742655"><ele>575.0</ele><time>2026-04-11T15:08:52.124Z</time></trkpt><trkpt lat="44.1582017" lon="11.74254"><ele>575.0</ele><time>2026-04-11T15:08:53.124Z</time></trkpt><trkpt lat="44.158135" lon="11.7424333"><ele>575.0</ele><time>2026-04-11T15:08:54.124Z</time></trkpt><trkpt lat="44.158055" lon="11.7423283"><ele>575.0</ele><time>2026-04-11T15:08:55.124Z</time></trkpt><trkpt lat="44.1579783" lon="11.7422183"><ele>575.0</ele><time>2026-04-11T15:08:56.124Z</time></trkpt><trkpt lat="44.1579033" lon="11.742095"><ele>575.0</ele><time>2026-04-11T15:08:57.124Z</time></trkpt><trkpt lat="44.15783" lon="11.741955"><ele>575.0</ele><time>2026-04-11T15:08:58.124Z</time></trkpt><trkpt lat="44.1577583" lon="11.7418133"><ele>571.5</ele><time>2026-04-11T15:08:59.124Z</time></trkpt><trkpt lat="44.15769" lon="11.7416683"><ele>568.0</ele><time>2026-04-11T15:09:00.124Z</time></trkpt><trkpt lat="44.157625" lon="11.7415167"><ele>564.5</ele><time>2026-04-11T15:09:01.125Z</time></trkpt><trkpt lat="44.1575683" lon="11.741365"><ele>561.0</ele><time>2026-04-11T15:09:02.124Z</time></trkpt><trkpt lat="44.1575167" lon="11.7412167"><ele>561.0</ele><time>2026-04-11T15:09:03.124Z</time></trkpt><trkpt lat="44.15748" lon="11.7410717"><ele>561.0</ele><time>2026-04-11T15:09:04.124Z</time></trkpt><trkpt lat="44.1574517" lon="11.740925"><ele>561.0</ele><time>2026-04-11T15:09:05.124Z</time></trkpt><trkpt lat="44.1574433" lon="11.7407733"><ele>561.0</ele><time>2026-04-11T15:09:06.124Z</time></trkpt><trkpt lat="44.1574483" lon="11.7406233"><ele>561.0</ele><time>2026-04-11T15:09:07.124Z</time></trkpt><trkpt lat="44.157455" lon="11.7404717"><ele>560.0</ele><time>2026-04-11T15:09:08.123Z</time></trkpt><trkpt lat="44.1574683" lon="11.7403233"><ele>559.0</ele><time>2026-04-11T15:09:09.124Z</time></trkpt><trkpt lat="44.1574967" lon="11.7401883"><ele>558.0</ele><time>2026-04-11T15:09:10.124Z</time></trkpt><trkpt lat="44.1575433" lon="11.7400667"><ele>557.0</ele><time>2026-04-11T15:09:11.125Z</time></trkpt><trkpt lat="44.1575983" lon="11.7399517"><ele>556.0</ele><time>2026-04-11T15:09:12.126Z</time></trkpt><trkpt lat="44.1576567" lon="11.7398367"><ele>556.0</ele><time>2026-04-11T15:09:13.126Z</time></trkpt><trkpt lat="44.1577067" lon="11.7397167"><ele>556.0</ele><time>2026-04-11T15:09:14.125Z</time></trkpt><trkpt lat="44.157735" lon="11.7395967"><ele>556.0</ele><time>2026-04-11T15:09:15.124Z</time></trkpt><trkpt lat="44.15775" lon="11.7394767"><ele>556.0</ele><time>2026-04-11T15:09:16.124Z</time></trkpt><trkpt lat="44.15775" lon="11.73935"><ele>556.0</ele><time>2026-04-11T15:09:17.123Z</time></trkpt><trkpt lat="44.15774" lon="11.73922"><ele>556.0</ele><time>2026-04-11T15:09:18.13Z</time></trkpt><trkpt lat="44.1577283" lon="11.739085"><ele>556.0</ele><time>2026-04-11T15:09:19.123Z</time></trkpt><trkpt lat="44.1577183" lon="11.7389417"><ele>556.0</ele><time>2026-04-11T15:09:20.124Z</time></trkpt><trkpt lat="44.15771" lon="11.7387883"><ele>556.0</ele><time>2026-04-11T15:09:21.122Z</time></trkpt><trkpt lat="44.1577033" lon="11.7386333"><ele>556.0</ele><time>2026-04-11T15:09:22.124Z</time></trkpt><trkpt lat="44.157735" lon="11.7384817"><ele>556.0</ele><time>2026-04-11T15:09:23.123Z</time></trkpt><trkpt lat="44.15777" lon="11.73832"><ele>556.0</ele><time>2026-04-11T15:09:24.122Z</time></trkpt><trkpt lat="44.157815" lon="11.7381583"><ele>556.0</ele><time>2026-04-11T15:09:25.124Z</time></trkpt><trkpt lat="44.1578333" lon="11.7379983"><ele>556.0</ele><time>2026-04-11T15:09:26.124Z</time></trkpt><trkpt lat="44.1578283" lon="11.73785"><ele>556.0</ele><time>2026-04-11T15:09:27.123Z</time></trkpt><trkpt lat="44.1577983" lon="11.73771"><ele>556.0</ele><time>2026-04-11T15:09:28.123Z</time></trkpt><trkpt lat="44.15776" lon="11.73757"><ele>556.0</ele><time>2026-04-11T15:09:29.123Z</time></trkpt><trkpt lat="44.1577333" lon="11.7374267"><ele>556.0</ele><time>2026-04-11T15:09:30.124Z</time></trkpt><trkpt lat="44.1577117" lon="11.737285"><ele>556.0</ele><time>2026-04-11T15:09:31.125Z</time></trkpt><trkpt lat="44.1577117" lon="11.7371467"><ele>556.0</ele><time>2026-04-11T15:09:32.126Z</time></trkpt><trkpt lat="44.157735" lon="11.7370133"><ele>556.0</ele><time>2026-04-11T15:09:33.126Z</time></trkpt><trkpt lat="44.157775" lon="11.73688"><ele>556.0</ele><time>2026-04-11T15:09:34.125Z</time></trkpt><trkpt lat="44.1578283" lon="11.73676"><ele>556.0</ele><time>2026-04-11T15:09:35.125Z</time></trkpt><trkpt lat="44.1578983" lon="11.736655"><ele>556.0</ele><time>2026-04-11T15:09:36.126Z</time></trkpt><trkpt lat="44.157975" lon="11.7365617"><ele>555.2</ele><time>2026-04-11T15:09:37.126Z</time></trkpt><trkpt lat="44.15805" lon="11.7364667"><ele>554.4000000000001</ele><time>2026-04-11T15:09:38.126Z</time></trkpt><trkpt lat="44.1581183" lon="11.7363533"><ele>553.6</ele><time>2026-04-11T15:09:39.126Z</time></trkpt><trkpt lat="44.158175" lon="11.7362233"><ele>552.8000000000001</ele><time>2026-04-11T15:09:40.125Z</time></trkpt><trkpt lat="44.1582217" lon="11.7360817"><ele>552.0</ele><time>2026-04-11T15:09:41.126Z</time></trkpt><trkpt lat="44.1582733" lon="11.7359383"><ele>552.0</ele><time>2026-04-11T15:09:42.127Z</time></trkpt><trkpt lat="44.1583383" lon="11.7358017"><ele>552.0</ele><time>2026-04-11T15:09:43.125Z</time></trkpt><trkpt lat="44.158415" lon="11.7356867"><ele>552.0</ele><time>2026-04-11T15:09:44.126Z</time></trkpt><trkpt lat="44.1585" lon="11.7355917"><ele>552.0</ele><time>2026-04-11T15:09:45.127Z</time></trkpt><trkpt lat="44.15859" lon="11.73551"><ele>552.0</ele><time>2026-04-11T15:09:46.126Z</time></trkpt><trkpt lat="44.1586817" lon="11.73542"><ele>552.0</ele><time>2026-04-11T15:09:47.124Z</time></trkpt><trkpt lat="44.1587633" lon="11.73532"><ele>552.0</ele><time>2026-04-11T15:09:48.126Z</time></trkpt><trkpt lat="44.1588283" lon="11.7352233"><ele>552.0</ele><time>2026-04-11T15:09:49.126Z</time></trkpt><trkpt lat="44.158875" lon="11.7351317"><ele>552.0</ele><time>2026-04-11T15:09:50.124Z</time></trkpt><trkpt lat="44.1589283" lon="11.7350567"><ele>552.0</ele><time>2026-04-11T15:09:51.123Z</time></trkpt><trkpt lat="44.15898" lon="11.7349967"><ele>552.0</ele><time>2026-04-11T15:09:52.124Z</time></trkpt><trkpt lat="44.1590433" lon="11.7349483"><ele>550.5</ele><time>2026-04-11T15:09:53.123Z</time></trkpt><trkpt lat="44.1591117" lon="11.7349067"><ele>549.0</ele><time>2026-04-11T15:09:54.124Z</time></trkpt><trkpt lat="44.1591867" lon="11.7348633"><ele>547.5</ele><time>2026-04-11T15:09:55.124Z</time></trkpt><trkpt lat="44.159265" lon="11.7348233"><ele>546.0</ele><time>2026-04-11T15:09:56.125Z</time></trkpt><trkpt lat="44.1593417" lon="11.7347833"><ele>544.5</ele><time>2026-04-11T15:09:57.125Z</time></trkpt><trkpt lat="44.15942" lon="11.7347517"><ele>543.0</ele><time>2026-04-11T15:09:58.124Z</time></trkpt><trkpt lat="44.1595" lon="11.7347417"><ele>543.0</ele><time>2026-04-11T15:09:59.124Z</time></trkpt><trkpt lat="44.159585" lon="11.734765"><ele>543.0</ele><time>2026-04-11T15:10:00.125Z</time></trkpt><trkpt lat="44.1596733" lon="11.7347767"><ele>543.0</ele><time>2026-04-11T15:10:01.123Z</time></trkpt><trkpt lat="44.159765" lon="11.7347783"><ele>543.0</ele><time>2026-04-11T15:10:02.123Z</time></trkpt><trkpt lat="44.15986" lon="11.7347583"><ele>543.0</ele><time>2026-04-11T15:10:03.125Z</time></trkpt><trkpt lat="44.159955" lon="11.7347233"><ele>542.4</ele><time>2026-04-11T15:10:04.124Z</time></trkpt><trkpt lat="44.16005" lon="11.7346817"><ele>541.8</ele><time>2026-04-11T15:10:05.124Z</time></trkpt><trkpt lat="44.1601417" lon="11.7346467"><ele>541.2</ele><time>2026-04-11T15:10:06.124Z</time></trkpt><trkpt lat="44.1602267" lon="11.734605"><ele>540.6</ele><time>2026-04-11T15:10:07.123Z</time></trkpt><trkpt lat="44.16031" lon="11.7345467"><ele>540.0</ele><time>2026-04-11T15:10:08.123Z</time></trkpt><trkpt lat="44.1603917" lon="11.73449"><ele>540.0</ele><time>2026-04-11T15:10:09.124Z</time></trkpt><trkpt lat="44.1604717" lon="11.7344383"><ele>540.0</ele><time>2026-04-11T15:10:10.123Z</time></trkpt><trkpt lat="44.1605617" lon="11.7343983"><ele>540.0</ele><time>2026-04-11T15:10:11.124Z</time></trkpt><trkpt lat="44.160665" lon="11.734375"><ele>540.0</ele><time>2026-04-11T15:10:12.123Z</time></trkpt><trkpt lat="44.160775" lon="11.734365"><ele>540.0</ele><time>2026-04-11T15:10:13.124Z</time></trkpt><trkpt lat="44.1608783" lon="11.734345"><ele>536.1666666666666</ele><time>2026-04-11T15:10:14.124Z</time></trkpt><trkpt lat="44.1609767" lon="11.73432"><ele>532.3333333333334</ele><time>2026-04-11T15:10:15.124Z</time></trkpt><trkpt lat="44.1610633" lon="11.7342817"><ele>528.5</ele><time>2026-04-11T15:10:16.124Z</time></trkpt><trkpt lat="44.1611383" lon="11.7342333"><ele>524.6666666666667</ele><time>2026-04-11T15:10:17.124Z</time></trkpt><trkpt lat="44.1612083" lon="11.7341867"><ele>520.8333333333334</ele><time>2026-04-11T15:10:18.124Z</time></trkpt><trkpt lat="44.161275" lon="11.734165"><ele>517.0</ele><time>2026-04-11T15:10:19.123Z</time></trkpt><trkpt lat="44.1613567" lon="11.73417"><ele>517.0</ele><time>2026-04-11T15:10:20.124Z</time></trkpt><trkpt lat="44.1614217" lon="11.73426"><ele>517.0</ele><time>2026-04-11T15:10:21.124Z</time></trkpt><trkpt lat="44.161495" lon="11.734345"><ele>517.0</ele><time>2026-04-11T15:10:22.124Z</time></trkpt><trkpt lat="44.1615783" lon="11.7344167"><ele>517.0</ele><time>2026-04-11T15:10:23.123Z</time></trkpt><trkpt lat="44.1616733" lon="11.7344717"><ele>517.0</ele><time>2026-04-11T15:10:24.123Z</time></trkpt><trkpt lat="44.16177" lon="11.734495"><ele>515.2</ele><time>2026-04-11T15:10:25.123Z</time></trkpt><trkpt lat="44.16187" lon="11.7344917"><ele>513.4000000000001</ele><time>2026-04-11T15:10:26.124Z</time></trkpt><trkpt lat="44.161975" lon="11.734475"><ele>511.59999999999997</ele><time>2026-04-11T15:10:27.124Z</time></trkpt><trkpt lat="44.1620817" lon="11.7344533"><ele>509.79999999999995</ele><time>2026-04-11T15:10:28.124Z</time></trkpt><trkpt lat="44.1621917" lon="11.7344467"><ele>508.0</ele><time>2026-04-11T15:10:29.123Z</time></trkpt><trkpt lat="44.1623033" lon="11.7344517"><ele>505.59999999999997</ele><time>2026-04-11T15:10:30.125Z</time></trkpt><trkpt lat="44.1624067" lon="11.734465"><ele>503.19999999999993</ele><time>2026-04-11T15:10:31.124Z</time></trkpt><trkpt lat="44.1625067" lon="11.734485"><ele>500.8</ele><time>2026-04-11T15:10:32.124Z</time></trkpt><trkpt lat="44.1626" lon="11.7345283"><ele>498.4</ele><time>2026-04-11T15:10:33.124Z</time></trkpt><trkpt lat="44.1626833" lon="11.734585"><ele>496.0</ele><time>2026-04-11T15:10:34.124Z</time></trkpt><trkpt lat="44.1627667" lon="11.734635"><ele>496.0</ele><time>2026-04-11T15:10:35.122Z</time></trkpt><trkpt lat="44.1628583" lon="11.7346633"><ele>496.0</ele><time>2026-04-11T15:10:36.123Z</time></trkpt><trkpt lat="44.1629533" lon="11.7346667"><ele>496.0</ele><time>2026-04-11T15:10:37.122Z</time></trkpt><trkpt lat="44.16304" lon="11.7346583"><ele>496.0</ele><time>2026-04-11T15:10:38.123Z</time></trkpt><trkpt lat="44.1631167" lon="11.7346383"><ele>496.0</ele><time>2026-04-11T15:10:39.124Z</time></trkpt><trkpt lat="44.1631883" lon="11.73452"><ele>496.00000000000006</ele><time>2026-04-11T15:10:41.124Z</time></trkpt><trkpt lat="44.1631317" lon="11.7343517"><ele>496.0</ele><time>2026-04-11T15:10:43.123Z</time></trkpt><trkpt lat="44.1630867" lon="11.734275"><ele>496.0</ele><time>2026-04-11T15:10:44.123Z</time></trkpt><trkpt lat="44.1630217" lon="11.7342133"><ele>496.0</ele><time>2026-04-11T15:10:45.125Z</time></trkpt><trkpt lat="44.162955" lon="11.7341867"><ele>496.00000000000006</ele><time>2026-04-11T15:10:46.124Z</time></trkpt><trkpt lat="44.1628883" lon="11.73418"><ele>496.0</ele><time>2026-04-11T15:10:47.123Z</time></trkpt><trkpt lat="44.1628183" lon="11.73418"><ele>496.00000000000006</ele><time>2026-04-11T15:10:48.124Z</time></trkpt><trkpt lat="44.1627483" lon="11.734185"><ele>496.0</ele><time>2026-04-11T15:10:49.124Z</time></trkpt><trkpt lat="44.16267" lon="11.7341917"><ele>496.0</ele><time>2026-04-11T15:10:50.124Z</time></trkpt><trkpt lat="44.16259" lon="11.7341983"><ele>496.0</ele><time>2026-04-11T15:10:51.124Z</time></trkpt><trkpt lat="44.1625083" lon="11.7341967"><ele>496.00000000000006</ele><time>2026-04-11T15:10:52.123Z</time></trkpt><trkpt lat="44.1624217" lon="11.73418"><ele>496.0</ele><time>2026-04-11T15:10:53.124Z</time></trkpt><trkpt lat="44.1623317" lon="11.7341617"><ele>498.8</ele><time>2026-04-11T15:10:54.124Z</time></trkpt><trkpt lat="44.16224" lon="11.7341383"><ele>501.6</ele><time>2026-04-11T15:10:55.125Z</time></trkpt><trkpt lat="44.1621483" lon="11.7341117"><ele>504.4</ele><time>2026-04-11T15:10:56.122Z</time></trkpt><trkpt lat="44.1620567" lon="11.734085"><ele>507.2</ele><time>2026-04-11T15:10:57.124Z</time></trkpt><trkpt lat="44.161965" lon="11.7340533"><ele>510.0</ele><time>2026-04-11T15:10:58.123Z</time></trkpt><trkpt lat="44.1618767" lon="11.73401"><ele>510.0</ele><time>2026-04-11T15:10:59.125Z</time></trkpt><trkpt lat="44.1617917" lon="11.7339467"><ele>510.0</ele><time>2026-04-11T15:11:00.123Z</time></trkpt><trkpt lat="44.1617167" lon="11.73387"><ele>510.0</ele><time>2026-04-11T15:11:01.124Z</time></trkpt><trkpt lat="44.161655" lon="11.73378"><ele>510.0</ele><time>2026-04-11T15:11:02.123Z</time></trkpt><trkpt lat="44.1616133" lon="11.7336667"><ele>510.0</ele><time>2026-04-11T15:11:03.124Z</time></trkpt><trkpt lat="44.161575" lon="11.7335417"><ele>505.6666666666667</ele><time>2026-04-11T15:11:04.123Z</time></trkpt><trkpt lat="44.161535" lon="11.7334217"><ele>501.33333333333337</ele><time>2026-04-11T15:11:05.124Z</time></trkpt><trkpt lat="44.1614833" lon="11.73331"><ele>497.0</ele><time>2026-04-11T15:11:06.123Z</time></trkpt><trkpt lat="44.1614267" lon="11.7332217"><ele>492.6666666666667</ele><time>2026-04-11T15:11:07.122Z</time></trkpt><trkpt lat="44.1613667" lon="11.7331567"><ele>488.33333333333337</ele><time>2026-04-11T15:11:08.123Z</time></trkpt><trkpt lat="44.161305" lon="11.73311"><ele>484.0</ele><time>2026-04-11T15:11:09.124Z</time></trkpt><trkpt lat="44.1611817" lon="11.7330983"><ele>484.0</ele><time>2026-04-11T15:11:11.123Z</time></trkpt><trkpt lat="44.1610617" lon="11.7331267"><ele>484.0</ele><time>2026-04-11T15:11:13.124Z</time></trkpt><trkpt lat="44.1609883" lon="11.7331567"><ele>484.0</ele><time>2026-04-11T15:11:14.124Z</time></trkpt><trkpt lat="44.160905" lon="11.733195"><ele>484.0</ele><time>2026-04-11T15:11:15.123Z</time></trkpt><trkpt lat="44.160815" lon="11.733235"><ele>484.0</ele><time>2026-04-11T15:11:16.123Z</time></trkpt><trkpt lat="44.160715" lon="11.73327"><ele>481.0</ele><time>2026-04-11T15:11:17.122Z</time></trkpt><trkpt lat="44.1606067" lon="11.7333067"><ele>478.0</ele><time>2026-04-11T15:11:18.123Z</time></trkpt><trkpt lat="44.160495" lon="11.73334"><ele>475.0</ele><time>2026-04-11T15:11:19.123Z</time></trkpt><trkpt lat="44.1603833" lon="11.733375"><ele>472.0</ele><time>2026-04-11T15:11:20.124Z</time></trkpt><trkpt lat="44.160275" lon="11.7334117"><ele>472.0</ele><time>2026-04-11T15:11:21.124Z</time></trkpt><trkpt lat="44.160175" lon="11.7334583"><ele>472.00000000000006</ele><time>2026-04-11T15:11:22.123Z</time></trkpt><trkpt lat="44.1600767" lon="11.7335033"><ele>472.00000000000006</ele><time>2026-04-11T15:11:23.124Z</time></trkpt><trkpt lat="44.1599883" lon="11.7335367"><ele>472.0</ele><time>2026-04-11T15:11:24.125Z</time></trkpt><trkpt lat="44.1599117" lon="11.7335433"><ele>472.0</ele><time>2026-04-11T15:11:25.123Z</time></trkpt><trkpt lat="44.1598283" lon="11.7335183"><ele>472.00000000000006</ele><time>2026-04-11T15:11:26.124Z</time></trkpt><trkpt lat="44.1597433" lon="11.7335"><ele>472.0</ele><time>2026-04-11T15:11:27.124Z</time></trkpt><trkpt lat="44.1596583" lon="11.7334783"><ele>472.0</ele><time>2026-04-11T15:11:28.123Z</time></trkpt><trkpt lat="44.159575" lon="11.7334483"><ele>472.0</ele><time>2026-04-11T15:11:29.124Z</time></trkpt><trkpt lat="44.1594917" lon="11.7334067"><ele>472.00000000000006</ele><time>2026-04-11T15:11:30.122Z</time></trkpt><trkpt lat="44.1594133" lon="11.7333567"><ele>472.0</ele><time>2026-04-11T15:11:31.123Z</time></trkpt><trkpt lat="44.159345" lon="11.7333"><ele>472.00000000000006</ele><time>2026-04-11T15:11:32.124Z</time></trkpt><trkpt lat="44.1592833" lon="11.73324"><ele>472.0</ele><time>2026-04-11T15:11:33.123Z</time></trkpt><trkpt lat="44.1592367" lon="11.7331733"><ele>472.0</ele><time>2026-04-11T15:11:34.122Z</time></trkpt><trkpt lat="44.159185" lon="11.7330383"><ele>472.0</ele><time>2026-04-11T15:11:36.123Z</time></trkpt><trkpt lat="44.1591883" lon="11.7329083"><ele>472.00000000000006</ele><time>2026-04-11T15:11:38.124Z</time></trkpt><trkpt lat="44.159255" lon="11.7328317"><ele>472.0</ele><time>2026-04-11T15:11:40.123Z</time></trkpt><trkpt lat="44.15937" lon="11.7327883"><ele>472.0</ele><time>2026-04-11T15:11:42.123Z</time></trkpt><trkpt lat="44.1594317" lon="11.732765"><ele>472.0</ele><time>2026-04-11T15:11:43.124Z</time></trkpt><trkpt lat="44.1595" lon="11.73274"><ele>472.0</ele><time>2026-04-11T15:11:44.124Z</time></trkpt><trkpt lat="44.1595733" lon="11.732715"><ele>472.0</ele><time>2026-04-11T15:11:45.125Z</time></trkpt><trkpt lat="44.15965" lon="11.732685"><ele>472.0</ele><time>2026-04-11T15:11:46.122Z</time></trkpt><trkpt lat="44.159725" lon="11.732655"><ele>472.0</ele><time>2026-04-11T15:11:47.123Z</time></trkpt><trkpt lat="44.1598" lon="11.7326283"><ele>472.0</ele><time>2026-04-11T15:11:48.122Z</time></trkpt><trkpt lat="44.159875" lon="11.7326067"><ele>469.00000000000006</ele><time>2026-04-11T15:11:49.123Z</time></trkpt><trkpt lat="44.15995" lon="11.7325867"><ele>466.0</ele><time>2026-04-11T15:11:50.124Z</time></trkpt><trkpt lat="44.1600267" lon="11.7325717"><ele>463.0</ele><time>2026-04-11T15:11:51.125Z</time></trkpt><trkpt lat="44.1601067" lon="11.7325517"><ele>460.0</ele><time>2026-04-11T15:11:52.125Z</time></trkpt><trkpt lat="44.1601817" lon="11.7325267"><ele>457.00000000000006</ele><time>2026-04-11T15:11:53.125Z</time></trkpt><trkpt lat="44.1602533" lon="11.7325017"><ele>454.0</ele><time>2026-04-11T15:11:54.125Z</time></trkpt><trkpt lat="44.1603283" lon="11.7324783"><ele>454.00000000000006</ele><time>2026-04-11T15:11:55.124Z</time></trkpt><trkpt lat="44.1603917" lon="11.7324483"><ele>454.0</ele><time>2026-04-11T15:11:56.125Z</time></trkpt><trkpt lat="44.1604783" lon="11.7323333"><ele>454.0</ele><time>2026-04-11T15:11:58.123Z</time></trkpt><trkpt lat="44.1605067" lon="11.7322433"><ele>454.0</ele><time>2026-04-11T15:11:59.123Z</time></trkpt><trkpt lat="44.1605283" lon="11.73213"><ele>454.00000000000006</ele><time>2026-04-11T15:12:00.123Z</time></trkpt><trkpt lat="44.1605517" lon="11.7320133"><ele>454.0</ele><time>2026-04-11T15:12:01.123Z</time></trkpt><trkpt lat="44.1605767" lon="11.7318967"><ele>453.50000000000006</ele><time>2026-04-11T15:12:02.124Z</time></trkpt><trkpt lat="44.1606033" lon="11.7317783"><ele>453.0</ele><time>2026-04-11T15:12:03.123Z</time></trkpt><trkpt lat="44.1606317" lon="11.731665"><ele>452.5</ele><time>2026-04-11T15:12:04.123Z</time></trkpt><trkpt lat="44.1606533" lon="11.7315467"><ele>452.0</ele><time>2026-04-11T15:12:05.124Z</time></trkpt><trkpt lat="44.1606717" lon="11.7314267"><ele>451.50000000000006</ele><time>2026-04-11T15:12:06.124Z</time></trkpt><trkpt lat="44.1606833" lon="11.7313033"><ele>451.0</ele><time>2026-04-11T15:12:07.125Z</time></trkpt><trkpt lat="44.1606867" lon="11.7311833"><ele>451.00000000000006</ele><time>2026-04-11T15:12:08.123Z</time></trkpt><trkpt lat="44.1606767" lon="11.7310667"><ele>451.0</ele><time>2026-04-11T15:12:09.124Z</time></trkpt><trkpt lat="44.1606567" lon="11.7309583"><ele>451.0</ele><time>2026-04-11T15:12:10.124Z</time></trkpt><trkpt lat="44.160625" lon="11.73086"><ele>451.0</ele><time>2026-04-11T15:12:11.125Z</time></trkpt><trkpt lat="44.1605917" lon="11.7307767"><ele>451.00000000000006</ele><time>2026-04-11T15:12:12.123Z</time></trkpt><trkpt lat="44.1605667" lon="11.7306867"><ele>451.0</ele><time>2026-04-11T15:12:13.122Z</time></trkpt><trkpt lat="44.1605617" lon="11.730525"><ele>451.1666666666667</ele><time>2026-04-11T15:12:15.124Z</time></trkpt><trkpt lat="44.16063" lon="11.7304917"><ele>451.33333333333337</ele><time>2026-04-11T15:12:16.123Z</time></trkpt><trkpt lat="44.160715" lon="11.73047"><ele>451.5</ele><time>2026-04-11T15:12:17.127Z</time></trkpt><trkpt lat="44.1608033" lon="11.7304517"><ele>451.66666666666663</ele><time>2026-04-11T15:12:18.123Z</time></trkpt><trkpt lat="44.1608883" lon="11.73043"><ele>451.8333333333333</ele><time>2026-04-11T15:12:19.123Z</time></trkpt><trkpt lat="44.1609667" lon="11.730405"><ele>452.0</ele><time>2026-04-11T15:12:20.123Z</time></trkpt><trkpt lat="44.1610433" lon="11.73028"><ele>449.16666666666663</ele><time>2026-04-11T15:12:22.123Z</time></trkpt><trkpt lat="44.1610667" lon="11.7301883"><ele>446.3333333333333</ele><time>2026-04-11T15:12:23.124Z</time></trkpt><trkpt lat="44.1610783" lon="11.730085"><ele>443.5</ele><time>2026-04-11T15:12:24.124Z</time></trkpt><trkpt lat="44.1611017" lon="11.7299733"><ele>440.66666666666663</ele><time>2026-04-11T15:12:25.124Z</time></trkpt><trkpt lat="44.1611383" lon="11.729875"><ele>437.8333333333333</ele><time>2026-04-11T15:12:26.125Z</time></trkpt><trkpt lat="44.1611833" lon="11.7297967"><ele>435.0</ele><time>2026-04-11T15:12:27.125Z</time></trkpt><trkpt lat="44.1613" lon="11.7297667"><ele>435.0</ele><time>2026-04-11T15:12:29.123Z</time></trkpt><trkpt lat="44.1614433" lon="11.7298033"><ele>435.0</ele><time>2026-04-11T15:12:31.124Z</time></trkpt><trkpt lat="44.1615433" lon="11.7298267"><ele>435.0</ele><time>2026-04-11T15:12:32.124Z</time></trkpt><trkpt lat="44.1616467" lon="11.729835"><ele>435.0</ele><time>2026-04-11T15:12:33.124Z</time></trkpt><trkpt lat="44.1617333" lon="11.7298283"><ele>435.0</ele><time>2026-04-11T15:12:34.124Z</time></trkpt><trkpt lat="44.1618133" lon="11.7297933"><ele>432.0</ele><time>2026-04-11T15:12:35.124Z</time></trkpt><trkpt lat="44.1618917" lon="11.72974"><ele>429.0</ele><time>2026-04-11T15:12:36.124Z</time></trkpt><trkpt lat="44.1619683" lon="11.7296883"><ele>426.0</ele><time>2026-04-11T15:12:37.125Z</time></trkpt><trkpt lat="44.16205" lon="11.7296533"><ele>423.0</ele><time>2026-04-11T15:12:38.125Z</time></trkpt><trkpt lat="44.1621267" lon="11.72966"><ele>420.0</ele><time>2026-04-11T15:12:39.124Z</time></trkpt><trkpt lat="44.1622" lon="11.7296883"><ele>417.0</ele><time>2026-04-11T15:12:40.123Z</time></trkpt><trkpt lat="44.1622733" lon="11.7297217"><ele>417.0</ele><time>2026-04-11T15:12:41.125Z</time></trkpt><trkpt lat="44.1623533" lon="11.72974"><ele>417.0</ele><time>2026-04-11T15:12:42.124Z</time></trkpt><trkpt lat="44.16244" lon="11.729725"><ele>417.0</ele><time>2026-04-11T15:12:43.124Z</time></trkpt><trkpt lat="44.1625267" lon="11.7296967"><ele>417.0</ele><time>2026-04-11T15:12:44.124Z</time></trkpt><trkpt lat="44.1626083" lon="11.7296517"><ele>417.0</ele><time>2026-04-11T15:12:45.124Z</time></trkpt><trkpt lat="44.1626833" lon="11.7295833"><ele>417.0</ele><time>2026-04-11T15:12:46.124Z</time></trkpt><trkpt lat="44.1627633" lon="11.7295067"><ele>419.6</ele><time>2026-04-11T15:12:47.124Z</time></trkpt><trkpt lat="44.16285" lon="11.7294317"><ele>422.20000000000005</ele><time>2026-04-11T15:12:48.125Z</time></trkpt><trkpt lat="44.1629317" lon="11.7293583"><ele>424.8</ele><time>2026-04-11T15:12:49.124Z</time></trkpt><trkpt lat="44.163025" lon="11.729295"><ele>427.4</ele><time>2026-04-11T15:12:50.124Z</time></trkpt><trkpt lat="44.1631267" lon="11.729245"><ele>430.0</ele><time>2026-04-11T15:12:51.125Z</time></trkpt><trkpt lat="44.1632233" lon="11.7291867"><ele>424.0</ele><time>2026-04-11T15:12:52.124Z</time></trkpt><trkpt lat="44.163315" lon="11.729115"><ele>418.0</ele><time>2026-04-11T15:12:53.124Z</time></trkpt><trkpt lat="44.16341" lon="11.729055"><ele>412.0</ele><time>2026-04-11T15:12:54.124Z</time></trkpt><trkpt lat="44.1635083" lon="11.7290133"><ele>406.0</ele><time>2026-04-11T15:12:55.125Z</time></trkpt><trkpt lat="44.1636117" lon="11.7289933"><ele>400.0</ele><time>2026-04-11T15:12:56.125Z</time></trkpt><trkpt lat="44.1637033" lon="11.7289833"><ele>400.0</ele><time>2026-04-11T15:12:57.125Z</time></trkpt><trkpt lat="44.1638067" lon="11.72897"><ele>400.0</ele><time>2026-04-11T15:12:58.125Z</time></trkpt><trkpt lat="44.163915" lon="11.7289467"><ele>400.0</ele><time>2026-04-11T15:12:59.124Z</time></trkpt><trkpt lat="44.1640233" lon="11.7288983"><ele>400.0</ele><time>2026-04-11T15:13:00.124Z</time></trkpt><trkpt lat="44.164135" lon="11.728845"><ele>400.0</ele><time>2026-04-11T15:13:01.123Z</time></trkpt><trkpt lat="44.164245" lon="11.7287933"><ele>396.25</ele><time>2026-04-11T15:13:02.124Z</time></trkpt><trkpt lat="44.1643617" lon="11.72876"><ele>392.5</ele><time>2026-04-11T15:13:03.125Z</time></trkpt><trkpt lat="44.1644717" lon="11.72876"><ele>388.75</ele><time>2026-04-11T15:13:04.124Z</time></trkpt><trkpt lat="44.164585" lon="11.7287733"><ele>385.0</ele><time>2026-04-11T15:13:05.124Z</time></trkpt><trkpt lat="44.164695" lon="11.7287817"><ele>385.0</ele><time>2026-04-11T15:13:06.123Z</time></trkpt><trkpt lat="44.1648083" lon="11.7288"><ele>385.0</ele><time>2026-04-11T15:13:07.124Z</time></trkpt><trkpt lat="44.1649217" lon="11.7287983"><ele>385.0</ele><time>2026-04-11T15:13:08.124Z</time></trkpt><trkpt lat="44.1650417" lon="11.72878"><ele>385.0</ele><time>2026-04-11T15:13:09.123Z</time></trkpt><trkpt lat="44.1651617" lon="11.7287533"><ele>383.0</ele><time>2026-04-11T15:13:10.124Z</time></trkpt><trkpt lat="44.1652833" lon="11.7287217"><ele>381.0</ele><time>2026-04-11T15:13:11.125Z</time></trkpt><trkpt lat="44.1653983" lon="11.7286933"><ele>379.0</ele><time>2026-04-11T15:13:12.124Z</time></trkpt><trkpt lat="44.16551" lon="11.7286767"><ele>377.0</ele><time>2026-04-11T15:13:13.124Z</time></trkpt><trkpt lat="44.165625" lon="11.7286617"><ele>375.0</ele><time>2026-04-11T15:13:14.124Z</time></trkpt><trkpt lat="44.1657383" lon="11.7286567"><ele>373.0</ele><time>2026-04-11T15:13:15.123Z</time></trkpt><trkpt lat="44.1658533" lon="11.72866"><ele>371.0</ele><time>2026-04-11T15:13:16.124Z</time></trkpt><trkpt lat="44.1659783" lon="11.728665"><ele>369.0</ele><time>2026-04-11T15:13:17.124Z</time></trkpt><trkpt lat="44.166105" lon="11.72866"><ele>369.0</ele><time>2026-04-11T15:13:18.125Z</time></trkpt><trkpt lat="44.166225" lon="11.728645"><ele>369.0</ele><time>2026-04-11T15:13:19.124Z</time></trkpt><trkpt lat="44.1663433" lon="11.7286233"><ele>369.0</ele><time>2026-04-11T15:13:20.124Z</time></trkpt><trkpt lat="44.1664567" lon="11.7285933"><ele>369.0</ele><time>2026-04-11T15:13:21.124Z</time></trkpt><trkpt lat="44.1665617" lon="11.7285617"><ele>370.2</ele><time>2026-04-11T15:13:22.124Z</time></trkpt><trkpt lat="44.16666" lon="11.7285117"><ele>371.4</ele><time>2026-04-11T15:13:23.124Z</time></trkpt><trkpt lat="44.1667533" lon="11.7284567"><ele>372.6</ele><time>2026-04-11T15:13:24.124Z</time></trkpt><trkpt lat="44.1668417" lon="11.728395"><ele>373.8</ele><time>2026-04-11T15:13:25.124Z</time></trkpt><trkpt lat="44.16693" lon="11.7283367"><ele>375.0</ele><time>2026-04-11T15:13:26.123Z</time></trkpt><trkpt lat="44.167015" lon="11.72828"><ele>375.0</ele><time>2026-04-11T15:13:27.125Z</time></trkpt><trkpt lat="44.1671017" lon="11.72823"><ele>375.0</ele><time>2026-04-11T15:13:28.124Z</time></trkpt><trkpt lat="44.16719" lon="11.728175"><ele>375.0</ele><time>2026-04-11T15:13:29.124Z</time></trkpt><trkpt lat="44.1672867" lon="11.7281167"><ele>375.0</ele><time>2026-04-11T15:13:30.124Z</time></trkpt><trkpt lat="44.167375" lon="11.7280483"><ele>375.0</ele><time>2026-04-11T15:13:31.124Z</time></trkpt><trkpt lat="44.1674583" lon="11.7279767"><ele>373.0</ele><time>2026-04-11T15:13:32.124Z</time></trkpt><trkpt lat="44.1675383" lon="11.7279167"><ele>371.0</ele><time>2026-04-11T15:13:33.125Z</time></trkpt><trkpt lat="44.167615" lon="11.7278767"><ele>369.0</ele><time>2026-04-11T15:13:34.125Z</time></trkpt><trkpt lat="44.1676967" lon="11.72785"><ele>367.0</ele><time>2026-04-11T15:13:35.125Z</time></trkpt><trkpt lat="44.167765" lon="11.7278167"><ele>365.0</ele><time>2026-04-11T15:13:36.125Z</time></trkpt><trkpt lat="44.167865" lon="11.727715"><ele>365.0</ele><time>2026-04-11T15:13:38.124Z</time></trkpt><trkpt lat="44.167895" lon="11.7276317"><ele>365.0</ele><time>2026-04-11T15:13:39.125Z</time></trkpt><trkpt lat="44.167905" lon="11.7275183"><ele>365.0</ele><time>2026-04-11T15:13:40.124Z</time></trkpt><trkpt lat="44.167925" lon="11.7273967"><ele>365.0</ele><time>2026-04-11T15:13:41.124Z</time></trkpt><trkpt lat="44.1679517" lon="11.72727"><ele>365.0</ele><time>2026-04-11T15:13:42.124Z</time></trkpt><trkpt lat="44.1679767" lon="11.7271583"><ele>365.0</ele><time>2026-04-11T15:13:43.124Z</time></trkpt><trkpt lat="44.16799" lon="11.7270683"><ele>365.0</ele><time>2026-04-11T15:13:44.124Z</time></trkpt><trkpt lat="44.1679667" lon="11.7269183"><ele>365.0</ele><time>2026-04-11T15:13:46.124Z</time></trkpt><trkpt lat="44.1679417" lon="11.7268283"><ele>365.0</ele><time>2026-04-11T15:13:47.124Z</time></trkpt><trkpt lat="44.16789" lon="11.7267167"><ele>365.0</ele><time>2026-04-11T15:13:48.125Z</time></trkpt><trkpt lat="44.16782" lon="11.726595"><ele>365.0</ele><time>2026-04-11T15:13:49.124Z</time></trkpt><trkpt lat="44.1677717" lon="11.72649"><ele>364.33333333333337</ele><time>2026-04-11T15:13:50.124Z</time></trkpt><trkpt lat="44.1677217" lon="11.7263883"><ele>363.6666666666667</ele><time>2026-04-11T15:13:51.124Z</time></trkpt><trkpt lat="44.167675" lon="11.7262883"><ele>363.0</ele><time>2026-04-11T15:13:52.125Z</time></trkpt><trkpt lat="44.167625" lon="11.7261883"><ele>362.3333333333333</ele><time>2026-04-11T15:13:53.124Z</time></trkpt><trkpt lat="44.1675783" lon="11.72609"><ele>361.66666666666663</ele><time>2026-04-11T15:13:54.124Z</time></trkpt><trkpt lat="44.1675283" lon="11.72599"><ele>361.0</ele><time>2026-04-11T15:13:55.124Z</time></trkpt><trkpt lat="44.1674717" lon="11.7259033"><ele>363.8</ele><time>2026-04-11T15:13:56.125Z</time></trkpt><trkpt lat="44.167405" lon="11.7258217"><ele>366.6</ele><time>2026-04-11T15:13:57.124Z</time></trkpt><trkpt lat="44.1673383" lon="11.7257533"><ele>369.4</ele><time>2026-04-11T15:13:58.124Z</time></trkpt><trkpt lat="44.16728" lon="11.7256917"><ele>372.2</ele><time>2026-04-11T15:13:59.124Z</time></trkpt><trkpt lat="44.167205" lon="11.725555"><ele>375.0</ele><time>2026-04-11T15:14:01.125Z</time></trkpt><trkpt lat="44.167145" lon="11.7254117"><ele>375.0</ele><time>2026-04-11T15:14:03.124Z</time></trkpt><trkpt lat="44.167095" lon="11.725255"><ele>375.0</ele><time>2026-04-11T15:14:05.126Z</time></trkpt><trkpt lat="44.1670767" lon="11.72516"><ele>375.0</ele><time>2026-04-11T15:14:06.124Z</time></trkpt><trkpt lat="44.1670567" lon="11.7250633"><ele>375.0</ele><time>2026-04-11T15:14:07.125Z</time></trkpt><trkpt lat="44.1670333" lon="11.724975"><ele>375.0</ele><time>2026-04-11T15:14:08.124Z</time></trkpt><trkpt lat="44.167" lon="11.72488"><ele>375.0</ele><time>2026-04-11T15:14:09.124Z</time></trkpt><trkpt lat="44.166965" lon="11.7247883"><ele>371.2</ele><time>2026-04-11T15:14:10.124Z</time></trkpt><trkpt lat="44.1669133" lon="11.724645"><ele>367.4</ele><time>2026-04-11T15:14:12.124Z</time></trkpt><trkpt lat="44.1668367" lon="11.7245683"><ele>363.6</ele><time>2026-04-11T15:14:14.124Z</time></trkpt><trkpt lat="44.16676" lon="11.7245117"><ele>359.8</ele><time>2026-04-11T15:14:16.123Z</time></trkpt><trkpt lat="44.1666972" lon="11.7244352"><ele>356.0</ele><time>2026-04-11T15:14:18.123Z</time></trkpt><trkpt lat="44.1666415" lon="11.7243154"><ele>353.0</ele><time>2026-04-11T15:14:20.124Z</time></trkpt><trkpt lat="44.166586" lon="11.724169"><ele>350.0</ele><time>2026-04-11T15:14:22.125Z</time></trkpt><trkpt lat="44.1664878" lon="11.7240825"><ele>347.0</ele><time>2026-04-11T15:14:24.125Z</time></trkpt><trkpt lat="44.1664188" lon="11.7240622"><ele>344.0</ele><time>2026-04-11T15:14:25.126Z</time></trkpt><trkpt lat="44.1663355" lon="11.7240529"><ele>341.0</ele><time>2026-04-11T15:14:26.123Z</time></trkpt><trkpt lat="44.1662467" lon="11.724031"><ele>341.0</ele><time>2026-04-11T15:14:27.124Z</time></trkpt><trkpt lat="44.1661664" lon="11.7239872"><ele>341.0</ele><time>2026-04-11T15:14:28.123Z</time></trkpt><trkpt lat="44.1660959" lon="11.7239337"><ele>341.0</ele><time>2026-04-11T15:14:29.124Z</time></trkpt><trkpt lat="44.1660324" lon="11.7238865"><ele>341.0</ele><time>2026-04-11T15:14:30.124Z</time></trkpt><trkpt lat="44.1659663" lon="11.7238495"><ele>341.0</ele><time>2026-04-11T15:14:31.124Z</time></trkpt><trkpt lat="44.165894" lon="11.7238311"><ele>341.0</ele><time>2026-04-11T15:14:32.124Z</time></trkpt><trkpt lat="44.1658109" lon="11.7238204"><ele>341.0</ele><time>2026-04-11T15:14:33.125Z</time></trkpt><trkpt lat="44.1657263" lon="11.7238015"><ele>341.0</ele><time>2026-04-11T15:14:34.124Z</time></trkpt><trkpt lat="44.1656491" lon="11.7237618"><ele>341.0</ele><time>2026-04-11T15:14:35.124Z</time></trkpt><trkpt lat="44.1655797" lon="11.7237007"><ele>341.0</ele><time>2026-04-11T15:14:36.124Z</time></trkpt><trkpt lat="44.1655283" lon="11.723628"><ele>341.0</ele><time>2026-04-11T15:14:37.124Z</time></trkpt><trkpt lat="44.1654819" lon="11.7235435"><ele>341.0</ele><time>2026-04-11T15:14:38.124Z</time></trkpt><trkpt lat="44.1654466" lon="11.7234462"><ele>340.57142857142856</ele><time>2026-04-11T15:14:39.124Z</time></trkpt><trkpt lat="44.1654262" lon="11.7233456"><ele>340.14285714285717</ele><time>2026-04-11T15:14:40.125Z</time></trkpt><trkpt lat="44.1654294" lon="11.7232527"><ele>339.7142857142857</ele><time>2026-04-11T15:14:41.124Z</time></trkpt><trkpt lat="44.1654446" lon="11.7231658"><ele>339.2857142857143</ele><time>2026-04-11T15:14:42.124Z</time></trkpt><trkpt lat="44.1654807" lon="11.7230793"><ele>338.85714285714283</ele><time>2026-04-11T15:14:43.124Z</time></trkpt><trkpt lat="44.1655229" lon="11.7229901"><ele>338.42857142857144</ele><time>2026-04-11T15:14:44.124Z</time></trkpt><trkpt lat="44.165571" lon="11.7228956"><ele>338.0</ele><time>2026-04-11T15:14:45.125Z</time></trkpt><trkpt lat="44.1656168" lon="11.7228004"><ele>335.57142857142856</ele><time>2026-04-11T15:14:46.125Z</time></trkpt><trkpt lat="44.1656623" lon="11.7227081"><ele>333.1428571428571</ele><time>2026-04-11T15:14:47.123Z</time></trkpt><trkpt lat="44.165705" lon="11.7226138"><ele>330.71428571428567</ele><time>2026-04-11T15:14:48.124Z</time></trkpt><trkpt lat="44.165744" lon="11.7225211"><ele>328.2857142857143</ele><time>2026-04-11T15:14:49.124Z</time></trkpt><trkpt lat="44.1657701" lon="11.7224347"><ele>325.85714285714283</ele><time>2026-04-11T15:14:50.123Z</time></trkpt><trkpt lat="44.165785" lon="11.7223447"><ele>323.4285714285714</ele><time>2026-04-11T15:14:51.124Z</time></trkpt><trkpt lat="44.1657848" lon="11.7222508"><ele>321.0</ele><time>2026-04-11T15:14:52.124Z</time></trkpt><trkpt lat="44.1657479" lon="11.7221659"><ele>320.99999999999994</ele><time>2026-04-11T15:14:53.124Z</time></trkpt><trkpt lat="44.1656937" lon="11.7221009"><ele>321.0</ele><time>2026-04-11T15:14:54.124Z</time></trkpt><trkpt lat="44.1656281" lon="11.7220369"><ele>321.0</ele><time>2026-04-11T15:14:55.124Z</time></trkpt><trkpt lat="44.165561" lon="11.7219748"><ele>321.0</ele><time>2026-04-11T15:14:56.124Z</time></trkpt><trkpt lat="44.1655026" lon="11.7219173"><ele>321.0</ele><time>2026-04-11T15:14:57.124Z</time></trkpt><trkpt lat="44.1654547" lon="11.7218496"><ele>320.99999999999994</ele><time>2026-04-11T15:14:58.125Z</time></trkpt><trkpt lat="44.1654232" lon="11.7217638"><ele>321.0</ele><time>2026-04-11T15:14:59.125Z</time></trkpt><trkpt lat="44.1654063" lon="11.721655"><ele>322.0</ele><time>2026-04-11T15:15:00.123Z</time></trkpt><trkpt lat="44.1654064" lon="11.7215335"><ele>323.0</ele><time>2026-04-11T15:15:01.124Z</time></trkpt><trkpt lat="44.1654227" lon="11.7214031"><ele>324.0</ele><time>2026-04-11T15:15:02.124Z</time></trkpt><trkpt lat="44.1654547" lon="11.7212819"><ele>325.0</ele><time>2026-04-11T15:15:03.124Z</time></trkpt><trkpt lat="44.1654861" lon="11.721169"><ele>326.0</ele><time>2026-04-11T15:15:04.123Z</time></trkpt><trkpt lat="44.1655099" lon="11.7210529"><ele>327.0</ele><time>2026-04-11T15:15:05.124Z</time></trkpt><trkpt lat="44.1655258" lon="11.7209373"><ele>329.6666666666667</ele><time>2026-04-11T15:15:06.124Z</time></trkpt><trkpt lat="44.1655359" lon="11.7208221"><ele>332.3333333333333</ele><time>2026-04-11T15:15:07.124Z</time></trkpt><trkpt lat="44.1655416" lon="11.7207125"><ele>335.0</ele><time>2026-04-11T15:15:08.123Z</time></trkpt><trkpt lat="44.1655478" lon="11.7206096"><ele>337.66666666666663</ele><time>2026-04-11T15:15:09.123Z</time></trkpt><trkpt lat="44.1655541" lon="11.720511"><ele>340.3333333333333</ele><time>2026-04-11T15:15:10.124Z</time></trkpt><trkpt lat="44.1655604" lon="11.7204197"><ele>343.0</ele><time>2026-04-11T15:15:11.125Z</time></trkpt><trkpt lat="44.1655962" lon="11.7202793"><ele>346.8333333333333</ele><time>2026-04-11T15:15:13.125Z</time></trkpt><trkpt lat="44.1656267" lon="11.7201399"><ele>350.66666666666663</ele><time>2026-04-11T15:15:15.124Z</time></trkpt><trkpt lat="44.1656324" lon="11.7199877"><ele>354.5</ele><time>2026-04-11T15:15:17.126Z</time></trkpt><trkpt lat="44.1655998" lon="11.7198969"><ele>358.3333333333333</ele><time>2026-04-11T15:15:19.124Z</time></trkpt><trkpt lat="44.16554" lon="11.7198433"><ele>362.1666666666667</ele><time>2026-04-11T15:15:21.125Z</time></trkpt><trkpt lat="44.1654567" lon="11.7198733"><ele>366.0</ele><time>2026-04-11T15:15:23.124Z</time></trkpt><trkpt lat="44.1653933" lon="11.719975"><ele>366.0</ele><time>2026-04-11T15:15:25.123Z</time></trkpt><trkpt lat="44.1653533" lon="11.7200883"><ele>366.0</ele><time>2026-04-11T15:15:27.124Z</time></trkpt><trkpt lat="44.1653117" lon="11.7202083"><ele>366.0</ele><time>2026-04-11T15:15:29.124Z</time></trkpt><trkpt lat="44.1652533" lon="11.720335"><ele>366.0</ele><time>2026-04-11T15:15:31.124Z</time></trkpt><trkpt lat="44.1651917" lon="11.7204783"><ele>366.0</ele><time>2026-04-11T15:15:33.124Z</time></trkpt><trkpt lat="44.1651217" lon="11.72062"><ele>362.5</ele><time>2026-04-11T15:15:35.123Z</time></trkpt><trkpt lat="44.165085" lon="11.7206917"><ele>359.0</ele><time>2026-04-11T15:15:36.124Z</time></trkpt><trkpt lat="44.1650517" lon="11.7207667"><ele>355.5</ele><time>2026-04-11T15:15:37.122Z</time></trkpt><trkpt lat="44.1649683" lon="11.72088"><ele>352.0</ele><time>2026-04-11T15:15:39.124Z</time></trkpt><trkpt lat="44.16485" lon="11.7209233"><ele>348.5</ele><time>2026-04-11T15:15:41.124Z</time></trkpt><trkpt lat="44.1647867" lon="11.7209233"><ele>345.0</ele><time>2026-04-11T15:15:42.125Z</time></trkpt><trkpt lat="44.1647233" lon="11.720905"><ele>345.0</ele><time>2026-04-11T15:15:43.124Z</time></trkpt><trkpt lat="44.164665" lon="11.7208667"><ele>345.0</ele><time>2026-04-11T15:15:44.124Z</time></trkpt><trkpt lat="44.1645633" lon="11.7207567"><ele>345.0</ele><time>2026-04-11T15:15:46.125Z</time></trkpt><trkpt lat="44.1644967" lon="11.72067"><ele>345.0</ele><time>2026-04-11T15:15:47.124Z</time></trkpt><trkpt lat="44.1644183" lon="11.72057"><ele>345.0</ele><time>2026-04-11T15:15:48.124Z</time></trkpt><trkpt lat="44.16433" lon="11.7204783"><ele>345.0</ele><time>2026-04-11T15:15:49.124Z</time></trkpt><trkpt lat="44.1642317" lon="11.7203817"><ele>345.0</ele><time>2026-04-11T15:15:50.124Z</time></trkpt><trkpt lat="44.16413" lon="11.7202867"><ele>345.0</ele><time>2026-04-11T15:15:51.124Z</time></trkpt><trkpt lat="44.16403" lon="11.7202017"><ele>345.0</ele><time>2026-04-11T15:15:52.124Z</time></trkpt><trkpt lat="44.1639333" lon="11.7201183"><ele>346.2</ele><time>2026-04-11T15:15:53.126Z</time></trkpt><trkpt lat="44.163845" lon="11.7200367"><ele>347.4</ele><time>2026-04-11T15:15:54.124Z</time></trkpt><trkpt lat="44.163765" lon="11.7199367"><ele>348.6</ele><time>2026-04-11T15:15:55.124Z</time></trkpt><trkpt lat="44.163695" lon="11.71983"><ele>349.8</ele><time>2026-04-11T15:15:56.124Z</time></trkpt><trkpt lat="44.1636283" lon="11.7197267"><ele>351.0</ele><time>2026-04-11T15:15:57.124Z</time></trkpt><trkpt lat="44.1635733" lon="11.719625"><ele>351.0</ele><time>2026-04-11T15:15:58.123Z</time></trkpt><trkpt lat="44.1635133" lon="11.7195133"><ele>351.0</ele><time>2026-04-11T15:15:59.124Z</time></trkpt><trkpt lat="44.1634517" lon="11.71942"><ele>351.0</ele><time>2026-04-11T15:16:00.124Z</time></trkpt><trkpt lat="44.1633767" lon="11.7193467"><ele>351.0</ele><time>2026-04-11T15:16:01.124Z</time></trkpt><trkpt lat="44.1632883" lon="11.7192967"><ele>351.0</ele><time>2026-04-11T15:16:02.124Z</time></trkpt><trkpt lat="44.1631967" lon="11.719265"><ele>353.3333333333333</ele><time>2026-04-11T15:16:03.123Z</time></trkpt><trkpt lat="44.1631033" lon="11.7192433"><ele>355.6666666666667</ele><time>2026-04-11T15:16:04.124Z</time></trkpt><trkpt lat="44.16302" lon="11.71922"><ele>358.0</ele><time>2026-04-11T15:16:05.125Z</time></trkpt><trkpt lat="44.1629533" lon="11.7191867"><ele>360.33333333333337</ele><time>2026-04-11T15:16:06.123Z</time></trkpt><trkpt lat="44.1628883" lon="11.7190767"><ele>362.6666666666667</ele><time>2026-04-11T15:16:08.124Z</time></trkpt><trkpt lat="44.1629033" lon="11.7189667"><ele>365.0</ele><time>2026-04-11T15:16:10.124Z</time></trkpt><trkpt lat="44.1629733" lon="11.7189783"><ele>365.0</ele><time>2026-04-11T15:16:11.124Z</time></trkpt><trkpt lat="44.1630367" lon="11.7190083"><ele>365.0</ele><time>2026-04-11T15:16:12.124Z</time></trkpt><trkpt lat="44.1631067" lon="11.7190517"><ele>365.0</ele><time>2026-04-11T15:16:13.123Z</time></trkpt><trkpt lat="44.16318" lon="11.7190917"><ele>365.0</ele><time>2026-04-11T15:16:14.124Z</time></trkpt><trkpt lat="44.1632633" lon="11.7191317"><ele>365.0</ele><time>2026-04-11T15:16:15.124Z</time></trkpt><trkpt lat="44.1633467" lon="11.7191633"><ele>365.0</ele><time>2026-04-11T15:16:16.124Z</time></trkpt><trkpt lat="44.1634383" lon="11.719205"><ele>362.2</ele><time>2026-04-11T15:16:17.124Z</time></trkpt><trkpt lat="44.163525" lon="11.7192633"><ele>359.4</ele><time>2026-04-11T15:16:18.124Z</time></trkpt><trkpt lat="44.1636067" lon="11.7193333"><ele>356.6</ele><time>2026-04-11T15:16:19.124Z</time></trkpt><trkpt lat="44.1636883" lon="11.7194033"><ele>353.8</ele><time>2026-04-11T15:16:20.124Z</time></trkpt><trkpt lat="44.1637683" lon="11.7194817"><ele>351.0</ele><time>2026-04-11T15:16:21.124Z</time></trkpt><trkpt lat="44.1638433" lon="11.71955"><ele>351.0</ele><time>2026-04-11T15:16:22.123Z</time></trkpt><trkpt lat="44.1639217" lon="11.71961"><ele>351.0</ele><time>2026-04-11T15:16:23.124Z</time></trkpt><trkpt lat="44.16401" lon="11.71966"><ele>351.0</ele><time>2026-04-11T15:16:24.124Z</time></trkpt><trkpt lat="44.1641017" lon="11.7197033"><ele>351.0</ele><time>2026-04-11T15:16:25.124Z</time></trkpt><trkpt lat="44.16419" lon="11.7197367"><ele>351.0</ele><time>2026-04-11T15:16:26.124Z</time></trkpt><trkpt lat="44.1642767" lon="11.71976"><ele>354.1666666666667</ele><time>2026-04-11T15:16:27.125Z</time></trkpt><trkpt lat="44.1643583" lon="11.719765"><ele>357.3333333333333</ele><time>2026-04-11T15:16:28.124Z</time></trkpt><trkpt lat="44.1644379" lon="11.7197561"><ele>360.5</ele><time>2026-04-11T15:16:29.126Z</time></trkpt><trkpt lat="44.164512" lon="11.7197192"><ele>363.66666666666663</ele><time>2026-04-11T15:16:30.124Z</time></trkpt><trkpt lat="44.1645768" lon="11.7196641"><ele>366.8333333333333</ele><time>2026-04-11T15:16:31.124Z</time></trkpt><trkpt lat="44.164634" lon="11.7195833"><ele>370.0</ele><time>2026-04-11T15:16:32.124Z</time></trkpt><trkpt lat="44.1646814" lon="11.7194881"><ele>373.8333333333333</ele><time>2026-04-11T15:16:33.124Z</time></trkpt><trkpt lat="44.1647226" lon="11.719399"><ele>377.66666666666663</ele><time>2026-04-11T15:16:34.124Z</time></trkpt><trkpt lat="44.1647791" lon="11.719264"><ele>381.5</ele><time>2026-04-11T15:16:36.124Z</time></trkpt><trkpt lat="44.1647854" lon="11.7191425"><ele>385.3333333333333</ele><time>2026-04-11T15:16:38.124Z</time></trkpt><trkpt lat="44.1647117" lon="11.719165"><ele>389.1666666666667</ele><time>2026-04-11T15:18:42.125Z</time></trkpt><trkpt lat="44.164655" lon="11.7192333"><ele>393.0</ele><time>2026-04-11T15:18:44.125Z</time></trkpt><trkpt lat="44.164565" lon="11.7193433"><ele>393.0</ele><time>2026-04-11T15:25:32.124Z</time></trkpt><trkpt lat="44.164475" lon="11.7193983"><ele>393.0</ele><time>2026-04-11T15:26:08.124Z</time></trkpt><trkpt lat="44.1643467" lon="11.7193133"><ele>393.0</ele><time>2026-04-11T15:26:10.125Z</time></trkpt><trkpt lat="44.1642667" lon="11.71924"><ele>393.0</ele><time>2026-04-11T15:26:11.124Z</time></trkpt><trkpt lat="44.1641767" lon="11.7191567"><ele>393.0</ele><time>2026-04-11T15:26:12.125Z</time></trkpt><trkpt lat="44.164075" lon="11.7190683"><ele>389.75</ele><time>2026-04-11T15:26:13.125Z</time></trkpt><trkpt lat="44.1639717" lon="11.7189733"><ele>386.5</ele><time>2026-04-11T15:26:14.125Z</time></trkpt><trkpt lat="44.16387" lon="11.71888"><ele>383.25</ele><time>2026-04-11T15:26:15.124Z</time></trkpt><trkpt lat="44.1637667" lon="11.7187933"><ele>380.0</ele><time>2026-04-11T15:26:16.124Z</time></trkpt><trkpt lat="44.163665" lon="11.7187217"><ele>380.0</ele><time>2026-04-11T15:26:17.125Z</time></trkpt><trkpt lat="44.163565" lon="11.718665"><ele>380.0</ele><time>2026-04-11T15:26:18.124Z</time></trkpt><trkpt lat="44.16347" lon="11.7186067"><ele>380.0</ele><time>2026-04-11T15:26:19.124Z</time></trkpt><trkpt lat="44.1633767" lon="11.7185417"><ele>380.0</ele><time>2026-04-11T15:26:20.124Z</time></trkpt><trkpt lat="44.1632933" lon="11.7184717"><ele>380.0</ele><time>2026-04-11T15:26:21.124Z</time></trkpt><trkpt lat="44.16322" lon="11.7183967"><ele>383.33333333333337</ele><time>2026-04-11T15:26:22.124Z</time></trkpt><trkpt lat="44.16316" lon="11.7183117"><ele>386.6666666666667</ele><time>2026-04-11T15:26:23.124Z</time></trkpt><trkpt lat="44.1631033" lon="11.71822"><ele>390.0</ele><time>2026-04-11T15:26:24.124Z</time></trkpt><trkpt lat="44.1630433" lon="11.7181333"><ele>393.33333333333337</ele><time>2026-04-11T15:26:25.124Z</time></trkpt><trkpt lat="44.1629867" lon="11.7180617"><ele>396.6666666666667</ele><time>2026-04-11T15:26:26.124Z</time></trkpt><trkpt lat="44.16293" lon="11.71801"><ele>400.0</ele><time>2026-04-11T15:26:27.125Z</time></trkpt><trkpt lat="44.1628117" lon="11.7179733"><ele>400.00000000000006</ele><time>2026-04-11T15:26:29.123Z</time></trkpt><trkpt lat="44.1626867" lon="11.7180033"><ele>400.0</ele><time>2026-04-11T15:26:31.125Z</time></trkpt><trkpt lat="44.1626183" lon="11.718"><ele>400.0</ele><time>2026-04-11T15:26:32.124Z</time></trkpt><trkpt lat="44.1625483" lon="11.7179867"><ele>400.0</ele><time>2026-04-11T15:26:33.124Z</time></trkpt><trkpt lat="44.1624783" lon="11.7179667"><ele>400.00000000000006</ele><time>2026-04-11T15:26:34.123Z</time></trkpt><trkpt lat="44.162405" lon="11.71793"><ele>400.0</ele><time>2026-04-11T15:26:35.124Z</time></trkpt><trkpt lat="44.1623317" lon="11.717895"><ele>399.50000000000006</ele><time>2026-04-11T15:26:36.124Z</time></trkpt><trkpt lat="44.162255" lon="11.7178617"><ele>399.0</ele><time>2026-04-11T15:26:37.124Z</time></trkpt><trkpt lat="44.1621733" lon="11.7178267"><ele>398.5</ele><time>2026-04-11T15:26:38.124Z</time></trkpt><trkpt lat="44.1620933" lon="11.7177867"><ele>398.0</ele><time>2026-04-11T15:26:39.124Z</time></trkpt><trkpt lat="44.1620183" lon="11.7177433"><ele>397.50000000000006</ele><time>2026-04-11T15:26:40.124Z</time></trkpt><trkpt lat="44.161945" lon="11.7176867"><ele>397.0</ele><time>2026-04-11T15:26:41.124Z</time></trkpt><trkpt lat="44.16187" lon="11.71764"><ele>400.2857142857143</ele><time>2026-04-11T15:26:42.123Z</time></trkpt><trkpt lat="44.1617917" lon="11.7176183"><ele>403.57142857142856</ele><time>2026-04-11T15:26:43.124Z</time></trkpt><trkpt lat="44.1617167" lon="11.7176167"><ele>406.8571428571429</ele><time>2026-04-11T15:26:44.124Z</time></trkpt><trkpt lat="44.161645" lon="11.7176383"><ele>410.1428571428571</ele><time>2026-04-11T15:26:45.124Z</time></trkpt><trkpt lat="44.1615767" lon="11.7176583"><ele>413.42857142857144</ele><time>2026-04-11T15:26:46.124Z</time></trkpt><trkpt lat="44.16151" lon="11.7176633"><ele>416.7142857142857</ele><time>2026-04-11T15:26:47.124Z</time></trkpt><trkpt lat="44.1614383" lon="11.717645"><ele>420.0</ele><time>2026-04-11T15:26:48.124Z</time></trkpt><trkpt lat="44.16137" lon="11.7176083"><ele>420.0</ele><time>2026-04-11T15:26:49.124Z</time></trkpt><trkpt lat="44.1613067" lon="11.7175517"><ele>420.0</ele><time>2026-04-11T15:26:50.124Z</time></trkpt><trkpt lat="44.161245" lon="11.71749"><ele>420.0</ele><time>2026-04-11T15:26:51.124Z</time></trkpt><trkpt lat="44.16118" lon="11.7174333"><ele>420.0</ele><time>2026-04-11T15:26:52.125Z</time></trkpt><trkpt lat="44.1611117" lon="11.71739"><ele>420.0</ele><time>2026-04-11T15:26:53.124Z</time></trkpt><trkpt lat="44.1610367" lon="11.7173433"><ele>420.0</ele><time>2026-04-11T15:26:54.126Z</time></trkpt><trkpt lat="44.160965" lon="11.7173083"><ele>420.0</ele><time>2026-04-11T15:26:55.124Z</time></trkpt><trkpt lat="44.1608933" lon="11.7172783"><ele>420.0</ele><time>2026-04-11T15:26:56.124Z</time></trkpt><trkpt lat="44.1608233" lon="11.7172517"><ele>420.0</ele><time>2026-04-11T15:26:57.124Z</time></trkpt><trkpt lat="44.1607533" lon="11.717235"><ele>420.0</ele><time>2026-04-11T15:26:58.124Z</time></trkpt><trkpt lat="44.1606867" lon="11.7172167"><ele>420.0</ele><time>2026-04-11T15:26:59.123Z</time></trkpt><trkpt lat="44.1606233" lon="11.71719"><ele>420.0</ele><time>2026-04-11T15:27:00.124Z</time></trkpt><trkpt lat="44.1605617" lon="11.7171583"><ele>420.0</ele><time>2026-04-11T15:27:01.124Z</time></trkpt><trkpt lat="44.1605033" lon="11.7171183"><ele>419.6666666666667</ele><time>2026-04-11T15:27:02.125Z</time></trkpt><trkpt lat="44.160445" lon="11.717075"><ele>419.33333333333337</ele><time>2026-04-11T15:27:03.126Z</time></trkpt><trkpt lat="44.1603833" lon="11.7170283"><ele>419.0</ele><time>2026-04-11T15:27:04.124Z</time></trkpt><trkpt lat="44.1603245" lon="11.7169825"><ele>418.6666666666667</ele><time>2026-04-11T15:27:05.125Z</time></trkpt><trkpt lat="44.160255" lon="11.7168748"><ele>418.33333333333337</ele><time>2026-04-11T15:27:07.124Z</time></trkpt><trkpt lat="44.1602434" lon="11.7167133"><ele>418.0</ele><time>2026-04-11T15:27:09.124Z</time></trkpt><trkpt lat="44.1602642" lon="11.7166246"><ele>418.00000000000006</ele><time>2026-04-11T15:27:10.125Z</time></trkpt><trkpt lat="44.1602895" lon="11.7165325"><ele>418.0</ele><time>2026-04-11T15:27:11.124Z</time></trkpt><trkpt lat="44.160314" lon="11.7164378"><ele>418.0</ele><time>2026-04-11T15:27:12.124Z</time></trkpt><trkpt lat="44.1603391" lon="11.7163391"><ele>418.0</ele><time>2026-04-11T15:27:13.124Z</time></trkpt><trkpt lat="44.1603652" lon="11.7162386"><ele>418.00000000000006</ele><time>2026-04-11T15:27:14.124Z</time></trkpt><trkpt lat="44.1603952" lon="11.7161381"><ele>418.0</ele><time>2026-04-11T15:27:15.123Z</time></trkpt><trkpt lat="44.1604293" lon="11.7160423"><ele>417.1666666666667</ele><time>2026-04-11T15:27:16.124Z</time></trkpt><trkpt lat="44.1604684" lon="11.7159574"><ele>416.33333333333337</ele><time>2026-04-11T15:27:17.126Z</time></trkpt><trkpt lat="44.1605202" lon="11.7158856"><ele>415.5</ele><time>2026-04-11T15:27:18.124Z</time></trkpt><trkpt lat="44.1605797" lon="11.7158201"><ele>414.66666666666663</ele><time>2026-04-11T15:27:19.124Z</time></trkpt><trkpt lat="44.1606474" lon="11.7157574"><ele>413.8333333333333</ele><time>2026-04-11T15:27:20.124Z</time></trkpt><trkpt lat="44.1607189" lon="11.7156902"><ele>413.0</ele><time>2026-04-11T15:27:21.125Z</time></trkpt><trkpt lat="44.1607931" lon="11.7156151"><ele>418.2</ele><time>2026-04-11T15:27:22.125Z</time></trkpt><trkpt lat="44.1608669" lon="11.7155308"><ele>423.4</ele><time>2026-04-11T15:27:23.125Z</time></trkpt><trkpt lat="44.1609389" lon="11.715443"><ele>428.59999999999997</ele><time>2026-04-11T15:27:24.126Z</time></trkpt><trkpt lat="44.1610091" lon="11.715351"><ele>433.79999999999995</ele><time>2026-04-11T15:27:25.126Z</time></trkpt><trkpt lat="44.1610704" lon="11.715248"><ele>439.0</ele><time>2026-04-11T15:27:26.127Z</time></trkpt><trkpt lat="44.1611147" lon="11.7151301"><ele>439.0</ele><time>2026-04-11T15:27:27.126Z</time></trkpt><trkpt lat="44.1611406" lon="11.7150047"><ele>439.0</ele><time>2026-04-11T15:27:28.125Z</time></trkpt><trkpt lat="44.1611537" lon="11.7148979"><ele>439.0</ele><time>2026-04-11T15:27:29.126Z</time></trkpt><trkpt lat="44.1612194" lon="11.7147666"><ele>439.0</ele><time>2026-04-11T15:27:31.126Z</time></trkpt><trkpt lat="44.1613336" lon="11.7146595"><ele>439.0</ele><time>2026-04-11T15:27:33.127Z</time></trkpt><trkpt lat="44.1614002" lon="11.714578"><ele>439.0</ele><time>2026-04-11T15:27:34.125Z</time></trkpt><trkpt lat="44.1614531" lon="11.714485"><ele>439.0</ele><time>2026-04-11T15:27:35.124Z</time></trkpt><trkpt lat="44.1614944" lon="11.71437"><ele>439.0</ele><time>2026-04-11T15:27:36.124Z</time></trkpt><trkpt lat="44.1615197" lon="11.7142467"><ele>439.0</ele><time>2026-04-11T15:27:37.124Z</time></trkpt><trkpt lat="44.1615248" lon="11.7141188"><ele>439.0</ele><time>2026-04-11T15:27:38.125Z</time></trkpt><trkpt lat="44.1615057" lon="11.7139931"><ele>438.83333333333337</ele><time>2026-04-11T15:27:39.125Z</time></trkpt><trkpt lat="44.161463" lon="11.7138789"><ele>438.6666666666667</ele><time>2026-04-11T15:27:40.124Z</time></trkpt><trkpt lat="44.1614034" lon="11.7137905"><ele>438.5</ele><time>2026-04-11T15:27:41.124Z</time></trkpt><trkpt lat="44.1613356" lon="11.7137229"><ele>438.33333333333337</ele><time>2026-04-11T15:27:42.124Z</time></trkpt><trkpt lat="44.1612684" lon="11.7136721"><ele>438.1666666666667</ele><time>2026-04-11T15:27:43.124Z</time></trkpt><trkpt lat="44.1612097" lon="11.7136237"><ele>438.0</ele><time>2026-04-11T15:27:44.124Z</time></trkpt><trkpt lat="44.1611555" lon="11.7135737"><ele>439.1666666666667</ele><time>2026-04-11T15:27:45.125Z</time></trkpt><trkpt lat="44.1611072" lon="11.7135137"><ele>440.33333333333337</ele><time>2026-04-11T15:27:46.125Z</time></trkpt><trkpt lat="44.1610425" lon="11.7133974"><ele>441.5</ele><time>2026-04-11T15:27:48.127Z</time></trkpt><trkpt lat="44.1610139" lon="11.7133049"><ele>442.6666666666667</ele><time>2026-04-11T15:27:50.126Z</time></trkpt><trkpt lat="44.1610865" lon="11.7132347"><ele>443.83333333333337</ele><time>2026-04-11T15:27:53.127Z</time></trkpt><trkpt lat="44.1611682" lon="11.71319"><ele>445.0</ele><time>2026-04-11T15:27:55.126Z</time></trkpt><trkpt lat="44.1612937" lon="11.7131856"><ele>445.0</ele><time>2026-04-11T15:27:57.126Z</time></trkpt><trkpt lat="44.1613908" lon="11.7131761"><ele>445.0</ele><time>2026-04-11T15:27:58.126Z</time></trkpt><trkpt lat="44.1614986" lon="11.7131587"><ele>445.0</ele><time>2026-04-11T15:27:59.125Z</time></trkpt><trkpt lat="44.1616351" lon="11.7131295"><ele>445.0</ele><time>2026-04-11T15:28:01.124Z</time></trkpt><trkpt lat="44.1617244" lon="11.7131064"><ele>445.0</ele><time>2026-04-11T15:28:02.123Z</time></trkpt><trkpt lat="44.161833" lon="11.7130858"><ele>451.75</ele><time>2026-04-11T15:28:03.124Z</time></trkpt><trkpt lat="44.1619488" lon="11.7130634"><ele>458.5</ele><time>2026-04-11T15:28:04.124Z</time></trkpt><trkpt lat="44.1620668" lon="11.7130281"><ele>465.25</ele><time>2026-04-11T15:28:05.123Z</time></trkpt><trkpt lat="44.1621773" lon="11.712976"><ele>472.0</ele><time>2026-04-11T15:28:06.123Z</time></trkpt><trkpt lat="44.162273" lon="11.7128941"><ele>472.00000000000006</ele><time>2026-04-11T15:28:07.124Z</time></trkpt><trkpt lat="44.1623306" lon="11.7128082"><ele>472.0</ele><time>2026-04-11T15:28:08.124Z</time></trkpt><trkpt lat="44.1623646" lon="11.7126981"><ele>472.0</ele><time>2026-04-11T15:28:09.125Z</time></trkpt><trkpt lat="44.1623825" lon="11.7125857"><ele>472.0</ele><time>2026-04-11T15:28:10.125Z</time></trkpt><trkpt lat="44.162384" lon="11.7124722"><ele>472.00000000000006</ele><time>2026-04-11T15:28:11.126Z</time></trkpt><trkpt lat="44.1623868" lon="11.712359"><ele>472.0</ele><time>2026-04-11T15:28:12.125Z</time></trkpt><trkpt lat="44.1623975" lon="11.7122522"><ele>472.50000000000006</ele><time>2026-04-11T15:28:13.126Z</time></trkpt><trkpt lat="44.162414" lon="11.7121452"><ele>473.0</ele><time>2026-04-11T15:28:14.126Z</time></trkpt><trkpt lat="44.1624369" lon="11.7120431"><ele>473.5</ele><time>2026-04-11T15:28:15.126Z</time></trkpt><trkpt lat="44.1624659" lon="11.7119611"><ele>474.0</ele><time>2026-04-11T15:28:16.125Z</time></trkpt><trkpt lat="44.1625522" lon="11.7118359"><ele>474.50000000000006</ele><time>2026-04-11T15:28:18.126Z</time></trkpt><trkpt lat="44.1626162" lon="11.711794"><ele>475.0</ele><time>2026-04-11T15:28:19.126Z</time></trkpt><trkpt lat="44.1626872" lon="11.711774"><ele>475.00000000000006</ele><time>2026-04-11T15:28:20.124Z</time></trkpt><trkpt lat="44.1627648" lon="11.711777"><ele>475.0</ele><time>2026-04-11T15:28:21.126Z</time></trkpt><trkpt lat="44.1628516" lon="11.7117787"><ele>475.0</ele><time>2026-04-11T15:28:22.127Z</time></trkpt><trkpt lat="44.1629439" lon="11.7117748"><ele>475.0</ele><time>2026-04-11T15:28:23.126Z</time></trkpt><trkpt lat="44.1630359" lon="11.7117627"><ele>475.00000000000006</ele><time>2026-04-11T15:28:24.126Z</time></trkpt><trkpt lat="44.1631271" lon="11.7117424"><ele>475.0</ele><time>2026-04-11T15:28:25.126Z</time></trkpt><trkpt lat="44.1632176" lon="11.7117134"><ele>479.33333333333337</ele><time>2026-04-11T15:28:26.125Z</time></trkpt><trkpt lat="44.1632956" lon="11.7116656"><ele>483.6666666666667</ele><time>2026-04-11T15:28:27.126Z</time></trkpt><trkpt lat="44.1633613" lon="11.7116025"><ele>488.0</ele><time>2026-04-11T15:28:28.125Z</time></trkpt><trkpt lat="44.1634091" lon="11.7115125"><ele>492.33333333333337</ele><time>2026-04-11T15:28:29.126Z</time></trkpt><trkpt lat="44.1634279" lon="11.7114055"><ele>496.6666666666667</ele><time>2026-04-11T15:28:30.126Z</time></trkpt><trkpt lat="44.1634157" lon="11.7112948"><ele>501.0</ele><time>2026-04-11T15:28:31.126Z</time></trkpt><trkpt lat="44.1633796" lon="11.7111977"><ele>501.0</ele><time>2026-04-11T15:28:32.126Z</time></trkpt><trkpt lat="44.1633281" lon="11.7111081"><ele>501.0</ele><time>2026-04-11T15:28:33.126Z</time></trkpt><trkpt lat="44.1632629" lon="11.7110633"><ele>501.0</ele><time>2026-04-11T15:28:34.126Z</time></trkpt><trkpt lat="44.1632051" lon="11.7110228"><ele>501.0</ele><time>2026-04-11T15:28:35.126Z</time></trkpt><trkpt lat="44.1631165" lon="11.7109295"><ele>501.0</ele><time>2026-04-11T15:28:37.122Z</time></trkpt><trkpt lat="44.1631031" lon="11.7107962"><ele>501.0</ele><time>2026-04-11T15:28:39.123Z</time></trkpt><trkpt lat="44.1631131" lon="11.7107079"><ele>501.1666666666667</ele><time>2026-04-11T15:28:40.124Z</time></trkpt><trkpt lat="44.1631152" lon="11.7106019"><ele>501.33333333333337</ele><time>2026-04-11T15:28:41.124Z</time></trkpt><trkpt lat="44.163095" lon="11.7104924"><ele>501.5</ele><time>2026-04-11T15:28:42.124Z</time></trkpt><trkpt lat="44.1630579" lon="11.7103941"><ele>501.6666666666667</ele><time>2026-04-11T15:28:43.124Z</time></trkpt><trkpt lat="44.1630084" lon="11.7103065"><ele>501.83333333333337</ele><time>2026-04-11T15:28:44.123Z</time></trkpt><trkpt lat="44.1629492" lon="11.7102266"><ele>502.0</ele><time>2026-04-11T15:28:45.123Z</time></trkpt><trkpt lat="44.1628886" lon="11.7101574"><ele>502.00000000000006</ele><time>2026-04-11T15:28:46.124Z</time></trkpt><trkpt lat="44.1628244" lon="11.710106"><ele>502.0</ele><time>2026-04-11T15:28:47.124Z</time></trkpt><trkpt lat="44.1627507" lon="11.7100761"><ele>502.0</ele><time>2026-04-11T15:28:48.124Z</time></trkpt><trkpt lat="44.1626733" lon="11.7100784"><ele>502.0</ele><time>2026-04-11T15:28:49.124Z</time></trkpt><trkpt lat="44.1625977" lon="11.7100827"><ele>502.00000000000006</ele><time>2026-04-11T15:28:50.124Z</time></trkpt><trkpt lat="44.1625193" lon="11.7101108"><ele>502.0</ele><time>2026-04-11T15:28:51.125Z</time></trkpt><trkpt lat="44.1624529" lon="11.7101399"><ele>502.0</ele><time>2026-04-11T15:28:52.124Z</time></trkpt><trkpt lat="44.1624195" lon="11.7099688"><ele>502.00000000000006</ele><time>2026-04-11T15:28:57.124Z</time></trkpt><trkpt lat="44.162418" lon="11.7098615"><ele>502.00000000000006</ele><time>2026-04-11T15:28:58.123Z</time></trkpt><trkpt lat="44.1623971" lon="11.7097446"><ele>502.0</ele><time>2026-04-11T15:28:59.124Z</time></trkpt><trkpt lat="44.1623582" lon="11.7096207"><ele>502.0</ele><time>2026-04-11T15:29:00.124Z</time></trkpt><trkpt lat="44.1623065" lon="11.7095089"><ele>504.6</ele><time>2026-04-11T15:29:01.123Z</time></trkpt><trkpt lat="44.1622448" lon="11.7094052"><ele>507.20000000000005</ele><time>2026-04-11T15:29:02.124Z</time></trkpt><trkpt lat="44.1621836" lon="11.7093102"><ele>509.8</ele><time>2026-04-11T15:29:03.124Z</time></trkpt><trkpt lat="44.1621188" lon="11.7092281"><ele>512.4</ele><time>2026-04-11T15:29:04.124Z</time></trkpt><trkpt lat="44.1620394" lon="11.7091651"><ele>515.0</ele><time>2026-04-11T15:29:05.125Z</time></trkpt><trkpt lat="44.1619514" lon="11.7091151"><ele>515.0</ele><time>2026-04-11T15:29:06.124Z</time></trkpt><trkpt lat="44.1618593" lon="11.709077"><ele>515.0</ele><time>2026-04-11T15:29:07.124Z</time></trkpt><trkpt lat="44.1617644" lon="11.7090703"><ele>515.0</ele><time>2026-04-11T15:29:08.124Z</time></trkpt><trkpt lat="44.1616729" lon="11.7090979"><ele>515.0</ele><time>2026-04-11T15:29:09.124Z</time></trkpt><trkpt lat="44.1615969" lon="11.7091386"><ele>515.0</ele><time>2026-04-11T15:29:10.124Z</time></trkpt><trkpt lat="44.1615357" lon="11.7092075"><ele>515.0</ele><time>2026-04-11T15:29:11.123Z</time></trkpt><trkpt lat="44.1614726" lon="11.7092958"><ele>514.6666666666666</ele><time>2026-04-11T15:29:13.123Z</time></trkpt><trkpt lat="44.1614244" lon="11.7091935"><ele>514.3333333333333</ele><time>2026-04-11T15:29:16.124Z</time></trkpt><trkpt lat="44.1613856" lon="11.7091014"><ele>514.0</ele><time>2026-04-11T15:29:17.124Z</time></trkpt><trkpt lat="44.1613455" lon="11.7090131"><ele>513.6666666666666</ele><time>2026-04-11T15:29:18.124Z</time></trkpt><trkpt lat="44.1612989" lon="11.708924"><ele>513.3333333333334</ele><time>2026-04-11T15:29:19.124Z</time></trkpt><trkpt lat="44.1612496" lon="11.7088522"><ele>513.0</ele><time>2026-04-11T15:29:20.125Z</time></trkpt><trkpt lat="44.1611815" lon="11.7087885"><ele>513.0</ele><time>2026-04-11T15:29:21.124Z</time></trkpt><trkpt lat="44.1611121" lon="11.7087336"><ele>513.0</ele><time>2026-04-11T15:29:22.124Z</time></trkpt><trkpt lat="44.1610366" lon="11.7086968"><ele>513.0</ele><time>2026-04-11T15:29:23.124Z</time></trkpt><trkpt lat="44.1609565" lon="11.7086831"><ele>513.0</ele><time>2026-04-11T15:29:24.124Z</time></trkpt><trkpt lat="44.160876" lon="11.7086884"><ele>513.0</ele><time>2026-04-11T15:29:25.123Z</time></trkpt><trkpt lat="44.1607997" lon="11.7086915"><ele>513.0</ele><time>2026-04-11T15:29:26.124Z</time></trkpt><trkpt lat="44.1607317" lon="11.7086901"><ele>514.6666666666666</ele><time>2026-04-11T15:29:27.124Z</time></trkpt><trkpt lat="44.1606664" lon="11.7086773"><ele>516.3333333333334</ele><time>2026-04-11T15:29:28.124Z</time></trkpt><trkpt lat="44.1605918" lon="11.7086599"><ele>518.0</ele><time>2026-04-11T15:29:29.124Z</time></trkpt><trkpt lat="44.1605136" lon="11.7086599"><ele>519.6666666666667</ele><time>2026-04-11T15:29:30.125Z</time></trkpt><trkpt lat="44.160441" lon="11.7086783"><ele>521.3333333333334</ele><time>2026-04-11T15:29:31.124Z</time></trkpt><trkpt lat="44.1603299" lon="11.7087207"><ele>523.0</ele><time>2026-04-11T15:29:33.125Z</time></trkpt><trkpt lat="44.160453" lon="11.7087058"><ele>523.0</ele><time>2026-04-11T15:29:41.123Z</time></trkpt><trkpt lat="44.1605253" lon="11.7087073"><ele>523.0</ele><time>2026-04-11T15:29:42.124Z</time></trkpt><trkpt lat="44.160609" lon="11.7086968"><ele>523.0</ele><time>2026-04-11T15:29:43.124Z</time></trkpt><trkpt lat="44.1606904" lon="11.7086724"><ele>523.0</ele><time>2026-04-11T15:29:44.131Z</time></trkpt><trkpt lat="44.1607711" lon="11.7086433"><ele>523.0</ele><time>2026-04-11T15:29:45.125Z</time></trkpt><trkpt lat="44.1608499" lon="11.708616"><ele>523.0</ele><time>2026-04-11T15:29:46.124Z</time></trkpt><trkpt lat="44.1609346" lon="11.7085967"><ele>521.3333333333334</ele><time>2026-04-11T15:29:47.124Z</time></trkpt><trkpt lat="44.1610189" lon="11.7085875"><ele>519.6666666666667</ele><time>2026-04-11T15:29:48.124Z</time></trkpt><trkpt lat="44.1610987" lon="11.7085886"><ele>518.0</ele><time>2026-04-11T15:29:49.123Z</time></trkpt><trkpt lat="44.1611669" lon="11.7085976"><ele>516.3333333333334</ele><time>2026-04-11T15:29:50.124Z</time></trkpt><trkpt lat="44.1612636" lon="11.7085842"><ele>514.6666666666666</ele><time>2026-04-11T15:29:52.124Z</time></trkpt><trkpt lat="44.161314" lon="11.7085214"><ele>513.0</ele><time>2026-04-11T15:29:54.124Z</time></trkpt><trkpt lat="44.1612999" lon="11.7084327"><ele>518.0</ele><time>2026-04-11T15:29:56.123Z</time></trkpt><trkpt lat="44.1612367" lon="11.7083981"><ele>523.0</ele><time>2026-04-11T15:29:57.124Z</time></trkpt><trkpt lat="44.1611613" lon="11.7083872"><ele>528.0</ele><time>2026-04-11T15:29:58.124Z</time></trkpt><trkpt lat="44.1610787" lon="11.7083833"><ele>533.0</ele><time>2026-04-11T15:29:59.124Z</time></trkpt><trkpt lat="44.1609941" lon="11.708379"><ele>538.0</ele><time>2026-04-11T15:30:00.124Z</time></trkpt><trkpt lat="44.1609094" lon="11.7083719"><ele>543.0</ele><time>2026-04-11T15:30:01.124Z</time></trkpt><trkpt lat="44.1608199" lon="11.7083721"><ele>543.0</ele><time>2026-04-11T15:30:02.123Z</time></trkpt><trkpt lat="44.1607339" lon="11.7083812"><ele>543.0</ele><time>2026-04-11T15:30:03.127Z</time></trkpt><trkpt lat="44.1606481" lon="11.7083948"><ele>543.0</ele><time>2026-04-11T15:30:04.123Z</time></trkpt><trkpt lat="44.1605636" lon="11.7084007"><ele>543.0</ele><time>2026-04-11T15:30:05.125Z</time></trkpt><trkpt lat="44.1604823" lon="11.7083884"><ele>543.0</ele><time>2026-04-11T15:30:06.124Z</time></trkpt><trkpt lat="44.160411" lon="11.708354"><ele>543.0</ele><time>2026-04-11T15:30:07.124Z</time></trkpt><trkpt lat="44.1603526" lon="11.7083133"><ele>545.1999999999999</ele><time>2026-04-11T15:30:08.123Z</time></trkpt><trkpt lat="44.1602573" lon="11.7082658"><ele>547.4</ele><time>2026-04-11T15:30:10.123Z</time></trkpt><trkpt lat="44.1602178" lon="11.7081916"><ele>549.5999999999999</ele><time>2026-04-11T15:30:12.123Z</time></trkpt><trkpt lat="44.1602841" lon="11.7081364"><ele>551.8</ele><time>2026-04-11T15:30:15.124Z</time></trkpt><trkpt lat="44.1603882" lon="11.708194"><ele>554.0</ele><time>2026-04-11T15:30:17.123Z</time></trkpt><trkpt lat="44.1605042" lon="11.7082289"><ele>554.0</ele><time>2026-04-11T15:30:19.123Z</time></trkpt><trkpt lat="44.1606224" lon="11.7081843"><ele>554.0</ele><time>2026-04-11T15:30:21.125Z</time></trkpt><trkpt lat="44.160678" lon="11.7081366"><ele>554.0</ele><time>2026-04-11T15:30:22.123Z</time></trkpt><trkpt lat="44.1607322" lon="11.7080866"><ele>554.0</ele><time>2026-04-11T15:30:23.124Z</time></trkpt><trkpt lat="44.1607925" lon="11.7080487"><ele>554.0</ele><time>2026-04-11T15:30:24.124Z</time></trkpt><trkpt lat="44.1608573" lon="11.7080215"><ele>554.0</ele><time>2026-04-11T15:30:25.124Z</time></trkpt><trkpt lat="44.1609268" lon="11.708009"><ele>552.1666666666666</ele><time>2026-04-11T15:30:26.125Z</time></trkpt><trkpt lat="44.161001" lon="11.7080109"><ele>550.3333333333333</ele><time>2026-04-11T15:30:27.125Z</time></trkpt><trkpt lat="44.1610766" lon="11.7080265"><ele>548.5</ele><time>2026-04-11T15:30:28.124Z</time></trkpt><trkpt lat="44.1611562" lon="11.7080497"><ele>546.6666666666666</ele><time>2026-04-11T15:30:29.124Z</time></trkpt><trkpt lat="44.1612394" lon="11.7080748"><ele>544.8333333333334</ele><time>2026-04-11T15:30:30.124Z</time></trkpt><trkpt lat="44.1613286" lon="11.7081001"><ele>543.0</ele><time>2026-04-11T15:30:31.124Z</time></trkpt><trkpt lat="44.1614164" lon="11.7081237"><ele>543.0</ele><time>2026-04-11T15:30:32.124Z</time></trkpt><trkpt lat="44.1614944" lon="11.7081447"><ele>543.0</ele><time>2026-04-11T15:30:33.124Z</time></trkpt><trkpt lat="44.1615683" lon="11.7081489"><ele>543.0</ele><time>2026-04-11T15:30:34.123Z</time></trkpt><trkpt lat="44.1616309" lon="11.7081263"><ele>543.0</ele><time>2026-04-11T15:30:35.124Z</time></trkpt><trkpt lat="44.1616835" lon="11.708069"><ele>543.0</ele><time>2026-04-11T15:30:36.125Z</time></trkpt><trkpt lat="44.1617368" lon="11.7080045"><ele>543.0</ele><time>2026-04-11T15:30:37.124Z</time></trkpt><trkpt lat="44.1617909" lon="11.7079554"><ele>543.0</ele><time>2026-04-11T15:30:38.124Z</time></trkpt><trkpt lat="44.16191" lon="11.7079355"><ele>543.7142857142858</ele><time>2026-04-11T15:30:40.124Z</time></trkpt><trkpt lat="44.161973" lon="11.7079645"><ele>544.4285714285714</ele><time>2026-04-11T15:30:41.124Z</time></trkpt><trkpt lat="44.1620378" lon="11.7080054"><ele>545.1428571428571</ele><time>2026-04-11T15:30:42.124Z</time></trkpt><trkpt lat="44.1621046" lon="11.7080387"><ele>545.8571428571429</ele><time>2026-04-11T15:30:43.124Z</time></trkpt><trkpt lat="44.1621729" lon="11.7080551"><ele>546.5714285714286</ele><time>2026-04-11T15:30:44.123Z</time></trkpt><trkpt lat="44.1622467" lon="11.7080496"><ele>547.2857142857143</ele><time>2026-04-11T15:30:45.123Z</time></trkpt><trkpt lat="44.1623245" lon="11.7080322"><ele>548.0</ele><time>2026-04-11T15:30:46.124Z</time></trkpt><trkpt lat="44.1624019" lon="11.708017"><ele>550.3333333333333</ele><time>2026-04-11T15:30:47.124Z</time></trkpt><trkpt lat="44.1624761" lon="11.708014"><ele>552.6666666666666</ele><time>2026-04-11T15:30:48.125Z</time></trkpt><trkpt lat="44.1625445" lon="11.7080309"><ele>555.0</ele><time>2026-04-11T15:30:49.124Z</time></trkpt><trkpt lat="44.162605" lon="11.7080828"><ele>557.3333333333334</ele><time>2026-04-11T15:30:50.124Z</time></trkpt><trkpt lat="44.1626665" lon="11.7081651"><ele>559.6666666666667</ele><time>2026-04-11T15:30:51.124Z</time></trkpt><trkpt lat="44.1627221" lon="11.7082637"><ele>562.0</ele><time>2026-04-11T15:30:52.124Z</time></trkpt><trkpt lat="44.1627695" lon="11.7083647"><ele>562.0</ele><time>2026-04-11T15:30:53.123Z</time></trkpt><trkpt lat="44.1628062" lon="11.7084532"><ele>562.0</ele><time>2026-04-11T15:30:54.124Z</time></trkpt><trkpt lat="44.1628481" lon="11.7085221"><ele>562.0</ele><time>2026-04-11T15:30:55.124Z</time></trkpt><trkpt lat="44.1629516" lon="11.7085761"><ele>562.0</ele><time>2026-04-11T15:30:57.124Z</time></trkpt><trkpt lat="44.1630796" lon="11.708537"><ele>562.0</ele><time>2026-04-11T15:30:59.124Z</time></trkpt><trkpt lat="44.1631487" lon="11.7085266"><ele>562.0</ele><time>2026-04-11T15:31:00.123Z</time></trkpt><trkpt lat="44.1632162" lon="11.7085156"><ele>562.0</ele><time>2026-04-11T15:31:01.125Z</time></trkpt><trkpt lat="44.1633084" lon="11.7084544"><ele>562.0</ele><time>2026-04-11T15:31:03.126Z</time></trkpt><trkpt lat="44.1633378" lon="11.708335"><ele>562.0</ele><time>2026-04-11T15:31:05.125Z</time></trkpt><trkpt lat="44.1633051" lon="11.7081947"><ele>562.0</ele><time>2026-04-11T15:31:07.125Z</time></trkpt><trkpt lat="44.1632074" lon="11.7080756"><ele>562.0</ele><time>2026-04-11T15:31:09.127Z</time></trkpt><trkpt lat="44.1631504" lon="11.7080222"><ele>562.0</ele><time>2026-04-11T15:31:10.126Z</time></trkpt><trkpt lat="44.1630922" lon="11.7079548"><ele>562.0</ele><time>2026-04-11T15:31:11.124Z</time></trkpt><trkpt lat="44.1630457" lon="11.7078734"><ele>562.0</ele><time>2026-04-11T15:31:12.126Z</time></trkpt><trkpt lat="44.1630066" lon="11.7077821"><ele>562.0</ele><time>2026-04-11T15:31:13.125Z</time></trkpt><trkpt lat="44.1629949" lon="11.7076725"><ele>562.0</ele><time>2026-04-11T15:31:14.126Z</time></trkpt><trkpt lat="44.1629984" lon="11.7075515"><ele>562.0</ele><time>2026-04-11T15:31:15.125Z</time></trkpt><trkpt lat="44.1630056" lon="11.7074138"><ele>565.8000000000001</ele><time>2026-04-11T15:31:16.125Z</time></trkpt><trkpt lat="44.1630169" lon="11.7072694"><ele>569.6</ele><time>2026-04-11T15:31:17.125Z</time></trkpt><trkpt lat="44.1630208" lon="11.7071266"><ele>573.4000000000001</ele><time>2026-04-11T15:31:18.126Z</time></trkpt><trkpt lat="44.1630197" lon="11.7069863"><ele>577.2</ele><time>2026-04-11T15:31:19.127Z</time></trkpt><trkpt lat="44.1630172" lon="11.7068511"><ele>581.0</ele><time>2026-04-11T15:31:20.125Z</time></trkpt><trkpt lat="44.1630178" lon="11.7067266"><ele>581.6666666666666</ele><time>2026-04-11T15:31:21.127Z</time></trkpt><trkpt lat="44.163013" lon="11.7066074"><ele>582.3333333333333</ele><time>2026-04-11T15:31:22.126Z</time></trkpt><trkpt lat="44.1630122" lon="11.7064948"><ele>583.0</ele><time>2026-04-11T15:31:23.125Z</time></trkpt><trkpt lat="44.1630202" lon="11.7063888"><ele>583.6666666666666</ele><time>2026-04-11T15:31:24.126Z</time></trkpt><trkpt lat="44.1630367" lon="11.7062767"><ele>584.3333333333334</ele><time>2026-04-11T15:31:25.124Z</time></trkpt><trkpt lat="44.1630475" lon="11.7061582"><ele>585.0</ele><time>2026-04-11T15:31:26.124Z</time></trkpt><trkpt lat="44.1630485" lon="11.7060405"><ele>585.0</ele><time>2026-04-11T15:31:27.125Z</time></trkpt><trkpt lat="44.1630484" lon="11.7059263"><ele>585.0</ele><time>2026-04-11T15:31:28.123Z</time></trkpt><trkpt lat="44.1630561" lon="11.7058121"><ele>585.0</ele><time>2026-04-11T15:31:29.124Z</time></trkpt><trkpt lat="44.1630712" lon="11.705692"><ele>585.0</ele><time>2026-04-11T15:31:30.123Z</time></trkpt><trkpt lat="44.1630949" lon="11.7055685"><ele>585.0</ele><time>2026-04-11T15:31:31.124Z</time></trkpt><trkpt lat="44.1631181" lon="11.7054355"><ele>585.0</ele><time>2026-04-11T15:31:32.125Z</time></trkpt><trkpt lat="44.1631364" lon="11.705299"><ele>581.6</ele><time>2026-04-11T15:31:33.125Z</time></trkpt><trkpt lat="44.163148" lon="11.7051642"><ele>578.2</ele><time>2026-04-11T15:31:34.125Z</time></trkpt><trkpt lat="44.1631535" lon="11.705029"><ele>574.8</ele><time>2026-04-11T15:31:35.124Z</time></trkpt><trkpt lat="44.1631617" lon="11.7048989"><ele>571.4</ele><time>2026-04-11T15:31:36.125Z</time></trkpt><trkpt lat="44.1631704" lon="11.7047755"><ele>568.0</ele><time>2026-04-11T15:31:37.124Z</time></trkpt><trkpt lat="44.1631858" lon="11.7046524"><ele>564.0</ele><time>2026-04-11T15:31:38.124Z</time></trkpt><trkpt lat="44.163208" lon="11.7045239"><ele>560.0</ele><time>2026-04-11T15:31:39.124Z</time></trkpt><trkpt lat="44.1632352" lon="11.7043916"><ele>556.0</ele><time>2026-04-11T15:31:40.124Z</time></trkpt><trkpt lat="44.1632715" lon="11.7042688"><ele>552.0</ele><time>2026-04-11T15:31:41.123Z</time></trkpt><trkpt lat="44.1633161" lon="11.7041576"><ele>548.0</ele><time>2026-04-11T15:31:42.124Z</time></trkpt><trkpt lat="44.1633712" lon="11.704051"><ele>546.6</ele><time>2026-04-11T15:31:43.124Z</time></trkpt><trkpt lat="44.1634365" lon="11.7039531"><ele>545.1999999999999</ele><time>2026-04-11T15:31:44.125Z</time></trkpt><trkpt lat="44.1635082" lon="11.7038852"><ele>543.8</ele><time>2026-04-11T15:31:45.123Z</time></trkpt><trkpt lat="44.1635907" lon="11.7038193"><ele>542.4</ele><time>2026-04-11T15:31:46.124Z</time></trkpt><trkpt lat="44.1636723" lon="11.7037599"><ele>541.0</ele><time>2026-04-11T15:31:47.124Z</time></trkpt><trkpt lat="44.1637529" lon="11.7036949"><ele>541.0</ele><time>2026-04-11T15:31:48.124Z</time></trkpt><trkpt lat="44.163819" lon="11.7036239"><ele>541.0</ele><time>2026-04-11T15:31:49.124Z</time></trkpt><trkpt lat="44.1638643" lon="11.7035475"><ele>541.0</ele><time>2026-04-11T15:31:50.124Z</time></trkpt><trkpt lat="44.16391" lon="11.7033938"><ele>541.0</ele><time>2026-04-11T15:31:52.124Z</time></trkpt><trkpt lat="44.1639642" lon="11.7032933"><ele>541.0</ele><time>2026-04-11T15:31:54.124Z</time></trkpt><trkpt lat="44.164004" lon="11.7033626"><ele>541.0</ele><time>2026-04-11T15:31:56.124Z</time></trkpt><trkpt lat="44.1639712" lon="11.703509"><ele>541.0</ele><time>2026-04-11T15:31:58.124Z</time></trkpt><trkpt lat="44.1639224" lon="11.7036018"><ele>541.0</ele><time>2026-04-11T15:31:59.124Z</time></trkpt><trkpt lat="44.1638672" lon="11.7036954"><ele>541.0</ele><time>2026-04-11T15:32:00.124Z</time></trkpt><trkpt lat="44.1638204" lon="11.7037878"><ele>541.0</ele><time>2026-04-11T15:32:01.123Z</time></trkpt><trkpt lat="44.163783" lon="11.7038827"><ele>541.0</ele><time>2026-04-11T15:32:02.124Z</time></trkpt><trkpt lat="44.1637483" lon="11.703981"><ele>541.0</ele><time>2026-04-11T15:32:03.127Z</time></trkpt><trkpt lat="44.1637229" lon="11.70408"><ele>541.0</ele><time>2026-04-11T15:32:04.124Z</time></trkpt><trkpt lat="44.163707" lon="11.7041894"><ele>541.0</ele><time>2026-04-11T15:32:05.124Z</time></trkpt><trkpt lat="44.1636987" lon="11.7043045"><ele>541.0</ele><time>2026-04-11T15:32:06.125Z</time></trkpt><trkpt lat="44.1636962" lon="11.7044244"><ele>541.0</ele><time>2026-04-11T15:32:07.124Z</time></trkpt><trkpt lat="44.1637049" lon="11.7045517"><ele>541.0</ele><time>2026-04-11T15:32:08.124Z</time></trkpt><trkpt lat="44.1637333" lon="11.704681"><ele>541.0</ele><time>2026-04-11T15:32:09.124Z</time></trkpt><trkpt lat="44.1637625" lon="11.7048119"><ele>542.4</ele><time>2026-04-11T15:32:10.124Z</time></trkpt><trkpt lat="44.16379" lon="11.7049405"><ele>543.8</ele><time>2026-04-11T15:32:11.124Z</time></trkpt><trkpt lat="44.1638278" lon="11.7050624"><ele>545.1999999999999</ele><time>2026-04-11T15:32:12.124Z</time></trkpt><trkpt lat="44.1638715" lon="11.7051751"><ele>546.6</ele><time>2026-04-11T15:32:13.124Z</time></trkpt><trkpt lat="44.1639203" lon="11.7052777"><ele>548.0</ele><time>2026-04-11T15:32:14.124Z</time></trkpt><trkpt lat="44.1639699" lon="11.7053774"><ele>548.1666666666666</ele><time>2026-04-11T15:32:15.124Z</time></trkpt><trkpt lat="44.164016" lon="11.7054748"><ele>548.3333333333333</ele><time>2026-04-11T15:32:16.124Z</time></trkpt><trkpt lat="44.1640554" lon="11.7055673"><ele>548.5</ele><time>2026-04-11T15:32:17.125Z</time></trkpt><trkpt lat="44.1640888" lon="11.7056599"><ele>548.6666666666666</ele><time>2026-04-11T15:32:18.125Z</time></trkpt><trkpt lat="44.1641157" lon="11.7057694"><ele>548.8333333333334</ele><time>2026-04-11T15:32:19.124Z</time></trkpt><trkpt lat="44.1641429" lon="11.705882"><ele>549.0</ele><time>2026-04-11T15:32:20.124Z</time></trkpt><trkpt lat="44.1641601" lon="11.7059947"><ele>544.1666666666666</ele><time>2026-04-11T15:32:21.125Z</time></trkpt><trkpt lat="44.1641713" lon="11.7061059"><ele>539.3333333333334</ele><time>2026-04-11T15:32:22.125Z</time></trkpt><trkpt lat="44.1641766" lon="11.7062242"><ele>534.5</ele><time>2026-04-11T15:32:23.125Z</time></trkpt><trkpt lat="44.1641805" lon="11.7063484"><ele>529.6666666666667</ele><time>2026-04-11T15:32:24.126Z</time></trkpt><trkpt lat="44.1641903" lon="11.7064756"><ele>524.8333333333334</ele><time>2026-04-11T15:32:25.126Z</time></trkpt><trkpt lat="44.1642099" lon="11.7065967"><ele>520.0</ele><time>2026-04-11T15:32:26.126Z</time></trkpt><trkpt lat="44.1642347" lon="11.7067118"><ele>520.0</ele><time>2026-04-11T15:32:27.127Z</time></trkpt><trkpt lat="44.1642647" lon="11.7068145"><ele>520.0</ele><time>2026-04-11T15:32:28.125Z</time></trkpt><trkpt lat="44.1642906" lon="11.7069115"><ele>520.0</ele><time>2026-04-11T15:32:29.125Z</time></trkpt><trkpt lat="44.1643045" lon="11.7070185"><ele>520.0</ele><time>2026-04-11T15:32:30.126Z</time></trkpt><trkpt lat="44.1643126" lon="11.7071218"><ele>520.0</ele><time>2026-04-11T15:32:31.126Z</time></trkpt><trkpt lat="44.1643119" lon="11.7072168"><ele>520.0</ele><time>2026-04-11T15:32:32.126Z</time></trkpt><trkpt lat="44.1643151" lon="11.7073761"><ele>521.3333333333334</ele><time>2026-04-11T15:32:34.124Z</time></trkpt><trkpt lat="44.1643722" lon="11.7074794"><ele>522.6666666666667</ele><time>2026-04-11T15:32:36.127Z</time></trkpt><trkpt lat="44.1644448" lon="11.7074588"><ele>524.0</ele><time>2026-04-11T15:32:38.126Z</time></trkpt><trkpt lat="44.1645014" lon="11.7073374"><ele>525.3333333333334</ele><time>2026-04-11T15:32:40.125Z</time></trkpt><trkpt lat="44.1645042" lon="11.707232"><ele>526.6666666666666</ele><time>2026-04-11T15:32:41.125Z</time></trkpt><trkpt lat="44.1644963" lon="11.7071166"><ele>528.0</ele><time>2026-04-11T15:32:42.126Z</time></trkpt><trkpt lat="44.1644951" lon="11.7070021"><ele>526.6666666666666</ele><time>2026-04-11T15:32:43.126Z</time></trkpt><trkpt lat="44.1645058" lon="11.7068926"><ele>525.3333333333334</ele><time>2026-04-11T15:32:44.126Z</time></trkpt><trkpt lat="44.1645295" lon="11.7067865"><ele>524.0</ele><time>2026-04-11T15:32:45.127Z</time></trkpt><trkpt lat="44.16456" lon="11.706675"><ele>522.6666666666667</ele><time>2026-04-11T15:32:46.126Z</time></trkpt><trkpt lat="44.1645914" lon="11.7065592"><ele>521.3333333333334</ele><time>2026-04-11T15:32:47.126Z</time></trkpt><trkpt lat="44.1646221" lon="11.7064386"><ele>520.0</ele><time>2026-04-11T15:32:48.125Z</time></trkpt><trkpt lat="44.164646" lon="11.7063102"><ele>520.0</ele><time>2026-04-11T15:32:49.126Z</time></trkpt><trkpt lat="44.1646644" lon="11.7061823"><ele>520.0</ele><time>2026-04-11T15:32:50.126Z</time></trkpt><trkpt lat="44.1646776" lon="11.7060651"><ele>520.0</ele><time>2026-04-11T15:32:51.126Z</time></trkpt><trkpt lat="44.1646808" lon="11.7059552"><ele>520.0</ele><time>2026-04-11T15:32:52.125Z</time></trkpt><trkpt lat="44.1646822" lon="11.7058435"><ele>520.0</ele><time>2026-04-11T15:32:53.125Z</time></trkpt><trkpt lat="44.164676" lon="11.7057266"><ele>520.0</ele><time>2026-04-11T15:32:54.126Z</time></trkpt><trkpt lat="44.1646703" lon="11.7056075"><ele>520.0</ele><time>2026-04-11T15:32:55.125Z</time></trkpt><trkpt lat="44.1646664" lon="11.7054872"><ele>520.0</ele><time>2026-04-11T15:32:56.126Z</time></trkpt><trkpt lat="44.1646617" lon="11.7053775"><ele>520.0</ele><time>2026-04-11T15:32:57.126Z</time></trkpt><trkpt lat="44.1646609" lon="11.7052763"><ele>520.0</ele><time>2026-04-11T15:32:58.126Z</time></trkpt><trkpt lat="44.1646725" lon="11.7051787"><ele>520.0</ele><time>2026-04-11T15:32:59.125Z</time></trkpt><trkpt lat="44.1646924" lon="11.7050824"><ele>520.0</ele><time>2026-04-11T15:33:00.125Z</time></trkpt><trkpt lat="44.1647219" lon="11.7049834"><ele>520.0</ele><time>2026-04-11T15:33:01.124Z</time></trkpt><trkpt lat="44.1647614" lon="11.7048738"><ele>520.0</ele><time>2026-04-11T15:33:02.126Z</time></trkpt><trkpt lat="44.1648059" lon="11.7047618"><ele>520.0</ele><time>2026-04-11T15:33:03.127Z</time></trkpt><trkpt lat="44.1648533" lon="11.7046466"><ele>520.0</ele><time>2026-04-11T15:33:04.125Z</time></trkpt><trkpt lat="44.1649006" lon="11.7045265"><ele>520.0</ele><time>2026-04-11T15:33:05.126Z</time></trkpt><trkpt lat="44.164946" lon="11.7044062"><ele>516.8333333333334</ele><time>2026-04-11T15:33:06.125Z</time></trkpt><trkpt lat="44.1649907" lon="11.7042928"><ele>513.6666666666667</ele><time>2026-04-11T15:33:07.123Z</time></trkpt><trkpt lat="44.1650302" lon="11.7041869"><ele>510.5</ele><time>2026-04-11T15:33:08.124Z</time></trkpt><trkpt lat="44.1650711" lon="11.7040879"><ele>507.33333333333337</ele><time>2026-04-11T15:33:09.124Z</time></trkpt><trkpt lat="44.1651213" lon="11.7039901"><ele>504.1666666666667</ele><time>2026-04-11T15:33:10.123Z</time></trkpt><trkpt lat="44.1651763" lon="11.7038868"><ele>501.0</ele><time>2026-04-11T15:33:11.123Z</time></trkpt><trkpt lat="44.1652373" lon="11.7037753"><ele>501.0</ele><time>2026-04-11T15:33:12.124Z</time></trkpt><trkpt lat="44.1652987" lon="11.7036672"><ele>501.0</ele><time>2026-04-11T15:33:13.123Z</time></trkpt><trkpt lat="44.1653605" lon="11.7035599"><ele>501.0</ele><time>2026-04-11T15:33:14.124Z</time></trkpt><trkpt lat="44.1654152" lon="11.7034485"><ele>501.0</ele><time>2026-04-11T15:33:15.129Z</time></trkpt><trkpt lat="44.1654673" lon="11.7033383"><ele>501.0</ele><time>2026-04-11T15:33:16.123Z</time></trkpt><trkpt lat="44.1655258" lon="11.7032354"><ele>501.7142857142857</ele><time>2026-04-11T15:33:17.123Z</time></trkpt><trkpt lat="44.1655882" lon="11.7031513"><ele>502.42857142857144</ele><time>2026-04-11T15:33:18.124Z</time></trkpt><trkpt lat="44.1656477" lon="11.7030873"><ele>503.14285714285717</ele><time>2026-04-11T15:33:19.124Z</time></trkpt><trkpt lat="44.1657139" lon="11.7030592"><ele>503.8571428571429</ele><time>2026-04-11T15:33:20.124Z</time></trkpt><trkpt lat="44.1657786" lon="11.7030766"><ele>504.57142857142856</ele><time>2026-04-11T15:33:21.124Z</time></trkpt><trkpt lat="44.1658468" lon="11.7031002"><ele>505.28571428571433</ele><time>2026-04-11T15:33:22.123Z</time></trkpt><trkpt lat="44.1659222" lon="11.7031276"><ele>506.00000000000006</ele><time>2026-04-11T15:33:23.123Z</time></trkpt><trkpt lat="44.1659993" lon="11.7031451"><ele>503.3333333333333</ele><time>2026-04-11T15:33:24.123Z</time></trkpt><trkpt lat="44.1660724" lon="11.7031468"><ele>500.66666666666663</ele><time>2026-04-11T15:33:25.123Z</time></trkpt><trkpt lat="44.1661379" lon="11.7031343"><ele>498.0</ele><time>2026-04-11T15:33:26.123Z</time></trkpt><trkpt lat="44.1662339" lon="11.7030499"><ele>495.33333333333337</ele><time>2026-04-11T15:33:28.124Z</time></trkpt><trkpt lat="44.1662671" lon="11.702882"><ele>492.6666666666667</ele><time>2026-04-11T15:33:30.126Z</time></trkpt><trkpt lat="44.1662598" lon="11.702786"><ele>490.0</ele><time>2026-04-11T15:33:31.125Z</time></trkpt><trkpt lat="44.1662473" lon="11.7026783"><ele>490.00000000000006</ele><time>2026-04-11T15:33:32.126Z</time></trkpt><trkpt lat="44.1662368" lon="11.7025707"><ele>490.0</ele><time>2026-04-11T15:33:33.125Z</time></trkpt><trkpt lat="44.166229" lon="11.7024534"><ele>490.0</ele><time>2026-04-11T15:33:34.125Z</time></trkpt><trkpt lat="44.1662275" lon="11.7023413"><ele>490.0</ele><time>2026-04-11T15:33:35.125Z</time></trkpt><trkpt lat="44.1662308" lon="11.7022276"><ele>490.00000000000006</ele><time>2026-04-11T15:33:36.126Z</time></trkpt><trkpt lat="44.1662378" lon="11.7021181"><ele>490.0</ele><time>2026-04-11T15:33:37.125Z</time></trkpt><trkpt lat="44.1662325" lon="11.7020168"><ele>490.00000000000006</ele><time>2026-04-11T15:33:38.126Z</time></trkpt><trkpt lat="44.1662133" lon="11.7019176"><ele>490.0</ele><time>2026-04-11T15:33:39.126Z</time></trkpt><trkpt lat="44.1661776" lon="11.7018203"><ele>490.0</ele><time>2026-04-11T15:33:40.126Z</time></trkpt><trkpt lat="44.1661327" lon="11.7017144"><ele>490.0</ele><time>2026-04-11T15:33:41.125Z</time></trkpt><trkpt lat="44.1660944" lon="11.7016052"><ele>490.00000000000006</ele><time>2026-04-11T15:33:42.125Z</time></trkpt><trkpt lat="44.1660711" lon="11.7014914"><ele>490.0</ele><time>2026-04-11T15:33:43.125Z</time></trkpt><trkpt lat="44.1660701" lon="11.7013722"><ele>489.8</ele><time>2026-04-11T15:33:44.126Z</time></trkpt><trkpt lat="44.1660869" lon="11.7012463"><ele>489.6</ele><time>2026-04-11T15:33:45.128Z</time></trkpt><trkpt lat="44.1661443" lon="11.7011203"><ele>489.4</ele><time>2026-04-11T15:33:46.125Z</time></trkpt><trkpt lat="44.1661948" lon="11.7010011"><ele>489.2</ele><time>2026-04-11T15:33:47.125Z</time></trkpt><trkpt lat="44.1662403" lon="11.7008908"><ele>489.0</ele><time>2026-04-11T15:33:48.125Z</time></trkpt><trkpt lat="44.1662737" lon="11.7007965"><ele>487.6666666666667</ele><time>2026-04-11T15:33:49.125Z</time></trkpt><trkpt lat="44.1662886" lon="11.7006985"><ele>486.33333333333337</ele><time>2026-04-11T15:33:50.126Z</time></trkpt><trkpt lat="44.1662826" lon="11.7005994"><ele>485.0</ele><time>2026-04-11T15:33:51.126Z</time></trkpt><trkpt lat="44.1662142" lon="11.7005482"><ele>483.6666666666667</ele><time>2026-04-11T15:33:52.125Z</time></trkpt><trkpt lat="44.1661333" lon="11.7005015"><ele>482.33333333333337</ele><time>2026-04-11T15:33:53.126Z</time></trkpt><trkpt lat="44.1660472" lon="11.7004598"><ele>481.0</ele><time>2026-04-11T15:33:54.123Z</time></trkpt><trkpt lat="44.1659564" lon="11.7004141"><ele>481.0</ele><time>2026-04-11T15:33:55.123Z</time></trkpt><trkpt lat="44.1658718" lon="11.7003485"><ele>481.0</ele><time>2026-04-11T15:33:56.124Z</time></trkpt><trkpt lat="44.1657949" lon="11.7002604"><ele>481.0</ele><time>2026-04-11T15:33:57.124Z</time></trkpt><trkpt lat="44.1657151" lon="11.7001592"><ele>481.0</ele><time>2026-04-11T15:33:58.123Z</time></trkpt><trkpt lat="44.1656383" lon="11.7000612"><ele>481.0</ele><time>2026-04-11T15:33:59.124Z</time></trkpt><trkpt lat="44.1655679" lon="11.6999555"><ele>482.8</ele><time>2026-04-11T15:34:00.124Z</time></trkpt><trkpt lat="44.1655097" lon="11.6998424"><ele>484.6</ele><time>2026-04-11T15:34:01.124Z</time></trkpt><trkpt lat="44.1654545" lon="11.6997178"><ele>486.4</ele><time>2026-04-11T15:34:02.124Z</time></trkpt><trkpt lat="44.1653938" lon="11.6995995"><ele>488.2</ele><time>2026-04-11T15:34:03.124Z</time></trkpt><trkpt lat="44.1653338" lon="11.6994863"><ele>490.0</ele><time>2026-04-11T15:34:04.124Z</time></trkpt><trkpt lat="44.1652755" lon="11.699372"><ele>485.1666666666667</ele><time>2026-04-11T15:34:05.124Z</time></trkpt><trkpt lat="44.1652287" lon="11.6992543"><ele>480.33333333333337</ele><time>2026-04-11T15:34:06.124Z</time></trkpt><trkpt lat="44.1651859" lon="11.6991394"><ele>475.5</ele><time>2026-04-11T15:34:07.123Z</time></trkpt><trkpt lat="44.1651476" lon="11.6990214"><ele>470.66666666666663</ele><time>2026-04-11T15:34:08.124Z</time></trkpt><trkpt lat="44.1651158" lon="11.6989104"><ele>465.8333333333333</ele><time>2026-04-11T15:34:09.124Z</time></trkpt><trkpt lat="44.165089" lon="11.6988083"><ele>461.0</ele><time>2026-04-11T15:34:10.123Z</time></trkpt><trkpt lat="44.1650588" lon="11.6987219"><ele>461.0</ele><time>2026-04-11T15:34:11.124Z</time></trkpt><trkpt lat="44.1649711" lon="11.6986173"><ele>461.0</ele><time>2026-04-11T15:34:13.123Z</time></trkpt><trkpt lat="44.1648546" lon="11.6986549"><ele>461.0</ele><time>2026-04-11T15:34:15.124Z</time></trkpt><trkpt lat="44.1647884" lon="11.6987205"><ele>461.0</ele><time>2026-04-11T15:34:16.124Z</time></trkpt><trkpt lat="44.1647197" lon="11.6988148"><ele>461.0</ele><time>2026-04-11T15:34:17.123Z</time></trkpt><trkpt lat="44.1646572" lon="11.6989311"><ele>462.8333333333333</ele><time>2026-04-11T15:34:18.123Z</time></trkpt><trkpt lat="44.1646018" lon="11.699051"><ele>464.66666666666663</ele><time>2026-04-11T15:34:19.123Z</time></trkpt><trkpt lat="44.1645498" lon="11.6991613"><ele>466.5</ele><time>2026-04-11T15:34:20.122Z</time></trkpt><trkpt lat="44.1644971" lon="11.6992606"><ele>468.33333333333337</ele><time>2026-04-11T15:34:21.124Z</time></trkpt><trkpt lat="44.1644387" lon="11.6993454"><ele>470.1666666666667</ele><time>2026-04-11T15:34:22.124Z</time></trkpt><trkpt lat="44.1643694" lon="11.6993953"><ele>472.0</ele><time>2026-04-11T15:34:23.124Z</time></trkpt><trkpt lat="44.1642865" lon="11.6994261"><ele>472.0</ele><time>2026-04-11T15:34:24.123Z</time></trkpt><trkpt lat="44.1641921" lon="11.6994461"><ele>472.00000000000006</ele><time>2026-04-11T15:34:25.123Z</time></trkpt><trkpt lat="44.1640827" lon="11.699461"><ele>472.00000000000006</ele><time>2026-04-11T15:34:26.123Z</time></trkpt><trkpt lat="44.1639777" lon="11.6994643"><ele>472.0</ele><time>2026-04-11T15:34:27.123Z</time></trkpt><trkpt lat="44.1638891" lon="11.6994647"><ele>472.0</ele><time>2026-04-11T15:34:28.123Z</time></trkpt><trkpt lat="44.163804" lon="11.6994763"><ele>465.00000000000006</ele><time>2026-04-11T15:34:29.125Z</time></trkpt><trkpt lat="44.1637284" lon="11.6995044"><ele>458.0</ele><time>2026-04-11T15:34:30.125Z</time></trkpt><trkpt lat="44.1636615" lon="11.6995509"><ele>451.0</ele><time>2026-04-11T15:34:31.124Z</time></trkpt><trkpt lat="44.1636045" lon="11.6996207"><ele>444.0</ele><time>2026-04-11T15:34:32.125Z</time></trkpt><trkpt lat="44.1635929" lon="11.6997423"><ele>437.00000000000006</ele><time>2026-04-11T15:34:33.125Z</time></trkpt><trkpt lat="44.1635925" lon="11.6998738"><ele>430.0</ele><time>2026-04-11T15:34:34.127Z</time></trkpt><trkpt lat="44.1635947" lon="11.6999938"><ele>430.0</ele><time>2026-04-11T15:34:35.126Z</time></trkpt><trkpt lat="44.1635852" lon="11.700104"><ele>430.0</ele><time>2026-04-11T15:34:36.124Z</time></trkpt><trkpt lat="44.1635585" lon="11.7002027"><ele>430.0</ele><time>2026-04-11T15:34:37.125Z</time></trkpt><trkpt lat="44.1635232" lon="11.7002849"><ele>430.0</ele><time>2026-04-11T15:34:38.125Z</time></trkpt><trkpt lat="44.1634199" lon="11.7003737"><ele>430.0</ele><time>2026-04-11T15:34:40.124Z</time></trkpt><trkpt lat="44.1632945" lon="11.7003561"><ele>431.00000000000006</ele><time>2026-04-11T15:34:42.126Z</time></trkpt><trkpt lat="44.1632263" lon="11.7003366"><ele>432.0</ele><time>2026-04-11T15:34:43.125Z</time></trkpt><trkpt lat="44.1631613" lon="11.7003446"><ele>433.0</ele><time>2026-04-11T15:34:44.124Z</time></trkpt><trkpt lat="44.1630602" lon="11.7004477"><ele>434.0</ele><time>2026-04-11T15:34:46.125Z</time></trkpt><trkpt lat="44.1630173" lon="11.7005203"><ele>435.00000000000006</ele><time>2026-04-11T15:34:47.124Z</time></trkpt><trkpt lat="44.1629704" lon="11.700588"><ele>436.0</ele><time>2026-04-11T15:34:48.124Z</time></trkpt><trkpt lat="44.1629156" lon="11.7006599"><ele>436.00000000000006</ele><time>2026-04-11T15:34:49.124Z</time></trkpt><trkpt lat="44.1628576" lon="11.7007383"><ele>436.0</ele><time>2026-04-11T15:34:50.125Z</time></trkpt><trkpt lat="44.1628016" lon="11.7008262"><ele>436.0</ele><time>2026-04-11T15:34:51.125Z</time></trkpt><trkpt lat="44.1627463" lon="11.7009157"><ele>436.0</ele><time>2026-04-11T15:34:52.124Z</time></trkpt><trkpt lat="44.16269" lon="11.7009969"><ele>436.00000000000006</ele><time>2026-04-11T15:34:53.124Z</time></trkpt><trkpt lat="44.1626281" lon="11.7010475"><ele>436.0</ele><time>2026-04-11T15:34:54.124Z</time></trkpt><trkpt lat="44.1625648" lon="11.7010643"><ele>436.0</ele><time>2026-04-11T15:34:55.125Z</time></trkpt><trkpt lat="44.162446" lon="11.701016"><ele>436.0</ele><time>2026-04-11T15:34:57.123Z</time></trkpt><trkpt lat="44.1623706" lon="11.7008947"><ele>436.0</ele><time>2026-04-11T15:34:59.125Z</time></trkpt><trkpt lat="44.1623774" lon="11.7007268"><ele>436.0</ele><time>2026-04-11T15:35:01.127Z</time></trkpt><trkpt lat="44.1623903" lon="11.7006212"><ele>436.0</ele><time>2026-04-11T15:35:02.125Z</time></trkpt><trkpt lat="44.1623813" lon="11.7005135"><ele>436.00000000000006</ele><time>2026-04-11T15:35:03.128Z</time></trkpt><trkpt lat="44.1623522" lon="11.7004058"><ele>436.0</ele><time>2026-04-11T15:35:04.126Z</time></trkpt><trkpt lat="44.1623036" lon="11.7003115"><ele>436.0</ele><time>2026-04-11T15:35:05.126Z</time></trkpt><trkpt lat="44.1622482" lon="11.7002227"><ele>436.0</ele><time>2026-04-11T15:35:06.127Z</time></trkpt><trkpt lat="44.1621955" lon="11.7001133"><ele>436.00000000000006</ele><time>2026-04-11T15:35:07.126Z</time></trkpt><trkpt lat="44.1621563" lon="11.6999945"><ele>436.0</ele><time>2026-04-11T15:35:08.126Z</time></trkpt><trkpt lat="44.1621301" lon="11.6998762"><ele>436.0</ele><time>2026-04-11T15:35:09.125Z</time></trkpt><trkpt lat="44.1621275" lon="11.6997545"><ele>436.0</ele><time>2026-04-11T15:35:10.124Z</time></trkpt><trkpt lat="44.1621503" lon="11.6996303"><ele>436.0</ele><time>2026-04-11T15:35:11.125Z</time></trkpt><trkpt lat="44.1621831" lon="11.6995017"><ele>436.0</ele><time>2026-04-11T15:35:12.124Z</time></trkpt><trkpt lat="44.1621985" lon="11.6993776"><ele>436.0</ele><time>2026-04-11T15:35:13.124Z</time></trkpt><trkpt lat="44.1621953" lon="11.6992552"><ele>434.6666666666667</ele><time>2026-04-11T15:35:14.125Z</time></trkpt><trkpt lat="44.1621832" lon="11.6991345"><ele>433.33333333333337</ele><time>2026-04-11T15:35:15.125Z</time></trkpt><trkpt lat="44.1621651" lon="11.6990093"><ele>432.0</ele><time>2026-04-11T15:35:16.124Z</time></trkpt><trkpt lat="44.1621419" lon="11.6988878"><ele>430.66666666666663</ele><time>2026-04-11T15:35:17.124Z</time></trkpt><trkpt lat="44.1621091" lon="11.698772"><ele>429.3333333333333</ele><time>2026-04-11T15:35:18.125Z</time></trkpt><trkpt lat="44.1620734" lon="11.6986639"><ele>428.0</ele><time>2026-04-11T15:35:19.125Z</time></trkpt><trkpt lat="44.1620294" lon="11.6985755"><ele>425.99999999999994</ele><time>2026-04-11T15:35:20.125Z</time></trkpt><trkpt lat="44.1619833" lon="11.6984994"><ele>424.0</ele><time>2026-04-11T15:35:21.125Z</time></trkpt><trkpt lat="44.1619413" lon="11.6984311"><ele>422.0</ele><time>2026-04-11T15:35:22.124Z</time></trkpt><trkpt lat="44.1619036" lon="11.6982926"><ele>420.0</ele><time>2026-04-11T15:35:24.124Z</time></trkpt><trkpt lat="44.1619465" lon="11.6981912"><ele>417.99999999999994</ele><time>2026-04-11T15:35:26.125Z</time></trkpt><trkpt lat="44.1619984" lon="11.6981387"><ele>416.0</ele><time>2026-04-11T15:35:28.124Z</time></trkpt><trkpt lat="44.1620414" lon="11.6980658"><ele>415.99999999999994</ele><time>2026-04-11T15:35:30.124Z</time></trkpt><trkpt lat="44.1620872" lon="11.6979649"><ele>416.0</ele><time>2026-04-11T15:35:32.125Z</time></trkpt><trkpt lat="44.1621183" lon="11.6978758"><ele>416.0</ele><time>2026-04-11T15:35:35.124Z</time></trkpt><trkpt lat="44.162125" lon="11.6977595"><ele>416.0</ele><time>2026-04-11T15:35:44.124Z</time></trkpt><trkpt lat="44.1621549" lon="11.6976195"><ele>415.99999999999994</ele><time>2026-04-11T15:35:46.124Z</time></trkpt><trkpt lat="44.1621687" lon="11.6974875"><ele>416.0</ele><time>2026-04-11T15:35:48.124Z</time></trkpt><trkpt lat="44.1621912" lon="11.6973445"><ele>415.16666666666663</ele><time>2026-04-11T15:35:50.125Z</time></trkpt><trkpt lat="44.1622221" lon="11.6972205"><ele>414.3333333333333</ele><time>2026-04-11T15:35:52.125Z</time></trkpt><trkpt lat="44.1622553" lon="11.6970945"><ele>413.5</ele><time>2026-04-11T15:35:55.124Z</time></trkpt><trkpt lat="44.1622612" lon="11.6969771"><ele>412.66666666666663</ele><time>2026-04-11T15:35:57.124Z</time></trkpt><trkpt lat="44.1622653" lon="11.6968685"><ele>411.8333333333333</ele><time>2026-04-11T15:36:00.125Z</time></trkpt><trkpt lat="44.1622483" lon="11.6967767"><ele>411.0</ele><time>2026-04-11T15:38:34.124Z</time></trkpt><trkpt lat="44.1622533" lon="11.6966633"><ele>409.0</ele><time>2026-04-11T15:38:37.124Z</time></trkpt><trkpt lat="44.162235" lon="11.6965533"><ele>407.0</ele><time>2026-04-11T15:38:40.125Z</time></trkpt><trkpt lat="44.1621883" lon="11.6964867"><ele>405.0</ele><time>2026-04-11T15:38:42.124Z</time></trkpt><trkpt lat="44.162135" lon="11.6964"><ele>403.0</ele><time>2026-04-11T15:38:44.124Z</time></trkpt><trkpt lat="44.1620783" lon="11.696295"><ele>401.0</ele><time>2026-04-11T15:38:46.123Z</time></trkpt><trkpt lat="44.1620117" lon="11.6962033"><ele>399.0</ele><time>2026-04-11T15:38:48.125Z</time></trkpt><trkpt lat="44.1619483" lon="11.69617"><ele>399.0</ele><time>2026-04-11T15:38:50.124Z</time></trkpt><trkpt lat="44.1618083" lon="11.69614"><ele>399.0</ele><time>2026-04-11T15:41:22.123Z</time></trkpt><trkpt lat="44.1617083" lon="11.6961017"><ele>399.0</ele><time>2026-04-11T15:41:24.125Z</time></trkpt><trkpt lat="44.16164" lon="11.6960783"><ele>399.0</ele><time>2026-04-11T15:41:25.124Z</time></trkpt><trkpt lat="44.1615683" lon="11.6960533"><ele>399.0</ele><time>2026-04-11T15:41:26.124Z</time></trkpt><trkpt lat="44.161495" lon="11.696025"><ele>397.8333333333333</ele><time>2026-04-11T15:41:27.125Z</time></trkpt><trkpt lat="44.16142" lon="11.6959933"><ele>396.66666666666663</ele><time>2026-04-11T15:41:28.124Z</time></trkpt><trkpt lat="44.161345" lon="11.6959633"><ele>395.5</ele><time>2026-04-11T15:41:29.125Z</time></trkpt><trkpt lat="44.1612767" lon="11.69593"><ele>394.3333333333333</ele><time>2026-04-11T15:41:30.124Z</time></trkpt><trkpt lat="44.1612017" lon="11.6959"><ele>393.16666666666663</ele><time>2026-04-11T15:41:31.125Z</time></trkpt><trkpt lat="44.1611317" lon="11.6958667"><ele>392.0</ele><time>2026-04-11T15:41:32.124Z</time></trkpt><trkpt lat="44.1610633" lon="11.6958267"><ele>391.99999999999994</ele><time>2026-04-11T15:41:33.124Z</time></trkpt><trkpt lat="44.1609983" lon="11.6957833"><ele>392.0</ele><time>2026-04-11T15:41:34.124Z</time></trkpt><trkpt lat="44.16094" lon="11.695735"><ele>392.0</ele><time>2026-04-11T15:41:35.124Z</time></trkpt><trkpt lat="44.1608867" lon="11.6956817"><ele>392.0</ele><time>2026-04-11T15:41:36.124Z</time></trkpt><trkpt lat="44.1608117" lon="11.6955767"><ele>391.99999999999994</ele><time>2026-04-11T15:41:38.123Z</time></trkpt><trkpt lat="44.1607567" lon="11.6954233"><ele>392.0</ele><time>2026-04-11T15:42:18.123Z</time></trkpt><trkpt lat="44.16078" lon="11.6952633"><ele>389.20000000000005</ele><time>2026-04-11T15:42:20.123Z</time></trkpt><trkpt lat="44.1607833" lon="11.695155"><ele>386.4</ele><time>2026-04-11T15:42:21.124Z</time></trkpt><trkpt lat="44.1607767" lon="11.6950367"><ele>383.6</ele><time>2026-04-11T15:42:22.124Z</time></trkpt><trkpt lat="44.1607683" lon="11.6948917"><ele>380.79999999999995</ele><time>2026-04-11T15:42:23.123Z</time></trkpt><trkpt lat="44.16075" lon="11.6947433"><ele>378.0</ele><time>2026-04-11T15:42:24.124Z</time></trkpt><trkpt lat="44.160725" lon="11.6945867"><ele>378.0</ele><time>2026-04-11T15:42:25.124Z</time></trkpt><trkpt lat="44.1607017" lon="11.694425"><ele>378.0</ele><time>2026-04-11T15:42:26.124Z</time></trkpt><trkpt lat="44.1606783" lon="11.6942583"><ele>378.0</ele><time>2026-04-11T15:42:27.125Z</time></trkpt><trkpt lat="44.1606617" lon="11.694085"><ele>378.0</ele><time>2026-04-11T15:42:28.124Z</time></trkpt><trkpt lat="44.160645" lon="11.6939167"><ele>378.2</ele><time>2026-04-11T15:42:29.124Z</time></trkpt><trkpt lat="44.1606283" lon="11.69376"><ele>378.4</ele><time>2026-04-11T15:42:30.125Z</time></trkpt><trkpt lat="44.1606117" lon="11.693615"><ele>378.59999999999997</ele><time>2026-04-11T15:42:31.126Z</time></trkpt><trkpt lat="44.1605817" lon="11.6934783"><ele>378.79999999999995</ele><time>2026-04-11T15:42:32.124Z</time></trkpt><trkpt lat="44.1605367" lon="11.6933367"><ele>379.0</ele><time>2026-04-11T15:42:33.125Z</time></trkpt><trkpt lat="44.1604867" lon="11.6931833"><ele>379.0</ele><time>2026-04-11T15:42:34.123Z</time></trkpt><trkpt lat="44.1604317" lon="11.6930233"><ele>379.0</ele><time>2026-04-11T15:42:35.124Z</time></trkpt><trkpt lat="44.1603767" lon="11.6928633"><ele>379.0</ele><time>2026-04-11T15:42:36.124Z</time></trkpt><trkpt lat="44.16033" lon="11.6927"><ele>379.0</ele><time>2026-04-11T15:42:37.124Z</time></trkpt><trkpt lat="44.1602983" lon="11.692535"><ele>377.2</ele><time>2026-04-11T15:42:38.123Z</time></trkpt><trkpt lat="44.160285" lon="11.692375"><ele>375.4</ele><time>2026-04-11T15:42:39.124Z</time></trkpt><trkpt lat="44.1602833" lon="11.6922283"><ele>373.6</ele><time>2026-04-11T15:42:40.125Z</time></trkpt><trkpt lat="44.16028" lon="11.6920883"><ele>371.8</ele><time>2026-04-11T15:42:41.123Z</time></trkpt><trkpt lat="44.1602783" lon="11.6919667"><ele>370.0</ele><time>2026-04-11T15:42:42.124Z</time></trkpt><trkpt lat="44.1602667" lon="11.6918583"><ele>367.16666666666663</ele><time>2026-04-11T15:42:43.124Z</time></trkpt><trkpt lat="44.16024" lon="11.6917783"><ele>364.3333333333333</ele><time>2026-04-11T15:42:44.124Z</time></trkpt><trkpt lat="44.1601483" lon="11.69171"><ele>361.5</ele><time>2026-04-11T15:42:46.124Z</time></trkpt><trkpt lat="44.1600767" lon="11.6917283"><ele>358.6666666666667</ele><time>2026-04-11T15:42:47.124Z</time></trkpt><trkpt lat="44.1600117" lon="11.691735"><ele>355.83333333333337</ele><time>2026-04-11T15:42:48.124Z</time></trkpt><trkpt lat="44.159925" lon="11.691685"><ele>353.0</ele><time>2026-04-11T15:42:50.124Z</time></trkpt><trkpt lat="44.15995" lon="11.6915867"><ele>353.0</ele><time>2026-04-11T15:42:52.124Z</time></trkpt><trkpt lat="44.1600617" lon="11.6914867"><ele>353.0</ele><time>2026-04-11T15:42:54.124Z</time></trkpt><trkpt lat="44.1601467" lon="11.69144"><ele>353.0</ele><time>2026-04-11T15:42:55.123Z</time></trkpt><trkpt lat="44.1602317" lon="11.69139"><ele>353.0</ele><time>2026-04-11T15:42:56.124Z</time></trkpt><trkpt lat="44.1603133" lon="11.6913583"><ele>353.0</ele><time>2026-04-11T15:42:57.124Z</time></trkpt><trkpt lat="44.1604017" lon="11.6913467"><ele>353.0</ele><time>2026-04-11T15:42:58.124Z</time></trkpt><trkpt lat="44.1604833" lon="11.69137"><ele>353.0</ele><time>2026-04-11T15:42:59.124Z</time></trkpt><trkpt lat="44.160565" lon="11.6914233"><ele>353.0</ele><time>2026-04-11T15:43:00.124Z</time></trkpt><trkpt lat="44.1606433" lon="11.6914867"><ele>353.0</ele><time>2026-04-11T15:43:01.124Z</time></trkpt><trkpt lat="44.1607183" lon="11.6915567"><ele>353.0</ele><time>2026-04-11T15:43:02.124Z</time></trkpt><trkpt lat="44.160795" lon="11.6916233"><ele>353.0</ele><time>2026-04-11T15:43:03.124Z</time></trkpt><trkpt lat="44.16087" lon="11.69169"><ele>353.2</ele><time>2026-04-11T15:43:04.124Z</time></trkpt><trkpt lat="44.1609467" lon="11.6917583"><ele>353.4</ele><time>2026-04-11T15:43:05.124Z</time></trkpt><trkpt lat="44.161025" lon="11.6918267"><ele>353.59999999999997</ele><time>2026-04-11T15:43:06.124Z</time></trkpt><trkpt lat="44.161105" lon="11.6918933"><ele>353.79999999999995</ele><time>2026-04-11T15:43:07.124Z</time></trkpt><trkpt lat="44.1611833" lon="11.691965"><ele>354.0</ele><time>2026-04-11T15:43:08.124Z</time></trkpt><trkpt lat="44.161265" lon="11.6920367"><ele>354.0</ele><time>2026-04-11T15:43:09.124Z</time></trkpt><trkpt lat="44.1613467" lon="11.6921017"><ele>354.0</ele><time>2026-04-11T15:43:10.124Z</time></trkpt><trkpt lat="44.16144" lon="11.69214"><ele>354.0</ele><time>2026-04-11T15:43:11.125Z</time></trkpt><trkpt lat="44.1615383" lon="11.6921433"><ele>354.0</ele><time>2026-04-11T15:43:12.124Z</time></trkpt><trkpt lat="44.161635" lon="11.692145"><ele>354.0</ele><time>2026-04-11T15:43:13.123Z</time></trkpt><trkpt lat="44.16174" lon="11.6921417"><ele>351.2</ele><time>2026-04-11T15:43:14.124Z</time></trkpt><trkpt lat="44.1618433" lon="11.6921267"><ele>348.4</ele><time>2026-04-11T15:43:15.124Z</time></trkpt><trkpt lat="44.1619467" lon="11.69211"><ele>345.6</ele><time>2026-04-11T15:43:16.123Z</time></trkpt><trkpt lat="44.16205" lon="11.69209"><ele>342.8</ele><time>2026-04-11T15:43:17.124Z</time></trkpt><trkpt lat="44.16215" lon="11.6920717"><ele>340.0</ele><time>2026-04-11T15:43:18.123Z</time></trkpt><trkpt lat="44.1622417" lon="11.6920533"><ele>340.0</ele><time>2026-04-11T15:43:19.124Z</time></trkpt><trkpt lat="44.16233" lon="11.6920417"><ele>340.0</ele><time>2026-04-11T15:43:20.124Z</time></trkpt><trkpt lat="44.1624117" lon="11.692055"><ele>340.0</ele><time>2026-04-11T15:43:21.124Z</time></trkpt><trkpt lat="44.1624917" lon="11.6920783"><ele>340.0</ele><time>2026-04-11T15:43:22.124Z</time></trkpt><trkpt lat="44.1625733" lon="11.6920767"><ele>340.0</ele><time>2026-04-11T15:43:23.124Z</time></trkpt><trkpt lat="44.1626517" lon="11.6920517"><ele>340.0</ele><time>2026-04-11T15:43:24.125Z</time></trkpt><trkpt lat="44.1627083" lon="11.6919883"><ele>336.8333333333333</ele><time>2026-04-11T15:43:25.123Z</time></trkpt><trkpt lat="44.1627567" lon="11.69192"><ele>333.66666666666663</ele><time>2026-04-11T15:43:26.124Z</time></trkpt><trkpt lat="44.16286" lon="11.6918317"><ele>330.5</ele><time>2026-04-11T15:43:28.125Z</time></trkpt><trkpt lat="44.162935" lon="11.6917917"><ele>327.3333333333333</ele><time>2026-04-11T15:43:29.123Z</time></trkpt><trkpt lat="44.1630133" lon="11.6917533"><ele>324.1666666666667</ele><time>2026-04-11T15:43:30.123Z</time></trkpt><trkpt lat="44.1630833" lon="11.6917183"><ele>321.0</ele><time>2026-04-11T15:43:31.124Z</time></trkpt><trkpt lat="44.1631717" lon="11.6915983"><ele>320.2</ele><time>2026-04-11T15:43:33.124Z</time></trkpt><trkpt lat="44.1632667" lon="11.6915017"><ele>319.40000000000003</ele><time>2026-04-11T15:43:35.123Z</time></trkpt><trkpt lat="44.16337" lon="11.6914867"><ele>318.6</ele><time>2026-04-11T15:43:37.124Z</time></trkpt><trkpt lat="44.1634317" lon="11.6915233"><ele>317.8</ele><time>2026-04-11T15:43:38.124Z</time></trkpt><trkpt lat="44.1635117" lon="11.6915917"><ele>317.0</ele><time>2026-04-11T15:43:39.125Z</time></trkpt><trkpt lat="44.163605" lon="11.6916733"><ele>317.0</ele><time>2026-04-11T15:43:40.123Z</time></trkpt><trkpt lat="44.1637" lon="11.69177"><ele>317.0</ele><time>2026-04-11T15:43:41.124Z</time></trkpt><trkpt lat="44.1637967" lon="11.6918633"><ele>317.0</ele><time>2026-04-11T15:43:42.125Z</time></trkpt><trkpt lat="44.1638967" lon="11.691955"><ele>317.0</ele><time>2026-04-11T15:43:43.124Z</time></trkpt><trkpt lat="44.1639867" lon="11.69205"><ele>316.6666666666667</ele><time>2026-04-11T15:43:44.123Z</time></trkpt><trkpt lat="44.16407" lon="11.6921483"><ele>316.33333333333337</ele><time>2026-04-11T15:43:45.123Z</time></trkpt><trkpt lat="44.1641417" lon="11.6922517"><ele>316.0</ele><time>2026-04-11T15:43:46.123Z</time></trkpt><trkpt lat="44.164195" lon="11.69235"><ele>315.6666666666667</ele><time>2026-04-11T15:43:47.124Z</time></trkpt><trkpt lat="44.164235" lon="11.692435"><ele>315.3333333333333</ele><time>2026-04-11T15:43:48.125Z</time></trkpt><trkpt lat="44.164285" lon="11.6925033"><ele>315.0</ele><time>2026-04-11T15:43:49.124Z</time></trkpt><trkpt lat="44.1643467" lon="11.6925433"><ele>315.0</ele><time>2026-04-11T15:43:50.125Z</time></trkpt><trkpt lat="44.1644267" lon="11.6924617"><ele>315.0</ele><time>2026-04-11T15:43:52.124Z</time></trkpt><trkpt lat="44.164415" lon="11.6922917"><ele>315.0</ele><time>2026-04-11T15:43:54.124Z</time></trkpt><trkpt lat="44.1643833" lon="11.6921883"><ele>315.0</ele><time>2026-04-11T15:43:55.125Z</time></trkpt><trkpt lat="44.1643417" lon="11.6920717"><ele>315.0</ele><time>2026-04-11T15:43:56.124Z</time></trkpt><trkpt lat="44.1642967" lon="11.6919517"><ele>312.8333333333333</ele><time>2026-04-11T15:43:57.125Z</time></trkpt><trkpt lat="44.1642633" lon="11.691835"><ele>310.6666666666667</ele><time>2026-04-11T15:43:58.124Z</time></trkpt><trkpt lat="44.1642483" lon="11.6917317"><ele>308.5</ele><time>2026-04-11T15:43:59.124Z</time></trkpt><trkpt lat="44.1642533" lon="11.6916317"><ele>306.33333333333337</ele><time>2026-04-11T15:44:00.123Z</time></trkpt><trkpt lat="44.1642817" lon="11.69153"><ele>304.1666666666667</ele><time>2026-04-11T15:44:01.123Z</time></trkpt><trkpt lat="44.1643167" lon="11.6914167"><ele>302.0</ele><time>2026-04-11T15:44:02.124Z</time></trkpt><trkpt lat="44.1643467" lon="11.691295"><ele>302.0</ele><time>2026-04-11T15:44:03.125Z</time></trkpt><trkpt lat="44.1643767" lon="11.6911533"><ele>302.0</ele><time>2026-04-11T15:44:04.124Z</time></trkpt><trkpt lat="44.1643967" lon="11.6910033"><ele>302.0</ele><time>2026-04-11T15:44:05.123Z</time></trkpt><trkpt lat="44.1644133" lon="11.6908533"><ele>302.0</ele><time>2026-04-11T15:44:06.123Z</time></trkpt><trkpt lat="44.164425" lon="11.690715"><ele>302.0</ele><time>2026-04-11T15:44:07.123Z</time></trkpt><trkpt lat="44.1644333" lon="11.6906017"><ele>300.6666666666667</ele><time>2026-04-11T15:44:08.124Z</time></trkpt><trkpt lat="44.164485" lon="11.69047"><ele>299.33333333333337</ele><time>2026-04-11T15:44:10.123Z</time></trkpt><trkpt lat="44.164565" lon="11.69049"><ele>298.0</ele><time>2026-04-11T15:44:12.124Z</time></trkpt><trkpt lat="44.1645983" lon="11.6905817"><ele>296.6666666666667</ele><time>2026-04-11T15:44:14.123Z</time></trkpt><trkpt lat="44.1646133" lon="11.6907083"><ele>295.3333333333333</ele><time>2026-04-11T15:44:16.124Z</time></trkpt><trkpt lat="44.1646233" lon="11.6908267"><ele>294.0</ele><time>2026-04-11T15:44:17.124Z</time></trkpt><trkpt lat="44.1646567" lon="11.6909683"><ele>295.59999999999997</ele><time>2026-04-11T15:44:18.125Z</time></trkpt><trkpt lat="44.1646967" lon="11.6911117"><ele>297.2</ele><time>2026-04-11T15:44:19.124Z</time></trkpt><trkpt lat="44.1647517" lon="11.6912433"><ele>298.79999999999995</ele><time>2026-04-11T15:44:20.124Z</time></trkpt><trkpt lat="44.1648117" lon="11.6913683"><ele>300.4</ele><time>2026-04-11T15:44:21.126Z</time></trkpt><trkpt lat="44.1648767" lon="11.6914817"><ele>302.0</ele><time>2026-04-11T15:44:22.124Z</time></trkpt><trkpt lat="44.1649467" lon="11.691575"><ele>299.33333333333337</ele><time>2026-04-11T15:44:23.124Z</time></trkpt><trkpt lat="44.1650283" lon="11.69164"><ele>296.6666666666667</ele><time>2026-04-11T15:44:24.124Z</time></trkpt><trkpt lat="44.1651117" lon="11.6916933"><ele>294.0</ele><time>2026-04-11T15:44:25.124Z</time></trkpt><trkpt lat="44.1651933" lon="11.69175"><ele>291.3333333333333</ele><time>2026-04-11T15:44:26.123Z</time></trkpt><trkpt lat="44.165265" lon="11.6918117"><ele>288.66666666666663</ele><time>2026-04-11T15:44:27.125Z</time></trkpt><trkpt lat="44.1653183" lon="11.691895"><ele>286.0</ele><time>2026-04-11T15:44:28.123Z</time></trkpt><trkpt lat="44.1653783" lon="11.691985"><ele>286.0</ele><time>2026-04-11T15:44:29.124Z</time></trkpt><trkpt lat="44.1654467" lon="11.692055"><ele>286.0</ele><time>2026-04-11T15:44:30.124Z</time></trkpt><trkpt lat="44.1655233" lon="11.692095"><ele>286.0</ele><time>2026-04-11T15:44:31.124Z</time></trkpt><trkpt lat="44.1655967" lon="11.6920933"><ele>286.0</ele><time>2026-04-11T15:44:32.124Z</time></trkpt><trkpt lat="44.16568" lon="11.6919683"><ele>286.0</ele><time>2026-04-11T15:44:34.124Z</time></trkpt><trkpt lat="44.1656883" lon="11.6918667"><ele>286.0</ele><time>2026-04-11T15:44:35.124Z</time></trkpt><trkpt lat="44.16568" lon="11.691755"><ele>284.2</ele><time>2026-04-11T15:44:36.122Z</time></trkpt><trkpt lat="44.1656767" lon="11.69164"><ele>282.40000000000003</ele><time>2026-04-11T15:44:37.123Z</time></trkpt><trkpt lat="44.165695" lon="11.6915083"><ele>280.6</ele><time>2026-04-11T15:44:38.123Z</time></trkpt><trkpt lat="44.165725" lon="11.69136"><ele>278.8</ele><time>2026-04-11T15:44:39.124Z</time></trkpt><trkpt lat="44.16576" lon="11.6912017"><ele>277.0</ele><time>2026-04-11T15:44:40.128Z</time></trkpt><trkpt lat="44.1657967" lon="11.6910583"><ele>273.0</ele><time>2026-04-11T15:44:41.124Z</time></trkpt><trkpt lat="44.1658217" lon="11.6909483"><ele>269.0</ele><time>2026-04-11T15:44:42.122Z</time></trkpt><trkpt lat="44.1658467" lon="11.6908517"><ele>265.0</ele><time>2026-04-11T15:44:43.124Z</time></trkpt><trkpt lat="44.1658883" lon="11.690775"><ele>261.0</ele><time>2026-04-11T15:44:44.124Z</time></trkpt><trkpt lat="44.1659483" lon="11.6907217"><ele>257.0</ele><time>2026-04-11T15:44:45.125Z</time></trkpt><trkpt lat="44.16601" lon="11.6907"><ele>253.0</ele><time>2026-04-11T15:44:46.124Z</time></trkpt><trkpt lat="44.166115" lon="11.6907317"><ele>253.0</ele><time>2026-04-11T15:44:48.124Z</time></trkpt><trkpt lat="44.1662033" lon="11.6908583"><ele>253.0</ele><time>2026-04-11T15:44:50.124Z</time></trkpt><trkpt lat="44.1662767" lon="11.6908967"><ele>253.0</ele><time>2026-04-11T15:44:51.123Z</time></trkpt><trkpt lat="44.16635" lon="11.6908383"><ele>253.0</ele><time>2026-04-11T15:44:53.123Z</time></trkpt><trkpt lat="44.16641" lon="11.6907183"><ele>253.0</ele><time>2026-04-11T15:44:55.123Z</time></trkpt><trkpt lat="44.1664483" lon="11.69063"><ele>252.99999999999997</ele><time>2026-04-11T15:44:56.123Z</time></trkpt><trkpt lat="44.166505" lon="11.6905067"><ele>253.0</ele><time>2026-04-11T15:44:57.125Z</time></trkpt><trkpt lat="44.16654" lon="11.6903917"><ele>253.0</ele><time>2026-04-11T15:44:58.124Z</time></trkpt><trkpt lat="44.1665467" lon="11.6902817"><ele>253.0</ele><time>2026-04-11T15:44:59.124Z</time></trkpt><trkpt lat="44.1665317" lon="11.6901633"><ele>252.99999999999997</ele><time>2026-04-11T15:45:00.124Z</time></trkpt><trkpt lat="44.1664983" lon="11.6900533"><ele>253.0</ele><time>2026-04-11T15:45:01.127Z</time></trkpt><trkpt lat="44.1664483" lon="11.6899383"><ele>251.0</ele><time>2026-04-11T15:45:02.123Z</time></trkpt><trkpt lat="44.1663833" lon="11.6898233"><ele>249.0</ele><time>2026-04-11T15:45:03.124Z</time></trkpt><trkpt lat="44.1663333" lon="11.6896933"><ele>247.0</ele><time>2026-04-11T15:45:04.123Z</time></trkpt><trkpt lat="44.1663067" lon="11.6895583"><ele>245.0</ele><time>2026-04-11T15:45:05.123Z</time></trkpt><trkpt lat="44.1662933" lon="11.689415"><ele>243.0</ele><time>2026-04-11T15:45:06.123Z</time></trkpt><trkpt lat="44.1662983" lon="11.689265"><ele>240.75</ele><time>2026-04-11T15:45:07.124Z</time></trkpt><trkpt lat="44.16631" lon="11.6890917"><ele>238.5</ele><time>2026-04-11T15:45:08.122Z</time></trkpt><trkpt lat="44.16632" lon="11.6889117"><ele>236.25</ele><time>2026-04-11T15:45:09.124Z</time></trkpt><trkpt lat="44.1663267" lon="11.6887367"><ele>234.0</ele><time>2026-04-11T15:45:10.124Z</time></trkpt><trkpt lat="44.16633" lon="11.6885667"><ele>232.5</ele><time>2026-04-11T15:45:11.123Z</time></trkpt><trkpt lat="44.1663317" lon="11.688405"><ele>231.0</ele><time>2026-04-11T15:45:12.125Z</time></trkpt><trkpt lat="44.1663567" lon="11.6882583"><ele>229.5</ele><time>2026-04-11T15:45:13.123Z</time></trkpt><trkpt lat="44.1664067" lon="11.6881167"><ele>228.0</ele><time>2026-04-11T15:45:14.124Z</time></trkpt><trkpt lat="44.16646" lon="11.687965"><ele>228.0</ele><time>2026-04-11T15:45:15.123Z</time></trkpt><trkpt lat="44.1665" lon="11.68779"><ele>228.0</ele><time>2026-04-11T15:45:16.124Z</time></trkpt><trkpt lat="44.1665317" lon="11.6876"><ele>228.0</ele><time>2026-04-11T15:45:17.124Z</time></trkpt><trkpt lat="44.1665567" lon="11.6874"><ele>228.0</ele><time>2026-04-11T15:45:18.123Z</time></trkpt><trkpt lat="44.1665833" lon="11.6872"><ele>223.75</ele><time>2026-04-11T15:45:19.124Z</time></trkpt><trkpt lat="44.1666133" lon="11.687005"><ele>219.5</ele><time>2026-04-11T15:45:20.125Z</time></trkpt><trkpt lat="44.166635" lon="11.68682"><ele>215.25</ele><time>2026-04-11T15:45:21.125Z</time></trkpt><trkpt lat="44.16664" lon="11.686645"><ele>211.0</ele><time>2026-04-11T15:45:22.123Z</time></trkpt><trkpt lat="44.1666333" lon="11.68649"><ele>209.66666666666666</ele><time>2026-04-11T15:45:23.123Z</time></trkpt><trkpt lat="44.1666283" lon="11.6863733"><ele>208.33333333333331</ele><time>2026-04-11T15:45:24.122Z</time></trkpt><trkpt lat="44.1666833" lon="11.6862533"><ele>207.0</ele><time>2026-04-11T15:45:26.124Z</time></trkpt><trkpt lat="44.166755" lon="11.68629"><ele>205.66666666666669</ele><time>2026-04-11T15:45:28.123Z</time></trkpt><trkpt lat="44.1668033" lon="11.6863517"><ele>204.33333333333334</ele><time>2026-04-11T15:45:29.125Z</time></trkpt><trkpt lat="44.16687" lon="11.68644"><ele>203.0</ele><time>2026-04-11T15:45:30.123Z</time></trkpt><trkpt lat="44.1670017" lon="11.68654"><ele>203.0</ele><time>2026-04-11T15:45:31.124Z</time></trkpt><trkpt lat="44.1671233" lon="11.6866467"><ele>203.0</ele><time>2026-04-11T15:45:32.123Z</time></trkpt><trkpt lat="44.1672517" lon="11.6867517"><ele>203.0</ele><time>2026-04-11T15:45:33.13Z</time></trkpt><trkpt lat="44.1673817" lon="11.68685"><ele>203.0</ele><time>2026-04-11T15:45:34.123Z</time></trkpt><trkpt lat="44.1675167" lon="11.6869517"><ele>202.66666666666669</ele><time>2026-04-11T15:45:35.123Z</time></trkpt><trkpt lat="44.167655" lon="11.6870583"><ele>202.33333333333331</ele><time>2026-04-11T15:45:36.124Z</time></trkpt><trkpt lat="44.167785" lon="11.6871717"><ele>202.0</ele><time>2026-04-11T15:45:37.124Z</time></trkpt><trkpt lat="44.167905" lon="11.687295"><ele>202.0</ele><time>2026-04-11T15:45:38.123Z</time></trkpt><trkpt lat="44.16803" lon="11.6874117"><ele>202.0</ele><time>2026-04-11T15:45:39.128Z</time></trkpt><trkpt lat="44.16815" lon="11.6875067"><ele>202.0</ele><time>2026-04-11T15:45:40.124Z</time></trkpt><trkpt lat="44.1682583" lon="11.6875717"><ele>202.0</ele><time>2026-04-11T15:45:41.123Z</time></trkpt><trkpt lat="44.1683733" lon="11.6876117"><ele>198.2</ele><time>2026-04-11T15:45:42.123Z</time></trkpt><trkpt lat="44.1684883" lon="11.6876317"><ele>194.39999999999998</ele><time>2026-04-11T15:45:43.123Z</time></trkpt><trkpt lat="44.1685967" lon="11.687655"><ele>190.60000000000002</ele><time>2026-04-11T15:45:44.124Z</time></trkpt><trkpt lat="44.1687067" lon="11.687675"><ele>186.8</ele><time>2026-04-11T15:45:45.124Z</time></trkpt><trkpt lat="44.1688083" lon="11.6876917"><ele>183.0</ele><time>2026-04-11T15:45:46.124Z</time></trkpt><trkpt lat="44.1689" lon="11.6876967"><ele>183.0</ele><time>2026-04-11T15:45:47.123Z</time></trkpt><trkpt lat="44.168975" lon="11.687685"><ele>183.0</ele><time>2026-04-11T15:45:48.123Z</time></trkpt><trkpt lat="44.1690433" lon="11.6876467"><ele>183.0</ele><time>2026-04-11T15:45:49.123Z</time></trkpt><trkpt lat="44.1690933" lon="11.6875817"><ele>183.0</ele><time>2026-04-11T15:45:50.123Z</time></trkpt><trkpt lat="44.1691383" lon="11.68749"><ele>183.0</ele><time>2026-04-11T15:45:51.125Z</time></trkpt><trkpt lat="44.1691817" lon="11.6873817"><ele>183.0</ele><time>2026-04-11T15:45:52.124Z</time></trkpt><trkpt lat="44.169215" lon="11.6872583"><ele>182.16666666666666</ele><time>2026-04-11T15:45:53.124Z</time></trkpt><trkpt lat="44.1692433" lon="11.6871483"><ele>181.33333333333334</ele><time>2026-04-11T15:45:54.124Z</time></trkpt><trkpt lat="44.1692683" lon="11.68706"><ele>180.5</ele><time>2026-04-11T15:45:55.123Z</time></trkpt><trkpt lat="44.1693183" lon="11.68692"><ele>179.66666666666669</ele><time>2026-04-11T15:45:57.124Z</time></trkpt><trkpt lat="44.1693633" lon="11.6868467"><ele>178.83333333333334</ele><time>2026-04-11T15:45:59.124Z</time></trkpt><trkpt lat="44.16947" lon="11.68683"><ele>178.0</ele><time>2026-04-11T15:46:01.123Z</time></trkpt><trkpt lat="44.169555" lon="11.68684"><ele>178.0</ele><time>2026-04-11T15:46:02.124Z</time></trkpt><trkpt lat="44.1696533" lon="11.6868517"><ele>178.0</ele><time>2026-04-11T15:46:03.124Z</time></trkpt><trkpt lat="44.1697667" lon="11.68687"><ele>178.0</ele><time>2026-04-11T15:46:04.123Z</time></trkpt><trkpt lat="44.1698833" lon="11.6868883"><ele>178.0</ele><time>2026-04-11T15:46:05.124Z</time></trkpt><trkpt lat="44.1699817" lon="11.6869183"><ele>178.0</ele><time>2026-04-11T15:46:06.124Z</time></trkpt><trkpt lat="44.1700633" lon="11.6869833"><ele>177.5</ele><time>2026-04-11T15:46:07.124Z</time></trkpt><trkpt lat="44.1701317" lon="11.687085"><ele>177.0</ele><time>2026-04-11T15:46:08.124Z</time></trkpt><trkpt lat="44.1701867" lon="11.6872217"><ele>176.5</ele><time>2026-04-11T15:46:09.124Z</time></trkpt><trkpt lat="44.1702267" lon="11.6873867"><ele>176.0</ele><time>2026-04-11T15:46:10.124Z</time></trkpt><trkpt lat="44.1702417" lon="11.6875717"><ele>176.33333333333331</ele><time>2026-04-11T15:46:11.124Z</time></trkpt><trkpt lat="44.1702417" lon="11.6877733"><ele>176.66666666666666</ele><time>2026-04-11T15:46:12.125Z</time></trkpt><trkpt lat="44.1702483" lon="11.6879833"><ele>177.0</ele><time>2026-04-11T15:46:13.125Z</time></trkpt><trkpt lat="44.1702667" lon="11.6882017"><ele>177.0</ele><time>2026-04-11T15:46:14.125Z</time></trkpt><trkpt lat="44.1703067" lon="11.6884083"><ele>177.0</ele><time>2026-04-11T15:46:15.126Z</time></trkpt><trkpt lat="44.1703617" lon="11.6886"><ele>177.0</ele><time>2026-04-11T15:46:16.125Z</time></trkpt><trkpt lat="44.17042" lon="11.6887667"><ele>177.0</ele><time>2026-04-11T15:46:17.123Z</time></trkpt><trkpt lat="44.1704667" lon="11.6889283"><ele>176.75</ele><time>2026-04-11T15:46:18.123Z</time></trkpt><trkpt lat="44.1705017" lon="11.689105"><ele>176.5</ele><time>2026-04-11T15:46:19.123Z</time></trkpt><trkpt lat="44.1705383" lon="11.68929"><ele>176.25</ele><time>2026-04-11T15:46:20.123Z</time></trkpt><trkpt lat="44.1705767" lon="11.6894783"><ele>176.0</ele><time>2026-04-11T15:46:21.124Z</time></trkpt><trkpt lat="44.1706167" lon="11.6896683"><ele>175.5</ele><time>2026-04-11T15:46:22.123Z</time></trkpt><trkpt lat="44.17066" lon="11.6898617"><ele>175.0</ele><time>2026-04-11T15:46:23.124Z</time></trkpt><trkpt lat="44.170695" lon="11.6900533"><ele>174.5</ele><time>2026-04-11T15:46:24.123Z</time></trkpt><trkpt lat="44.170725" lon="11.6902483"><ele>174.0</ele><time>2026-04-11T15:46:25.124Z</time></trkpt><trkpt lat="44.1707617" lon="11.6904317"><ele>175.5</ele><time>2026-04-11T15:46:26.124Z</time></trkpt><trkpt lat="44.170815" lon="11.690595"><ele>177.0</ele><time>2026-04-11T15:46:27.124Z</time></trkpt><trkpt lat="44.1708883" lon="11.690745"><ele>178.5</ele><time>2026-04-11T15:46:28.123Z</time></trkpt><trkpt lat="44.1709833" lon="11.6908867"><ele>180.0</ele><time>2026-04-11T15:46:29.122Z</time></trkpt><trkpt lat="44.1710867" lon="11.6910317"><ele>175.33333333333334</ele><time>2026-04-11T15:46:30.124Z</time></trkpt><trkpt lat="44.1711967" lon="11.6911883"><ele>170.66666666666669</ele><time>2026-04-11T15:46:31.123Z</time></trkpt><trkpt lat="44.171305" lon="11.6913567"><ele>166.0</ele><time>2026-04-11T15:46:32.124Z</time></trkpt><trkpt lat="44.171425" lon="11.69153"><ele>166.0</ele><time>2026-04-11T15:46:33.124Z</time></trkpt><trkpt lat="44.1715517" lon="11.6917117"><ele>166.0</ele><time>2026-04-11T15:46:34.123Z</time></trkpt><trkpt lat="44.1716883" lon="11.6919017"><ele>166.0</ele><time>2026-04-11T15:46:35.124Z</time></trkpt><trkpt lat="44.1718367" lon="11.692085"><ele>166.0</ele><time>2026-04-11T15:46:36.125Z</time></trkpt><trkpt lat="44.172005" lon="11.6922467"><ele>166.0</ele><time>2026-04-11T15:46:37.124Z</time></trkpt><trkpt lat="44.1721867" lon="11.69238"><ele>166.0</ele><time>2026-04-11T15:46:38.124Z</time></trkpt><trkpt lat="44.172375" lon="11.6924883"><ele>169.66666666666669</ele><time>2026-04-11T15:46:39.125Z</time></trkpt><trkpt lat="44.1725733" lon="11.692575"><ele>173.33333333333334</ele><time>2026-04-11T15:46:40.124Z</time></trkpt><trkpt lat="44.1727783" lon="11.6926333"><ele>177.0</ele><time>2026-04-11T15:46:41.123Z</time></trkpt><trkpt lat="44.172985" lon="11.6926717"><ele>178.0</ele><time>2026-04-11T15:46:42.124Z</time></trkpt><trkpt lat="44.1731967" lon="11.6926933"><ele>179.0</ele><time>2026-04-11T15:46:43.123Z</time></trkpt><trkpt lat="44.1734083" lon="11.6927117"><ele>180.0</ele><time>2026-04-11T15:46:44.124Z</time></trkpt><trkpt lat="44.17362" lon="11.6927317"><ele>180.0</ele><time>2026-04-11T15:46:45.124Z</time></trkpt><trkpt lat="44.1738317" lon="11.6927517"><ele>180.0</ele><time>2026-04-11T15:46:46.123Z</time></trkpt><trkpt lat="44.1740433" lon="11.6927683"><ele>180.0</ele><time>2026-04-11T15:46:47.123Z</time></trkpt><trkpt lat="44.1742533" lon="11.6927783"><ele>177.33333333333334</ele><time>2026-04-11T15:46:48.124Z</time></trkpt><trkpt lat="44.1744617" lon="11.6927867"><ele>174.66666666666669</ele><time>2026-04-11T15:46:49.129Z</time></trkpt><trkpt lat="44.1746667" lon="11.6928017"><ele>172.0</ele><time>2026-04-11T15:46:50.125Z</time></trkpt><trkpt lat="44.1748583" lon="11.69282"><ele>172.0</ele><time>2026-04-11T15:46:51.126Z</time></trkpt><trkpt lat="44.1750417" lon="11.6928483"><ele>172.0</ele><time>2026-04-11T15:46:52.125Z</time></trkpt><trkpt lat="44.1752217" lon="11.692895"><ele>172.0</ele><time>2026-04-11T15:46:53.125Z</time></trkpt><trkpt lat="44.175405" lon="11.6929483"><ele>172.0</ele><time>2026-04-11T15:46:54.126Z</time></trkpt><trkpt lat="44.1755933" lon="11.6929983"><ele>172.0</ele><time>2026-04-11T15:46:55.124Z</time></trkpt><trkpt lat="44.1757833" lon="11.6930467"><ele>172.0</ele><time>2026-04-11T15:46:56.123Z</time></trkpt><trkpt lat="44.1759733" lon="11.6930967"><ele>172.33333333333334</ele><time>2026-04-11T15:46:57.124Z</time></trkpt><trkpt lat="44.1761633" lon="11.6931417"><ele>172.66666666666666</ele><time>2026-04-11T15:46:58.123Z</time></trkpt><trkpt lat="44.17636" lon="11.69319"><ele>173.0</ele><time>2026-04-11T15:46:59.123Z</time></trkpt><trkpt lat="44.1765583" lon="11.6932383"><ele>172.33333333333331</ele><time>2026-04-11T15:47:00.125Z</time></trkpt><trkpt lat="44.1767583" lon="11.6932867"><ele>171.66666666666666</ele><time>2026-04-11T15:47:01.124Z</time></trkpt><trkpt lat="44.1769617" lon="11.6933367"><ele>171.0</ele><time>2026-04-11T15:47:02.122Z</time></trkpt><trkpt lat="44.17717" lon="11.69339"><ele>171.0</ele><time>2026-04-11T15:47:03.124Z</time></trkpt><trkpt lat="44.17738" lon="11.693445"><ele>171.0</ele><time>2026-04-11T15:47:04.124Z</time></trkpt><trkpt lat="44.1775917" lon="11.6934933"><ele>171.0</ele><time>2026-04-11T15:47:05.125Z</time></trkpt><trkpt lat="44.1778067" lon="11.6935417"><ele>170.33333333333334</ele><time>2026-04-11T15:47:06.124Z</time></trkpt><trkpt lat="44.1780133" lon="11.6935917"><ele>169.66666666666669</ele><time>2026-04-11T15:47:07.123Z</time></trkpt><trkpt lat="44.1782083" lon="11.6936417"><ele>169.0</ele><time>2026-04-11T15:47:08.125Z</time></trkpt><trkpt lat="44.17839" lon="11.6937033"><ele>169.0</ele><time>2026-04-11T15:47:09.124Z</time></trkpt><trkpt lat="44.178555" lon="11.6937883"><ele>169.0</ele><time>2026-04-11T15:47:10.123Z</time></trkpt><trkpt lat="44.17871" lon="11.6938867"><ele>169.0</ele><time>2026-04-11T15:47:11.124Z</time></trkpt><trkpt lat="44.178855" lon="11.69401"><ele>169.0</ele><time>2026-04-11T15:47:12.126Z</time></trkpt><trkpt lat="44.17899" lon="11.6941617"><ele>169.0</ele><time>2026-04-11T15:47:13.123Z</time></trkpt><trkpt lat="44.1791183" lon="11.694335"><ele>169.0</ele><time>2026-04-11T15:47:14.125Z</time></trkpt><trkpt lat="44.1792367" lon="11.6945317"><ele>167.33333333333334</ele><time>2026-04-11T15:47:15.124Z</time></trkpt><trkpt lat="44.1793533" lon="11.69474"><ele>165.66666666666666</ele><time>2026-04-11T15:47:16.123Z</time></trkpt><trkpt lat="44.1794717" lon="11.6949617"><ele>164.0</ele><time>2026-04-11T15:47:17.124Z</time></trkpt><trkpt lat="44.1795917" lon="11.6951883"><ele>164.66666666666666</ele><time>2026-04-11T15:47:18.124Z</time></trkpt><trkpt lat="44.179715" lon="11.6954217"><ele>165.33333333333334</ele><time>2026-04-11T15:47:19.123Z</time></trkpt><trkpt lat="44.1798417" lon="11.69566"><ele>166.0</ele><time>2026-04-11T15:47:20.124Z</time></trkpt><trkpt lat="44.1799667" lon="11.6959033"><ele>163.33333333333334</ele><time>2026-04-11T15:47:21.124Z</time></trkpt><trkpt lat="44.180095" lon="11.6961467"><ele>160.66666666666666</ele><time>2026-04-11T15:47:22.122Z</time></trkpt><trkpt lat="44.180225" lon="11.6963883"><ele>158.0</ele><time>2026-04-11T15:47:23.125Z</time></trkpt><trkpt lat="44.1803467" lon="11.6966167"><ele>158.0</ele><time>2026-04-11T15:47:24.124Z</time></trkpt><trkpt lat="44.18046" lon="11.696835"><ele>158.0</ele><time>2026-04-11T15:47:25.127Z</time></trkpt><trkpt lat="44.1805683" lon="11.6970433"><ele>158.0</ele><time>2026-04-11T15:47:26.124Z</time></trkpt><trkpt lat="44.1806733" lon="11.6972433"><ele>159.33333333333331</ele><time>2026-04-11T15:47:27.124Z</time></trkpt><trkpt lat="44.1807733" lon="11.6974333"><ele>160.66666666666666</ele><time>2026-04-11T15:47:28.124Z</time></trkpt><trkpt lat="44.1808717" lon="11.6976167"><ele>162.0</ele><time>2026-04-11T15:47:29.124Z</time></trkpt><trkpt lat="44.1809683" lon="11.69779"><ele>162.0</ele><time>2026-04-11T15:47:30.124Z</time></trkpt><trkpt lat="44.18107" lon="11.69796"><ele>162.0</ele><time>2026-04-11T15:47:31.123Z</time></trkpt><trkpt lat="44.1811783" lon="11.6981233"><ele>162.0</ele><time>2026-04-11T15:47:32.124Z</time></trkpt><trkpt lat="44.181295" lon="11.6982817"><ele>162.0</ele><time>2026-04-11T15:47:33.125Z</time></trkpt><trkpt lat="44.18142" lon="11.6984367"><ele>162.0</ele><time>2026-04-11T15:47:34.123Z</time></trkpt><trkpt lat="44.18155" lon="11.6985833"><ele>162.0</ele><time>2026-04-11T15:47:35.124Z</time></trkpt><trkpt lat="44.1816917" lon="11.6987217"><ele>162.0</ele><time>2026-04-11T15:47:36.124Z</time></trkpt><trkpt lat="44.1818433" lon="11.69885"><ele>162.0</ele><time>2026-04-11T15:47:37.124Z</time></trkpt><trkpt lat="44.18199" lon="11.6989667"><ele>162.0</ele><time>2026-04-11T15:47:38.124Z</time></trkpt><trkpt lat="44.1821283" lon="11.69908"><ele>162.0</ele><time>2026-04-11T15:47:39.124Z</time></trkpt><trkpt lat="44.1822583" lon="11.699195"><ele>162.0</ele><time>2026-04-11T15:47:40.123Z</time></trkpt><trkpt lat="44.18239" lon="11.6993167"><ele>162.0</ele><time>2026-04-11T15:47:41.124Z</time></trkpt><trkpt lat="44.18252" lon="11.6994417"><ele>159.0</ele><time>2026-04-11T15:47:42.124Z</time></trkpt><trkpt lat="44.182645" lon="11.6995667"><ele>156.0</ele><time>2026-04-11T15:47:43.123Z</time></trkpt><trkpt lat="44.182775" lon="11.699695"><ele>153.0</ele><time>2026-04-11T15:47:44.127Z</time></trkpt><trkpt lat="44.1829067" lon="11.6998217"><ele>153.0</ele><time>2026-04-11T15:47:45.124Z</time></trkpt><trkpt lat="44.1830433" lon="11.6999467"><ele>153.0</ele><time>2026-04-11T15:47:46.123Z</time></trkpt><trkpt lat="44.1831867" lon="11.7000683"><ele>153.0</ele><time>2026-04-11T15:47:47.124Z</time></trkpt><trkpt lat="44.183335" lon="11.7001883"><ele>150.33333333333334</ele><time>2026-04-11T15:47:48.122Z</time></trkpt><trkpt lat="44.1834883" lon="11.7003167"><ele>147.66666666666669</ele><time>2026-04-11T15:47:49.124Z</time></trkpt><trkpt lat="44.1836417" lon="11.7004483"><ele>145.0</ele><time>2026-04-11T15:47:50.124Z</time></trkpt><trkpt lat="44.1838" lon="11.7005833"><ele>145.0</ele><time>2026-04-11T15:47:51.124Z</time></trkpt><trkpt lat="44.18396" lon="11.700715"><ele>145.0</ele><time>2026-04-11T15:47:52.123Z</time></trkpt><trkpt lat="44.1841217" lon="11.7008233"><ele>145.0</ele><time>2026-04-11T15:47:53.123Z</time></trkpt><trkpt lat="44.184285" lon="11.7009"><ele>147.66666666666669</ele><time>2026-04-11T15:47:54.124Z</time></trkpt><trkpt lat="44.1844467" lon="11.70094"><ele>150.33333333333334</ele><time>2026-04-11T15:47:55.124Z</time></trkpt><trkpt lat="44.18461" lon="11.700955"><ele>153.0</ele><time>2026-04-11T15:47:56.122Z</time></trkpt><trkpt lat="44.184775" lon="11.7009583"><ele>152.0</ele><time>2026-04-11T15:47:57.123Z</time></trkpt><trkpt lat="44.1849433" lon="11.7009483"><ele>151.0</ele><time>2026-04-11T15:47:58.124Z</time></trkpt><trkpt lat="44.185115" lon="11.700925"><ele>150.0</ele><time>2026-04-11T15:47:59.123Z</time></trkpt><trkpt lat="44.1852733" lon="11.7009117"><ele>150.0</ele><time>2026-04-11T15:48:00.123Z</time></trkpt><trkpt lat="44.1854233" lon="11.70094"><ele>150.0</ele><time>2026-04-11T15:48:01.124Z</time></trkpt><trkpt lat="44.18557" lon="11.7009983"><ele>150.0</ele><time>2026-04-11T15:48:02.124Z</time></trkpt><trkpt lat="44.1857217" lon="11.7010883"><ele>147.0</ele><time>2026-04-11T15:48:03.124Z</time></trkpt><trkpt lat="44.1858717" lon="11.7011933"><ele>144.0</ele><time>2026-04-11T15:48:04.122Z</time></trkpt><trkpt lat="44.1860167" lon="11.7012983"><ele>141.0</ele><time>2026-04-11T15:48:05.123Z</time></trkpt><trkpt lat="44.1861583" lon="11.7014067"><ele>141.0</ele><time>2026-04-11T15:48:06.124Z</time></trkpt><trkpt lat="44.1862983" lon="11.701525"><ele>141.0</ele><time>2026-04-11T15:48:07.125Z</time></trkpt><trkpt lat="44.186435" lon="11.701655"><ele>141.0</ele><time>2026-04-11T15:48:08.124Z</time></trkpt><trkpt lat="44.18657" lon="11.701795"><ele>142.0</ele><time>2026-04-11T15:48:09.124Z</time></trkpt><trkpt lat="44.1867" lon="11.7019483"><ele>143.0</ele><time>2026-04-11T15:48:10.124Z</time></trkpt><trkpt lat="44.1868133" lon="11.7021233"><ele>144.0</ele><time>2026-04-11T15:48:11.124Z</time></trkpt><trkpt lat="44.1869183" lon="11.702315"><ele>144.0</ele><time>2026-04-11T15:48:12.124Z</time></trkpt><trkpt lat="44.1870183" lon="11.7025183"><ele>144.0</ele><time>2026-04-11T15:48:13.124Z</time></trkpt><trkpt lat="44.1871183" lon="11.702725"><ele>144.0</ele><time>2026-04-11T15:48:14.124Z</time></trkpt><trkpt lat="44.187215" lon="11.7029367"><ele>142.66666666666666</ele><time>2026-04-11T15:48:15.125Z</time></trkpt><trkpt lat="44.1873083" lon="11.7031567"><ele>141.33333333333331</ele><time>2026-04-11T15:48:16.125Z</time></trkpt><trkpt lat="44.1874033" lon="11.7033783"><ele>140.0</ele><time>2026-04-11T15:48:17.124Z</time></trkpt><trkpt lat="44.1874983" lon="11.7036017"><ele>144.66666666666666</ele><time>2026-04-11T15:48:18.123Z</time></trkpt><trkpt lat="44.1875933" lon="11.703825"><ele>149.33333333333334</ele><time>2026-04-11T15:48:19.124Z</time></trkpt><trkpt lat="44.1876867" lon="11.70405"><ele>154.0</ele><time>2026-04-11T15:48:20.125Z</time></trkpt><trkpt lat="44.18778" lon="11.70427"><ele>154.33333333333334</ele><time>2026-04-11T15:48:21.125Z</time></trkpt><trkpt lat="44.1878733" lon="11.7044833"><ele>154.66666666666666</ele><time>2026-04-11T15:48:22.125Z</time></trkpt><trkpt lat="44.1879567" lon="11.704685"><ele>155.0</ele><time>2026-04-11T15:48:23.125Z</time></trkpt><trkpt lat="44.18803" lon="11.7048767"><ele>155.0</ele><time>2026-04-11T15:48:24.125Z</time></trkpt><trkpt lat="44.188095" lon="11.705045"><ele>155.0</ele><time>2026-04-11T15:48:25.125Z</time></trkpt><trkpt lat="44.1881467" lon="11.7052033"><ele>155.0</ele><time>2026-04-11T15:48:26.124Z</time></trkpt><trkpt lat="44.1881917" lon="11.7053517"><ele>155.0</ele><time>2026-04-11T15:48:27.124Z</time></trkpt><trkpt lat="44.188235" lon="11.7054883"><ele>156.0</ele><time>2026-04-11T15:48:28.124Z</time></trkpt><trkpt lat="44.1882883" lon="11.7056233"><ele>157.0</ele><time>2026-04-11T15:48:29.124Z</time></trkpt><trkpt lat="44.1883583" lon="11.70576"><ele>158.0</ele><time>2026-04-11T15:48:30.124Z</time></trkpt><trkpt lat="44.18843" lon="11.705905"><ele>159.0</ele><time>2026-04-11T15:48:31.124Z</time></trkpt><trkpt lat="44.1885083" lon="11.7060533"><ele>157.0</ele><time>2026-04-11T15:48:32.124Z</time></trkpt><trkpt lat="44.18859" lon="11.706215"><ele>155.0</ele><time>2026-04-11T15:48:33.124Z</time></trkpt><trkpt lat="44.188675" lon="11.70638"><ele>153.0</ele><time>2026-04-11T15:48:34.124Z</time></trkpt><trkpt lat="44.188765" lon="11.7065517"><ele>151.0</ele><time>2026-04-11T15:48:35.124Z</time></trkpt><trkpt lat="44.1888583" lon="11.7067233"><ele>151.0</ele><time>2026-04-11T15:48:36.124Z</time></trkpt><trkpt lat="44.1889467" lon="11.7069017"><ele>151.0</ele><time>2026-04-11T15:48:37.124Z</time></trkpt><trkpt lat="44.1890317" lon="11.7070883"><ele>151.0</ele><time>2026-04-11T15:48:38.124Z</time></trkpt><trkpt lat="44.1891133" lon="11.7072867"><ele>152.0</ele><time>2026-04-11T15:48:39.125Z</time></trkpt><trkpt lat="44.1891983" lon="11.7074883"><ele>153.0</ele><time>2026-04-11T15:48:40.124Z</time></trkpt><trkpt lat="44.18929" lon="11.70769"><ele>154.0</ele><time>2026-04-11T15:48:41.124Z</time></trkpt><trkpt lat="44.1893867" lon="11.7078933"><ele>154.0</ele><time>2026-04-11T15:48:42.124Z</time></trkpt><trkpt lat="44.1894933" lon="11.7080967"><ele>154.0</ele><time>2026-04-11T15:48:43.124Z</time></trkpt><trkpt lat="44.1896067" lon="11.7082983"><ele>154.0</ele><time>2026-04-11T15:48:44.124Z</time></trkpt><trkpt lat="44.189725" lon="11.7084967"><ele>153.33333333333334</ele><time>2026-04-11T15:48:45.125Z</time></trkpt><trkpt lat="44.1898467" lon="11.7086917"><ele>152.66666666666666</ele><time>2026-04-11T15:48:46.124Z</time></trkpt><trkpt lat="44.1899783" lon="11.708875"><ele>152.0</ele><time>2026-04-11T15:48:47.124Z</time></trkpt><trkpt lat="44.1901233" lon="11.7090283"><ele>152.0</ele><time>2026-04-11T15:48:48.125Z</time></trkpt><trkpt lat="44.190275" lon="11.7091633"><ele>152.0</ele><time>2026-04-11T15:48:49.124Z</time></trkpt><trkpt lat="44.1904267" lon="11.7093033"><ele>152.0</ele><time>2026-04-11T15:48:50.124Z</time></trkpt><trkpt lat="44.1905717" lon="11.709455"><ele>150.0</ele><time>2026-04-11T15:48:51.125Z</time></trkpt><trkpt lat="44.190715" lon="11.7096133"><ele>148.0</ele><time>2026-04-11T15:48:52.125Z</time></trkpt><trkpt lat="44.1908517" lon="11.7097867"><ele>146.0</ele><time>2026-04-11T15:48:53.124Z</time></trkpt><trkpt lat="44.19099" lon="11.709965"><ele>146.0</ele><time>2026-04-11T15:48:54.125Z</time></trkpt><trkpt lat="44.1911333" lon="11.7101367"><ele>146.0</ele><time>2026-04-11T15:48:55.123Z</time></trkpt><trkpt lat="44.19129" lon="11.7102867"><ele>146.0</ele><time>2026-04-11T15:48:56.125Z</time></trkpt><trkpt lat="44.191455" lon="11.7104183"><ele>143.66666666666666</ele><time>2026-04-11T15:48:57.125Z</time></trkpt><trkpt lat="44.1916233" lon="11.7105433"><ele>141.33333333333334</ele><time>2026-04-11T15:48:58.124Z</time></trkpt><trkpt lat="44.191795" lon="11.7106617"><ele>139.0</ele><time>2026-04-11T15:48:59.124Z</time></trkpt><trkpt lat="44.19197" lon="11.710775"><ele>139.0</ele><time>2026-04-11T15:49:00.123Z</time></trkpt><trkpt lat="44.192145" lon="11.7108917"><ele>139.0</ele><time>2026-04-11T15:49:01.125Z</time></trkpt><trkpt lat="44.1923217" lon="11.711015"><ele>139.0</ele><time>2026-04-11T15:49:02.126Z</time></trkpt><trkpt lat="44.1924967" lon="11.7111433"><ele>139.66666666666669</ele><time>2026-04-11T15:49:03.124Z</time></trkpt><trkpt lat="44.1926617" lon="11.7112817"><ele>140.33333333333334</ele><time>2026-04-11T15:49:04.125Z</time></trkpt><trkpt lat="44.1928133" lon="11.71144"><ele>141.0</ele><time>2026-04-11T15:49:05.124Z</time></trkpt><trkpt lat="44.1929533" lon="11.7116167"><ele>141.0</ele><time>2026-04-11T15:49:06.124Z</time></trkpt><trkpt lat="44.193085" lon="11.7118033"><ele>141.0</ele><time>2026-04-11T15:49:07.124Z</time></trkpt><trkpt lat="44.1932133" lon="11.7120017"><ele>141.0</ele><time>2026-04-11T15:49:08.124Z</time></trkpt><trkpt lat="44.1933417" lon="11.7122033"><ele>140.33333333333334</ele><time>2026-04-11T15:49:09.124Z</time></trkpt><trkpt lat="44.1934717" lon="11.712405"><ele>139.66666666666669</ele><time>2026-04-11T15:49:10.124Z</time></trkpt><trkpt lat="44.1936033" lon="11.7126083"><ele>139.0</ele><time>2026-04-11T15:49:11.125Z</time></trkpt><trkpt lat="44.1937333" lon="11.7128133"><ele>141.0</ele><time>2026-04-11T15:49:12.125Z</time></trkpt><trkpt lat="44.19386" lon="11.7130183"><ele>143.0</ele><time>2026-04-11T15:49:13.125Z</time></trkpt><trkpt lat="44.1939883" lon="11.713225"><ele>145.0</ele><time>2026-04-11T15:49:14.124Z</time></trkpt><trkpt lat="44.194115" lon="11.71343"><ele>140.66666666666669</ele><time>2026-04-11T15:49:15.125Z</time></trkpt><trkpt lat="44.19424" lon="11.7136367"><ele>136.33333333333334</ele><time>2026-04-11T15:49:16.125Z</time></trkpt><trkpt lat="44.1943617" lon="11.7138417"><ele>132.0</ele><time>2026-04-11T15:49:17.124Z</time></trkpt><trkpt lat="44.1944817" lon="11.714045"><ele>132.0</ele><time>2026-04-11T15:49:18.124Z</time></trkpt><trkpt lat="44.1945967" lon="11.7142433"><ele>132.0</ele><time>2026-04-11T15:49:19.124Z</time></trkpt><trkpt lat="44.1947083" lon="11.714435"><ele>132.0</ele><time>2026-04-11T15:49:20.124Z</time></trkpt><trkpt lat="44.19481" lon="11.7146183"><ele>135.25</ele><time>2026-04-11T15:49:21.125Z</time></trkpt><trkpt lat="44.194905" lon="11.7147933"><ele>138.5</ele><time>2026-04-11T15:49:22.125Z</time></trkpt><trkpt lat="44.194995" lon="11.7149583"><ele>141.75</ele><time>2026-04-11T15:49:23.124Z</time></trkpt><trkpt lat="44.1950833" lon="11.7151133"><ele>145.0</ele><time>2026-04-11T15:49:24.124Z</time></trkpt><trkpt lat="44.19516" lon="11.715265"><ele>145.0</ele><time>2026-04-11T15:49:25.124Z</time></trkpt><trkpt lat="44.19523" lon="11.7154083"><ele>145.0</ele><time>2026-04-11T15:49:26.124Z</time></trkpt><trkpt lat="44.1953067" lon="11.7155367"><ele>145.0</ele><time>2026-04-11T15:49:27.128Z</time></trkpt><trkpt lat="44.19539" lon="11.715655"><ele>145.0</ele><time>2026-04-11T15:49:28.124Z</time></trkpt><trkpt lat="44.1954783" lon="11.7157717"><ele>145.0</ele><time>2026-04-11T15:49:29.124Z</time></trkpt><trkpt lat="44.19557" lon="11.7158833"><ele>145.0</ele><time>2026-04-11T15:49:30.125Z</time></trkpt><trkpt lat="44.1956633" lon="11.7160017"><ele>145.0</ele><time>2026-04-11T15:49:31.124Z</time></trkpt><trkpt lat="44.1957583" lon="11.7161383"><ele>145.0</ele><time>2026-04-11T15:49:32.124Z</time></trkpt><trkpt lat="44.19586" lon="11.7162733"><ele>145.33333333333334</ele><time>2026-04-11T15:49:33.124Z</time></trkpt><trkpt lat="44.1959683" lon="11.7164183"><ele>145.66666666666666</ele><time>2026-04-11T15:49:34.124Z</time></trkpt><trkpt lat="44.196075" lon="11.7165733"><ele>146.0</ele><time>2026-04-11T15:49:35.124Z</time></trkpt><trkpt lat="44.1961767" lon="11.7167333"><ele>144.0</ele><time>2026-04-11T15:49:36.125Z</time></trkpt><trkpt lat="44.1962717" lon="11.7169033"><ele>142.0</ele><time>2026-04-11T15:49:37.125Z</time></trkpt><trkpt lat="44.1963617" lon="11.7170817"><ele>140.0</ele><time>2026-04-11T15:49:38.124Z</time></trkpt><trkpt lat="44.1964467" lon="11.7172633"><ele>142.33333333333331</ele><time>2026-04-11T15:49:39.124Z</time></trkpt><trkpt lat="44.1965217" lon="11.7174567"><ele>144.66666666666666</ele><time>2026-04-11T15:49:40.124Z</time></trkpt><trkpt lat="44.1965867" lon="11.7176617"><ele>147.0</ele><time>2026-04-11T15:49:41.124Z</time></trkpt><trkpt lat="44.1966433" lon="11.7178767"><ele>147.0</ele><time>2026-04-11T15:49:42.124Z</time></trkpt><trkpt lat="44.1966933" lon="11.7181"><ele>147.0</ele><time>2026-04-11T15:49:43.124Z</time></trkpt><trkpt lat="44.196745" lon="11.7183233"><ele>147.0</ele><time>2026-04-11T15:49:44.124Z</time></trkpt><trkpt lat="44.1967983" lon="11.71855"><ele>144.33333333333334</ele><time>2026-04-11T15:49:45.124Z</time></trkpt><trkpt lat="44.1968517" lon="11.7187817"><ele>141.66666666666669</ele><time>2026-04-11T15:49:46.124Z</time></trkpt><trkpt lat="44.1969067" lon="11.7190133"><ele>139.0</ele><time>2026-04-11T15:49:47.125Z</time></trkpt><trkpt lat="44.1969717" lon="11.7192483"><ele>137.66666666666669</ele><time>2026-04-11T15:49:48.126Z</time></trkpt><trkpt lat="44.19704" lon="11.7194817"><ele>136.33333333333334</ele><time>2026-04-11T15:49:49.124Z</time></trkpt><trkpt lat="44.1971133" lon="11.719715"><ele>135.0</ele><time>2026-04-11T15:49:50.123Z</time></trkpt><trkpt lat="44.1971917" lon="11.71995"><ele>135.0</ele><time>2026-04-11T15:49:51.125Z</time></trkpt><trkpt lat="44.1972733" lon="11.7201883"><ele>135.0</ele><time>2026-04-11T15:49:52.125Z</time></trkpt><trkpt lat="44.1973533" lon="11.7204333"><ele>135.0</ele><time>2026-04-11T15:49:53.124Z</time></trkpt><trkpt lat="44.1974383" lon="11.7206767"><ele>136.66666666666666</ele><time>2026-04-11T15:49:54.124Z</time></trkpt><trkpt lat="44.19752" lon="11.7209217"><ele>138.33333333333331</ele><time>2026-04-11T15:49:55.124Z</time></trkpt><trkpt lat="44.1976" lon="11.7211683"><ele>140.0</ele><time>2026-04-11T15:49:56.125Z</time></trkpt><trkpt lat="44.19768" lon="11.7214167"><ele>140.0</ele><time>2026-04-11T15:49:57.125Z</time></trkpt><trkpt lat="44.197765" lon="11.7216667"><ele>140.0</ele><time>2026-04-11T15:49:58.123Z</time></trkpt><trkpt lat="44.1978567" lon="11.721915"><ele>140.0</ele><time>2026-04-11T15:49:59.124Z</time></trkpt><trkpt lat="44.1979583" lon="11.7221567"><ele>139.33333333333331</ele><time>2026-04-11T15:50:00.125Z</time></trkpt><trkpt lat="44.19807" lon="11.7223917"><ele>138.66666666666666</ele><time>2026-04-11T15:50:01.124Z</time></trkpt><trkpt lat="44.198185" lon="11.722625"><ele>138.0</ele><time>2026-04-11T15:50:02.124Z</time></trkpt><trkpt lat="44.1983033" lon="11.7228583"><ele>136.66666666666666</ele><time>2026-04-11T15:50:03.127Z</time></trkpt><trkpt lat="44.1984217" lon="11.723095"><ele>135.33333333333331</ele><time>2026-04-11T15:50:04.124Z</time></trkpt><trkpt lat="44.1985383" lon="11.7233333"><ele>134.0</ele><time>2026-04-11T15:50:05.124Z</time></trkpt><trkpt lat="44.19866" lon="11.72357"><ele>133.33333333333331</ele><time>2026-04-11T15:50:06.124Z</time></trkpt><trkpt lat="44.198775" lon="11.7237933"><ele>132.66666666666666</ele><time>2026-04-11T15:50:07.124Z</time></trkpt><trkpt lat="44.1988783" lon="11.7239917"><ele>132.0</ele><time>2026-04-11T15:50:08.124Z</time></trkpt><trkpt lat="44.198965" lon="11.724155"><ele>133.0</ele><time>2026-04-11T15:50:09.125Z</time></trkpt><trkpt lat="44.199045" lon="11.72431"><ele>134.0</ele><time>2026-04-11T15:50:10.125Z</time></trkpt><trkpt lat="44.1991233" lon="11.7244567"><ele>135.0</ele><time>2026-04-11T15:50:11.124Z</time></trkpt><trkpt lat="44.1992033" lon="11.7245933"><ele>136.0</ele><time>2026-04-11T15:50:12.124Z</time></trkpt><trkpt lat="44.199285" lon="11.72473"><ele>136.0</ele><time>2026-04-11T15:50:13.124Z</time></trkpt><trkpt lat="44.19937" lon="11.724865"><ele>136.0</ele><time>2026-04-11T15:50:14.125Z</time></trkpt><trkpt lat="44.1994517" lon="11.7249933"><ele>136.0</ele><time>2026-04-11T15:50:15.124Z</time></trkpt><trkpt lat="44.1995233" lon="11.7251217"><ele>136.0</ele><time>2026-04-11T15:50:16.125Z</time></trkpt><trkpt lat="44.1995883" lon="11.725265"><ele>135.25</ele><time>2026-04-11T15:50:17.124Z</time></trkpt><trkpt lat="44.1996517" lon="11.7254167"><ele>134.5</ele><time>2026-04-11T15:50:18.124Z</time></trkpt><trkpt lat="44.1997133" lon="11.7255733"><ele>133.75</ele><time>2026-04-11T15:50:19.124Z</time></trkpt><trkpt lat="44.1997767" lon="11.7257317"><ele>133.0</ele><time>2026-04-11T15:50:20.123Z</time></trkpt><trkpt lat="44.1998383" lon="11.725895"><ele>133.0</ele><time>2026-04-11T15:50:21.123Z</time></trkpt><trkpt lat="44.199895" lon="11.72606"><ele>133.0</ele><time>2026-04-11T15:50:22.124Z</time></trkpt><trkpt lat="44.1999583" lon="11.7262217"><ele>133.0</ele><time>2026-04-11T15:50:23.124Z</time></trkpt><trkpt lat="44.2000267" lon="11.7263767"><ele>133.0</ele><time>2026-04-11T15:50:24.124Z</time></trkpt><trkpt lat="44.2000983" lon="11.726535"><ele>133.0</ele><time>2026-04-11T15:50:25.124Z</time></trkpt><trkpt lat="44.2001717" lon="11.7266917"><ele>133.0</ele><time>2026-04-11T15:50:26.124Z</time></trkpt><trkpt lat="44.2002483" lon="11.72685"><ele>133.0</ele><time>2026-04-11T15:50:27.124Z</time></trkpt><trkpt lat="44.20033" lon="11.7270083"><ele>133.0</ele><time>2026-04-11T15:50:28.124Z</time></trkpt><trkpt lat="44.2004083" lon="11.7271667"><ele>132.75</ele><time>2026-04-11T15:50:29.124Z</time></trkpt><trkpt lat="44.2004867" lon="11.7273217"><ele>132.5</ele><time>2026-04-11T15:50:30.124Z</time></trkpt><trkpt lat="44.20056" lon="11.72747"><ele>132.25</ele><time>2026-04-11T15:50:31.124Z</time></trkpt><trkpt lat="44.2006283" lon="11.72762"><ele>132.0</ele><time>2026-04-11T15:50:32.124Z</time></trkpt><trkpt lat="44.2007033" lon="11.72778"><ele>132.0</ele><time>2026-04-11T15:50:33.124Z</time></trkpt><trkpt lat="44.2007783" lon="11.727945"><ele>132.0</ele><time>2026-04-11T15:50:34.125Z</time></trkpt><trkpt lat="44.2008583" lon="11.728115"><ele>132.0</ele><time>2026-04-11T15:50:35.123Z</time></trkpt><trkpt lat="44.2009417" lon="11.728285"><ele>132.0</ele><time>2026-04-11T15:50:36.124Z</time></trkpt><trkpt lat="44.2010317" lon="11.728455"><ele>130.0</ele><time>2026-04-11T15:50:37.125Z</time></trkpt><trkpt lat="44.2011217" lon="11.72861"><ele>128.0</ele><time>2026-04-11T15:50:38.124Z</time></trkpt><trkpt lat="44.2012233" lon="11.728735"><ele>126.0</ele><time>2026-04-11T15:50:39.124Z</time></trkpt><trkpt lat="44.2013417" lon="11.7288033"><ele>124.0</ele><time>2026-04-11T15:50:40.124Z</time></trkpt><trkpt lat="44.2014717" lon="11.7288417"><ele>125.0</ele><time>2026-04-11T15:50:41.124Z</time></trkpt><trkpt lat="44.201605" lon="11.728875"><ele>126.0</ele><time>2026-04-11T15:50:42.124Z</time></trkpt><trkpt lat="44.2017383" lon="11.7289117"><ele>127.0</ele><time>2026-04-11T15:50:43.123Z</time></trkpt><trkpt lat="44.2018767" lon="11.7289467"><ele>128.0</ele><time>2026-04-11T15:50:44.125Z</time></trkpt><trkpt lat="44.2020183" lon="11.72898"><ele>128.0</ele><time>2026-04-11T15:50:45.125Z</time></trkpt><trkpt lat="44.202155" lon="11.72901"><ele>128.0</ele><time>2026-04-11T15:50:46.124Z</time></trkpt><trkpt lat="44.202285" lon="11.729035"><ele>128.0</ele><time>2026-04-11T15:50:47.124Z</time></trkpt><trkpt lat="44.2024083" lon="11.7290633"><ele>128.0</ele><time>2026-04-11T15:50:48.124Z</time></trkpt><trkpt lat="44.202525" lon="11.7290917"><ele>128.20000000000002</ele><time>2026-04-11T15:50:49.125Z</time></trkpt><trkpt lat="44.202635" lon="11.7291167"><ele>128.4</ele><time>2026-04-11T15:50:50.125Z</time></trkpt><trkpt lat="44.20274" lon="11.7291367"><ele>128.60000000000002</ele><time>2026-04-11T15:50:51.124Z</time></trkpt><trkpt lat="44.20284" lon="11.7291683"><ele>128.8</ele><time>2026-04-11T15:50:52.124Z</time></trkpt><trkpt lat="44.202935" lon="11.729215"><ele>129.0</ele><time>2026-04-11T15:50:53.124Z</time></trkpt><trkpt lat="44.2030133" lon="11.7292817"><ele>129.0</ele><time>2026-04-11T15:50:54.124Z</time></trkpt><trkpt lat="44.2030783" lon="11.7293717"><ele>129.0</ele><time>2026-04-11T15:50:55.123Z</time></trkpt><trkpt lat="44.2031233" lon="11.7294867"><ele>129.0</ele><time>2026-04-11T15:50:56.124Z</time></trkpt><trkpt lat="44.2031667" lon="11.7296033"><ele>129.0</ele><time>2026-04-11T15:50:57.125Z</time></trkpt><trkpt lat="44.20321" lon="11.7297167"><ele>129.0</ele><time>2026-04-11T15:50:58.124Z</time></trkpt><trkpt lat="44.2032533" lon="11.7298367"><ele>129.0</ele><time>2026-04-11T15:50:59.124Z</time></trkpt><trkpt lat="44.2033017" lon="11.7299683"><ele>129.0</ele><time>2026-04-11T15:51:00.123Z</time></trkpt><trkpt lat="44.20335" lon="11.7301083"><ele>129.0</ele><time>2026-04-11T15:51:01.124Z</time></trkpt><trkpt lat="44.2033983" lon="11.7302567"><ele>129.0</ele><time>2026-04-11T15:51:02.125Z</time></trkpt><trkpt lat="44.2034567" lon="11.7304033"><ele>129.0</ele><time>2026-04-11T15:51:03.124Z</time></trkpt><trkpt lat="44.203525" lon="11.7305433"><ele>129.0</ele><time>2026-04-11T15:51:04.124Z</time></trkpt><trkpt lat="44.2035933" lon="11.7306683"><ele>129.0</ele><time>2026-04-11T15:51:05.124Z</time></trkpt><trkpt lat="44.2036667" lon="11.7307833"><ele>129.0</ele><time>2026-04-11T15:51:06.125Z</time></trkpt><trkpt lat="44.2037383" lon="11.7308883"><ele>129.0</ele><time>2026-04-11T15:51:07.124Z</time></trkpt><trkpt lat="44.2037967" lon="11.7309983"><ele>128.33333333333334</ele><time>2026-04-11T15:51:08.124Z</time></trkpt><trkpt lat="44.2038383" lon="11.7311083"><ele>127.66666666666666</ele><time>2026-04-11T15:51:09.125Z</time></trkpt><trkpt lat="44.2038633" lon="11.73122"><ele>127.0</ele><time>2026-04-11T15:51:10.124Z</time></trkpt><trkpt lat="44.2038583" lon="11.7313283"><ele>126.33333333333333</ele><time>2026-04-11T15:51:11.123Z</time></trkpt><trkpt lat="44.203835" lon="11.7314167"><ele>125.66666666666666</ele><time>2026-04-11T15:51:12.124Z</time></trkpt><trkpt lat="44.2037967" lon="11.73151"><ele>125.0</ele><time>2026-04-11T15:51:13.124Z</time></trkpt><trkpt lat="44.20374" lon="11.7316133"><ele>124.99999999999999</ele><time>2026-04-11T15:51:14.124Z</time></trkpt><trkpt lat="44.2036767" lon="11.7317183"><ele>125.0</ele><time>2026-04-11T15:51:15.126Z</time></trkpt><trkpt lat="44.2036183" lon="11.7318167"><ele>125.0</ele><time>2026-04-11T15:51:16.124Z</time></trkpt><trkpt lat="44.2035817" lon="11.7319117"><ele>125.0</ele><time>2026-04-11T15:51:17.124Z</time></trkpt><trkpt lat="44.2035717" lon="11.7320017"><ele>124.99999999999999</ele><time>2026-04-11T15:51:18.125Z</time></trkpt><trkpt lat="44.2036083" lon="11.73213"><ele>125.0</ele><time>2026-04-11T15:51:20.124Z</time></trkpt><trkpt lat="44.2036783" lon="11.732265"><ele>124.6</ele><time>2026-04-11T15:51:22.124Z</time></trkpt><trkpt lat="44.20374" lon="11.73234"><ele>124.2</ele><time>2026-04-11T15:51:23.124Z</time></trkpt><trkpt lat="44.2038233" lon="11.7324283"><ele>123.80000000000001</ele><time>2026-04-11T15:51:24.124Z</time></trkpt><trkpt lat="44.2039033" lon="11.7325233"><ele>123.4</ele><time>2026-04-11T15:51:25.124Z</time></trkpt><trkpt lat="44.2039733" lon="11.732615"><ele>123.0</ele><time>2026-04-11T15:51:26.124Z</time></trkpt><trkpt lat="44.2040467" lon="11.732705"><ele>123.5</ele><time>2026-04-11T15:51:27.125Z</time></trkpt><trkpt lat="44.2041233" lon="11.7327833"><ele>124.0</ele><time>2026-04-11T15:51:28.124Z</time></trkpt><trkpt lat="44.20419" lon="11.7328567"><ele>124.5</ele><time>2026-04-11T15:51:29.125Z</time></trkpt><trkpt lat="44.2042467" lon="11.73293"><ele>125.0</ele><time>2026-04-11T15:51:30.123Z</time></trkpt><trkpt lat="44.2042933" lon="11.7330017"><ele>125.5</ele><time>2026-04-11T15:51:31.123Z</time></trkpt><trkpt lat="44.2043467" lon="11.7330667"><ele>126.0</ele><time>2026-04-11T15:51:32.124Z</time></trkpt><trkpt lat="44.2044083" lon="11.7331217"><ele>126.0</ele><time>2026-04-11T15:51:33.125Z</time></trkpt><trkpt lat="44.2044767" lon="11.73317"><ele>126.0</ele><time>2026-04-11T15:51:34.124Z</time></trkpt><trkpt lat="44.2045517" lon="11.7332233"><ele>126.0</ele><time>2026-04-11T15:51:35.124Z</time></trkpt><trkpt lat="44.204625" lon="11.7332867"><ele>126.0</ele><time>2026-04-11T15:51:36.125Z</time></trkpt><trkpt lat="44.2047017" lon="11.7333233"><ele>126.0</ele><time>2026-04-11T15:51:37.124Z</time></trkpt><trkpt lat="44.2047717" lon="11.733355"><ele>126.0</ele><time>2026-04-11T15:51:38.124Z</time></trkpt><trkpt lat="44.2048417" lon="11.733395"><ele>125.0</ele><time>2026-04-11T15:51:39.124Z</time></trkpt><trkpt lat="44.2049133" lon="11.7334333"><ele>124.0</ele><time>2026-04-11T15:51:40.124Z</time></trkpt><trkpt lat="44.20499" lon="11.7334917"><ele>123.0</ele><time>2026-04-11T15:51:41.124Z</time></trkpt><trkpt lat="44.2050567" lon="11.73356"><ele>122.0</ele><time>2026-04-11T15:51:42.124Z</time></trkpt><trkpt lat="44.2051233" lon="11.733635"><ele>121.0</ele><time>2026-04-11T15:51:43.124Z</time></trkpt><trkpt lat="44.20519" lon="11.7337383"><ele>120.0</ele><time>2026-04-11T15:51:44.123Z</time></trkpt><trkpt lat="44.2052633" lon="11.7338383"><ele>120.0</ele><time>2026-04-11T15:51:45.124Z</time></trkpt><trkpt lat="44.2053367" lon="11.7339383"><ele>120.0</ele><time>2026-04-11T15:51:46.124Z</time></trkpt><trkpt lat="44.20539" lon="11.7340483"><ele>120.0</ele><time>2026-04-11T15:51:47.124Z</time></trkpt><trkpt lat="44.2054167" lon="11.7341817"><ele>120.0</ele><time>2026-04-11T15:51:48.124Z</time></trkpt><trkpt lat="44.2054433" lon="11.73434"><ele>120.0</ele><time>2026-04-11T15:51:49.124Z</time></trkpt><trkpt lat="44.205475" lon="11.7345083"><ele>119.5</ele><time>2026-04-11T15:51:50.124Z</time></trkpt><trkpt lat="44.205495" lon="11.7346867"><ele>119.0</ele><time>2026-04-11T15:51:51.124Z</time></trkpt><trkpt lat="44.205495" lon="11.7348717"><ele>118.5</ele><time>2026-04-11T15:51:52.125Z</time></trkpt><trkpt lat="44.2054767" lon="11.7350617"><ele>118.0</ele><time>2026-04-11T15:51:53.125Z</time></trkpt><trkpt lat="44.20544" lon="11.7352483"><ele>118.0</ele><time>2026-04-11T15:51:54.125Z</time></trkpt><trkpt lat="44.2053883" lon="11.7354317"><ele>118.0</ele><time>2026-04-11T15:51:55.125Z</time></trkpt><trkpt lat="44.2053233" lon="11.7356217"><ele>118.0</ele><time>2026-04-11T15:51:56.126Z</time></trkpt><trkpt lat="44.2052583" lon="11.7358133"><ele>118.0</ele><time>2026-04-11T15:51:57.124Z</time></trkpt><trkpt lat="44.2051933" lon="11.736005"><ele>119.0</ele><time>2026-04-11T15:51:58.125Z</time></trkpt><trkpt lat="44.205135" lon="11.7361867"><ele>120.0</ele><time>2026-04-11T15:51:59.125Z</time></trkpt><trkpt lat="44.2050983" lon="11.736365"><ele>121.0</ele><time>2026-04-11T15:52:00.124Z</time></trkpt><trkpt lat="44.2050783" lon="11.7365483"><ele>122.0</ele><time>2026-04-11T15:52:01.125Z</time></trkpt><trkpt lat="44.20507" lon="11.7367417"><ele>123.5</ele><time>2026-04-11T15:52:02.125Z</time></trkpt><trkpt lat="44.2050667" lon="11.736945"><ele>125.0</ele><time>2026-04-11T15:52:03.124Z</time></trkpt><trkpt lat="44.2050717" lon="11.737135"><ele>126.5</ele><time>2026-04-11T15:52:04.127Z</time></trkpt><trkpt lat="44.2050867" lon="11.737315"><ele>128.0</ele><time>2026-04-11T15:52:05.126Z</time></trkpt><trkpt lat="44.2051083" lon="11.737495"><ele>128.0</ele><time>2026-04-11T15:52:06.124Z</time></trkpt><trkpt lat="44.2051233" lon="11.737675"><ele>128.0</ele><time>2026-04-11T15:52:07.126Z</time></trkpt><trkpt lat="44.2051383" lon="11.7378617"><ele>128.0</ele><time>2026-04-11T15:52:08.123Z</time></trkpt><trkpt lat="44.2051533" lon="11.7380567"><ele>128.0</ele><time>2026-04-11T15:52:09.125Z</time></trkpt><trkpt lat="44.20517" lon="11.7382533"><ele>128.0</ele><time>2026-04-11T15:52:10.124Z</time></trkpt><trkpt lat="44.2051867" lon="11.7384517"><ele>128.0</ele><time>2026-04-11T15:52:11.125Z</time></trkpt><trkpt lat="44.2051983" lon="11.7386533"><ele>128.0</ele><time>2026-04-11T15:52:12.123Z</time></trkpt><trkpt lat="44.2052117" lon="11.7388533"><ele>128.0</ele><time>2026-04-11T15:52:13.124Z</time></trkpt><trkpt lat="44.2052367" lon="11.739055"><ele>127.33333333333333</ele><time>2026-04-11T15:52:14.124Z</time></trkpt><trkpt lat="44.205265" lon="11.7392633"><ele>126.66666666666666</ele><time>2026-04-11T15:52:15.124Z</time></trkpt><trkpt lat="44.2053017" lon="11.739475"><ele>126.0</ele><time>2026-04-11T15:52:16.124Z</time></trkpt><trkpt lat="44.2053433" lon="11.739685"><ele>125.66666666666666</ele><time>2026-04-11T15:52:17.123Z</time></trkpt><trkpt lat="44.2054" lon="11.7398917"><ele>125.33333333333333</ele><time>2026-04-11T15:52:18.124Z</time></trkpt><trkpt lat="44.20546" lon="11.7400983"><ele>125.0</ele><time>2026-04-11T15:52:19.124Z</time></trkpt><trkpt lat="44.205525" lon="11.7403033"><ele>124.66666666666666</ele><time>2026-04-11T15:52:20.124Z</time></trkpt><trkpt lat="44.2055933" lon="11.74051"><ele>124.33333333333334</ele><time>2026-04-11T15:52:21.127Z</time></trkpt><trkpt lat="44.2056633" lon="11.7407167"><ele>124.0</ele><time>2026-04-11T15:52:22.124Z</time></trkpt><trkpt lat="44.2057367" lon="11.740925"><ele>124.0</ele><time>2026-04-11T15:52:23.126Z</time></trkpt><trkpt lat="44.2058117" lon="11.7411383"><ele>124.0</ele><time>2026-04-11T15:52:24.125Z</time></trkpt><trkpt lat="44.2058883" lon="11.7413517"><ele>124.0</ele><time>2026-04-11T15:52:25.125Z</time></trkpt><trkpt lat="44.205965" lon="11.7415617"><ele>124.0</ele><time>2026-04-11T15:52:26.125Z</time></trkpt><trkpt lat="44.2060417" lon="11.7417767"><ele>124.0</ele><time>2026-04-11T15:52:27.125Z</time></trkpt><trkpt lat="44.20612" lon="11.7419967"><ele>124.0</ele><time>2026-04-11T15:52:28.124Z</time></trkpt><trkpt lat="44.2062017" lon="11.7422183"><ele>124.0</ele><time>2026-04-11T15:52:29.125Z</time></trkpt><trkpt lat="44.2062883" lon="11.742445"><ele>124.0</ele><time>2026-04-11T15:52:30.124Z</time></trkpt><trkpt lat="44.206375" lon="11.7426817"><ele>124.0</ele><time>2026-04-11T15:52:31.123Z</time></trkpt><trkpt lat="44.2064633" lon="11.7429217"><ele>124.33333333333334</ele><time>2026-04-11T15:52:32.124Z</time></trkpt><trkpt lat="44.206555" lon="11.743165"><ele>124.66666666666666</ele><time>2026-04-11T15:52:33.123Z</time></trkpt><trkpt lat="44.206645" lon="11.74341"><ele>125.0</ele><time>2026-04-11T15:52:34.123Z</time></trkpt><trkpt lat="44.2067317" lon="11.74365"><ele>124.0</ele><time>2026-04-11T15:52:35.124Z</time></trkpt><trkpt lat="44.20681" lon="11.7438783"><ele>123.0</ele><time>2026-04-11T15:52:36.124Z</time></trkpt><trkpt lat="44.2068867" lon="11.7440917"><ele>122.0</ele><time>2026-04-11T15:52:37.125Z</time></trkpt><trkpt lat="44.2069633" lon="11.7443"><ele>122.66666666666666</ele><time>2026-04-11T15:52:38.124Z</time></trkpt><trkpt lat="44.2070483" lon="11.744515"><ele>123.33333333333334</ele><time>2026-04-11T15:52:39.124Z</time></trkpt><trkpt lat="44.2071383" lon="11.7447283"><ele>124.0</ele><time>2026-04-11T15:52:40.124Z</time></trkpt><trkpt lat="44.2072283" lon="11.7449483"><ele>124.0</ele><time>2026-04-11T15:52:41.124Z</time></trkpt><trkpt lat="44.20732" lon="11.7451683"><ele>124.0</ele><time>2026-04-11T15:52:42.124Z</time></trkpt><trkpt lat="44.2074133" lon="11.7453917"><ele>124.0</ele><time>2026-04-11T15:52:43.124Z</time></trkpt><trkpt lat="44.2075083" lon="11.745615"><ele>124.33333333333334</ele><time>2026-04-11T15:52:44.124Z</time></trkpt><trkpt lat="44.2076117" lon="11.7458267"><ele>124.66666666666666</ele><time>2026-04-11T15:52:45.124Z</time></trkpt><trkpt lat="44.2077283" lon="11.74602"><ele>125.0</ele><time>2026-04-11T15:52:46.125Z</time></trkpt><trkpt lat="44.207855" lon="11.7462067"><ele>124.33333333333333</ele><time>2026-04-11T15:52:47.126Z</time></trkpt><trkpt lat="44.20799" lon="11.7463883"><ele>123.66666666666666</ele><time>2026-04-11T15:52:48.125Z</time></trkpt><trkpt lat="44.20813" lon="11.7465683"><ele>123.0</ele><time>2026-04-11T15:52:49.125Z</time></trkpt><trkpt lat="44.2082683" lon="11.7467433"><ele>122.0</ele><time>2026-04-11T15:52:50.124Z</time></trkpt><trkpt lat="44.2083983" lon="11.74691"><ele>121.0</ele><time>2026-04-11T15:52:51.124Z</time></trkpt><trkpt lat="44.208525" lon="11.747075"><ele>120.0</ele><time>2026-04-11T15:52:52.124Z</time></trkpt><trkpt lat="44.20865" lon="11.747245"><ele>120.0</ele><time>2026-04-11T15:52:53.124Z</time></trkpt><trkpt lat="44.2087733" lon="11.7474183"><ele>120.0</ele><time>2026-04-11T15:52:54.124Z</time></trkpt><trkpt lat="44.2088917" lon="11.7476017"><ele>120.0</ele><time>2026-04-11T15:52:55.124Z</time></trkpt><trkpt lat="44.209005" lon="11.7477933"><ele>120.0</ele><time>2026-04-11T15:52:56.125Z</time></trkpt><trkpt lat="44.2091217" lon="11.7479867"><ele>120.0</ele><time>2026-04-11T15:52:57.125Z</time></trkpt><trkpt lat="44.2092433" lon="11.7481833"><ele>120.0</ele><time>2026-04-11T15:52:58.124Z</time></trkpt><trkpt lat="44.2093733" lon="11.7483833"><ele>120.0</ele><time>2026-04-11T15:52:59.124Z</time></trkpt><trkpt lat="44.209505" lon="11.7485883"><ele>120.0</ele><time>2026-04-11T15:53:00.125Z</time></trkpt><trkpt lat="44.2096417" lon="11.7487933"><ele>120.0</ele><time>2026-04-11T15:53:01.123Z</time></trkpt><trkpt lat="44.20978" lon="11.7490017"><ele>119.66666666666666</ele><time>2026-04-11T15:53:02.124Z</time></trkpt><trkpt lat="44.2099167" lon="11.749205"><ele>119.33333333333333</ele><time>2026-04-11T15:53:03.125Z</time></trkpt><trkpt lat="44.2100483" lon="11.7493967"><ele>119.0</ele><time>2026-04-11T15:53:04.124Z</time></trkpt><trkpt lat="44.2101733" lon="11.7495767"><ele>119.0</ele><time>2026-04-11T15:53:05.123Z</time></trkpt><trkpt lat="44.2102933" lon="11.749735"><ele>119.0</ele><time>2026-04-11T15:53:06.124Z</time></trkpt><trkpt lat="44.210415" lon="11.7498617"><ele>119.0</ele><time>2026-04-11T15:53:07.124Z</time></trkpt><trkpt lat="44.2105383" lon="11.7499667"><ele>117.5</ele><time>2026-04-11T15:53:08.125Z</time></trkpt><trkpt lat="44.21066" lon="11.7500467"><ele>116.0</ele><time>2026-04-11T15:53:09.124Z</time></trkpt><trkpt lat="44.2107733" lon="11.7501083"><ele>114.5</ele><time>2026-04-11T15:53:10.124Z</time></trkpt><trkpt lat="44.21089" lon="11.7501533"><ele>113.0</ele><time>2026-04-11T15:53:11.125Z</time></trkpt><trkpt lat="44.211025" lon="11.7501917"><ele>108.66666666666666</ele><time>2026-04-11T15:53:12.125Z</time></trkpt><trkpt lat="44.2111783" lon="11.7502233"><ele>104.33333333333334</ele><time>2026-04-11T15:53:13.124Z</time></trkpt><trkpt lat="44.21135" lon="11.7502517"><ele>100.0</ele><time>2026-04-11T15:53:14.122Z</time></trkpt><trkpt lat="44.2115417" lon="11.7502717"><ele>100.0</ele><time>2026-04-11T15:53:15.124Z</time></trkpt><trkpt lat="44.211735" lon="11.75029"><ele>100.0</ele><time>2026-04-11T15:53:16.124Z</time></trkpt><trkpt lat="44.2119117" lon="11.7503117"><ele>100.0</ele><time>2026-04-11T15:53:17.124Z</time></trkpt><trkpt lat="44.2120833" lon="11.75034"><ele>100.0</ele><time>2026-04-11T15:53:18.124Z</time></trkpt><trkpt lat="44.2122483" lon="11.7503617"><ele>100.0</ele><time>2026-04-11T15:53:19.124Z</time></trkpt><trkpt lat="44.2124017" lon="11.75038"><ele>100.0</ele><time>2026-04-11T15:53:20.123Z</time></trkpt><trkpt lat="44.212535" lon="11.7503917"><ele>101.8</ele><time>2026-04-11T15:53:21.124Z</time></trkpt><trkpt lat="44.21265" lon="11.7504033"><ele>103.6</ele><time>2026-04-11T15:53:22.125Z</time></trkpt><trkpt lat="44.2127583" lon="11.7504117"><ele>105.4</ele><time>2026-04-11T15:53:23.126Z</time></trkpt><trkpt lat="44.2128617" lon="11.7504233"><ele>107.2</ele><time>2026-04-11T15:53:24.124Z</time></trkpt><trkpt lat="44.21297" lon="11.75046"><ele>109.0</ele><time>2026-04-11T15:53:25.124Z</time></trkpt><trkpt lat="44.2130817" lon="11.7505267"><ele>110.75</ele><time>2026-04-11T15:53:26.124Z</time></trkpt><trkpt lat="44.2131967" lon="11.7506267"><ele>112.5</ele><time>2026-04-11T15:53:27.124Z</time></trkpt><trkpt lat="44.2133067" lon="11.7507417"><ele>114.25</ele><time>2026-04-11T15:53:28.124Z</time></trkpt><trkpt lat="44.213425" lon="11.7508567"><ele>116.0</ele><time>2026-04-11T15:53:29.124Z</time></trkpt><trkpt lat="44.2135433" lon="11.75097"><ele>114.66666666666666</ele><time>2026-04-11T15:53:30.123Z</time></trkpt><trkpt lat="44.213665" lon="11.7510917"><ele>113.33333333333334</ele><time>2026-04-11T15:53:31.124Z</time></trkpt><trkpt lat="44.2138" lon="11.75123"><ele>112.0</ele><time>2026-04-11T15:53:32.124Z</time></trkpt><trkpt lat="44.213945" lon="11.7513817"><ele>113.66666666666667</ele><time>2026-04-11T15:53:33.123Z</time></trkpt><trkpt lat="44.21409" lon="11.7515283"><ele>115.33333333333334</ele><time>2026-04-11T15:53:34.124Z</time></trkpt><trkpt lat="44.21423" lon="11.75167"><ele>117.0</ele><time>2026-04-11T15:53:35.124Z</time></trkpt><trkpt lat="44.21436" lon="11.7518"><ele>116.0</ele><time>2026-04-11T15:53:36.123Z</time></trkpt><trkpt lat="44.21448" lon="11.75192"><ele>115.0</ele><time>2026-04-11T15:53:37.125Z</time></trkpt><trkpt lat="44.21459" lon="11.7520317"><ele>114.0</ele><time>2026-04-11T15:53:38.122Z</time></trkpt><trkpt lat="44.2146933" lon="11.7521367"><ele>113.0</ele><time>2026-04-11T15:53:39.124Z</time></trkpt><trkpt lat="44.214795" lon="11.7522383"><ele>114.25</ele><time>2026-04-11T15:53:40.124Z</time></trkpt><trkpt lat="44.2148933" lon="11.7523383"><ele>115.5</ele><time>2026-04-11T15:53:41.124Z</time></trkpt><trkpt lat="44.2149917" lon="11.7524417"><ele>116.75</ele><time>2026-04-11T15:53:42.125Z</time></trkpt><trkpt lat="44.2151067" lon="11.7525567"><ele>118.0</ele><time>2026-04-11T15:53:43.124Z</time></trkpt><trkpt lat="44.2152433" lon="11.7526983"><ele>118.0</ele><time>2026-04-11T15:53:44.124Z</time></trkpt><trkpt lat="44.2153883" lon="11.7528667"><ele>118.0</ele><time>2026-04-11T15:53:45.125Z</time></trkpt><trkpt lat="44.2155367" lon="11.7530383"><ele>118.0</ele><time>2026-04-11T15:53:46.124Z</time></trkpt><trkpt lat="44.21568" lon="11.753195"><ele>118.0</ele><time>2026-04-11T15:53:47.123Z</time></trkpt><trkpt lat="44.21581" lon="11.75335"><ele>118.0</ele><time>2026-04-11T15:53:48.124Z</time></trkpt><trkpt lat="44.2159183" lon="11.753515"><ele>118.0</ele><time>2026-04-11T15:53:49.124Z</time></trkpt><trkpt lat="44.2160017" lon="11.7537017"><ele>117.33333333333334</ele><time>2026-04-11T15:53:50.124Z</time></trkpt><trkpt lat="44.2160717" lon="11.7539167"><ele>116.66666666666666</ele><time>2026-04-11T15:53:51.123Z</time></trkpt><trkpt lat="44.2161367" lon="11.7541283"><ele>116.0</ele><time>2026-04-11T15:53:52.124Z</time></trkpt><trkpt lat="44.2161983" lon="11.75433"><ele>115.5</ele><time>2026-04-11T15:53:53.124Z</time></trkpt><trkpt lat="44.216255" lon="11.7545217"><ele>115.0</ele><time>2026-04-11T15:53:54.124Z</time></trkpt><trkpt lat="44.21631" lon="11.7547033"><ele>114.5</ele><time>2026-04-11T15:53:55.124Z</time></trkpt><trkpt lat="44.2163633" lon="11.75488"><ele>114.0</ele><time>2026-04-11T15:53:56.123Z</time></trkpt><trkpt lat="44.2164083" lon="11.7550633"><ele>114.25</ele><time>2026-04-11T15:53:57.125Z</time></trkpt><trkpt lat="44.2164433" lon="11.7552583"><ele>114.5</ele><time>2026-04-11T15:53:58.124Z</time></trkpt><trkpt lat="44.2164767" lon="11.75546"><ele>114.75</ele><time>2026-04-11T15:53:59.124Z</time></trkpt><trkpt lat="44.21651" lon="11.75567"><ele>115.0</ele><time>2026-04-11T15:54:00.125Z</time></trkpt><trkpt lat="44.2165433" lon="11.7558817"><ele>114.66666666666667</ele><time>2026-04-11T15:54:01.123Z</time></trkpt><trkpt lat="44.21658" lon="11.7560967"><ele>114.33333333333334</ele><time>2026-04-11T15:54:02.125Z</time></trkpt><trkpt lat="44.2166233" lon="11.7563183"><ele>114.0</ele><time>2026-04-11T15:54:03.124Z</time></trkpt><trkpt lat="44.21668" lon="11.756545"><ele>114.0</ele><time>2026-04-11T15:54:04.124Z</time></trkpt><trkpt lat="44.2167467" lon="11.7567667"><ele>114.0</ele><time>2026-04-11T15:54:05.124Z</time></trkpt><trkpt lat="44.21682" lon="11.75699"><ele>114.0</ele><time>2026-04-11T15:54:06.124Z</time></trkpt><trkpt lat="44.216895" lon="11.757235"><ele>113.0</ele><time>2026-04-11T15:54:07.123Z</time></trkpt><trkpt lat="44.2169717" lon="11.757485"><ele>112.0</ele><time>2026-04-11T15:54:08.124Z</time></trkpt><trkpt lat="44.217045" lon="11.757745"><ele>111.0</ele><time>2026-04-11T15:54:09.125Z</time></trkpt><trkpt lat="44.21712" lon="11.757995"><ele>110.66666666666666</ele><time>2026-04-11T15:54:10.124Z</time></trkpt><trkpt lat="44.2171917" lon="11.7582317"><ele>110.33333333333333</ele><time>2026-04-11T15:54:11.124Z</time></trkpt><trkpt lat="44.217265" lon="11.7584583"><ele>110.0</ele><time>2026-04-11T15:54:12.124Z</time></trkpt><trkpt lat="44.21734" lon="11.7586933"><ele>110.0</ele><time>2026-04-11T15:54:13.123Z</time></trkpt><trkpt lat="44.2174117" lon="11.758935"><ele>110.0</ele><time>2026-04-11T15:54:14.124Z</time></trkpt><trkpt lat="44.2174783" lon="11.759185"><ele>110.0</ele><time>2026-04-11T15:54:15.125Z</time></trkpt><trkpt lat="44.2175417" lon="11.7594367"><ele>110.33333333333333</ele><time>2026-04-11T15:54:16.124Z</time></trkpt><trkpt lat="44.2175967" lon="11.75969"><ele>110.66666666666666</ele><time>2026-04-11T15:54:17.124Z</time></trkpt><trkpt lat="44.217655" lon="11.7599283"><ele>111.0</ele><time>2026-04-11T15:54:18.123Z</time></trkpt><trkpt lat="44.217715" lon="11.7601467"><ele>111.33333333333334</ele><time>2026-04-11T15:54:19.124Z</time></trkpt><trkpt lat="44.217785" lon="11.7603483"><ele>111.66666666666667</ele><time>2026-04-11T15:54:20.124Z</time></trkpt><trkpt lat="44.2178683" lon="11.7605433"><ele>112.0</ele><time>2026-04-11T15:54:21.124Z</time></trkpt><trkpt lat="44.2179633" lon="11.7607283"><ele>112.0</ele><time>2026-04-11T15:54:22.124Z</time></trkpt><trkpt lat="44.21808" lon="11.76089"><ele>112.0</ele><time>2026-04-11T15:54:23.122Z</time></trkpt><trkpt lat="44.218215" lon="11.7610267"><ele>112.0</ele><time>2026-04-11T15:54:24.124Z</time></trkpt><trkpt lat="44.218355" lon="11.7611567"><ele>111.66666666666667</ele><time>2026-04-11T15:54:25.123Z</time></trkpt><trkpt lat="44.2184883" lon="11.7612867"><ele>111.33333333333334</ele><time>2026-04-11T15:54:26.124Z</time></trkpt><trkpt lat="44.2186083" lon="11.7614167"><ele>111.0</ele><time>2026-04-11T15:54:27.124Z</time></trkpt><trkpt lat="44.2187133" lon="11.7615483"><ele>111.0</ele><time>2026-04-11T15:54:28.123Z</time></trkpt><trkpt lat="44.218815" lon="11.7616867"><ele>111.0</ele><time>2026-04-11T15:54:29.124Z</time></trkpt><trkpt lat="44.2189133" lon="11.7618333"><ele>111.0</ele><time>2026-04-11T15:54:30.123Z</time></trkpt><trkpt lat="44.2190083" lon="11.76199"><ele>111.0</ele><time>2026-04-11T15:54:31.124Z</time></trkpt><trkpt lat="44.2191033" lon="11.76215"><ele>112.25</ele><time>2026-04-11T15:54:32.124Z</time></trkpt><trkpt lat="44.2192033" lon="11.7623217"><ele>113.5</ele><time>2026-04-11T15:54:33.124Z</time></trkpt><trkpt lat="44.2192967" lon="11.7624833"><ele>114.75</ele><time>2026-04-11T15:54:34.124Z</time></trkpt><trkpt lat="44.2193817" lon="11.76264"><ele>116.0</ele><time>2026-04-11T15:54:35.124Z</time></trkpt><trkpt lat="44.2194683" lon="11.7627933"><ele>116.0</ele><time>2026-04-11T15:54:36.125Z</time></trkpt><trkpt lat="44.2195567" lon="11.7629517"><ele>116.0</ele><time>2026-04-11T15:54:37.124Z</time></trkpt><trkpt lat="44.2196433" lon="11.76311"><ele>116.0</ele><time>2026-04-11T15:54:38.125Z</time></trkpt><trkpt lat="44.2197317" lon="11.7632767"><ele>116.0</ele><time>2026-04-11T15:54:39.124Z</time></trkpt><trkpt lat="44.21982" lon="11.7634483"><ele>116.33333333333333</ele><time>2026-04-11T15:54:40.124Z</time></trkpt><trkpt lat="44.21991" lon="11.763625"><ele>116.66666666666666</ele><time>2026-04-11T15:54:41.123Z</time></trkpt><trkpt lat="44.22" lon="11.7638067"><ele>117.0</ele><time>2026-04-11T15:54:42.123Z</time></trkpt><trkpt lat="44.2200883" lon="11.7639967"><ele>117.0</ele><time>2026-04-11T15:54:43.124Z</time></trkpt><trkpt lat="44.2201767" lon="11.7641967"><ele>117.0</ele><time>2026-04-11T15:54:44.124Z</time></trkpt><trkpt lat="44.2202633" lon="11.7644033"><ele>117.0</ele><time>2026-04-11T15:54:45.124Z</time></trkpt><trkpt lat="44.2203433" lon="11.7646133"><ele>116.33333333333334</ele><time>2026-04-11T15:54:46.124Z</time></trkpt><trkpt lat="44.2204233" lon="11.7648183"><ele>115.66666666666667</ele><time>2026-04-11T15:54:47.124Z</time></trkpt><trkpt lat="44.2205067" lon="11.7650183"><ele>115.0</ele><time>2026-04-11T15:54:48.125Z</time></trkpt><trkpt lat="44.2205883" lon="11.7652133"><ele>114.66666666666667</ele><time>2026-04-11T15:54:49.124Z</time></trkpt><trkpt lat="44.2206717" lon="11.7654067"><ele>114.33333333333334</ele><time>2026-04-11T15:54:50.124Z</time></trkpt><trkpt lat="44.220755" lon="11.7656033"><ele>114.0</ele><time>2026-04-11T15:54:51.127Z</time></trkpt><trkpt lat="44.2208417" lon="11.7658"><ele>114.0</ele><time>2026-04-11T15:54:52.126Z</time></trkpt><trkpt lat="44.2209333" lon="11.765995"><ele>114.0</ele><time>2026-04-11T15:54:53.126Z</time></trkpt><trkpt lat="44.2210217" lon="11.7661833"><ele>114.0</ele><time>2026-04-11T15:54:54.126Z</time></trkpt><trkpt lat="44.2211033" lon="11.7663617"><ele>113.5</ele><time>2026-04-11T15:54:55.126Z</time></trkpt><trkpt lat="44.2211833" lon="11.76653"><ele>113.0</ele><time>2026-04-11T15:54:56.123Z</time></trkpt><trkpt lat="44.2212533" lon="11.7667017"><ele>112.5</ele><time>2026-04-11T15:54:57.124Z</time></trkpt><trkpt lat="44.2213017" lon="11.7668717"><ele>112.0</ele><time>2026-04-11T15:54:58.124Z</time></trkpt><trkpt lat="44.2213267" lon="11.76706"><ele>111.66666666666667</ele><time>2026-04-11T15:54:59.124Z</time></trkpt><trkpt lat="44.22135" lon="11.76726"><ele>111.33333333333334</ele><time>2026-04-11T15:55:00.123Z</time></trkpt><trkpt lat="44.22137" lon="11.76747"><ele>111.0</ele><time>2026-04-11T15:55:01.124Z</time></trkpt><trkpt lat="44.2213917" lon="11.7676833"><ele>110.75</ele><time>2026-04-11T15:55:02.124Z</time></trkpt><trkpt lat="44.2214183" lon="11.7678967"><ele>110.5</ele><time>2026-04-11T15:55:03.124Z</time></trkpt><trkpt lat="44.2214467" lon="11.768095"><ele>110.25</ele><time>2026-04-11T15:55:04.123Z</time></trkpt><trkpt lat="44.22148" lon="11.7682667"><ele>110.0</ele><time>2026-04-11T15:55:05.124Z</time></trkpt><trkpt lat="44.221515" lon="11.7684067"><ele>109.99999999999999</ele><time>2026-04-11T15:55:06.124Z</time></trkpt><trkpt lat="44.2215483" lon="11.7685217"><ele>110.0</ele><time>2026-04-11T15:55:07.124Z</time></trkpt><trkpt lat="44.22158" lon="11.7686217"><ele>110.0</ele><time>2026-04-11T15:55:08.124Z</time></trkpt><trkpt lat="44.22161" lon="11.7687133"><ele>110.0</ele><time>2026-04-11T15:55:09.124Z</time></trkpt><trkpt lat="44.2216367" lon="11.7687983"><ele>109.99999999999999</ele><time>2026-04-11T15:55:10.124Z</time></trkpt><trkpt lat="44.22166" lon="11.768975"><ele>110.0</ele><time>2026-04-11T15:55:12.124Z</time></trkpt><trkpt lat="44.2216383" lon="11.7690583"><ele>109.83333333333333</ele><time>2026-04-11T15:55:13.123Z</time></trkpt><trkpt lat="44.2215817" lon="11.7691933"><ele>109.66666666666666</ele><time>2026-04-11T15:55:15.124Z</time></trkpt><trkpt lat="44.2214983" lon="11.76929"><ele>109.5</ele><time>2026-04-11T15:55:17.124Z</time></trkpt><trkpt lat="44.221435" lon="11.7693283"><ele>109.33333333333334</ele><time>2026-04-11T15:55:18.123Z</time></trkpt><trkpt lat="44.2213683" lon="11.7693667"><ele>109.16666666666667</ele><time>2026-04-11T15:55:19.124Z</time></trkpt><trkpt lat="44.2212967" lon="11.769405"><ele>109.0</ele><time>2026-04-11T15:55:20.123Z</time></trkpt><trkpt lat="44.2212283" lon="11.769445"><ele>109.00000000000001</ele><time>2026-04-11T15:55:21.124Z</time></trkpt><trkpt lat="44.2211583" lon="11.769495"><ele>109.0</ele><time>2026-04-11T15:55:22.124Z</time></trkpt><trkpt lat="44.2210967" lon="11.769545"><ele>109.0</ele><time>2026-04-11T15:55:23.124Z</time></trkpt><trkpt lat="44.2210583" lon="11.7696183"><ele>109.0</ele><time>2026-04-11T15:55:24.123Z</time></trkpt><trkpt lat="44.2210283" lon="11.7697867"><ele>109.00000000000001</ele><time>2026-04-11T15:55:26.122Z</time></trkpt><trkpt lat="44.2210333" lon="11.7698817"><ele>109.0</ele><time>2026-04-11T15:55:27.124Z</time></trkpt><trkpt lat="44.2210467" lon="11.7699933"><ele>109.0</ele><time>2026-04-11T15:55:28.124Z</time></trkpt><trkpt lat="44.22107" lon="11.7701117"><ele>109.0</ele><time>2026-04-11T15:55:29.124Z</time></trkpt><trkpt lat="44.2210983" lon="11.7702283"><ele>109.0</ele><time>2026-04-11T15:55:30.123Z</time></trkpt><trkpt lat="44.221125" lon="11.770355"><ele>109.0</ele><time>2026-04-11T15:55:31.124Z</time></trkpt><trkpt lat="44.2211533" lon="11.770485"><ele>109.0</ele><time>2026-04-11T15:55:32.124Z</time></trkpt><trkpt lat="44.2211817" lon="11.77062"><ele>108.6</ele><time>2026-04-11T15:55:33.124Z</time></trkpt><trkpt lat="44.2212133" lon="11.770755"><ele>108.2</ele><time>2026-04-11T15:55:34.124Z</time></trkpt><trkpt lat="44.2212467" lon="11.7709"><ele>107.79999999999998</ele><time>2026-04-11T15:55:35.124Z</time></trkpt><trkpt lat="44.22128" lon="11.7710433"><ele>107.39999999999999</ele><time>2026-04-11T15:55:36.123Z</time></trkpt><trkpt lat="44.22131" lon="11.7711967"><ele>107.0</ele><time>2026-04-11T15:55:37.124Z</time></trkpt><trkpt lat="44.2213417" lon="11.771345"><ele>107.0</ele><time>2026-04-11T15:55:38.124Z</time></trkpt><trkpt lat="44.2213767" lon="11.77149"><ele>107.0</ele><time>2026-04-11T15:55:39.124Z</time></trkpt><trkpt lat="44.2214133" lon="11.771635"><ele>107.0</ele><time>2026-04-11T15:55:40.123Z</time></trkpt><trkpt lat="44.2214467" lon="11.7717883"><ele>107.0</ele><time>2026-04-11T15:55:41.123Z</time></trkpt><trkpt lat="44.221485" lon="11.7719433"><ele>107.0</ele><time>2026-04-11T15:55:42.124Z</time></trkpt><trkpt lat="44.2215217" lon="11.7720967"><ele>107.0</ele><time>2026-04-11T15:55:43.124Z</time></trkpt><trkpt lat="44.2215667" lon="11.772245"><ele>107.0</ele><time>2026-04-11T15:55:44.125Z</time></trkpt><trkpt lat="44.2216067" lon="11.7724033"><ele>107.0</ele><time>2026-04-11T15:55:45.125Z</time></trkpt><trkpt lat="44.221645" lon="11.7725633"><ele>106.75</ele><time>2026-04-11T15:55:46.124Z</time></trkpt><trkpt lat="44.221685" lon="11.77273"><ele>106.5</ele><time>2026-04-11T15:55:47.124Z</time></trkpt><trkpt lat="44.2217267" lon="11.7729"><ele>106.25</ele><time>2026-04-11T15:55:48.124Z</time></trkpt><trkpt lat="44.2217683" lon="11.77307"><ele>106.0</ele><time>2026-04-11T15:55:49.124Z</time></trkpt><trkpt lat="44.2218117" lon="11.7732467"><ele>106.0</ele><time>2026-04-11T15:55:50.125Z</time></trkpt><trkpt lat="44.2218583" lon="11.7734283"><ele>106.0</ele><time>2026-04-11T15:55:51.124Z</time></trkpt><trkpt lat="44.221905" lon="11.7736183"><ele>106.0</ele><time>2026-04-11T15:55:52.124Z</time></trkpt><trkpt lat="44.2219583" lon="11.7738117"><ele>106.0</ele><time>2026-04-11T15:55:53.124Z</time></trkpt><trkpt lat="44.2220133" lon="11.7740017"><ele>106.25</ele><time>2026-04-11T15:55:54.123Z</time></trkpt><trkpt lat="44.2220683" lon="11.77418"><ele>106.5</ele><time>2026-04-11T15:55:55.124Z</time></trkpt><trkpt lat="44.2221317" lon="11.77435"><ele>106.75</ele><time>2026-04-11T15:55:56.124Z</time></trkpt><trkpt lat="44.2222" lon="11.77452"><ele>107.0</ele><time>2026-04-11T15:55:57.124Z</time></trkpt><trkpt lat="44.2222767" lon="11.7746867"><ele>107.25</ele><time>2026-04-11T15:55:58.124Z</time></trkpt><trkpt lat="44.2223533" lon="11.7748467"><ele>107.5</ele><time>2026-04-11T15:55:59.124Z</time></trkpt><trkpt lat="44.2224267" lon="11.7749983"><ele>107.75</ele><time>2026-04-11T15:56:00.125Z</time></trkpt><trkpt lat="44.2224967" lon="11.7751417"><ele>108.0</ele><time>2026-04-11T15:56:01.126Z</time></trkpt><trkpt lat="44.2225667" lon="11.775285"><ele>107.0</ele><time>2026-04-11T15:56:02.124Z</time></trkpt><trkpt lat="44.2226417" lon="11.77543"><ele>106.0</ele><time>2026-04-11T15:56:03.124Z</time></trkpt><trkpt lat="44.2227233" lon="11.7755833"><ele>105.0</ele><time>2026-04-11T15:56:04.124Z</time></trkpt><trkpt lat="44.222805" lon="11.7757417"><ele>104.0</ele><time>2026-04-11T15:56:05.124Z</time></trkpt><trkpt lat="44.2228917" lon="11.7759033"><ele>103.0</ele><time>2026-04-11T15:56:06.124Z</time></trkpt><trkpt lat="44.22298" lon="11.7760683"><ele>102.0</ele><time>2026-04-11T15:56:07.125Z</time></trkpt><trkpt lat="44.2230683" lon="11.7762417"><ele>101.0</ele><time>2026-04-11T15:56:08.124Z</time></trkpt><trkpt lat="44.2231583" lon="11.776415"><ele>101.5</ele><time>2026-04-11T15:56:09.124Z</time></trkpt><trkpt lat="44.22325" lon="11.7765917"><ele>102.0</ele><time>2026-04-11T15:56:10.124Z</time></trkpt><trkpt lat="44.22334" lon="11.77676"><ele>102.5</ele><time>2026-04-11T15:56:11.124Z</time></trkpt><trkpt lat="44.2234233" lon="11.7769183"><ele>103.0</ele><time>2026-04-11T15:56:12.123Z</time></trkpt><trkpt lat="44.223505" lon="11.77707"><ele>103.0</ele><time>2026-04-11T15:56:13.124Z</time></trkpt><trkpt lat="44.2235783" lon="11.7772117"><ele>103.0</ele><time>2026-04-11T15:56:14.124Z</time></trkpt><trkpt lat="44.22365" lon="11.77735"><ele>103.0</ele><time>2026-04-11T15:56:15.123Z</time></trkpt><trkpt lat="44.223725" lon="11.777485"><ele>103.0</ele><time>2026-04-11T15:56:16.124Z</time></trkpt><trkpt lat="44.2238033" lon="11.777625"><ele>102.5</ele><time>2026-04-11T15:56:17.124Z</time></trkpt><trkpt lat="44.2238817" lon="11.7777717"><ele>102.0</ele><time>2026-04-11T15:56:18.124Z</time></trkpt><trkpt lat="44.223965" lon="11.7779233"><ele>101.5</ele><time>2026-04-11T15:56:19.123Z</time></trkpt><trkpt lat="44.2240467" lon="11.77808"><ele>101.0</ele><time>2026-04-11T15:56:20.124Z</time></trkpt><trkpt lat="44.22412" lon="11.77823"><ele>100.75</ele><time>2026-04-11T15:56:21.123Z</time></trkpt><trkpt lat="44.2241917" lon="11.77837"><ele>100.5</ele><time>2026-04-11T15:56:22.124Z</time></trkpt><trkpt lat="44.22426" lon="11.7784967"><ele>100.25</ele><time>2026-04-11T15:56:23.124Z</time></trkpt><trkpt lat="44.2243317" lon="11.778615"><ele>100.0</ele><time>2026-04-11T15:56:24.124Z</time></trkpt><trkpt lat="44.2244" lon="11.77873"><ele>100.0</ele><time>2026-04-11T15:56:25.124Z</time></trkpt><trkpt lat="44.2244717" lon="11.7788517"><ele>100.0</ele><time>2026-04-11T15:56:26.124Z</time></trkpt><trkpt lat="44.2245417" lon="11.7789917"><ele>100.0</ele><time>2026-04-11T15:56:27.123Z</time></trkpt><trkpt lat="44.2246083" lon="11.7791483"><ele>100.0</ele><time>2026-04-11T15:56:28.124Z</time></trkpt><trkpt lat="44.2246733" lon="11.7793183"><ele>100.25</ele><time>2026-04-11T15:56:29.124Z</time></trkpt><trkpt lat="44.2247433" lon="11.7794983"><ele>100.5</ele><time>2026-04-11T15:56:30.125Z</time></trkpt><trkpt lat="44.2248167" lon="11.77968"><ele>100.75</ele><time>2026-04-11T15:56:31.125Z</time></trkpt><trkpt lat="44.22489" lon="11.7798667"><ele>101.0</ele><time>2026-04-11T15:56:32.124Z</time></trkpt><trkpt lat="44.224965" lon="11.7800517"><ele>99.66666666666666</ele><time>2026-04-11T15:56:33.125Z</time></trkpt><trkpt lat="44.22504" lon="11.7802383"><ele>98.33333333333334</ele><time>2026-04-11T15:56:34.124Z</time></trkpt><trkpt lat="44.2251167" lon="11.7804283"><ele>97.0</ele><time>2026-04-11T15:56:35.124Z</time></trkpt><trkpt lat="44.225195" lon="11.78062"><ele>97.0</ele><time>2026-04-11T15:56:36.123Z</time></trkpt><trkpt lat="44.2252767" lon="11.7808033"><ele>97.0</ele><time>2026-04-11T15:56:37.125Z</time></trkpt><trkpt lat="44.2253633" lon="11.7809683"><ele>97.0</ele><time>2026-04-11T15:56:38.123Z</time></trkpt><trkpt lat="44.2254583" lon="11.78112"><ele>97.0</ele><time>2026-04-11T15:56:39.125Z</time></trkpt><trkpt lat="44.2255617" lon="11.7812583"><ele>97.5</ele><time>2026-04-11T15:56:40.125Z</time></trkpt><trkpt lat="44.22567" lon="11.7813933"><ele>98.0</ele><time>2026-04-11T15:56:41.124Z</time></trkpt><trkpt lat="44.2257817" lon="11.78153"><ele>98.5</ele><time>2026-04-11T15:56:42.123Z</time></trkpt><trkpt lat="44.2258867" lon="11.7816567"><ele>99.0</ele><time>2026-04-11T15:56:43.123Z</time></trkpt><trkpt lat="44.225985" lon="11.7817817"><ele>98.5</ele><time>2026-04-11T15:56:44.123Z</time></trkpt><trkpt lat="44.2260733" lon="11.7819133"><ele>98.0</ele><time>2026-04-11T15:56:45.124Z</time></trkpt><trkpt lat="44.2261467" lon="11.7820533"><ele>97.5</ele><time>2026-04-11T15:56:46.124Z</time></trkpt><trkpt lat="44.2262117" lon="11.7822"><ele>97.0</ele><time>2026-04-11T15:56:47.123Z</time></trkpt><trkpt lat="44.22627" lon="11.78236"><ele>97.0</ele><time>2026-04-11T15:56:48.125Z</time></trkpt><trkpt lat="44.2263267" lon="11.782525"><ele>97.0</ele><time>2026-04-11T15:56:49.123Z</time></trkpt><trkpt lat="44.2263817" lon="11.7827"><ele>97.0</ele><time>2026-04-11T15:56:50.123Z</time></trkpt><trkpt lat="44.226435" lon="11.7828767"><ele>97.0</ele><time>2026-04-11T15:56:51.125Z</time></trkpt><trkpt lat="44.22649" lon="11.7830533"><ele>97.0</ele><time>2026-04-11T15:56:52.124Z</time></trkpt><trkpt lat="44.2265417" lon="11.7832317"><ele>97.0</ele><time>2026-04-11T15:56:53.124Z</time></trkpt><trkpt lat="44.2265967" lon="11.7834133"><ele>97.0</ele><time>2026-04-11T15:56:54.124Z</time></trkpt><trkpt lat="44.226655" lon="11.7835967"><ele>97.0</ele><time>2026-04-11T15:56:55.124Z</time></trkpt><trkpt lat="44.2267133" lon="11.783785"><ele>96.0</ele><time>2026-04-11T15:56:56.123Z</time></trkpt><trkpt lat="44.2267717" lon="11.783975"><ele>95.0</ele><time>2026-04-11T15:56:57.124Z</time></trkpt><trkpt lat="44.2268333" lon="11.7841683"><ele>94.0</ele><time>2026-04-11T15:56:58.124Z</time></trkpt><trkpt lat="44.2268967" lon="11.784365"><ele>93.25</ele><time>2026-04-11T15:56:59.124Z</time></trkpt><trkpt lat="44.2269583" lon="11.7845617"><ele>92.5</ele><time>2026-04-11T15:57:00.124Z</time></trkpt><trkpt lat="44.2270133" lon="11.7847533"><ele>91.75</ele><time>2026-04-11T15:57:01.123Z</time></trkpt><trkpt lat="44.2270633" lon="11.7849467"><ele>91.0</ele><time>2026-04-11T15:57:02.124Z</time></trkpt><trkpt lat="44.22711" lon="11.78514"><ele>90.25</ele><time>2026-04-11T15:57:03.125Z</time></trkpt><trkpt lat="44.2271533" lon="11.7853367"><ele>89.5</ele><time>2026-04-11T15:57:04.124Z</time></trkpt><trkpt lat="44.22719" lon="11.7855283"><ele>88.75</ele><time>2026-04-11T15:57:05.124Z</time></trkpt><trkpt lat="44.2272133" lon="11.7857083"><ele>88.0</ele><time>2026-04-11T15:57:06.126Z</time></trkpt><trkpt lat="44.2272283" lon="11.785865"><ele>88.0</ele><time>2026-04-11T15:57:07.125Z</time></trkpt><trkpt lat="44.2272433" lon="11.7859983"><ele>88.0</ele><time>2026-04-11T15:57:08.123Z</time></trkpt><trkpt lat="44.2272583" lon="11.786105"><ele>88.0</ele><time>2026-04-11T15:57:09.124Z</time></trkpt><trkpt lat="44.2273033" lon="11.786225"><ele>88.0</ele><time>2026-04-11T15:57:11.125Z</time></trkpt><trkpt lat="44.2274" lon="11.78624"><ele>88.0</ele><time>2026-04-11T15:57:13.124Z</time></trkpt><trkpt lat="44.2274633" lon="11.7862267"><ele>88.0</ele><time>2026-04-11T15:57:14.123Z</time></trkpt><trkpt lat="44.2275317" lon="11.786205"><ele>87.83333333333333</ele><time>2026-04-11T15:57:15.124Z</time></trkpt><trkpt lat="44.2276033" lon="11.7861717"><ele>87.66666666666666</ele><time>2026-04-11T15:57:16.124Z</time></trkpt><trkpt lat="44.22768" lon="11.78612"><ele>87.5</ele><time>2026-04-11T15:57:17.122Z</time></trkpt><trkpt lat="44.22776" lon="11.78607"><ele>87.33333333333333</ele><time>2026-04-11T15:57:18.124Z</time></trkpt><trkpt lat="44.2278417" lon="11.7860283"><ele>87.16666666666667</ele><time>2026-04-11T15:57:19.124Z</time></trkpt><trkpt lat="44.2279233" lon="11.7859817"><ele>87.0</ele><time>2026-04-11T15:57:20.122Z</time></trkpt><trkpt lat="44.2280017" lon="11.78594"><ele>87.8</ele><time>2026-04-11T15:57:21.124Z</time></trkpt><trkpt lat="44.2280783" lon="11.785905"><ele>88.6</ele><time>2026-04-11T15:57:22.124Z</time></trkpt><trkpt lat="44.228155" lon="11.78587"><ele>89.39999999999999</ele><time>2026-04-11T15:57:23.124Z</time></trkpt><trkpt lat="44.2282383" lon="11.7858333"><ele>90.19999999999999</ele><time>2026-04-11T15:57:24.124Z</time></trkpt><trkpt lat="44.2283383" lon="11.7857833"><ele>91.0</ele><time>2026-04-11T15:57:25.126Z</time></trkpt><trkpt lat="44.22845" lon="11.7857317"><ele>89.0</ele><time>2026-04-11T15:57:26.123Z</time></trkpt><trkpt lat="44.22857" lon="11.78568"><ele>87.0</ele><time>2026-04-11T15:57:27.124Z</time></trkpt><trkpt lat="44.2286967" lon="11.7856267"><ele>85.0</ele><time>2026-04-11T15:57:28.123Z</time></trkpt><trkpt lat="44.2288217" lon="11.785575"><ele>83.0</ele><time>2026-04-11T15:57:29.124Z</time></trkpt><trkpt lat="44.22894" lon="11.78554"><ele>82.5</ele><time>2026-04-11T15:57:30.123Z</time></trkpt><trkpt lat="44.22904" lon="11.78553"><ele>82.0</ele><time>2026-04-11T15:57:31.123Z</time></trkpt><trkpt lat="44.2291183" lon="11.7855517"><ele>81.5</ele><time>2026-04-11T15:57:32.123Z</time></trkpt><trkpt lat="44.2291783" lon="11.7856067"><ele>81.0</ele><time>2026-04-11T15:57:33.124Z</time></trkpt><trkpt lat="44.22922" lon="11.7856817"><ele>80.5</ele><time>2026-04-11T15:57:34.124Z</time></trkpt><trkpt lat="44.2292667" lon="11.7857633"><ele>80.0</ele><time>2026-04-11T15:57:35.124Z</time></trkpt><trkpt lat="44.2293217" lon="11.7858367"><ele>80.0</ele><time>2026-04-11T15:57:36.124Z</time></trkpt><trkpt lat="44.2294017" lon="11.7858633"><ele>80.0</ele><time>2026-04-11T15:57:37.123Z</time></trkpt><trkpt lat="44.2294917" lon="11.785865"><ele>80.0</ele><time>2026-04-11T15:57:38.124Z</time></trkpt><trkpt lat="44.2295933" lon="11.7857983"><ele>80.0</ele><time>2026-04-11T15:57:39.124Z</time></trkpt><trkpt lat="44.2297117" lon="11.78572"><ele>80.0</ele><time>2026-04-11T15:57:40.123Z</time></trkpt><trkpt lat="44.229835" lon="11.7856333"><ele>82.0</ele><time>2026-04-11T15:57:41.122Z</time></trkpt><trkpt lat="44.22997" lon="11.7855433"><ele>84.0</ele><time>2026-04-11T15:57:42.124Z</time></trkpt><trkpt lat="44.23012" lon="11.7854417"><ele>86.0</ele><time>2026-04-11T15:57:43.125Z</time></trkpt><trkpt lat="44.2302767" lon="11.785315"><ele>86.0</ele><time>2026-04-11T15:57:44.123Z</time></trkpt><trkpt lat="44.2304367" lon="11.7851867"><ele>86.0</ele><time>2026-04-11T15:57:45.124Z</time></trkpt><trkpt lat="44.2306" lon="11.785055"><ele>86.0</ele><time>2026-04-11T15:57:46.125Z</time></trkpt><trkpt lat="44.23077" lon="11.7849133"><ele>85.66666666666667</ele><time>2026-04-11T15:57:47.124Z</time></trkpt><trkpt lat="44.2309417" lon="11.78475"><ele>85.33333333333333</ele><time>2026-04-11T15:57:48.124Z</time></trkpt><trkpt lat="44.2311017" lon="11.7845783"><ele>85.0</ele><time>2026-04-11T15:57:49.123Z</time></trkpt><trkpt lat="44.23126" lon="11.7844017"><ele>85.0</ele><time>2026-04-11T15:57:50.124Z</time></trkpt><trkpt lat="44.2314017" lon="11.784225"><ele>85.0</ele><time>2026-04-11T15:57:51.124Z</time></trkpt><trkpt lat="44.2315367" lon="11.78406"><ele>85.0</ele><time>2026-04-11T15:57:52.124Z</time></trkpt><trkpt lat="44.23167" lon="11.7839067"><ele>85.0</ele><time>2026-04-11T15:57:53.123Z</time></trkpt><trkpt lat="44.2318" lon="11.78376"><ele>85.0</ele><time>2026-04-11T15:57:54.124Z</time></trkpt><trkpt lat="44.2319333" lon="11.78364"><ele>85.0</ele><time>2026-04-11T15:57:55.124Z</time></trkpt><trkpt lat="44.2320717" lon="11.7835617"><ele>85.0</ele><time>2026-04-11T15:57:56.124Z</time></trkpt><trkpt lat="44.2322217" lon="11.78352"><ele>85.0</ele><time>2026-04-11T15:57:57.13Z</time></trkpt><trkpt lat="44.2323733" lon="11.7835"><ele>85.0</ele><time>2026-04-11T15:57:58.123Z</time></trkpt><trkpt lat="44.2325083" lon="11.7834683"><ele>85.0</ele><time>2026-04-11T15:57:59.123Z</time></trkpt><trkpt lat="44.2326267" lon="11.78341"><ele>85.25</ele><time>2026-04-11T15:58:00.123Z</time></trkpt><trkpt lat="44.2327233" lon="11.78331"><ele>85.5</ele><time>2026-04-11T15:58:01.125Z</time></trkpt><trkpt lat="44.2328" lon="11.7831633"><ele>85.75</ele><time>2026-04-11T15:58:02.123Z</time></trkpt><trkpt lat="44.232865" lon="11.782985"><ele>86.0</ele><time>2026-04-11T15:58:03.124Z</time></trkpt><trkpt lat="44.2329343" lon="11.7827963"><ele>87.33333333333334</ele><time>2026-04-11T15:58:04.123Z</time></trkpt><trkpt lat="44.2330137" lon="11.7826095"><ele>88.66666666666667</ele><time>2026-04-11T15:58:05.124Z</time></trkpt><trkpt lat="44.2331098" lon="11.7824194"><ele>90.0</ele><time>2026-04-11T15:58:06.124Z</time></trkpt><trkpt lat="44.2332255" lon="11.7822265"><ele>90.0</ele><time>2026-04-11T15:58:07.125Z</time></trkpt><trkpt lat="44.2333544" lon="11.7820295"><ele>90.0</ele><time>2026-04-11T15:58:08.123Z</time></trkpt><trkpt lat="44.2334805" lon="11.7818167"><ele>90.0</ele><time>2026-04-11T15:58:09.124Z</time></trkpt><trkpt lat="44.2335993" lon="11.7815927"><ele>90.66666666666667</ele><time>2026-04-11T15:58:10.123Z</time></trkpt><trkpt lat="44.2337107" lon="11.7813646"><ele>91.33333333333334</ele><time>2026-04-11T15:58:11.123Z</time></trkpt><trkpt lat="44.2338082" lon="11.781123"><ele>92.0</ele><time>2026-04-11T15:58:12.124Z</time></trkpt><trkpt lat="44.2338955" lon="11.7808781"><ele>91.33333333333334</ele><time>2026-04-11T15:58:13.123Z</time></trkpt><trkpt lat="44.2339833" lon="11.7806454"><ele>90.66666666666667</ele><time>2026-04-11T15:58:14.124Z</time></trkpt><trkpt lat="44.2340631" lon="11.7804164"><ele>90.0</ele><time>2026-04-11T15:58:15.124Z</time></trkpt><trkpt lat="44.2341219" lon="11.78018"><ele>88.66666666666667</ele><time>2026-04-11T15:58:16.125Z</time></trkpt><trkpt lat="44.2341617" lon="11.7799295"><ele>87.33333333333334</ele><time>2026-04-11T15:58:17.124Z</time></trkpt><trkpt lat="44.2341887" lon="11.7796662"><ele>86.0</ele><time>2026-04-11T15:58:18.124Z</time></trkpt><trkpt lat="44.2342022" lon="11.7794014"><ele>86.66666666666667</ele><time>2026-04-11T15:58:19.123Z</time></trkpt><trkpt lat="44.2342023" lon="11.7791473"><ele>87.33333333333333</ele><time>2026-04-11T15:58:20.124Z</time></trkpt><trkpt lat="44.2342073" lon="11.77892"><ele>88.0</ele><time>2026-04-11T15:58:21.124Z</time></trkpt><trkpt lat="44.234242" lon="11.7787192"><ele>88.0</ele><time>2026-04-11T15:58:22.124Z</time></trkpt><trkpt lat="44.234293" lon="11.7785239"><ele>88.0</ele><time>2026-04-11T15:58:23.123Z</time></trkpt><trkpt lat="44.2343807" lon="11.7783314"><ele>88.0</ele><time>2026-04-11T15:58:24.124Z</time></trkpt><trkpt lat="44.2344525" lon="11.7781228"><ele>88.0</ele><time>2026-04-11T15:58:25.123Z</time></trkpt><trkpt lat="44.2345045" lon="11.7779022"><ele>88.0</ele><time>2026-04-11T15:58:26.124Z</time></trkpt><trkpt lat="44.2345294" lon="11.7776633"><ele>88.0</ele><time>2026-04-11T15:58:27.124Z</time></trkpt><trkpt lat="44.2345427" lon="11.7774162"><ele>88.0</ele><time>2026-04-11T15:58:28.123Z</time></trkpt><trkpt lat="44.2345567" lon="11.7771638"><ele>88.0</ele><time>2026-04-11T15:58:29.124Z</time></trkpt><trkpt lat="44.2345726" lon="11.7769054"><ele>88.0</ele><time>2026-04-11T15:58:30.124Z</time></trkpt><trkpt lat="44.234591" lon="11.7766411"><ele>89.0</ele><time>2026-04-11T15:58:31.123Z</time></trkpt><trkpt lat="44.2346103" lon="11.776373"><ele>90.0</ele><time>2026-04-11T15:58:32.123Z</time></trkpt><trkpt lat="44.2346271" lon="11.7761032"><ele>91.0</ele><time>2026-04-11T15:58:33.125Z</time></trkpt><trkpt lat="44.2346448" lon="11.7758381"><ele>91.33333333333333</ele><time>2026-04-11T15:58:34.123Z</time></trkpt><trkpt lat="44.2346675" lon="11.7755868"><ele>91.66666666666667</ele><time>2026-04-11T15:58:35.124Z</time></trkpt><trkpt lat="44.2346988" lon="11.7753486"><ele>92.0</ele><time>2026-04-11T15:58:36.123Z</time></trkpt><trkpt lat="44.2347414" lon="11.7751142"><ele>92.75</ele><time>2026-04-11T15:58:37.123Z</time></trkpt><trkpt lat="44.234787" lon="11.7748916"><ele>93.5</ele><time>2026-04-11T15:58:38.123Z</time></trkpt><trkpt lat="44.234825" lon="11.7746955"><ele>94.25</ele><time>2026-04-11T15:58:39.125Z</time></trkpt><trkpt lat="44.2348552" lon="11.7745478"><ele>95.0</ele><time>2026-04-11T15:58:40.124Z</time></trkpt><trkpt lat="44.2348563" lon="11.7744442"><ele>95.33333333333334</ele><time>2026-04-11T15:58:41.124Z</time></trkpt><trkpt lat="44.2348296" lon="11.7743511"><ele>95.66666666666667</ele><time>2026-04-11T15:58:42.123Z</time></trkpt><trkpt lat="44.2347943" lon="11.7742693"><ele>96.0</ele><time>2026-04-11T15:58:43.123Z</time></trkpt><trkpt lat="44.2347282" lon="11.7742212"><ele>96.33333333333334</ele><time>2026-04-11T15:58:44.124Z</time></trkpt><trkpt lat="44.2346698" lon="11.7741421"><ele>96.66666666666667</ele><time>2026-04-11T15:58:45.124Z</time></trkpt><trkpt lat="44.2346274" lon="11.7740487"><ele>97.0</ele><time>2026-04-11T15:58:46.123Z</time></trkpt><trkpt lat="44.2346162" lon="11.7739109"><ele>97.25</ele><time>2026-04-11T15:58:47.124Z</time></trkpt><trkpt lat="44.2346263" lon="11.7737673"><ele>97.5</ele><time>2026-04-11T15:58:48.123Z</time></trkpt><trkpt lat="44.2346885" lon="11.7735754"><ele>97.75</ele><time>2026-04-11T15:58:49.124Z</time></trkpt><trkpt lat="44.2347524" lon="11.77338"><ele>98.0</ele><time>2026-04-11T15:58:50.124Z</time></trkpt><trkpt lat="44.2348129" lon="11.7731851"><ele>98.0</ele><time>2026-04-11T15:58:51.125Z</time></trkpt><trkpt lat="44.234885" lon="11.7730117"><ele>98.0</ele><time>2026-04-11T15:58:52.124Z</time></trkpt><trkpt lat="44.2349617" lon="11.772825"><ele>98.0</ele><time>2026-04-11T15:58:53.125Z</time></trkpt><trkpt lat="44.2350467" lon="11.772625"><ele>98.0</ele><time>2026-04-11T15:58:54.125Z</time></trkpt><trkpt lat="44.2351283" lon="11.7724233"><ele>98.0</ele><time>2026-04-11T15:58:55.124Z</time></trkpt><trkpt lat="44.2352117" lon="11.7722267"><ele>98.0</ele><time>2026-04-11T15:58:56.123Z</time></trkpt><trkpt lat="44.2352917" lon="11.772025"><ele>100.0</ele><time>2026-04-11T15:58:57.124Z</time></trkpt><trkpt lat="44.2353833" lon="11.7718317"><ele>102.0</ele><time>2026-04-11T15:58:58.124Z</time></trkpt><trkpt lat="44.2354733" lon="11.7716467"><ele>104.0</ele><time>2026-04-11T15:58:59.123Z</time></trkpt><trkpt lat="44.23556" lon="11.7714667"><ele>103.33333333333333</ele><time>2026-04-11T15:59:00.123Z</time></trkpt><trkpt lat="44.2356417" lon="11.7712783"><ele>102.66666666666666</ele><time>2026-04-11T15:59:01.124Z</time></trkpt><trkpt lat="44.2357217" lon="11.771085"><ele>102.0</ele><time>2026-04-11T15:59:02.124Z</time></trkpt><trkpt lat="44.2358083" lon="11.7708933"><ele>102.0</ele><time>2026-04-11T15:59:03.124Z</time></trkpt><trkpt lat="44.2358917" lon="11.7707"><ele>102.0</ele><time>2026-04-11T15:59:04.123Z</time></trkpt><trkpt lat="44.2359633" lon="11.770495"><ele>102.0</ele><time>2026-04-11T15:59:05.125Z</time></trkpt><trkpt lat="44.2360267" lon="11.7702817"><ele>103.33333333333334</ele><time>2026-04-11T15:59:06.126Z</time></trkpt><trkpt lat="44.23608" lon="11.770055"><ele>104.66666666666667</ele><time>2026-04-11T15:59:07.125Z</time></trkpt><trkpt lat="44.2361367" lon="11.7698283"><ele>106.0</ele><time>2026-04-11T15:59:08.122Z</time></trkpt><trkpt lat="44.2362017" lon="11.7695983"><ele>106.0</ele><time>2026-04-11T15:59:09.123Z</time></trkpt><trkpt lat="44.2362783" lon="11.76937"><ele>106.0</ele><time>2026-04-11T15:59:10.123Z</time></trkpt><trkpt lat="44.23636" lon="11.76915"><ele>106.0</ele><time>2026-04-11T15:59:11.124Z</time></trkpt><trkpt lat="44.23645" lon="11.76894"><ele>105.33333333333334</ele><time>2026-04-11T15:59:12.123Z</time></trkpt><trkpt lat="44.2365467" lon="11.7687417"><ele>104.66666666666666</ele><time>2026-04-11T15:59:13.125Z</time></trkpt><trkpt lat="44.2366517" lon="11.7685617"><ele>104.0</ele><time>2026-04-11T15:59:14.124Z</time></trkpt><trkpt lat="44.2367483" lon="11.768385"><ele>104.0</ele><time>2026-04-11T15:59:15.124Z</time></trkpt><trkpt lat="44.2368283" lon="11.7682067"><ele>104.0</ele><time>2026-04-11T15:59:16.123Z</time></trkpt><trkpt lat="44.236895" lon="11.7680083"><ele>104.0</ele><time>2026-04-11T15:59:17.124Z</time></trkpt><trkpt lat="44.2369583" lon="11.7678033"><ele>107.0</ele><time>2026-04-11T15:59:18.124Z</time></trkpt><trkpt lat="44.2370333" lon="11.7676133"><ele>110.0</ele><time>2026-04-11T15:59:19.125Z</time></trkpt><trkpt lat="44.2371267" lon="11.7674417"><ele>113.0</ele><time>2026-04-11T15:59:20.124Z</time></trkpt><trkpt lat="44.2372383" lon="11.76729"><ele>110.66666666666666</ele><time>2026-04-11T15:59:21.126Z</time></trkpt><trkpt lat="44.2373633" lon="11.76715"><ele>108.33333333333334</ele><time>2026-04-11T15:59:22.124Z</time></trkpt><trkpt lat="44.2374883" lon="11.76702"><ele>106.0</ele><time>2026-04-11T15:59:23.122Z</time></trkpt><trkpt lat="44.2376" lon="11.76689"><ele>106.75</ele><time>2026-04-11T15:59:24.124Z</time></trkpt><trkpt lat="44.237685" lon="11.7667483"><ele>107.5</ele><time>2026-04-11T15:59:25.123Z</time></trkpt><trkpt lat="44.23775" lon="11.7665833"><ele>108.25</ele><time>2026-04-11T15:59:26.125Z</time></trkpt><trkpt lat="44.237795" lon="11.7663983"><ele>109.0</ele><time>2026-04-11T15:59:27.124Z</time></trkpt><trkpt lat="44.2378433" lon="11.7662183"><ele>109.0</ele><time>2026-04-11T15:59:28.123Z</time></trkpt><trkpt lat="44.2379167" lon="11.7660583"><ele>109.0</ele><time>2026-04-11T15:59:29.124Z</time></trkpt><trkpt lat="44.23801" lon="11.765905"><ele>109.0</ele><time>2026-04-11T15:59:30.124Z</time></trkpt><trkpt lat="44.2381117" lon="11.7657433"><ele>109.0</ele><time>2026-04-11T15:59:31.124Z</time></trkpt><trkpt lat="44.2382133" lon="11.765575"><ele>109.0</ele><time>2026-04-11T15:59:32.124Z</time></trkpt><trkpt lat="44.238315" lon="11.7654067"><ele>109.0</ele><time>2026-04-11T15:59:33.124Z</time></trkpt><trkpt lat="44.2384183" lon="11.7652433"><ele>109.0</ele><time>2026-04-11T15:59:34.124Z</time></trkpt><trkpt lat="44.2385267" lon="11.7650867"><ele>109.66666666666667</ele><time>2026-04-11T15:59:35.123Z</time></trkpt><trkpt lat="44.2386367" lon="11.7649283"><ele>110.33333333333334</ele><time>2026-04-11T15:59:36.123Z</time></trkpt><trkpt lat="44.2387417" lon="11.764765"><ele>111.0</ele><time>2026-04-11T15:59:37.124Z</time></trkpt><trkpt lat="44.2388433" lon="11.7645933"><ele>111.0</ele><time>2026-04-11T15:59:38.125Z</time></trkpt><trkpt lat="44.2389367" lon="11.7644133"><ele>111.0</ele><time>2026-04-11T15:59:39.124Z</time></trkpt><trkpt lat="44.2390217" lon="11.7642183"><ele>111.0</ele><time>2026-04-11T15:59:40.124Z</time></trkpt><trkpt lat="44.2391017" lon="11.764015"><ele>111.33333333333334</ele><time>2026-04-11T15:59:41.122Z</time></trkpt><trkpt lat="44.23918" lon="11.76381"><ele>111.66666666666667</ele><time>2026-04-11T15:59:42.124Z</time></trkpt><trkpt lat="44.23926" lon="11.7636033"><ele>112.0</ele><time>2026-04-11T15:59:43.123Z</time></trkpt><trkpt lat="44.2393383" lon="11.7633983"><ele>112.66666666666667</ele><time>2026-04-11T15:59:44.124Z</time></trkpt><trkpt lat="44.2394133" lon="11.76319"><ele>113.33333333333334</ele><time>2026-04-11T15:59:45.124Z</time></trkpt><trkpt lat="44.2394783" lon="11.7629833"><ele>114.0</ele><time>2026-04-11T15:59:46.124Z</time></trkpt><trkpt lat="44.2395233" lon="11.7627733"><ele>115.5</ele><time>2026-04-11T15:59:47.124Z</time></trkpt><trkpt lat="44.2395417" lon="11.7625633"><ele>117.0</ele><time>2026-04-11T15:59:48.124Z</time></trkpt><trkpt lat="44.2395467" lon="11.7623517"><ele>118.5</ele><time>2026-04-11T15:59:49.124Z</time></trkpt><trkpt lat="44.23955" lon="11.76216"><ele>120.0</ele><time>2026-04-11T15:59:50.124Z</time></trkpt><trkpt lat="44.2395583" lon="11.762005"><ele>120.0</ele><time>2026-04-11T15:59:51.123Z</time></trkpt><trkpt lat="44.2395783" lon="11.7618833"><ele>120.0</ele><time>2026-04-11T15:59:52.124Z</time></trkpt><trkpt lat="44.2396233" lon="11.76182"><ele>120.0</ele><time>2026-04-11T15:59:53.123Z</time></trkpt><trkpt lat="44.2397333" lon="11.7617783"><ele>120.0</ele><time>2026-04-11T15:59:55.124Z</time></trkpt><trkpt lat="44.2398283" lon="11.7617417"><ele>120.0</ele><time>2026-04-11T15:59:56.122Z</time></trkpt><trkpt lat="44.2399267" lon="11.7616617"><ele>119.5</ele><time>2026-04-11T15:59:57.124Z</time></trkpt><trkpt lat="44.2400133" lon="11.7615133"><ele>119.0</ele><time>2026-04-11T15:59:58.124Z</time></trkpt><trkpt lat="44.2401" lon="11.7613833"><ele>118.5</ele><time>2026-04-11T15:59:59.124Z</time></trkpt><trkpt lat="44.240205" lon="11.761255"><ele>118.0</ele><time>2026-04-11T16:00:00.124Z</time></trkpt><trkpt lat="44.24032" lon="11.76114"><ele>117.66666666666667</ele><time>2026-04-11T16:00:01.124Z</time></trkpt><trkpt lat="44.2404483" lon="11.7610267"><ele>117.33333333333334</ele><time>2026-04-11T16:00:02.124Z</time></trkpt><trkpt lat="44.2405833" lon="11.7609133"><ele>117.0</ele><time>2026-04-11T16:00:03.124Z</time></trkpt><trkpt lat="44.2407233" lon="11.760795"><ele>118.66666666666666</ele><time>2026-04-11T16:00:04.124Z</time></trkpt><trkpt lat="44.24086" lon="11.7606817"><ele>120.33333333333333</ele><time>2026-04-11T16:00:05.124Z</time></trkpt><trkpt lat="44.241" lon="11.76057"><ele>122.0</ele><time>2026-04-11T16:00:06.126Z</time></trkpt><trkpt lat="44.24114" lon="11.7604667"><ele>122.0</ele><time>2026-04-11T16:00:07.125Z</time></trkpt><trkpt lat="44.2412867" lon="11.760375"><ele>122.0</ele><time>2026-04-11T16:00:08.125Z</time></trkpt><trkpt lat="44.241435" lon="11.7602967"><ele>122.0</ele><time>2026-04-11T16:00:09.126Z</time></trkpt><trkpt lat="44.241585" lon="11.7602217"><ele>122.5</ele><time>2026-04-11T16:00:10.122Z</time></trkpt><trkpt lat="44.2417283" lon="11.7601467"><ele>123.0</ele><time>2026-04-11T16:00:11.125Z</time></trkpt><trkpt lat="44.2418633" lon="11.760075"><ele>123.5</ele><time>2026-04-11T16:00:12.124Z</time></trkpt><trkpt lat="44.2419867" lon="11.7600083"><ele>124.0</ele><time>2026-04-11T16:00:13.123Z</time></trkpt><trkpt lat="44.2421" lon="11.7599567"><ele>124.0</ele><time>2026-04-11T16:00:14.124Z</time></trkpt><trkpt lat="44.2422117" lon="11.7599283"><ele>124.0</ele><time>2026-04-11T16:00:15.125Z</time></trkpt><trkpt lat="44.2423283" lon="11.7599283"><ele>124.0</ele><time>2026-04-11T16:00:16.123Z</time></trkpt><trkpt lat="44.2424433" lon="11.7599717"><ele>124.0</ele><time>2026-04-11T16:00:17.124Z</time></trkpt><trkpt lat="44.2425567" lon="11.76005"><ele>125.25</ele><time>2026-04-11T16:00:18.123Z</time></trkpt><trkpt lat="44.2426683" lon="11.76015"><ele>126.5</ele><time>2026-04-11T16:00:19.122Z</time></trkpt><trkpt lat="44.24278" lon="11.7602617"><ele>127.75</ele><time>2026-04-11T16:00:20.125Z</time></trkpt><trkpt lat="44.242895" lon="11.76038"><ele>129.0</ele><time>2026-04-11T16:00:21.124Z</time></trkpt><trkpt lat="44.24301" lon="11.7605017"><ele>130.5</ele><time>2026-04-11T16:00:22.123Z</time></trkpt><trkpt lat="44.24313" lon="11.7606167"><ele>132.0</ele><time>2026-04-11T16:00:23.207Z</time></trkpt><trkpt lat="44.24325" lon="11.7607267"><ele>133.5</ele><time>2026-04-11T16:00:24.124Z</time></trkpt><trkpt lat="44.2433717" lon="11.7608317"><ele>135.0</ele><time>2026-04-11T16:00:25.124Z</time></trkpt><trkpt lat="44.243495" lon="11.7609267"><ele>135.0</ele><time>2026-04-11T16:00:26.123Z</time></trkpt><trkpt lat="44.24362" lon="11.7610067"><ele>135.0</ele><time>2026-04-11T16:00:27.125Z</time></trkpt><trkpt lat="44.2437483" lon="11.761075"><ele>135.0</ele><time>2026-04-11T16:00:28.125Z</time></trkpt><trkpt lat="44.24388" lon="11.7611383"><ele>135.0</ele><time>2026-04-11T16:00:29.125Z</time></trkpt><trkpt lat="44.244015" lon="11.7612083"><ele>138.25</ele><time>2026-04-11T16:00:30.128Z</time></trkpt><trkpt lat="44.2441517" lon="11.7612817"><ele>141.5</ele><time>2026-04-11T16:00:31.126Z</time></trkpt><trkpt lat="44.2442933" lon="11.7613567"><ele>144.75</ele><time>2026-04-11T16:00:32.125Z</time></trkpt><trkpt lat="44.244435" lon="11.76143"><ele>148.0</ele><time>2026-04-11T16:00:33.125Z</time></trkpt><trkpt lat="44.2445683" lon="11.761505"><ele>148.0</ele><time>2026-04-11T16:00:34.125Z</time></trkpt><trkpt lat="44.24469" lon="11.7615883"><ele>148.0</ele><time>2026-04-11T16:00:35.126Z</time></trkpt><trkpt lat="44.2447983" lon="11.76169"><ele>148.0</ele><time>2026-04-11T16:00:36.127Z</time></trkpt><trkpt lat="44.244895" lon="11.76181"><ele>148.0</ele><time>2026-04-11T16:00:37.124Z</time></trkpt><trkpt lat="44.24497" lon="11.7619367"><ele>149.4</ele><time>2026-04-11T16:00:38.125Z</time></trkpt><trkpt lat="44.2450267" lon="11.7620583"><ele>150.8</ele><time>2026-04-11T16:00:39.126Z</time></trkpt><trkpt lat="44.2450767" lon="11.7621617"><ele>152.2</ele><time>2026-04-11T16:00:40.124Z</time></trkpt><trkpt lat="44.245125" lon="11.762235"><ele>153.6</ele><time>2026-04-11T16:00:41.125Z</time></trkpt><trkpt lat="44.24522" lon="11.7622683"><ele>155.0</ele><time>2026-04-11T16:00:43.126Z</time></trkpt><trkpt lat="44.2452683" lon="11.7621117"><ele>155.0</ele><time>2026-04-11T16:00:45.124Z</time></trkpt><trkpt lat="44.2452717" lon="11.7619817"><ele>155.0</ele><time>2026-04-11T16:00:46.126Z</time></trkpt><trkpt lat="44.245275" lon="11.761835"><ele>155.0</ele><time>2026-04-11T16:00:47.122Z</time></trkpt><trkpt lat="44.24529" lon="11.7616833"><ele>155.0</ele><time>2026-04-11T16:00:48.125Z</time></trkpt><trkpt lat="44.2453217" lon="11.7615483"><ele>155.0</ele><time>2026-04-11T16:00:49.124Z</time></trkpt><trkpt lat="44.245375" lon="11.761435"><ele>153.4</ele><time>2026-04-11T16:00:50.124Z</time></trkpt><trkpt lat="44.24545" lon="11.7613583"><ele>151.8</ele><time>2026-04-11T16:00:51.125Z</time></trkpt><trkpt lat="44.24554" lon="11.761315"><ele>150.2</ele><time>2026-04-11T16:00:52.124Z</time></trkpt><trkpt lat="44.24564" lon="11.761315"><ele>148.6</ele><time>2026-04-11T16:00:53.123Z</time></trkpt><trkpt lat="44.2457383" lon="11.7613183"><ele>147.0</ele><time>2026-04-11T16:00:54.123Z</time></trkpt><trkpt lat="44.245825" lon="11.7613117"><ele>150.39999999999998</ele><time>2026-04-11T16:00:55.124Z</time></trkpt><trkpt lat="44.2459" lon="11.76128"><ele>153.79999999999998</ele><time>2026-04-11T16:00:56.124Z</time></trkpt><trkpt lat="44.24591" lon="11.7611717"><ele>157.2</ele><time>2026-04-11T16:00:57.123Z</time></trkpt><trkpt lat="44.24589" lon="11.7610567"><ele>160.6</ele><time>2026-04-11T16:00:58.123Z</time></trkpt><trkpt lat="44.2458483" lon="11.7609183"><ele>164.0</ele><time>2026-04-11T16:00:59.123Z</time></trkpt><trkpt lat="44.2457933" lon="11.7607767"><ele>164.2</ele><time>2026-04-11T16:01:00.124Z</time></trkpt><trkpt lat="44.2457283" lon="11.760645"><ele>164.39999999999998</ele><time>2026-04-11T16:01:01.124Z</time></trkpt><trkpt lat="44.2456483" lon="11.7605567"><ele>164.6</ele><time>2026-04-11T16:01:02.124Z</time></trkpt><trkpt lat="44.24555" lon="11.760525"><ele>164.8</ele><time>2026-04-11T16:01:03.124Z</time></trkpt><trkpt lat="44.2454417" lon="11.760535"><ele>165.0</ele><time>2026-04-11T16:01:04.123Z</time></trkpt><trkpt lat="44.2453383" lon="11.760555"><ele>162.66666666666666</ele><time>2026-04-11T16:01:05.124Z</time></trkpt><trkpt lat="44.245245" lon="11.7605483"><ele>160.33333333333334</ele><time>2026-04-11T16:01:06.124Z</time></trkpt><trkpt lat="44.2451583" lon="11.7605133"><ele>158.0</ele><time>2026-04-11T16:01:07.123Z</time></trkpt><trkpt lat="44.245125" lon="11.760425"><ele>155.66666666666669</ele><time>2026-04-11T16:01:08.126Z</time></trkpt><trkpt lat="44.24511" lon="11.7603383"><ele>153.33333333333334</ele><time>2026-04-11T16:01:09.124Z</time></trkpt><trkpt lat="44.245165" lon="11.7602867"><ele>151.0</ele><time>2026-04-11T16:01:10.123Z</time></trkpt><trkpt lat="44.24523" lon="11.760265"><ele>151.0</ele><time>2026-04-11T16:01:11.126Z</time></trkpt><trkpt lat="44.2453233" lon="11.7602617"><ele>151.0</ele><time>2026-04-11T16:01:12.124Z</time></trkpt><trkpt lat="44.2454417" lon="11.7602433"><ele>151.0</ele><time>2026-04-11T16:01:13.123Z</time></trkpt><trkpt lat="44.2455767" lon="11.7601933"><ele>151.0</ele><time>2026-04-11T16:01:14.125Z</time></trkpt><trkpt lat="44.2457117" lon="11.7601533"><ele>153.8</ele><time>2026-04-11T16:01:15.125Z</time></trkpt><trkpt lat="44.2458217" lon="11.7601567"><ele>156.6</ele><time>2026-04-11T16:01:16.123Z</time></trkpt><trkpt lat="44.2458983" lon="11.7602183"><ele>159.4</ele><time>2026-04-11T16:01:17.124Z</time></trkpt><trkpt lat="44.2459583" lon="11.7603033"><ele>162.2</ele><time>2026-04-11T16:01:18.124Z</time></trkpt><trkpt lat="44.24601" lon="11.7604033"><ele>165.0</ele><time>2026-04-11T16:01:19.123Z</time></trkpt><trkpt lat="44.24606" lon="11.7605117"><ele>165.0</ele><time>2026-04-11T16:01:20.123Z</time></trkpt><trkpt lat="44.2461233" lon="11.7606167"><ele>165.0</ele><time>2026-04-11T16:01:21.124Z</time></trkpt><trkpt lat="44.2462033" lon="11.7607117"><ele>165.0</ele><time>2026-04-11T16:01:22.124Z</time></trkpt><trkpt lat="44.2462817" lon="11.760825"><ele>165.0</ele><time>2026-04-11T16:01:23.124Z</time></trkpt><trkpt lat="44.246365" lon="11.76095"><ele>165.0</ele><time>2026-04-11T16:01:24.122Z</time></trkpt><trkpt lat="44.24646" lon="11.7610683"><ele>169.0</ele><time>2026-04-11T16:01:25.124Z</time></trkpt><trkpt lat="44.24656" lon="11.7611733"><ele>173.0</ele><time>2026-04-11T16:01:26.126Z</time></trkpt><trkpt lat="44.2466383" lon="11.7612783"><ele>177.0</ele><time>2026-04-11T16:01:27.124Z</time></trkpt><trkpt lat="44.246695" lon="11.761385"><ele>181.0</ele><time>2026-04-11T16:01:28.123Z</time></trkpt><trkpt lat="44.2467467" lon="11.7614783"><ele>185.0</ele><time>2026-04-11T16:01:29.124Z</time></trkpt><trkpt lat="44.246805" lon="11.7615517"><ele>185.0</ele><time>2026-04-11T16:01:30.124Z</time></trkpt><trkpt lat="44.2468933" lon="11.7615633"><ele>185.0</ele><time>2026-04-11T16:01:31.124Z</time></trkpt><trkpt lat="44.246995" lon="11.76155"><ele>185.0</ele><time>2026-04-11T16:01:32.124Z</time></trkpt><trkpt lat="44.2470933" lon="11.761525"><ele>185.0</ele><time>2026-04-11T16:01:33.124Z</time></trkpt><trkpt lat="44.2471783" lon="11.7614883"><ele>185.0</ele><time>2026-04-11T16:01:34.122Z</time></trkpt><trkpt lat="44.2472483" lon="11.761425"><ele>184.8</ele><time>2026-04-11T16:01:35.124Z</time></trkpt><trkpt lat="44.2472983" lon="11.7613333"><ele>184.6</ele><time>2026-04-11T16:01:36.124Z</time></trkpt><trkpt lat="44.2473333" lon="11.7611867"><ele>184.39999999999998</ele><time>2026-04-11T16:01:37.124Z</time></trkpt><trkpt lat="44.247345" lon="11.761025"><ele>184.2</ele><time>2026-04-11T16:01:38.124Z</time></trkpt><trkpt lat="44.247355" lon="11.7608617"><ele>184.0</ele><time>2026-04-11T16:01:39.123Z</time></trkpt><trkpt lat="44.247375" lon="11.7606817"><ele>183.25</ele><time>2026-04-11T16:01:40.124Z</time></trkpt><trkpt lat="44.2474033" lon="11.76053"><ele>182.5</ele><time>2026-04-11T16:01:41.124Z</time></trkpt><trkpt lat="44.2474567" lon="11.7603867"><ele>181.75</ele><time>2026-04-11T16:01:42.124Z</time></trkpt><trkpt lat="44.2475233" lon="11.760255"><ele>181.0</ele><time>2026-04-11T16:01:43.123Z</time></trkpt><trkpt lat="44.2475883" lon="11.76013"><ele>180.75</ele><time>2026-04-11T16:01:44.124Z</time></trkpt><trkpt lat="44.2476467" lon="11.759995"><ele>180.5</ele><time>2026-04-11T16:01:45.124Z</time></trkpt><trkpt lat="44.2476917" lon="11.7598517"><ele>180.25</ele><time>2026-04-11T16:01:46.125Z</time></trkpt><trkpt lat="44.2477233" lon="11.7596933"><ele>180.0</ele><time>2026-04-11T16:01:47.122Z</time></trkpt><trkpt lat="44.2477367" lon="11.7595267"><ele>178.5</ele><time>2026-04-11T16:01:48.123Z</time></trkpt><trkpt lat="44.2477267" lon="11.7593633"><ele>177.0</ele><time>2026-04-11T16:01:49.122Z</time></trkpt><trkpt lat="44.2476967" lon="11.759215"><ele>175.5</ele><time>2026-04-11T16:01:50.124Z</time></trkpt><trkpt lat="44.247645" lon="11.7590767"><ele>174.0</ele><time>2026-04-11T16:01:51.124Z</time></trkpt><trkpt lat="44.2475667" lon="11.7589383"><ele>174.0</ele><time>2026-04-11T16:01:52.124Z</time></trkpt><trkpt lat="44.2474817" lon="11.7587917"><ele>174.0</ele><time>2026-04-11T16:01:53.123Z</time></trkpt><trkpt lat="44.2473933" lon="11.75864"><ele>174.0</ele><time>2026-04-11T16:01:54.123Z</time></trkpt><trkpt lat="44.2473033" lon="11.758505"><ele>174.0</ele><time>2026-04-11T16:01:55.125Z</time></trkpt><trkpt lat="44.247215" lon="11.7584"><ele>175.2</ele><time>2026-04-11T16:01:56.124Z</time></trkpt><trkpt lat="44.2471367" lon="11.7583267"><ele>176.39999999999998</ele><time>2026-04-11T16:01:57.126Z</time></trkpt><trkpt lat="44.2470767" lon="11.7582783"><ele>177.6</ele><time>2026-04-11T16:01:58.125Z</time></trkpt><trkpt lat="44.2470167" lon="11.758215"><ele>178.8</ele><time>2026-04-11T16:02:00.125Z</time></trkpt><trkpt lat="44.2469183" lon="11.75817"><ele>180.0</ele><time>2026-04-11T16:02:03.125Z</time></trkpt><trkpt lat="44.2468383" lon="11.7580533"><ele>180.0</ele><time>2026-04-11T16:02:05.125Z</time></trkpt><trkpt lat="44.2468267" lon="11.7579333"><ele>180.0</ele><time>2026-04-11T16:02:06.125Z</time></trkpt><trkpt lat="44.246815" lon="11.7577883"><ele>180.0</ele><time>2026-04-11T16:02:07.126Z</time></trkpt><trkpt lat="44.246805" lon="11.75763"><ele>180.0</ele><time>2026-04-11T16:02:08.125Z</time></trkpt><trkpt lat="44.246805" lon="11.757465"><ele>180.0</ele><time>2026-04-11T16:02:09.125Z</time></trkpt><trkpt lat="44.2468233" lon="11.7573133"><ele>179.8</ele><time>2026-04-11T16:02:10.125Z</time></trkpt><trkpt lat="44.24686" lon="11.7572033"><ele>179.6</ele><time>2026-04-11T16:02:11.125Z</time></trkpt><trkpt lat="44.24692" lon="11.757135"><ele>179.39999999999998</ele><time>2026-04-11T16:02:12.125Z</time></trkpt><trkpt lat="44.2470017" lon="11.7571017"><ele>179.2</ele><time>2026-04-11T16:02:13.125Z</time></trkpt><trkpt lat="44.2471067" lon="11.7570967"><ele>179.0</ele><time>2026-04-11T16:02:14.125Z</time></trkpt><trkpt lat="44.2472083" lon="11.7570517"><ele>181.75</ele><time>2026-04-11T16:02:15.126Z</time></trkpt><trkpt lat="44.2473017" lon="11.7569583"><ele>184.5</ele><time>2026-04-11T16:02:16.125Z</time></trkpt><trkpt lat="44.2474067" lon="11.756865"><ele>187.25</ele><time>2026-04-11T16:02:17.125Z</time></trkpt><trkpt lat="44.2475233" lon="11.7568017"><ele>190.0</ele><time>2026-04-11T16:02:18.126Z</time></trkpt><trkpt lat="44.2476433" lon="11.756785"><ele>190.0</ele><time>2026-04-11T16:02:19.125Z</time></trkpt><trkpt lat="44.2477533" lon="11.75681"><ele>190.0</ele><time>2026-04-11T16:02:20.125Z</time></trkpt><trkpt lat="44.247855" lon="11.7568233"><ele>190.0</ele><time>2026-04-11T16:02:21.125Z</time></trkpt><trkpt lat="44.247955" lon="11.756795"><ele>190.0</ele><time>2026-04-11T16:02:22.125Z</time></trkpt><trkpt lat="44.2480617" lon="11.75674"><ele>190.0</ele><time>2026-04-11T16:02:23.125Z</time></trkpt><trkpt lat="44.2481833" lon="11.7566883"><ele>189.25</ele><time>2026-04-11T16:02:24.125Z</time></trkpt><trkpt lat="44.248315" lon="11.75666"><ele>188.5</ele><time>2026-04-11T16:02:25.125Z</time></trkpt><trkpt lat="44.2484567" lon="11.7566383"><ele>187.75</ele><time>2026-04-11T16:02:26.124Z</time></trkpt><trkpt lat="44.2486033" lon="11.7566083"><ele>187.0</ele><time>2026-04-11T16:02:27.125Z</time></trkpt><trkpt lat="44.248745" lon="11.756585"><ele>187.0</ele><time>2026-04-11T16:02:28.125Z</time></trkpt><trkpt lat="44.248875" lon="11.7565767"><ele>187.0</ele><time>2026-04-11T16:02:29.125Z</time></trkpt><trkpt lat="44.2489817" lon="11.7565733"><ele>187.0</ele><time>2026-04-11T16:02:30.124Z</time></trkpt><trkpt lat="44.2490683" lon="11.7565467"><ele>187.0</ele><time>2026-04-11T16:02:31.124Z</time></trkpt><trkpt lat="44.2491517" lon="11.7564817"><ele>187.0</ele><time>2026-04-11T16:02:32.124Z</time></trkpt><trkpt lat="44.249225" lon="11.7564"><ele>187.0</ele><time>2026-04-11T16:02:33.125Z</time></trkpt><trkpt lat="44.249295" lon="11.756325"><ele>187.0</ele><time>2026-04-11T16:02:34.123Z</time></trkpt><trkpt lat="44.24937" lon="11.756275"><ele>187.0</ele><time>2026-04-11T16:02:35.125Z</time></trkpt><trkpt lat="44.249455" lon="11.7562517"><ele>187.0</ele><time>2026-04-11T16:02:36.125Z</time></trkpt><trkpt lat="44.2495467" lon="11.7562467"><ele>187.0</ele><time>2026-04-11T16:02:37.124Z</time></trkpt><trkpt lat="44.2496333" lon="11.7563133"><ele>187.0</ele><time>2026-04-11T16:02:38.126Z</time></trkpt><trkpt lat="44.2497267" lon="11.756385"><ele>188.5</ele><time>2026-04-11T16:02:39.125Z</time></trkpt><trkpt lat="44.2498283" lon="11.75643"><ele>190.0</ele><time>2026-04-11T16:02:40.125Z</time></trkpt><trkpt lat="44.2499417" lon="11.7564533"><ele>191.5</ele><time>2026-04-11T16:02:41.124Z</time></trkpt><trkpt lat="44.2500583" lon="11.7564817"><ele>193.0</ele><time>2026-04-11T16:02:42.125Z</time></trkpt><trkpt lat="44.25018" lon="11.7565267"><ele>193.0</ele><time>2026-04-11T16:02:43.125Z</time></trkpt><trkpt lat="44.2502933" lon="11.756575"><ele>193.0</ele><time>2026-04-11T16:02:44.125Z</time></trkpt><trkpt lat="44.250405" lon="11.756615"><ele>193.0</ele><time>2026-04-11T16:02:45.125Z</time></trkpt><trkpt lat="44.250525" lon="11.756645"><ele>193.0</ele><time>2026-04-11T16:02:46.124Z</time></trkpt><trkpt lat="44.2506533" lon="11.75667"><ele>191.0</ele><time>2026-04-11T16:02:47.124Z</time></trkpt><trkpt lat="44.2507867" lon="11.7567067"><ele>189.0</ele><time>2026-04-11T16:02:48.125Z</time></trkpt><trkpt lat="44.250925" lon="11.7567617"><ele>187.0</ele><time>2026-04-11T16:02:49.124Z</time></trkpt><trkpt lat="44.25106" lon="11.7568367"><ele>185.0</ele><time>2026-04-11T16:02:50.124Z</time></trkpt><trkpt lat="44.2512017" lon="11.7569233"><ele>185.0</ele><time>2026-04-11T16:02:51.125Z</time></trkpt><trkpt lat="44.251345" lon="11.7570183"><ele>185.0</ele><time>2026-04-11T16:02:52.124Z</time></trkpt><trkpt lat="44.2514883" lon="11.757115"><ele>185.0</ele><time>2026-04-11T16:02:53.125Z</time></trkpt><trkpt lat="44.2516333" lon="11.7572233"><ele>188.33333333333331</ele><time>2026-04-11T16:02:54.124Z</time></trkpt><trkpt lat="44.25178" lon="11.7573383"><ele>191.66666666666666</ele><time>2026-04-11T16:02:55.123Z</time></trkpt><trkpt lat="44.2519283" lon="11.7574583"><ele>195.0</ele><time>2026-04-11T16:02:56.124Z</time></trkpt><trkpt lat="44.25208" lon="11.7575817"><ele>195.0</ele><time>2026-04-11T16:02:57.126Z</time></trkpt><trkpt lat="44.2522317" lon="11.7577033"><ele>195.0</ele><time>2026-04-11T16:02:58.125Z</time></trkpt><trkpt lat="44.2523767" lon="11.7578217"><ele>195.0</ele><time>2026-04-11T16:02:59.125Z</time></trkpt><trkpt lat="44.2525167" lon="11.7579367"><ele>195.0</ele><time>2026-04-11T16:03:00.125Z</time></trkpt><trkpt lat="44.2526483" lon="11.7580433"><ele>195.0</ele><time>2026-04-11T16:03:01.125Z</time></trkpt><trkpt lat="44.2527683" lon="11.758145"><ele>195.0</ele><time>2026-04-11T16:03:02.125Z</time></trkpt><trkpt lat="44.2528817" lon="11.7582383"><ele>195.0</ele><time>2026-04-11T16:03:03.125Z</time></trkpt><trkpt lat="44.2529933" lon="11.7583317"><ele>195.0</ele><time>2026-04-11T16:03:04.125Z</time></trkpt><trkpt lat="44.2530983" lon="11.7584217"><ele>195.0</ele><time>2026-04-11T16:03:05.124Z</time></trkpt><trkpt lat="44.2531983" lon="11.758505"><ele>195.0</ele><time>2026-04-11T16:03:06.125Z</time></trkpt><trkpt lat="44.2532917" lon="11.7585767"><ele>195.0</ele><time>2026-04-11T16:03:07.125Z</time></trkpt><trkpt lat="44.25338" lon="11.7586283"><ele>195.0</ele><time>2026-04-11T16:03:08.124Z</time></trkpt><trkpt lat="44.2534733" lon="11.7586567"><ele>194.2</ele><time>2026-04-11T16:03:09.125Z</time></trkpt><trkpt lat="44.2535667" lon="11.75867"><ele>193.4</ele><time>2026-04-11T16:03:10.125Z</time></trkpt><trkpt lat="44.253665" lon="11.7586833"><ele>192.60000000000002</ele><time>2026-04-11T16:03:11.125Z</time></trkpt><trkpt lat="44.253765" lon="11.758695"><ele>191.8</ele><time>2026-04-11T16:03:12.125Z</time></trkpt><trkpt lat="44.2538683" lon="11.758705"><ele>191.0</ele><time>2026-04-11T16:03:13.125Z</time></trkpt><trkpt lat="44.2539717" lon="11.7587083"><ele>190.4</ele><time>2026-04-11T16:03:14.125Z</time></trkpt><trkpt lat="44.2540717" lon="11.7587017"><ele>189.8</ele><time>2026-04-11T16:03:15.124Z</time></trkpt><trkpt lat="44.2541717" lon="11.7586983"><ele>189.20000000000002</ele><time>2026-04-11T16:03:16.125Z</time></trkpt><trkpt lat="44.2542717" lon="11.7586933"><ele>188.60000000000002</ele><time>2026-04-11T16:03:17.124Z</time></trkpt><trkpt lat="44.254375" lon="11.7586917"><ele>188.0</ele><time>2026-04-11T16:03:18.124Z</time></trkpt><trkpt lat="44.254485" lon="11.7587"><ele>188.0</ele><time>2026-04-11T16:03:19.124Z</time></trkpt><trkpt lat="44.2546017" lon="11.7587167"><ele>188.0</ele><time>2026-04-11T16:03:20.125Z</time></trkpt><trkpt lat="44.2547217" lon="11.7587333"><ele>188.0</ele><time>2026-04-11T16:03:21.125Z</time></trkpt><trkpt lat="44.25484" lon="11.75876"><ele>188.0</ele><time>2026-04-11T16:03:22.123Z</time></trkpt><trkpt lat="44.25495" lon="11.758805"><ele>188.5</ele><time>2026-04-11T16:03:23.125Z</time></trkpt><trkpt lat="44.2550583" lon="11.758875"><ele>189.0</ele><time>2026-04-11T16:03:24.125Z</time></trkpt><trkpt lat="44.2551683" lon="11.7589633"><ele>189.5</ele><time>2026-04-11T16:03:25.125Z</time></trkpt><trkpt lat="44.2552833" lon="11.75906"><ele>190.0</ele><time>2026-04-11T16:03:26.125Z</time></trkpt><trkpt lat="44.2553983" lon="11.7591783"><ele>190.0</ele><time>2026-04-11T16:03:27.126Z</time></trkpt><trkpt lat="44.2555083" lon="11.7593183"><ele>190.0</ele><time>2026-04-11T16:03:28.125Z</time></trkpt><trkpt lat="44.2556167" lon="11.759475"><ele>190.0</ele><time>2026-04-11T16:03:29.125Z</time></trkpt><trkpt lat="44.25573" lon="11.7596367"><ele>188.33333333333334</ele><time>2026-04-11T16:03:30.125Z</time></trkpt><trkpt lat="44.2558467" lon="11.7597933"><ele>186.66666666666666</ele><time>2026-04-11T16:03:31.126Z</time></trkpt><trkpt lat="44.25596" lon="11.7599483"><ele>185.0</ele><time>2026-04-11T16:03:32.125Z</time></trkpt><trkpt lat="44.25607" lon="11.7601033"><ele>184.25</ele><time>2026-04-11T16:03:33.124Z</time></trkpt><trkpt lat="44.2561767" lon="11.7602517"><ele>183.5</ele><time>2026-04-11T16:03:34.124Z</time></trkpt><trkpt lat="44.2562817" lon="11.7604017"><ele>182.75</ele><time>2026-04-11T16:03:35.124Z</time></trkpt><trkpt lat="44.2563817" lon="11.7605517"><ele>182.0</ele><time>2026-04-11T16:03:36.125Z</time></trkpt><trkpt lat="44.2564783" lon="11.760705"><ele>182.0</ele><time>2026-04-11T16:03:37.124Z</time></trkpt><trkpt lat="44.2565717" lon="11.7608483"><ele>182.0</ele><time>2026-04-11T16:03:38.124Z</time></trkpt><trkpt lat="44.256665" lon="11.760975"><ele>182.0</ele><time>2026-04-11T16:03:39.126Z</time></trkpt><trkpt lat="44.256765" lon="11.7610783"><ele>182.0</ele><time>2026-04-11T16:03:40.125Z</time></trkpt><trkpt lat="44.2568783" lon="11.7611667"><ele>180.0</ele><time>2026-04-11T16:03:41.125Z</time></trkpt><trkpt lat="44.2569917" lon="11.7612517"><ele>178.0</ele><time>2026-04-11T16:03:42.125Z</time></trkpt><trkpt lat="44.2571017" lon="11.7613483"><ele>176.0</ele><time>2026-04-11T16:03:43.125Z</time></trkpt><trkpt lat="44.2572117" lon="11.761455"><ele>174.0</ele><time>2026-04-11T16:03:44.125Z</time></trkpt><trkpt lat="44.2573183" lon="11.7615617"><ele>174.0</ele><time>2026-04-11T16:03:45.125Z</time></trkpt><trkpt lat="44.2574233" lon="11.7616533"><ele>174.0</ele><time>2026-04-11T16:03:46.125Z</time></trkpt><trkpt lat="44.257525" lon="11.7617183"><ele>174.0</ele><time>2026-04-11T16:03:47.125Z</time></trkpt><trkpt lat="44.2576217" lon="11.7617417"><ele>174.0</ele><time>2026-04-11T16:03:48.125Z</time></trkpt><trkpt lat="44.2577183" lon="11.7617317"><ele>174.0</ele><time>2026-04-11T16:03:49.125Z</time></trkpt><trkpt lat="44.257825" lon="11.761695"><ele>174.0</ele><time>2026-04-11T16:03:50.129Z</time></trkpt><trkpt lat="44.25794" lon="11.7616417"><ele>174.0</ele><time>2026-04-11T16:03:51.126Z</time></trkpt><trkpt lat="44.2580583" lon="11.761585"><ele>174.0</ele><time>2026-04-11T16:03:52.125Z</time></trkpt><trkpt lat="44.2581867" lon="11.7615283"><ele>174.0</ele><time>2026-04-11T16:03:53.126Z</time></trkpt><trkpt lat="44.2583183" lon="11.76147"><ele>172.5</ele><time>2026-04-11T16:03:54.125Z</time></trkpt><trkpt lat="44.2584467" lon="11.7614067"><ele>171.0</ele><time>2026-04-11T16:03:55.125Z</time></trkpt><trkpt lat="44.258565" lon="11.7613383"><ele>169.5</ele><time>2026-04-11T16:03:56.125Z</time></trkpt><trkpt lat="44.25867" lon="11.761265"><ele>168.0</ele><time>2026-04-11T16:03:57.125Z</time></trkpt><trkpt lat="44.2587683" lon="11.76117"><ele>168.0</ele><time>2026-04-11T16:03:58.125Z</time></trkpt><trkpt lat="44.2588583" lon="11.7610533"><ele>168.0</ele><time>2026-04-11T16:03:59.125Z</time></trkpt><trkpt lat="44.2589483" lon="11.7609233"><ele>168.0</ele><time>2026-04-11T16:04:00.125Z</time></trkpt><trkpt lat="44.2590367" lon="11.7607917"><ele>168.0</ele><time>2026-04-11T16:04:01.125Z</time></trkpt><trkpt lat="44.25912" lon="11.760655"><ele>167.60000000000002</ele><time>2026-04-11T16:04:02.125Z</time></trkpt><trkpt lat="44.25919" lon="11.7605167"><ele>167.20000000000002</ele><time>2026-04-11T16:04:03.128Z</time></trkpt><trkpt lat="44.25925" lon="11.760385"><ele>166.8</ele><time>2026-04-11T16:04:04.125Z</time></trkpt><trkpt lat="44.2593083" lon="11.7602883"><ele>166.4</ele><time>2026-04-11T16:04:05.125Z</time></trkpt><trkpt lat="44.259375" lon="11.7602267"><ele>166.0</ele><time>2026-04-11T16:04:06.125Z</time></trkpt><trkpt lat="44.25945" lon="11.7602"><ele>166.0</ele><time>2026-04-11T16:04:07.124Z</time></trkpt><trkpt lat="44.2595467" lon="11.7602017"><ele>166.0</ele><time>2026-04-11T16:04:08.125Z</time></trkpt><trkpt lat="44.2596683" lon="11.7601917"><ele>166.0</ele><time>2026-04-11T16:04:09.125Z</time></trkpt><trkpt lat="44.259795" lon="11.7601583"><ele>166.0</ele><time>2026-04-11T16:04:10.124Z</time></trkpt><trkpt lat="44.2599317" lon="11.7601133"><ele>165.5</ele><time>2026-04-11T16:04:11.124Z</time></trkpt><trkpt lat="44.2600767" lon="11.7600833"><ele>165.0</ele><time>2026-04-11T16:04:12.124Z</time></trkpt><trkpt lat="44.2602267" lon="11.7600733"><ele>164.5</ele><time>2026-04-11T16:04:13.124Z</time></trkpt><trkpt lat="44.2603767" lon="11.7600817"><ele>164.0</ele><time>2026-04-11T16:04:14.124Z</time></trkpt><trkpt lat="44.2605217" lon="11.7601083"><ele>161.25</ele><time>2026-04-11T16:04:15.125Z</time></trkpt><trkpt lat="44.2606583" lon="11.7601567"><ele>158.5</ele><time>2026-04-11T16:04:16.124Z</time></trkpt><trkpt lat="44.260785" lon="11.7602267"><ele>155.75</ele><time>2026-04-11T16:04:17.125Z</time></trkpt><trkpt lat="44.2609033" lon="11.7603033"><ele>153.0</ele><time>2026-04-11T16:04:18.125Z</time></trkpt><trkpt lat="44.26102" lon="11.7603783"><ele>150.25</ele><time>2026-04-11T16:04:19.124Z</time></trkpt><trkpt lat="44.26114" lon="11.7604483"><ele>147.5</ele><time>2026-04-11T16:04:20.124Z</time></trkpt><trkpt lat="44.2612633" lon="11.7605083"><ele>144.75</ele><time>2026-04-11T16:04:21.125Z</time></trkpt><trkpt lat="44.26139" lon="11.7605567"><ele>142.0</ele><time>2026-04-11T16:04:22.124Z</time></trkpt><trkpt lat="44.2615167" lon="11.7605933"><ele>140.75</ele><time>2026-04-11T16:04:23.124Z</time></trkpt><trkpt lat="44.2616417" lon="11.7606417"><ele>139.5</ele><time>2026-04-11T16:04:24.124Z</time></trkpt><trkpt lat="44.2617633" lon="11.7607"><ele>138.25</ele><time>2026-04-11T16:04:25.124Z</time></trkpt><trkpt lat="44.26188" lon="11.7607733"><ele>137.0</ele><time>2026-04-11T16:04:26.125Z</time></trkpt><trkpt lat="44.2620033" lon="11.76085"><ele>137.0</ele><time>2026-04-11T16:04:27.124Z</time></trkpt><trkpt lat="44.2621283" lon="11.76092"><ele>137.0</ele><time>2026-04-11T16:04:28.124Z</time></trkpt><trkpt lat="44.26225" lon="11.7609783"><ele>137.0</ele><time>2026-04-11T16:04:29.125Z</time></trkpt><trkpt lat="44.2623617" lon="11.7610233"><ele>137.0</ele><time>2026-04-11T16:04:30.124Z</time></trkpt><trkpt lat="44.26247" lon="11.761055"><ele>136.4</ele><time>2026-04-11T16:04:31.125Z</time></trkpt><trkpt lat="44.2625683" lon="11.76106"><ele>135.79999999999998</ele><time>2026-04-11T16:04:32.124Z</time></trkpt><trkpt lat="44.2626617" lon="11.7610417"><ele>135.2</ele><time>2026-04-11T16:04:33.125Z</time></trkpt><trkpt lat="44.2627483" lon="11.760995"><ele>134.6</ele><time>2026-04-11T16:04:34.124Z</time></trkpt><trkpt lat="44.2628417" lon="11.7609183"><ele>134.0</ele><time>2026-04-11T16:04:35.124Z</time></trkpt><trkpt lat="44.26294" lon="11.760825"><ele>134.0</ele><time>2026-04-11T16:04:36.125Z</time></trkpt><trkpt lat="44.26304" lon="11.7607367"><ele>134.0</ele><time>2026-04-11T16:04:37.125Z</time></trkpt><trkpt lat="44.2631383" lon="11.7606533"><ele>134.0</ele><time>2026-04-11T16:04:38.124Z</time></trkpt><trkpt lat="44.263235" lon="11.7605733"><ele>134.0</ele><time>2026-04-11T16:04:39.125Z</time></trkpt><trkpt lat="44.2633283" lon="11.7604883"><ele>131.66666666666666</ele><time>2026-04-11T16:04:40.124Z</time></trkpt><trkpt lat="44.2634117" lon="11.7604067"><ele>129.33333333333331</ele><time>2026-04-11T16:04:41.125Z</time></trkpt><trkpt lat="44.2634767" lon="11.7603217"><ele>127.0</ele><time>2026-04-11T16:04:42.125Z</time></trkpt><trkpt lat="44.2635217" lon="11.7602233"><ele>124.66666666666666</ele><time>2026-04-11T16:04:43.124Z</time></trkpt><trkpt lat="44.26354" lon="11.7601217"><ele>122.33333333333333</ele><time>2026-04-11T16:04:44.124Z</time></trkpt><trkpt lat="44.2635417" lon="11.76003"><ele>120.0</ele><time>2026-04-11T16:04:45.125Z</time></trkpt><trkpt lat="44.2635217" lon="11.7598683"><ele>120.0</ele><time>2026-04-11T16:04:47.123Z</time></trkpt><trkpt lat="44.263495" lon="11.75973"><ele>120.0</ele><time>2026-04-11T16:04:49.124Z</time></trkpt><trkpt lat="44.26348" lon="11.7596417"><ele>120.0</ele><time>2026-04-11T16:04:50.124Z</time></trkpt><trkpt lat="44.263465" lon="11.7595317"><ele>120.0</ele><time>2026-04-11T16:04:51.126Z</time></trkpt><trkpt lat="44.26345" lon="11.7593983"><ele>120.0</ele><time>2026-04-11T16:04:52.124Z</time></trkpt><trkpt lat="44.2634417" lon="11.7592467"><ele>119.25</ele><time>2026-04-11T16:04:53.124Z</time></trkpt><trkpt lat="44.2634317" lon="11.7590883"><ele>118.5</ele><time>2026-04-11T16:04:54.125Z</time></trkpt><trkpt lat="44.2634217" lon="11.75892"><ele>117.75</ele><time>2026-04-11T16:04:55.126Z</time></trkpt><trkpt lat="44.2634083" lon="11.7587517"><ele>117.0</ele><time>2026-04-11T16:04:56.125Z</time></trkpt><trkpt lat="44.2633967" lon="11.7585833"><ele>115.5</ele><time>2026-04-11T16:04:57.125Z</time></trkpt><trkpt lat="44.2633917" lon="11.75841"><ele>114.0</ele><time>2026-04-11T16:04:58.124Z</time></trkpt><trkpt lat="44.2633833" lon="11.7582267"><ele>112.5</ele><time>2026-04-11T16:04:59.124Z</time></trkpt><trkpt lat="44.263375" lon="11.758035"><ele>111.0</ele><time>2026-04-11T16:05:00.125Z</time></trkpt><trkpt lat="44.263365" lon="11.7578417"><ele>108.4</ele><time>2026-04-11T16:05:01.125Z</time></trkpt><trkpt lat="44.26335" lon="11.75766"><ele>105.8</ele><time>2026-04-11T16:05:02.124Z</time></trkpt><trkpt lat="44.2633417" lon="11.7574983"><ele>103.2</ele><time>2026-04-11T16:05:03.125Z</time></trkpt><trkpt lat="44.2633383" lon="11.7573583"><ele>100.60000000000001</ele><time>2026-04-11T16:05:04.125Z</time></trkpt><trkpt lat="44.263355" lon="11.757235"><ele>98.0</ele><time>2026-04-11T16:05:05.125Z</time></trkpt><trkpt lat="44.2633917" lon="11.7571417"><ele>97.99999999999999</ele><time>2026-04-11T16:05:06.123Z</time></trkpt><trkpt lat="44.26344" lon="11.7570733"><ele>98.0</ele><time>2026-04-11T16:05:07.125Z</time></trkpt><trkpt lat="44.263535" lon="11.757055"><ele>98.0</ele><time>2026-04-11T16:05:08.124Z</time></trkpt><trkpt lat="44.2636367" lon="11.7570517"><ele>98.0</ele><time>2026-04-11T16:05:09.125Z</time></trkpt><trkpt lat="44.26373" lon="11.757045"><ele>97.99999999999999</ele><time>2026-04-11T16:05:10.124Z</time></trkpt><trkpt lat="44.2638117" lon="11.7570333"><ele>98.0</ele><time>2026-04-11T16:05:11.124Z</time></trkpt><trkpt lat="44.2638767" lon="11.7570133"><ele>97.99999999999999</ele><time>2026-04-11T16:05:12.125Z</time></trkpt><trkpt lat="44.2639067" lon="11.7569033"><ele>98.0</ele><time>2026-04-11T16:05:14.125Z</time></trkpt><trkpt lat="44.2638317" lon="11.7568483"><ele>98.0</ele><time>2026-04-11T16:05:15.124Z</time></trkpt><trkpt lat="44.2637533" lon="11.7568117"><ele>98.0</ele><time>2026-04-11T16:05:16.125Z</time></trkpt><trkpt lat="44.2636617" lon="11.7567867"><ele>97.99999999999999</ele><time>2026-04-11T16:05:17.125Z</time></trkpt><trkpt lat="44.2635733" lon="11.7567633"><ele>98.0</ele><time>2026-04-11T16:05:18.124Z</time></trkpt><trkpt lat="44.26349" lon="11.75675"><ele>97.99999999999999</ele><time>2026-04-11T16:05:19.123Z</time></trkpt><trkpt lat="44.263415" lon="11.75675"><ele>98.0</ele><time>2026-04-11T16:05:20.125Z</time></trkpt><trkpt lat="44.26334" lon="11.7567817"><ele>98.0</ele><time>2026-04-11T16:05:21.129Z</time></trkpt><trkpt lat="44.2632683" lon="11.7568517"><ele>98.0</ele><time>2026-04-11T16:05:22.124Z</time></trkpt><trkpt lat="44.26319" lon="11.7569433"><ele>97.99999999999999</ele><time>2026-04-11T16:05:23.124Z</time></trkpt><trkpt lat="44.2631117" lon="11.7570333"><ele>98.0</ele><time>2026-04-11T16:05:24.125Z</time></trkpt><trkpt lat="44.26304" lon="11.75712"><ele>98.33333333333333</ele><time>2026-04-11T16:05:25.125Z</time></trkpt><trkpt lat="44.2629717" lon="11.7571883"><ele>98.66666666666666</ele><time>2026-04-11T16:05:26.125Z</time></trkpt><trkpt lat="44.262905" lon="11.7572317"><ele>99.0</ele><time>2026-04-11T16:05:27.125Z</time></trkpt><trkpt lat="44.2628333" lon="11.75725"><ele>99.33333333333334</ele><time>2026-04-11T16:05:28.125Z</time></trkpt><trkpt lat="44.2627583" lon="11.7571667"><ele>99.66666666666667</ele><time>2026-04-11T16:05:29.125Z</time></trkpt><trkpt lat="44.2626917" lon="11.7570617"><ele>100.0</ele><time>2026-04-11T16:05:30.124Z</time></trkpt><trkpt lat="44.26265" lon="11.7569367"><ele>98.2</ele><time>2026-04-11T16:05:31.124Z</time></trkpt><trkpt lat="44.2626283" lon="11.7567983"><ele>96.4</ele><time>2026-04-11T16:05:32.124Z</time></trkpt><trkpt lat="44.262645" lon="11.7566767"><ele>94.6</ele><time>2026-04-11T16:05:33.124Z</time></trkpt><trkpt lat="44.2626867" lon="11.7565533"><ele>92.8</ele><time>2026-04-11T16:05:34.125Z</time></trkpt><trkpt lat="44.2627367" lon="11.7564233"><ele>91.0</ele><time>2026-04-11T16:05:35.125Z</time></trkpt><trkpt lat="44.262775" lon="11.7562883"><ele>91.0</ele><time>2026-04-11T16:05:36.124Z</time></trkpt><trkpt lat="44.2627883" lon="11.7561567"><ele>91.0</ele><time>2026-04-11T16:05:37.124Z</time></trkpt><trkpt lat="44.26277" lon="11.7560233"><ele>91.0</ele><time>2026-04-11T16:05:38.125Z</time></trkpt><trkpt lat="44.262725" lon="11.7558867"><ele>91.0</ele><time>2026-04-11T16:05:39.125Z</time></trkpt><trkpt lat="44.262665" lon="11.7557433"><ele>91.0</ele><time>2026-04-11T16:05:40.124Z</time></trkpt><trkpt lat="44.2625933" lon="11.75559"><ele>88.33333333333333</ele><time>2026-04-11T16:05:41.124Z</time></trkpt><trkpt lat="44.262505" lon="11.7554317"><ele>85.66666666666667</ele><time>2026-04-11T16:05:42.124Z</time></trkpt><trkpt lat="44.2624117" lon="11.7552633"><ele>83.0</ele><time>2026-04-11T16:05:43.124Z</time></trkpt><trkpt lat="44.2623267" lon="11.755085"><ele>85.0</ele><time>2026-04-11T16:05:44.124Z</time></trkpt><trkpt lat="44.2622533" lon="11.7548967"><ele>87.0</ele><time>2026-04-11T16:05:45.123Z</time></trkpt><trkpt lat="44.2622017" lon="11.7547133"><ele>89.0</ele><time>2026-04-11T16:05:46.124Z</time></trkpt><trkpt lat="44.2621617" lon="11.7545667"><ele>91.0</ele><time>2026-04-11T16:05:47.123Z</time></trkpt><trkpt lat="44.2621367" lon="11.7544517"><ele>87.8</ele><time>2026-04-11T16:05:48.125Z</time></trkpt><trkpt lat="44.26213" lon="11.7543533"><ele>84.6</ele><time>2026-04-11T16:05:49.124Z</time></trkpt><trkpt lat="44.2621383" lon="11.7542517"><ele>81.4</ele><time>2026-04-11T16:05:50.125Z</time></trkpt><trkpt lat="44.2622117" lon="11.7541767"><ele>78.2</ele><time>2026-04-11T16:05:51.123Z</time></trkpt><trkpt lat="44.262305" lon="11.7540933"><ele>75.0</ele><time>2026-04-11T16:05:52.124Z</time></trkpt><trkpt lat="44.2624167" lon="11.754015"><ele>72.8</ele><time>2026-04-11T16:05:53.125Z</time></trkpt><trkpt lat="44.2625233" lon="11.7539283"><ele>70.6</ele><time>2026-04-11T16:05:54.124Z</time></trkpt><trkpt lat="44.2626283" lon="11.7538417"><ele>68.4</ele><time>2026-04-11T16:05:55.125Z</time></trkpt><trkpt lat="44.2627233" lon="11.753775"><ele>66.2</ele><time>2026-04-11T16:05:56.125Z</time></trkpt><trkpt lat="44.26281" lon="11.7537267"><ele>64.0</ele><time>2026-04-11T16:05:57.124Z</time></trkpt><trkpt lat="44.2628933" lon="11.7536967"><ele>64.0</ele><time>2026-04-11T16:05:58.124Z</time></trkpt><trkpt lat="44.26298" lon="11.7536717"><ele>64.0</ele><time>2026-04-11T16:05:59.124Z</time></trkpt><trkpt lat="44.2630717" lon="11.75365"><ele>64.0</ele><time>2026-04-11T16:06:00.125Z</time></trkpt><trkpt lat="44.26317" lon="11.7536417"><ele>64.0</ele><time>2026-04-11T16:06:01.124Z</time></trkpt><trkpt lat="44.2632633" lon="11.7536383"><ele>64.0</ele><time>2026-04-11T16:06:02.124Z</time></trkpt><trkpt lat="44.2633417" lon="11.753615"><ele>63.400000000000006</ele><time>2026-04-11T16:06:03.124Z</time></trkpt><trkpt lat="44.2634117" lon="11.7535567"><ele>62.800000000000004</ele><time>2026-04-11T16:06:04.124Z</time></trkpt><trkpt lat="44.2634667" lon="11.7534683"><ele>62.199999999999996</ele><time>2026-04-11T16:06:05.125Z</time></trkpt><trkpt lat="44.2635017" lon="11.75332"><ele>61.599999999999994</ele><time>2026-04-11T16:06:06.124Z</time></trkpt><trkpt lat="44.263515" lon="11.7531567"><ele>61.0</ele><time>2026-04-11T16:06:07.124Z</time></trkpt><trkpt lat="44.2635133" lon="11.753"><ele>62.5</ele><time>2026-04-11T16:06:08.124Z</time></trkpt><trkpt lat="44.2634867" lon="11.752855"><ele>64.0</ele><time>2026-04-11T16:06:09.126Z</time></trkpt><trkpt lat="44.2634467" lon="11.7527133"><ele>65.5</ele><time>2026-04-11T16:06:10.124Z</time></trkpt><trkpt lat="44.2633983" lon="11.7525633"><ele>67.0</ele><time>2026-04-11T16:06:11.124Z</time></trkpt><trkpt lat="44.2633533" lon="11.7524083"><ele>68.75</ele><time>2026-04-11T16:06:12.125Z</time></trkpt><trkpt lat="44.2633083" lon="11.7522467"><ele>70.5</ele><time>2026-04-11T16:06:13.125Z</time></trkpt><trkpt lat="44.26327" lon="11.75208"><ele>72.25</ele><time>2026-04-11T16:06:14.124Z</time></trkpt><trkpt lat="44.2632383" lon="11.7519083"><ele>74.0</ele><time>2026-04-11T16:06:15.125Z</time></trkpt><trkpt lat="44.2632283" lon="11.751745"><ele>75.5</ele><time>2026-04-11T16:06:16.124Z</time></trkpt><trkpt lat="44.2632483" lon="11.7515867"><ele>77.0</ele><time>2026-04-11T16:06:17.123Z</time></trkpt><trkpt lat="44.2632917" lon="11.7514217"><ele>78.5</ele><time>2026-04-11T16:06:18.124Z</time></trkpt><trkpt lat="44.26335" lon="11.7512467"><ele>80.0</ele><time>2026-04-11T16:06:19.124Z</time></trkpt><trkpt lat="44.2634167" lon="11.7510567"><ele>81.66666666666667</ele><time>2026-04-11T16:06:20.125Z</time></trkpt><trkpt lat="44.26349" lon="11.75086"><ele>83.33333333333333</ele><time>2026-04-11T16:06:21.125Z</time></trkpt><trkpt lat="44.2635667" lon="11.75066"><ele>85.0</ele><time>2026-04-11T16:06:22.123Z</time></trkpt><trkpt lat="44.2636467" lon="11.7504567"><ele>85.0</ele><time>2026-04-11T16:06:23.125Z</time></trkpt><trkpt lat="44.26373" lon="11.7502517"><ele>85.0</ele><time>2026-04-11T16:06:24.124Z</time></trkpt><trkpt lat="44.2638183" lon="11.7500467"><ele>85.0</ele><time>2026-04-11T16:06:25.124Z</time></trkpt><trkpt lat="44.2639067" lon="11.7498467"><ele>85.75</ele><time>2026-04-11T16:06:26.124Z</time></trkpt><trkpt lat="44.2639933" lon="11.7496617"><ele>86.5</ele><time>2026-04-11T16:06:27.125Z</time></trkpt><trkpt lat="44.2640767" lon="11.7494917"><ele>87.25</ele><time>2026-04-11T16:06:28.124Z</time></trkpt><trkpt lat="44.2641583" lon="11.749335"><ele>88.0</ele><time>2026-04-11T16:06:29.125Z</time></trkpt><trkpt lat="44.2642333" lon="11.7492"><ele>88.0</ele><time>2026-04-11T16:06:30.124Z</time></trkpt><trkpt lat="44.2643" lon="11.74909"><ele>88.0</ele><time>2026-04-11T16:06:31.124Z</time></trkpt><trkpt lat="44.264365" lon="11.7490083"><ele>88.0</ele><time>2026-04-11T16:06:32.125Z</time></trkpt><trkpt lat="44.264435" lon="11.748955"><ele>88.0</ele><time>2026-04-11T16:06:33.125Z</time></trkpt><trkpt lat="44.2645067" lon="11.7489267"><ele>88.0</ele><time>2026-04-11T16:06:34.124Z</time></trkpt><trkpt lat="44.2645817" lon="11.7489117"><ele>88.0</ele><time>2026-04-11T16:06:35.124Z</time></trkpt><trkpt lat="44.2646533" lon="11.7488983"><ele>88.0</ele><time>2026-04-11T16:06:36.124Z</time></trkpt><trkpt lat="44.2647167" lon="11.7488883"><ele>88.0</ele><time>2026-04-11T16:06:37.124Z</time></trkpt><trkpt lat="44.2648167" lon="11.74881"><ele>88.0</ele><time>2026-04-11T16:06:39.124Z</time></trkpt><trkpt lat="44.2648817" lon="11.748665"><ele>88.0</ele><time>2026-04-11T16:06:41.123Z</time></trkpt><trkpt lat="44.2649283" lon="11.74856"><ele>88.0</ele><time>2026-04-11T16:06:43.124Z</time></trkpt><trkpt lat="44.2649833" lon="11.748515"><ele>88.0</ele><time>2026-04-11T16:06:50.126Z</time></trkpt><trkpt lat="44.2650633" lon="11.7485817"><ele>88.0</ele><time>2026-04-11T16:06:52.125Z</time></trkpt><trkpt lat="44.26514" lon="11.7486583"><ele>88.0</ele><time>2026-04-11T16:06:53.126Z</time></trkpt><trkpt lat="44.26524" lon="11.7487517"><ele>88.0</ele><time>2026-04-11T16:06:54.127Z</time></trkpt><trkpt lat="44.2653483" lon="11.748885"><ele>88.0</ele><time>2026-04-11T16:06:55.125Z</time></trkpt><trkpt lat="44.2654433" lon="11.749"><ele>88.0</ele><time>2026-04-11T16:06:56.126Z</time></trkpt><trkpt lat="44.2655417" lon="11.749115"><ele>88.0</ele><time>2026-04-11T16:06:57.126Z</time></trkpt><trkpt lat="44.2656433" lon="11.749225"><ele>88.0</ele><time>2026-04-11T16:06:58.126Z</time></trkpt><trkpt lat="44.2657467" lon="11.7493233"><ele>87.75</ele><time>2026-04-11T16:06:59.127Z</time></trkpt><trkpt lat="44.2658467" lon="11.7494167"><ele>87.5</ele><time>2026-04-11T16:07:00.127Z</time></trkpt><trkpt lat="44.2659517" lon="11.7495167"><ele>87.25</ele><time>2026-04-11T16:07:01.126Z</time></trkpt><trkpt lat="44.2660533" lon="11.7496167"><ele>87.0</ele><time>2026-04-11T16:07:02.126Z</time></trkpt><trkpt lat="44.2661533" lon="11.7497083"><ele>87.0</ele><time>2026-04-11T16:07:03.127Z</time></trkpt><trkpt lat="44.26625" lon="11.7497967"><ele>87.0</ele><time>2026-04-11T16:07:04.126Z</time></trkpt><trkpt lat="44.2663417" lon="11.74988"><ele>87.0</ele><time>2026-04-11T16:07:05.123Z</time></trkpt><trkpt lat="44.2664283" lon="11.749955"><ele>87.0</ele><time>2026-04-11T16:07:06.124Z</time></trkpt><trkpt lat="44.2665083" lon="11.7500017"><ele>87.0</ele><time>2026-04-11T16:07:07.124Z</time></trkpt><trkpt lat="44.26659" lon="11.7500217"><ele>87.16666666666667</ele><time>2026-04-11T16:07:08.125Z</time></trkpt><trkpt lat="44.26667" lon="11.7500183"><ele>87.33333333333333</ele><time>2026-04-11T16:07:09.124Z</time></trkpt><trkpt lat="44.266745" lon="11.74999"><ele>87.5</ele><time>2026-04-11T16:07:10.124Z</time></trkpt><trkpt lat="44.2668267" lon="11.7499333"><ele>87.66666666666666</ele><time>2026-04-11T16:07:11.124Z</time></trkpt><trkpt lat="44.2669033" lon="11.7498517"><ele>87.83333333333333</ele><time>2026-04-11T16:07:12.124Z</time></trkpt><trkpt lat="44.2669867" lon="11.74979"><ele>88.0</ele><time>2026-04-11T16:07:13.128Z</time></trkpt><trkpt lat="44.2670817" lon="11.74976"><ele>88.0</ele><time>2026-04-11T16:07:14.124Z</time></trkpt><trkpt lat="44.2671883" lon="11.7497583"><ele>88.0</ele><time>2026-04-11T16:07:15.125Z</time></trkpt><trkpt lat="44.2673017" lon="11.7497733"><ele>88.0</ele><time>2026-04-11T16:07:16.124Z</time></trkpt><trkpt lat="44.2674167" lon="11.7498167"><ele>88.0</ele><time>2026-04-11T16:07:17.125Z</time></trkpt><trkpt lat="44.26753" lon="11.7498833"><ele>87.25</ele><time>2026-04-11T16:07:18.124Z</time></trkpt><trkpt lat="44.2676433" lon="11.749965"><ele>86.5</ele><time>2026-04-11T16:07:19.124Z</time></trkpt><trkpt lat="44.26776" lon="11.7500467"><ele>85.75</ele><time>2026-04-11T16:07:20.124Z</time></trkpt><trkpt lat="44.2678733" lon="11.7501283"><ele>85.0</ele><time>2026-04-11T16:07:21.124Z</time></trkpt><trkpt lat="44.2679867" lon="11.7501967"><ele>85.0</ele><time>2026-04-11T16:07:22.124Z</time></trkpt><trkpt lat="44.268095" lon="11.7502517"><ele>85.0</ele><time>2026-04-11T16:07:23.124Z</time></trkpt><trkpt lat="44.2682017" lon="11.750295"><ele>85.0</ele><time>2026-04-11T16:07:24.125Z</time></trkpt><trkpt lat="44.2683067" lon="11.75033"><ele>85.0</ele><time>2026-04-11T16:07:25.124Z</time></trkpt><trkpt lat="44.2684067" lon="11.7503633"><ele>85.0</ele><time>2026-04-11T16:07:26.124Z</time></trkpt><trkpt lat="44.268505" lon="11.7503933"><ele>85.0</ele><time>2026-04-11T16:07:27.125Z</time></trkpt><trkpt lat="44.2686033" lon="11.750425"><ele>85.0</ele><time>2026-04-11T16:07:28.124Z</time></trkpt><trkpt lat="44.2686917" lon="11.75046"><ele>85.0</ele><time>2026-04-11T16:07:29.124Z</time></trkpt><trkpt lat="44.2687683" lon="11.7505033"><ele>85.0</ele><time>2026-04-11T16:07:30.123Z</time></trkpt><trkpt lat="44.2688233" lon="11.75056"><ele>85.0</ele><time>2026-04-11T16:07:31.124Z</time></trkpt><trkpt lat="44.2688333" lon="11.7507367"><ele>85.0</ele><time>2026-04-11T16:07:33.124Z</time></trkpt><trkpt lat="44.2687933" lon="11.75086"><ele>85.0</ele><time>2026-04-11T16:07:34.124Z</time></trkpt><trkpt lat="44.2687333" lon="11.7509983"><ele>85.0</ele><time>2026-04-11T16:07:35.123Z</time></trkpt><trkpt lat="44.2686617" lon="11.7511483"><ele>85.0</ele><time>2026-04-11T16:07:36.122Z</time></trkpt><trkpt lat="44.2685867" lon="11.7513"><ele>84.75</ele><time>2026-04-11T16:07:37.124Z</time></trkpt><trkpt lat="44.2685167" lon="11.751445"><ele>84.5</ele><time>2026-04-11T16:07:38.123Z</time></trkpt><trkpt lat="44.2684467" lon="11.7515867"><ele>84.25</ele><time>2026-04-11T16:07:39.124Z</time></trkpt><trkpt lat="44.2683767" lon="11.751735"><ele>84.0</ele><time>2026-04-11T16:07:40.123Z</time></trkpt><trkpt lat="44.2683067" lon="11.7518967"><ele>83.75</ele><time>2026-04-11T16:07:41.125Z</time></trkpt><trkpt lat="44.2682333" lon="11.7520633"><ele>83.5</ele><time>2026-04-11T16:07:42.124Z</time></trkpt><trkpt lat="44.2681633" lon="11.7522317"><ele>83.25</ele><time>2026-04-11T16:07:43.124Z</time></trkpt><trkpt lat="44.2681017" lon="11.7524067"><ele>83.0</ele><time>2026-04-11T16:07:44.125Z</time></trkpt><trkpt lat="44.268055" lon="11.752595"><ele>82.33333333333334</ele><time>2026-04-11T16:07:45.125Z</time></trkpt><trkpt lat="44.268025" lon="11.7528067"><ele>81.66666666666667</ele><time>2026-04-11T16:07:46.124Z</time></trkpt><trkpt lat="44.2680033" lon="11.7530433"><ele>81.0</ele><time>2026-04-11T16:07:47.124Z</time></trkpt><trkpt lat="44.26798" lon="11.7533"><ele>80.66666666666667</ele><time>2026-04-11T16:07:48.125Z</time></trkpt><trkpt lat="44.26795" lon="11.753565"><ele>80.33333333333334</ele><time>2026-04-11T16:07:49.124Z</time></trkpt><trkpt lat="44.2679167" lon="11.753825"><ele>80.0</ele><time>2026-04-11T16:07:50.123Z</time></trkpt><trkpt lat="44.267885" lon="11.75407"><ele>80.0</ele><time>2026-04-11T16:07:51.125Z</time></trkpt><trkpt lat="44.2678567" lon="11.7542983"><ele>80.0</ele><time>2026-04-11T16:07:52.126Z</time></trkpt><trkpt lat="44.26783" lon="11.7545133"><ele>80.0</ele><time>2026-04-11T16:07:53.126Z</time></trkpt><trkpt lat="44.2678067" lon="11.75471"><ele>80.0</ele><time>2026-04-11T16:07:54.126Z</time></trkpt><trkpt lat="44.26779" lon="11.7548917"><ele>80.0</ele><time>2026-04-11T16:07:55.126Z</time></trkpt><trkpt lat="44.2677817" lon="11.75506"><ele>80.0</ele><time>2026-04-11T16:07:56.127Z</time></trkpt><trkpt lat="44.2677883" lon="11.7552233"><ele>80.0</ele><time>2026-04-11T16:07:57.125Z</time></trkpt><trkpt lat="44.2678083" lon="11.7553833"><ele>79.75</ele><time>2026-04-11T16:07:58.126Z</time></trkpt><trkpt lat="44.267835" lon="11.7555417"><ele>79.5</ele><time>2026-04-11T16:07:59.126Z</time></trkpt><trkpt lat="44.267855" lon="11.755705"><ele>79.25</ele><time>2026-04-11T16:08:00.126Z</time></trkpt><trkpt lat="44.26786" lon="11.75587"><ele>79.0</ele><time>2026-04-11T16:08:01.126Z</time></trkpt><trkpt lat="44.2678567" lon="11.7560367"><ele>77.0</ele><time>2026-04-11T16:08:02.126Z</time></trkpt><trkpt lat="44.2678533" lon="11.7561983"><ele>75.0</ele><time>2026-04-11T16:08:03.126Z</time></trkpt><trkpt lat="44.26786" lon="11.75638"><ele>73.0</ele><time>2026-04-11T16:08:04.126Z</time></trkpt><trkpt lat="44.267875" lon="11.7566"><ele>71.0</ele><time>2026-04-11T16:08:05.126Z</time></trkpt><trkpt lat="44.2678883" lon="11.7568517"><ele>68.33333333333334</ele><time>2026-04-11T16:08:06.126Z</time></trkpt><trkpt lat="44.2678967" lon="11.75712"><ele>65.66666666666667</ele><time>2026-04-11T16:08:07.126Z</time></trkpt><trkpt lat="44.2678967" lon="11.7573983"><ele>63.0</ele><time>2026-04-11T16:08:08.127Z</time></trkpt><trkpt lat="44.267895" lon="11.7576767"><ele>62.33333333333333</ele><time>2026-04-11T16:08:09.127Z</time></trkpt><trkpt lat="44.2678883" lon="11.7579467"><ele>61.666666666666664</ele><time>2026-04-11T16:08:10.126Z</time></trkpt><trkpt lat="44.2678717" lon="11.7581967"><ele>61.0</ele><time>2026-04-11T16:08:11.125Z</time></trkpt><trkpt lat="44.2678317" lon="11.7584267"><ele>60.666666666666664</ele><time>2026-04-11T16:08:12.126Z</time></trkpt><trkpt lat="44.2677683" lon="11.758635"><ele>60.33333333333333</ele><time>2026-04-11T16:08:13.126Z</time></trkpt><trkpt lat="44.26769" lon="11.7588233"><ele>60.0</ele><time>2026-04-11T16:08:14.126Z</time></trkpt><trkpt lat="44.267615" lon="11.7589967"><ele>60.0</ele><time>2026-04-11T16:08:15.124Z</time></trkpt><trkpt lat="44.2675633" lon="11.759155"><ele>60.0</ele><time>2026-04-11T16:08:16.124Z</time></trkpt><trkpt lat="44.2675417" lon="11.759315"><ele>60.0</ele><time>2026-04-11T16:08:17.124Z</time></trkpt><trkpt lat="44.2675567" lon="11.7594883"><ele>60.0</ele><time>2026-04-11T16:08:18.124Z</time></trkpt><trkpt lat="44.2675933" lon="11.7596817"><ele>59.0</ele><time>2026-04-11T16:08:19.124Z</time></trkpt><trkpt lat="44.26764" lon="11.7598967"><ele>58.0</ele><time>2026-04-11T16:08:20.124Z</time></trkpt><trkpt lat="44.2676883" lon="11.7601317"><ele>57.0</ele><time>2026-04-11T16:08:21.124Z</time></trkpt><trkpt lat="44.26774" lon="11.7603783"><ele>57.0</ele><time>2026-04-11T16:08:22.124Z</time></trkpt><trkpt lat="44.2677933" lon="11.7606317"><ele>57.0</ele><time>2026-04-11T16:08:23.124Z</time></trkpt><trkpt lat="44.26785" lon="11.7608933"><ele>57.0</ele><time>2026-04-11T16:08:24.125Z</time></trkpt><trkpt lat="44.2679117" lon="11.7611567"><ele>58.33333333333333</ele><time>2026-04-11T16:08:25.126Z</time></trkpt><trkpt lat="44.267985" lon="11.7614033"><ele>59.666666666666664</ele><time>2026-04-11T16:08:26.126Z</time></trkpt><trkpt lat="44.2680867" lon="11.7616167"><ele>61.0</ele><time>2026-04-11T16:08:27.126Z</time></trkpt><trkpt lat="44.2682133" lon="11.7618117"><ele>66.33333333333333</ele><time>2026-04-11T16:08:28.126Z</time></trkpt><trkpt lat="44.268365" lon="11.7619833"><ele>71.66666666666667</ele><time>2026-04-11T16:08:29.128Z</time></trkpt><trkpt lat="44.2685367" lon="11.762135"><ele>77.0</ele><time>2026-04-11T16:08:30.126Z</time></trkpt><trkpt lat="44.2687217" lon="11.76227"><ele>77.0</ele><time>2026-04-11T16:08:31.126Z</time></trkpt><trkpt lat="44.268915" lon="11.7623933"><ele>77.0</ele><time>2026-04-11T16:08:32.126Z</time></trkpt><trkpt lat="44.269105" lon="11.7625117"><ele>77.0</ele><time>2026-04-11T16:08:33.126Z</time></trkpt><trkpt lat="44.2692783" lon="11.7626367"><ele>79.0</ele><time>2026-04-11T16:08:34.126Z</time></trkpt><trkpt lat="44.26944" lon="11.7627783"><ele>81.0</ele><time>2026-04-11T16:08:35.125Z</time></trkpt><trkpt lat="44.2695933" lon="11.7629217"><ele>83.0</ele><time>2026-04-11T16:08:36.126Z</time></trkpt><trkpt lat="44.2697467" lon="11.7630467"><ele>78.33333333333334</ele><time>2026-04-11T16:08:37.127Z</time></trkpt><trkpt lat="44.2699033" lon="11.7631667"><ele>73.66666666666667</ele><time>2026-04-11T16:08:38.127Z</time></trkpt><trkpt lat="44.2700667" lon="11.7633083"><ele>69.0</ele><time>2026-04-11T16:08:39.126Z</time></trkpt><trkpt lat="44.2702367" lon="11.76346"><ele>67.66666666666667</ele><time>2026-04-11T16:08:40.126Z</time></trkpt><trkpt lat="44.270415" lon="11.7636083"><ele>66.33333333333334</ele><time>2026-04-11T16:08:41.125Z</time></trkpt><trkpt lat="44.2706033" lon="11.7637433"><ele>65.0</ele><time>2026-04-11T16:08:42.126Z</time></trkpt><trkpt lat="44.2708017" lon="11.7638633"><ele>65.0</ele><time>2026-04-11T16:08:43.127Z</time></trkpt><trkpt lat="44.2710067" lon="11.76396"><ele>65.0</ele><time>2026-04-11T16:08:44.129Z</time></trkpt><trkpt lat="44.27122" lon="11.7640317"><ele>65.0</ele><time>2026-04-11T16:08:45.126Z</time></trkpt><trkpt lat="44.2714317" lon="11.764085"><ele>62.66666666666667</ele><time>2026-04-11T16:08:46.127Z</time></trkpt><trkpt lat="44.2716317" lon="11.76413"><ele>60.33333333333333</ele><time>2026-04-11T16:08:47.125Z</time></trkpt><trkpt lat="44.2718183" lon="11.7641683"><ele>58.0</ele><time>2026-04-11T16:08:48.126Z</time></trkpt><trkpt lat="44.2719933" lon="11.7642133"><ele>58.0</ele><time>2026-04-11T16:08:49.124Z</time></trkpt><trkpt lat="44.2721617" lon="11.7642833"><ele>58.0</ele><time>2026-04-11T16:08:50.125Z</time></trkpt><trkpt lat="44.2723183" lon="11.764395"><ele>58.0</ele><time>2026-04-11T16:08:51.124Z</time></trkpt><trkpt lat="44.2724683" lon="11.76455"><ele>57.0</ele><time>2026-04-11T16:08:52.123Z</time></trkpt><trkpt lat="44.27262" lon="11.7647283"><ele>56.0</ele><time>2026-04-11T16:08:53.124Z</time></trkpt><trkpt lat="44.27278" lon="11.7649117"><ele>55.0</ele><time>2026-04-11T16:08:54.124Z</time></trkpt><trkpt lat="44.27294" lon="11.765095"><ele>55.0</ele><time>2026-04-11T16:08:55.124Z</time></trkpt><trkpt lat="44.273095" lon="11.7652667"><ele>55.0</ele><time>2026-04-11T16:08:56.125Z</time></trkpt><trkpt lat="44.2732333" lon="11.76542"><ele>55.0</ele><time>2026-04-11T16:08:57.124Z</time></trkpt><trkpt lat="44.2733467" lon="11.765565"><ele>55.0</ele><time>2026-04-11T16:08:58.123Z</time></trkpt><trkpt lat="44.27343" lon="11.76573"><ele>55.0</ele><time>2026-04-11T16:08:59.125Z</time></trkpt><trkpt lat="44.273475" lon="11.7659167"><ele>55.0</ele><time>2026-04-11T16:09:00.125Z</time></trkpt><trkpt lat="44.2734767" lon="11.7661267"><ele>55.0</ele><time>2026-04-11T16:09:01.125Z</time></trkpt><trkpt lat="44.2734567" lon="11.766345"><ele>55.5</ele><time>2026-04-11T16:09:02.124Z</time></trkpt><trkpt lat="44.2734483" lon="11.7665517"><ele>56.0</ele><time>2026-04-11T16:09:03.124Z</time></trkpt><trkpt lat="44.2734767" lon="11.7667417"><ele>56.5</ele><time>2026-04-11T16:09:04.124Z</time></trkpt><trkpt lat="44.2735483" lon="11.766915"><ele>57.0</ele><time>2026-04-11T16:09:05.124Z</time></trkpt><trkpt lat="44.2736567" lon="11.7670817"><ele>57.33333333333333</ele><time>2026-04-11T16:09:06.124Z</time></trkpt><trkpt lat="44.273785" lon="11.76725"><ele>57.666666666666664</ele><time>2026-04-11T16:09:07.124Z</time></trkpt><trkpt lat="44.273925" lon="11.76743"><ele>58.0</ele><time>2026-04-11T16:09:08.126Z</time></trkpt><trkpt lat="44.2740767" lon="11.76761"><ele>61.0</ele><time>2026-04-11T16:09:09.124Z</time></trkpt><trkpt lat="44.2742383" lon="11.767785"><ele>64.0</ele><time>2026-04-11T16:09:10.124Z</time></trkpt><trkpt lat="44.2744033" lon="11.7679517"><ele>67.0</ele><time>2026-04-11T16:09:11.124Z</time></trkpt><trkpt lat="44.2745617" lon="11.7681083"><ele>67.0</ele><time>2026-04-11T16:09:12.124Z</time></trkpt><trkpt lat="44.27471" lon="11.7682567"><ele>67.0</ele><time>2026-04-11T16:09:13.123Z</time></trkpt><trkpt lat="44.2748483" lon="11.768395"><ele>67.0</ele><time>2026-04-11T16:09:14.125Z</time></trkpt><trkpt lat="44.2749917" lon="11.7685083"><ele>67.0</ele><time>2026-04-11T16:09:15.126Z</time></trkpt><trkpt lat="44.27515" lon="11.76859"><ele>67.0</ele><time>2026-04-11T16:09:16.123Z</time></trkpt><trkpt lat="44.2753283" lon="11.7686433"><ele>67.0</ele><time>2026-04-11T16:09:17.124Z</time></trkpt><trkpt lat="44.275515" lon="11.7686967"><ele>67.0</ele><time>2026-04-11T16:09:18.123Z</time></trkpt><trkpt lat="44.275705" lon="11.7687783"><ele>67.0</ele><time>2026-04-11T16:09:19.124Z</time></trkpt><trkpt lat="44.27589" lon="11.7688933"><ele>67.0</ele><time>2026-04-11T16:09:20.124Z</time></trkpt><trkpt lat="44.276075" lon="11.7690367"><ele>67.0</ele><time>2026-04-11T16:09:21.124Z</time></trkpt><trkpt lat="44.2762533" lon="11.7691983"><ele>67.0</ele><time>2026-04-11T16:09:22.123Z</time></trkpt><trkpt lat="44.2764333" lon="11.7693617"><ele>67.0</ele><time>2026-04-11T16:09:23.123Z</time></trkpt><trkpt lat="44.27661" lon="11.7695233"><ele>67.66666666666666</ele><time>2026-04-11T16:09:24.124Z</time></trkpt><trkpt lat="44.276785" lon="11.769685"><ele>68.33333333333333</ele><time>2026-04-11T16:09:25.124Z</time></trkpt><trkpt lat="44.2769583" lon="11.7698533"><ele>69.0</ele><time>2026-04-11T16:09:26.123Z</time></trkpt><trkpt lat="44.2771333" lon="11.7700333"><ele>68.5</ele><time>2026-04-11T16:09:27.125Z</time></trkpt><trkpt lat="44.2773117" lon="11.7702183"><ele>68.0</ele><time>2026-04-11T16:09:28.124Z</time></trkpt><trkpt lat="44.277495" lon="11.77041"><ele>68.0</ele><time>2026-04-11T16:09:29.124Z</time></trkpt><trkpt lat="44.2776817" lon="11.7706033"><ele>68.0</ele><time>2026-04-11T16:09:30.126Z</time></trkpt><trkpt lat="44.27787" lon="11.7707983"><ele>68.0</ele><time>2026-04-11T16:09:31.124Z</time></trkpt><trkpt lat="44.27806" lon="11.7709933"><ele>68.0</ele><time>2026-04-11T16:09:32.125Z</time></trkpt><trkpt lat="44.278255" lon="11.7711767"><ele>69.0</ele><time>2026-04-11T16:09:33.125Z</time></trkpt><trkpt lat="44.27846" lon="11.7713433"><ele>70.0</ele><time>2026-04-11T16:09:34.124Z</time></trkpt><trkpt lat="44.2786717" lon="11.77149"><ele>70.0</ele><time>2026-04-11T16:09:35.124Z</time></trkpt><trkpt lat="44.2788867" lon="11.7716267"><ele>70.0</ele><time>2026-04-11T16:09:36.124Z</time></trkpt><trkpt lat="44.2791" lon="11.7717617"><ele>71.5</ele><time>2026-04-11T16:09:37.124Z</time></trkpt><trkpt lat="44.2793083" lon="11.7718967"><ele>73.0</ele><time>2026-04-11T16:09:38.124Z</time></trkpt><trkpt lat="44.2795133" lon="11.7720383"><ele>73.0</ele><time>2026-04-11T16:09:39.124Z</time></trkpt><trkpt lat="44.279715" lon="11.772185"><ele>73.0</ele><time>2026-04-11T16:09:40.124Z</time></trkpt><trkpt lat="44.279915" lon="11.7723417"><ele>72.5</ele><time>2026-04-11T16:09:41.123Z</time></trkpt><trkpt lat="44.2801133" lon="11.7725033"><ele>72.0</ele><time>2026-04-11T16:09:42.125Z</time></trkpt><trkpt lat="44.280315" lon="11.772665"><ele>72.0</ele><time>2026-04-11T16:09:43.123Z</time></trkpt><trkpt lat="44.2805167" lon="11.7728283"><ele>72.0</ele><time>2026-04-11T16:09:44.124Z</time></trkpt><trkpt lat="44.2807233" lon="11.7729883"><ele>70.0</ele><time>2026-04-11T16:09:45.124Z</time></trkpt><trkpt lat="44.2809317" lon="11.7731433"><ele>68.0</ele><time>2026-04-11T16:09:46.123Z</time></trkpt><trkpt lat="44.2811433" lon="11.7732917"><ele>68.0</ele><time>2026-04-11T16:09:47.123Z</time></trkpt><trkpt lat="44.2813517" lon="11.77343"><ele>68.0</ele><time>2026-04-11T16:09:48.124Z</time></trkpt><trkpt lat="44.28155" lon="11.7735583"><ele>68.0</ele><time>2026-04-11T16:09:49.126Z</time></trkpt><trkpt lat="44.2817367" lon="11.7736767"><ele>68.33333333333334</ele><time>2026-04-11T16:09:50.123Z</time></trkpt><trkpt lat="44.2819183" lon="11.7737817"><ele>68.66666666666667</ele><time>2026-04-11T16:09:51.124Z</time></trkpt><trkpt lat="44.2820933" lon="11.7738717"><ele>69.0</ele><time>2026-04-11T16:09:52.125Z</time></trkpt><trkpt lat="44.282265" lon="11.773965"><ele>69.0</ele><time>2026-04-11T16:09:53.124Z</time></trkpt><trkpt lat="44.282435" lon="11.7740817"><ele>69.0</ele><time>2026-04-11T16:09:54.124Z</time></trkpt><trkpt lat="44.2826033" lon="11.7742133"><ele>69.0</ele><time>2026-04-11T16:09:55.124Z</time></trkpt><trkpt lat="44.2827767" lon="11.7743533"><ele>69.33333333333333</ele><time>2026-04-11T16:09:56.124Z</time></trkpt><trkpt lat="44.2829583" lon="11.7745"><ele>69.66666666666666</ele><time>2026-04-11T16:09:57.124Z</time></trkpt><trkpt lat="44.2831417" lon="11.7746567"><ele>70.0</ele><time>2026-04-11T16:09:58.124Z</time></trkpt><trkpt lat="44.28333" lon="11.7748167"><ele>68.5</ele><time>2026-04-11T16:09:59.123Z</time></trkpt><trkpt lat="44.2835233" lon="11.7749783"><ele>67.0</ele><time>2026-04-11T16:10:00.124Z</time></trkpt><trkpt lat="44.28372" lon="11.77514"><ele>67.5</ele><time>2026-04-11T16:10:01.124Z</time></trkpt><trkpt lat="44.28392" lon="11.7753033"><ele>68.0</ele><time>2026-04-11T16:10:02.124Z</time></trkpt><trkpt lat="44.2841217" lon="11.7754683"><ele>67.0</ele><time>2026-04-11T16:10:03.125Z</time></trkpt><trkpt lat="44.2843267" lon="11.775635"><ele>66.0</ele><time>2026-04-11T16:10:04.124Z</time></trkpt><trkpt lat="44.28453" lon="11.7758017"><ele>66.0</ele><time>2026-04-11T16:10:05.124Z</time></trkpt><trkpt lat="44.2847333" lon="11.7759667"><ele>66.0</ele><time>2026-04-11T16:10:06.129Z</time></trkpt><trkpt lat="44.284935" lon="11.7761267"><ele>65.0</ele><time>2026-04-11T16:10:07.125Z</time></trkpt><trkpt lat="44.2851367" lon="11.7762833"><ele>64.0</ele><time>2026-04-11T16:10:08.124Z</time></trkpt><trkpt lat="44.2853367" lon="11.7764383"><ele>64.0</ele><time>2026-04-11T16:10:09.124Z</time></trkpt><trkpt lat="44.2855383" lon="11.7765933"><ele>64.0</ele><time>2026-04-11T16:10:10.125Z</time></trkpt><trkpt lat="44.2857433" lon="11.7767483"><ele>64.0</ele><time>2026-04-11T16:10:11.124Z</time></trkpt><trkpt lat="44.28595" lon="11.776905"><ele>64.0</ele><time>2026-04-11T16:10:12.124Z</time></trkpt><trkpt lat="44.286155" lon="11.777065"><ele>64.0</ele><time>2026-04-11T16:10:13.123Z</time></trkpt><trkpt lat="44.2863617" lon="11.7772267"><ele>64.0</ele><time>2026-04-11T16:10:14.124Z</time></trkpt><trkpt lat="44.2865717" lon="11.7773883"><ele>63.0</ele><time>2026-04-11T16:10:15.125Z</time></trkpt><trkpt lat="44.2867817" lon="11.77755"><ele>62.0</ele><time>2026-04-11T16:10:16.124Z</time></trkpt><trkpt lat="44.2869917" lon="11.77771"><ele>62.0</ele><time>2026-04-11T16:10:17.124Z</time></trkpt><trkpt lat="44.2872" lon="11.77787"><ele>62.0</ele><time>2026-04-11T16:10:18.124Z</time></trkpt><trkpt lat="44.2874083" lon="11.7780317"><ele>60.5</ele><time>2026-04-11T16:10:19.124Z</time></trkpt><trkpt lat="44.2876133" lon="11.7781983"><ele>59.0</ele><time>2026-04-11T16:10:20.125Z</time></trkpt><trkpt lat="44.287815" lon="11.7783717"><ele>59.333333333333336</ele><time>2026-04-11T16:10:21.125Z</time></trkpt><trkpt lat="44.2880067" lon="11.77855"><ele>59.66666666666667</ele><time>2026-04-11T16:10:22.125Z</time></trkpt><trkpt lat="44.2881833" lon="11.7787233"><ele>60.0</ele><time>2026-04-11T16:10:23.124Z</time></trkpt><trkpt lat="44.2883483" lon="11.77889"><ele>60.0</ele><time>2026-04-11T16:10:24.124Z</time></trkpt><trkpt lat="44.2885083" lon="11.7790567"><ele>60.0</ele><time>2026-04-11T16:10:25.124Z</time></trkpt><trkpt lat="44.2886717" lon="11.77922"><ele>60.0</ele><time>2026-04-11T16:10:26.124Z</time></trkpt><trkpt lat="44.28884" lon="11.7793833"><ele>60.0</ele><time>2026-04-11T16:10:27.128Z</time></trkpt><trkpt lat="44.2890117" lon="11.77955"><ele>60.0</ele><time>2026-04-11T16:10:28.123Z</time></trkpt><trkpt lat="44.2891833" lon="11.7797233"><ele>60.0</ele><time>2026-04-11T16:10:29.124Z</time></trkpt><trkpt lat="44.289355" lon="11.779895"><ele>60.0</ele><time>2026-04-11T16:10:30.124Z</time></trkpt><trkpt lat="44.2895233" lon="11.78006"><ele>60.0</ele><time>2026-04-11T16:10:31.123Z</time></trkpt><trkpt lat="44.2896867" lon="11.7802067"><ele>60.0</ele><time>2026-04-11T16:10:32.123Z</time></trkpt><trkpt lat="44.28985" lon="11.7803267"><ele>59.0</ele><time>2026-04-11T16:10:33.124Z</time></trkpt><trkpt lat="44.290015" lon="11.780405"><ele>58.0</ele><time>2026-04-11T16:10:34.123Z</time></trkpt><trkpt lat="44.290185" lon="11.7804367"><ele>57.0</ele><time>2026-04-11T16:10:35.123Z</time></trkpt><trkpt lat="44.29036" lon="11.7804267"><ele>57.0</ele><time>2026-04-11T16:10:36.123Z</time></trkpt><trkpt lat="44.290535" lon="11.7803983"><ele>57.0</ele><time>2026-04-11T16:10:37.124Z</time></trkpt><trkpt lat="44.2906933" lon="11.780385"><ele>57.0</ele><time>2026-04-11T16:10:38.124Z</time></trkpt><trkpt lat="44.2908333" lon="11.7804183"><ele>57.0</ele><time>2026-04-11T16:10:39.125Z</time></trkpt><trkpt lat="44.2909683" lon="11.7804817"><ele>57.0</ele><time>2026-04-11T16:10:40.124Z</time></trkpt><trkpt lat="44.2911033" lon="11.7805617"><ele>57.0</ele><time>2026-04-11T16:10:41.123Z</time></trkpt><trkpt lat="44.2912383" lon="11.7806583"><ele>57.0</ele><time>2026-04-11T16:10:42.123Z</time></trkpt><trkpt lat="44.291365" lon="11.7807817"><ele>56.0</ele><time>2026-04-11T16:10:43.123Z</time></trkpt><trkpt lat="44.2914833" lon="11.780935"><ele>55.0</ele><time>2026-04-11T16:10:44.125Z</time></trkpt><trkpt lat="44.2915867" lon="11.781115"><ele>54.0</ele><time>2026-04-11T16:10:45.124Z</time></trkpt><trkpt lat="44.291675" lon="11.781315"><ele>54.0</ele><time>2026-04-11T16:10:46.124Z</time></trkpt><trkpt lat="44.2917617" lon="11.781525"><ele>54.0</ele><time>2026-04-11T16:10:47.124Z</time></trkpt><trkpt lat="44.2918517" lon="11.781735"><ele>54.0</ele><time>2026-04-11T16:10:48.124Z</time></trkpt><trkpt lat="44.29194" lon="11.7819467"><ele>54.66666666666667</ele><time>2026-04-11T16:10:49.124Z</time></trkpt><trkpt lat="44.2920283" lon="11.7821517"><ele>55.333333333333336</ele><time>2026-04-11T16:10:50.124Z</time></trkpt><trkpt lat="44.2921183" lon="11.7823367"><ele>56.0</ele><time>2026-04-11T16:10:51.124Z</time></trkpt><trkpt lat="44.2922083" lon="11.78249"><ele>56.00000000000001</ele><time>2026-04-11T16:10:52.123Z</time></trkpt><trkpt lat="44.29229" lon="11.7826067"><ele>56.0</ele><time>2026-04-11T16:10:53.125Z</time></trkpt><trkpt lat="44.2923583" lon="11.7826883"><ele>56.0</ele><time>2026-04-11T16:10:54.124Z</time></trkpt><trkpt lat="44.2924033" lon="11.78276"><ele>56.0</ele><time>2026-04-11T16:10:55.128Z</time></trkpt><trkpt lat="44.2924167" lon="11.782905"><ele>56.00000000000001</ele><time>2026-04-11T16:10:57.126Z</time></trkpt><trkpt lat="44.292375" lon="11.7829767"><ele>56.0</ele><time>2026-04-11T16:10:58.125Z</time></trkpt><trkpt lat="44.292315" lon="11.78304"><ele>56.5</ele><time>2026-04-11T16:10:59.123Z</time></trkpt><trkpt lat="44.2922467" lon="11.7831083"><ele>57.0</ele><time>2026-04-11T16:11:00.123Z</time></trkpt><trkpt lat="44.2921567" lon="11.7831967"><ele>57.5</ele><time>2026-04-11T16:11:01.124Z</time></trkpt><trkpt lat="44.29204" lon="11.7833217"><ele>58.0</ele><time>2026-04-11T16:11:02.124Z</time></trkpt><trkpt lat="44.2919183" lon="11.7834583"><ele>59.0</ele><time>2026-04-11T16:11:03.123Z</time></trkpt><trkpt lat="44.2917883" lon="11.7836067"><ele>60.0</ele><time>2026-04-11T16:11:04.124Z</time></trkpt><trkpt lat="44.2916533" lon="11.7837583"><ele>61.0</ele><time>2026-04-11T16:11:05.124Z</time></trkpt><trkpt lat="44.291525" lon="11.7839033"><ele>62.0</ele><time>2026-04-11T16:11:06.124Z</time></trkpt><trkpt lat="44.2914167" lon="11.7840433"><ele>63.0</ele><time>2026-04-11T16:11:07.123Z</time></trkpt><trkpt lat="44.2913433" lon="11.78419"><ele>64.0</ele><time>2026-04-11T16:11:08.123Z</time></trkpt><trkpt lat="44.29132" lon="11.78436"><ele>65.0</ele><time>2026-04-11T16:11:09.124Z</time></trkpt><trkpt lat="44.2913433" lon="11.784545"><ele>66.66666666666667</ele><time>2026-04-11T16:11:10.123Z</time></trkpt><trkpt lat="44.291405" lon="11.7847317"><ele>68.33333333333333</ele><time>2026-04-11T16:11:11.124Z</time></trkpt><trkpt lat="44.2914883" lon="11.78492"><ele>70.0</ele><time>2026-04-11T16:11:12.124Z</time></trkpt><trkpt lat="44.2915767" lon="11.7850983"><ele>74.33333333333333</ele><time>2026-04-11T16:11:13.123Z</time></trkpt><trkpt lat="44.29168" lon="11.7852633"><ele>78.66666666666667</ele><time>2026-04-11T16:11:14.123Z</time></trkpt><trkpt lat="44.2917883" lon="11.785415"><ele>83.0</ele><time>2026-04-11T16:11:15.123Z</time></trkpt><trkpt lat="44.29189" lon="11.7855683"><ele>83.0</ele><time>2026-04-11T16:11:16.123Z</time></trkpt><trkpt lat="44.29199" lon="11.78574"><ele>83.0</ele><time>2026-04-11T16:11:17.123Z</time></trkpt><trkpt lat="44.2920867" lon="11.7859283"><ele>83.0</ele><time>2026-04-11T16:11:18.125Z</time></trkpt><trkpt lat="44.29219" lon="11.786115"><ele>83.0</ele><time>2026-04-11T16:11:19.124Z</time></trkpt><trkpt lat="44.2923017" lon="11.7863033"><ele>83.0</ele><time>2026-04-11T16:11:20.124Z</time></trkpt><trkpt lat="44.2924233" lon="11.786485"><ele>83.0</ele><time>2026-04-11T16:11:21.123Z</time></trkpt><trkpt lat="44.2925333" lon="11.7866567"><ele>83.0</ele><time>2026-04-11T16:11:22.125Z</time></trkpt><trkpt lat="44.29262" lon="11.78682"><ele>83.0</ele><time>2026-04-11T16:11:23.123Z</time></trkpt><trkpt lat="44.2926733" lon="11.7869817"><ele>83.0</ele><time>2026-04-11T16:11:24.124Z</time></trkpt><trkpt lat="44.29269" lon="11.7871517"><ele>83.0</ele><time>2026-04-11T16:11:25.124Z</time></trkpt><trkpt lat="44.29268" lon="11.7873317"><ele>83.66666666666667</ele><time>2026-04-11T16:11:26.122Z</time></trkpt><trkpt lat="44.2926367" lon="11.7875117"><ele>84.33333333333333</ele><time>2026-04-11T16:11:27.123Z</time></trkpt><trkpt lat="44.292555" lon="11.7876933"><ele>85.0</ele><time>2026-04-11T16:11:28.123Z</time></trkpt><trkpt lat="44.29246" lon="11.7878883"><ele>85.0</ele><time>2026-04-11T16:11:29.124Z</time></trkpt><trkpt lat="44.292365" lon="11.7880983"><ele>85.0</ele><time>2026-04-11T16:11:30.124Z</time></trkpt><trkpt lat="44.2922683" lon="11.7883133"><ele>85.0</ele><time>2026-04-11T16:11:31.124Z</time></trkpt><trkpt lat="44.2921783" lon="11.78853"><ele>89.33333333333333</ele><time>2026-04-11T16:11:32.123Z</time></trkpt><trkpt lat="44.29211" lon="11.7887533"><ele>93.66666666666666</ele><time>2026-04-11T16:11:33.124Z</time></trkpt><trkpt lat="44.29207" lon="11.7889783"><ele>98.0</ele><time>2026-04-11T16:11:34.123Z</time></trkpt><trkpt lat="44.29205" lon="11.7891933"><ele>96.2</ele><time>2026-04-11T16:11:35.122Z</time></trkpt><trkpt lat="44.2920367" lon="11.78937"><ele>94.4</ele><time>2026-04-11T16:11:36.124Z</time></trkpt><trkpt lat="44.2920033" lon="11.7894983"><ele>92.60000000000001</ele><time>2026-04-11T16:11:37.123Z</time></trkpt><trkpt lat="44.2919533" lon="11.7895783"><ele>90.80000000000001</ele><time>2026-04-11T16:11:38.123Z</time></trkpt><trkpt lat="44.291885" lon="11.78963"><ele>89.0</ele><time>2026-04-11T16:11:39.124Z</time></trkpt><trkpt lat="44.2917583" lon="11.7896117"><ele>89.0</ele><time>2026-04-11T16:11:40.124Z</time></trkpt><trkpt lat="44.291635" lon="11.78958"><ele>89.0</ele><time>2026-04-11T16:11:41.124Z</time></trkpt><trkpt lat="44.2915133" lon="11.7895633"><ele>89.0</ele><time>2026-04-11T16:11:42.123Z</time></trkpt><trkpt lat="44.2914017" lon="11.7895933"><ele>89.0</ele><time>2026-04-11T16:11:43.123Z</time></trkpt><trkpt lat="44.2912983" lon="11.7896933"><ele>90.33333333333334</ele><time>2026-04-11T16:11:44.123Z</time></trkpt><trkpt lat="44.291205" lon="11.7898583"><ele>91.66666666666667</ele><time>2026-04-11T16:11:45.124Z</time></trkpt><trkpt lat="44.2911117" lon="11.79008"><ele>93.0</ele><time>2026-04-11T16:11:46.124Z</time></trkpt><trkpt lat="44.2910133" lon="11.7903267"><ele>93.66666666666667</ele><time>2026-04-11T16:11:47.123Z</time></trkpt><trkpt lat="44.29091" lon="11.7905767"><ele>94.33333333333334</ele><time>2026-04-11T16:11:48.124Z</time></trkpt><trkpt lat="44.2908133" lon="11.7908133"><ele>95.0</ele><time>2026-04-11T16:11:49.123Z</time></trkpt><trkpt lat="44.2907333" lon="11.79102"><ele>97.6</ele><time>2026-04-11T16:11:50.124Z</time></trkpt><trkpt lat="44.2906783" lon="11.79119"><ele>100.2</ele><time>2026-04-11T16:11:51.124Z</time></trkpt><trkpt lat="44.29066" lon="11.7913333"><ele>102.80000000000001</ele><time>2026-04-11T16:11:52.122Z</time></trkpt><trkpt lat="44.2906767" lon="11.7914467"><ele>105.4</ele><time>2026-04-11T16:11:53.124Z</time></trkpt><trkpt lat="44.2907083" lon="11.7915467"><ele>108.0</ele><time>2026-04-11T16:11:54.124Z</time></trkpt><trkpt lat="44.29082" lon="11.7916083"><ele>108.0</ele><time>2026-04-11T16:11:55.122Z</time></trkpt><trkpt lat="44.290945" lon="11.7916467"><ele>108.0</ele><time>2026-04-11T16:11:56.123Z</time></trkpt><trkpt lat="44.2910783" lon="11.7916783"><ele>108.0</ele><time>2026-04-11T16:11:57.124Z</time></trkpt><trkpt lat="44.2912117" lon="11.7917117"><ele>108.0</ele><time>2026-04-11T16:11:58.123Z</time></trkpt><trkpt lat="44.2913533" lon="11.7917433"><ele>107.75</ele><time>2026-04-11T16:11:59.124Z</time></trkpt><trkpt lat="44.2914983" lon="11.7917833"><ele>107.5</ele><time>2026-04-11T16:12:00.123Z</time></trkpt><trkpt lat="44.291645" lon="11.7918283"><ele>107.25</ele><time>2026-04-11T16:12:01.124Z</time></trkpt><trkpt lat="44.2917917" lon="11.7918783"><ele>107.0</ele><time>2026-04-11T16:12:02.125Z</time></trkpt><trkpt lat="44.29193" lon="11.791925"><ele>108.8</ele><time>2026-04-11T16:12:03.125Z</time></trkpt><trkpt lat="44.2920533" lon="11.7919717"><ele>110.6</ele><time>2026-04-11T16:12:04.123Z</time></trkpt><trkpt lat="44.2921667" lon="11.7920233"><ele>112.39999999999999</ele><time>2026-04-11T16:12:05.123Z</time></trkpt><trkpt lat="44.2922533" lon="11.7920867"><ele>114.19999999999999</ele><time>2026-04-11T16:12:06.124Z</time></trkpt><trkpt lat="44.292315" lon="11.7921917"><ele>116.0</ele><time>2026-04-11T16:12:07.124Z</time></trkpt><trkpt lat="44.29237" lon="11.7923267"><ele>116.0</ele><time>2026-04-11T16:12:08.124Z</time></trkpt><trkpt lat="44.2924233" lon="11.79248"><ele>116.0</ele><time>2026-04-11T16:12:09.124Z</time></trkpt><trkpt lat="44.29248" lon="11.7926417"><ele>116.0</ele><time>2026-04-11T16:12:10.124Z</time></trkpt><trkpt lat="44.292535" lon="11.7928083"><ele>116.0</ele><time>2026-04-11T16:12:11.124Z</time></trkpt><trkpt lat="44.292585" lon="11.7929717"><ele>116.75</ele><time>2026-04-11T16:12:12.124Z</time></trkpt><trkpt lat="44.292635" lon="11.7931433"><ele>117.5</ele><time>2026-04-11T16:12:13.124Z</time></trkpt><trkpt lat="44.29269" lon="11.7933283"><ele>118.25</ele><time>2026-04-11T16:12:14.124Z</time></trkpt><trkpt lat="44.2927417" lon="11.7935217"><ele>119.0</ele><time>2026-04-11T16:12:15.125Z</time></trkpt><trkpt lat="44.292785" lon="11.7937283"><ele>116.33333333333333</ele><time>2026-04-11T16:12:16.123Z</time></trkpt><trkpt lat="44.2928233" lon="11.79395"><ele>113.66666666666666</ele><time>2026-04-11T16:12:17.124Z</time></trkpt><trkpt lat="44.2928567" lon="11.79417"><ele>111.0</ele><time>2026-04-11T16:12:18.124Z</time></trkpt><trkpt lat="44.29289" lon="11.7943767"><ele>111.0</ele><time>2026-04-11T16:12:19.124Z</time></trkpt><trkpt lat="44.292925" lon="11.7945667"><ele>111.0</ele><time>2026-04-11T16:12:20.125Z</time></trkpt><trkpt lat="44.292965" lon="11.7947417"><ele>111.0</ele><time>2026-04-11T16:12:21.124Z</time></trkpt><trkpt lat="44.2930167" lon="11.7949117"><ele>111.0</ele><time>2026-04-11T16:12:22.124Z</time></trkpt><trkpt lat="44.29309" lon="11.7950817"><ele>108.0</ele><time>2026-04-11T16:12:23.125Z</time></trkpt><trkpt lat="44.293175" lon="11.7952517"><ele>105.0</ele><time>2026-04-11T16:12:24.126Z</time></trkpt><trkpt lat="44.29327" lon="11.795425"><ele>102.0</ele><time>2026-04-11T16:12:25.124Z</time></trkpt><trkpt lat="44.2933717" lon="11.7956067"><ele>102.0</ele><time>2026-04-11T16:12:26.124Z</time></trkpt><trkpt lat="44.293475" lon="11.7957967"><ele>102.0</ele><time>2026-04-11T16:12:27.125Z</time></trkpt><trkpt lat="44.2935883" lon="11.7959883"><ele>102.0</ele><time>2026-04-11T16:12:28.123Z</time></trkpt><trkpt lat="44.2937117" lon="11.7961767"><ele>101.33333333333334</ele><time>2026-04-11T16:12:29.124Z</time></trkpt><trkpt lat="44.2938467" lon="11.7963633"><ele>100.66666666666667</ele><time>2026-04-11T16:12:30.123Z</time></trkpt><trkpt lat="44.2939817" lon="11.7965433"><ele>100.0</ele><time>2026-04-11T16:12:31.123Z</time></trkpt><trkpt lat="44.2941167" lon="11.7967117"><ele>96.0</ele><time>2026-04-11T16:12:32.124Z</time></trkpt><trkpt lat="44.2942567" lon="11.7968583"><ele>92.0</ele><time>2026-04-11T16:12:33.123Z</time></trkpt><trkpt lat="44.2944117" lon="11.796975"><ele>88.0</ele><time>2026-04-11T16:12:34.123Z</time></trkpt><trkpt lat="44.294585" lon="11.7970633"><ele>89.33333333333333</ele><time>2026-04-11T16:12:35.123Z</time></trkpt><trkpt lat="44.29477" lon="11.79713"><ele>90.66666666666667</ele><time>2026-04-11T16:12:36.125Z</time></trkpt><trkpt lat="44.29496" lon="11.7971867"><ele>92.0</ele><time>2026-04-11T16:12:37.123Z</time></trkpt><trkpt lat="44.2951417" lon="11.7972483"><ele>92.0</ele><time>2026-04-11T16:12:38.123Z</time></trkpt><trkpt lat="44.295315" lon="11.79731"><ele>92.0</ele><time>2026-04-11T16:12:39.124Z</time></trkpt><trkpt lat="44.2954867" lon="11.7973667"><ele>92.0</ele><time>2026-04-11T16:12:40.123Z</time></trkpt><trkpt lat="44.29566" lon="11.79741"><ele>91.66666666666667</ele><time>2026-04-11T16:12:41.123Z</time></trkpt><trkpt lat="44.2958383" lon="11.797425"><ele>91.33333333333333</ele><time>2026-04-11T16:12:42.125Z</time></trkpt><trkpt lat="44.2960183" lon="11.797405"><ele>91.0</ele><time>2026-04-11T16:12:43.123Z</time></trkpt><trkpt lat="44.2962017" lon="11.79736"><ele>91.0</ele><time>2026-04-11T16:12:44.124Z</time></trkpt><trkpt lat="44.2963783" lon="11.79731"><ele>91.0</ele><time>2026-04-11T16:12:45.124Z</time></trkpt><trkpt lat="44.2965467" lon="11.797265"><ele>91.0</ele><time>2026-04-11T16:12:46.124Z</time></trkpt><trkpt lat="44.2967067" lon="11.7972233"><ele>90.0</ele><time>2026-04-11T16:12:47.122Z</time></trkpt><trkpt lat="44.2968617" lon="11.7971883"><ele>89.0</ele><time>2026-04-11T16:12:48.123Z</time></trkpt><trkpt lat="44.297005" lon="11.7971583"><ele>88.0</ele><time>2026-04-11T16:12:49.124Z</time></trkpt><trkpt lat="44.2971267" lon="11.7971333"><ele>87.0</ele><time>2026-04-11T16:12:50.124Z</time></trkpt><trkpt lat="44.2972233" lon="11.7971133"><ele>85.66666666666667</ele><time>2026-04-11T16:12:51.125Z</time></trkpt><trkpt lat="44.297305" lon="11.7971"><ele>84.33333333333333</ele><time>2026-04-11T16:12:52.125Z</time></trkpt><trkpt lat="44.2973767" lon="11.7970883"><ele>83.0</ele><time>2026-04-11T16:12:53.125Z</time></trkpt><trkpt lat="44.29749" lon="11.7970783"><ele>81.66666666666666</ele><time>2026-04-11T16:12:55.125Z</time></trkpt><trkpt lat="44.29758" lon="11.79708"><ele>80.33333333333333</ele><time>2026-04-11T16:12:57.125Z</time></trkpt><trkpt lat="44.2976567" lon="11.7970833"><ele>79.0</ele><time>2026-04-11T16:12:59.124Z</time></trkpt><trkpt lat="44.2977417" lon="11.7970933"><ele>79.0</ele><time>2026-04-11T16:13:01.123Z</time></trkpt><trkpt lat="44.2978133" lon="11.7971017"><ele>79.0</ele><time>2026-04-11T16:13:03.124Z</time></trkpt><trkpt lat="44.2979267" lon="11.7971233"><ele>79.0</ele><time>2026-04-11T16:14:17.124Z</time></trkpt><trkpt lat="44.2980417" lon="11.797125"><ele>79.0</ele><time>2026-04-11T16:14:19.124Z</time></trkpt><trkpt lat="44.29813" lon="11.7971367"><ele>79.0</ele><time>2026-04-11T16:14:20.124Z</time></trkpt><trkpt lat="44.2982167" lon="11.7971683"><ele>78.5</ele><time>2026-04-11T16:14:21.125Z</time></trkpt><trkpt lat="44.2982817" lon="11.79723"><ele>78.0</ele><time>2026-04-11T16:14:22.124Z</time></trkpt><trkpt lat="44.2983117" lon="11.797315"><ele>77.5</ele><time>2026-04-11T16:14:23.124Z</time></trkpt><trkpt lat="44.298285" lon="11.7974033"><ele>77.0</ele><time>2026-04-11T16:14:24.124Z</time></trkpt><trkpt lat="44.298235" lon="11.7974983"><ele>76.5</ele><time>2026-04-11T16:14:25.124Z</time></trkpt><trkpt lat="44.29816" lon="11.7976067"><ele>76.0</ele><time>2026-04-11T16:14:26.126Z</time></trkpt><trkpt lat="44.298025" lon="11.7977333"><ele>73.33333333333333</ele><time>2026-04-11T16:14:27.124Z</time></trkpt><trkpt lat="44.2978867" lon="11.7978667"><ele>70.66666666666667</ele><time>2026-04-11T16:14:28.123Z</time></trkpt><trkpt lat="44.2977617" lon="11.7979967"><ele>68.0</ele><time>2026-04-11T16:14:29.124Z</time></trkpt><trkpt lat="44.297645" lon="11.7981183"><ele>68.0</ele><time>2026-04-11T16:14:30.124Z</time></trkpt><trkpt lat="44.2975367" lon="11.7982183"><ele>68.0</ele><time>2026-04-11T16:14:31.124Z</time></trkpt><trkpt lat="44.297435" lon="11.7983067"><ele>68.0</ele><time>2026-04-11T16:14:32.124Z</time></trkpt><trkpt lat="44.2973417" lon="11.7983833"><ele>68.0</ele><time>2026-04-11T16:14:33.124Z</time></trkpt><trkpt lat="44.2972567" lon="11.7984533"><ele>66.8</ele><time>2026-04-11T16:14:34.123Z</time></trkpt><trkpt lat="44.2971833" lon="11.7985317"><ele>65.6</ele><time>2026-04-11T16:14:35.124Z</time></trkpt><trkpt lat="44.2971217" lon="11.79862"><ele>64.4</ele><time>2026-04-11T16:14:36.124Z</time></trkpt><trkpt lat="44.2970783" lon="11.798705"><ele>63.2</ele><time>2026-04-11T16:14:37.124Z</time></trkpt><trkpt lat="44.2970133" lon="11.7988267"><ele>62.0</ele><time>2026-04-11T16:14:39.124Z</time></trkpt><trkpt lat="44.2969167" lon="11.798925"><ele>62.0</ele><time>2026-04-11T16:14:41.124Z</time></trkpt><trkpt lat="44.2968483" lon="11.7989883"><ele>62.0</ele><time>2026-04-11T16:14:42.123Z</time></trkpt><trkpt lat="44.2967733" lon="11.7990667"><ele>62.0</ele><time>2026-04-11T16:14:43.124Z</time></trkpt><trkpt lat="44.296685" lon="11.799145"><ele>62.0</ele><time>2026-04-11T16:14:44.124Z</time></trkpt><trkpt lat="44.2965883" lon="11.799205"><ele>62.0</ele><time>2026-04-11T16:14:45.124Z</time></trkpt><trkpt lat="44.29648" lon="11.7992567"><ele>60.5</ele><time>2026-04-11T16:14:46.124Z</time></trkpt><trkpt lat="44.2963567" lon="11.799305"><ele>59.0</ele><time>2026-04-11T16:14:47.124Z</time></trkpt><trkpt lat="44.2962283" lon="11.79936"><ele>57.5</ele><time>2026-04-11T16:14:48.125Z</time></trkpt><trkpt lat="44.296105" lon="11.799435"><ele>56.0</ele><time>2026-04-11T16:14:49.125Z</time></trkpt><trkpt lat="44.295985" lon="11.79953"><ele>56.0</ele><time>2026-04-11T16:14:50.125Z</time></trkpt><trkpt lat="44.2958633" lon="11.7996367"><ele>56.0</ele><time>2026-04-11T16:14:51.125Z</time></trkpt><trkpt lat="44.29574" lon="11.79974"><ele>56.0</ele><time>2026-04-11T16:14:52.123Z</time></trkpt><trkpt lat="44.295625" lon="11.799825"><ele>56.0</ele><time>2026-04-11T16:14:53.125Z</time></trkpt><trkpt lat="44.2955083" lon="11.799885"><ele>56.0</ele><time>2026-04-11T16:14:54.124Z</time></trkpt><trkpt lat="44.2953967" lon="11.7999133"><ele>55.99999999999999</ele><time>2026-04-11T16:14:55.124Z</time></trkpt><trkpt lat="44.2952833" lon="11.7999283"><ele>55.99999999999999</ele><time>2026-04-11T16:14:56.124Z</time></trkpt><trkpt lat="44.2951733" lon="11.7999417"><ele>56.0</ele><time>2026-04-11T16:14:57.124Z</time></trkpt><trkpt lat="44.2950683" lon="11.79996"><ele>56.0</ele><time>2026-04-11T16:14:58.124Z</time></trkpt><trkpt lat="44.294965" lon="11.7999783"><ele>56.0</ele><time>2026-04-11T16:14:59.124Z</time></trkpt><trkpt lat="44.2948633" lon="11.799995"><ele>55.99999999999999</ele><time>2026-04-11T16:15:00.124Z</time></trkpt><trkpt lat="44.2947717" lon="11.8000083"><ele>55.99999999999999</ele><time>2026-04-11T16:15:01.123Z</time></trkpt><trkpt lat="44.2946933" lon="11.8000133"><ele>56.0</ele><time>2026-04-11T16:15:02.124Z</time></trkpt><trkpt lat="44.294625" lon="11.8"><ele>56.0</ele><time>2026-04-11T16:15:03.124Z</time></trkpt><trkpt lat="44.294545" lon="11.7998833"><ele>55.599999999999994</ele><time>2026-04-11T16:15:05.124Z</time></trkpt><trkpt lat="44.29452" lon="11.7997967"><ele>55.199999999999996</ele><time>2026-04-11T16:15:06.124Z</time></trkpt><trkpt lat="44.2944483" lon="11.7996867"><ele>54.800000000000004</ele><time>2026-04-11T16:15:08.124Z</time></trkpt><trkpt lat="44.2943667" lon="11.79969"><ele>54.400000000000006</ele><time>2026-04-11T16:15:10.124Z</time></trkpt><trkpt lat="44.2942667" lon="11.7997"><ele>54.0</ele><time>2026-04-11T16:15:12.124Z</time></trkpt><trkpt lat="44.29416" lon="11.7996917"><ele>54.0</ele><time>2026-04-11T16:15:14.123Z</time></trkpt><trkpt lat="44.2940933" lon="11.79968"><ele>54.0</ele><time>2026-04-11T16:15:16.124Z</time></trkpt></trkseg></trk></gpx>